<?xml version="1.0" encoding="UTF-8" standalone="no" ?>
<gpx xmlns="http://www.topografix.com/GPX/1/1" xmlns:xsi="http://www.w3.org/2001/XMLSchema-instance" xsi:schemaLocation="http://www.topografix.com/GPX/1/1 http://www.topografix.com/GPX/1/1/gpx.xsd" version="1.1" creator="VisuGPX - https://www.visugpx.com">
  <metadata>
    <name>ADAMELLO ULTRA TRAIL 180K</name>
    <desc><![CDATA[ADAMELLO ULTRA TRAIL 180K.   Vezza Oglio- Santa apollonia- Casa di Viso- Passo tonale- Citta Morta- Passo Tonale- Ponte Di Legno- Edolo- Mortirolo]]></desc>
  </metadata>
  <trk>
    <name><![CDATA[ADAMELLO ULTRATRAIL]]></name>
    <trkseg>
      <trkpt lat="46.24034" lon="10.39768">
        <ele>1074.366</ele>
        <time>2018-08-09T05:58:15Z</time>
      </trkpt>
      <trkpt lat="46.24038" lon="10.39783">
        <ele>1073.229</ele>
        <time>2018-08-09T05:58:35Z</time>
      </trkpt>
      <trkpt lat="46.24038" lon="10.39787">
        <ele>1073.321</ele>
        <time>2018-08-09T05:58:55Z</time>
      </trkpt>
      <trkpt lat="46.2404" lon="10.39795">
        <ele>1073.408</ele>
        <time>2018-08-09T05:59:15Z</time>
      </trkpt>
      <trkpt lat="46.24042" lon="10.39804">
        <ele>1073.518</ele>
        <time>2018-08-09T05:59:35Z</time>
      </trkpt>
      <trkpt lat="46.24047" lon="10.39832">
        <ele>1075.063</ele>
        <time>2018-08-09T05:59:55Z</time>
      </trkpt>
      <trkpt lat="46.2405" lon="10.39842">
        <ele>1075.759</ele>
        <time>2018-08-09T06:00:15Z</time>
      </trkpt>
      <trkpt lat="46.2405" lon="10.39844">
        <ele>1075.853</ele>
        <time>2018-08-09T06:00:35Z</time>
      </trkpt>
      <trkpt lat="46.2405" lon="10.39844">
        <ele>1075.888</ele>
        <time>2018-08-09T06:00:55Z</time>
      </trkpt>
      <trkpt lat="46.24054" lon="10.39858">
        <ele>1076.749</ele>
        <time>2018-08-09T06:01:15Z</time>
      </trkpt>
      <trkpt lat="46.24058" lon="10.39866">
        <ele>1077.696</ele>
        <time>2018-08-09T06:01:35Z</time>
      </trkpt>
      <trkpt lat="46.24062" lon="10.39875">
        <ele>1078.719</ele>
        <time>2018-08-09T06:01:55Z</time>
      </trkpt>
      <trkpt lat="46.24064" lon="10.39878">
        <ele>1079.257</ele>
        <time>2018-08-09T06:02:15Z</time>
      </trkpt>
      <trkpt lat="46.24077" lon="10.39894">
        <ele>1082.1</ele>
        <time>2018-08-09T06:02:35Z</time>
      </trkpt>
      <trkpt lat="46.2408" lon="10.3992">
        <ele>1084.32</ele>
        <time>2018-08-09T06:02:55Z</time>
      </trkpt>
      <trkpt lat="46.24083" lon="10.39945">
        <ele>1085.908</ele>
        <time>2018-08-09T06:03:15Z</time>
      </trkpt>
      <trkpt lat="46.24089" lon="10.39968">
        <ele>1087.427</ele>
        <time>2018-08-09T06:03:35Z</time>
      </trkpt>
      <trkpt lat="46.24089" lon="10.39968">
        <ele>1087.432</ele>
        <time>2018-08-09T06:03:55Z</time>
      </trkpt>
      <trkpt lat="46.24089" lon="10.3997">
        <ele>1087.558</ele>
        <time>2018-08-09T06:04:15Z</time>
      </trkpt>
      <trkpt lat="46.24096" lon="10.39994">
        <ele>1089.012</ele>
        <time>2018-08-09T06:04:35Z</time>
      </trkpt>
      <trkpt lat="46.24099" lon="10.40004">
        <ele>1089.927</ele>
        <time>2018-08-09T06:04:55Z</time>
      </trkpt>
      <trkpt lat="46.2411" lon="10.4004">
        <ele>1092.838</ele>
        <time>2018-08-09T06:05:15Z</time>
      </trkpt>
      <trkpt lat="46.24104" lon="10.40138">
        <ele>1088.635</ele>
        <time>2018-08-09T06:05:35Z</time>
      </trkpt>
      <trkpt lat="46.24104" lon="10.40177">
        <ele>1087.568</ele>
        <time>2018-08-09T06:05:55Z</time>
      </trkpt>
      <trkpt lat="46.24105" lon="10.40193">
        <ele>1087.788</ele>
        <time>2018-08-09T06:06:15Z</time>
      </trkpt>
      <trkpt lat="46.24109" lon="10.40211">
        <ele>1087.924</ele>
        <time>2018-08-09T06:06:35Z</time>
      </trkpt>
      <trkpt lat="46.24113" lon="10.40232">
        <ele>1088.026</ele>
        <time>2018-08-09T06:06:55Z</time>
      </trkpt>
      <trkpt lat="46.24114" lon="10.40251">
        <ele>1087.608</ele>
        <time>2018-08-09T06:07:15Z</time>
      </trkpt>
      <trkpt lat="46.24112" lon="10.40277">
        <ele>1086.27</ele>
        <time>2018-08-09T06:07:35Z</time>
      </trkpt>
      <trkpt lat="46.24112" lon="10.40277">
        <ele>1086.245</ele>
        <time>2018-08-09T06:07:55Z</time>
      </trkpt>
      <trkpt lat="46.24112" lon="10.40287">
        <ele>1085.891</ele>
        <time>2018-08-09T06:08:15Z</time>
      </trkpt>
      <trkpt lat="46.24108" lon="10.40326">
        <ele>1085.085</ele>
        <time>2018-08-09T06:08:35Z</time>
      </trkpt>
      <trkpt lat="46.24109" lon="10.4034">
        <ele>1085.11</ele>
        <time>2018-08-09T06:08:55Z</time>
      </trkpt>
      <trkpt lat="46.24112" lon="10.40389">
        <ele>1084.281</ele>
        <time>2018-08-09T06:09:15Z</time>
      </trkpt>
      <trkpt lat="46.24116" lon="10.40407">
        <ele>1084.568</ele>
        <time>2018-08-09T06:09:35Z</time>
      </trkpt>
      <trkpt lat="46.24128" lon="10.40463">
        <ele>1086.441</ele>
        <time>2018-08-09T06:09:55Z</time>
      </trkpt>
      <trkpt lat="46.24129" lon="10.40469">
        <ele>1086.528</ele>
        <time>2018-08-09T06:10:15Z</time>
      </trkpt>
      <trkpt lat="46.24138" lon="10.40522">
        <ele>1087.089</ele>
        <time>2018-08-09T06:10:35Z</time>
      </trkpt>
      <trkpt lat="46.24139" lon="10.4053">
        <ele>1087.017</ele>
        <time>2018-08-09T06:10:55Z</time>
      </trkpt>
      <trkpt lat="46.24142" lon="10.40551">
        <ele>1087.108</ele>
        <time>2018-08-09T06:11:15Z</time>
      </trkpt>
      <trkpt lat="46.24151" lon="10.40636">
        <ele>1087.684</ele>
        <time>2018-08-09T06:11:35Z</time>
      </trkpt>
      <trkpt lat="46.24158" lon="10.40683">
        <ele>1088.559</ele>
        <time>2018-08-09T06:11:55Z</time>
      </trkpt>
      <trkpt lat="46.24158" lon="10.40683">
        <ele>1088.545</ele>
        <time>2018-08-09T06:12:15Z</time>
      </trkpt>
      <trkpt lat="46.24176" lon="10.40798">
        <ele>1089.849</ele>
        <time>2018-08-09T06:12:35Z</time>
      </trkpt>
      <trkpt lat="46.24176" lon="10.40802">
        <ele>1089.744</ele>
        <time>2018-08-09T06:12:55Z</time>
      </trkpt>
      <trkpt lat="46.2418" lon="10.40871">
        <ele>1094.745</ele>
        <time>2018-08-09T06:13:15Z</time>
      </trkpt>
      <trkpt lat="46.24178" lon="10.4092">
        <ele>1096.052</ele>
        <time>2018-08-09T06:13:35Z</time>
      </trkpt>
      <trkpt lat="46.24178" lon="10.4092">
        <ele>1096.015</ele>
        <time>2018-08-09T06:13:55Z</time>
      </trkpt>
      <trkpt lat="46.24176" lon="10.40941">
        <ele>1097.547</ele>
        <time>2018-08-09T06:14:15Z</time>
      </trkpt>
      <trkpt lat="46.24168" lon="10.40972">
        <ele>1097.529</ele>
        <time>2018-08-09T06:14:35Z</time>
      </trkpt>
      <trkpt lat="46.24167" lon="10.40977">
        <ele>1097.221</ele>
        <time>2018-08-09T06:14:55Z</time>
      </trkpt>
      <trkpt lat="46.24152" lon="10.40999">
        <ele>1096.308</ele>
        <time>2018-08-09T06:15:15Z</time>
      </trkpt>
      <trkpt lat="46.24152" lon="10.41021">
        <ele>1095.596</ele>
        <time>2018-08-09T06:15:35Z</time>
      </trkpt>
      <trkpt lat="46.24158" lon="10.41062">
        <ele>1095.071</ele>
        <time>2018-08-09T06:15:55Z</time>
      </trkpt>
      <trkpt lat="46.24159" lon="10.41077">
        <ele>1094.637</ele>
        <time>2018-08-09T06:16:15Z</time>
      </trkpt>
      <trkpt lat="46.2416" lon="10.41083">
        <ele>1094.551</ele>
        <time>2018-08-09T06:16:35Z</time>
      </trkpt>
      <trkpt lat="46.2416" lon="10.41089">
        <ele>1094.476</ele>
        <time>2018-08-09T06:16:55Z</time>
      </trkpt>
      <trkpt lat="46.24163" lon="10.41111">
        <ele>1094.227</ele>
        <time>2018-08-09T06:17:15Z</time>
      </trkpt>
      <trkpt lat="46.24188" lon="10.41142">
        <ele>1099.134</ele>
        <time>2018-08-09T06:17:35Z</time>
      </trkpt>
      <trkpt lat="46.24191" lon="10.41146">
        <ele>1099.777</ele>
        <time>2018-08-09T06:17:55Z</time>
      </trkpt>
      <trkpt lat="46.24196" lon="10.41153">
        <ele>1100.765</ele>
        <time>2018-08-09T06:18:15Z</time>
      </trkpt>
      <trkpt lat="46.24205" lon="10.41169">
        <ele>1102.968</ele>
        <time>2018-08-09T06:18:35Z</time>
      </trkpt>
      <trkpt lat="46.24223" lon="10.41196">
        <ele>1107.914</ele>
        <time>2018-08-09T06:18:55Z</time>
      </trkpt>
      <trkpt lat="46.24242" lon="10.41223">
        <ele>1112.108</ele>
        <time>2018-08-09T06:19:15Z</time>
      </trkpt>
      <trkpt lat="46.24254" lon="10.41244">
        <ele>1114.688</ele>
        <time>2018-08-09T06:19:35Z</time>
      </trkpt>
      <trkpt lat="46.24265" lon="10.41263">
        <ele>1116.933</ele>
        <time>2018-08-09T06:19:55Z</time>
      </trkpt>
      <trkpt lat="46.24277" lon="10.41286">
        <ele>1119.299</ele>
        <time>2018-08-09T06:20:15Z</time>
      </trkpt>
      <trkpt lat="46.24284" lon="10.413">
        <ele>1119.713</ele>
        <time>2018-08-09T06:20:35Z</time>
      </trkpt>
      <trkpt lat="46.24288" lon="10.41309">
        <ele>1120.238</ele>
        <time>2018-08-09T06:20:55Z</time>
      </trkpt>
      <trkpt lat="46.24298" lon="10.41332">
        <ele>1122.199</ele>
        <time>2018-08-09T06:21:15Z</time>
      </trkpt>
      <trkpt lat="46.24304" lon="10.41345">
        <ele>1123.136</ele>
        <time>2018-08-09T06:21:35Z</time>
      </trkpt>
      <trkpt lat="46.24325" lon="10.41389">
        <ele>1127.599</ele>
        <time>2018-08-09T06:21:55Z</time>
      </trkpt>
      <trkpt lat="46.24338" lon="10.41388">
        <ele>1131.658</ele>
        <time>2018-08-09T06:22:15Z</time>
      </trkpt>
      <trkpt lat="46.24361" lon="10.41355">
        <ele>1138.752</ele>
        <time>2018-08-09T06:22:35Z</time>
      </trkpt>
      <trkpt lat="46.24387" lon="10.41315">
        <ele>1148.817</ele>
        <time>2018-08-09T06:22:55Z</time>
      </trkpt>
      <trkpt lat="46.24387" lon="10.41315">
        <ele>1148.808</ele>
        <time>2018-08-09T06:23:15Z</time>
      </trkpt>
      <trkpt lat="46.24405" lon="10.41298">
        <ele>1160.477</ele>
        <time>2018-08-09T06:23:35Z</time>
      </trkpt>
      <trkpt lat="46.24417" lon="10.41313">
        <ele>1165.872</ele>
        <time>2018-08-09T06:23:55Z</time>
      </trkpt>
      <trkpt lat="46.24428" lon="10.41326">
        <ele>1170.588</ele>
        <time>2018-08-09T06:24:15Z</time>
      </trkpt>
      <trkpt lat="46.24434" lon="10.41333">
        <ele>1172.022</ele>
        <time>2018-08-09T06:24:35Z</time>
      </trkpt>
      <trkpt lat="46.24443" lon="10.41349">
        <ele>1173.767</ele>
        <time>2018-08-09T06:24:55Z</time>
      </trkpt>
      <trkpt lat="46.24446" lon="10.41355">
        <ele>1174.538</ele>
        <time>2018-08-09T06:25:15Z</time>
      </trkpt>
      <trkpt lat="46.24454" lon="10.41372">
        <ele>1176.425</ele>
        <time>2018-08-09T06:25:35Z</time>
      </trkpt>
      <trkpt lat="46.24458" lon="10.41386">
        <ele>1176.028</ele>
        <time>2018-08-09T06:25:55Z</time>
      </trkpt>
      <trkpt lat="46.2447" lon="10.4141">
        <ele>1183.015</ele>
        <time>2018-08-09T06:26:15Z</time>
      </trkpt>
      <trkpt lat="46.24483" lon="10.41424">
        <ele>1190.265</ele>
        <time>2018-08-09T06:26:35Z</time>
      </trkpt>
      <trkpt lat="46.24496" lon="10.41424">
        <ele>1194.911</ele>
        <time>2018-08-09T06:26:55Z</time>
      </trkpt>
      <trkpt lat="46.24512" lon="10.41425">
        <ele>1201.708</ele>
        <time>2018-08-09T06:27:15Z</time>
      </trkpt>
      <trkpt lat="46.24518" lon="10.41426">
        <ele>1204.183</ele>
        <time>2018-08-09T06:27:35Z</time>
      </trkpt>
      <trkpt lat="46.24538" lon="10.41419">
        <ele>1212.978</ele>
        <time>2018-08-09T06:27:55Z</time>
      </trkpt>
      <trkpt lat="46.24547" lon="10.41414">
        <ele>1218.314</ele>
        <time>2018-08-09T06:28:15Z</time>
      </trkpt>
      <trkpt lat="46.24548" lon="10.41413">
        <ele>1219.318</ele>
        <time>2018-08-09T06:28:35Z</time>
      </trkpt>
      <trkpt lat="46.24571" lon="10.41402">
        <ele>1230.233</ele>
        <time>2018-08-09T06:28:55Z</time>
      </trkpt>
      <trkpt lat="46.2458" lon="10.41401">
        <ele>1233.764</ele>
        <time>2018-08-09T06:29:15Z</time>
      </trkpt>
      <trkpt lat="46.2459" lon="10.41401">
        <ele>1236.841</ele>
        <time>2018-08-09T06:29:35Z</time>
      </trkpt>
      <trkpt lat="46.24599" lon="10.41395">
        <ele>1240.614</ele>
        <time>2018-08-09T06:29:55Z</time>
      </trkpt>
      <trkpt lat="46.24615" lon="10.41391">
        <ele>1245.645</ele>
        <time>2018-08-09T06:30:15Z</time>
      </trkpt>
      <trkpt lat="46.24629" lon="10.41388">
        <ele>1248.347</ele>
        <time>2018-08-09T06:30:35Z</time>
      </trkpt>
      <trkpt lat="46.24647" lon="10.41388">
        <ele>1251.311</ele>
        <time>2018-08-09T06:30:55Z</time>
      </trkpt>
      <trkpt lat="46.24657" lon="10.41386">
        <ele>1253.108</ele>
        <time>2018-08-09T06:31:15Z</time>
      </trkpt>
      <trkpt lat="46.24676" lon="10.41378">
        <ele>1259.946</ele>
        <time>2018-08-09T06:31:35Z</time>
      </trkpt>
      <trkpt lat="46.24688" lon="10.4137">
        <ele>1265.241</ele>
        <time>2018-08-09T06:31:55Z</time>
      </trkpt>
      <trkpt lat="46.24693" lon="10.41356">
        <ele>1268.287</ele>
        <time>2018-08-09T06:32:15Z</time>
      </trkpt>
      <trkpt lat="46.24692" lon="10.41353">
        <ele>1268.261</ele>
        <time>2018-08-09T06:32:35Z</time>
      </trkpt>
      <trkpt lat="46.24688" lon="10.41344">
        <ele>1268.316</ele>
        <time>2018-08-09T06:32:55Z</time>
      </trkpt>
      <trkpt lat="46.24677" lon="10.41327">
        <ele>1268.087</ele>
        <time>2018-08-09T06:33:15Z</time>
      </trkpt>
      <trkpt lat="46.24667" lon="10.41311">
        <ele>1268.674</ele>
        <time>2018-08-09T06:33:35Z</time>
      </trkpt>
      <trkpt lat="46.24663" lon="10.41304">
        <ele>1269.557</ele>
        <time>2018-08-09T06:33:55Z</time>
      </trkpt>
      <trkpt lat="46.24656" lon="10.41292">
        <ele>1270.536</ele>
        <time>2018-08-09T06:34:15Z</time>
      </trkpt>
      <trkpt lat="46.24647" lon="10.41286">
        <ele>1269.817</ele>
        <time>2018-08-09T06:34:35Z</time>
      </trkpt>
      <trkpt lat="46.24642" lon="10.41284">
        <ele>1268.618</ele>
        <time>2018-08-09T06:34:55Z</time>
      </trkpt>
      <trkpt lat="46.24623" lon="10.41267">
        <ele>1271.608</ele>
        <time>2018-08-09T06:35:15Z</time>
      </trkpt>
      <trkpt lat="46.24608" lon="10.41237">
        <ele>1277.045</ele>
        <time>2018-08-09T06:35:35Z</time>
      </trkpt>
      <trkpt lat="46.24605" lon="10.41213">
        <ele>1279.18</ele>
        <time>2018-08-09T06:35:55Z</time>
      </trkpt>
      <trkpt lat="46.24603" lon="10.41189">
        <ele>1280.696</ele>
        <time>2018-08-09T06:36:15Z</time>
      </trkpt>
      <trkpt lat="46.24604" lon="10.41166">
        <ele>1282.25</ele>
        <time>2018-08-09T06:36:35Z</time>
      </trkpt>
      <trkpt lat="46.24645" lon="10.41108">
        <ele>1285.415</ele>
        <time>2018-08-09T06:36:55Z</time>
      </trkpt>
      <trkpt lat="46.24673" lon="10.41104">
        <ele>1296.756</ele>
        <time>2018-08-09T06:37:15Z</time>
      </trkpt>
      <trkpt lat="46.24689" lon="10.41105">
        <ele>1299.113</ele>
        <time>2018-08-09T06:37:35Z</time>
      </trkpt>
      <trkpt lat="46.24699" lon="10.41099">
        <ele>1300.946</ele>
        <time>2018-08-09T06:37:55Z</time>
      </trkpt>
      <trkpt lat="46.24706" lon="10.41096">
        <ele>1302.292</ele>
        <time>2018-08-09T06:38:15Z</time>
      </trkpt>
      <trkpt lat="46.24716" lon="10.4109">
        <ele>1303.673</ele>
        <time>2018-08-09T06:38:35Z</time>
      </trkpt>
      <trkpt lat="46.24713" lon="10.41072">
        <ele>1311.12</ele>
        <time>2018-08-09T06:38:55Z</time>
      </trkpt>
      <trkpt lat="46.24714" lon="10.41069">
        <ele>1313.408</ele>
        <time>2018-08-09T06:39:15Z</time>
      </trkpt>
      <trkpt lat="46.24713" lon="10.41068">
        <ele>1314.171</ele>
        <time>2018-08-09T06:39:35Z</time>
      </trkpt>
      <trkpt lat="46.24697" lon="10.41051">
        <ele>1321.646</ele>
        <time>2018-08-09T06:39:55Z</time>
      </trkpt>
      <trkpt lat="46.24695" lon="10.41044">
        <ele>1324.632</ele>
        <time>2018-08-09T06:40:15Z</time>
      </trkpt>
      <trkpt lat="46.24691" lon="10.41032">
        <ele>1327.766</ele>
        <time>2018-08-09T06:40:35Z</time>
      </trkpt>
      <trkpt lat="46.24683" lon="10.41023">
        <ele>1327.011</ele>
        <time>2018-08-09T06:40:55Z</time>
      </trkpt>
      <trkpt lat="46.24672" lon="10.4101">
        <ele>1326.212</ele>
        <time>2018-08-09T06:41:15Z</time>
      </trkpt>
      <trkpt lat="46.24657" lon="10.40989">
        <ele>1327.219</ele>
        <time>2018-08-09T06:41:35Z</time>
      </trkpt>
      <trkpt lat="46.24625" lon="10.40963">
        <ele>1320.182</ele>
        <time>2018-08-09T06:41:55Z</time>
      </trkpt>
      <trkpt lat="46.24611" lon="10.4095">
        <ele>1316.364</ele>
        <time>2018-08-09T06:42:15Z</time>
      </trkpt>
      <trkpt lat="46.24607" lon="10.40942">
        <ele>1316.306</ele>
        <time>2018-08-09T06:42:35Z</time>
      </trkpt>
      <trkpt lat="46.24604" lon="10.40933">
        <ele>1314.716</ele>
        <time>2018-08-09T06:42:55Z</time>
      </trkpt>
      <trkpt lat="46.24601" lon="10.40927">
        <ele>1313.508</ele>
        <time>2018-08-09T06:43:15Z</time>
      </trkpt>
      <trkpt lat="46.246" lon="10.40921">
        <ele>1313.468</ele>
        <time>2018-08-09T06:43:35Z</time>
      </trkpt>
      <trkpt lat="46.24599" lon="10.40913">
        <ele>1312.643</ele>
        <time>2018-08-09T06:43:55Z</time>
      </trkpt>
      <trkpt lat="46.24601" lon="10.40891">
        <ele>1313.479</ele>
        <time>2018-08-09T06:44:15Z</time>
      </trkpt>
      <trkpt lat="46.24602" lon="10.40882">
        <ele>1315.313</ele>
        <time>2018-08-09T06:44:35Z</time>
      </trkpt>
      <trkpt lat="46.24602" lon="10.40881">
        <ele>1315.988</ele>
        <time>2018-08-09T06:44:55Z</time>
      </trkpt>
      <trkpt lat="46.24602" lon="10.40872">
        <ele>1317.959</ele>
        <time>2018-08-09T06:45:15Z</time>
      </trkpt>
      <trkpt lat="46.24602" lon="10.40857">
        <ele>1321.866</ele>
        <time>2018-08-09T06:45:35Z</time>
      </trkpt>
      <trkpt lat="46.24602" lon="10.40848">
        <ele>1324.869</ele>
        <time>2018-08-09T06:45:55Z</time>
      </trkpt>
      <trkpt lat="46.24601" lon="10.40842">
        <ele>1326.395</ele>
        <time>2018-08-09T06:46:15Z</time>
      </trkpt>
      <trkpt lat="46.24601" lon="10.4084">
        <ele>1326.949</ele>
        <time>2018-08-09T06:46:35Z</time>
      </trkpt>
      <trkpt lat="46.24601" lon="10.40839">
        <ele>1327.023</ele>
        <time>2018-08-09T06:46:55Z</time>
      </trkpt>
      <trkpt lat="46.24597" lon="10.4083">
        <ele>1328.308</ele>
        <time>2018-08-09T06:47:15Z</time>
      </trkpt>
      <trkpt lat="46.24594" lon="10.40815">
        <ele>1330.181</ele>
        <time>2018-08-09T06:47:35Z</time>
      </trkpt>
      <trkpt lat="46.24592" lon="10.40812">
        <ele>1329.886</ele>
        <time>2018-08-09T06:47:55Z</time>
      </trkpt>
      <trkpt lat="46.2459" lon="10.40807">
        <ele>1330.262</ele>
        <time>2018-08-09T06:48:15Z</time>
      </trkpt>
      <trkpt lat="46.24588" lon="10.40802">
        <ele>1329.836</ele>
        <time>2018-08-09T06:48:35Z</time>
      </trkpt>
      <trkpt lat="46.24583" lon="10.40778">
        <ele>1328.781</ele>
        <time>2018-08-09T06:48:55Z</time>
      </trkpt>
      <trkpt lat="46.2458" lon="10.40762">
        <ele>1328.312</ele>
        <time>2018-08-09T06:49:15Z</time>
      </trkpt>
      <trkpt lat="46.24577" lon="10.40745">
        <ele>1328.129</ele>
        <time>2018-08-09T06:49:35Z</time>
      </trkpt>
      <trkpt lat="46.24575" lon="10.4072">
        <ele>1329.232</ele>
        <time>2018-08-09T06:49:55Z</time>
      </trkpt>
      <trkpt lat="46.24574" lon="10.40714">
        <ele>1329.668</ele>
        <time>2018-08-09T06:50:15Z</time>
      </trkpt>
      <trkpt lat="46.24573" lon="10.40704">
        <ele>1330.342</ele>
        <time>2018-08-09T06:50:35Z</time>
      </trkpt>
      <trkpt lat="46.24573" lon="10.40698">
        <ele>1330.726</ele>
        <time>2018-08-09T06:50:55Z</time>
      </trkpt>
      <trkpt lat="46.24572" lon="10.40691">
        <ele>1331.008</ele>
        <time>2018-08-09T06:51:15Z</time>
      </trkpt>
      <trkpt lat="46.24572" lon="10.40687">
        <ele>1331.018</ele>
        <time>2018-08-09T06:51:35Z</time>
      </trkpt>
      <trkpt lat="46.24568" lon="10.40673">
        <ele>1328.623</ele>
        <time>2018-08-09T06:51:55Z</time>
      </trkpt>
      <trkpt lat="46.24566" lon="10.40669">
        <ele>1327.049</ele>
        <time>2018-08-09T06:52:15Z</time>
      </trkpt>
      <trkpt lat="46.24561" lon="10.40658">
        <ele>1323.693</ele>
        <time>2018-08-09T06:52:35Z</time>
      </trkpt>
      <trkpt lat="46.24554" lon="10.40639">
        <ele>1320.098</ele>
        <time>2018-08-09T06:52:55Z</time>
      </trkpt>
      <trkpt lat="46.24548" lon="10.40612">
        <ele>1319.489</ele>
        <time>2018-08-09T06:53:15Z</time>
      </trkpt>
      <trkpt lat="46.24547" lon="10.40603">
        <ele>1319.586</ele>
        <time>2018-08-09T06:53:35Z</time>
      </trkpt>
      <trkpt lat="46.24543" lon="10.40589">
        <ele>1318.129</ele>
        <time>2018-08-09T06:53:55Z</time>
      </trkpt>
      <trkpt lat="46.24542" lon="10.40585">
        <ele>1317.825</ele>
        <time>2018-08-09T06:54:15Z</time>
      </trkpt>
      <trkpt lat="46.24541" lon="10.40573">
        <ele>1317.226</ele>
        <time>2018-08-09T06:54:35Z</time>
      </trkpt>
      <trkpt lat="46.2454" lon="10.40562">
        <ele>1317.008</ele>
        <time>2018-08-09T06:54:55Z</time>
      </trkpt>
      <trkpt lat="46.24538" lon="10.40538">
        <ele>1316.408</ele>
        <time>2018-08-09T06:55:15Z</time>
      </trkpt>
      <trkpt lat="46.24537" lon="10.40526">
        <ele>1316.794</ele>
        <time>2018-08-09T06:55:35Z</time>
      </trkpt>
      <trkpt lat="46.24537" lon="10.40522">
        <ele>1316.699</ele>
        <time>2018-08-09T06:55:55Z</time>
      </trkpt>
      <trkpt lat="46.24537" lon="10.40514">
        <ele>1317.135</ele>
        <time>2018-08-09T06:56:15Z</time>
      </trkpt>
      <trkpt lat="46.24536" lon="10.40508">
        <ele>1317.319</ele>
        <time>2018-08-09T06:56:35Z</time>
      </trkpt>
      <trkpt lat="46.24535" lon="10.40484">
        <ele>1317.784</ele>
        <time>2018-08-09T06:56:55Z</time>
      </trkpt>
      <trkpt lat="46.24534" lon="10.40474">
        <ele>1317.835</ele>
        <time>2018-08-09T06:57:15Z</time>
      </trkpt>
      <trkpt lat="46.24534" lon="10.40456">
        <ele>1318.252</ele>
        <time>2018-08-09T06:57:35Z</time>
      </trkpt>
      <trkpt lat="46.24534" lon="10.40454">
        <ele>1318.365</ele>
        <time>2018-08-09T06:57:55Z</time>
      </trkpt>
      <trkpt lat="46.24534" lon="10.40444">
        <ele>1318.792</ele>
        <time>2018-08-09T06:58:15Z</time>
      </trkpt>
      <trkpt lat="46.24535" lon="10.40423">
        <ele>1317.773</ele>
        <time>2018-08-09T06:58:35Z</time>
      </trkpt>
      <trkpt lat="46.24534" lon="10.40402">
        <ele>1316.92</ele>
        <time>2018-08-09T06:58:55Z</time>
      </trkpt>
      <trkpt lat="46.24534" lon="10.40382">
        <ele>1316.408</ele>
        <time>2018-08-09T06:59:15Z</time>
      </trkpt>
      <trkpt lat="46.24535" lon="10.40371">
        <ele>1315.011</ele>
        <time>2018-08-09T06:59:35Z</time>
      </trkpt>
      <trkpt lat="46.24536" lon="10.40347">
        <ele>1311.356</ele>
        <time>2018-08-09T06:59:55Z</time>
      </trkpt>
      <trkpt lat="46.24537" lon="10.40338">
        <ele>1310.582</ele>
        <time>2018-08-09T07:00:15Z</time>
      </trkpt>
      <trkpt lat="46.24538" lon="10.40318">
        <ele>1307.616</ele>
        <time>2018-08-09T07:00:35Z</time>
      </trkpt>
      <trkpt lat="46.2454" lon="10.40309">
        <ele>1307.511</ele>
        <time>2018-08-09T07:00:55Z</time>
      </trkpt>
      <trkpt lat="46.24542" lon="10.40296">
        <ele>1307.162</ele>
        <time>2018-08-09T07:01:15Z</time>
      </trkpt>
      <trkpt lat="46.24544" lon="10.40283">
        <ele>1306.229</ele>
        <time>2018-08-09T07:01:35Z</time>
      </trkpt>
      <trkpt lat="46.24544" lon="10.40279">
        <ele>1305.912</ele>
        <time>2018-08-09T07:01:55Z</time>
      </trkpt>
      <trkpt lat="46.24546" lon="10.40272">
        <ele>1306.014</ele>
        <time>2018-08-09T07:02:15Z</time>
      </trkpt>
      <trkpt lat="46.2455" lon="10.40251">
        <ele>1304.254</ele>
        <time>2018-08-09T07:02:35Z</time>
      </trkpt>
      <trkpt lat="46.24554" lon="10.4024">
        <ele>1304.009</ele>
        <time>2018-08-09T07:02:55Z</time>
      </trkpt>
      <trkpt lat="46.24558" lon="10.4023">
        <ele>1304.408</ele>
        <time>2018-08-09T07:03:15Z</time>
      </trkpt>
      <trkpt lat="46.24563" lon="10.40219">
        <ele>1307.273</ele>
        <time>2018-08-09T07:03:35Z</time>
      </trkpt>
      <trkpt lat="46.24565" lon="10.40209">
        <ele>1308.848</ele>
        <time>2018-08-09T07:03:55Z</time>
      </trkpt>
      <trkpt lat="46.24567" lon="10.40204">
        <ele>1310.074</ele>
        <time>2018-08-09T07:04:15Z</time>
      </trkpt>
      <trkpt lat="46.24575" lon="10.40175">
        <ele>1312.018</ele>
        <time>2018-08-09T07:04:35Z</time>
      </trkpt>
      <trkpt lat="46.24577" lon="10.40168">
        <ele>1312.053</ele>
        <time>2018-08-09T07:04:55Z</time>
      </trkpt>
      <trkpt lat="46.24586" lon="10.40136">
        <ele>1313.624</ele>
        <time>2018-08-09T07:05:15Z</time>
      </trkpt>
      <trkpt lat="46.24589" lon="10.40127">
        <ele>1314.681</ele>
        <time>2018-08-09T07:05:35Z</time>
      </trkpt>
      <trkpt lat="46.24609" lon="10.40067">
        <ele>1316.434</ele>
        <time>2018-08-09T07:05:55Z</time>
      </trkpt>
      <trkpt lat="46.24613" lon="10.40054">
        <ele>1315.931</ele>
        <time>2018-08-09T07:06:15Z</time>
      </trkpt>
      <trkpt lat="46.24619" lon="10.40043">
        <ele>1316.961</ele>
        <time>2018-08-09T07:06:35Z</time>
      </trkpt>
      <trkpt lat="46.24621" lon="10.40039">
        <ele>1317.007</ele>
        <time>2018-08-09T07:06:55Z</time>
      </trkpt>
      <trkpt lat="46.24628" lon="10.4003">
        <ele>1318.908</ele>
        <time>2018-08-09T07:07:15Z</time>
      </trkpt>
      <trkpt lat="46.24634" lon="10.40011">
        <ele>1316.075</ele>
        <time>2018-08-09T07:07:35Z</time>
      </trkpt>
      <trkpt lat="46.24635" lon="10.40009">
        <ele>1315.75</ele>
        <time>2018-08-09T07:07:55Z</time>
      </trkpt>
      <trkpt lat="46.24643" lon="10.39995">
        <ele>1314.486</ele>
        <time>2018-08-09T07:08:15Z</time>
      </trkpt>
      <trkpt lat="46.24645" lon="10.39992">
        <ele>1314.01</ele>
        <time>2018-08-09T07:08:35Z</time>
      </trkpt>
      <trkpt lat="46.24646" lon="10.39989">
        <ele>1313.735</ele>
        <time>2018-08-09T07:08:55Z</time>
      </trkpt>
      <trkpt lat="46.24656" lon="10.39974">
        <ele>1312.256</ele>
        <time>2018-08-09T07:09:15Z</time>
      </trkpt>
      <trkpt lat="46.24658" lon="10.39971">
        <ele>1312.093</ele>
        <time>2018-08-09T07:09:35Z</time>
      </trkpt>
      <trkpt lat="46.24662" lon="10.39964">
        <ele>1311.266</ele>
        <time>2018-08-09T07:09:55Z</time>
      </trkpt>
      <trkpt lat="46.2467" lon="10.39954">
        <ele>1310.719</ele>
        <time>2018-08-09T07:10:15Z</time>
      </trkpt>
      <trkpt lat="46.24674" lon="10.39946">
        <ele>1309.609</ele>
        <time>2018-08-09T07:10:35Z</time>
      </trkpt>
      <trkpt lat="46.24684" lon="10.39933">
        <ele>1311.819</ele>
        <time>2018-08-09T07:10:55Z</time>
      </trkpt>
      <trkpt lat="46.24701" lon="10.39913">
        <ele>1316.308</ele>
        <time>2018-08-09T07:11:15Z</time>
      </trkpt>
      <trkpt lat="46.24709" lon="10.39901">
        <ele>1318.833</ele>
        <time>2018-08-09T07:11:35Z</time>
      </trkpt>
      <trkpt lat="46.24714" lon="10.39893">
        <ele>1320.318</ele>
        <time>2018-08-09T07:11:55Z</time>
      </trkpt>
      <trkpt lat="46.24723" lon="10.39882">
        <ele>1322.824</ele>
        <time>2018-08-09T07:12:15Z</time>
      </trkpt>
      <trkpt lat="46.24726" lon="10.39877">
        <ele>1322.288</ele>
        <time>2018-08-09T07:12:35Z</time>
      </trkpt>
      <trkpt lat="46.24732" lon="10.39868">
        <ele>1321.043</ele>
        <time>2018-08-09T07:12:55Z</time>
      </trkpt>
      <trkpt lat="46.24733" lon="10.39867">
        <ele>1320.824</ele>
        <time>2018-08-09T07:13:15Z</time>
      </trkpt>
      <trkpt lat="46.24747" lon="10.39849">
        <ele>1319.571</ele>
        <time>2018-08-09T07:13:35Z</time>
      </trkpt>
      <trkpt lat="46.24754" lon="10.39837">
        <ele>1319.294</ele>
        <time>2018-08-09T07:13:55Z</time>
      </trkpt>
      <trkpt lat="46.24764" lon="10.39829">
        <ele>1319.956</ele>
        <time>2018-08-09T07:14:15Z</time>
      </trkpt>
      <trkpt lat="46.24768" lon="10.39823">
        <ele>1319.459</ele>
        <time>2018-08-09T07:14:35Z</time>
      </trkpt>
      <trkpt lat="46.24777" lon="10.39814">
        <ele>1319.914</ele>
        <time>2018-08-09T07:14:55Z</time>
      </trkpt>
      <trkpt lat="46.24785" lon="10.39807">
        <ele>1321.508</ele>
        <time>2018-08-09T07:15:15Z</time>
      </trkpt>
      <trkpt lat="46.24791" lon="10.39801">
        <ele>1323.167</ele>
        <time>2018-08-09T07:15:35Z</time>
      </trkpt>
      <trkpt lat="46.24799" lon="10.39792">
        <ele>1324.682</ele>
        <time>2018-08-09T07:15:55Z</time>
      </trkpt>
      <trkpt lat="46.24806" lon="10.39782">
        <ele>1325.068</ele>
        <time>2018-08-09T07:16:15Z</time>
      </trkpt>
      <trkpt lat="46.24816" lon="10.39763">
        <ele>1321.872</ele>
        <time>2018-08-09T07:16:35Z</time>
      </trkpt>
      <trkpt lat="46.24817" lon="10.39762">
        <ele>1321.687</ele>
        <time>2018-08-09T07:16:55Z</time>
      </trkpt>
      <trkpt lat="46.24822" lon="10.39752">
        <ele>1319.868</ele>
        <time>2018-08-09T07:17:15Z</time>
      </trkpt>
      <trkpt lat="46.24823" lon="10.39751">
        <ele>1319.935</ele>
        <time>2018-08-09T07:17:35Z</time>
      </trkpt>
      <trkpt lat="46.24843" lon="10.39736">
        <ele>1321.998</ele>
        <time>2018-08-09T07:17:55Z</time>
      </trkpt>
      <trkpt lat="46.24862" lon="10.39734">
        <ele>1325.588</ele>
        <time>2018-08-09T07:18:15Z</time>
      </trkpt>
      <trkpt lat="46.24872" lon="10.39733">
        <ele>1329.024</ele>
        <time>2018-08-09T07:18:35Z</time>
      </trkpt>
      <trkpt lat="46.24878" lon="10.39729">
        <ele>1330.026</ele>
        <time>2018-08-09T07:18:55Z</time>
      </trkpt>
      <trkpt lat="46.24887" lon="10.39727">
        <ele>1332.408</ele>
        <time>2018-08-09T07:19:15Z</time>
      </trkpt>
      <trkpt lat="46.24891" lon="10.39725">
        <ele>1333.84</ele>
        <time>2018-08-09T07:19:35Z</time>
      </trkpt>
      <trkpt lat="46.24896" lon="10.39723">
        <ele>1335.895</ele>
        <time>2018-08-09T07:19:55Z</time>
      </trkpt>
      <trkpt lat="46.249" lon="10.3972">
        <ele>1337.111</ele>
        <time>2018-08-09T07:20:15Z</time>
      </trkpt>
      <trkpt lat="46.24906" lon="10.39716">
        <ele>1338.615</ele>
        <time>2018-08-09T07:20:35Z</time>
      </trkpt>
      <trkpt lat="46.24913" lon="10.39711">
        <ele>1339.64</ele>
        <time>2018-08-09T07:20:55Z</time>
      </trkpt>
      <trkpt lat="46.24917" lon="10.39706">
        <ele>1338.571</ele>
        <time>2018-08-09T07:21:15Z</time>
      </trkpt>
      <trkpt lat="46.2492" lon="10.39703">
        <ele>1337.738</ele>
        <time>2018-08-09T07:21:35Z</time>
      </trkpt>
      <trkpt lat="46.24925" lon="10.39693">
        <ele>1334.971</ele>
        <time>2018-08-09T07:21:55Z</time>
      </trkpt>
      <trkpt lat="46.24929" lon="10.39683">
        <ele>1331.176</ele>
        <time>2018-08-09T07:22:15Z</time>
      </trkpt>
      <trkpt lat="46.24933" lon="10.39674">
        <ele>1326.89</ele>
        <time>2018-08-09T07:22:35Z</time>
      </trkpt>
      <trkpt lat="46.24938" lon="10.39667">
        <ele>1323.919</ele>
        <time>2018-08-09T07:22:55Z</time>
      </trkpt>
      <trkpt lat="46.24946" lon="10.39667">
        <ele>1326.508</ele>
        <time>2018-08-09T07:23:15Z</time>
      </trkpt>
      <trkpt lat="46.24954" lon="10.39664">
        <ele>1329.429</ele>
        <time>2018-08-09T07:23:35Z</time>
      </trkpt>
      <trkpt lat="46.2497" lon="10.39658">
        <ele>1334.894</ele>
        <time>2018-08-09T07:23:55Z</time>
      </trkpt>
      <trkpt lat="46.24972" lon="10.39656">
        <ele>1334.86</ele>
        <time>2018-08-09T07:24:15Z</time>
      </trkpt>
      <trkpt lat="46.24977" lon="10.39654">
        <ele>1336.014</ele>
        <time>2018-08-09T07:24:35Z</time>
      </trkpt>
      <trkpt lat="46.24981" lon="10.3965">
        <ele>1335.659</ele>
        <time>2018-08-09T07:24:55Z</time>
      </trkpt>
      <trkpt lat="46.24986" lon="10.39646">
        <ele>1336.69</ele>
        <time>2018-08-09T07:25:15Z</time>
      </trkpt>
      <trkpt lat="46.24996" lon="10.39637">
        <ele>1337.547</ele>
        <time>2018-08-09T07:25:35Z</time>
      </trkpt>
      <trkpt lat="46.25005" lon="10.39631">
        <ele>1338.48</ele>
        <time>2018-08-09T07:25:55Z</time>
      </trkpt>
      <trkpt lat="46.25012" lon="10.39626">
        <ele>1339.375</ele>
        <time>2018-08-09T07:26:15Z</time>
      </trkpt>
      <trkpt lat="46.25018" lon="10.39621">
        <ele>1341.028</ele>
        <time>2018-08-09T07:26:35Z</time>
      </trkpt>
      <trkpt lat="46.25025" lon="10.39619">
        <ele>1344.52</ele>
        <time>2018-08-09T07:26:55Z</time>
      </trkpt>
      <trkpt lat="46.25038" lon="10.39616">
        <ele>1346.708</ele>
        <time>2018-08-09T07:27:15Z</time>
      </trkpt>
      <trkpt lat="46.25047" lon="10.39612">
        <ele>1346.629</ele>
        <time>2018-08-09T07:27:35Z</time>
      </trkpt>
      <trkpt lat="46.25055" lon="10.39611">
        <ele>1347.064</ele>
        <time>2018-08-09T07:27:55Z</time>
      </trkpt>
      <trkpt lat="46.25061" lon="10.39611">
        <ele>1349.71</ele>
        <time>2018-08-09T07:28:15Z</time>
      </trkpt>
      <trkpt lat="46.25072" lon="10.39609">
        <ele>1355.584</ele>
        <time>2018-08-09T07:28:35Z</time>
      </trkpt>
      <trkpt lat="46.25087" lon="10.39613">
        <ele>1363.259</ele>
        <time>2018-08-09T07:28:55Z</time>
      </trkpt>
      <trkpt lat="46.25093" lon="10.39614">
        <ele>1364.51</ele>
        <time>2018-08-09T07:29:15Z</time>
      </trkpt>
      <trkpt lat="46.25099" lon="10.39606">
        <ele>1364.657</ele>
        <time>2018-08-09T07:29:35Z</time>
      </trkpt>
      <trkpt lat="46.25098" lon="10.3959">
        <ele>1361.74</ele>
        <time>2018-08-09T07:29:55Z</time>
      </trkpt>
      <trkpt lat="46.25095" lon="10.39583">
        <ele>1359.754</ele>
        <time>2018-08-09T07:30:15Z</time>
      </trkpt>
      <trkpt lat="46.25089" lon="10.39569">
        <ele>1355.256</ele>
        <time>2018-08-09T07:30:35Z</time>
      </trkpt>
      <trkpt lat="46.25086" lon="10.39547">
        <ele>1351.511</ele>
        <time>2018-08-09T07:30:55Z</time>
      </trkpt>
      <trkpt lat="46.25085" lon="10.3954">
        <ele>1350.608</ele>
        <time>2018-08-09T07:31:15Z</time>
      </trkpt>
      <trkpt lat="46.25087" lon="10.3953">
        <ele>1349.957</ele>
        <time>2018-08-09T07:31:35Z</time>
      </trkpt>
      <trkpt lat="46.25093" lon="10.39515">
        <ele>1348.112</ele>
        <time>2018-08-09T07:31:55Z</time>
      </trkpt>
      <trkpt lat="46.25098" lon="10.39504">
        <ele>1347.488</ele>
        <time>2018-08-09T07:32:15Z</time>
      </trkpt>
      <trkpt lat="46.25105" lon="10.39494">
        <ele>1347.452</ele>
        <time>2018-08-09T07:32:35Z</time>
      </trkpt>
      <trkpt lat="46.2512" lon="10.39475">
        <ele>1348.677</ele>
        <time>2018-08-09T07:32:55Z</time>
      </trkpt>
      <trkpt lat="46.25123" lon="10.3947">
        <ele>1348.728</ele>
        <time>2018-08-09T07:33:15Z</time>
      </trkpt>
      <trkpt lat="46.25134" lon="10.39459">
        <ele>1349.615</ele>
        <time>2018-08-09T07:33:35Z</time>
      </trkpt>
      <trkpt lat="46.25146" lon="10.39451">
        <ele>1351.838</ele>
        <time>2018-08-09T07:33:55Z</time>
      </trkpt>
      <trkpt lat="46.25166" lon="10.39424">
        <ele>1351.822</ele>
        <time>2018-08-09T07:34:15Z</time>
      </trkpt>
      <trkpt lat="46.25248" lon="10.39371">
        <ele>1357.862</ele>
        <time>2018-08-09T07:34:35Z</time>
      </trkpt>
      <trkpt lat="46.25261" lon="10.39364">
        <ele>1359.408</ele>
        <time>2018-08-09T07:34:55Z</time>
      </trkpt>
      <trkpt lat="46.25269" lon="10.39358">
        <ele>1360.108</ele>
        <time>2018-08-09T07:35:15Z</time>
      </trkpt>
      <trkpt lat="46.25277" lon="10.39354">
        <ele>1361.134</ele>
        <time>2018-08-09T07:35:35Z</time>
      </trkpt>
      <trkpt lat="46.25288" lon="10.39348">
        <ele>1362.059</ele>
        <time>2018-08-09T07:35:55Z</time>
      </trkpt>
      <trkpt lat="46.25296" lon="10.3934">
        <ele>1361.725</ele>
        <time>2018-08-09T07:36:15Z</time>
      </trkpt>
      <trkpt lat="46.25306" lon="10.39329">
        <ele>1361.299</ele>
        <time>2018-08-09T07:36:35Z</time>
      </trkpt>
      <trkpt lat="46.25308" lon="10.39327">
        <ele>1361.014</ele>
        <time>2018-08-09T07:36:55Z</time>
      </trkpt>
      <trkpt lat="46.25323" lon="10.39338">
        <ele>1365.535</ele>
        <time>2018-08-09T07:37:15Z</time>
      </trkpt>
      <trkpt lat="46.25325" lon="10.3934">
        <ele>1366.162</ele>
        <time>2018-08-09T07:37:35Z</time>
      </trkpt>
      <trkpt lat="46.25326" lon="10.3934">
        <ele>1366.255</ele>
        <time>2018-08-09T07:37:55Z</time>
      </trkpt>
      <trkpt lat="46.25334" lon="10.39344">
        <ele>1368.325</ele>
        <time>2018-08-09T07:38:15Z</time>
      </trkpt>
      <trkpt lat="46.25338" lon="10.39345">
        <ele>1369.526</ele>
        <time>2018-08-09T07:38:35Z</time>
      </trkpt>
      <trkpt lat="46.25358" lon="10.39346">
        <ele>1374.508</ele>
        <time>2018-08-09T07:38:55Z</time>
      </trkpt>
      <trkpt lat="46.25365" lon="10.39347">
        <ele>1376.808</ele>
        <time>2018-08-09T07:39:15Z</time>
      </trkpt>
      <trkpt lat="46.25375" lon="10.39345">
        <ele>1379.814</ele>
        <time>2018-08-09T07:39:35Z</time>
      </trkpt>
      <trkpt lat="46.25377" lon="10.39345">
        <ele>1380.249</ele>
        <time>2018-08-09T07:39:55Z</time>
      </trkpt>
      <trkpt lat="46.25391" lon="10.39341">
        <ele>1383.425</ele>
        <time>2018-08-09T07:40:15Z</time>
      </trkpt>
      <trkpt lat="46.25397" lon="10.39339">
        <ele>1383.639</ele>
        <time>2018-08-09T07:40:35Z</time>
      </trkpt>
      <trkpt lat="46.25417" lon="10.39325">
        <ele>1382.964</ele>
        <time>2018-08-09T07:40:55Z</time>
      </trkpt>
      <trkpt lat="46.25418" lon="10.39324">
        <ele>1382.965</ele>
        <time>2018-08-09T07:41:15Z</time>
      </trkpt>
      <trkpt lat="46.25444" lon="10.39313">
        <ele>1384.042</ele>
        <time>2018-08-09T07:41:35Z</time>
      </trkpt>
      <trkpt lat="46.25446" lon="10.39312">
        <ele>1384.155</ele>
        <time>2018-08-09T07:41:55Z</time>
      </trkpt>
      <trkpt lat="46.25452" lon="10.39312">
        <ele>1385.236</ele>
        <time>2018-08-09T07:42:15Z</time>
      </trkpt>
      <trkpt lat="46.2546" lon="10.39309">
        <ele>1385.717</ele>
        <time>2018-08-09T07:42:35Z</time>
      </trkpt>
      <trkpt lat="46.25469" lon="10.39303">
        <ele>1385.718</ele>
        <time>2018-08-09T07:42:55Z</time>
      </trkpt>
      <trkpt lat="46.25475" lon="10.39299">
        <ele>1385.408</ele>
        <time>2018-08-09T07:43:15Z</time>
      </trkpt>
      <trkpt lat="46.25478" lon="10.39298">
        <ele>1385.795</ele>
        <time>2018-08-09T07:43:35Z</time>
      </trkpt>
      <trkpt lat="46.25493" lon="10.39294">
        <ele>1387.28</ele>
        <time>2018-08-09T07:43:55Z</time>
      </trkpt>
      <trkpt lat="46.25503" lon="10.39292">
        <ele>1388.526</ele>
        <time>2018-08-09T07:44:15Z</time>
      </trkpt>
      <trkpt lat="46.2552" lon="10.3929">
        <ele>1390.01</ele>
        <time>2018-08-09T07:44:35Z</time>
      </trkpt>
      <trkpt lat="46.25523" lon="10.3929">
        <ele>1390.315</ele>
        <time>2018-08-09T07:44:55Z</time>
      </trkpt>
      <trkpt lat="46.25529" lon="10.39289">
        <ele>1390.856</ele>
        <time>2018-08-09T07:45:15Z</time>
      </trkpt>
      <trkpt lat="46.25532" lon="10.39289">
        <ele>1390.983</ele>
        <time>2018-08-09T07:45:35Z</time>
      </trkpt>
      <trkpt lat="46.2554" lon="10.39285">
        <ele>1390.716</ele>
        <time>2018-08-09T07:45:55Z</time>
      </trkpt>
      <trkpt lat="46.25597" lon="10.39266">
        <ele>1396.951</ele>
        <time>2018-08-09T07:46:15Z</time>
      </trkpt>
      <trkpt lat="46.25601" lon="10.39266">
        <ele>1398.101</ele>
        <time>2018-08-09T07:46:35Z</time>
      </trkpt>
      <trkpt lat="46.25618" lon="10.39266">
        <ele>1401.911</ele>
        <time>2018-08-09T07:46:55Z</time>
      </trkpt>
      <trkpt lat="46.2562" lon="10.39266">
        <ele>1402.208</ele>
        <time>2018-08-09T07:47:15Z</time>
      </trkpt>
      <trkpt lat="46.25631" lon="10.39266">
        <ele>1403.617</ele>
        <time>2018-08-09T07:47:35Z</time>
      </trkpt>
      <trkpt lat="46.25639" lon="10.39266">
        <ele>1404.552</ele>
        <time>2018-08-09T07:47:55Z</time>
      </trkpt>
      <trkpt lat="46.25648" lon="10.39262">
        <ele>1404.448</ele>
        <time>2018-08-09T07:48:15Z</time>
      </trkpt>
      <trkpt lat="46.25656" lon="10.39262">
        <ele>1405.282</ele>
        <time>2018-08-09T07:48:35Z</time>
      </trkpt>
      <trkpt lat="46.25662" lon="10.39259">
        <ele>1404.797</ele>
        <time>2018-08-09T07:48:55Z</time>
      </trkpt>
      <trkpt lat="46.25678" lon="10.39255">
        <ele>1406.478</ele>
        <time>2018-08-09T07:49:15Z</time>
      </trkpt>
      <trkpt lat="46.25681" lon="10.39254">
        <ele>1406.845</ele>
        <time>2018-08-09T07:49:35Z</time>
      </trkpt>
      <trkpt lat="46.25683" lon="10.39253">
        <ele>1406.828</ele>
        <time>2018-08-09T07:49:55Z</time>
      </trkpt>
      <trkpt lat="46.25689" lon="10.3925">
        <ele>1406.826</ele>
        <time>2018-08-09T07:50:15Z</time>
      </trkpt>
      <trkpt lat="46.25707" lon="10.39243">
        <ele>1408.247</ele>
        <time>2018-08-09T07:50:35Z</time>
      </trkpt>
      <trkpt lat="46.25728" lon="10.39238">
        <ele>1410.611</ele>
        <time>2018-08-09T07:50:55Z</time>
      </trkpt>
      <trkpt lat="46.25741" lon="10.39237">
        <ele>1413.308</ele>
        <time>2018-08-09T07:51:15Z</time>
      </trkpt>
      <trkpt lat="46.25753" lon="10.39235">
        <ele>1415.194</ele>
        <time>2018-08-09T07:51:35Z</time>
      </trkpt>
      <trkpt lat="46.25756" lon="10.39234">
        <ele>1415.489</ele>
        <time>2018-08-09T07:51:55Z</time>
      </trkpt>
      <trkpt lat="46.25764" lon="10.39234">
        <ele>1417.245</ele>
        <time>2018-08-09T07:52:15Z</time>
      </trkpt>
      <trkpt lat="46.25774" lon="10.39234">
        <ele>1419.239</ele>
        <time>2018-08-09T07:52:35Z</time>
      </trkpt>
      <trkpt lat="46.25775" lon="10.39234">
        <ele>1419.334</ele>
        <time>2018-08-09T07:52:55Z</time>
      </trkpt>
      <trkpt lat="46.2579" lon="10.39228">
        <ele>1420.615</ele>
        <time>2018-08-09T07:53:15Z</time>
      </trkpt>
      <trkpt lat="46.25803" lon="10.39223">
        <ele>1421.872</ele>
        <time>2018-08-09T07:53:35Z</time>
      </trkpt>
      <trkpt lat="46.25827" lon="10.39219">
        <ele>1426.075</ele>
        <time>2018-08-09T07:53:55Z</time>
      </trkpt>
      <trkpt lat="46.25835" lon="10.39217">
        <ele>1427.443</ele>
        <time>2018-08-09T07:54:15Z</time>
      </trkpt>
      <trkpt lat="46.25841" lon="10.39216">
        <ele>1428.364</ele>
        <time>2018-08-09T07:54:35Z</time>
      </trkpt>
      <trkpt lat="46.25849" lon="10.39213">
        <ele>1429.61</ele>
        <time>2018-08-09T07:54:55Z</time>
      </trkpt>
      <trkpt lat="46.25856" lon="10.39212">
        <ele>1431.308</ele>
        <time>2018-08-09T07:55:15Z</time>
      </trkpt>
      <trkpt lat="46.25865" lon="10.39212">
        <ele>1433.626</ele>
        <time>2018-08-09T07:55:35Z</time>
      </trkpt>
      <trkpt lat="46.25874" lon="10.39212">
        <ele>1435.391</ele>
        <time>2018-08-09T07:55:55Z</time>
      </trkpt>
      <trkpt lat="46.25884" lon="10.39213">
        <ele>1437.447</ele>
        <time>2018-08-09T07:56:15Z</time>
      </trkpt>
      <trkpt lat="46.25892" lon="10.39212">
        <ele>1438.711</ele>
        <time>2018-08-09T07:56:35Z</time>
      </trkpt>
      <trkpt lat="46.25905" lon="10.39212">
        <ele>1440.616</ele>
        <time>2018-08-09T07:56:55Z</time>
      </trkpt>
      <trkpt lat="46.25912" lon="10.39211">
        <ele>1441.227</ele>
        <time>2018-08-09T07:57:15Z</time>
      </trkpt>
      <trkpt lat="46.25921" lon="10.39215">
        <ele>1443.864</ele>
        <time>2018-08-09T07:57:35Z</time>
      </trkpt>
      <trkpt lat="46.25937" lon="10.39218">
        <ele>1448.737</ele>
        <time>2018-08-09T07:57:55Z</time>
      </trkpt>
      <trkpt lat="46.25939" lon="10.39219">
        <ele>1449.558</ele>
        <time>2018-08-09T07:58:15Z</time>
      </trkpt>
      <trkpt lat="46.25945" lon="10.39223">
        <ele>1452.352</ele>
        <time>2018-08-09T07:58:35Z</time>
      </trkpt>
      <trkpt lat="46.25954" lon="10.39223">
        <ele>1453.617</ele>
        <time>2018-08-09T07:58:55Z</time>
      </trkpt>
      <trkpt lat="46.25963" lon="10.39223">
        <ele>1454.908</ele>
        <time>2018-08-09T07:59:15Z</time>
      </trkpt>
      <trkpt lat="46.25972" lon="10.39221">
        <ele>1455.767</ele>
        <time>2018-08-09T07:59:35Z</time>
      </trkpt>
      <trkpt lat="46.2598" lon="10.39221">
        <ele>1456.542</ele>
        <time>2018-08-09T07:59:55Z</time>
      </trkpt>
      <trkpt lat="46.25988" lon="10.39222">
        <ele>1458.058</ele>
        <time>2018-08-09T08:00:15Z</time>
      </trkpt>
      <trkpt lat="46.25995" lon="10.39225">
        <ele>1460.342</ele>
        <time>2018-08-09T08:00:35Z</time>
      </trkpt>
      <trkpt lat="46.26003" lon="10.3923">
        <ele>1463.277</ele>
        <time>2018-08-09T08:00:55Z</time>
      </trkpt>
      <trkpt lat="46.26009" lon="10.3923">
        <ele>1464.068</ele>
        <time>2018-08-09T08:01:15Z</time>
      </trkpt>
      <trkpt lat="46.26014" lon="10.39234">
        <ele>1466.245</ele>
        <time>2018-08-09T08:01:35Z</time>
      </trkpt>
      <trkpt lat="46.26022" lon="10.39239">
        <ele>1469.048</ele>
        <time>2018-08-09T08:01:55Z</time>
      </trkpt>
      <trkpt lat="46.26028" lon="10.39239">
        <ele>1470.145</ele>
        <time>2018-08-09T08:02:15Z</time>
      </trkpt>
      <trkpt lat="46.26031" lon="10.39241">
        <ele>1471.347</ele>
        <time>2018-08-09T08:02:35Z</time>
      </trkpt>
      <trkpt lat="46.26032" lon="10.39243">
        <ele>1472.111</ele>
        <time>2018-08-09T08:02:55Z</time>
      </trkpt>
      <trkpt lat="46.26045" lon="10.39246">
        <ele>1475.708</ele>
        <time>2018-08-09T08:03:15Z</time>
      </trkpt>
      <trkpt lat="46.26049" lon="10.39247">
        <ele>1476.826</ele>
        <time>2018-08-09T08:03:35Z</time>
      </trkpt>
      <trkpt lat="46.26051" lon="10.39248">
        <ele>1477.211</ele>
        <time>2018-08-09T08:03:55Z</time>
      </trkpt>
      <trkpt lat="46.2606" lon="10.39248">
        <ele>1479.127</ele>
        <time>2018-08-09T08:04:15Z</time>
      </trkpt>
      <trkpt lat="46.26069" lon="10.39247">
        <ele>1481.761</ele>
        <time>2018-08-09T08:04:35Z</time>
      </trkpt>
      <trkpt lat="46.26077" lon="10.39247">
        <ele>1483.936</ele>
        <time>2018-08-09T08:04:55Z</time>
      </trkpt>
      <trkpt lat="46.26089" lon="10.3925">
        <ele>1488.137</ele>
        <time>2018-08-09T08:05:15Z</time>
      </trkpt>
      <trkpt lat="46.26096" lon="10.39249">
        <ele>1489.484</ele>
        <time>2018-08-09T08:05:35Z</time>
      </trkpt>
      <trkpt lat="46.26102" lon="10.3925">
        <ele>1491.877</ele>
        <time>2018-08-09T08:05:55Z</time>
      </trkpt>
      <trkpt lat="46.26121" lon="10.39257">
        <ele>1497.736</ele>
        <time>2018-08-09T08:06:15Z</time>
      </trkpt>
      <trkpt lat="46.26125" lon="10.39258">
        <ele>1498.417</ele>
        <time>2018-08-09T08:06:35Z</time>
      </trkpt>
      <trkpt lat="46.26135" lon="10.39259">
        <ele>1499.718</ele>
        <time>2018-08-09T08:06:55Z</time>
      </trkpt>
      <trkpt lat="46.26142" lon="10.39259">
        <ele>1499.808</ele>
        <time>2018-08-09T08:07:15Z</time>
      </trkpt>
      <trkpt lat="46.26144" lon="10.39258">
        <ele>1499.785</ele>
        <time>2018-08-09T08:07:35Z</time>
      </trkpt>
      <trkpt lat="46.26153" lon="10.39259">
        <ele>1500.04</ele>
        <time>2018-08-09T08:07:55Z</time>
      </trkpt>
      <trkpt lat="46.26163" lon="10.3926">
        <ele>1500.856</ele>
        <time>2018-08-09T08:08:15Z</time>
      </trkpt>
      <trkpt lat="46.26171" lon="10.3926">
        <ele>1501.25</ele>
        <time>2018-08-09T08:08:35Z</time>
      </trkpt>
      <trkpt lat="46.2618" lon="10.39264">
        <ele>1503.195</ele>
        <time>2018-08-09T08:08:55Z</time>
      </trkpt>
      <trkpt lat="46.26194" lon="10.39272">
        <ele>1506.596</ele>
        <time>2018-08-09T08:09:15Z</time>
      </trkpt>
      <trkpt lat="46.262" lon="10.39279">
        <ele>1511.053</ele>
        <time>2018-08-09T08:09:35Z</time>
      </trkpt>
      <trkpt lat="46.26206" lon="10.39285">
        <ele>1514.546</ele>
        <time>2018-08-09T08:09:55Z</time>
      </trkpt>
      <trkpt lat="46.26215" lon="10.39293">
        <ele>1519.212</ele>
        <time>2018-08-09T08:10:15Z</time>
      </trkpt>
      <trkpt lat="46.26226" lon="10.39296">
        <ele>1523.232</ele>
        <time>2018-08-09T08:10:35Z</time>
      </trkpt>
      <trkpt lat="46.26235" lon="10.39302">
        <ele>1527.705</ele>
        <time>2018-08-09T08:10:55Z</time>
      </trkpt>
      <trkpt lat="46.26245" lon="10.39304">
        <ele>1531.408</ele>
        <time>2018-08-09T08:11:15Z</time>
      </trkpt>
      <trkpt lat="46.26255" lon="10.39305">
        <ele>1535.173</ele>
        <time>2018-08-09T08:11:35Z</time>
      </trkpt>
      <trkpt lat="46.26258" lon="10.39305">
        <ele>1537.148</ele>
        <time>2018-08-09T08:11:55Z</time>
      </trkpt>
      <trkpt lat="46.26265" lon="10.39307">
        <ele>1540.814</ele>
        <time>2018-08-09T08:12:15Z</time>
      </trkpt>
      <trkpt lat="46.26269" lon="10.39307">
        <ele>1542.918</ele>
        <time>2018-08-09T08:12:35Z</time>
      </trkpt>
      <trkpt lat="46.26263" lon="10.3932">
        <ele>1542.773</ele>
        <time>2018-08-09T08:12:55Z</time>
      </trkpt>
      <trkpt lat="46.26255" lon="10.39335">
        <ele>1541.944</ele>
        <time>2018-08-09T08:13:15Z</time>
      </trkpt>
      <trkpt lat="46.26251" lon="10.39343">
        <ele>1541.341</ele>
        <time>2018-08-09T08:13:35Z</time>
      </trkpt>
      <trkpt lat="46.26226" lon="10.3936">
        <ele>1539.354</ele>
        <time>2018-08-09T08:13:55Z</time>
      </trkpt>
      <trkpt lat="46.26206" lon="10.3936">
        <ele>1539.246</ele>
        <time>2018-08-09T08:14:15Z</time>
      </trkpt>
      <trkpt lat="46.2618" lon="10.39368">
        <ele>1543.588</ele>
        <time>2018-08-09T08:14:35Z</time>
      </trkpt>
      <trkpt lat="46.26164" lon="10.39375">
        <ele>1546.616</ele>
        <time>2018-08-09T08:14:55Z</time>
      </trkpt>
      <trkpt lat="46.26159" lon="10.39377">
        <ele>1547.008</ele>
        <time>2018-08-09T08:15:15Z</time>
      </trkpt>
      <trkpt lat="46.26158" lon="10.39377">
        <ele>1547.176</ele>
        <time>2018-08-09T08:15:35Z</time>
      </trkpt>
      <trkpt lat="46.26148" lon="10.39383">
        <ele>1548.191</ele>
        <time>2018-08-09T08:15:55Z</time>
      </trkpt>
      <trkpt lat="46.26133" lon="10.39394">
        <ele>1550.537</ele>
        <time>2018-08-09T08:16:15Z</time>
      </trkpt>
      <trkpt lat="46.26124" lon="10.394">
        <ele>1552.551</ele>
        <time>2018-08-09T08:16:35Z</time>
      </trkpt>
      <trkpt lat="46.26103" lon="10.39413">
        <ele>1555.716</ele>
        <time>2018-08-09T08:16:55Z</time>
      </trkpt>
      <trkpt lat="46.2609" lon="10.39429">
        <ele>1562.447</ele>
        <time>2018-08-09T08:17:15Z</time>
      </trkpt>
      <trkpt lat="46.26082" lon="10.39434">
        <ele>1564.574</ele>
        <time>2018-08-09T08:17:35Z</time>
      </trkpt>
      <trkpt lat="46.26057" lon="10.39441">
        <ele>1564.737</ele>
        <time>2018-08-09T08:17:55Z</time>
      </trkpt>
      <trkpt lat="46.26019" lon="10.39451">
        <ele>1565.328</ele>
        <time>2018-08-09T08:18:15Z</time>
      </trkpt>
      <trkpt lat="46.25996" lon="10.39458">
        <ele>1569.189</ele>
        <time>2018-08-09T08:18:35Z</time>
      </trkpt>
      <trkpt lat="46.25988" lon="10.39469">
        <ele>1575.317</ele>
        <time>2018-08-09T08:18:55Z</time>
      </trkpt>
      <trkpt lat="46.25977" lon="10.39484">
        <ele>1582.708</ele>
        <time>2018-08-09T08:19:15Z</time>
      </trkpt>
      <trkpt lat="46.25953" lon="10.39496">
        <ele>1587.044</ele>
        <time>2018-08-09T08:19:35Z</time>
      </trkpt>
      <trkpt lat="46.25948" lon="10.39501">
        <ele>1588.969</ele>
        <time>2018-08-09T08:19:55Z</time>
      </trkpt>
      <trkpt lat="46.25941" lon="10.39504">
        <ele>1589.885</ele>
        <time>2018-08-09T08:20:15Z</time>
      </trkpt>
      <trkpt lat="46.25923" lon="10.39505">
        <ele>1588.869</ele>
        <time>2018-08-09T08:20:35Z</time>
      </trkpt>
      <trkpt lat="46.25918" lon="10.39506">
        <ele>1589.264</ele>
        <time>2018-08-09T08:20:55Z</time>
      </trkpt>
      <trkpt lat="46.25908" lon="10.39516">
        <ele>1595.435</ele>
        <time>2018-08-09T08:21:15Z</time>
      </trkpt>
      <trkpt lat="46.25899" lon="10.39523">
        <ele>1602.012</ele>
        <time>2018-08-09T08:21:35Z</time>
      </trkpt>
      <trkpt lat="46.25885" lon="10.39535">
        <ele>1610.635</ele>
        <time>2018-08-09T08:21:55Z</time>
      </trkpt>
      <trkpt lat="46.25876" lon="10.39545">
        <ele>1613.746</ele>
        <time>2018-08-09T08:22:15Z</time>
      </trkpt>
      <trkpt lat="46.25868" lon="10.39553">
        <ele>1614.888</ele>
        <time>2018-08-09T08:22:35Z</time>
      </trkpt>
      <trkpt lat="46.25858" lon="10.39566">
        <ele>1617.216</ele>
        <time>2018-08-09T08:22:55Z</time>
      </trkpt>
      <trkpt lat="46.25848" lon="10.39578">
        <ele>1619.408</ele>
        <time>2018-08-09T08:23:15Z</time>
      </trkpt>
      <trkpt lat="46.25837" lon="10.39589">
        <ele>1619.846</ele>
        <time>2018-08-09T08:23:35Z</time>
      </trkpt>
      <trkpt lat="46.25822" lon="10.39607">
        <ele>1621.631</ele>
        <time>2018-08-09T08:23:55Z</time>
      </trkpt>
      <trkpt lat="46.25812" lon="10.39622">
        <ele>1626.637</ele>
        <time>2018-08-09T08:24:15Z</time>
      </trkpt>
      <trkpt lat="46.25809" lon="10.39625">
        <ele>1628.031</ele>
        <time>2018-08-09T08:24:35Z</time>
      </trkpt>
      <trkpt lat="46.25803" lon="10.39635">
        <ele>1631.416</ele>
        <time>2018-08-09T08:24:55Z</time>
      </trkpt>
      <trkpt lat="46.25796" lon="10.39644">
        <ele>1633.527</ele>
        <time>2018-08-09T08:25:15Z</time>
      </trkpt>
      <trkpt lat="46.25787" lon="10.39653">
        <ele>1634.364</ele>
        <time>2018-08-09T08:25:35Z</time>
      </trkpt>
      <trkpt lat="46.25787" lon="10.39653">
        <ele>1634.377</ele>
        <time>2018-08-09T08:25:55Z</time>
      </trkpt>
      <trkpt lat="46.25786" lon="10.39654">
        <ele>1634.358</ele>
        <time>2018-08-09T08:26:15Z</time>
      </trkpt>
      <trkpt lat="46.25784" lon="10.39655">
        <ele>1634.252</ele>
        <time>2018-08-09T08:26:35Z</time>
      </trkpt>
      <trkpt lat="46.25782" lon="10.39656">
        <ele>1633.717</ele>
        <time>2018-08-09T08:26:55Z</time>
      </trkpt>
      <trkpt lat="46.2578" lon="10.39658">
        <ele>1633.808</ele>
        <time>2018-08-09T08:27:15Z</time>
      </trkpt>
      <trkpt lat="46.25781" lon="10.3966">
        <ele>1634.927</ele>
        <time>2018-08-09T08:27:35Z</time>
      </trkpt>
      <trkpt lat="46.25782" lon="10.39661">
        <ele>1635.462</ele>
        <time>2018-08-09T08:27:55Z</time>
      </trkpt>
      <trkpt lat="46.25783" lon="10.39662">
        <ele>1636.148</ele>
        <time>2018-08-09T08:28:15Z</time>
      </trkpt>
      <trkpt lat="46.25785" lon="10.3966">
        <ele>1636.042</ele>
        <time>2018-08-09T08:28:35Z</time>
      </trkpt>
      <trkpt lat="46.25785" lon="10.3966">
        <ele>1636.067</ele>
        <time>2018-08-09T08:28:55Z</time>
      </trkpt>
      <trkpt lat="46.25787" lon="10.39659">
        <ele>1636.718</ele>
        <time>2018-08-09T08:29:15Z</time>
      </trkpt>
      <trkpt lat="46.25788" lon="10.39659">
        <ele>1636.835</ele>
        <time>2018-08-09T08:29:35Z</time>
      </trkpt>
      <trkpt lat="46.25789" lon="10.39659">
        <ele>1637.418</ele>
        <time>2018-08-09T08:29:55Z</time>
      </trkpt>
      <trkpt lat="46.25792" lon="10.3966">
        <ele>1638.341</ele>
        <time>2018-08-09T08:30:15Z</time>
      </trkpt>
      <trkpt lat="46.25794" lon="10.3966">
        <ele>1639.581</ele>
        <time>2018-08-09T08:30:35Z</time>
      </trkpt>
      <trkpt lat="46.25796" lon="10.39659">
        <ele>1639.409</ele>
        <time>2018-08-09T08:30:55Z</time>
      </trkpt>
      <trkpt lat="46.25798" lon="10.39659">
        <ele>1640.308</ele>
        <time>2018-08-09T08:31:15Z</time>
      </trkpt>
      <trkpt lat="46.25801" lon="10.3966">
        <ele>1641.346</ele>
        <time>2018-08-09T08:31:35Z</time>
      </trkpt>
      <trkpt lat="46.25803" lon="10.3966">
        <ele>1642.211</ele>
        <time>2018-08-09T08:31:55Z</time>
      </trkpt>
      <trkpt lat="46.25804" lon="10.39658">
        <ele>1641.917</ele>
        <time>2018-08-09T08:32:15Z</time>
      </trkpt>
      <trkpt lat="46.25807" lon="10.39659">
        <ele>1642.841</ele>
        <time>2018-08-09T08:32:35Z</time>
      </trkpt>
      <trkpt lat="46.25808" lon="10.39658">
        <ele>1643.346</ele>
        <time>2018-08-09T08:32:55Z</time>
      </trkpt>
      <trkpt lat="46.25811" lon="10.39659">
        <ele>1644.577</ele>
        <time>2018-08-09T08:33:15Z</time>
      </trkpt>
      <trkpt lat="46.25809" lon="10.39661">
        <ele>1644.884</ele>
        <time>2018-08-09T08:33:35Z</time>
      </trkpt>
      <trkpt lat="46.25808" lon="10.39664">
        <ele>1645.537</ele>
        <time>2018-08-09T08:33:55Z</time>
      </trkpt>
      <trkpt lat="46.25806" lon="10.39664">
        <ele>1645.072</ele>
        <time>2018-08-09T08:34:15Z</time>
      </trkpt>
      <trkpt lat="46.25804" lon="10.39666">
        <ele>1645.113</ele>
        <time>2018-08-09T08:34:35Z</time>
      </trkpt>
      <trkpt lat="46.25803" lon="10.39668">
        <ele>1645.314</ele>
        <time>2018-08-09T08:34:55Z</time>
      </trkpt>
      <trkpt lat="46.25801" lon="10.39669">
        <ele>1645.308</ele>
        <time>2018-08-09T08:35:15Z</time>
      </trkpt>
      <trkpt lat="46.25799" lon="10.39672">
        <ele>1645.459</ele>
        <time>2018-08-09T08:35:35Z</time>
      </trkpt>
      <trkpt lat="46.25797" lon="10.39673">
        <ele>1645.394</ele>
        <time>2018-08-09T08:35:55Z</time>
      </trkpt>
      <trkpt lat="46.25795" lon="10.39674">
        <ele>1645.08</ele>
        <time>2018-08-09T08:36:15Z</time>
      </trkpt>
      <trkpt lat="46.25793" lon="10.39675">
        <ele>1644.524</ele>
        <time>2018-08-09T08:36:35Z</time>
      </trkpt>
      <trkpt lat="46.25792" lon="10.39676">
        <ele>1644.299</ele>
        <time>2018-08-09T08:36:55Z</time>
      </trkpt>
      <trkpt lat="46.2579" lon="10.39677">
        <ele>1644.15</ele>
        <time>2018-08-09T08:37:15Z</time>
      </trkpt>
      <trkpt lat="46.25789" lon="10.39683">
        <ele>1646.037</ele>
        <time>2018-08-09T08:37:35Z</time>
      </trkpt>
      <trkpt lat="46.25787" lon="10.39685">
        <ele>1645.93</ele>
        <time>2018-08-09T08:37:55Z</time>
      </trkpt>
      <trkpt lat="46.25785" lon="10.39687">
        <ele>1646.174</ele>
        <time>2018-08-09T08:38:15Z</time>
      </trkpt>
      <trkpt lat="46.25784" lon="10.3969">
        <ele>1646.756</ele>
        <time>2018-08-09T08:38:35Z</time>
      </trkpt>
      <trkpt lat="46.25783" lon="10.39694">
        <ele>1647.321</ele>
        <time>2018-08-09T08:38:55Z</time>
      </trkpt>
      <trkpt lat="46.25782" lon="10.39697">
        <ele>1648.208</ele>
        <time>2018-08-09T08:39:15Z</time>
      </trkpt>
      <trkpt lat="46.25781" lon="10.39699">
        <ele>1648.939</ele>
        <time>2018-08-09T08:39:35Z</time>
      </trkpt>
      <trkpt lat="46.2578" lon="10.39702">
        <ele>1649.894</ele>
        <time>2018-08-09T08:39:55Z</time>
      </trkpt>
      <trkpt lat="46.25779" lon="10.39705">
        <ele>1650.63</ele>
        <time>2018-08-09T08:40:15Z</time>
      </trkpt>
      <trkpt lat="46.25779" lon="10.39708">
        <ele>1651.834</ele>
        <time>2018-08-09T08:40:35Z</time>
      </trkpt>
      <trkpt lat="46.25779" lon="10.39712">
        <ele>1653.089</ele>
        <time>2018-08-09T08:40:55Z</time>
      </trkpt>
      <trkpt lat="46.25778" lon="10.39715">
        <ele>1654.35</ele>
        <time>2018-08-09T08:41:15Z</time>
      </trkpt>
      <trkpt lat="46.25777" lon="10.39718">
        <ele>1655.027</ele>
        <time>2018-08-09T08:41:35Z</time>
      </trkpt>
      <trkpt lat="46.25777" lon="10.39721">
        <ele>1656.23</ele>
        <time>2018-08-09T08:41:55Z</time>
      </trkpt>
      <trkpt lat="46.25776" lon="10.39724">
        <ele>1657.154</ele>
        <time>2018-08-09T08:42:15Z</time>
      </trkpt>
      <trkpt lat="46.25776" lon="10.39726">
        <ele>1658.156</ele>
        <time>2018-08-09T08:42:35Z</time>
      </trkpt>
      <trkpt lat="46.25776" lon="10.39729">
        <ele>1659.211</ele>
        <time>2018-08-09T08:42:55Z</time>
      </trkpt>
      <trkpt lat="46.25778" lon="10.39731">
        <ele>1660.508</ele>
        <time>2018-08-09T08:43:15Z</time>
      </trkpt>
      <trkpt lat="46.2578" lon="10.39731">
        <ele>1660.967</ele>
        <time>2018-08-09T08:43:35Z</time>
      </trkpt>
      <trkpt lat="46.25781" lon="10.39728">
        <ele>1660.592</ele>
        <time>2018-08-09T08:43:55Z</time>
      </trkpt>
      <trkpt lat="46.25783" lon="10.39727">
        <ele>1660.638</ele>
        <time>2018-08-09T08:44:15Z</time>
      </trkpt>
      <trkpt lat="46.25784" lon="10.39729">
        <ele>1662.092</ele>
        <time>2018-08-09T08:44:35Z</time>
      </trkpt>
      <trkpt lat="46.25783" lon="10.39732">
        <ele>1662.627</ele>
        <time>2018-08-09T08:44:55Z</time>
      </trkpt>
      <trkpt lat="46.25781" lon="10.39734">
        <ele>1663.028</ele>
        <time>2018-08-09T08:45:15Z</time>
      </trkpt>
      <trkpt lat="46.2578" lon="10.39738">
        <ele>1663.885</ele>
        <time>2018-08-09T08:45:35Z</time>
      </trkpt>
      <trkpt lat="46.25779" lon="10.3974">
        <ele>1664.458</ele>
        <time>2018-08-09T08:45:55Z</time>
      </trkpt>
      <trkpt lat="46.25778" lon="10.39742">
        <ele>1664.936</ele>
        <time>2018-08-09T08:46:15Z</time>
      </trkpt>
      <trkpt lat="46.25777" lon="10.39746">
        <ele>1665.917</ele>
        <time>2018-08-09T08:46:35Z</time>
      </trkpt>
      <trkpt lat="46.25775" lon="10.39749">
        <ele>1667.018</ele>
        <time>2018-08-09T08:46:55Z</time>
      </trkpt>
      <trkpt lat="46.25773" lon="10.39751">
        <ele>1667.408</ele>
        <time>2018-08-09T08:47:15Z</time>
      </trkpt>
      <trkpt lat="46.25772" lon="10.39753">
        <ele>1667.785</ele>
        <time>2018-08-09T08:47:35Z</time>
      </trkpt>
      <trkpt lat="46.25772" lon="10.39756">
        <ele>1668.92</ele>
        <time>2018-08-09T08:47:55Z</time>
      </trkpt>
      <trkpt lat="46.2577" lon="10.39758">
        <ele>1669.496</ele>
        <time>2018-08-09T08:48:15Z</time>
      </trkpt>
      <trkpt lat="46.25769" lon="10.3976">
        <ele>1669.66</ele>
        <time>2018-08-09T08:48:35Z</time>
      </trkpt>
      <trkpt lat="46.25767" lon="10.39761">
        <ele>1669.845</ele>
        <time>2018-08-09T08:48:55Z</time>
      </trkpt>
      <trkpt lat="46.25764" lon="10.39763">
        <ele>1669.886</ele>
        <time>2018-08-09T08:49:15Z</time>
      </trkpt>
      <trkpt lat="46.25762" lon="10.39763">
        <ele>1669.633</ele>
        <time>2018-08-09T08:49:35Z</time>
      </trkpt>
      <trkpt lat="46.2576" lon="10.39764">
        <ele>1669.316</ele>
        <time>2018-08-09T08:49:55Z</time>
      </trkpt>
      <trkpt lat="46.25758" lon="10.39765">
        <ele>1669.179</ele>
        <time>2018-08-09T08:50:15Z</time>
      </trkpt>
      <trkpt lat="46.25756" lon="10.39767">
        <ele>1669.405</ele>
        <time>2018-08-09T08:50:35Z</time>
      </trkpt>
      <trkpt lat="46.25755" lon="10.39768">
        <ele>1669.625</ele>
        <time>2018-08-09T08:50:55Z</time>
      </trkpt>
      <trkpt lat="46.25754" lon="10.39771">
        <ele>1670.308</ele>
        <time>2018-08-09T08:51:15Z</time>
      </trkpt>
      <trkpt lat="46.25751" lon="10.39771">
        <ele>1669.829</ele>
        <time>2018-08-09T08:51:35Z</time>
      </trkpt>
      <trkpt lat="46.2575" lon="10.39772">
        <ele>1669.834</ele>
        <time>2018-08-09T08:51:55Z</time>
      </trkpt>
      <trkpt lat="46.25747" lon="10.39775">
        <ele>1670.29</ele>
        <time>2018-08-09T08:52:15Z</time>
      </trkpt>
      <trkpt lat="46.25746" lon="10.39777">
        <ele>1670.484</ele>
        <time>2018-08-09T08:52:35Z</time>
      </trkpt>
      <trkpt lat="46.25745" lon="10.39778">
        <ele>1670.649</ele>
        <time>2018-08-09T08:52:55Z</time>
      </trkpt>
      <trkpt lat="46.25744" lon="10.39779">
        <ele>1670.84</ele>
        <time>2018-08-09T08:53:15Z</time>
      </trkpt>
      <trkpt lat="46.25742" lon="10.39781">
        <ele>1671.327</ele>
        <time>2018-08-09T08:53:35Z</time>
      </trkpt>
      <trkpt lat="46.25743" lon="10.39784">
        <ele>1672.86</ele>
        <time>2018-08-09T08:53:55Z</time>
      </trkpt>
      <trkpt lat="46.25746" lon="10.39783">
        <ele>1673.292</ele>
        <time>2018-08-09T08:54:15Z</time>
      </trkpt>
      <trkpt lat="46.25748" lon="10.39783">
        <ele>1673.973</ele>
        <time>2018-08-09T08:54:35Z</time>
      </trkpt>
      <trkpt lat="46.2575" lon="10.39784">
        <ele>1674.52</ele>
        <time>2018-08-09T08:54:55Z</time>
      </trkpt>
      <trkpt lat="46.25752" lon="10.39784">
        <ele>1675.008</ele>
        <time>2018-08-09T08:55:15Z</time>
      </trkpt>
      <trkpt lat="46.25754" lon="10.39784">
        <ele>1675.361</ele>
        <time>2018-08-09T08:55:35Z</time>
      </trkpt>
      <trkpt lat="46.25757" lon="10.39784">
        <ele>1676.556</ele>
        <time>2018-08-09T08:55:55Z</time>
      </trkpt>
      <trkpt lat="46.25759" lon="10.39785">
        <ele>1677.092</ele>
        <time>2018-08-09T08:56:15Z</time>
      </trkpt>
      <trkpt lat="46.25759" lon="10.39785">
        <ele>1677.386</ele>
        <time>2018-08-09T08:56:35Z</time>
      </trkpt>
      <trkpt lat="46.25761" lon="10.39786">
        <ele>1678.021</ele>
        <time>2018-08-09T08:56:55Z</time>
      </trkpt>
      <trkpt lat="46.25764" lon="10.39786">
        <ele>1678.692</ele>
        <time>2018-08-09T08:57:15Z</time>
      </trkpt>
      <trkpt lat="46.25766" lon="10.39786">
        <ele>1679.199</ele>
        <time>2018-08-09T08:57:35Z</time>
      </trkpt>
      <trkpt lat="46.25769" lon="10.39785">
        <ele>1679.692</ele>
        <time>2018-08-09T08:57:55Z</time>
      </trkpt>
      <trkpt lat="46.25771" lon="10.39785">
        <ele>1679.957</ele>
        <time>2018-08-09T08:58:15Z</time>
      </trkpt>
      <trkpt lat="46.25773" lon="10.39785">
        <ele>1680.3</ele>
        <time>2018-08-09T08:58:35Z</time>
      </trkpt>
      <trkpt lat="46.25775" lon="10.39787">
        <ele>1681.42</ele>
        <time>2018-08-09T08:58:55Z</time>
      </trkpt>
      <trkpt lat="46.25776" lon="10.39789">
        <ele>1682.508</ele>
        <time>2018-08-09T08:59:15Z</time>
      </trkpt>
      <trkpt lat="46.25772" lon="10.39791">
        <ele>1682.297</ele>
        <time>2018-08-09T08:59:35Z</time>
      </trkpt>
      <trkpt lat="46.2577" lon="10.39793">
        <ele>1682.792</ele>
        <time>2018-08-09T08:59:55Z</time>
      </trkpt>
      <trkpt lat="46.25768" lon="10.39795">
        <ele>1682.978</ele>
        <time>2018-08-09T09:00:15Z</time>
      </trkpt>
      <trkpt lat="46.25766" lon="10.39796">
        <ele>1683.192</ele>
        <time>2018-08-09T09:00:35Z</time>
      </trkpt>
      <trkpt lat="46.25764" lon="10.39798">
        <ele>1683.397</ele>
        <time>2018-08-09T09:00:55Z</time>
      </trkpt>
      <trkpt lat="46.25762" lon="10.39799">
        <ele>1683.318</ele>
        <time>2018-08-09T09:01:15Z</time>
      </trkpt>
      <trkpt lat="46.25761" lon="10.398">
        <ele>1683.845</ele>
        <time>2018-08-09T09:01:35Z</time>
      </trkpt>
      <trkpt lat="46.25759" lon="10.398">
        <ele>1683.338</ele>
        <time>2018-08-09T09:01:55Z</time>
      </trkpt>
      <trkpt lat="46.25756" lon="10.39802">
        <ele>1683.394</ele>
        <time>2018-08-09T09:02:15Z</time>
      </trkpt>
      <trkpt lat="46.25754" lon="10.39801">
        <ele>1682.857</ele>
        <time>2018-08-09T09:02:35Z</time>
      </trkpt>
      <trkpt lat="46.25752" lon="10.39802">
        <ele>1682.722</ele>
        <time>2018-08-09T09:02:55Z</time>
      </trkpt>
      <trkpt lat="46.2575" lon="10.39803">
        <ele>1682.608</ele>
        <time>2018-08-09T09:03:15Z</time>
      </trkpt>
      <trkpt lat="46.25748" lon="10.39804">
        <ele>1682.731</ele>
        <time>2018-08-09T09:03:35Z</time>
      </trkpt>
      <trkpt lat="46.25743" lon="10.39805">
        <ele>1682.576</ele>
        <time>2018-08-09T09:03:55Z</time>
      </trkpt>
      <trkpt lat="46.25742" lon="10.39807">
        <ele>1683.582</ele>
        <time>2018-08-09T09:04:15Z</time>
      </trkpt>
      <trkpt lat="46.25741" lon="10.3981">
        <ele>1684.646</ele>
        <time>2018-08-09T09:04:35Z</time>
      </trkpt>
      <trkpt lat="46.25738" lon="10.39811">
        <ele>1684.891</ele>
        <time>2018-08-09T09:04:55Z</time>
      </trkpt>
      <trkpt lat="46.25736" lon="10.39811">
        <ele>1684.412</ele>
        <time>2018-08-09T09:05:15Z</time>
      </trkpt>
      <trkpt lat="46.25734" lon="10.39812">
        <ele>1684.419</ele>
        <time>2018-08-09T09:05:35Z</time>
      </trkpt>
      <trkpt lat="46.25732" lon="10.39812">
        <ele>1684.342</ele>
        <time>2018-08-09T09:05:55Z</time>
      </trkpt>
      <trkpt lat="46.25729" lon="10.39812">
        <ele>1684.065</ele>
        <time>2018-08-09T09:06:15Z</time>
      </trkpt>
      <trkpt lat="46.25731" lon="10.39814">
        <ele>1684.768</ele>
        <time>2018-08-09T09:06:35Z</time>
      </trkpt>
      <trkpt lat="46.25729" lon="10.39816">
        <ele>1685.714</ele>
        <time>2018-08-09T09:06:55Z</time>
      </trkpt>
      <trkpt lat="46.25729" lon="10.3982">
        <ele>1687.208</ele>
        <time>2018-08-09T09:07:15Z</time>
      </trkpt>
      <trkpt lat="46.25728" lon="10.39822">
        <ele>1688.438</ele>
        <time>2018-08-09T09:07:35Z</time>
      </trkpt>
      <trkpt lat="46.25727" lon="10.39825">
        <ele>1689.583</ele>
        <time>2018-08-09T09:07:55Z</time>
      </trkpt>
      <trkpt lat="46.25726" lon="10.39828">
        <ele>1690.899</ele>
        <time>2018-08-09T09:08:15Z</time>
      </trkpt>
      <trkpt lat="46.25725" lon="10.3983">
        <ele>1691.773</ele>
        <time>2018-08-09T09:08:35Z</time>
      </trkpt>
      <trkpt lat="46.25724" lon="10.39833">
        <ele>1692.848</ele>
        <time>2018-08-09T09:08:55Z</time>
      </trkpt>
      <trkpt lat="46.25723" lon="10.39835">
        <ele>1693.819</ele>
        <time>2018-08-09T09:09:15Z</time>
      </trkpt>
      <trkpt lat="46.2572" lon="10.39838">
        <ele>1694.766</ele>
        <time>2018-08-09T09:09:35Z</time>
      </trkpt>
      <trkpt lat="46.25719" lon="10.3984">
        <ele>1695.429</ele>
        <time>2018-08-09T09:09:55Z</time>
      </trkpt>
      <trkpt lat="46.25719" lon="10.39844">
        <ele>1696.711</ele>
        <time>2018-08-09T09:10:15Z</time>
      </trkpt>
      <trkpt lat="46.25718" lon="10.39846">
        <ele>1697.921</ele>
        <time>2018-08-09T09:10:35Z</time>
      </trkpt>
      <trkpt lat="46.25717" lon="10.39849">
        <ele>1699.003</ele>
        <time>2018-08-09T09:10:55Z</time>
      </trkpt>
      <trkpt lat="46.25715" lon="10.3985">
        <ele>1698.908</ele>
        <time>2018-08-09T09:11:15Z</time>
      </trkpt>
      <trkpt lat="46.25713" lon="10.39853">
        <ele>1699.893</ele>
        <time>2018-08-09T09:11:35Z</time>
      </trkpt>
      <trkpt lat="46.25711" lon="10.39855">
        <ele>1700.758</ele>
        <time>2018-08-09T09:11:55Z</time>
      </trkpt>
      <trkpt lat="46.2571" lon="10.39859">
        <ele>1702.154</ele>
        <time>2018-08-09T09:12:15Z</time>
      </trkpt>
      <trkpt lat="46.25708" lon="10.39861">
        <ele>1702.978</ele>
        <time>2018-08-09T09:12:35Z</time>
      </trkpt>
      <trkpt lat="46.25708" lon="10.39864">
        <ele>1704.153</ele>
        <time>2018-08-09T09:12:55Z</time>
      </trkpt>
      <trkpt lat="46.25708" lon="10.39867">
        <ele>1705.274</ele>
        <time>2018-08-09T09:13:15Z</time>
      </trkpt>
      <trkpt lat="46.25708" lon="10.39871">
        <ele>1706.571</ele>
        <time>2018-08-09T09:13:35Z</time>
      </trkpt>
      <trkpt lat="46.25707" lon="10.39873">
        <ele>1707.384</ele>
        <time>2018-08-09T09:13:55Z</time>
      </trkpt>
      <trkpt lat="46.25708" lon="10.39877">
        <ele>1708.949</ele>
        <time>2018-08-09T09:14:15Z</time>
      </trkpt>
      <trkpt lat="46.25708" lon="10.3988">
        <ele>1710.102</ele>
        <time>2018-08-09T09:14:35Z</time>
      </trkpt>
      <trkpt lat="46.2571" lon="10.39882">
        <ele>1711.622</ele>
        <time>2018-08-09T09:14:55Z</time>
      </trkpt>
      <trkpt lat="46.25712" lon="10.39885">
        <ele>1713.208</ele>
        <time>2018-08-09T09:15:15Z</time>
      </trkpt>
      <trkpt lat="46.25713" lon="10.39887">
        <ele>1714.836</ele>
        <time>2018-08-09T09:15:35Z</time>
      </trkpt>
      <trkpt lat="46.25715" lon="10.39889">
        <ele>1716.021</ele>
        <time>2018-08-09T09:15:55Z</time>
      </trkpt>
      <trkpt lat="46.25716" lon="10.39892">
        <ele>1717.017</ele>
        <time>2018-08-09T09:16:15Z</time>
      </trkpt>
      <trkpt lat="46.25716" lon="10.39894">
        <ele>1717.991</ele>
        <time>2018-08-09T09:16:35Z</time>
      </trkpt>
      <trkpt lat="46.25717" lon="10.39897">
        <ele>1719.136</ele>
        <time>2018-08-09T09:16:55Z</time>
      </trkpt>
      <trkpt lat="46.2572" lon="10.399">
        <ele>1720.877</ele>
        <time>2018-08-09T09:17:15Z</time>
      </trkpt>
      <trkpt lat="46.2572" lon="10.39903">
        <ele>1722.134</ele>
        <time>2018-08-09T09:17:35Z</time>
      </trkpt>
      <trkpt lat="46.25721" lon="10.39905">
        <ele>1723.227</ele>
        <time>2018-08-09T09:17:55Z</time>
      </trkpt>
      <trkpt lat="46.25723" lon="10.39908">
        <ele>1724.652</ele>
        <time>2018-08-09T09:18:15Z</time>
      </trkpt>
      <trkpt lat="46.25724" lon="10.39911">
        <ele>1725.753</ele>
        <time>2018-08-09T09:18:35Z</time>
      </trkpt>
      <trkpt lat="46.25725" lon="10.39914">
        <ele>1726.908</ele>
        <time>2018-08-09T09:18:55Z</time>
      </trkpt>
      <trkpt lat="46.25726" lon="10.39917">
        <ele>1727.908</ele>
        <time>2018-08-09T09:19:15Z</time>
      </trkpt>
      <trkpt lat="46.25728" lon="10.39919">
        <ele>1728.537</ele>
        <time>2018-08-09T09:19:35Z</time>
      </trkpt>
      <trkpt lat="46.25728" lon="10.39922">
        <ele>1729.142</ele>
        <time>2018-08-09T09:19:55Z</time>
      </trkpt>
      <trkpt lat="46.25729" lon="10.39925">
        <ele>1729.778</ele>
        <time>2018-08-09T09:20:15Z</time>
      </trkpt>
      <trkpt lat="46.25729" lon="10.39927">
        <ele>1729.822</ele>
        <time>2018-08-09T09:20:35Z</time>
      </trkpt>
      <trkpt lat="46.2573" lon="10.39931">
        <ele>1730.957</ele>
        <time>2018-08-09T09:20:55Z</time>
      </trkpt>
      <trkpt lat="46.25731" lon="10.39934">
        <ele>1731.718</ele>
        <time>2018-08-09T09:21:15Z</time>
      </trkpt>
      <trkpt lat="46.25732" lon="10.39936">
        <ele>1732.825</ele>
        <time>2018-08-09T09:21:35Z</time>
      </trkpt>
      <trkpt lat="46.25733" lon="10.3994">
        <ele>1734.038</ele>
        <time>2018-08-09T09:21:55Z</time>
      </trkpt>
      <trkpt lat="46.25733" lon="10.39942">
        <ele>1734.441</ele>
        <time>2018-08-09T09:22:15Z</time>
      </trkpt>
      <trkpt lat="46.25734" lon="10.39945">
        <ele>1735.581</ele>
        <time>2018-08-09T09:22:35Z</time>
      </trkpt>
      <trkpt lat="46.25736" lon="10.39944">
        <ele>1737.209</ele>
        <time>2018-08-09T09:22:55Z</time>
      </trkpt>
      <trkpt lat="46.25736" lon="10.39941">
        <ele>1736.708</ele>
        <time>2018-08-09T09:23:15Z</time>
      </trkpt>
      <trkpt lat="46.25737" lon="10.39938">
        <ele>1736.596</ele>
        <time>2018-08-09T09:23:35Z</time>
      </trkpt>
      <trkpt lat="46.25739" lon="10.39936">
        <ele>1736.951</ele>
        <time>2018-08-09T09:23:55Z</time>
      </trkpt>
      <trkpt lat="46.2574" lon="10.39933">
        <ele>1736.737</ele>
        <time>2018-08-09T09:24:15Z</time>
      </trkpt>
      <trkpt lat="46.25741" lon="10.3993">
        <ele>1736.131</ele>
        <time>2018-08-09T09:24:35Z</time>
      </trkpt>
      <trkpt lat="46.25742" lon="10.39928">
        <ele>1735.826</ele>
        <time>2018-08-09T09:24:55Z</time>
      </trkpt>
      <trkpt lat="46.25742" lon="10.39923">
        <ele>1734.237</ele>
        <time>2018-08-09T09:25:15Z</time>
      </trkpt>
      <trkpt lat="46.25741" lon="10.3992">
        <ele>1733.034</ele>
        <time>2018-08-09T09:25:35Z</time>
      </trkpt>
      <trkpt lat="46.25742" lon="10.39917">
        <ele>1732.127</ele>
        <time>2018-08-09T09:25:55Z</time>
      </trkpt>
      <trkpt lat="46.25742" lon="10.39914">
        <ele>1731.173</ele>
        <time>2018-08-09T09:26:15Z</time>
      </trkpt>
      <trkpt lat="46.25743" lon="10.39911">
        <ele>1730.485</ele>
        <time>2018-08-09T09:26:35Z</time>
      </trkpt>
      <trkpt lat="46.25744" lon="10.39909">
        <ele>1730.013</ele>
        <time>2018-08-09T09:26:55Z</time>
      </trkpt>
      <trkpt lat="46.25745" lon="10.39905">
        <ele>1729.008</ele>
        <time>2018-08-09T09:27:15Z</time>
      </trkpt>
      <trkpt lat="46.25747" lon="10.39903">
        <ele>1728.749</ele>
        <time>2018-08-09T09:27:35Z</time>
      </trkpt>
      <trkpt lat="46.25748" lon="10.399">
        <ele>1728.124</ele>
        <time>2018-08-09T09:27:55Z</time>
      </trkpt>
      <trkpt lat="46.2575" lon="10.39898">
        <ele>1727.95</ele>
        <time>2018-08-09T09:28:15Z</time>
      </trkpt>
      <trkpt lat="46.25752" lon="10.39897">
        <ele>1728.074</ele>
        <time>2018-08-09T09:28:35Z</time>
      </trkpt>
      <trkpt lat="46.25755" lon="10.39896">
        <ele>1728.119</ele>
        <time>2018-08-09T09:28:55Z</time>
      </trkpt>
      <trkpt lat="46.25756" lon="10.39894">
        <ele>1727.62</ele>
        <time>2018-08-09T09:29:15Z</time>
      </trkpt>
      <trkpt lat="46.25758" lon="10.39893">
        <ele>1727.447</ele>
        <time>2018-08-09T09:29:35Z</time>
      </trkpt>
      <trkpt lat="46.2576" lon="10.39893">
        <ele>1727.79</ele>
        <time>2018-08-09T09:29:55Z</time>
      </trkpt>
      <trkpt lat="46.25762" lon="10.39893">
        <ele>1728.156</ele>
        <time>2018-08-09T09:30:15Z</time>
      </trkpt>
      <trkpt lat="46.25763" lon="10.39896">
        <ele>1729.659</ele>
        <time>2018-08-09T09:30:35Z</time>
      </trkpt>
      <trkpt lat="46.25762" lon="10.39899">
        <ele>1730.614</ele>
        <time>2018-08-09T09:30:55Z</time>
      </trkpt>
      <trkpt lat="46.25761" lon="10.39902">
        <ele>1731.708</ele>
        <time>2018-08-09T09:31:15Z</time>
      </trkpt>
      <trkpt lat="46.25761" lon="10.39905">
        <ele>1733.077</ele>
        <time>2018-08-09T09:31:35Z</time>
      </trkpt>
      <trkpt lat="46.25761" lon="10.39907">
        <ele>1734.182</ele>
        <time>2018-08-09T09:31:55Z</time>
      </trkpt>
      <trkpt lat="46.25761" lon="10.39911">
        <ele>1735.628</ele>
        <time>2018-08-09T09:32:15Z</time>
      </trkpt>
      <trkpt lat="46.25761" lon="10.39914">
        <ele>1737.122</ele>
        <time>2018-08-09T09:32:35Z</time>
      </trkpt>
      <trkpt lat="46.25762" lon="10.39916">
        <ele>1738.437</ele>
        <time>2018-08-09T09:32:55Z</time>
      </trkpt>
      <trkpt lat="46.25761" lon="10.39919">
        <ele>1739.368</ele>
        <time>2018-08-09T09:33:15Z</time>
      </trkpt>
      <trkpt lat="46.2576" lon="10.39922">
        <ele>1740.485</ele>
        <time>2018-08-09T09:33:35Z</time>
      </trkpt>
      <trkpt lat="46.25761" lon="10.39925">
        <ele>1742.178</ele>
        <time>2018-08-09T09:33:55Z</time>
      </trkpt>
      <trkpt lat="46.25762" lon="10.39928">
        <ele>1743.755</ele>
        <time>2018-08-09T09:34:15Z</time>
      </trkpt>
      <trkpt lat="46.25763" lon="10.3993">
        <ele>1745.107</ele>
        <time>2018-08-09T09:34:35Z</time>
      </trkpt>
      <trkpt lat="46.25763" lon="10.39933">
        <ele>1746.617</ele>
        <time>2018-08-09T09:34:55Z</time>
      </trkpt>
      <trkpt lat="46.25762" lon="10.39936">
        <ele>1747.308</ele>
        <time>2018-08-09T09:35:15Z</time>
      </trkpt>
      <trkpt lat="46.25763" lon="10.39938">
        <ele>1749.057</ele>
        <time>2018-08-09T09:35:35Z</time>
      </trkpt>
      <trkpt lat="46.25764" lon="10.39941">
        <ele>1750.482</ele>
        <time>2018-08-09T09:35:55Z</time>
      </trkpt>
      <trkpt lat="46.25765" lon="10.39944">
        <ele>1752.148</ele>
        <time>2018-08-09T09:36:15Z</time>
      </trkpt>
      <trkpt lat="46.25765" lon="10.39947">
        <ele>1752.222</ele>
        <time>2018-08-09T09:36:35Z</time>
      </trkpt>
      <trkpt lat="46.25766" lon="10.3995">
        <ele>1752.577</ele>
        <time>2018-08-09T09:36:55Z</time>
      </trkpt>
      <trkpt lat="46.25768" lon="10.39953">
        <ele>1753.238</ele>
        <time>2018-08-09T09:37:15Z</time>
      </trkpt>
      <trkpt lat="46.2577" lon="10.3995">
        <ele>1753.725</ele>
        <time>2018-08-09T09:37:35Z</time>
      </trkpt>
      <trkpt lat="46.2577" lon="10.39947">
        <ele>1753.618</ele>
        <time>2018-08-09T09:37:55Z</time>
      </trkpt>
      <trkpt lat="46.25771" lon="10.39944">
        <ele>1753.996</ele>
        <time>2018-08-09T09:38:15Z</time>
      </trkpt>
      <trkpt lat="46.25772" lon="10.39941">
        <ele>1752.831</ele>
        <time>2018-08-09T09:38:35Z</time>
      </trkpt>
      <trkpt lat="46.25773" lon="10.39939">
        <ele>1752.124</ele>
        <time>2018-08-09T09:38:55Z</time>
      </trkpt>
      <trkpt lat="46.25774" lon="10.39936">
        <ele>1751.308</ele>
        <time>2018-08-09T09:39:15Z</time>
      </trkpt>
      <trkpt lat="46.25776" lon="10.39934">
        <ele>1750.911</ele>
        <time>2018-08-09T09:39:35Z</time>
      </trkpt>
      <trkpt lat="46.25777" lon="10.39931">
        <ele>1750.586</ele>
        <time>2018-08-09T09:39:55Z</time>
      </trkpt>
      <trkpt lat="46.25777" lon="10.39928">
        <ele>1749.412</ele>
        <time>2018-08-09T09:40:15Z</time>
      </trkpt>
      <trkpt lat="46.25779" lon="10.39926">
        <ele>1748.936</ele>
        <time>2018-08-09T09:40:35Z</time>
      </trkpt>
      <trkpt lat="46.2578" lon="10.39924">
        <ele>1748.411</ele>
        <time>2018-08-09T09:40:55Z</time>
      </trkpt>
      <trkpt lat="46.25782" lon="10.39924">
        <ele>1748.972</ele>
        <time>2018-08-09T09:41:15Z</time>
      </trkpt>
      <trkpt lat="46.25784" lon="10.39922">
        <ele>1748.619</ele>
        <time>2018-08-09T09:41:35Z</time>
      </trkpt>
      <trkpt lat="46.25786" lon="10.3992">
        <ele>1748.362</ele>
        <time>2018-08-09T09:41:55Z</time>
      </trkpt>
      <trkpt lat="46.25787" lon="10.39918">
        <ele>1747.891</ele>
        <time>2018-08-09T09:42:15Z</time>
      </trkpt>
      <trkpt lat="46.25789" lon="10.39917">
        <ele>1747.881</ele>
        <time>2018-08-09T09:42:35Z</time>
      </trkpt>
      <trkpt lat="46.25791" lon="10.39917">
        <ele>1748.619</ele>
        <time>2018-08-09T09:42:55Z</time>
      </trkpt>
      <trkpt lat="46.25794" lon="10.39918">
        <ele>1749.708</ele>
        <time>2018-08-09T09:43:15Z</time>
      </trkpt>
      <trkpt lat="46.25796" lon="10.39919">
        <ele>1750.511</ele>
        <time>2018-08-09T09:43:35Z</time>
      </trkpt>
      <trkpt lat="46.25796" lon="10.39921">
        <ele>1751.726</ele>
        <time>2018-08-09T09:43:55Z</time>
      </trkpt>
      <trkpt lat="46.25796" lon="10.39924">
        <ele>1752.782</ele>
        <time>2018-08-09T09:44:15Z</time>
      </trkpt>
      <trkpt lat="46.25794" lon="10.39926">
        <ele>1753.376</ele>
        <time>2018-08-09T09:44:35Z</time>
      </trkpt>
      <trkpt lat="46.25794" lon="10.39929">
        <ele>1754.281</ele>
        <time>2018-08-09T09:44:55Z</time>
      </trkpt>
      <trkpt lat="46.25793" lon="10.39932">
        <ele>1755.472</ele>
        <time>2018-08-09T09:45:15Z</time>
      </trkpt>
      <trkpt lat="46.25791" lon="10.39934">
        <ele>1755.839</ele>
        <time>2018-08-09T09:45:35Z</time>
      </trkpt>
      <trkpt lat="46.25791" lon="10.39937">
        <ele>1757.012</ele>
        <time>2018-08-09T09:45:55Z</time>
      </trkpt>
      <trkpt lat="46.25791" lon="10.3994">
        <ele>1758.394</ele>
        <time>2018-08-09T09:46:15Z</time>
      </trkpt>
      <trkpt lat="46.2579" lon="10.39943">
        <ele>1759.157</ele>
        <time>2018-08-09T09:46:35Z</time>
      </trkpt>
      <trkpt lat="46.2579" lon="10.39946">
        <ele>1760.022</ele>
        <time>2018-08-09T09:46:55Z</time>
      </trkpt>
      <trkpt lat="46.25789" lon="10.39949">
        <ele>1760.408</ele>
        <time>2018-08-09T09:47:15Z</time>
      </trkpt>
      <trkpt lat="46.25789" lon="10.39951">
        <ele>1760.971</ele>
        <time>2018-08-09T09:47:35Z</time>
      </trkpt>
      <trkpt lat="46.25789" lon="10.39955">
        <ele>1761.716</ele>
        <time>2018-08-09T09:47:55Z</time>
      </trkpt>
      <trkpt lat="46.25791" lon="10.39957">
        <ele>1763.142</ele>
        <time>2018-08-09T09:48:15Z</time>
      </trkpt>
      <trkpt lat="46.25792" lon="10.3996">
        <ele>1764.216</ele>
        <time>2018-08-09T09:48:35Z</time>
      </trkpt>
      <trkpt lat="46.25793" lon="10.39964">
        <ele>1765.621</ele>
        <time>2018-08-09T09:48:55Z</time>
      </trkpt>
      <trkpt lat="46.25793" lon="10.39967">
        <ele>1766.252</ele>
        <time>2018-08-09T09:49:15Z</time>
      </trkpt>
      <trkpt lat="46.25795" lon="10.3997">
        <ele>1767.999</ele>
        <time>2018-08-09T09:49:35Z</time>
      </trkpt>
      <trkpt lat="46.25796" lon="10.39972">
        <ele>1769.132</ele>
        <time>2018-08-09T09:49:55Z</time>
      </trkpt>
      <trkpt lat="46.25798" lon="10.39975">
        <ele>1770.693</ele>
        <time>2018-08-09T09:50:15Z</time>
      </trkpt>
      <trkpt lat="46.25799" lon="10.39979">
        <ele>1772.065</ele>
        <time>2018-08-09T09:50:35Z</time>
      </trkpt>
      <trkpt lat="46.258" lon="10.39981">
        <ele>1772.921</ele>
        <time>2018-08-09T09:50:55Z</time>
      </trkpt>
      <trkpt lat="46.25802" lon="10.39976">
        <ele>1773.408</ele>
        <time>2018-08-09T09:51:15Z</time>
      </trkpt>
      <trkpt lat="46.25807" lon="10.39971">
        <ele>1774.891</ele>
        <time>2018-08-09T09:51:35Z</time>
      </trkpt>
      <trkpt lat="46.25815" lon="10.39961">
        <ele>1774.686</ele>
        <time>2018-08-09T09:51:55Z</time>
      </trkpt>
      <trkpt lat="46.25813" lon="10.39973">
        <ele>1778.562</ele>
        <time>2018-08-09T09:52:15Z</time>
      </trkpt>
      <trkpt lat="46.25814" lon="10.39998">
        <ele>1786.546</ele>
        <time>2018-08-09T09:52:35Z</time>
      </trkpt>
      <trkpt lat="46.25817" lon="10.39994">
        <ele>1786.851</ele>
        <time>2018-08-09T09:52:55Z</time>
      </trkpt>
      <trkpt lat="46.25819" lon="10.3999">
        <ele>1786.952</ele>
        <time>2018-08-09T09:53:15Z</time>
      </trkpt>
      <trkpt lat="46.25821" lon="10.39987">
        <ele>1786.849</ele>
        <time>2018-08-09T09:53:35Z</time>
      </trkpt>
      <trkpt lat="46.25839" lon="10.39971">
        <ele>1787.032</ele>
        <time>2018-08-09T09:53:55Z</time>
      </trkpt>
      <trkpt lat="46.25836" lon="10.39984">
        <ele>1792.484</ele>
        <time>2018-08-09T09:54:15Z</time>
      </trkpt>
      <trkpt lat="46.2583" lon="10.40006">
        <ele>1798.407</ele>
        <time>2018-08-09T09:54:35Z</time>
      </trkpt>
      <trkpt lat="46.25838" lon="10.40015">
        <ele>1803.317</ele>
        <time>2018-08-09T09:54:55Z</time>
      </trkpt>
      <trkpt lat="46.25843" lon="10.40013">
        <ele>1803.808</ele>
        <time>2018-08-09T09:55:15Z</time>
      </trkpt>
      <trkpt lat="46.25849" lon="10.4001">
        <ele>1804.26</ele>
        <time>2018-08-09T09:55:35Z</time>
      </trkpt>
      <trkpt lat="46.25856" lon="10.40006">
        <ele>1804.745</ele>
        <time>2018-08-09T09:55:55Z</time>
      </trkpt>
      <trkpt lat="46.25858" lon="10.40005">
        <ele>1804.861</ele>
        <time>2018-08-09T09:56:15Z</time>
      </trkpt>
      <trkpt lat="46.25861" lon="10.40003">
        <ele>1804.985</ele>
        <time>2018-08-09T09:56:35Z</time>
      </trkpt>
      <trkpt lat="46.25868" lon="10.4">
        <ele>1804.98</ele>
        <time>2018-08-09T09:56:55Z</time>
      </trkpt>
      <trkpt lat="46.25886" lon="10.39997">
        <ele>1806.721</ele>
        <time>2018-08-09T09:57:15Z</time>
      </trkpt>
      <trkpt lat="46.25887" lon="10.39997">
        <ele>1806.668</ele>
        <time>2018-08-09T09:57:35Z</time>
      </trkpt>
      <trkpt lat="46.25931" lon="10.39966">
        <ele>1808.191</ele>
        <time>2018-08-09T09:57:55Z</time>
      </trkpt>
      <trkpt lat="46.25918" lon="10.39989">
        <ele>1812.465</ele>
        <time>2018-08-09T09:58:15Z</time>
      </trkpt>
      <trkpt lat="46.25916" lon="10.39992">
        <ele>1812.768</ele>
        <time>2018-08-09T09:58:35Z</time>
      </trkpt>
      <trkpt lat="46.25911" lon="10.39998">
        <ele>1813.214</ele>
        <time>2018-08-09T09:58:55Z</time>
      </trkpt>
      <trkpt lat="46.25909" lon="10.40002">
        <ele>1813.508</ele>
        <time>2018-08-09T09:59:15Z</time>
      </trkpt>
      <trkpt lat="46.2591" lon="10.40005">
        <ele>1814.628</ele>
        <time>2018-08-09T09:59:35Z</time>
      </trkpt>
      <trkpt lat="46.25911" lon="10.40008">
        <ele>1815.723</ele>
        <time>2018-08-09T09:59:55Z</time>
      </trkpt>
      <trkpt lat="46.25909" lon="10.4001">
        <ele>1816.089</ele>
        <time>2018-08-09T10:00:15Z</time>
      </trkpt>
      <trkpt lat="46.25908" lon="10.40012">
        <ele>1816.153</ele>
        <time>2018-08-09T10:00:35Z</time>
      </trkpt>
      <trkpt lat="46.25907" lon="10.40015">
        <ele>1816.928</ele>
        <time>2018-08-09T10:00:55Z</time>
      </trkpt>
      <trkpt lat="46.25906" lon="10.40019">
        <ele>1817.889</ele>
        <time>2018-08-09T10:01:15Z</time>
      </trkpt>
      <trkpt lat="46.25905" lon="10.40019">
        <ele>1817.516</ele>
        <time>2018-08-09T10:01:35Z</time>
      </trkpt>
      <trkpt lat="46.25904" lon="10.40022">
        <ele>1818.539</ele>
        <time>2018-08-09T10:01:55Z</time>
      </trkpt>
      <trkpt lat="46.25903" lon="10.40025">
        <ele>1819.241</ele>
        <time>2018-08-09T10:02:15Z</time>
      </trkpt>
      <trkpt lat="46.25902" lon="10.40026">
        <ele>1819.481</ele>
        <time>2018-08-09T10:02:35Z</time>
      </trkpt>
      <trkpt lat="46.25903" lon="10.4003">
        <ele>1820.609</ele>
        <time>2018-08-09T10:02:55Z</time>
      </trkpt>
      <trkpt lat="46.25902" lon="10.40032">
        <ele>1821.008</ele>
        <time>2018-08-09T10:03:15Z</time>
      </trkpt>
      <trkpt lat="46.25901" lon="10.40035">
        <ele>1821.986</ele>
        <time>2018-08-09T10:03:35Z</time>
      </trkpt>
      <trkpt lat="46.259" lon="10.40036">
        <ele>1822.311</ele>
        <time>2018-08-09T10:03:55Z</time>
      </trkpt>
      <trkpt lat="46.25898" lon="10.40036">
        <ele>1821.827</ele>
        <time>2018-08-09T10:04:15Z</time>
      </trkpt>
      <trkpt lat="46.25896" lon="10.40037">
        <ele>1822.081</ele>
        <time>2018-08-09T10:04:35Z</time>
      </trkpt>
      <trkpt lat="46.2589" lon="10.40036">
        <ele>1820.566</ele>
        <time>2018-08-09T10:04:55Z</time>
      </trkpt>
      <trkpt lat="46.2589" lon="10.40038">
        <ele>1821.557</ele>
        <time>2018-08-09T10:05:15Z</time>
      </trkpt>
      <trkpt lat="46.25889" lon="10.40039">
        <ele>1821.674</ele>
        <time>2018-08-09T10:05:35Z</time>
      </trkpt>
      <trkpt lat="46.25889" lon="10.40041">
        <ele>1822.437</ele>
        <time>2018-08-09T10:05:55Z</time>
      </trkpt>
      <trkpt lat="46.25891" lon="10.40045">
        <ele>1823.729</ele>
        <time>2018-08-09T10:06:15Z</time>
      </trkpt>
      <trkpt lat="46.25889" lon="10.40047">
        <ele>1824.2</ele>
        <time>2018-08-09T10:06:35Z</time>
      </trkpt>
      <trkpt lat="46.25887" lon="10.40049">
        <ele>1824.62</ele>
        <time>2018-08-09T10:06:55Z</time>
      </trkpt>
      <trkpt lat="46.25886" lon="10.40051">
        <ele>1824.908</ele>
        <time>2018-08-09T10:07:15Z</time>
      </trkpt>
      <trkpt lat="46.25887" lon="10.40054">
        <ele>1826.094</ele>
        <time>2018-08-09T10:07:35Z</time>
      </trkpt>
      <trkpt lat="46.25885" lon="10.40057">
        <ele>1826.789</ele>
        <time>2018-08-09T10:07:55Z</time>
      </trkpt>
      <trkpt lat="46.25884" lon="10.40059">
        <ele>1827.115</ele>
        <time>2018-08-09T10:08:15Z</time>
      </trkpt>
      <trkpt lat="46.25883" lon="10.40062">
        <ele>1827.979</ele>
        <time>2018-08-09T10:08:35Z</time>
      </trkpt>
      <trkpt lat="46.25882" lon="10.40065">
        <ele>1828.834</ele>
        <time>2018-08-09T10:08:55Z</time>
      </trkpt>
      <trkpt lat="46.2588" lon="10.40067">
        <ele>1829.065</ele>
        <time>2018-08-09T10:09:15Z</time>
      </trkpt>
      <trkpt lat="46.2588" lon="10.4007">
        <ele>1829.922</ele>
        <time>2018-08-09T10:09:35Z</time>
      </trkpt>
      <trkpt lat="46.25878" lon="10.40072">
        <ele>1830.325</ele>
        <time>2018-08-09T10:09:55Z</time>
      </trkpt>
      <trkpt lat="46.25874" lon="10.40072">
        <ele>1829.137</ele>
        <time>2018-08-09T10:10:15Z</time>
      </trkpt>
      <trkpt lat="46.25873" lon="10.40074">
        <ele>1829.649</ele>
        <time>2018-08-09T10:10:35Z</time>
      </trkpt>
      <trkpt lat="46.25872" lon="10.40077">
        <ele>1830.113</ele>
        <time>2018-08-09T10:10:55Z</time>
      </trkpt>
      <trkpt lat="46.2587" lon="10.40079">
        <ele>1830.308</ele>
        <time>2018-08-09T10:11:15Z</time>
      </trkpt>
      <trkpt lat="46.25868" lon="10.40081">
        <ele>1830.155</ele>
        <time>2018-08-09T10:11:35Z</time>
      </trkpt>
      <trkpt lat="46.25867" lon="10.40085">
        <ele>1831.09</ele>
        <time>2018-08-09T10:11:55Z</time>
      </trkpt>
      <trkpt lat="46.25866" lon="10.40087">
        <ele>1831.616</ele>
        <time>2018-08-09T10:12:15Z</time>
      </trkpt>
      <trkpt lat="46.25866" lon="10.40089">
        <ele>1832.11</ele>
        <time>2018-08-09T10:12:35Z</time>
      </trkpt>
      <trkpt lat="46.25865" lon="10.40092">
        <ele>1832.865</ele>
        <time>2018-08-09T10:12:55Z</time>
      </trkpt>
      <trkpt lat="46.25863" lon="10.40107">
        <ele>1837.456</ele>
        <time>2018-08-09T10:13:15Z</time>
      </trkpt>
      <trkpt lat="46.25862" lon="10.4013">
        <ele>1843.013</ele>
        <time>2018-08-09T10:13:35Z</time>
      </trkpt>
      <trkpt lat="46.25868" lon="10.40126">
        <ele>1844.196</ele>
        <time>2018-08-09T10:13:55Z</time>
      </trkpt>
      <trkpt lat="46.25869" lon="10.4014">
        <ele>1848.498</ele>
        <time>2018-08-09T10:14:15Z</time>
      </trkpt>
      <trkpt lat="46.25869" lon="10.40141">
        <ele>1848.615</ele>
        <time>2018-08-09T10:14:35Z</time>
      </trkpt>
      <trkpt lat="46.25868" lon="10.4015">
        <ele>1850.326</ele>
        <time>2018-08-09T10:14:55Z</time>
      </trkpt>
      <trkpt lat="46.25868" lon="10.40154">
        <ele>1851.108</ele>
        <time>2018-08-09T10:15:15Z</time>
      </trkpt>
      <trkpt lat="46.25866" lon="10.40159">
        <ele>1851.511</ele>
        <time>2018-08-09T10:15:35Z</time>
      </trkpt>
      <trkpt lat="46.25863" lon="10.40168">
        <ele>1852.136</ele>
        <time>2018-08-09T10:15:55Z</time>
      </trkpt>
      <trkpt lat="46.25854" lon="10.40194">
        <ele>1850.892</ele>
        <time>2018-08-09T10:16:15Z</time>
      </trkpt>
      <trkpt lat="46.25853" lon="10.40207">
        <ele>1851.516</ele>
        <time>2018-08-09T10:16:35Z</time>
      </trkpt>
      <trkpt lat="46.25853" lon="10.40208">
        <ele>1851.761</ele>
        <time>2018-08-09T10:16:55Z</time>
      </trkpt>
      <trkpt lat="46.25855" lon="10.40208">
        <ele>1852.842</ele>
        <time>2018-08-09T10:17:15Z</time>
      </trkpt>
      <trkpt lat="46.25858" lon="10.40207">
        <ele>1854.869</ele>
        <time>2018-08-09T10:17:35Z</time>
      </trkpt>
      <trkpt lat="46.25858" lon="10.40207">
        <ele>1855.222</ele>
        <time>2018-08-09T10:17:55Z</time>
      </trkpt>
      <trkpt lat="46.25859" lon="10.40202">
        <ele>1855.221</ele>
        <time>2018-08-09T10:18:15Z</time>
      </trkpt>
      <trkpt lat="46.25859" lon="10.40201">
        <ele>1855.241</ele>
        <time>2018-08-09T10:18:35Z</time>
      </trkpt>
      <trkpt lat="46.2586" lon="10.40199">
        <ele>1855.405</ele>
        <time>2018-08-09T10:18:55Z</time>
      </trkpt>
      <trkpt lat="46.2586" lon="10.40198">
        <ele>1855.508</ele>
        <time>2018-08-09T10:19:15Z</time>
      </trkpt>
      <trkpt lat="46.25864" lon="10.40191">
        <ele>1857.274</ele>
        <time>2018-08-09T10:19:35Z</time>
      </trkpt>
      <trkpt lat="46.25867" lon="10.40189">
        <ele>1858.159</ele>
        <time>2018-08-09T10:19:55Z</time>
      </trkpt>
      <trkpt lat="46.25869" lon="10.40185">
        <ele>1858.685</ele>
        <time>2018-08-09T10:20:15Z</time>
      </trkpt>
      <trkpt lat="46.2587" lon="10.40183">
        <ele>1858.759</ele>
        <time>2018-08-09T10:20:35Z</time>
      </trkpt>
      <trkpt lat="46.25872" lon="10.40182">
        <ele>1859.674</ele>
        <time>2018-08-09T10:20:55Z</time>
      </trkpt>
      <trkpt lat="46.25873" lon="10.4018">
        <ele>1859.865</ele>
        <time>2018-08-09T10:21:15Z</time>
      </trkpt>
      <trkpt lat="46.25873" lon="10.40176">
        <ele>1858.922</ele>
        <time>2018-08-09T10:21:35Z</time>
      </trkpt>
      <trkpt lat="46.25875" lon="10.40174">
        <ele>1859.575</ele>
        <time>2018-08-09T10:21:55Z</time>
      </trkpt>
      <trkpt lat="46.25876" lon="10.40172">
        <ele>1859.463</ele>
        <time>2018-08-09T10:22:15Z</time>
      </trkpt>
      <trkpt lat="46.25879" lon="10.40172">
        <ele>1860.644</ele>
        <time>2018-08-09T10:22:35Z</time>
      </trkpt>
      <trkpt lat="46.25881" lon="10.4017">
        <ele>1861.318</ele>
        <time>2018-08-09T10:22:55Z</time>
      </trkpt>
      <trkpt lat="46.25884" lon="10.4017">
        <ele>1862.708</ele>
        <time>2018-08-09T10:23:15Z</time>
      </trkpt>
      <trkpt lat="46.25884" lon="10.40168">
        <ele>1862.068</ele>
        <time>2018-08-09T10:23:35Z</time>
      </trkpt>
      <trkpt lat="46.25886" lon="10.40166">
        <ele>1862.273</ele>
        <time>2018-08-09T10:23:55Z</time>
      </trkpt>
      <trkpt lat="46.25886" lon="10.40163">
        <ele>1861.569</ele>
        <time>2018-08-09T10:24:15Z</time>
      </trkpt>
      <trkpt lat="46.25888" lon="10.40159">
        <ele>1861.243</ele>
        <time>2018-08-09T10:24:35Z</time>
      </trkpt>
      <trkpt lat="46.25887" lon="10.40156">
        <ele>1860.258</ele>
        <time>2018-08-09T10:24:55Z</time>
      </trkpt>
      <trkpt lat="46.25888" lon="10.40153">
        <ele>1859.949</ele>
        <time>2018-08-09T10:25:15Z</time>
      </trkpt>
      <trkpt lat="46.25888" lon="10.40151">
        <ele>1859.166</ele>
        <time>2018-08-09T10:25:35Z</time>
      </trkpt>
      <trkpt lat="46.25889" lon="10.40147">
        <ele>1858.119</ele>
        <time>2018-08-09T10:25:55Z</time>
      </trkpt>
      <trkpt lat="46.2589" lon="10.40144">
        <ele>1857.997</ele>
        <time>2018-08-09T10:26:15Z</time>
      </trkpt>
      <trkpt lat="46.2589" lon="10.40142">
        <ele>1857.223</ele>
        <time>2018-08-09T10:26:35Z</time>
      </trkpt>
      <trkpt lat="46.25889" lon="10.40138">
        <ele>1855.625</ele>
        <time>2018-08-09T10:26:55Z</time>
      </trkpt>
      <trkpt lat="46.2589" lon="10.40136">
        <ele>1855.308</ele>
        <time>2018-08-09T10:27:15Z</time>
      </trkpt>
      <trkpt lat="46.25894" lon="10.4013">
        <ele>1854.611</ele>
        <time>2018-08-09T10:27:35Z</time>
      </trkpt>
      <trkpt lat="46.25897" lon="10.40125">
        <ele>1854.096</ele>
        <time>2018-08-09T10:27:55Z</time>
      </trkpt>
      <trkpt lat="46.25908" lon="10.40109">
        <ele>1851.182</ele>
        <time>2018-08-09T10:28:15Z</time>
      </trkpt>
      <trkpt lat="46.25911" lon="10.40106">
        <ele>1850.346</ele>
        <time>2018-08-09T10:28:35Z</time>
      </trkpt>
      <trkpt lat="46.2591" lon="10.4011">
        <ele>1851.821</ele>
        <time>2018-08-09T10:28:55Z</time>
      </trkpt>
      <trkpt lat="46.25906" lon="10.40129">
        <ele>1858.252</ele>
        <time>2018-08-09T10:29:15Z</time>
      </trkpt>
      <trkpt lat="46.25905" lon="10.40132">
        <ele>1859.079</ele>
        <time>2018-08-09T10:29:35Z</time>
      </trkpt>
      <trkpt lat="46.25904" lon="10.40145">
        <ele>1863.492</ele>
        <time>2018-08-09T10:29:55Z</time>
      </trkpt>
      <trkpt lat="46.25903" lon="10.40161">
        <ele>1867.899</ele>
        <time>2018-08-09T10:30:15Z</time>
      </trkpt>
      <trkpt lat="46.25903" lon="10.40178">
        <ele>1872.807</ele>
        <time>2018-08-09T10:30:35Z</time>
      </trkpt>
      <trkpt lat="46.25901" lon="10.40198">
        <ele>1878.027</ele>
        <time>2018-08-09T10:30:55Z</time>
      </trkpt>
      <trkpt lat="46.25902" lon="10.40215">
        <ele>1882.308</ele>
        <time>2018-08-09T10:31:15Z</time>
      </trkpt>
      <trkpt lat="46.25904" lon="10.40231">
        <ele>1887.051</ele>
        <time>2018-08-09T10:31:35Z</time>
      </trkpt>
      <trkpt lat="46.25907" lon="10.40242">
        <ele>1890.596</ele>
        <time>2018-08-09T10:31:55Z</time>
      </trkpt>
      <trkpt lat="46.25909" lon="10.40255">
        <ele>1894.432</ele>
        <time>2018-08-09T10:32:15Z</time>
      </trkpt>
      <trkpt lat="46.25911" lon="10.40268">
        <ele>1898.276</ele>
        <time>2018-08-09T10:32:35Z</time>
      </trkpt>
      <trkpt lat="46.25913" lon="10.40281">
        <ele>1901.731</ele>
        <time>2018-08-09T10:32:55Z</time>
      </trkpt>
      <trkpt lat="46.25911" lon="10.40298">
        <ele>1903.062</ele>
        <time>2018-08-09T10:33:15Z</time>
      </trkpt>
      <trkpt lat="46.25914" lon="10.40294">
        <ele>1904.339</ele>
        <time>2018-08-09T10:33:35Z</time>
      </trkpt>
      <trkpt lat="46.25919" lon="10.40288">
        <ele>1906.362</ele>
        <time>2018-08-09T10:33:55Z</time>
      </trkpt>
      <trkpt lat="46.25921" lon="10.40283">
        <ele>1907.159</ele>
        <time>2018-08-09T10:34:15Z</time>
      </trkpt>
      <trkpt lat="46.25932" lon="10.40261">
        <ele>1907.903</ele>
        <time>2018-08-09T10:34:35Z</time>
      </trkpt>
      <trkpt lat="46.25936" lon="10.40249">
        <ele>1907.323</ele>
        <time>2018-08-09T10:34:55Z</time>
      </trkpt>
      <trkpt lat="46.2594" lon="10.4024">
        <ele>1907.508</ele>
        <time>2018-08-09T10:35:15Z</time>
      </trkpt>
      <trkpt lat="46.25958" lon="10.40218">
        <ele>1908.837</ele>
        <time>2018-08-09T10:35:35Z</time>
      </trkpt>
      <trkpt lat="46.25958" lon="10.40224">
        <ele>1910.262</ele>
        <time>2018-08-09T10:35:55Z</time>
      </trkpt>
      <trkpt lat="46.25956" lon="10.40236">
        <ele>1912.768</ele>
        <time>2018-08-09T10:36:15Z</time>
      </trkpt>
      <trkpt lat="46.25955" lon="10.40259">
        <ele>1918.282</ele>
        <time>2018-08-09T10:36:35Z</time>
      </trkpt>
      <trkpt lat="46.25955" lon="10.40275">
        <ele>1922.327</ele>
        <time>2018-08-09T10:36:55Z</time>
      </trkpt>
      <trkpt lat="46.25956" lon="10.40288">
        <ele>1925.988</ele>
        <time>2018-08-09T10:37:15Z</time>
      </trkpt>
      <trkpt lat="46.25958" lon="10.40296">
        <ele>1928.295</ele>
        <time>2018-08-09T10:37:35Z</time>
      </trkpt>
      <trkpt lat="46.2596" lon="10.40308">
        <ele>1931.728</ele>
        <time>2018-08-09T10:37:55Z</time>
      </trkpt>
      <trkpt lat="46.2596" lon="10.40318">
        <ele>1934.632</ele>
        <time>2018-08-09T10:38:15Z</time>
      </trkpt>
      <trkpt lat="46.2596" lon="10.40327">
        <ele>1936.792</ele>
        <time>2018-08-09T10:38:35Z</time>
      </trkpt>
      <trkpt lat="46.2596" lon="10.40328">
        <ele>1937.211</ele>
        <time>2018-08-09T10:38:55Z</time>
      </trkpt>
      <trkpt lat="46.25959" lon="10.40339">
        <ele>1938.508</ele>
        <time>2018-08-09T10:39:15Z</time>
      </trkpt>
      <trkpt lat="46.25959" lon="10.40349">
        <ele>1939.825</ele>
        <time>2018-08-09T10:39:35Z</time>
      </trkpt>
      <trkpt lat="46.25958" lon="10.40369">
        <ele>1943.33</ele>
        <time>2018-08-09T10:39:55Z</time>
      </trkpt>
      <trkpt lat="46.25957" lon="10.40377">
        <ele>1944.326</ele>
        <time>2018-08-09T10:40:15Z</time>
      </trkpt>
      <trkpt lat="46.25961" lon="10.40373">
        <ele>1945.64</ele>
        <time>2018-08-09T10:40:35Z</time>
      </trkpt>
      <trkpt lat="46.25965" lon="10.40369">
        <ele>1947.075</ele>
        <time>2018-08-09T10:40:55Z</time>
      </trkpt>
      <trkpt lat="46.25971" lon="10.40354">
        <ele>1948.346</ele>
        <time>2018-08-09T10:41:15Z</time>
      </trkpt>
      <trkpt lat="46.25975" lon="10.40348">
        <ele>1949.623</ele>
        <time>2018-08-09T10:41:35Z</time>
      </trkpt>
      <trkpt lat="46.25981" lon="10.40341">
        <ele>1951.046</ele>
        <time>2018-08-09T10:41:55Z</time>
      </trkpt>
      <trkpt lat="46.25984" lon="10.40333">
        <ele>1951.213</ele>
        <time>2018-08-09T10:42:15Z</time>
      </trkpt>
      <trkpt lat="46.25986" lon="10.4033">
        <ele>1950.743</ele>
        <time>2018-08-09T10:42:35Z</time>
      </trkpt>
      <trkpt lat="46.2599" lon="10.40324">
        <ele>1950.007</ele>
        <time>2018-08-09T10:42:55Z</time>
      </trkpt>
      <trkpt lat="46.25993" lon="10.40318">
        <ele>1949.508</ele>
        <time>2018-08-09T10:43:15Z</time>
      </trkpt>
      <trkpt lat="46.25993" lon="10.40317">
        <ele>1949.583</ele>
        <time>2018-08-09T10:43:35Z</time>
      </trkpt>
      <trkpt lat="46.26" lon="10.40309">
        <ele>1950.118</ele>
        <time>2018-08-09T10:43:55Z</time>
      </trkpt>
      <trkpt lat="46.26002" lon="10.40307">
        <ele>1949.824</ele>
        <time>2018-08-09T10:44:15Z</time>
      </trkpt>
      <trkpt lat="46.26003" lon="10.40307">
        <ele>1949.718</ele>
        <time>2018-08-09T10:44:35Z</time>
      </trkpt>
      <trkpt lat="46.26005" lon="10.40305">
        <ele>1949.463</ele>
        <time>2018-08-09T10:44:55Z</time>
      </trkpt>
      <trkpt lat="46.26011" lon="10.403">
        <ele>1948.314</ele>
        <time>2018-08-09T10:45:15Z</time>
      </trkpt>
      <trkpt lat="46.26021" lon="10.40299">
        <ele>1949.591</ele>
        <time>2018-08-09T10:45:35Z</time>
      </trkpt>
      <trkpt lat="46.26034" lon="10.40294">
        <ele>1949.884</ele>
        <time>2018-08-09T10:45:55Z</time>
      </trkpt>
      <trkpt lat="46.26041" lon="10.40291">
        <ele>1949.966</ele>
        <time>2018-08-09T10:46:15Z</time>
      </trkpt>
      <trkpt lat="46.26052" lon="10.40291">
        <ele>1951.829</ele>
        <time>2018-08-09T10:46:35Z</time>
      </trkpt>
      <trkpt lat="46.26051" lon="10.40294">
        <ele>1952.821</ele>
        <time>2018-08-09T10:46:55Z</time>
      </trkpt>
      <trkpt lat="46.26046" lon="10.40306">
        <ele>1957.008</ele>
        <time>2018-08-09T10:47:15Z</time>
      </trkpt>
      <trkpt lat="46.26035" lon="10.40351">
        <ele>1972.918</ele>
        <time>2018-08-09T10:47:35Z</time>
      </trkpt>
      <trkpt lat="46.26031" lon="10.4037">
        <ele>1978.143</ele>
        <time>2018-08-09T10:47:55Z</time>
      </trkpt>
      <trkpt lat="46.26028" lon="10.40387">
        <ele>1980.629</ele>
        <time>2018-08-09T10:48:15Z</time>
      </trkpt>
      <trkpt lat="46.26037" lon="10.40383">
        <ele>1982.633</ele>
        <time>2018-08-09T10:48:35Z</time>
      </trkpt>
      <trkpt lat="46.26037" lon="10.40385">
        <ele>1983.118</ele>
        <time>2018-08-09T10:48:55Z</time>
      </trkpt>
      <trkpt lat="46.26038" lon="10.40388">
        <ele>1983.999</ele>
        <time>2018-08-09T10:49:15Z</time>
      </trkpt>
      <trkpt lat="46.26037" lon="10.40391">
        <ele>1984.796</ele>
        <time>2018-08-09T10:49:35Z</time>
      </trkpt>
      <trkpt lat="46.26037" lon="10.40394">
        <ele>1985.899</ele>
        <time>2018-08-09T10:49:55Z</time>
      </trkpt>
      <trkpt lat="46.26037" lon="10.40397">
        <ele>1986.673</ele>
        <time>2018-08-09T10:50:15Z</time>
      </trkpt>
      <trkpt lat="46.26037" lon="10.404">
        <ele>1987.785</ele>
        <time>2018-08-09T10:50:35Z</time>
      </trkpt>
      <trkpt lat="46.26036" lon="10.40404">
        <ele>1988.713</ele>
        <time>2018-08-09T10:50:55Z</time>
      </trkpt>
      <trkpt lat="46.26036" lon="10.40407">
        <ele>1989.408</ele>
        <time>2018-08-09T10:51:15Z</time>
      </trkpt>
      <trkpt lat="46.26036" lon="10.40407">
        <ele>1989.579</ele>
        <time>2018-08-09T10:51:35Z</time>
      </trkpt>
      <trkpt lat="46.26032" lon="10.40421">
        <ele>1992.634</ele>
        <time>2018-08-09T10:51:55Z</time>
      </trkpt>
      <trkpt lat="46.26027" lon="10.40439">
        <ele>1993.74</ele>
        <time>2018-08-09T10:52:15Z</time>
      </trkpt>
      <trkpt lat="46.26023" lon="10.40458">
        <ele>1996.934</ele>
        <time>2018-08-09T10:52:35Z</time>
      </trkpt>
      <trkpt lat="46.26014" lon="10.4048">
        <ele>1999.019</ele>
        <time>2018-08-09T10:52:55Z</time>
      </trkpt>
      <trkpt lat="46.26008" lon="10.40492">
        <ele>1999.13</ele>
        <time>2018-08-09T10:53:15Z</time>
      </trkpt>
      <trkpt lat="46.26" lon="10.40509">
        <ele>1999.867</ele>
        <time>2018-08-09T10:53:35Z</time>
      </trkpt>
      <trkpt lat="46.25999" lon="10.40511">
        <ele>1999.94</ele>
        <time>2018-08-09T10:53:55Z</time>
      </trkpt>
      <trkpt lat="46.25996" lon="10.4052">
        <ele>2000.365</ele>
        <time>2018-08-09T10:54:15Z</time>
      </trkpt>
      <trkpt lat="46.26024" lon="10.40511">
        <ele>2010.868</ele>
        <time>2018-08-09T10:54:35Z</time>
      </trkpt>
      <trkpt lat="46.26027" lon="10.40509">
        <ele>2011.714</ele>
        <time>2018-08-09T10:54:55Z</time>
      </trkpt>
      <trkpt lat="46.26044" lon="10.405">
        <ele>2016.908</ele>
        <time>2018-08-09T10:55:15Z</time>
      </trkpt>
      <trkpt lat="46.2606" lon="10.40491">
        <ele>2020.658</ele>
        <time>2018-08-09T10:55:35Z</time>
      </trkpt>
      <trkpt lat="46.26113" lon="10.40468">
        <ele>2029.753</ele>
        <time>2018-08-09T10:55:55Z</time>
      </trkpt>
      <trkpt lat="46.26116" lon="10.4047">
        <ele>2030.279</ele>
        <time>2018-08-09T10:56:15Z</time>
      </trkpt>
      <trkpt lat="46.26118" lon="10.40469">
        <ele>2030.443</ele>
        <time>2018-08-09T10:56:35Z</time>
      </trkpt>
      <trkpt lat="46.26165" lon="10.40457">
        <ele>2035.548</ele>
        <time>2018-08-09T10:56:55Z</time>
      </trkpt>
      <trkpt lat="46.26174" lon="10.40456">
        <ele>2036.619</ele>
        <time>2018-08-09T10:57:15Z</time>
      </trkpt>
      <trkpt lat="46.26205" lon="10.40455">
        <ele>2039.996</ele>
        <time>2018-08-09T10:57:35Z</time>
      </trkpt>
      <trkpt lat="46.26258" lon="10.40468">
        <ele>2046.379</ele>
        <time>2018-08-09T10:57:55Z</time>
      </trkpt>
      <trkpt lat="46.26252" lon="10.40477">
        <ele>2049.145</ele>
        <time>2018-08-09T10:58:15Z</time>
      </trkpt>
      <trkpt lat="46.26236" lon="10.40498">
        <ele>2057.147</ele>
        <time>2018-08-09T10:58:35Z</time>
      </trkpt>
      <trkpt lat="46.2623" lon="10.40507">
        <ele>2059.911</ele>
        <time>2018-08-09T10:58:55Z</time>
      </trkpt>
      <trkpt lat="46.26216" lon="10.40527">
        <ele>2063.508</ele>
        <time>2018-08-09T10:59:15Z</time>
      </trkpt>
      <trkpt lat="46.26218" lon="10.40527">
        <ele>2064.326</ele>
        <time>2018-08-09T10:59:35Z</time>
      </trkpt>
      <trkpt lat="46.26237" lon="10.40528">
        <ele>2068.211</ele>
        <time>2018-08-09T10:59:55Z</time>
      </trkpt>
      <trkpt lat="46.2627" lon="10.40532">
        <ele>2075.397</ele>
        <time>2018-08-09T11:00:15Z</time>
      </trkpt>
      <trkpt lat="46.26273" lon="10.40532">
        <ele>2076.111</ele>
        <time>2018-08-09T11:00:35Z</time>
      </trkpt>
      <trkpt lat="46.26288" lon="10.40533">
        <ele>2078.966</ele>
        <time>2018-08-09T11:00:55Z</time>
      </trkpt>
      <trkpt lat="46.26304" lon="10.40537">
        <ele>2082.577</ele>
        <time>2018-08-09T11:01:15Z</time>
      </trkpt>
      <trkpt lat="46.26344" lon="10.40548">
        <ele>2093.374</ele>
        <time>2018-08-09T11:01:35Z</time>
      </trkpt>
      <trkpt lat="46.26393" lon="10.40563">
        <ele>2103.187</ele>
        <time>2018-08-09T11:01:55Z</time>
      </trkpt>
      <trkpt lat="46.26437" lon="10.4058">
        <ele>2107.217</ele>
        <time>2018-08-09T11:02:15Z</time>
      </trkpt>
      <trkpt lat="46.26459" lon="10.4059">
        <ele>2108.487</ele>
        <time>2018-08-09T11:02:35Z</time>
      </trkpt>
      <trkpt lat="46.26472" lon="10.40628">
        <ele>2114.315</ele>
        <time>2018-08-09T11:02:55Z</time>
      </trkpt>
      <trkpt lat="46.2649" lon="10.40685">
        <ele>2122.608</ele>
        <time>2018-08-09T11:03:15Z</time>
      </trkpt>
      <trkpt lat="46.265" lon="10.40722">
        <ele>2129.653</ele>
        <time>2018-08-09T11:03:35Z</time>
      </trkpt>
      <trkpt lat="46.26507" lon="10.40738">
        <ele>2131.898</ele>
        <time>2018-08-09T11:03:55Z</time>
      </trkpt>
      <trkpt lat="46.26484" lon="10.40753">
        <ele>2145.224</ele>
        <time>2018-08-09T11:04:15Z</time>
      </trkpt>
      <trkpt lat="46.26466" lon="10.40773">
        <ele>2154.088</ele>
        <time>2018-08-09T11:04:35Z</time>
      </trkpt>
      <trkpt lat="46.26462" lon="10.40777">
        <ele>2155.073</ele>
        <time>2018-08-09T11:04:55Z</time>
      </trkpt>
      <trkpt lat="46.26455" lon="10.40785">
        <ele>2156.814</ele>
        <time>2018-08-09T11:05:15Z</time>
      </trkpt>
      <trkpt lat="46.26483" lon="10.40797">
        <ele>2159.451</ele>
        <time>2018-08-09T11:05:35Z</time>
      </trkpt>
      <trkpt lat="46.26537" lon="10.40855">
        <ele>2172.474</ele>
        <time>2018-08-09T11:05:55Z</time>
      </trkpt>
      <trkpt lat="46.26572" lon="10.40883">
        <ele>2180.098</ele>
        <time>2018-08-09T11:06:15Z</time>
      </trkpt>
      <trkpt lat="46.26589" lon="10.40894">
        <ele>2182.915</ele>
        <time>2018-08-09T11:06:35Z</time>
      </trkpt>
      <trkpt lat="46.26603" lon="10.40898">
        <ele>2183.126</ele>
        <time>2018-08-09T11:06:55Z</time>
      </trkpt>
      <trkpt lat="46.26607" lon="10.409">
        <ele>2184.108</ele>
        <time>2018-08-09T11:07:15Z</time>
      </trkpt>
      <trkpt lat="46.26611" lon="10.40902">
        <ele>2184.961</ele>
        <time>2018-08-09T11:07:35Z</time>
      </trkpt>
      <trkpt lat="46.26634" lon="10.40926">
        <ele>2194.016</ele>
        <time>2018-08-09T11:07:55Z</time>
      </trkpt>
      <trkpt lat="46.26658" lon="10.40952">
        <ele>2207.992</ele>
        <time>2018-08-09T11:08:15Z</time>
      </trkpt>
      <trkpt lat="46.26663" lon="10.40954">
        <ele>2209.516</ele>
        <time>2018-08-09T11:08:35Z</time>
      </trkpt>
      <trkpt lat="46.26665" lon="10.40956">
        <ele>2210.531</ele>
        <time>2018-08-09T11:08:55Z</time>
      </trkpt>
      <trkpt lat="46.26676" lon="10.40964">
        <ele>2215.082</ele>
        <time>2018-08-09T11:09:15Z</time>
      </trkpt>
      <trkpt lat="46.26694" lon="10.40969">
        <ele>2218.689</ele>
        <time>2018-08-09T11:09:35Z</time>
      </trkpt>
      <trkpt lat="46.26705" lon="10.40973">
        <ele>2218.752</ele>
        <time>2018-08-09T11:09:55Z</time>
      </trkpt>
      <trkpt lat="46.2671" lon="10.40975">
        <ele>2219.491</ele>
        <time>2018-08-09T11:10:15Z</time>
      </trkpt>
      <trkpt lat="46.26684" lon="10.41001">
        <ele>2237.881</ele>
        <time>2018-08-09T11:10:35Z</time>
      </trkpt>
      <trkpt lat="46.26658" lon="10.41018">
        <ele>2249.219</ele>
        <time>2018-08-09T11:10:55Z</time>
      </trkpt>
      <trkpt lat="46.26633" lon="10.41028">
        <ele>2253.008</ele>
        <time>2018-08-09T11:11:15Z</time>
      </trkpt>
      <trkpt lat="46.26615" lon="10.41061">
        <ele>2269.491</ele>
        <time>2018-08-09T11:11:35Z</time>
      </trkpt>
      <trkpt lat="46.26688" lon="10.41055">
        <ele>2278.056</ele>
        <time>2018-08-09T11:11:55Z</time>
      </trkpt>
      <trkpt lat="46.2671" lon="10.41059">
        <ele>2278.972</ele>
        <time>2018-08-09T11:12:15Z</time>
      </trkpt>
      <trkpt lat="46.26719" lon="10.41066">
        <ele>2280.746</ele>
        <time>2018-08-09T11:12:35Z</time>
      </trkpt>
      <trkpt lat="46.26758" lon="10.41099">
        <ele>2287.711</ele>
        <time>2018-08-09T11:12:55Z</time>
      </trkpt>
      <trkpt lat="46.26807" lon="10.41123">
        <ele>2297.872</ele>
        <time>2018-08-09T11:13:15Z</time>
      </trkpt>
      <trkpt lat="46.26819" lon="10.4113">
        <ele>2302.139</ele>
        <time>2018-08-09T11:13:35Z</time>
      </trkpt>
      <trkpt lat="46.26863" lon="10.41164">
        <ele>2318.082</ele>
        <time>2018-08-09T11:13:55Z</time>
      </trkpt>
      <trkpt lat="46.26867" lon="10.41169">
        <ele>2319.279</ele>
        <time>2018-08-09T11:14:15Z</time>
      </trkpt>
      <trkpt lat="46.26904" lon="10.41223">
        <ele>2345.505</ele>
        <time>2018-08-09T11:14:35Z</time>
      </trkpt>
      <trkpt lat="46.26922" lon="10.41245">
        <ele>2362.125</ele>
        <time>2018-08-09T11:14:55Z</time>
      </trkpt>
      <trkpt lat="46.26954" lon="10.4125">
        <ele>2383.208</ele>
        <time>2018-08-09T11:15:15Z</time>
      </trkpt>
      <trkpt lat="46.2699" lon="10.41238">
        <ele>2378.789</ele>
        <time>2018-08-09T11:15:35Z</time>
      </trkpt>
      <trkpt lat="46.27008" lon="10.41238">
        <ele>2376.064</ele>
        <time>2018-08-09T11:15:55Z</time>
      </trkpt>
      <trkpt lat="46.27024" lon="10.41259">
        <ele>2384.01</ele>
        <time>2018-08-09T11:16:15Z</time>
      </trkpt>
      <trkpt lat="46.27041" lon="10.41288">
        <ele>2394.724</ele>
        <time>2018-08-09T11:16:35Z</time>
      </trkpt>
      <trkpt lat="46.27046" lon="10.41311">
        <ele>2404.089</ele>
        <time>2018-08-09T11:16:55Z</time>
      </trkpt>
      <trkpt lat="46.27007" lon="10.41297">
        <ele>2402.83</ele>
        <time>2018-08-09T11:17:15Z</time>
      </trkpt>
      <trkpt lat="46.26986" lon="10.41326">
        <ele>2415.547</ele>
        <time>2018-08-09T11:17:35Z</time>
      </trkpt>
      <trkpt lat="46.26963" lon="10.41338">
        <ele>2418.14</ele>
        <time>2018-08-09T11:17:55Z</time>
      </trkpt>
      <trkpt lat="46.26931" lon="10.41355">
        <ele>2416.638</ele>
        <time>2018-08-09T11:18:15Z</time>
      </trkpt>
      <trkpt lat="46.26912" lon="10.41366">
        <ele>2416.47</ele>
        <time>2018-08-09T11:18:35Z</time>
      </trkpt>
      <trkpt lat="46.26911" lon="10.41367">
        <ele>2416.517</ele>
        <time>2018-08-09T11:18:55Z</time>
      </trkpt>
      <trkpt lat="46.26905" lon="10.4137">
        <ele>2417.108</ele>
        <time>2018-08-09T11:19:15Z</time>
      </trkpt>
      <trkpt lat="46.26883" lon="10.41369">
        <ele>2415.155</ele>
        <time>2018-08-09T11:19:35Z</time>
      </trkpt>
      <trkpt lat="46.2686" lon="10.41384">
        <ele>2422.76</ele>
        <time>2018-08-09T11:19:55Z</time>
      </trkpt>
      <trkpt lat="46.26845" lon="10.41394">
        <ele>2424.436</ele>
        <time>2018-08-09T11:20:15Z</time>
      </trkpt>
      <trkpt lat="46.26888" lon="10.41392">
        <ele>2422.81</ele>
        <time>2018-08-09T11:20:35Z</time>
      </trkpt>
      <trkpt lat="46.26926" lon="10.41416">
        <ele>2435.135</ele>
        <time>2018-08-09T11:20:55Z</time>
      </trkpt>
      <trkpt lat="46.27018" lon="10.41442">
        <ele>2455.156</ele>
        <time>2018-08-09T11:21:15Z</time>
      </trkpt>
      <trkpt lat="46.27027" lon="10.41447">
        <ele>2456.353</ele>
        <time>2018-08-09T11:21:35Z</time>
      </trkpt>
      <trkpt lat="46.27034" lon="10.41449">
        <ele>2457.556</ele>
        <time>2018-08-09T11:21:55Z</time>
      </trkpt>
      <trkpt lat="46.27084" lon="10.41476">
        <ele>2463.983</ele>
        <time>2018-08-09T11:22:15Z</time>
      </trkpt>
      <trkpt lat="46.27118" lon="10.41503">
        <ele>2461.425</ele>
        <time>2018-08-09T11:22:35Z</time>
      </trkpt>
      <trkpt lat="46.27143" lon="10.41575">
        <ele>2474.417</ele>
        <time>2018-08-09T11:22:55Z</time>
      </trkpt>
      <trkpt lat="46.27175" lon="10.41608">
        <ele>2485.808</ele>
        <time>2018-08-09T11:23:15Z</time>
      </trkpt>
      <trkpt lat="46.2721" lon="10.41631">
        <ele>2495.17</ele>
        <time>2018-08-09T11:23:35Z</time>
      </trkpt>
      <trkpt lat="46.27243" lon="10.41636">
        <ele>2496.885</ele>
        <time>2018-08-09T11:23:55Z</time>
      </trkpt>
      <trkpt lat="46.2728" lon="10.41656">
        <ele>2501.191</ele>
        <time>2018-08-09T11:24:15Z</time>
      </trkpt>
      <trkpt lat="46.27313" lon="10.41685">
        <ele>2491.225</ele>
        <time>2018-08-09T11:24:35Z</time>
      </trkpt>
      <trkpt lat="46.27322" lon="10.41716">
        <ele>2495.17</ele>
        <time>2018-08-09T11:24:55Z</time>
      </trkpt>
      <trkpt lat="46.27339" lon="10.41752">
        <ele>2496.381</ele>
        <time>2018-08-09T11:25:15Z</time>
      </trkpt>
      <trkpt lat="46.27338" lon="10.41776">
        <ele>2500.388</ele>
        <time>2018-08-09T11:25:35Z</time>
      </trkpt>
      <trkpt lat="46.27341" lon="10.41778">
        <ele>2499.511</ele>
        <time>2018-08-09T11:25:55Z</time>
      </trkpt>
      <trkpt lat="46.27368" lon="10.41802">
        <ele>2496.344</ele>
        <time>2018-08-09T11:26:15Z</time>
      </trkpt>
      <trkpt lat="46.27372" lon="10.41804">
        <ele>2495.305</ele>
        <time>2018-08-09T11:26:35Z</time>
      </trkpt>
      <trkpt lat="46.27394" lon="10.41814">
        <ele>2491.115</ele>
        <time>2018-08-09T11:26:55Z</time>
      </trkpt>
      <trkpt lat="46.27401" lon="10.41817">
        <ele>2489.908</ele>
        <time>2018-08-09T11:27:15Z</time>
      </trkpt>
      <trkpt lat="46.27412" lon="10.41822">
        <ele>2488.816</ele>
        <time>2018-08-09T11:27:35Z</time>
      </trkpt>
      <trkpt lat="46.27413" lon="10.41822">
        <ele>2488.791</ele>
        <time>2018-08-09T11:27:55Z</time>
      </trkpt>
      <trkpt lat="46.27424" lon="10.4183">
        <ele>2490.197</ele>
        <time>2018-08-09T11:28:15Z</time>
      </trkpt>
      <trkpt lat="46.27446" lon="10.41839">
        <ele>2490.381</ele>
        <time>2018-08-09T11:28:35Z</time>
      </trkpt>
      <trkpt lat="46.27457" lon="10.41844">
        <ele>2491.746</ele>
        <time>2018-08-09T11:28:55Z</time>
      </trkpt>
      <trkpt lat="46.27466" lon="10.41844">
        <ele>2491.327</ele>
        <time>2018-08-09T11:29:15Z</time>
      </trkpt>
      <trkpt lat="46.27489" lon="10.41843">
        <ele>2492.494</ele>
        <time>2018-08-09T11:29:35Z</time>
      </trkpt>
      <trkpt lat="46.27491" lon="10.41845">
        <ele>2493.217</ele>
        <time>2018-08-09T11:29:55Z</time>
      </trkpt>
      <trkpt lat="46.27519" lon="10.41861">
        <ele>2500.049</ele>
        <time>2018-08-09T11:30:15Z</time>
      </trkpt>
      <trkpt lat="46.27541" lon="10.41874">
        <ele>2499.602</ele>
        <time>2018-08-09T11:30:35Z</time>
      </trkpt>
      <trkpt lat="46.27582" lon="10.41882">
        <ele>2504.522</ele>
        <time>2018-08-09T11:30:55Z</time>
      </trkpt>
      <trkpt lat="46.27589" lon="10.41893">
        <ele>2511.108</ele>
        <time>2018-08-09T11:31:15Z</time>
      </trkpt>
      <trkpt lat="46.27601" lon="10.41905">
        <ele>2519.796</ele>
        <time>2018-08-09T11:31:35Z</time>
      </trkpt>
      <trkpt lat="46.27621" lon="10.41923">
        <ele>2526.341</ele>
        <time>2018-08-09T11:31:55Z</time>
      </trkpt>
      <trkpt lat="46.27634" lon="10.41936">
        <ele>2526.197</ele>
        <time>2018-08-09T11:32:15Z</time>
      </trkpt>
      <trkpt lat="46.27635" lon="10.41936">
        <ele>2526.111</ele>
        <time>2018-08-09T11:32:35Z</time>
      </trkpt>
      <trkpt lat="46.27638" lon="10.41938">
        <ele>2526.526</ele>
        <time>2018-08-09T11:32:55Z</time>
      </trkpt>
      <trkpt lat="46.27648" lon="10.41945">
        <ele>2533.527</ele>
        <time>2018-08-09T11:33:15Z</time>
      </trkpt>
      <trkpt lat="46.27663" lon="10.4196">
        <ele>2534.434</ele>
        <time>2018-08-09T11:33:35Z</time>
      </trkpt>
      <trkpt lat="46.27673" lon="10.41987">
        <ele>2527.187</ele>
        <time>2018-08-09T11:33:55Z</time>
      </trkpt>
      <trkpt lat="46.27676" lon="10.42027">
        <ele>2520.384</ele>
        <time>2018-08-09T11:34:15Z</time>
      </trkpt>
      <trkpt lat="46.27676" lon="10.42028">
        <ele>2520.207</ele>
        <time>2018-08-09T11:34:35Z</time>
      </trkpt>
      <trkpt lat="46.27668" lon="10.42045">
        <ele>2518.117</ele>
        <time>2018-08-09T11:34:55Z</time>
      </trkpt>
      <trkpt lat="46.27653" lon="10.42064">
        <ele>2513.508</ele>
        <time>2018-08-09T11:35:15Z</time>
      </trkpt>
      <trkpt lat="46.27649" lon="10.42076">
        <ele>2512.99</ele>
        <time>2018-08-09T11:35:35Z</time>
      </trkpt>
      <trkpt lat="46.27648" lon="10.42079">
        <ele>2512.895</ele>
        <time>2018-08-09T11:35:55Z</time>
      </trkpt>
      <trkpt lat="46.27647" lon="10.42095">
        <ele>2514.321</ele>
        <time>2018-08-09T11:36:15Z</time>
      </trkpt>
      <trkpt lat="46.27647" lon="10.42113">
        <ele>2516.265</ele>
        <time>2018-08-09T11:36:35Z</time>
      </trkpt>
      <trkpt lat="46.27643" lon="10.42142">
        <ele>2518.57</ele>
        <time>2018-08-09T11:36:55Z</time>
      </trkpt>
      <trkpt lat="46.27645" lon="10.42165">
        <ele>2522.421</ele>
        <time>2018-08-09T11:37:15Z</time>
      </trkpt>
      <trkpt lat="46.27647" lon="10.42192">
        <ele>2527.248</ele>
        <time>2018-08-09T11:37:35Z</time>
      </trkpt>
      <trkpt lat="46.27647" lon="10.42206">
        <ele>2530.291</ele>
        <time>2018-08-09T11:37:55Z</time>
      </trkpt>
      <trkpt lat="46.2765" lon="10.42222">
        <ele>2535.062</ele>
        <time>2018-08-09T11:38:15Z</time>
      </trkpt>
      <trkpt lat="46.2765" lon="10.42238">
        <ele>2536.283</ele>
        <time>2018-08-09T11:38:35Z</time>
      </trkpt>
      <trkpt lat="46.27648" lon="10.42247">
        <ele>2535.711</ele>
        <time>2018-08-09T11:38:55Z</time>
      </trkpt>
      <trkpt lat="46.27645" lon="10.42257">
        <ele>2535.308</ele>
        <time>2018-08-09T11:39:15Z</time>
      </trkpt>
      <trkpt lat="46.27637" lon="10.42268">
        <ele>2531.678</ele>
        <time>2018-08-09T11:39:35Z</time>
      </trkpt>
      <trkpt lat="46.27629" lon="10.42276">
        <ele>2527.463</ele>
        <time>2018-08-09T11:39:55Z</time>
      </trkpt>
      <trkpt lat="46.27625" lon="10.42292">
        <ele>2526.619</ele>
        <time>2018-08-09T11:40:15Z</time>
      </trkpt>
      <trkpt lat="46.27615" lon="10.42317">
        <ele>2515.223</ele>
        <time>2018-08-09T11:40:35Z</time>
      </trkpt>
      <trkpt lat="46.27601" lon="10.42343">
        <ele>2495.118</ele>
        <time>2018-08-09T11:40:55Z</time>
      </trkpt>
      <trkpt lat="46.276" lon="10.42347">
        <ele>2495.289</ele>
        <time>2018-08-09T11:41:15Z</time>
      </trkpt>
      <trkpt lat="46.27593" lon="10.42367">
        <ele>2494.736</ele>
        <time>2018-08-09T11:41:35Z</time>
      </trkpt>
      <trkpt lat="46.27592" lon="10.42371">
        <ele>2495.169</ele>
        <time>2018-08-09T11:41:55Z</time>
      </trkpt>
      <trkpt lat="46.27592" lon="10.42386">
        <ele>2499.269</ele>
        <time>2018-08-09T11:42:15Z</time>
      </trkpt>
      <trkpt lat="46.27591" lon="10.42408">
        <ele>2501.004</ele>
        <time>2018-08-09T11:42:35Z</time>
      </trkpt>
      <trkpt lat="46.2759" lon="10.42427">
        <ele>2503.424</ele>
        <time>2018-08-09T11:42:55Z</time>
      </trkpt>
      <trkpt lat="46.27585" lon="10.42444">
        <ele>2502.008</ele>
        <time>2018-08-09T11:43:15Z</time>
      </trkpt>
      <trkpt lat="46.27585" lon="10.42479">
        <ele>2515.058</ele>
        <time>2018-08-09T11:43:35Z</time>
      </trkpt>
      <trkpt lat="46.27585" lon="10.42484">
        <ele>2516.933</ele>
        <time>2018-08-09T11:43:55Z</time>
      </trkpt>
      <trkpt lat="46.27575" lon="10.42499">
        <ele>2516.219</ele>
        <time>2018-08-09T11:44:15Z</time>
      </trkpt>
      <trkpt lat="46.27573" lon="10.42503">
        <ele>2516.113</ele>
        <time>2018-08-09T11:44:35Z</time>
      </trkpt>
      <trkpt lat="46.27573" lon="10.42514">
        <ele>2518.998</ele>
        <time>2018-08-09T11:44:55Z</time>
      </trkpt>
      <trkpt lat="46.27572" lon="10.42524">
        <ele>2521.249</ele>
        <time>2018-08-09T11:45:15Z</time>
      </trkpt>
      <trkpt lat="46.27571" lon="10.42528">
        <ele>2521.786</ele>
        <time>2018-08-09T11:45:35Z</time>
      </trkpt>
      <trkpt lat="46.27571" lon="10.42537">
        <ele>2523.629</ele>
        <time>2018-08-09T11:45:55Z</time>
      </trkpt>
      <trkpt lat="46.27567" lon="10.42542">
        <ele>2523.598</ele>
        <time>2018-08-09T11:46:15Z</time>
      </trkpt>
      <trkpt lat="46.27565" lon="10.42547">
        <ele>2524.415</ele>
        <time>2018-08-09T11:46:35Z</time>
      </trkpt>
      <trkpt lat="46.27556" lon="10.42567">
        <ele>2526.226</ele>
        <time>2018-08-09T11:46:55Z</time>
      </trkpt>
      <trkpt lat="46.27551" lon="10.42578">
        <ele>2525.908</ele>
        <time>2018-08-09T11:47:15Z</time>
      </trkpt>
      <trkpt lat="46.27549" lon="10.4259">
        <ele>2527.351</ele>
        <time>2018-08-09T11:47:35Z</time>
      </trkpt>
      <trkpt lat="46.27549" lon="10.42603">
        <ele>2528.976</ele>
        <time>2018-08-09T11:47:55Z</time>
      </trkpt>
      <trkpt lat="46.27556" lon="10.42629">
        <ele>2533.052</ele>
        <time>2018-08-09T11:48:15Z</time>
      </trkpt>
      <trkpt lat="46.27572" lon="10.42653">
        <ele>2537.836</ele>
        <time>2018-08-09T11:48:35Z</time>
      </trkpt>
      <trkpt lat="46.27576" lon="10.4266">
        <ele>2539.211</ele>
        <time>2018-08-09T11:48:55Z</time>
      </trkpt>
      <trkpt lat="46.27587" lon="10.4268">
        <ele>2544.822</ele>
        <time>2018-08-09T11:49:15Z</time>
      </trkpt>
      <trkpt lat="46.27592" lon="10.42699">
        <ele>2549.039</ele>
        <time>2018-08-09T11:49:35Z</time>
      </trkpt>
      <trkpt lat="46.27595" lon="10.42724">
        <ele>2552.242</ele>
        <time>2018-08-09T11:49:55Z</time>
      </trkpt>
      <trkpt lat="46.27596" lon="10.42741">
        <ele>2555.023</ele>
        <time>2018-08-09T11:50:15Z</time>
      </trkpt>
      <trkpt lat="46.27594" lon="10.42763">
        <ele>2558.283</ele>
        <time>2018-08-09T11:50:35Z</time>
      </trkpt>
      <trkpt lat="46.27588" lon="10.42782">
        <ele>2561.111</ele>
        <time>2018-08-09T11:50:55Z</time>
      </trkpt>
      <trkpt lat="46.2758" lon="10.42791">
        <ele>2561.208</ele>
        <time>2018-08-09T11:51:15Z</time>
      </trkpt>
      <trkpt lat="46.27559" lon="10.42812">
        <ele>2563.164</ele>
        <time>2018-08-09T11:51:35Z</time>
      </trkpt>
      <trkpt lat="46.27548" lon="10.42814">
        <ele>2561.079</ele>
        <time>2018-08-09T11:51:55Z</time>
      </trkpt>
      <trkpt lat="46.27541" lon="10.42813">
        <ele>2558.935</ele>
        <time>2018-08-09T11:52:15Z</time>
      </trkpt>
      <trkpt lat="46.27535" lon="10.42812">
        <ele>2557.329</ele>
        <time>2018-08-09T11:52:35Z</time>
      </trkpt>
      <trkpt lat="46.27534" lon="10.42812">
        <ele>2556.874</ele>
        <time>2018-08-09T11:52:55Z</time>
      </trkpt>
      <trkpt lat="46.27525" lon="10.4281">
        <ele>2554.585</ele>
        <time>2018-08-09T11:53:15Z</time>
      </trkpt>
      <trkpt lat="46.27522" lon="10.42807">
        <ele>2553.572</ele>
        <time>2018-08-09T11:53:35Z</time>
      </trkpt>
      <trkpt lat="46.27517" lon="10.42803">
        <ele>2552.355</ele>
        <time>2018-08-09T11:53:55Z</time>
      </trkpt>
      <trkpt lat="46.27511" lon="10.42805">
        <ele>2552.094</ele>
        <time>2018-08-09T11:54:15Z</time>
      </trkpt>
      <trkpt lat="46.27509" lon="10.4281">
        <ele>2552.257</ele>
        <time>2018-08-09T11:54:35Z</time>
      </trkpt>
      <trkpt lat="46.27507" lon="10.42815">
        <ele>2552.222</ele>
        <time>2018-08-09T11:54:55Z</time>
      </trkpt>
      <trkpt lat="46.27507" lon="10.42816">
        <ele>2552.208</ele>
        <time>2018-08-09T11:55:15Z</time>
      </trkpt>
      <trkpt lat="46.27499" lon="10.42815">
        <ele>2550.711</ele>
        <time>2018-08-09T11:55:35Z</time>
      </trkpt>
      <trkpt lat="46.27505" lon="10.42821">
        <ele>2552.296</ele>
        <time>2018-08-09T11:55:55Z</time>
      </trkpt>
      <trkpt lat="46.27505" lon="10.42823">
        <ele>2552.252</ele>
        <time>2018-08-09T11:56:15Z</time>
      </trkpt>
      <trkpt lat="46.2751" lon="10.42829">
        <ele>2553.776</ele>
        <time>2018-08-09T11:56:35Z</time>
      </trkpt>
      <trkpt lat="46.27514" lon="10.4283">
        <ele>2555.221</ele>
        <time>2018-08-09T11:56:55Z</time>
      </trkpt>
      <trkpt lat="46.27517" lon="10.42831">
        <ele>2556.192</ele>
        <time>2018-08-09T11:57:15Z</time>
      </trkpt>
      <trkpt lat="46.27524" lon="10.42836">
        <ele>2558.829</ele>
        <time>2018-08-09T11:57:35Z</time>
      </trkpt>
      <trkpt lat="46.27529" lon="10.42845">
        <ele>2561.312</ele>
        <time>2018-08-09T11:57:55Z</time>
      </trkpt>
      <trkpt lat="46.27533" lon="10.42856">
        <ele>2563.836</ele>
        <time>2018-08-09T11:58:15Z</time>
      </trkpt>
      <trkpt lat="46.27538" lon="10.42861">
        <ele>2567.317</ele>
        <time>2018-08-09T11:58:35Z</time>
      </trkpt>
      <trkpt lat="46.27537" lon="10.42866">
        <ele>2565.818</ele>
        <time>2018-08-09T11:58:55Z</time>
      </trkpt>
      <trkpt lat="46.27537" lon="10.42867">
        <ele>2565.808</ele>
        <time>2018-08-09T11:59:15Z</time>
      </trkpt>
      <trkpt lat="46.27537" lon="10.42869">
        <ele>2565.485</ele>
        <time>2018-08-09T11:59:35Z</time>
      </trkpt>
      <trkpt lat="46.27536" lon="10.42876">
        <ele>2564.25</ele>
        <time>2018-08-09T11:59:55Z</time>
      </trkpt>
      <trkpt lat="46.27538" lon="10.42882">
        <ele>2564.146</ele>
        <time>2018-08-09T12:00:15Z</time>
      </trkpt>
      <trkpt lat="46.27541" lon="10.42887">
        <ele>2565.91</ele>
        <time>2018-08-09T12:00:35Z</time>
      </trkpt>
      <trkpt lat="46.27543" lon="10.42889">
        <ele>2566.875</ele>
        <time>2018-08-09T12:00:55Z</time>
      </trkpt>
      <trkpt lat="46.27544" lon="10.4289">
        <ele>2567.376</ele>
        <time>2018-08-09T12:01:15Z</time>
      </trkpt>
      <trkpt lat="46.27547" lon="10.42896">
        <ele>2568.143</ele>
        <time>2018-08-09T12:01:35Z</time>
      </trkpt>
      <trkpt lat="46.27548" lon="10.42899">
        <ele>2568.126</ele>
        <time>2018-08-09T12:01:55Z</time>
      </trkpt>
      <trkpt lat="46.27545" lon="10.42903">
        <ele>2565.244</ele>
        <time>2018-08-09T12:02:15Z</time>
      </trkpt>
      <trkpt lat="46.27546" lon="10.4291">
        <ele>2564.305</ele>
        <time>2018-08-09T12:02:35Z</time>
      </trkpt>
      <trkpt lat="46.27532" lon="10.42893">
        <ele>2558.815</ele>
        <time>2018-08-09T12:02:55Z</time>
      </trkpt>
      <trkpt lat="46.27528" lon="10.42888">
        <ele>2557.208</ele>
        <time>2018-08-09T12:03:15Z</time>
      </trkpt>
      <trkpt lat="46.27528" lon="10.42904">
        <ele>2554.586</ele>
        <time>2018-08-09T12:03:35Z</time>
      </trkpt>
      <trkpt lat="46.27528" lon="10.42911">
        <ele>2553.321</ele>
        <time>2018-08-09T12:03:55Z</time>
      </trkpt>
      <trkpt lat="46.27528" lon="10.42912">
        <ele>2553.167</ele>
        <time>2018-08-09T12:04:15Z</time>
      </trkpt>
      <trkpt lat="46.27527" lon="10.42914">
        <ele>2552.251</ele>
        <time>2018-08-09T12:04:35Z</time>
      </trkpt>
      <trkpt lat="46.27527" lon="10.42915">
        <ele>2551.766</ele>
        <time>2018-08-09T12:04:55Z</time>
      </trkpt>
      <trkpt lat="46.27522" lon="10.42912">
        <ele>2549.767</ele>
        <time>2018-08-09T12:05:15Z</time>
      </trkpt>
      <trkpt lat="46.2752" lon="10.4291">
        <ele>2548.974</ele>
        <time>2018-08-09T12:05:35Z</time>
      </trkpt>
      <trkpt lat="46.27517" lon="10.42908">
        <ele>2548.017</ele>
        <time>2018-08-09T12:05:55Z</time>
      </trkpt>
      <trkpt lat="46.27514" lon="10.42909">
        <ele>2545.896</ele>
        <time>2018-08-09T12:06:15Z</time>
      </trkpt>
      <trkpt lat="46.27514" lon="10.42912">
        <ele>2545.331</ele>
        <time>2018-08-09T12:06:35Z</time>
      </trkpt>
      <trkpt lat="46.27512" lon="10.42911">
        <ele>2544.624</ele>
        <time>2018-08-09T12:06:55Z</time>
      </trkpt>
      <trkpt lat="46.27514" lon="10.42918">
        <ele>2544.108</ele>
        <time>2018-08-09T12:07:15Z</time>
      </trkpt>
      <trkpt lat="46.27514" lon="10.42919">
        <ele>2544.091</ele>
        <time>2018-08-09T12:07:35Z</time>
      </trkpt>
      <trkpt lat="46.27514" lon="10.42921">
        <ele>2544.066</ele>
        <time>2018-08-09T12:07:55Z</time>
      </trkpt>
      <trkpt lat="46.2752" lon="10.42946">
        <ele>2543.082</ele>
        <time>2018-08-09T12:08:15Z</time>
      </trkpt>
      <trkpt lat="46.27519" lon="10.42954">
        <ele>2541.326</ele>
        <time>2018-08-09T12:08:35Z</time>
      </trkpt>
      <trkpt lat="46.27518" lon="10.42965">
        <ele>2538.781</ele>
        <time>2018-08-09T12:08:55Z</time>
      </trkpt>
      <trkpt lat="46.27516" lon="10.42974">
        <ele>2536.062</ele>
        <time>2018-08-09T12:09:15Z</time>
      </trkpt>
      <trkpt lat="46.27513" lon="10.42986">
        <ele>2532.749</ele>
        <time>2018-08-09T12:09:35Z</time>
      </trkpt>
      <trkpt lat="46.27514" lon="10.42995">
        <ele>2532.292</ele>
        <time>2018-08-09T12:09:55Z</time>
      </trkpt>
      <trkpt lat="46.27519" lon="10.43002">
        <ele>2533.483</ele>
        <time>2018-08-09T12:10:15Z</time>
      </trkpt>
      <trkpt lat="46.27523" lon="10.43011">
        <ele>2534.125</ele>
        <time>2018-08-09T12:10:35Z</time>
      </trkpt>
      <trkpt lat="46.27527" lon="10.4302">
        <ele>2533.917</ele>
        <time>2018-08-09T12:10:55Z</time>
      </trkpt>
      <trkpt lat="46.27531" lon="10.43033">
        <ele>2534.208</ele>
        <time>2018-08-09T12:11:15Z</time>
      </trkpt>
      <trkpt lat="46.27534" lon="10.43045">
        <ele>2534.75</ele>
        <time>2018-08-09T12:11:35Z</time>
      </trkpt>
      <trkpt lat="46.27533" lon="10.43045">
        <ele>2534.795</ele>
        <time>2018-08-09T12:11:55Z</time>
      </trkpt>
      <trkpt lat="46.27526" lon="10.43045">
        <ele>2531.971</ele>
        <time>2018-08-09T12:12:15Z</time>
      </trkpt>
      <trkpt lat="46.27522" lon="10.43043">
        <ele>2530.475</ele>
        <time>2018-08-09T12:12:35Z</time>
      </trkpt>
      <trkpt lat="46.27516" lon="10.43038">
        <ele>2528.44</ele>
        <time>2018-08-09T12:12:55Z</time>
      </trkpt>
      <trkpt lat="46.2751" lon="10.43035">
        <ele>2526.551</ele>
        <time>2018-08-09T12:13:15Z</time>
      </trkpt>
      <trkpt lat="46.27501" lon="10.43031">
        <ele>2523.468</ele>
        <time>2018-08-09T12:13:35Z</time>
      </trkpt>
      <trkpt lat="46.27494" lon="10.43026">
        <ele>2521.671</ele>
        <time>2018-08-09T12:13:55Z</time>
      </trkpt>
      <trkpt lat="46.27481" lon="10.43015">
        <ele>2518.682</ele>
        <time>2018-08-09T12:14:15Z</time>
      </trkpt>
      <trkpt lat="46.2747" lon="10.43001">
        <ele>2515.343</ele>
        <time>2018-08-09T12:14:35Z</time>
      </trkpt>
      <trkpt lat="46.27465" lon="10.42989">
        <ele>2513.717</ele>
        <time>2018-08-09T12:14:55Z</time>
      </trkpt>
      <trkpt lat="46.27455" lon="10.42985">
        <ele>2509.908</ele>
        <time>2018-08-09T12:15:15Z</time>
      </trkpt>
      <trkpt lat="46.27454" lon="10.42984">
        <ele>2509.41</ele>
        <time>2018-08-09T12:15:35Z</time>
      </trkpt>
      <trkpt lat="46.2745" lon="10.42979">
        <ele>2507.515</ele>
        <time>2018-08-09T12:15:55Z</time>
      </trkpt>
      <trkpt lat="46.27441" lon="10.42967">
        <ele>2503.141</ele>
        <time>2018-08-09T12:16:15Z</time>
      </trkpt>
      <trkpt lat="46.27438" lon="10.42962">
        <ele>2501.195</ele>
        <time>2018-08-09T12:16:35Z</time>
      </trkpt>
      <trkpt lat="46.27432" lon="10.42943">
        <ele>2497.15</ele>
        <time>2018-08-09T12:16:55Z</time>
      </trkpt>
      <trkpt lat="46.27432" lon="10.42942">
        <ele>2497.081</ele>
        <time>2018-08-09T12:17:15Z</time>
      </trkpt>
      <trkpt lat="46.27429" lon="10.42926">
        <ele>2495.268</ele>
        <time>2018-08-09T12:17:35Z</time>
      </trkpt>
      <trkpt lat="46.27415" lon="10.42909">
        <ele>2488.841</ele>
        <time>2018-08-09T12:17:55Z</time>
      </trkpt>
      <trkpt lat="46.27408" lon="10.42913">
        <ele>2484.349</ele>
        <time>2018-08-09T12:18:15Z</time>
      </trkpt>
      <trkpt lat="46.27402" lon="10.42913">
        <ele>2481.302</ele>
        <time>2018-08-09T12:18:35Z</time>
      </trkpt>
      <trkpt lat="46.27392" lon="10.42912">
        <ele>2476.022</ele>
        <time>2018-08-09T12:18:55Z</time>
      </trkpt>
      <trkpt lat="46.2739" lon="10.42912">
        <ele>2475.208</ele>
        <time>2018-08-09T12:19:15Z</time>
      </trkpt>
      <trkpt lat="46.27387" lon="10.4291">
        <ele>2473.886</ele>
        <time>2018-08-09T12:19:35Z</time>
      </trkpt>
      <trkpt lat="46.27378" lon="10.42906">
        <ele>2470.721</ele>
        <time>2018-08-09T12:19:55Z</time>
      </trkpt>
      <trkpt lat="46.27365" lon="10.42903">
        <ele>2466.157</ele>
        <time>2018-08-09T12:20:15Z</time>
      </trkpt>
      <trkpt lat="46.27364" lon="10.42904">
        <ele>2465.381</ele>
        <time>2018-08-09T12:20:35Z</time>
      </trkpt>
      <trkpt lat="46.27354" lon="10.42906">
        <ele>2461.586</ele>
        <time>2018-08-09T12:20:55Z</time>
      </trkpt>
      <trkpt lat="46.27339" lon="10.42915">
        <ele>2454.397</ele>
        <time>2018-08-09T12:21:15Z</time>
      </trkpt>
      <trkpt lat="46.27329" lon="10.4292">
        <ele>2449.564</ele>
        <time>2018-08-09T12:21:35Z</time>
      </trkpt>
      <trkpt lat="46.27318" lon="10.42932">
        <ele>2442.297</ele>
        <time>2018-08-09T12:21:55Z</time>
      </trkpt>
      <trkpt lat="46.27315" lon="10.42937">
        <ele>2439.823</ele>
        <time>2018-08-09T12:22:15Z</time>
      </trkpt>
      <trkpt lat="46.27312" lon="10.42944">
        <ele>2436.483</ele>
        <time>2018-08-09T12:22:35Z</time>
      </trkpt>
      <trkpt lat="46.2731" lon="10.42946">
        <ele>2435.311</ele>
        <time>2018-08-09T12:22:55Z</time>
      </trkpt>
      <trkpt lat="46.27304" lon="10.42946">
        <ele>2431.108</ele>
        <time>2018-08-09T12:23:15Z</time>
      </trkpt>
      <trkpt lat="46.27298" lon="10.42942">
        <ele>2428.744</ele>
        <time>2018-08-09T12:23:35Z</time>
      </trkpt>
      <trkpt lat="46.27297" lon="10.42939">
        <ele>2428.689</ele>
        <time>2018-08-09T12:23:55Z</time>
      </trkpt>
      <trkpt lat="46.27296" lon="10.42939">
        <ele>2428.365</ele>
        <time>2018-08-09T12:24:15Z</time>
      </trkpt>
      <trkpt lat="46.27288" lon="10.42913">
        <ele>2427.479</ele>
        <time>2018-08-09T12:24:35Z</time>
      </trkpt>
      <trkpt lat="46.27275" lon="10.42896">
        <ele>2425.294</ele>
        <time>2018-08-09T12:24:55Z</time>
      </trkpt>
      <trkpt lat="46.27265" lon="10.42884">
        <ele>2425.925</ele>
        <time>2018-08-09T12:25:15Z</time>
      </trkpt>
      <trkpt lat="46.27259" lon="10.42878">
        <ele>2426.542</ele>
        <time>2018-08-09T12:25:35Z</time>
      </trkpt>
      <trkpt lat="46.27254" lon="10.42877">
        <ele>2425.275</ele>
        <time>2018-08-09T12:25:55Z</time>
      </trkpt>
      <trkpt lat="46.27247" lon="10.42878">
        <ele>2421.936</ele>
        <time>2018-08-09T12:26:15Z</time>
      </trkpt>
      <trkpt lat="46.2724" lon="10.42887">
        <ele>2415.017</ele>
        <time>2018-08-09T12:26:35Z</time>
      </trkpt>
      <trkpt lat="46.27227" lon="10.42903">
        <ele>2403.718</ele>
        <time>2018-08-09T12:26:55Z</time>
      </trkpt>
      <trkpt lat="46.27213" lon="10.42908">
        <ele>2396.808</ele>
        <time>2018-08-09T12:27:15Z</time>
      </trkpt>
      <trkpt lat="46.27201" lon="10.42908">
        <ele>2393.045</ele>
        <time>2018-08-09T12:27:35Z</time>
      </trkpt>
      <trkpt lat="46.27192" lon="10.42906">
        <ele>2391.09</ele>
        <time>2018-08-09T12:27:55Z</time>
      </trkpt>
      <trkpt lat="46.2718" lon="10.42911">
        <ele>2387.596</ele>
        <time>2018-08-09T12:28:15Z</time>
      </trkpt>
      <trkpt lat="46.27154" lon="10.42916">
        <ele>2380.96</ele>
        <time>2018-08-09T12:28:35Z</time>
      </trkpt>
      <trkpt lat="46.27141" lon="10.42924">
        <ele>2376.595</ele>
        <time>2018-08-09T12:28:55Z</time>
      </trkpt>
      <trkpt lat="46.27112" lon="10.42947">
        <ele>2368.536</ele>
        <time>2018-08-09T12:29:15Z</time>
      </trkpt>
      <trkpt lat="46.27092" lon="10.42959">
        <ele>2363.523</ele>
        <time>2018-08-09T12:29:35Z</time>
      </trkpt>
      <trkpt lat="46.27083" lon="10.42969">
        <ele>2359.816</ele>
        <time>2018-08-09T12:29:55Z</time>
      </trkpt>
      <trkpt lat="46.27072" lon="10.42975">
        <ele>2357.078</ele>
        <time>2018-08-09T12:30:15Z</time>
      </trkpt>
      <trkpt lat="46.2707" lon="10.42975">
        <ele>2356.733</ele>
        <time>2018-08-09T12:30:35Z</time>
      </trkpt>
      <trkpt lat="46.27062" lon="10.42977">
        <ele>2355.426</ele>
        <time>2018-08-09T12:30:55Z</time>
      </trkpt>
      <trkpt lat="46.27057" lon="10.42984">
        <ele>2353.108</ele>
        <time>2018-08-09T12:31:15Z</time>
      </trkpt>
      <trkpt lat="46.27057" lon="10.42984">
        <ele>2353.119</ele>
        <time>2018-08-09T12:31:35Z</time>
      </trkpt>
      <trkpt lat="46.27045" lon="10.42999">
        <ele>2348.114</ele>
        <time>2018-08-09T12:31:55Z</time>
      </trkpt>
      <trkpt lat="46.27028" lon="10.43007">
        <ele>2344.52</ele>
        <time>2018-08-09T12:32:15Z</time>
      </trkpt>
      <trkpt lat="46.27016" lon="10.43016">
        <ele>2340.754</ele>
        <time>2018-08-09T12:32:35Z</time>
      </trkpt>
      <trkpt lat="46.27004" lon="10.43026">
        <ele>2336.269</ele>
        <time>2018-08-09T12:32:55Z</time>
      </trkpt>
      <trkpt lat="46.26998" lon="10.43035">
        <ele>2332.12</ele>
        <time>2018-08-09T12:33:15Z</time>
      </trkpt>
      <trkpt lat="46.26987" lon="10.43042">
        <ele>2326.247</ele>
        <time>2018-08-09T12:33:35Z</time>
      </trkpt>
      <trkpt lat="46.26981" lon="10.43049">
        <ele>2322.07</ele>
        <time>2018-08-09T12:33:55Z</time>
      </trkpt>
      <trkpt lat="46.26976" lon="10.43043">
        <ele>2321.485</ele>
        <time>2018-08-09T12:34:15Z</time>
      </trkpt>
      <trkpt lat="46.26974" lon="10.43043">
        <ele>2320.889</ele>
        <time>2018-08-09T12:34:35Z</time>
      </trkpt>
      <trkpt lat="46.26964" lon="10.43042">
        <ele>2318.117</ele>
        <time>2018-08-09T12:34:55Z</time>
      </trkpt>
      <trkpt lat="46.26951" lon="10.43045">
        <ele>2313.708</ele>
        <time>2018-08-09T12:35:15Z</time>
      </trkpt>
      <trkpt lat="46.26943" lon="10.43054">
        <ele>2308.92</ele>
        <time>2018-08-09T12:35:35Z</time>
      </trkpt>
      <trkpt lat="46.26938" lon="10.4306">
        <ele>2305.695</ele>
        <time>2018-08-09T12:35:55Z</time>
      </trkpt>
      <trkpt lat="46.26928" lon="10.43073">
        <ele>2296.911</ele>
        <time>2018-08-09T12:36:15Z</time>
      </trkpt>
      <trkpt lat="46.26926" lon="10.43074">
        <ele>2295.715</ele>
        <time>2018-08-09T12:36:35Z</time>
      </trkpt>
      <trkpt lat="46.26919" lon="10.43077">
        <ele>2291.58</ele>
        <time>2018-08-09T12:36:55Z</time>
      </trkpt>
      <trkpt lat="46.26917" lon="10.43078">
        <ele>2290.341</ele>
        <time>2018-08-09T12:37:15Z</time>
      </trkpt>
      <trkpt lat="46.26904" lon="10.43091">
        <ele>2280.088</ele>
        <time>2018-08-09T12:37:35Z</time>
      </trkpt>
      <trkpt lat="46.26888" lon="10.43113">
        <ele>2267.831</ele>
        <time>2018-08-09T12:37:55Z</time>
      </trkpt>
      <trkpt lat="46.2687" lon="10.43123">
        <ele>2257.719</ele>
        <time>2018-08-09T12:38:15Z</time>
      </trkpt>
      <trkpt lat="46.2686" lon="10.43128">
        <ele>2252.309</ele>
        <time>2018-08-09T12:38:35Z</time>
      </trkpt>
      <trkpt lat="46.26858" lon="10.43139">
        <ele>2248.419</ele>
        <time>2018-08-09T12:38:55Z</time>
      </trkpt>
      <trkpt lat="46.26851" lon="10.43145">
        <ele>2246.208</ele>
        <time>2018-08-09T12:39:15Z</time>
      </trkpt>
      <trkpt lat="46.26842" lon="10.43146">
        <ele>2244.643</ele>
        <time>2018-08-09T12:39:35Z</time>
      </trkpt>
      <trkpt lat="46.26835" lon="10.43145">
        <ele>2243.998</ele>
        <time>2018-08-09T12:39:55Z</time>
      </trkpt>
      <trkpt lat="46.26833" lon="10.43144">
        <ele>2243.784</ele>
        <time>2018-08-09T12:40:15Z</time>
      </trkpt>
      <trkpt lat="46.26828" lon="10.43147">
        <ele>2242.988</ele>
        <time>2018-08-09T12:40:35Z</time>
      </trkpt>
      <trkpt lat="46.26818" lon="10.43144">
        <ele>2243.173</ele>
        <time>2018-08-09T12:40:55Z</time>
      </trkpt>
      <trkpt lat="46.26812" lon="10.43161">
        <ele>2238.894</ele>
        <time>2018-08-09T12:41:15Z</time>
      </trkpt>
      <trkpt lat="46.26809" lon="10.43168">
        <ele>2236.951</ele>
        <time>2018-08-09T12:41:35Z</time>
      </trkpt>
      <trkpt lat="46.26801" lon="10.43199">
        <ele>2228.374</ele>
        <time>2018-08-09T12:41:55Z</time>
      </trkpt>
      <trkpt lat="46.26801" lon="10.432">
        <ele>2228.089</ele>
        <time>2018-08-09T12:42:15Z</time>
      </trkpt>
      <trkpt lat="46.26795" lon="10.43212">
        <ele>2224.606</ele>
        <time>2018-08-09T12:42:35Z</time>
      </trkpt>
      <trkpt lat="46.26791" lon="10.43227">
        <ele>2220.926</ele>
        <time>2018-08-09T12:42:55Z</time>
      </trkpt>
      <trkpt lat="46.26781" lon="10.43237">
        <ele>2218.508</ele>
        <time>2018-08-09T12:43:15Z</time>
      </trkpt>
      <trkpt lat="46.26773" lon="10.43242">
        <ele>2217.21</ele>
        <time>2018-08-09T12:43:35Z</time>
      </trkpt>
      <trkpt lat="46.26766" lon="10.43257">
        <ele>2214.135</ele>
        <time>2018-08-09T12:43:55Z</time>
      </trkpt>
      <trkpt lat="46.26759" lon="10.43263">
        <ele>2212.921</ele>
        <time>2018-08-09T12:44:15Z</time>
      </trkpt>
      <trkpt lat="46.26754" lon="10.43264">
        <ele>2212.575</ele>
        <time>2018-08-09T12:44:35Z</time>
      </trkpt>
      <trkpt lat="46.26749" lon="10.43272">
        <ele>2210.96</ele>
        <time>2018-08-09T12:44:55Z</time>
      </trkpt>
      <trkpt lat="46.26748" lon="10.43275">
        <ele>2210.311</ele>
        <time>2018-08-09T12:45:15Z</time>
      </trkpt>
      <trkpt lat="46.26748" lon="10.43277">
        <ele>2209.998</ele>
        <time>2018-08-09T12:45:35Z</time>
      </trkpt>
      <trkpt lat="46.26746" lon="10.43284">
        <ele>2208.681</ele>
        <time>2018-08-09T12:45:55Z</time>
      </trkpt>
      <trkpt lat="46.26745" lon="10.43292">
        <ele>2207.286</ele>
        <time>2018-08-09T12:46:15Z</time>
      </trkpt>
      <trkpt lat="46.26745" lon="10.43293">
        <ele>2207.06</ele>
        <time>2018-08-09T12:46:35Z</time>
      </trkpt>
      <trkpt lat="46.26746" lon="10.43296">
        <ele>2206.626</ele>
        <time>2018-08-09T12:46:55Z</time>
      </trkpt>
      <trkpt lat="46.2675" lon="10.43301">
        <ele>2205.808</ele>
        <time>2018-08-09T12:47:15Z</time>
      </trkpt>
      <trkpt lat="46.26753" lon="10.43306">
        <ele>2204.86</ele>
        <time>2018-08-09T12:47:35Z</time>
      </trkpt>
      <trkpt lat="46.26754" lon="10.43307">
        <ele>2204.795</ele>
        <time>2018-08-09T12:47:55Z</time>
      </trkpt>
      <trkpt lat="46.26756" lon="10.43308">
        <ele>2204.521</ele>
        <time>2018-08-09T12:48:15Z</time>
      </trkpt>
      <trkpt lat="46.26758" lon="10.4331">
        <ele>2204.115</ele>
        <time>2018-08-09T12:48:35Z</time>
      </trkpt>
      <trkpt lat="46.2676" lon="10.43311">
        <ele>2204.06</ele>
        <time>2018-08-09T12:48:55Z</time>
      </trkpt>
      <trkpt lat="46.26762" lon="10.43312">
        <ele>2203.761</ele>
        <time>2018-08-09T12:49:15Z</time>
      </trkpt>
      <trkpt lat="46.26764" lon="10.43312">
        <ele>2203.778</ele>
        <time>2018-08-09T12:49:35Z</time>
      </trkpt>
      <trkpt lat="46.26766" lon="10.43312">
        <ele>2203.741</ele>
        <time>2018-08-09T12:49:55Z</time>
      </trkpt>
      <trkpt lat="46.26766" lon="10.43312">
        <ele>2203.745</ele>
        <time>2018-08-09T12:50:15Z</time>
      </trkpt>
      <trkpt lat="46.26768" lon="10.43311">
        <ele>2203.847</ele>
        <time>2018-08-09T12:50:35Z</time>
      </trkpt>
      <trkpt lat="46.2677" lon="10.43311">
        <ele>2203.911</ele>
        <time>2018-08-09T12:50:55Z</time>
      </trkpt>
      <trkpt lat="46.26772" lon="10.4331">
        <ele>2204.008</ele>
        <time>2018-08-09T12:51:15Z</time>
      </trkpt>
      <trkpt lat="46.26774" lon="10.4331">
        <ele>2204.066</ele>
        <time>2018-08-09T12:51:35Z</time>
      </trkpt>
      <trkpt lat="46.26776" lon="10.4331">
        <ele>2204.181</ele>
        <time>2018-08-09T12:51:55Z</time>
      </trkpt>
      <trkpt lat="46.26779" lon="10.43309">
        <ele>2204.147</ele>
        <time>2018-08-09T12:52:15Z</time>
      </trkpt>
      <trkpt lat="46.26781" lon="10.43308">
        <ele>2204.281</ele>
        <time>2018-08-09T12:52:35Z</time>
      </trkpt>
      <trkpt lat="46.26783" lon="10.43308">
        <ele>2203.996</ele>
        <time>2018-08-09T12:52:55Z</time>
      </trkpt>
      <trkpt lat="46.26786" lon="10.43308">
        <ele>2203.717</ele>
        <time>2018-08-09T12:53:15Z</time>
      </trkpt>
      <trkpt lat="46.26788" lon="10.43308">
        <ele>2203.524</ele>
        <time>2018-08-09T12:53:35Z</time>
      </trkpt>
      <trkpt lat="46.2679" lon="10.43308">
        <ele>2203.327</ele>
        <time>2018-08-09T12:53:55Z</time>
      </trkpt>
      <trkpt lat="46.26792" lon="10.43308">
        <ele>2203.181</ele>
        <time>2018-08-09T12:54:15Z</time>
      </trkpt>
      <trkpt lat="46.26794" lon="10.43308">
        <ele>2202.761</ele>
        <time>2018-08-09T12:54:35Z</time>
      </trkpt>
      <trkpt lat="46.26796" lon="10.43309">
        <ele>2202.417</ele>
        <time>2018-08-09T12:54:55Z</time>
      </trkpt>
      <trkpt lat="46.26799" lon="10.4331">
        <ele>2202.108</ele>
        <time>2018-08-09T12:55:15Z</time>
      </trkpt>
      <trkpt lat="46.26801" lon="10.4331">
        <ele>2201.89</ele>
        <time>2018-08-09T12:55:35Z</time>
      </trkpt>
      <trkpt lat="46.26802" lon="10.4331">
        <ele>2201.625</ele>
        <time>2018-08-09T12:55:55Z</time>
      </trkpt>
      <trkpt lat="46.26805" lon="10.43311">
        <ele>2201.371</ele>
        <time>2018-08-09T12:56:15Z</time>
      </trkpt>
      <trkpt lat="46.26807" lon="10.43311">
        <ele>2201.225</ele>
        <time>2018-08-09T12:56:35Z</time>
      </trkpt>
      <trkpt lat="46.26833" lon="10.43303">
        <ele>2200.73</ele>
        <time>2018-08-09T12:56:55Z</time>
      </trkpt>
      <trkpt lat="46.26839" lon="10.43302">
        <ele>2202.981</ele>
        <time>2018-08-09T12:57:15Z</time>
      </trkpt>
      <trkpt lat="46.26847" lon="10.43305">
        <ele>2204.488</ele>
        <time>2018-08-09T12:57:35Z</time>
      </trkpt>
      <trkpt lat="46.2685" lon="10.43326">
        <ele>2201.651</ele>
        <time>2018-08-09T12:57:55Z</time>
      </trkpt>
      <trkpt lat="46.26862" lon="10.43353">
        <ele>2200.773</ele>
        <time>2018-08-09T12:58:15Z</time>
      </trkpt>
      <trkpt lat="46.26864" lon="10.4336">
        <ele>2201.685</ele>
        <time>2018-08-09T12:58:35Z</time>
      </trkpt>
      <trkpt lat="46.26865" lon="10.43361">
        <ele>2201.713</ele>
        <time>2018-08-09T12:58:55Z</time>
      </trkpt>
      <trkpt lat="46.26867" lon="10.43365">
        <ele>2202.308</ele>
        <time>2018-08-09T12:59:15Z</time>
      </trkpt>
      <trkpt lat="46.2687" lon="10.43378">
        <ele>2202.329</ele>
        <time>2018-08-09T12:59:35Z</time>
      </trkpt>
      <trkpt lat="46.26872" lon="10.43389">
        <ele>2202.194</ele>
        <time>2018-08-09T12:59:55Z</time>
      </trkpt>
      <trkpt lat="46.2687" lon="10.43399">
        <ele>2201.03</ele>
        <time>2018-08-09T13:00:15Z</time>
      </trkpt>
      <trkpt lat="46.26869" lon="10.43405">
        <ele>2200.214</ele>
        <time>2018-08-09T13:00:35Z</time>
      </trkpt>
      <trkpt lat="46.26872" lon="10.43431">
        <ele>2199.889</ele>
        <time>2018-08-09T13:00:55Z</time>
      </trkpt>
      <trkpt lat="46.26878" lon="10.43448">
        <ele>2200.96</ele>
        <time>2018-08-09T13:01:15Z</time>
      </trkpt>
      <trkpt lat="46.26879" lon="10.4345">
        <ele>2201.377</ele>
        <time>2018-08-09T13:01:35Z</time>
      </trkpt>
      <trkpt lat="46.2688" lon="10.43454">
        <ele>2201.92</ele>
        <time>2018-08-09T13:01:55Z</time>
      </trkpt>
      <trkpt lat="46.2688" lon="10.43456">
        <ele>2202.324</ele>
        <time>2018-08-09T13:02:15Z</time>
      </trkpt>
      <trkpt lat="46.26881" lon="10.43459">
        <ele>2202.704</ele>
        <time>2018-08-09T13:02:35Z</time>
      </trkpt>
      <trkpt lat="46.26881" lon="10.43462">
        <ele>2202.914</ele>
        <time>2018-08-09T13:02:55Z</time>
      </trkpt>
      <trkpt lat="46.2688" lon="10.43466">
        <ele>2203.108</ele>
        <time>2018-08-09T13:03:15Z</time>
      </trkpt>
      <trkpt lat="46.2688" lon="10.43467">
        <ele>2203.014</ele>
        <time>2018-08-09T13:03:35Z</time>
      </trkpt>
      <trkpt lat="46.26879" lon="10.43468">
        <ele>2202.999</ele>
        <time>2018-08-09T13:03:55Z</time>
      </trkpt>
      <trkpt lat="46.26879" lon="10.43471">
        <ele>2202.875</ele>
        <time>2018-08-09T13:04:15Z</time>
      </trkpt>
      <trkpt lat="46.26878" lon="10.43474">
        <ele>2202.799</ele>
        <time>2018-08-09T13:04:35Z</time>
      </trkpt>
      <trkpt lat="46.26878" lon="10.43476">
        <ele>2202.624</ele>
        <time>2018-08-09T13:04:55Z</time>
      </trkpt>
      <trkpt lat="46.26877" lon="10.4348">
        <ele>2202.755</ele>
        <time>2018-08-09T13:05:15Z</time>
      </trkpt>
      <trkpt lat="46.26878" lon="10.43483">
        <ele>2203.042</ele>
        <time>2018-08-09T13:05:35Z</time>
      </trkpt>
      <trkpt lat="46.26878" lon="10.43486">
        <ele>2203.435</ele>
        <time>2018-08-09T13:05:55Z</time>
      </trkpt>
      <trkpt lat="46.26879" lon="10.43489">
        <ele>2203.984</ele>
        <time>2018-08-09T13:06:15Z</time>
      </trkpt>
      <trkpt lat="46.2688" lon="10.43491">
        <ele>2204.507</ele>
        <time>2018-08-09T13:06:35Z</time>
      </trkpt>
      <trkpt lat="46.26881" lon="10.43494">
        <ele>2205.017</ele>
        <time>2018-08-09T13:06:55Z</time>
      </trkpt>
      <trkpt lat="46.26881" lon="10.43497">
        <ele>2205.308</ele>
        <time>2018-08-09T13:07:15Z</time>
      </trkpt>
      <trkpt lat="46.26882" lon="10.43501">
        <ele>2205.74</ele>
        <time>2018-08-09T13:07:35Z</time>
      </trkpt>
      <trkpt lat="46.26882" lon="10.43504">
        <ele>2206.055</ele>
        <time>2018-08-09T13:07:55Z</time>
      </trkpt>
      <trkpt lat="46.26883" lon="10.43507">
        <ele>2206.631</ele>
        <time>2018-08-09T13:08:15Z</time>
      </trkpt>
      <trkpt lat="46.26883" lon="10.43511">
        <ele>2206.565</ele>
        <time>2018-08-09T13:08:35Z</time>
      </trkpt>
      <trkpt lat="46.26882" lon="10.43513">
        <ele>2206.46</ele>
        <time>2018-08-09T13:08:55Z</time>
      </trkpt>
      <trkpt lat="46.26882" lon="10.43517">
        <ele>2206.521</ele>
        <time>2018-08-09T13:09:15Z</time>
      </trkpt>
      <trkpt lat="46.26882" lon="10.43519">
        <ele>2206.888</ele>
        <time>2018-08-09T13:09:35Z</time>
      </trkpt>
      <trkpt lat="46.26883" lon="10.43522">
        <ele>2207.281</ele>
        <time>2018-08-09T13:09:55Z</time>
      </trkpt>
      <trkpt lat="46.26883" lon="10.43525">
        <ele>2207.577</ele>
        <time>2018-08-09T13:10:15Z</time>
      </trkpt>
      <trkpt lat="46.26884" lon="10.43528">
        <ele>2208.061</ele>
        <time>2018-08-09T13:10:35Z</time>
      </trkpt>
      <trkpt lat="46.26884" lon="10.43531">
        <ele>2208.427</ele>
        <time>2018-08-09T13:10:55Z</time>
      </trkpt>
      <trkpt lat="46.26884" lon="10.43534">
        <ele>2208.908</ele>
        <time>2018-08-09T13:11:15Z</time>
      </trkpt>
      <trkpt lat="46.26885" lon="10.43537">
        <ele>2209.449</ele>
        <time>2018-08-09T13:11:35Z</time>
      </trkpt>
      <trkpt lat="46.26885" lon="10.4354">
        <ele>2210.144</ele>
        <time>2018-08-09T13:11:55Z</time>
      </trkpt>
      <trkpt lat="46.26886" lon="10.43543">
        <ele>2210.73</ele>
        <time>2018-08-09T13:12:15Z</time>
      </trkpt>
      <trkpt lat="46.26886" lon="10.43546">
        <ele>2211.024</ele>
        <time>2018-08-09T13:12:35Z</time>
      </trkpt>
      <trkpt lat="46.26886" lon="10.43549">
        <ele>2211.359</ele>
        <time>2018-08-09T13:12:55Z</time>
      </trkpt>
      <trkpt lat="46.26886" lon="10.43552">
        <ele>2211.66</ele>
        <time>2018-08-09T13:13:15Z</time>
      </trkpt>
      <trkpt lat="46.26886" lon="10.43555">
        <ele>2211.717</ele>
        <time>2018-08-09T13:13:35Z</time>
      </trkpt>
      <trkpt lat="46.26886" lon="10.43558">
        <ele>2212.31</ele>
        <time>2018-08-09T13:13:55Z</time>
      </trkpt>
      <trkpt lat="46.26886" lon="10.43562">
        <ele>2212.519</ele>
        <time>2018-08-09T13:14:15Z</time>
      </trkpt>
      <trkpt lat="46.26886" lon="10.43565">
        <ele>2212.809</ele>
        <time>2018-08-09T13:14:35Z</time>
      </trkpt>
      <trkpt lat="46.26887" lon="10.43568">
        <ele>2213.319</ele>
        <time>2018-08-09T13:14:55Z</time>
      </trkpt>
      <trkpt lat="46.26886" lon="10.43571">
        <ele>2213.208</ele>
        <time>2018-08-09T13:15:15Z</time>
      </trkpt>
      <trkpt lat="46.26886" lon="10.43574">
        <ele>2213.483</ele>
        <time>2018-08-09T13:15:35Z</time>
      </trkpt>
      <trkpt lat="46.26886" lon="10.43577">
        <ele>2213.588</ele>
        <time>2018-08-09T13:15:55Z</time>
      </trkpt>
      <trkpt lat="46.26886" lon="10.4358">
        <ele>2213.674</ele>
        <time>2018-08-09T13:16:15Z</time>
      </trkpt>
      <trkpt lat="46.26886" lon="10.43583">
        <ele>2213.578</ele>
        <time>2018-08-09T13:16:35Z</time>
      </trkpt>
      <trkpt lat="46.26886" lon="10.43585">
        <ele>2214.013</ele>
        <time>2018-08-09T13:16:55Z</time>
      </trkpt>
      <trkpt lat="46.26886" lon="10.43588">
        <ele>2214.244</ele>
        <time>2018-08-09T13:17:15Z</time>
      </trkpt>
      <trkpt lat="46.26886" lon="10.43591">
        <ele>2214.281</ele>
        <time>2018-08-09T13:17:35Z</time>
      </trkpt>
      <trkpt lat="46.26886" lon="10.43594">
        <ele>2214.554</ele>
        <time>2018-08-09T13:17:55Z</time>
      </trkpt>
      <trkpt lat="46.26887" lon="10.43597">
        <ele>2215.511</ele>
        <time>2018-08-09T13:18:15Z</time>
      </trkpt>
      <trkpt lat="46.26886" lon="10.436">
        <ele>2215.121</ele>
        <time>2018-08-09T13:18:35Z</time>
      </trkpt>
      <trkpt lat="46.26886" lon="10.43603">
        <ele>2214.803</ele>
        <time>2018-08-09T13:18:55Z</time>
      </trkpt>
      <trkpt lat="46.26886" lon="10.43606">
        <ele>2214.908</ele>
        <time>2018-08-09T13:19:15Z</time>
      </trkpt>
      <trkpt lat="46.26884" lon="10.43608">
        <ele>2214.253</ele>
        <time>2018-08-09T13:19:35Z</time>
      </trkpt>
      <trkpt lat="46.26883" lon="10.43611">
        <ele>2213.558</ele>
        <time>2018-08-09T13:19:55Z</time>
      </trkpt>
      <trkpt lat="46.26884" lon="10.43614">
        <ele>2214.494</ele>
        <time>2018-08-09T13:20:15Z</time>
      </trkpt>
      <trkpt lat="46.26884" lon="10.43617">
        <ele>2214.828</ele>
        <time>2018-08-09T13:20:35Z</time>
      </trkpt>
      <trkpt lat="46.26884" lon="10.43619">
        <ele>2214.693</ele>
        <time>2018-08-09T13:20:55Z</time>
      </trkpt>
      <trkpt lat="46.26884" lon="10.43622">
        <ele>2215.024</ele>
        <time>2018-08-09T13:21:15Z</time>
      </trkpt>
      <trkpt lat="46.26883" lon="10.43625">
        <ele>2214.991</ele>
        <time>2018-08-09T13:21:35Z</time>
      </trkpt>
      <trkpt lat="46.26882" lon="10.43628">
        <ele>2214.684</ele>
        <time>2018-08-09T13:21:55Z</time>
      </trkpt>
      <trkpt lat="46.26882" lon="10.43631">
        <ele>2214.293</ele>
        <time>2018-08-09T13:22:15Z</time>
      </trkpt>
      <trkpt lat="46.2688" lon="10.43634">
        <ele>2213.765</ele>
        <time>2018-08-09T13:22:35Z</time>
      </trkpt>
      <trkpt lat="46.2688" lon="10.43637">
        <ele>2213.521</ele>
        <time>2018-08-09T13:22:55Z</time>
      </trkpt>
      <trkpt lat="46.26879" lon="10.4364">
        <ele>2213.508</ele>
        <time>2018-08-09T13:23:15Z</time>
      </trkpt>
      <trkpt lat="46.26879" lon="10.43642">
        <ele>2213.121</ele>
        <time>2018-08-09T13:23:35Z</time>
      </trkpt>
      <trkpt lat="46.26878" lon="10.43645">
        <ele>2212.616</ele>
        <time>2018-08-09T13:23:55Z</time>
      </trkpt>
      <trkpt lat="46.26877" lon="10.43648">
        <ele>2212.172</ele>
        <time>2018-08-09T13:24:15Z</time>
      </trkpt>
      <trkpt lat="46.26876" lon="10.43651">
        <ele>2211.716</ele>
        <time>2018-08-09T13:24:35Z</time>
      </trkpt>
      <trkpt lat="46.26876" lon="10.43654">
        <ele>2211.591</ele>
        <time>2018-08-09T13:24:55Z</time>
      </trkpt>
      <trkpt lat="46.26875" lon="10.43656">
        <ele>2211.152</ele>
        <time>2018-08-09T13:25:15Z</time>
      </trkpt>
      <trkpt lat="46.26874" lon="10.43659">
        <ele>2210.659</ele>
        <time>2018-08-09T13:25:35Z</time>
      </trkpt>
      <trkpt lat="46.26873" lon="10.43661">
        <ele>2209.762</ele>
        <time>2018-08-09T13:25:55Z</time>
      </trkpt>
      <trkpt lat="46.26872" lon="10.43664">
        <ele>2209.094</ele>
        <time>2018-08-09T13:26:15Z</time>
      </trkpt>
      <trkpt lat="46.26871" lon="10.43667">
        <ele>2208.557</ele>
        <time>2018-08-09T13:26:35Z</time>
      </trkpt>
      <trkpt lat="46.2687" lon="10.43669">
        <ele>2208.522</ele>
        <time>2018-08-09T13:26:55Z</time>
      </trkpt>
      <trkpt lat="46.26868" lon="10.43672">
        <ele>2208.108</ele>
        <time>2018-08-09T13:27:15Z</time>
      </trkpt>
      <trkpt lat="46.26867" lon="10.43675">
        <ele>2208.111</ele>
        <time>2018-08-09T13:27:35Z</time>
      </trkpt>
      <trkpt lat="46.26866" lon="10.43678">
        <ele>2207.996</ele>
        <time>2018-08-09T13:27:55Z</time>
      </trkpt>
      <trkpt lat="46.26866" lon="10.4368">
        <ele>2208.112</ele>
        <time>2018-08-09T13:28:15Z</time>
      </trkpt>
      <trkpt lat="46.26864" lon="10.43684">
        <ele>2208.296</ele>
        <time>2018-08-09T13:28:35Z</time>
      </trkpt>
      <trkpt lat="46.26863" lon="10.43687">
        <ele>2208.231</ele>
        <time>2018-08-09T13:28:55Z</time>
      </trkpt>
      <trkpt lat="46.26863" lon="10.4369">
        <ele>2208.682</ele>
        <time>2018-08-09T13:29:15Z</time>
      </trkpt>
      <trkpt lat="46.26862" lon="10.43692">
        <ele>2209.139</ele>
        <time>2018-08-09T13:29:35Z</time>
      </trkpt>
      <trkpt lat="46.26862" lon="10.43695">
        <ele>2209.432</ele>
        <time>2018-08-09T13:29:55Z</time>
      </trkpt>
      <trkpt lat="46.26861" lon="10.43698">
        <ele>2209.312</ele>
        <time>2018-08-09T13:30:15Z</time>
      </trkpt>
      <trkpt lat="46.26861" lon="10.43701">
        <ele>2209.532</ele>
        <time>2018-08-09T13:30:35Z</time>
      </trkpt>
      <trkpt lat="46.26862" lon="10.43704">
        <ele>2209.805</ele>
        <time>2018-08-09T13:30:55Z</time>
      </trkpt>
      <trkpt lat="46.26862" lon="10.43706">
        <ele>2210.208</ele>
        <time>2018-08-09T13:31:15Z</time>
      </trkpt>
      <trkpt lat="46.26862" lon="10.43709">
        <ele>2210.623</ele>
        <time>2018-08-09T13:31:35Z</time>
      </trkpt>
      <trkpt lat="46.26863" lon="10.43712">
        <ele>2211.078</ele>
        <time>2018-08-09T13:31:55Z</time>
      </trkpt>
      <trkpt lat="46.26863" lon="10.43715">
        <ele>2211.564</ele>
        <time>2018-08-09T13:32:15Z</time>
      </trkpt>
      <trkpt lat="46.26865" lon="10.43718">
        <ele>2212.678</ele>
        <time>2018-08-09T13:32:35Z</time>
      </trkpt>
      <trkpt lat="46.26866" lon="10.43721">
        <ele>2213.293</ele>
        <time>2018-08-09T13:32:55Z</time>
      </trkpt>
      <trkpt lat="46.26867" lon="10.43724">
        <ele>2213.724</ele>
        <time>2018-08-09T13:33:15Z</time>
      </trkpt>
      <trkpt lat="46.26868" lon="10.43726">
        <ele>2213.961</ele>
        <time>2018-08-09T13:33:35Z</time>
      </trkpt>
      <trkpt lat="46.26869" lon="10.43728">
        <ele>2214.254</ele>
        <time>2018-08-09T13:33:55Z</time>
      </trkpt>
      <trkpt lat="46.26871" lon="10.4373">
        <ele>2214.697</ele>
        <time>2018-08-09T13:34:15Z</time>
      </trkpt>
      <trkpt lat="46.26872" lon="10.43732">
        <ele>2215.023</ele>
        <time>2018-08-09T13:34:35Z</time>
      </trkpt>
      <trkpt lat="46.26873" lon="10.43734">
        <ele>2215.325</ele>
        <time>2018-08-09T13:34:55Z</time>
      </trkpt>
      <trkpt lat="46.26874" lon="10.43736">
        <ele>2215.808</ele>
        <time>2018-08-09T13:35:15Z</time>
      </trkpt>
      <trkpt lat="46.26876" lon="10.43738">
        <ele>2216.431</ele>
        <time>2018-08-09T13:35:35Z</time>
      </trkpt>
      <trkpt lat="46.26878" lon="10.4374">
        <ele>2217.296</ele>
        <time>2018-08-09T13:35:55Z</time>
      </trkpt>
      <trkpt lat="46.26879" lon="10.43741">
        <ele>2218.082</ele>
        <time>2018-08-09T13:36:15Z</time>
      </trkpt>
      <trkpt lat="46.26881" lon="10.43743">
        <ele>2218.726</ele>
        <time>2018-08-09T13:36:35Z</time>
      </trkpt>
      <trkpt lat="46.26882" lon="10.43745">
        <ele>2219.581</ele>
        <time>2018-08-09T13:36:55Z</time>
      </trkpt>
      <trkpt lat="46.26884" lon="10.43746">
        <ele>2220.212</ele>
        <time>2018-08-09T13:37:15Z</time>
      </trkpt>
      <trkpt lat="46.26886" lon="10.43748">
        <ele>2221.569</ele>
        <time>2018-08-09T13:37:35Z</time>
      </trkpt>
      <trkpt lat="46.26888" lon="10.4375">
        <ele>2222.432</ele>
        <time>2018-08-09T13:37:55Z</time>
      </trkpt>
      <trkpt lat="46.2689" lon="10.43753">
        <ele>2223.238</ele>
        <time>2018-08-09T13:38:15Z</time>
      </trkpt>
      <trkpt lat="46.26892" lon="10.43755">
        <ele>2223.97</ele>
        <time>2018-08-09T13:38:35Z</time>
      </trkpt>
      <trkpt lat="46.26893" lon="10.43758">
        <ele>2224.617</ele>
        <time>2018-08-09T13:38:55Z</time>
      </trkpt>
      <trkpt lat="46.26894" lon="10.43759">
        <ele>2224.808</ele>
        <time>2018-08-09T13:39:15Z</time>
      </trkpt>
      <trkpt lat="46.26895" lon="10.43761">
        <ele>2225.215</ele>
        <time>2018-08-09T13:39:35Z</time>
      </trkpt>
      <trkpt lat="46.26897" lon="10.43764">
        <ele>2225.67</ele>
        <time>2018-08-09T13:39:55Z</time>
      </trkpt>
      <trkpt lat="46.26898" lon="10.43766">
        <ele>2226.036</ele>
        <time>2018-08-09T13:40:15Z</time>
      </trkpt>
      <trkpt lat="46.26899" lon="10.43768">
        <ele>2226.25</ele>
        <time>2018-08-09T13:40:35Z</time>
      </trkpt>
      <trkpt lat="46.269" lon="10.43772">
        <ele>2226.495</ele>
        <time>2018-08-09T13:40:55Z</time>
      </trkpt>
      <trkpt lat="46.26901" lon="10.43774">
        <ele>2226.776</ele>
        <time>2018-08-09T13:41:15Z</time>
      </trkpt>
      <trkpt lat="46.26902" lon="10.43777">
        <ele>2227.033</ele>
        <time>2018-08-09T13:41:35Z</time>
      </trkpt>
      <trkpt lat="46.26903" lon="10.4378">
        <ele>2227.316</ele>
        <time>2018-08-09T13:41:55Z</time>
      </trkpt>
      <trkpt lat="46.26904" lon="10.43781">
        <ele>2227.864</ele>
        <time>2018-08-09T13:42:15Z</time>
      </trkpt>
      <trkpt lat="46.26905" lon="10.43785">
        <ele>2228.306</ele>
        <time>2018-08-09T13:42:35Z</time>
      </trkpt>
      <trkpt lat="46.26907" lon="10.43788">
        <ele>2228.916</ele>
        <time>2018-08-09T13:42:55Z</time>
      </trkpt>
      <trkpt lat="46.26908" lon="10.4379">
        <ele>2229.308</ele>
        <time>2018-08-09T13:43:15Z</time>
      </trkpt>
      <trkpt lat="46.26909" lon="10.43792">
        <ele>2229.868</ele>
        <time>2018-08-09T13:43:35Z</time>
      </trkpt>
      <trkpt lat="46.26911" lon="10.43795">
        <ele>2230.663</ele>
        <time>2018-08-09T13:43:55Z</time>
      </trkpt>
      <trkpt lat="46.26912" lon="10.43797">
        <ele>2231.289</ele>
        <time>2018-08-09T13:44:15Z</time>
      </trkpt>
      <trkpt lat="46.26913" lon="10.43799">
        <ele>2231.443</ele>
        <time>2018-08-09T13:44:35Z</time>
      </trkpt>
      <trkpt lat="46.26914" lon="10.43802">
        <ele>2231.618</ele>
        <time>2018-08-09T13:44:55Z</time>
      </trkpt>
      <trkpt lat="46.26915" lon="10.43805">
        <ele>2231.889</ele>
        <time>2018-08-09T13:45:15Z</time>
      </trkpt>
      <trkpt lat="46.26915" lon="10.43807">
        <ele>2231.966</ele>
        <time>2018-08-09T13:45:35Z</time>
      </trkpt>
      <trkpt lat="46.26916" lon="10.4381">
        <ele>2232.039</ele>
        <time>2018-08-09T13:45:55Z</time>
      </trkpt>
      <trkpt lat="46.26916" lon="10.43812">
        <ele>2232.181</ele>
        <time>2018-08-09T13:46:15Z</time>
      </trkpt>
      <trkpt lat="46.26917" lon="10.43815">
        <ele>2232.061</ele>
        <time>2018-08-09T13:46:35Z</time>
      </trkpt>
      <trkpt lat="46.26918" lon="10.43818">
        <ele>2232.017</ele>
        <time>2018-08-09T13:46:55Z</time>
      </trkpt>
      <trkpt lat="46.26918" lon="10.43821">
        <ele>2231.708</ele>
        <time>2018-08-09T13:47:15Z</time>
      </trkpt>
      <trkpt lat="46.26918" lon="10.43823">
        <ele>2231.51</ele>
        <time>2018-08-09T13:47:35Z</time>
      </trkpt>
      <trkpt lat="46.26919" lon="10.43826">
        <ele>2231.315</ele>
        <time>2018-08-09T13:47:55Z</time>
      </trkpt>
      <trkpt lat="46.26919" lon="10.43829">
        <ele>2231.111</ele>
        <time>2018-08-09T13:48:15Z</time>
      </trkpt>
      <trkpt lat="46.26919" lon="10.43832">
        <ele>2230.955</ele>
        <time>2018-08-09T13:48:35Z</time>
      </trkpt>
      <trkpt lat="46.2692" lon="10.43835">
        <ele>2230.76</ele>
        <time>2018-08-09T13:48:55Z</time>
      </trkpt>
      <trkpt lat="46.26921" lon="10.43838">
        <ele>2230.691</ele>
        <time>2018-08-09T13:49:15Z</time>
      </trkpt>
      <trkpt lat="46.26921" lon="10.43841">
        <ele>2230.348</ele>
        <time>2018-08-09T13:49:35Z</time>
      </trkpt>
      <trkpt lat="46.26921" lon="10.43843">
        <ele>2230.181</ele>
        <time>2018-08-09T13:49:55Z</time>
      </trkpt>
      <trkpt lat="46.26922" lon="10.43847">
        <ele>2229.896</ele>
        <time>2018-08-09T13:50:15Z</time>
      </trkpt>
      <trkpt lat="46.26922" lon="10.4385">
        <ele>2229.731</ele>
        <time>2018-08-09T13:50:35Z</time>
      </trkpt>
      <trkpt lat="46.26923" lon="10.43853">
        <ele>2229.624</ele>
        <time>2018-08-09T13:50:55Z</time>
      </trkpt>
      <trkpt lat="46.26923" lon="10.43856">
        <ele>2229.408</ele>
        <time>2018-08-09T13:51:15Z</time>
      </trkpt>
      <trkpt lat="46.26924" lon="10.43859">
        <ele>2229.381</ele>
        <time>2018-08-09T13:51:35Z</time>
      </trkpt>
      <trkpt lat="46.26925" lon="10.43861">
        <ele>2229.216</ele>
        <time>2018-08-09T13:51:55Z</time>
      </trkpt>
      <trkpt lat="46.26925" lon="10.43864">
        <ele>2229.222</ele>
        <time>2018-08-09T13:52:15Z</time>
      </trkpt>
      <trkpt lat="46.26926" lon="10.43867">
        <ele>2229.276</ele>
        <time>2018-08-09T13:52:35Z</time>
      </trkpt>
      <trkpt lat="46.26927" lon="10.43869">
        <ele>2229.351</ele>
        <time>2018-08-09T13:52:55Z</time>
      </trkpt>
      <trkpt lat="46.26939" lon="10.43886">
        <ele>2230.312</ele>
        <time>2018-08-09T13:53:15Z</time>
      </trkpt>
      <trkpt lat="46.2694" lon="10.43886">
        <ele>2230.489</ele>
        <time>2018-08-09T13:53:35Z</time>
      </trkpt>
      <trkpt lat="46.26942" lon="10.43888">
        <ele>2230.612</ele>
        <time>2018-08-09T13:53:55Z</time>
      </trkpt>
      <trkpt lat="46.26944" lon="10.43889">
        <ele>2230.825</ele>
        <time>2018-08-09T13:54:15Z</time>
      </trkpt>
      <trkpt lat="46.26946" lon="10.4389">
        <ele>2231.526</ele>
        <time>2018-08-09T13:54:35Z</time>
      </trkpt>
      <trkpt lat="46.26947" lon="10.43892">
        <ele>2232.008</ele>
        <time>2018-08-09T13:54:55Z</time>
      </trkpt>
      <trkpt lat="46.26948" lon="10.43894">
        <ele>2232.808</ele>
        <time>2018-08-09T13:55:15Z</time>
      </trkpt>
      <trkpt lat="46.2695" lon="10.43895">
        <ele>2233.994</ele>
        <time>2018-08-09T13:55:35Z</time>
      </trkpt>
      <trkpt lat="46.26953" lon="10.43897">
        <ele>2235.539</ele>
        <time>2018-08-09T13:55:55Z</time>
      </trkpt>
      <trkpt lat="46.26954" lon="10.43898">
        <ele>2236.365</ele>
        <time>2018-08-09T13:56:15Z</time>
      </trkpt>
      <trkpt lat="46.26955" lon="10.43901">
        <ele>2236.949</ele>
        <time>2018-08-09T13:56:35Z</time>
      </trkpt>
      <trkpt lat="46.26957" lon="10.43903">
        <ele>2237.524</ele>
        <time>2018-08-09T13:56:55Z</time>
      </trkpt>
      <trkpt lat="46.26958" lon="10.43905">
        <ele>2238.115</ele>
        <time>2018-08-09T13:57:15Z</time>
      </trkpt>
      <trkpt lat="46.26959" lon="10.43908">
        <ele>2238.592</ele>
        <time>2018-08-09T13:57:35Z</time>
      </trkpt>
      <trkpt lat="46.2696" lon="10.43911">
        <ele>2238.915</ele>
        <time>2018-08-09T13:57:55Z</time>
      </trkpt>
      <trkpt lat="46.26961" lon="10.43913">
        <ele>2239.399</ele>
        <time>2018-08-09T13:58:15Z</time>
      </trkpt>
      <trkpt lat="46.26962" lon="10.43916">
        <ele>2239.407</ele>
        <time>2018-08-09T13:58:35Z</time>
      </trkpt>
      <trkpt lat="46.26963" lon="10.43919">
        <ele>2239.927</ele>
        <time>2018-08-09T13:58:55Z</time>
      </trkpt>
      <trkpt lat="46.26964" lon="10.43922">
        <ele>2240.308</ele>
        <time>2018-08-09T13:59:15Z</time>
      </trkpt>
      <trkpt lat="46.26965" lon="10.43924">
        <ele>2240.911</ele>
        <time>2018-08-09T13:59:35Z</time>
      </trkpt>
      <trkpt lat="46.26966" lon="10.43927">
        <ele>2241.146</ele>
        <time>2018-08-09T13:59:55Z</time>
      </trkpt>
      <trkpt lat="46.26967" lon="10.4393">
        <ele>2241.472</ele>
        <time>2018-08-09T14:00:15Z</time>
      </trkpt>
      <trkpt lat="46.26968" lon="10.43933">
        <ele>2241.526</ele>
        <time>2018-08-09T14:00:35Z</time>
      </trkpt>
      <trkpt lat="46.26968" lon="10.43936">
        <ele>2241.671</ele>
        <time>2018-08-09T14:00:55Z</time>
      </trkpt>
      <trkpt lat="46.26969" lon="10.43939">
        <ele>2241.662</ele>
        <time>2018-08-09T14:01:15Z</time>
      </trkpt>
      <trkpt lat="46.26969" lon="10.43942">
        <ele>2241.549</ele>
        <time>2018-08-09T14:01:35Z</time>
      </trkpt>
      <trkpt lat="46.2697" lon="10.43944">
        <ele>2241.532</ele>
        <time>2018-08-09T14:01:55Z</time>
      </trkpt>
      <trkpt lat="46.26971" lon="10.43947">
        <ele>2241.593</ele>
        <time>2018-08-09T14:02:15Z</time>
      </trkpt>
      <trkpt lat="46.26972" lon="10.4395">
        <ele>2241.765</ele>
        <time>2018-08-09T14:02:35Z</time>
      </trkpt>
      <trkpt lat="46.26972" lon="10.43953">
        <ele>2241.621</ele>
        <time>2018-08-09T14:02:55Z</time>
      </trkpt>
      <trkpt lat="46.26973" lon="10.43956">
        <ele>2241.608</ele>
        <time>2018-08-09T14:03:15Z</time>
      </trkpt>
      <trkpt lat="46.26973" lon="10.43959">
        <ele>2241.641</ele>
        <time>2018-08-09T14:03:35Z</time>
      </trkpt>
      <trkpt lat="46.26974" lon="10.43961">
        <ele>2241.666</ele>
        <time>2018-08-09T14:03:55Z</time>
      </trkpt>
      <trkpt lat="46.26975" lon="10.43964">
        <ele>2241.712</ele>
        <time>2018-08-09T14:04:15Z</time>
      </trkpt>
      <trkpt lat="46.26976" lon="10.43967">
        <ele>2241.996</ele>
        <time>2018-08-09T14:04:35Z</time>
      </trkpt>
      <trkpt lat="46.26977" lon="10.4397">
        <ele>2241.971</ele>
        <time>2018-08-09T14:04:55Z</time>
      </trkpt>
      <trkpt lat="46.26977" lon="10.43973">
        <ele>2241.952</ele>
        <time>2018-08-09T14:05:15Z</time>
      </trkpt>
      <trkpt lat="46.26978" lon="10.43976">
        <ele>2242.169</ele>
        <time>2018-08-09T14:05:35Z</time>
      </trkpt>
      <trkpt lat="46.26978" lon="10.4398">
        <ele>2242.052</ele>
        <time>2018-08-09T14:05:55Z</time>
      </trkpt>
      <trkpt lat="46.26978" lon="10.43983">
        <ele>2242.076</ele>
        <time>2018-08-09T14:06:15Z</time>
      </trkpt>
      <trkpt lat="46.26978" lon="10.43986">
        <ele>2242.09</ele>
        <time>2018-08-09T14:06:35Z</time>
      </trkpt>
      <trkpt lat="46.26978" lon="10.43989">
        <ele>2241.819</ele>
        <time>2018-08-09T14:06:55Z</time>
      </trkpt>
      <trkpt lat="46.26978" lon="10.43992">
        <ele>2241.808</ele>
        <time>2018-08-09T14:07:15Z</time>
      </trkpt>
      <trkpt lat="46.26978" lon="10.43995">
        <ele>2241.929</ele>
        <time>2018-08-09T14:07:35Z</time>
      </trkpt>
      <trkpt lat="46.26979" lon="10.43998">
        <ele>2242.164</ele>
        <time>2018-08-09T14:07:55Z</time>
      </trkpt>
      <trkpt lat="46.26979" lon="10.44001">
        <ele>2242.02</ele>
        <time>2018-08-09T14:08:15Z</time>
      </trkpt>
      <trkpt lat="46.26979" lon="10.44004">
        <ele>2242.234</ele>
        <time>2018-08-09T14:08:35Z</time>
      </trkpt>
      <trkpt lat="46.2698" lon="10.44007">
        <ele>2242.339</ele>
        <time>2018-08-09T14:08:55Z</time>
      </trkpt>
      <trkpt lat="46.2698" lon="10.4401">
        <ele>2242.69</ele>
        <time>2018-08-09T14:09:15Z</time>
      </trkpt>
      <trkpt lat="46.2698" lon="10.44013">
        <ele>2242.827</ele>
        <time>2018-08-09T14:09:35Z</time>
      </trkpt>
      <trkpt lat="46.26981" lon="10.44016">
        <ele>2242.81</ele>
        <time>2018-08-09T14:09:55Z</time>
      </trkpt>
      <trkpt lat="46.26981" lon="10.44019">
        <ele>2242.784</ele>
        <time>2018-08-09T14:10:15Z</time>
      </trkpt>
      <trkpt lat="46.26981" lon="10.44022">
        <ele>2242.907</ele>
        <time>2018-08-09T14:10:35Z</time>
      </trkpt>
      <trkpt lat="46.26981" lon="10.44025">
        <ele>2243.117</ele>
        <time>2018-08-09T14:10:55Z</time>
      </trkpt>
      <trkpt lat="46.26982" lon="10.44028">
        <ele>2243.308</ele>
        <time>2018-08-09T14:11:15Z</time>
      </trkpt>
      <trkpt lat="46.26982" lon="10.44031">
        <ele>2243.65</ele>
        <time>2018-08-09T14:11:35Z</time>
      </trkpt>
      <trkpt lat="46.26982" lon="10.44034">
        <ele>2243.755</ele>
        <time>2018-08-09T14:11:55Z</time>
      </trkpt>
      <trkpt lat="46.26983" lon="10.44037">
        <ele>2244.041</ele>
        <time>2018-08-09T14:12:15Z</time>
      </trkpt>
      <trkpt lat="46.26983" lon="10.4404">
        <ele>2244.275</ele>
        <time>2018-08-09T14:12:35Z</time>
      </trkpt>
      <trkpt lat="46.26983" lon="10.44043">
        <ele>2244.38</ele>
        <time>2018-08-09T14:12:55Z</time>
      </trkpt>
      <trkpt lat="46.26983" lon="10.44046">
        <ele>2244.451</ele>
        <time>2018-08-09T14:13:15Z</time>
      </trkpt>
      <trkpt lat="46.26983" lon="10.44049">
        <ele>2244.468</ele>
        <time>2018-08-09T14:13:35Z</time>
      </trkpt>
      <trkpt lat="46.26983" lon="10.44052">
        <ele>2244.221</ele>
        <time>2018-08-09T14:13:55Z</time>
      </trkpt>
      <trkpt lat="46.26982" lon="10.44055">
        <ele>2243.948</ele>
        <time>2018-08-09T14:14:15Z</time>
      </trkpt>
      <trkpt lat="46.26982" lon="10.44059">
        <ele>2244.061</ele>
        <time>2018-08-09T14:14:35Z</time>
      </trkpt>
      <trkpt lat="46.26982" lon="10.44062">
        <ele>2244.217</ele>
        <time>2018-08-09T14:14:55Z</time>
      </trkpt>
      <trkpt lat="46.26983" lon="10.44065">
        <ele>2244.608</ele>
        <time>2018-08-09T14:15:15Z</time>
      </trkpt>
      <trkpt lat="46.26983" lon="10.44068">
        <ele>2244.926</ele>
        <time>2018-08-09T14:15:35Z</time>
      </trkpt>
      <trkpt lat="46.26983" lon="10.44071">
        <ele>2245.261</ele>
        <time>2018-08-09T14:15:55Z</time>
      </trkpt>
      <trkpt lat="46.26982" lon="10.44074">
        <ele>2245.197</ele>
        <time>2018-08-09T14:16:15Z</time>
      </trkpt>
      <trkpt lat="46.26982" lon="10.44078">
        <ele>2245.121</ele>
        <time>2018-08-09T14:16:35Z</time>
      </trkpt>
      <trkpt lat="46.26982" lon="10.44081">
        <ele>2245.326</ele>
        <time>2018-08-09T14:16:55Z</time>
      </trkpt>
      <trkpt lat="46.26982" lon="10.44084">
        <ele>2245.797</ele>
        <time>2018-08-09T14:17:15Z</time>
      </trkpt>
      <trkpt lat="46.26983" lon="10.44087">
        <ele>2246.154</ele>
        <time>2018-08-09T14:17:35Z</time>
      </trkpt>
      <trkpt lat="46.26983" lon="10.44089">
        <ele>2246.747</ele>
        <time>2018-08-09T14:17:55Z</time>
      </trkpt>
      <trkpt lat="46.26983" lon="10.44092">
        <ele>2247.265</ele>
        <time>2018-08-09T14:18:15Z</time>
      </trkpt>
      <trkpt lat="46.26984" lon="10.44095">
        <ele>2247.968</ele>
        <time>2018-08-09T14:18:35Z</time>
      </trkpt>
      <trkpt lat="46.26985" lon="10.44097">
        <ele>2248.614</ele>
        <time>2018-08-09T14:18:55Z</time>
      </trkpt>
      <trkpt lat="46.26985" lon="10.44101">
        <ele>2249.208</ele>
        <time>2018-08-09T14:19:15Z</time>
      </trkpt>
      <trkpt lat="46.26985" lon="10.44104">
        <ele>2249.688</ele>
        <time>2018-08-09T14:19:35Z</time>
      </trkpt>
      <trkpt lat="46.26984" lon="10.44106">
        <ele>2248.773</ele>
        <time>2018-08-09T14:19:55Z</time>
      </trkpt>
      <trkpt lat="46.26983" lon="10.44108">
        <ele>2248.189</ele>
        <time>2018-08-09T14:20:15Z</time>
      </trkpt>
      <trkpt lat="46.26981" lon="10.44111">
        <ele>2247.583</ele>
        <time>2018-08-09T14:20:35Z</time>
      </trkpt>
      <trkpt lat="46.26981" lon="10.44114">
        <ele>2247.268</ele>
        <time>2018-08-09T14:20:55Z</time>
      </trkpt>
      <trkpt lat="46.26981" lon="10.44117">
        <ele>2247.619</ele>
        <time>2018-08-09T14:21:15Z</time>
      </trkpt>
      <trkpt lat="46.26981" lon="10.4412">
        <ele>2247.636</ele>
        <time>2018-08-09T14:21:35Z</time>
      </trkpt>
      <trkpt lat="46.2698" lon="10.44123">
        <ele>2247.569</ele>
        <time>2018-08-09T14:21:55Z</time>
      </trkpt>
      <trkpt lat="46.2698" lon="10.44127">
        <ele>2247.441</ele>
        <time>2018-08-09T14:22:15Z</time>
      </trkpt>
      <trkpt lat="46.26979" lon="10.4413">
        <ele>2247.081</ele>
        <time>2018-08-09T14:22:35Z</time>
      </trkpt>
      <trkpt lat="46.26977" lon="10.44133">
        <ele>2246.209</ele>
        <time>2018-08-09T14:22:55Z</time>
      </trkpt>
      <trkpt lat="46.26976" lon="10.44135">
        <ele>2245.408</ele>
        <time>2018-08-09T14:23:15Z</time>
      </trkpt>
      <trkpt lat="46.26975" lon="10.44138">
        <ele>2244.736</ele>
        <time>2018-08-09T14:23:35Z</time>
      </trkpt>
      <trkpt lat="46.26974" lon="10.4414">
        <ele>2244.361</ele>
        <time>2018-08-09T14:23:55Z</time>
      </trkpt>
      <trkpt lat="46.26973" lon="10.44143">
        <ele>2243.617</ele>
        <time>2018-08-09T14:24:15Z</time>
      </trkpt>
      <trkpt lat="46.26972" lon="10.44146">
        <ele>2243.021</ele>
        <time>2018-08-09T14:24:35Z</time>
      </trkpt>
      <trkpt lat="46.26971" lon="10.44148">
        <ele>2242.686</ele>
        <time>2018-08-09T14:24:55Z</time>
      </trkpt>
      <trkpt lat="46.26971" lon="10.44149">
        <ele>2242.537</ele>
        <time>2018-08-09T14:25:15Z</time>
      </trkpt>
      <trkpt lat="46.2697" lon="10.44152">
        <ele>2242.384</ele>
        <time>2018-08-09T14:25:35Z</time>
      </trkpt>
      <trkpt lat="46.26969" lon="10.44155">
        <ele>2242.077</ele>
        <time>2018-08-09T14:25:55Z</time>
      </trkpt>
      <trkpt lat="46.26969" lon="10.44158">
        <ele>2241.737</ele>
        <time>2018-08-09T14:26:15Z</time>
      </trkpt>
      <trkpt lat="46.26968" lon="10.44161">
        <ele>2241.249</ele>
        <time>2018-08-09T14:26:35Z</time>
      </trkpt>
      <trkpt lat="46.26967" lon="10.44164">
        <ele>2240.713</ele>
        <time>2018-08-09T14:26:55Z</time>
      </trkpt>
      <trkpt lat="46.26966" lon="10.44167">
        <ele>2240.308</ele>
        <time>2018-08-09T14:27:15Z</time>
      </trkpt>
      <trkpt lat="46.26965" lon="10.4417">
        <ele>2240.075</ele>
        <time>2018-08-09T14:27:35Z</time>
      </trkpt>
      <trkpt lat="46.26965" lon="10.44173">
        <ele>2239.95</ele>
        <time>2018-08-09T14:27:55Z</time>
      </trkpt>
      <trkpt lat="46.26964" lon="10.44177">
        <ele>2240.076</ele>
        <time>2018-08-09T14:28:15Z</time>
      </trkpt>
      <trkpt lat="46.26962" lon="10.44215">
        <ele>2241.69</ele>
        <time>2018-08-09T14:28:35Z</time>
      </trkpt>
      <trkpt lat="46.26962" lon="10.44216">
        <ele>2241.665</ele>
        <time>2018-08-09T14:28:55Z</time>
      </trkpt>
      <trkpt lat="46.26961" lon="10.44219">
        <ele>2241.486</ele>
        <time>2018-08-09T14:29:15Z</time>
      </trkpt>
      <trkpt lat="46.26961" lon="10.44222">
        <ele>2241.333</ele>
        <time>2018-08-09T14:29:35Z</time>
      </trkpt>
      <trkpt lat="46.26961" lon="10.44226">
        <ele>2241.676</ele>
        <time>2018-08-09T14:29:55Z</time>
      </trkpt>
      <trkpt lat="46.2696" lon="10.44228">
        <ele>2241.647</ele>
        <time>2018-08-09T14:30:15Z</time>
      </trkpt>
      <trkpt lat="46.2696" lon="10.44231">
        <ele>2241.529</ele>
        <time>2018-08-09T14:30:35Z</time>
      </trkpt>
      <trkpt lat="46.26959" lon="10.44234">
        <ele>2241.321</ele>
        <time>2018-08-09T14:30:55Z</time>
      </trkpt>
      <trkpt lat="46.26959" lon="10.44237">
        <ele>2241.408</ele>
        <time>2018-08-09T14:31:15Z</time>
      </trkpt>
      <trkpt lat="46.26959" lon="10.4424">
        <ele>2241.566</ele>
        <time>2018-08-09T14:31:35Z</time>
      </trkpt>
      <trkpt lat="46.26959" lon="10.44243">
        <ele>2241.511</ele>
        <time>2018-08-09T14:31:55Z</time>
      </trkpt>
      <trkpt lat="46.26958" lon="10.44246">
        <ele>2241.587</ele>
        <time>2018-08-09T14:32:15Z</time>
      </trkpt>
      <trkpt lat="46.26958" lon="10.44249">
        <ele>2241.691</ele>
        <time>2018-08-09T14:32:35Z</time>
      </trkpt>
      <trkpt lat="46.26958" lon="10.44252">
        <ele>2242.046</ele>
        <time>2018-08-09T14:32:55Z</time>
      </trkpt>
      <trkpt lat="46.26957" lon="10.44254">
        <ele>2242.077</ele>
        <time>2018-08-09T14:33:15Z</time>
      </trkpt>
      <trkpt lat="46.26957" lon="10.44257">
        <ele>2242.294</ele>
        <time>2018-08-09T14:33:35Z</time>
      </trkpt>
      <trkpt lat="46.26956" lon="10.4426">
        <ele>2242.357</ele>
        <time>2018-08-09T14:33:55Z</time>
      </trkpt>
      <trkpt lat="46.26956" lon="10.44263">
        <ele>2242.399</ele>
        <time>2018-08-09T14:34:15Z</time>
      </trkpt>
      <trkpt lat="46.26955" lon="10.44266">
        <ele>2242.407</ele>
        <time>2018-08-09T14:34:35Z</time>
      </trkpt>
      <trkpt lat="46.26954" lon="10.44269">
        <ele>2242.427</ele>
        <time>2018-08-09T14:34:55Z</time>
      </trkpt>
      <trkpt lat="46.26954" lon="10.44271">
        <ele>2242.508</ele>
        <time>2018-08-09T14:35:15Z</time>
      </trkpt>
      <trkpt lat="46.26953" lon="10.44274">
        <ele>2242.411</ele>
        <time>2018-08-09T14:35:35Z</time>
      </trkpt>
      <trkpt lat="46.26952" lon="10.44276">
        <ele>2242.266</ele>
        <time>2018-08-09T14:35:55Z</time>
      </trkpt>
      <trkpt lat="46.26952" lon="10.44279">
        <ele>2242.262</ele>
        <time>2018-08-09T14:36:15Z</time>
      </trkpt>
      <trkpt lat="46.26951" lon="10.44282">
        <ele>2241.926</ele>
        <time>2018-08-09T14:36:35Z</time>
      </trkpt>
      <trkpt lat="46.2695" lon="10.44285">
        <ele>2241.831</ele>
        <time>2018-08-09T14:36:55Z</time>
      </trkpt>
      <trkpt lat="46.26949" lon="10.44287">
        <ele>2241.652</ele>
        <time>2018-08-09T14:37:15Z</time>
      </trkpt>
      <trkpt lat="46.26946" lon="10.44296">
        <ele>2240.659</ele>
        <time>2018-08-09T14:37:35Z</time>
      </trkpt>
      <trkpt lat="46.26944" lon="10.44302">
        <ele>2239.822</ele>
        <time>2018-08-09T14:37:55Z</time>
      </trkpt>
      <trkpt lat="46.26943" lon="10.44303">
        <ele>2239.758</ele>
        <time>2018-08-09T14:38:15Z</time>
      </trkpt>
      <trkpt lat="46.26942" lon="10.44305">
        <ele>2239.052</ele>
        <time>2018-08-09T14:38:35Z</time>
      </trkpt>
      <trkpt lat="46.26941" lon="10.44307">
        <ele>2238.117</ele>
        <time>2018-08-09T14:38:55Z</time>
      </trkpt>
      <trkpt lat="46.2694" lon="10.44311">
        <ele>2237.508</ele>
        <time>2018-08-09T14:39:15Z</time>
      </trkpt>
      <trkpt lat="46.2694" lon="10.44314">
        <ele>2237.437</ele>
        <time>2018-08-09T14:39:35Z</time>
      </trkpt>
      <trkpt lat="46.2694" lon="10.44317">
        <ele>2237.452</ele>
        <time>2018-08-09T14:39:55Z</time>
      </trkpt>
      <trkpt lat="46.2694" lon="10.4432">
        <ele>2237.358</ele>
        <time>2018-08-09T14:40:15Z</time>
      </trkpt>
      <trkpt lat="46.2694" lon="10.44323">
        <ele>2237.422</ele>
        <time>2018-08-09T14:40:35Z</time>
      </trkpt>
      <trkpt lat="46.26939" lon="10.44327">
        <ele>2237.217</ele>
        <time>2018-08-09T14:40:55Z</time>
      </trkpt>
      <trkpt lat="46.26939" lon="10.4433">
        <ele>2236.678</ele>
        <time>2018-08-09T14:41:15Z</time>
      </trkpt>
      <trkpt lat="46.26938" lon="10.44333">
        <ele>2236.425</ele>
        <time>2018-08-09T14:41:35Z</time>
      </trkpt>
      <trkpt lat="46.26938" lon="10.44336">
        <ele>2236.228</ele>
        <time>2018-08-09T14:41:55Z</time>
      </trkpt>
      <trkpt lat="46.26938" lon="10.44339">
        <ele>2236.149</ele>
        <time>2018-08-09T14:42:15Z</time>
      </trkpt>
      <trkpt lat="46.26938" lon="10.44341">
        <ele>2236.102</ele>
        <time>2018-08-09T14:42:35Z</time>
      </trkpt>
      <trkpt lat="46.26939" lon="10.44344">
        <ele>2236.122</ele>
        <time>2018-08-09T14:42:55Z</time>
      </trkpt>
      <trkpt lat="46.26939" lon="10.44347">
        <ele>2236.408</ele>
        <time>2018-08-09T14:43:15Z</time>
      </trkpt>
      <trkpt lat="46.2694" lon="10.4435">
        <ele>2236.536</ele>
        <time>2018-08-09T14:43:35Z</time>
      </trkpt>
      <trkpt lat="46.2694" lon="10.44353">
        <ele>2236.681</ele>
        <time>2018-08-09T14:43:55Z</time>
      </trkpt>
      <trkpt lat="46.26941" lon="10.44356">
        <ele>2237.097</ele>
        <time>2018-08-09T14:44:15Z</time>
      </trkpt>
      <trkpt lat="46.26941" lon="10.44359">
        <ele>2237.111</ele>
        <time>2018-08-09T14:44:35Z</time>
      </trkpt>
      <trkpt lat="46.26941" lon="10.44362">
        <ele>2237.026</ele>
        <time>2018-08-09T14:44:55Z</time>
      </trkpt>
      <trkpt lat="46.26942" lon="10.44365">
        <ele>2237.367</ele>
        <time>2018-08-09T14:45:15Z</time>
      </trkpt>
      <trkpt lat="46.26943" lon="10.44368">
        <ele>2237.664</ele>
        <time>2018-08-09T14:45:35Z</time>
      </trkpt>
      <trkpt lat="46.26944" lon="10.44372">
        <ele>2237.837</ele>
        <time>2018-08-09T14:45:55Z</time>
      </trkpt>
      <trkpt lat="46.26944" lon="10.44373">
        <ele>2237.735</ele>
        <time>2018-08-09T14:46:15Z</time>
      </trkpt>
      <trkpt lat="46.26939" lon="10.44384">
        <ele>2234.486</ele>
        <time>2018-08-09T14:46:35Z</time>
      </trkpt>
      <trkpt lat="46.26943" lon="10.44402">
        <ele>2235.214</ele>
        <time>2018-08-09T14:46:55Z</time>
      </trkpt>
      <trkpt lat="46.26932" lon="10.44414">
        <ele>2230.508</ele>
        <time>2018-08-09T14:47:15Z</time>
      </trkpt>
      <trkpt lat="46.2693" lon="10.4443">
        <ele>2229.495</ele>
        <time>2018-08-09T14:47:35Z</time>
      </trkpt>
      <trkpt lat="46.26924" lon="10.44439">
        <ele>2227.79</ele>
        <time>2018-08-09T14:47:55Z</time>
      </trkpt>
      <trkpt lat="46.26917" lon="10.44449">
        <ele>2226.366</ele>
        <time>2018-08-09T14:48:15Z</time>
      </trkpt>
      <trkpt lat="46.26909" lon="10.44459">
        <ele>2225.38</ele>
        <time>2018-08-09T14:48:35Z</time>
      </trkpt>
      <trkpt lat="46.269" lon="10.4446">
        <ele>2224.265</ele>
        <time>2018-08-09T14:48:55Z</time>
      </trkpt>
      <trkpt lat="46.26896" lon="10.44464">
        <ele>2224.036</ele>
        <time>2018-08-09T14:49:15Z</time>
      </trkpt>
      <trkpt lat="46.26889" lon="10.44471">
        <ele>2223.863</ele>
        <time>2018-08-09T14:49:35Z</time>
      </trkpt>
      <trkpt lat="46.26886" lon="10.44478">
        <ele>2224.336</ele>
        <time>2018-08-09T14:49:55Z</time>
      </trkpt>
      <trkpt lat="46.26881" lon="10.44482">
        <ele>2224.084</ele>
        <time>2018-08-09T14:50:15Z</time>
      </trkpt>
      <trkpt lat="46.26873" lon="10.44483">
        <ele>2223.007</ele>
        <time>2018-08-09T14:50:35Z</time>
      </trkpt>
      <trkpt lat="46.26868" lon="10.44478">
        <ele>2221.617</ele>
        <time>2018-08-09T14:50:55Z</time>
      </trkpt>
      <trkpt lat="46.26864" lon="10.44474">
        <ele>2220.608</ele>
        <time>2018-08-09T14:51:15Z</time>
      </trkpt>
      <trkpt lat="46.26864" lon="10.44473">
        <ele>2220.48</ele>
        <time>2018-08-09T14:51:35Z</time>
      </trkpt>
      <trkpt lat="46.26864" lon="10.44473">
        <ele>2220.385</ele>
        <time>2018-08-09T14:51:55Z</time>
      </trkpt>
      <trkpt lat="46.26862" lon="10.44454">
        <ele>2217.471</ele>
        <time>2018-08-09T14:52:15Z</time>
      </trkpt>
      <trkpt lat="46.26855" lon="10.44441">
        <ele>2213.765</ele>
        <time>2018-08-09T14:52:35Z</time>
      </trkpt>
      <trkpt lat="46.26842" lon="10.44427">
        <ele>2207.41</ele>
        <time>2018-08-09T14:52:55Z</time>
      </trkpt>
      <trkpt lat="46.26823" lon="10.44432">
        <ele>2200.251</ele>
        <time>2018-08-09T14:53:15Z</time>
      </trkpt>
      <trkpt lat="46.26813" lon="10.44435">
        <ele>2195.228</ele>
        <time>2018-08-09T14:53:35Z</time>
      </trkpt>
      <trkpt lat="46.26802" lon="10.44448">
        <ele>2191.511</ele>
        <time>2018-08-09T14:53:55Z</time>
      </trkpt>
      <trkpt lat="46.26789" lon="10.44468">
        <ele>2187.443</ele>
        <time>2018-08-09T14:54:15Z</time>
      </trkpt>
      <trkpt lat="46.26773" lon="10.44474">
        <ele>2180.364</ele>
        <time>2018-08-09T14:54:35Z</time>
      </trkpt>
      <trkpt lat="46.26772" lon="10.44474">
        <ele>2180.01</ele>
        <time>2018-08-09T14:54:55Z</time>
      </trkpt>
      <trkpt lat="46.26742" lon="10.44466">
        <ele>2165.308</ele>
        <time>2018-08-09T14:55:15Z</time>
      </trkpt>
      <trkpt lat="46.26739" lon="10.44464">
        <ele>2163.116</ele>
        <time>2018-08-09T14:55:35Z</time>
      </trkpt>
      <trkpt lat="46.26724" lon="10.44462">
        <ele>2154.891</ele>
        <time>2018-08-09T14:55:55Z</time>
      </trkpt>
      <trkpt lat="46.26716" lon="10.44458">
        <ele>2149.357</ele>
        <time>2018-08-09T14:56:15Z</time>
      </trkpt>
      <trkpt lat="46.26713" lon="10.44444">
        <ele>2144.351</ele>
        <time>2018-08-09T14:56:35Z</time>
      </trkpt>
      <trkpt lat="46.26718" lon="10.44427">
        <ele>2144.186</ele>
        <time>2018-08-09T14:56:55Z</time>
      </trkpt>
      <trkpt lat="46.26721" lon="10.44406">
        <ele>2143.447</ele>
        <time>2018-08-09T14:57:15Z</time>
      </trkpt>
      <trkpt lat="46.2672" lon="10.44381">
        <ele>2137.734</ele>
        <time>2018-08-09T14:57:35Z</time>
      </trkpt>
      <trkpt lat="46.26713" lon="10.44361">
        <ele>2129.847</ele>
        <time>2018-08-09T14:57:55Z</time>
      </trkpt>
      <trkpt lat="46.26708" lon="10.44339">
        <ele>2122.683</ele>
        <time>2018-08-09T14:58:15Z</time>
      </trkpt>
      <trkpt lat="46.26708" lon="10.44315">
        <ele>2119.025</ele>
        <time>2018-08-09T14:58:35Z</time>
      </trkpt>
      <trkpt lat="46.26709" lon="10.44287">
        <ele>2115.417</ele>
        <time>2018-08-09T14:58:55Z</time>
      </trkpt>
      <trkpt lat="46.26713" lon="10.44261">
        <ele>2113.808</ele>
        <time>2018-08-09T14:59:15Z</time>
      </trkpt>
      <trkpt lat="46.26719" lon="10.44236">
        <ele>2113.84</ele>
        <time>2018-08-09T14:59:35Z</time>
      </trkpt>
      <trkpt lat="46.2672" lon="10.44195">
        <ele>2106.925</ele>
        <time>2018-08-09T14:59:55Z</time>
      </trkpt>
      <trkpt lat="46.26718" lon="10.44171">
        <ele>2103.311</ele>
        <time>2018-08-09T15:00:15Z</time>
      </trkpt>
      <trkpt lat="46.26712" lon="10.44149">
        <ele>2099.755</ele>
        <time>2018-08-09T15:00:35Z</time>
      </trkpt>
      <trkpt lat="46.26701" lon="10.44114">
        <ele>2096.82</ele>
        <time>2018-08-09T15:00:55Z</time>
      </trkpt>
      <trkpt lat="46.26688" lon="10.44085">
        <ele>2096.091</ele>
        <time>2018-08-09T15:01:15Z</time>
      </trkpt>
      <trkpt lat="46.26675" lon="10.44078">
        <ele>2092.198</ele>
        <time>2018-08-09T15:01:35Z</time>
      </trkpt>
      <trkpt lat="46.26664" lon="10.44069">
        <ele>2089.681</ele>
        <time>2018-08-09T15:01:55Z</time>
      </trkpt>
      <trkpt lat="46.26655" lon="10.44053">
        <ele>2088.977</ele>
        <time>2018-08-09T15:02:15Z</time>
      </trkpt>
      <trkpt lat="46.26647" lon="10.44037">
        <ele>2088.661</ele>
        <time>2018-08-09T15:02:35Z</time>
      </trkpt>
      <trkpt lat="46.26647" lon="10.44037">
        <ele>2088.527</ele>
        <time>2018-08-09T15:02:55Z</time>
      </trkpt>
      <trkpt lat="46.26647" lon="10.44036">
        <ele>2088.508</ele>
        <time>2018-08-09T15:03:15Z</time>
      </trkpt>
      <trkpt lat="46.26637" lon="10.44028">
        <ele>2085.839</ele>
        <time>2018-08-09T15:03:35Z</time>
      </trkpt>
      <trkpt lat="46.26631" lon="10.44023">
        <ele>2083.014</ele>
        <time>2018-08-09T15:03:55Z</time>
      </trkpt>
      <trkpt lat="46.26629" lon="10.44022">
        <ele>2082.15</ele>
        <time>2018-08-09T15:04:15Z</time>
      </trkpt>
      <trkpt lat="46.26628" lon="10.44021">
        <ele>2081.264</ele>
        <time>2018-08-09T15:04:35Z</time>
      </trkpt>
      <trkpt lat="46.26628" lon="10.44022">
        <ele>2081.149</ele>
        <time>2018-08-09T15:04:55Z</time>
      </trkpt>
      <trkpt lat="46.26629" lon="10.44038">
        <ele>2078.93</ele>
        <time>2018-08-09T15:05:15Z</time>
      </trkpt>
      <trkpt lat="46.26634" lon="10.44048">
        <ele>2079.967</ele>
        <time>2018-08-09T15:05:35Z</time>
      </trkpt>
      <trkpt lat="46.26634" lon="10.44048">
        <ele>2080.09</ele>
        <time>2018-08-09T15:05:55Z</time>
      </trkpt>
      <trkpt lat="46.2664" lon="10.44057">
        <ele>2082.028</ele>
        <time>2018-08-09T15:06:15Z</time>
      </trkpt>
      <trkpt lat="46.2665" lon="10.44071">
        <ele>2083.589</ele>
        <time>2018-08-09T15:06:35Z</time>
      </trkpt>
      <trkpt lat="46.26656" lon="10.44084">
        <ele>2083.717</ele>
        <time>2018-08-09T15:06:55Z</time>
      </trkpt>
      <trkpt lat="46.26667" lon="10.44094">
        <ele>2086.208</ele>
        <time>2018-08-09T15:07:15Z</time>
      </trkpt>
      <trkpt lat="46.26675" lon="10.44101">
        <ele>2088.094</ele>
        <time>2018-08-09T15:07:35Z</time>
      </trkpt>
      <trkpt lat="46.26687" lon="10.44119">
        <ele>2090.299</ele>
        <time>2018-08-09T15:07:55Z</time>
      </trkpt>
      <trkpt lat="46.26692" lon="10.44133">
        <ele>2090.545</ele>
        <time>2018-08-09T15:08:15Z</time>
      </trkpt>
      <trkpt lat="46.26697" lon="10.44145">
        <ele>2092.089</ele>
        <time>2018-08-09T15:08:35Z</time>
      </trkpt>
      <trkpt lat="46.26699" lon="10.44162">
        <ele>2093.484</ele>
        <time>2018-08-09T15:08:55Z</time>
      </trkpt>
      <trkpt lat="46.26701" lon="10.44177">
        <ele>2095.565</ele>
        <time>2018-08-09T15:09:15Z</time>
      </trkpt>
      <trkpt lat="46.267" lon="10.4419">
        <ele>2097.062</ele>
        <time>2018-08-09T15:09:35Z</time>
      </trkpt>
      <trkpt lat="46.26696" lon="10.44211">
        <ele>2098.365</ele>
        <time>2018-08-09T15:09:55Z</time>
      </trkpt>
      <trkpt lat="46.26693" lon="10.44227">
        <ele>2098.326</ele>
        <time>2018-08-09T15:10:15Z</time>
      </trkpt>
      <trkpt lat="46.26687" lon="10.44246">
        <ele>2095.547</ele>
        <time>2018-08-09T15:10:35Z</time>
      </trkpt>
      <trkpt lat="46.2668" lon="10.44277">
        <ele>2094.611</ele>
        <time>2018-08-09T15:10:55Z</time>
      </trkpt>
      <trkpt lat="46.26671" lon="10.44306">
        <ele>2094.108</ele>
        <time>2018-08-09T15:11:15Z</time>
      </trkpt>
      <trkpt lat="46.26662" lon="10.44329">
        <ele>2091.484</ele>
        <time>2018-08-09T15:11:35Z</time>
      </trkpt>
      <trkpt lat="46.26645" lon="10.44357">
        <ele>2088.239</ele>
        <time>2018-08-09T15:11:55Z</time>
      </trkpt>
      <trkpt lat="46.26632" lon="10.44373">
        <ele>2085.245</ele>
        <time>2018-08-09T15:12:15Z</time>
      </trkpt>
      <trkpt lat="46.26625" lon="10.44393">
        <ele>2085.929</ele>
        <time>2018-08-09T15:12:35Z</time>
      </trkpt>
      <trkpt lat="46.26619" lon="10.44407">
        <ele>2085.064</ele>
        <time>2018-08-09T15:12:55Z</time>
      </trkpt>
      <trkpt lat="46.26613" lon="10.44417">
        <ele>2082.855</ele>
        <time>2018-08-09T15:13:15Z</time>
      </trkpt>
      <trkpt lat="46.26606" lon="10.44434">
        <ele>2081.972</ele>
        <time>2018-08-09T15:13:35Z</time>
      </trkpt>
      <trkpt lat="46.26602" lon="10.44448">
        <ele>2082.135</ele>
        <time>2018-08-09T15:13:55Z</time>
      </trkpt>
      <trkpt lat="46.26597" lon="10.44463">
        <ele>2081.653</ele>
        <time>2018-08-09T15:14:15Z</time>
      </trkpt>
      <trkpt lat="46.26592" lon="10.44474">
        <ele>2080.404</ele>
        <time>2018-08-09T15:14:35Z</time>
      </trkpt>
      <trkpt lat="46.26586" lon="10.44485">
        <ele>2078.314</ele>
        <time>2018-08-09T15:14:55Z</time>
      </trkpt>
      <trkpt lat="46.26579" lon="10.44516">
        <ele>2077.908</ele>
        <time>2018-08-09T15:15:15Z</time>
      </trkpt>
      <trkpt lat="46.26575" lon="10.44528">
        <ele>2078.257</ele>
        <time>2018-08-09T15:15:35Z</time>
      </trkpt>
      <trkpt lat="46.26571" lon="10.44543">
        <ele>2078.682</ele>
        <time>2018-08-09T15:15:55Z</time>
      </trkpt>
      <trkpt lat="46.26568" lon="10.4456">
        <ele>2079.298</ele>
        <time>2018-08-09T15:16:15Z</time>
      </trkpt>
      <trkpt lat="46.26567" lon="10.44575">
        <ele>2079.992</ele>
        <time>2018-08-09T15:16:35Z</time>
      </trkpt>
      <trkpt lat="46.26563" lon="10.44611">
        <ele>2081.397</ele>
        <time>2018-08-09T15:16:55Z</time>
      </trkpt>
      <trkpt lat="46.26561" lon="10.44623">
        <ele>2081.298</ele>
        <time>2018-08-09T15:17:15Z</time>
      </trkpt>
      <trkpt lat="46.26557" lon="10.44634">
        <ele>2080.435</ele>
        <time>2018-08-09T15:17:35Z</time>
      </trkpt>
      <trkpt lat="46.26554" lon="10.44645">
        <ele>2078.848</ele>
        <time>2018-08-09T15:17:55Z</time>
      </trkpt>
      <trkpt lat="46.26549" lon="10.44657">
        <ele>2076.193</ele>
        <time>2018-08-09T15:18:15Z</time>
      </trkpt>
      <trkpt lat="46.26541" lon="10.44695">
        <ele>2074.065</ele>
        <time>2018-08-09T15:18:35Z</time>
      </trkpt>
      <trkpt lat="46.26538" lon="10.44724">
        <ele>2074.221</ele>
        <time>2018-08-09T15:18:55Z</time>
      </trkpt>
      <trkpt lat="46.26536" lon="10.44739">
        <ele>2073.608</ele>
        <time>2018-08-09T15:19:15Z</time>
      </trkpt>
      <trkpt lat="46.26534" lon="10.4475">
        <ele>2073.111</ele>
        <time>2018-08-09T15:19:35Z</time>
      </trkpt>
      <trkpt lat="46.26532" lon="10.44768">
        <ele>2072.856</ele>
        <time>2018-08-09T15:19:55Z</time>
      </trkpt>
      <trkpt lat="46.2653" lon="10.44783">
        <ele>2072.232</ele>
        <time>2018-08-09T15:20:15Z</time>
      </trkpt>
      <trkpt lat="46.2653" lon="10.44789">
        <ele>2072.036</ele>
        <time>2018-08-09T15:20:35Z</time>
      </trkpt>
      <trkpt lat="46.26528" lon="10.44796">
        <ele>2070.831</ele>
        <time>2018-08-09T15:20:55Z</time>
      </trkpt>
      <trkpt lat="46.26524" lon="10.44811">
        <ele>2067.592</ele>
        <time>2018-08-09T15:21:15Z</time>
      </trkpt>
      <trkpt lat="46.26522" lon="10.44828">
        <ele>2064.739</ele>
        <time>2018-08-09T15:21:35Z</time>
      </trkpt>
      <trkpt lat="46.2652" lon="10.44838">
        <ele>2062.452</ele>
        <time>2018-08-09T15:21:55Z</time>
      </trkpt>
      <trkpt lat="46.26512" lon="10.44866">
        <ele>2056.193</ele>
        <time>2018-08-09T15:22:15Z</time>
      </trkpt>
      <trkpt lat="46.2651" lon="10.44879">
        <ele>2054.065</ele>
        <time>2018-08-09T15:22:35Z</time>
      </trkpt>
      <trkpt lat="46.26509" lon="10.44895">
        <ele>2052.821</ele>
        <time>2018-08-09T15:22:55Z</time>
      </trkpt>
      <trkpt lat="46.26508" lon="10.44909">
        <ele>2052.008</ele>
        <time>2018-08-09T15:23:15Z</time>
      </trkpt>
      <trkpt lat="46.26507" lon="10.44917">
        <ele>2051.451</ele>
        <time>2018-08-09T15:23:35Z</time>
      </trkpt>
      <trkpt lat="46.26506" lon="10.4493">
        <ele>2049.656</ele>
        <time>2018-08-09T15:23:55Z</time>
      </trkpt>
      <trkpt lat="46.26505" lon="10.44944">
        <ele>2047.762</ele>
        <time>2018-08-09T15:24:15Z</time>
      </trkpt>
      <trkpt lat="46.26508" lon="10.44964">
        <ele>2046.066</ele>
        <time>2018-08-09T15:24:35Z</time>
      </trkpt>
      <trkpt lat="46.26511" lon="10.44973">
        <ele>2045.941</ele>
        <time>2018-08-09T15:24:55Z</time>
      </trkpt>
      <trkpt lat="46.26518" lon="10.44986">
        <ele>2046.332</ele>
        <time>2018-08-09T15:25:15Z</time>
      </trkpt>
      <trkpt lat="46.26523" lon="10.44999">
        <ele>2046.549</ele>
        <time>2018-08-09T15:25:35Z</time>
      </trkpt>
      <trkpt lat="46.26529" lon="10.45009">
        <ele>2046.682</ele>
        <time>2018-08-09T15:25:55Z</time>
      </trkpt>
      <trkpt lat="46.26532" lon="10.45016">
        <ele>2046.098</ele>
        <time>2018-08-09T15:26:15Z</time>
      </trkpt>
      <trkpt lat="46.26535" lon="10.45028">
        <ele>2044.415</ele>
        <time>2018-08-09T15:26:35Z</time>
      </trkpt>
      <trkpt lat="46.26537" lon="10.45043">
        <ele>2042.326</ele>
        <time>2018-08-09T15:26:55Z</time>
      </trkpt>
      <trkpt lat="46.26532" lon="10.45054">
        <ele>2039.108</ele>
        <time>2018-08-09T15:27:15Z</time>
      </trkpt>
      <trkpt lat="46.26527" lon="10.45077">
        <ele>2033.951</ele>
        <time>2018-08-09T15:27:35Z</time>
      </trkpt>
      <trkpt lat="46.26516" lon="10.45091">
        <ele>2028.616</ele>
        <time>2018-08-09T15:27:55Z</time>
      </trkpt>
      <trkpt lat="46.26505" lon="10.45112">
        <ele>2021.162</ele>
        <time>2018-08-09T15:28:15Z</time>
      </trkpt>
      <trkpt lat="46.26499" lon="10.45126">
        <ele>2015.436</ele>
        <time>2018-08-09T15:28:35Z</time>
      </trkpt>
      <trkpt lat="46.26492" lon="10.45141">
        <ele>2010.261</ele>
        <time>2018-08-09T15:28:55Z</time>
      </trkpt>
      <trkpt lat="46.26489" lon="10.45148">
        <ele>2008.192</ele>
        <time>2018-08-09T15:29:15Z</time>
      </trkpt>
      <trkpt lat="46.2648" lon="10.45168">
        <ele>2002.339</ele>
        <time>2018-08-09T15:29:35Z</time>
      </trkpt>
      <trkpt lat="46.26474" lon="10.45187">
        <ele>1995.612</ele>
        <time>2018-08-09T15:29:55Z</time>
      </trkpt>
      <trkpt lat="46.26469" lon="10.45204">
        <ele>1989.718</ele>
        <time>2018-08-09T15:30:15Z</time>
      </trkpt>
      <trkpt lat="46.26456" lon="10.45231">
        <ele>1981.198</ele>
        <time>2018-08-09T15:30:35Z</time>
      </trkpt>
      <trkpt lat="46.26446" lon="10.45252">
        <ele>1976.517</ele>
        <time>2018-08-09T15:30:55Z</time>
      </trkpt>
      <trkpt lat="46.26432" lon="10.45291">
        <ele>1973.108</ele>
        <time>2018-08-09T15:31:15Z</time>
      </trkpt>
      <trkpt lat="46.26429" lon="10.45301">
        <ele>1973.043</ele>
        <time>2018-08-09T15:31:35Z</time>
      </trkpt>
      <trkpt lat="46.26429" lon="10.45312">
        <ele>1973.238</ele>
        <time>2018-08-09T15:31:55Z</time>
      </trkpt>
      <trkpt lat="46.26426" lon="10.45325">
        <ele>1972.784</ele>
        <time>2018-08-09T15:32:15Z</time>
      </trkpt>
      <trkpt lat="46.26413" lon="10.45339">
        <ele>1968.768</ele>
        <time>2018-08-09T15:32:35Z</time>
      </trkpt>
      <trkpt lat="46.264" lon="10.45351">
        <ele>1962.893</ele>
        <time>2018-08-09T15:32:55Z</time>
      </trkpt>
      <trkpt lat="46.26391" lon="10.45367">
        <ele>1958.414</ele>
        <time>2018-08-09T15:33:15Z</time>
      </trkpt>
      <trkpt lat="46.26382" lon="10.45372">
        <ele>1956.221</ele>
        <time>2018-08-09T15:33:35Z</time>
      </trkpt>
      <trkpt lat="46.26375" lon="10.45377">
        <ele>1954.544</ele>
        <time>2018-08-09T15:33:55Z</time>
      </trkpt>
      <trkpt lat="46.26366" lon="10.45389">
        <ele>1952.454</ele>
        <time>2018-08-09T15:34:15Z</time>
      </trkpt>
      <trkpt lat="46.26356" lon="10.45388">
        <ele>1949.956</ele>
        <time>2018-08-09T15:34:35Z</time>
      </trkpt>
      <trkpt lat="46.26345" lon="10.45385">
        <ele>1946.011</ele>
        <time>2018-08-09T15:34:55Z</time>
      </trkpt>
      <trkpt lat="46.26324" lon="10.45378">
        <ele>1939.408</ele>
        <time>2018-08-09T15:35:15Z</time>
      </trkpt>
      <trkpt lat="46.263" lon="10.45373">
        <ele>1931.797</ele>
        <time>2018-08-09T15:35:35Z</time>
      </trkpt>
      <trkpt lat="46.26293" lon="10.45377">
        <ele>1929.162</ele>
        <time>2018-08-09T15:35:55Z</time>
      </trkpt>
      <trkpt lat="46.26286" lon="10.45373">
        <ele>1926.738</ele>
        <time>2018-08-09T15:36:15Z</time>
      </trkpt>
      <trkpt lat="46.26279" lon="10.4537">
        <ele>1923.972</ele>
        <time>2018-08-09T15:36:35Z</time>
      </trkpt>
      <trkpt lat="46.26267" lon="10.45375">
        <ele>1920.337</ele>
        <time>2018-08-09T15:36:55Z</time>
      </trkpt>
      <trkpt lat="46.2626" lon="10.45378">
        <ele>1918.338</ele>
        <time>2018-08-09T15:37:15Z</time>
      </trkpt>
      <trkpt lat="46.26254" lon="10.45376">
        <ele>1916.185</ele>
        <time>2018-08-09T15:37:35Z</time>
      </trkpt>
      <trkpt lat="46.26239" lon="10.4537">
        <ele>1911.748</ele>
        <time>2018-08-09T15:37:55Z</time>
      </trkpt>
      <trkpt lat="46.26232" lon="10.45371">
        <ele>1910.122</ele>
        <time>2018-08-09T15:38:15Z</time>
      </trkpt>
      <trkpt lat="46.26224" lon="10.45369">
        <ele>1908.362</ele>
        <time>2018-08-09T15:38:35Z</time>
      </trkpt>
      <trkpt lat="46.26206" lon="10.45368">
        <ele>1904.708</ele>
        <time>2018-08-09T15:38:55Z</time>
      </trkpt>
      <trkpt lat="46.26186" lon="10.45377">
        <ele>1900.208</ele>
        <time>2018-08-09T15:39:15Z</time>
      </trkpt>
      <trkpt lat="46.26183" lon="10.45385">
        <ele>1899.684</ele>
        <time>2018-08-09T15:39:35Z</time>
      </trkpt>
      <trkpt lat="46.26182" lon="10.45401">
        <ele>1897.539</ele>
        <time>2018-08-09T15:39:55Z</time>
      </trkpt>
      <trkpt lat="46.26179" lon="10.45407">
        <ele>1895.285</ele>
        <time>2018-08-09T15:40:15Z</time>
      </trkpt>
      <trkpt lat="46.26173" lon="10.4541">
        <ele>1892.019</ele>
        <time>2018-08-09T15:40:35Z</time>
      </trkpt>
      <trkpt lat="46.26165" lon="10.45408">
        <ele>1889.214</ele>
        <time>2018-08-09T15:40:55Z</time>
      </trkpt>
      <trkpt lat="46.26155" lon="10.45401">
        <ele>1887.445</ele>
        <time>2018-08-09T15:41:15Z</time>
      </trkpt>
      <trkpt lat="46.2614" lon="10.45387">
        <ele>1884.472</ele>
        <time>2018-08-09T15:41:35Z</time>
      </trkpt>
      <trkpt lat="46.26132" lon="10.45373">
        <ele>1881.575</ele>
        <time>2018-08-09T15:41:55Z</time>
      </trkpt>
      <trkpt lat="46.26121" lon="10.45355">
        <ele>1877.647</ele>
        <time>2018-08-09T15:42:15Z</time>
      </trkpt>
      <trkpt lat="46.26113" lon="10.4534">
        <ele>1873.829</ele>
        <time>2018-08-09T15:42:35Z</time>
      </trkpt>
      <trkpt lat="46.26108" lon="10.45322">
        <ele>1867.821</ele>
        <time>2018-08-09T15:42:55Z</time>
      </trkpt>
      <trkpt lat="46.26101" lon="10.45321">
        <ele>1865.108</ele>
        <time>2018-08-09T15:43:15Z</time>
      </trkpt>
      <trkpt lat="46.26095" lon="10.45324">
        <ele>1864.086</ele>
        <time>2018-08-09T15:43:35Z</time>
      </trkpt>
      <trkpt lat="46.26087" lon="10.45328">
        <ele>1862.741</ele>
        <time>2018-08-09T15:43:55Z</time>
      </trkpt>
      <trkpt lat="46.26075" lon="10.45334">
        <ele>1859.197</ele>
        <time>2018-08-09T15:44:15Z</time>
      </trkpt>
      <trkpt lat="46.26068" lon="10.4534">
        <ele>1855.881</ele>
        <time>2018-08-09T15:44:35Z</time>
      </trkpt>
      <trkpt lat="46.26064" lon="10.45351">
        <ele>1853.866</ele>
        <time>2018-08-09T15:44:55Z</time>
      </trkpt>
      <trkpt lat="46.26063" lon="10.45363">
        <ele>1853.437</ele>
        <time>2018-08-09T15:45:15Z</time>
      </trkpt>
      <trkpt lat="46.26061" lon="10.4538">
        <ele>1852.314</ele>
        <time>2018-08-09T15:45:35Z</time>
      </trkpt>
      <trkpt lat="46.26058" lon="10.45397">
        <ele>1850.777</ele>
        <time>2018-08-09T15:45:55Z</time>
      </trkpt>
      <trkpt lat="46.26054" lon="10.4541">
        <ele>1847.748</ele>
        <time>2018-08-09T15:46:15Z</time>
      </trkpt>
      <trkpt lat="46.26046" lon="10.45427">
        <ele>1843.461</ele>
        <time>2018-08-09T15:46:35Z</time>
      </trkpt>
      <trkpt lat="46.26037" lon="10.45444">
        <ele>1840.217</ele>
        <time>2018-08-09T15:46:55Z</time>
      </trkpt>
      <trkpt lat="46.26031" lon="10.45471">
        <ele>1836.708</ele>
        <time>2018-08-09T15:47:15Z</time>
      </trkpt>
      <trkpt lat="46.26028" lon="10.45487">
        <ele>1834.826</ele>
        <time>2018-08-09T15:47:35Z</time>
      </trkpt>
      <trkpt lat="46.26027" lon="10.45504">
        <ele>1833.561</ele>
        <time>2018-08-09T15:47:55Z</time>
      </trkpt>
      <trkpt lat="46.26028" lon="10.45518">
        <ele>1832.627</ele>
        <time>2018-08-09T15:48:15Z</time>
      </trkpt>
      <trkpt lat="46.26033" lon="10.45531">
        <ele>1832.451</ele>
        <time>2018-08-09T15:48:35Z</time>
      </trkpt>
      <trkpt lat="46.26041" lon="10.4555">
        <ele>1831.996</ele>
        <time>2018-08-09T15:48:55Z</time>
      </trkpt>
      <trkpt lat="46.26055" lon="10.45565">
        <ele>1831.947</ele>
        <time>2018-08-09T15:49:15Z</time>
      </trkpt>
      <trkpt lat="46.26066" lon="10.45577">
        <ele>1831.894</ele>
        <time>2018-08-09T15:49:35Z</time>
      </trkpt>
      <trkpt lat="46.26077" lon="10.45592">
        <ele>1831.357</ele>
        <time>2018-08-09T15:49:55Z</time>
      </trkpt>
      <trkpt lat="46.26092" lon="10.45643">
        <ele>1826.858</ele>
        <time>2018-08-09T15:50:15Z</time>
      </trkpt>
      <trkpt lat="46.26096" lon="10.45657">
        <ele>1825.252</ele>
        <time>2018-08-09T15:50:35Z</time>
      </trkpt>
      <trkpt lat="46.26104" lon="10.45662">
        <ele>1826.217</ele>
        <time>2018-08-09T15:50:55Z</time>
      </trkpt>
      <trkpt lat="46.26111" lon="10.45676">
        <ele>1825.008</ele>
        <time>2018-08-09T15:51:15Z</time>
      </trkpt>
      <trkpt lat="46.26115" lon="10.45687">
        <ele>1823.477</ele>
        <time>2018-08-09T15:51:35Z</time>
      </trkpt>
      <trkpt lat="46.26125" lon="10.45701">
        <ele>1822.922</ele>
        <time>2018-08-09T15:51:55Z</time>
      </trkpt>
      <trkpt lat="46.26135" lon="10.45716">
        <ele>1822.318</ele>
        <time>2018-08-09T15:52:15Z</time>
      </trkpt>
      <trkpt lat="46.26148" lon="10.45738">
        <ele>1819.042</ele>
        <time>2018-08-09T15:52:35Z</time>
      </trkpt>
      <trkpt lat="46.26157" lon="10.45747">
        <ele>1817.597</ele>
        <time>2018-08-09T15:52:55Z</time>
      </trkpt>
      <trkpt lat="46.26164" lon="10.45752">
        <ele>1816.918</ele>
        <time>2018-08-09T15:53:15Z</time>
      </trkpt>
      <trkpt lat="46.26158" lon="10.45759">
        <ele>1813.945</ele>
        <time>2018-08-09T15:53:35Z</time>
      </trkpt>
      <trkpt lat="46.26152" lon="10.45764">
        <ele>1811.358</ele>
        <time>2018-08-09T15:53:55Z</time>
      </trkpt>
      <trkpt lat="46.2614" lon="10.45782">
        <ele>1803.683</ele>
        <time>2018-08-09T15:54:15Z</time>
      </trkpt>
      <trkpt lat="46.2614" lon="10.45782">
        <ele>1803.625</ele>
        <time>2018-08-09T15:54:35Z</time>
      </trkpt>
      <trkpt lat="46.26158" lon="10.45791">
        <ele>1803.517</ele>
        <time>2018-08-09T15:54:55Z</time>
      </trkpt>
      <trkpt lat="46.26163" lon="10.45791">
        <ele>1803.908</ele>
        <time>2018-08-09T15:55:15Z</time>
      </trkpt>
      <trkpt lat="46.26164" lon="10.45792">
        <ele>1804.02</ele>
        <time>2018-08-09T15:55:35Z</time>
      </trkpt>
      <trkpt lat="46.26183" lon="10.45814">
        <ele>1794.795</ele>
        <time>2018-08-09T15:55:55Z</time>
      </trkpt>
      <trkpt lat="46.26206" lon="10.45825">
        <ele>1787.461</ele>
        <time>2018-08-09T15:56:15Z</time>
      </trkpt>
      <trkpt lat="46.26219" lon="10.4583">
        <ele>1784.465</ele>
        <time>2018-08-09T15:56:35Z</time>
      </trkpt>
      <trkpt lat="46.2623" lon="10.45833">
        <ele>1781.87</ele>
        <time>2018-08-09T15:56:55Z</time>
      </trkpt>
      <trkpt lat="46.26254" lon="10.4584">
        <ele>1773.161</ele>
        <time>2018-08-09T15:57:15Z</time>
      </trkpt>
      <trkpt lat="46.26266" lon="10.45837">
        <ele>1770.778</ele>
        <time>2018-08-09T15:57:35Z</time>
      </trkpt>
      <trkpt lat="46.26279" lon="10.45841">
        <ele>1764.441</ele>
        <time>2018-08-09T15:57:55Z</time>
      </trkpt>
      <trkpt lat="46.26296" lon="10.45838">
        <ele>1760.063</ele>
        <time>2018-08-09T15:58:15Z</time>
      </trkpt>
      <trkpt lat="46.26308" lon="10.45839">
        <ele>1755.444</ele>
        <time>2018-08-09T15:58:35Z</time>
      </trkpt>
      <trkpt lat="46.26337" lon="10.4584">
        <ele>1743.518</ele>
        <time>2018-08-09T15:58:55Z</time>
      </trkpt>
      <trkpt lat="46.26394" lon="10.45843">
        <ele>1725.408</ele>
        <time>2018-08-09T15:59:15Z</time>
      </trkpt>
      <trkpt lat="46.26426" lon="10.45848">
        <ele>1715.278</ele>
        <time>2018-08-09T15:59:35Z</time>
      </trkpt>
      <trkpt lat="46.2643" lon="10.45848">
        <ele>1714.493</ele>
        <time>2018-08-09T15:59:55Z</time>
      </trkpt>
      <trkpt lat="46.26433" lon="10.45854">
        <ele>1711.949</ele>
        <time>2018-08-09T16:00:15Z</time>
      </trkpt>
      <trkpt lat="46.26428" lon="10.45867">
        <ele>1709.353</ele>
        <time>2018-08-09T16:00:35Z</time>
      </trkpt>
      <trkpt lat="46.26421" lon="10.45874">
        <ele>1708.698</ele>
        <time>2018-08-09T16:00:55Z</time>
      </trkpt>
      <trkpt lat="46.2642" lon="10.45876">
        <ele>1708.239</ele>
        <time>2018-08-09T16:01:15Z</time>
      </trkpt>
      <trkpt lat="46.26414" lon="10.45888">
        <ele>1706.056</ele>
        <time>2018-08-09T16:01:35Z</time>
      </trkpt>
      <trkpt lat="46.26421" lon="10.45905">
        <ele>1699.399</ele>
        <time>2018-08-09T16:01:55Z</time>
      </trkpt>
      <trkpt lat="46.26393" lon="10.45924">
        <ele>1700.666</ele>
        <time>2018-08-09T16:02:15Z</time>
      </trkpt>
      <trkpt lat="46.26389" lon="10.45926">
        <ele>1701.329</ele>
        <time>2018-08-09T16:02:35Z</time>
      </trkpt>
      <trkpt lat="46.26379" lon="10.45943">
        <ele>1698.821</ele>
        <time>2018-08-09T16:02:55Z</time>
      </trkpt>
      <trkpt lat="46.26358" lon="10.45993">
        <ele>1691.408</ele>
        <time>2018-08-09T16:03:15Z</time>
      </trkpt>
      <trkpt lat="46.26349" lon="10.46023">
        <ele>1686.158</ele>
        <time>2018-08-09T16:03:35Z</time>
      </trkpt>
      <trkpt lat="46.26347" lon="10.46035">
        <ele>1683.793</ele>
        <time>2018-08-09T16:03:55Z</time>
      </trkpt>
      <trkpt lat="46.26346" lon="10.46051">
        <ele>1679.889</ele>
        <time>2018-08-09T16:04:15Z</time>
      </trkpt>
      <trkpt lat="46.26345" lon="10.46064">
        <ele>1676.933</ele>
        <time>2018-08-09T16:04:35Z</time>
      </trkpt>
      <trkpt lat="46.26346" lon="10.46074">
        <ele>1674.448</ele>
        <time>2018-08-09T16:04:55Z</time>
      </trkpt>
      <trkpt lat="46.26348" lon="10.46083">
        <ele>1671.839</ele>
        <time>2018-08-09T16:05:15Z</time>
      </trkpt>
      <trkpt lat="46.26351" lon="10.46087">
        <ele>1670.756</ele>
        <time>2018-08-09T16:05:35Z</time>
      </trkpt>
      <trkpt lat="46.26356" lon="10.46081">
        <ele>1671.289</ele>
        <time>2018-08-09T16:05:55Z</time>
      </trkpt>
      <trkpt lat="46.26375" lon="10.46054">
        <ele>1673.329</ele>
        <time>2018-08-09T16:06:15Z</time>
      </trkpt>
      <trkpt lat="46.26385" lon="10.46039">
        <ele>1674.1</ele>
        <time>2018-08-09T16:06:35Z</time>
      </trkpt>
      <trkpt lat="46.2639" lon="10.46028">
        <ele>1674.82</ele>
        <time>2018-08-09T16:06:55Z</time>
      </trkpt>
      <trkpt lat="46.26395" lon="10.46017">
        <ele>1676.108</ele>
        <time>2018-08-09T16:07:15Z</time>
      </trkpt>
      <trkpt lat="46.264" lon="10.4601">
        <ele>1676.584</ele>
        <time>2018-08-09T16:07:35Z</time>
      </trkpt>
      <trkpt lat="46.2641" lon="10.46007">
        <ele>1674.779</ele>
        <time>2018-08-09T16:07:55Z</time>
      </trkpt>
      <trkpt lat="46.26427" lon="10.46004">
        <ele>1672.415</ele>
        <time>2018-08-09T16:08:15Z</time>
      </trkpt>
      <trkpt lat="46.26438" lon="10.45992">
        <ele>1672.749</ele>
        <time>2018-08-09T16:08:35Z</time>
      </trkpt>
      <trkpt lat="46.26446" lon="10.45977">
        <ele>1673.334</ele>
        <time>2018-08-09T16:08:55Z</time>
      </trkpt>
      <trkpt lat="46.26455" lon="10.45959">
        <ele>1675.735</ele>
        <time>2018-08-09T16:09:15Z</time>
      </trkpt>
      <trkpt lat="46.26462" lon="10.45948">
        <ele>1676.182</ele>
        <time>2018-08-09T16:09:35Z</time>
      </trkpt>
      <trkpt lat="46.2647" lon="10.4594">
        <ele>1675.655</ele>
        <time>2018-08-09T16:09:55Z</time>
      </trkpt>
      <trkpt lat="46.26486" lon="10.45931">
        <ele>1675.182</ele>
        <time>2018-08-09T16:10:15Z</time>
      </trkpt>
      <trkpt lat="46.26493" lon="10.45927">
        <ele>1674.443</ele>
        <time>2018-08-09T16:10:35Z</time>
      </trkpt>
      <trkpt lat="46.26502" lon="10.45924">
        <ele>1673.517</ele>
        <time>2018-08-09T16:10:55Z</time>
      </trkpt>
      <trkpt lat="46.26512" lon="10.45917">
        <ele>1674.008</ele>
        <time>2018-08-09T16:11:15Z</time>
      </trkpt>
      <trkpt lat="46.26534" lon="10.45895">
        <ele>1674.81</ele>
        <time>2018-08-09T16:11:35Z</time>
      </trkpt>
      <trkpt lat="46.26553" lon="10.45877">
        <ele>1675.195</ele>
        <time>2018-08-09T16:11:55Z</time>
      </trkpt>
      <trkpt lat="46.26561" lon="10.45869">
        <ele>1675.061</ele>
        <time>2018-08-09T16:12:15Z</time>
      </trkpt>
      <trkpt lat="46.26566" lon="10.45866">
        <ele>1675.095</ele>
        <time>2018-08-09T16:12:35Z</time>
      </trkpt>
      <trkpt lat="46.26571" lon="10.45866">
        <ele>1675.05</ele>
        <time>2018-08-09T16:12:55Z</time>
      </trkpt>
      <trkpt lat="46.26573" lon="10.45871">
        <ele>1675.091</ele>
        <time>2018-08-09T16:13:15Z</time>
      </trkpt>
      <trkpt lat="46.26578" lon="10.45893">
        <ele>1675.028</ele>
        <time>2018-08-09T16:13:35Z</time>
      </trkpt>
      <trkpt lat="46.26584" lon="10.45903">
        <ele>1675.021</ele>
        <time>2018-08-09T16:13:55Z</time>
      </trkpt>
      <trkpt lat="46.2659" lon="10.45919">
        <ele>1675.073</ele>
        <time>2018-08-09T16:14:15Z</time>
      </trkpt>
      <trkpt lat="46.26597" lon="10.45946">
        <ele>1675.085</ele>
        <time>2018-08-09T16:14:35Z</time>
      </trkpt>
      <trkpt lat="46.26601" lon="10.45963">
        <ele>1675.013</ele>
        <time>2018-08-09T16:14:55Z</time>
      </trkpt>
      <trkpt lat="46.26603" lon="10.45975">
        <ele>1675.008</ele>
        <time>2018-08-09T16:15:15Z</time>
      </trkpt>
      <trkpt lat="46.26604" lon="10.4599">
        <ele>1675.079</ele>
        <time>2018-08-09T16:15:35Z</time>
      </trkpt>
      <trkpt lat="46.26603" lon="10.46008">
        <ele>1675.024</ele>
        <time>2018-08-09T16:15:55Z</time>
      </trkpt>
      <trkpt lat="46.26601" lon="10.46026">
        <ele>1675.02</ele>
        <time>2018-08-09T16:16:15Z</time>
      </trkpt>
      <trkpt lat="46.26601" lon="10.46045">
        <ele>1675.024</ele>
        <time>2018-08-09T16:16:35Z</time>
      </trkpt>
      <trkpt lat="46.26597" lon="10.46061">
        <ele>1675.179</ele>
        <time>2018-08-09T16:16:55Z</time>
      </trkpt>
      <trkpt lat="46.2659" lon="10.46083">
        <ele>1675.44</ele>
        <time>2018-08-09T16:17:15Z</time>
      </trkpt>
      <trkpt lat="46.26614" lon="10.46036">
        <ele>1676.177</ele>
        <time>2018-08-09T16:17:35Z</time>
      </trkpt>
      <trkpt lat="46.26638" lon="10.45985">
        <ele>1682.74</ele>
        <time>2018-08-09T16:17:55Z</time>
      </trkpt>
      <trkpt lat="46.26675" lon="10.45922">
        <ele>1683.347</ele>
        <time>2018-08-09T16:18:15Z</time>
      </trkpt>
      <trkpt lat="46.26685" lon="10.45882">
        <ele>1682.129</ele>
        <time>2018-08-09T16:18:35Z</time>
      </trkpt>
      <trkpt lat="46.267" lon="10.45846">
        <ele>1681.921</ele>
        <time>2018-08-09T16:18:55Z</time>
      </trkpt>
      <trkpt lat="46.26706" lon="10.4582">
        <ele>1681.908</ele>
        <time>2018-08-09T16:19:15Z</time>
      </trkpt>
      <trkpt lat="46.26732" lon="10.45789">
        <ele>1689.226</ele>
        <time>2018-08-09T16:19:35Z</time>
      </trkpt>
      <trkpt lat="46.26832" lon="10.45723">
        <ele>1700.051</ele>
        <time>2018-08-09T16:19:55Z</time>
      </trkpt>
      <trkpt lat="46.26879" lon="10.45675">
        <ele>1710.887</ele>
        <time>2018-08-09T16:20:15Z</time>
      </trkpt>
      <trkpt lat="46.2692" lon="10.4565">
        <ele>1717.611</ele>
        <time>2018-08-09T16:20:35Z</time>
      </trkpt>
      <trkpt lat="46.26936" lon="10.4565">
        <ele>1719.556</ele>
        <time>2018-08-09T16:20:55Z</time>
      </trkpt>
      <trkpt lat="46.26964" lon="10.45628">
        <ele>1722.777</ele>
        <time>2018-08-09T16:21:15Z</time>
      </trkpt>
      <trkpt lat="46.27012" lon="10.45575">
        <ele>1726.544</ele>
        <time>2018-08-09T16:21:35Z</time>
      </trkpt>
      <trkpt lat="46.27035" lon="10.45548">
        <ele>1729.527</ele>
        <time>2018-08-09T16:21:55Z</time>
      </trkpt>
      <trkpt lat="46.27059" lon="10.45528">
        <ele>1736.552</ele>
        <time>2018-08-09T16:22:15Z</time>
      </trkpt>
      <trkpt lat="46.27082" lon="10.45511">
        <ele>1741.053</ele>
        <time>2018-08-09T16:22:35Z</time>
      </trkpt>
      <trkpt lat="46.27136" lon="10.45478">
        <ele>1749.608</ele>
        <time>2018-08-09T16:22:55Z</time>
      </trkpt>
      <trkpt lat="46.2717" lon="10.45448">
        <ele>1750.008</ele>
        <time>2018-08-09T16:23:15Z</time>
      </trkpt>
      <trkpt lat="46.27193" lon="10.45415">
        <ele>1750.077</ele>
        <time>2018-08-09T16:23:35Z</time>
      </trkpt>
      <trkpt lat="46.27218" lon="10.45391">
        <ele>1750.032</ele>
        <time>2018-08-09T16:23:55Z</time>
      </trkpt>
      <trkpt lat="46.27235" lon="10.45382">
        <ele>1751.048</ele>
        <time>2018-08-09T16:24:15Z</time>
      </trkpt>
      <trkpt lat="46.27245" lon="10.45382">
        <ele>1751.662</ele>
        <time>2018-08-09T16:24:35Z</time>
      </trkpt>
      <trkpt lat="46.27256" lon="10.45382">
        <ele>1752.627</ele>
        <time>2018-08-09T16:24:55Z</time>
      </trkpt>
      <trkpt lat="46.27295" lon="10.45383">
        <ele>1756.878</ele>
        <time>2018-08-09T16:25:15Z</time>
      </trkpt>
      <trkpt lat="46.27346" lon="10.45395">
        <ele>1763.685</ele>
        <time>2018-08-09T16:25:35Z</time>
      </trkpt>
      <trkpt lat="46.27383" lon="10.45375">
        <ele>1766.368</ele>
        <time>2018-08-09T16:25:55Z</time>
      </trkpt>
      <trkpt lat="46.27412" lon="10.45328">
        <ele>1769.896</ele>
        <time>2018-08-09T16:26:15Z</time>
      </trkpt>
      <trkpt lat="46.27437" lon="10.45285">
        <ele>1773.231</ele>
        <time>2018-08-09T16:26:35Z</time>
      </trkpt>
      <trkpt lat="46.27462" lon="10.45301">
        <ele>1774.224</ele>
        <time>2018-08-09T16:26:55Z</time>
      </trkpt>
      <trkpt lat="46.27467" lon="10.45309">
        <ele>1774.608</ele>
        <time>2018-08-09T16:27:15Z</time>
      </trkpt>
      <trkpt lat="46.27475" lon="10.45324">
        <ele>1775.011</ele>
        <time>2018-08-09T16:27:35Z</time>
      </trkpt>
      <trkpt lat="46.27478" lon="10.45351">
        <ele>1775.546</ele>
        <time>2018-08-09T16:27:55Z</time>
      </trkpt>
      <trkpt lat="46.27475" lon="10.45378">
        <ele>1779.862</ele>
        <time>2018-08-09T16:28:15Z</time>
      </trkpt>
      <trkpt lat="46.27469" lon="10.45401">
        <ele>1786.496</ele>
        <time>2018-08-09T16:28:35Z</time>
      </trkpt>
      <trkpt lat="46.27461" lon="10.45426">
        <ele>1792.861</ele>
        <time>2018-08-09T16:28:55Z</time>
      </trkpt>
      <trkpt lat="46.27455" lon="10.45451">
        <ele>1798.632</ele>
        <time>2018-08-09T16:29:15Z</time>
      </trkpt>
      <trkpt lat="46.2745" lon="10.45476">
        <ele>1804.399</ele>
        <time>2018-08-09T16:29:35Z</time>
      </trkpt>
      <trkpt lat="46.27446" lon="10.45502">
        <ele>1809.642</ele>
        <time>2018-08-09T16:29:55Z</time>
      </trkpt>
      <trkpt lat="46.27431" lon="10.45517">
        <ele>1808.943</ele>
        <time>2018-08-09T16:30:15Z</time>
      </trkpt>
      <trkpt lat="46.27418" lon="10.45551">
        <ele>1814.864</ele>
        <time>2018-08-09T16:30:35Z</time>
      </trkpt>
      <trkpt lat="46.27406" lon="10.45576">
        <ele>1819.81</ele>
        <time>2018-08-09T16:30:55Z</time>
      </trkpt>
      <trkpt lat="46.27402" lon="10.45594">
        <ele>1823.708</ele>
        <time>2018-08-09T16:31:15Z</time>
      </trkpt>
      <trkpt lat="46.27395" lon="10.4561">
        <ele>1827.096</ele>
        <time>2018-08-09T16:31:35Z</time>
      </trkpt>
      <trkpt lat="46.27385" lon="10.45634">
        <ele>1830.451</ele>
        <time>2018-08-09T16:31:55Z</time>
      </trkpt>
      <trkpt lat="46.27374" lon="10.45658">
        <ele>1832.757</ele>
        <time>2018-08-09T16:32:15Z</time>
      </trkpt>
      <trkpt lat="46.27371" lon="10.45683">
        <ele>1837.131</ele>
        <time>2018-08-09T16:32:35Z</time>
      </trkpt>
      <trkpt lat="46.27371" lon="10.45684">
        <ele>1837.196</ele>
        <time>2018-08-09T16:32:55Z</time>
      </trkpt>
      <trkpt lat="46.27372" lon="10.4571">
        <ele>1842.357</ele>
        <time>2018-08-09T16:33:15Z</time>
      </trkpt>
      <trkpt lat="46.27356" lon="10.45725">
        <ele>1842.224</ele>
        <time>2018-08-09T16:33:35Z</time>
      </trkpt>
      <trkpt lat="46.27348" lon="10.4575">
        <ele>1845.577</ele>
        <time>2018-08-09T16:33:55Z</time>
      </trkpt>
      <trkpt lat="46.27337" lon="10.4577">
        <ele>1848.787</ele>
        <time>2018-08-09T16:34:15Z</time>
      </trkpt>
      <trkpt lat="46.27329" lon="10.45794">
        <ele>1852.742</ele>
        <time>2018-08-09T16:34:35Z</time>
      </trkpt>
      <trkpt lat="46.27319" lon="10.45818">
        <ele>1855.926</ele>
        <time>2018-08-09T16:34:55Z</time>
      </trkpt>
      <trkpt lat="46.27315" lon="10.45843">
        <ele>1861.908</ele>
        <time>2018-08-09T16:35:15Z</time>
      </trkpt>
      <trkpt lat="46.27309" lon="10.45868">
        <ele>1867.44</ele>
        <time>2018-08-09T16:35:35Z</time>
      </trkpt>
      <trkpt lat="46.27299" lon="10.45891">
        <ele>1870.665</ele>
        <time>2018-08-09T16:35:55Z</time>
      </trkpt>
      <trkpt lat="46.27294" lon="10.45916">
        <ele>1876.851</ele>
        <time>2018-08-09T16:36:15Z</time>
      </trkpt>
      <trkpt lat="46.27273" lon="10.45939">
        <ele>1874.325</ele>
        <time>2018-08-09T16:36:35Z</time>
      </trkpt>
      <trkpt lat="46.27266" lon="10.45952">
        <ele>1875.73</ele>
        <time>2018-08-09T16:36:55Z</time>
      </trkpt>
      <trkpt lat="46.27264" lon="10.4598">
        <ele>1884.091</ele>
        <time>2018-08-09T16:37:15Z</time>
      </trkpt>
      <trkpt lat="46.27262" lon="10.45987">
        <ele>1885.638</ele>
        <time>2018-08-09T16:37:35Z</time>
      </trkpt>
      <trkpt lat="46.27253" lon="10.45988">
        <ele>1881.661</ele>
        <time>2018-08-09T16:37:55Z</time>
      </trkpt>
      <trkpt lat="46.2725" lon="10.45994">
        <ele>1881.775</ele>
        <time>2018-08-09T16:38:15Z</time>
      </trkpt>
      <trkpt lat="46.27248" lon="10.46">
        <ele>1882.728</ele>
        <time>2018-08-09T16:38:35Z</time>
      </trkpt>
      <trkpt lat="46.27247" lon="10.46007">
        <ele>1884.32</ele>
        <time>2018-08-09T16:38:55Z</time>
      </trkpt>
      <trkpt lat="46.27246" lon="10.46016">
        <ele>1886.808</ele>
        <time>2018-08-09T16:39:15Z</time>
      </trkpt>
      <trkpt lat="46.27242" lon="10.46023">
        <ele>1885.989</ele>
        <time>2018-08-09T16:39:35Z</time>
      </trkpt>
      <trkpt lat="46.2724" lon="10.46029">
        <ele>1886.664</ele>
        <time>2018-08-09T16:39:55Z</time>
      </trkpt>
      <trkpt lat="46.27237" lon="10.46039">
        <ele>1887.62</ele>
        <time>2018-08-09T16:40:15Z</time>
      </trkpt>
      <trkpt lat="46.27238" lon="10.46047">
        <ele>1891.294</ele>
        <time>2018-08-09T16:40:35Z</time>
      </trkpt>
      <trkpt lat="46.27236" lon="10.46052">
        <ele>1891.849</ele>
        <time>2018-08-09T16:40:55Z</time>
      </trkpt>
      <trkpt lat="46.27238" lon="10.46057">
        <ele>1894.41</ele>
        <time>2018-08-09T16:41:15Z</time>
      </trkpt>
      <trkpt lat="46.27238" lon="10.46064">
        <ele>1896.627</ele>
        <time>2018-08-09T16:41:35Z</time>
      </trkpt>
      <trkpt lat="46.27238" lon="10.4607">
        <ele>1898.82</ele>
        <time>2018-08-09T16:41:55Z</time>
      </trkpt>
      <trkpt lat="46.2724" lon="10.46077">
        <ele>1902.343</ele>
        <time>2018-08-09T16:42:15Z</time>
      </trkpt>
      <trkpt lat="46.27238" lon="10.46086">
        <ele>1903.464</ele>
        <time>2018-08-09T16:42:35Z</time>
      </trkpt>
      <trkpt lat="46.27235" lon="10.46095">
        <ele>1904.11</ele>
        <time>2018-08-09T16:42:55Z</time>
      </trkpt>
      <trkpt lat="46.27231" lon="10.46106">
        <ele>1905.208</ele>
        <time>2018-08-09T16:43:15Z</time>
      </trkpt>
      <trkpt lat="46.27231" lon="10.46115">
        <ele>1907.296</ele>
        <time>2018-08-09T16:43:35Z</time>
      </trkpt>
      <trkpt lat="46.2723" lon="10.46125">
        <ele>1909.171</ele>
        <time>2018-08-09T16:43:55Z</time>
      </trkpt>
      <trkpt lat="46.27238" lon="10.46135">
        <ele>1915.997</ele>
        <time>2018-08-09T16:44:15Z</time>
      </trkpt>
      <trkpt lat="46.2724" lon="10.46136">
        <ele>1917.291</ele>
        <time>2018-08-09T16:44:35Z</time>
      </trkpt>
      <trkpt lat="46.27257" lon="10.46131">
        <ele>1923.756</ele>
        <time>2018-08-09T16:44:55Z</time>
      </trkpt>
      <trkpt lat="46.2725" lon="10.46156">
        <ele>1926.717</ele>
        <time>2018-08-09T16:45:15Z</time>
      </trkpt>
      <trkpt lat="46.27248" lon="10.46161">
        <ele>1926.544</ele>
        <time>2018-08-09T16:45:35Z</time>
      </trkpt>
      <trkpt lat="46.27242" lon="10.46186">
        <ele>1929.897</ele>
        <time>2018-08-09T16:45:55Z</time>
      </trkpt>
      <trkpt lat="46.27238" lon="10.46211">
        <ele>1934.244</ele>
        <time>2018-08-09T16:46:15Z</time>
      </trkpt>
      <trkpt lat="46.27202" lon="10.46314">
        <ele>1945.805</ele>
        <time>2018-08-09T16:46:35Z</time>
      </trkpt>
      <trkpt lat="46.272" lon="10.46341">
        <ele>1952.615</ele>
        <time>2018-08-09T16:46:55Z</time>
      </trkpt>
      <trkpt lat="46.27192" lon="10.46365">
        <ele>1955.108</ele>
        <time>2018-08-09T16:47:15Z</time>
      </trkpt>
      <trkpt lat="46.27189" lon="10.46391">
        <ele>1960.996</ele>
        <time>2018-08-09T16:47:35Z</time>
      </trkpt>
      <trkpt lat="46.27185" lon="10.46417">
        <ele>1966.331</ele>
        <time>2018-08-09T16:47:55Z</time>
      </trkpt>
      <trkpt lat="46.27176" lon="10.4644">
        <ele>1970.227</ele>
        <time>2018-08-09T16:48:15Z</time>
      </trkpt>
      <trkpt lat="46.27162" lon="10.46458">
        <ele>1970.621</ele>
        <time>2018-08-09T16:48:35Z</time>
      </trkpt>
      <trkpt lat="46.27152" lon="10.4648">
        <ele>1972.146</ele>
        <time>2018-08-09T16:48:55Z</time>
      </trkpt>
      <trkpt lat="46.27148" lon="10.46489">
        <ele>1973.047</ele>
        <time>2018-08-09T16:49:15Z</time>
      </trkpt>
      <trkpt lat="46.27142" lon="10.46502">
        <ele>1974.784</ele>
        <time>2018-08-09T16:49:35Z</time>
      </trkpt>
      <trkpt lat="46.27129" lon="10.46521">
        <ele>1975.317</ele>
        <time>2018-08-09T16:49:55Z</time>
      </trkpt>
      <trkpt lat="46.27116" lon="10.46539">
        <ele>1976.349</ele>
        <time>2018-08-09T16:50:15Z</time>
      </trkpt>
      <trkpt lat="46.27107" lon="10.46563">
        <ele>1981.102</ele>
        <time>2018-08-09T16:50:35Z</time>
      </trkpt>
      <trkpt lat="46.27093" lon="10.4658">
        <ele>1982.722</ele>
        <time>2018-08-09T16:50:55Z</time>
      </trkpt>
      <trkpt lat="46.27082" lon="10.46602">
        <ele>1987.308</ele>
        <time>2018-08-09T16:51:15Z</time>
      </trkpt>
      <trkpt lat="46.27073" lon="10.46625">
        <ele>1991.916</ele>
        <time>2018-08-09T16:51:35Z</time>
      </trkpt>
      <trkpt lat="46.27062" lon="10.46646">
        <ele>1994.891</ele>
        <time>2018-08-09T16:51:55Z</time>
      </trkpt>
      <trkpt lat="46.27049" lon="10.46666">
        <ele>1995.487</ele>
        <time>2018-08-09T16:52:15Z</time>
      </trkpt>
      <trkpt lat="46.27042" lon="10.4669">
        <ele>1995.931</ele>
        <time>2018-08-09T16:52:35Z</time>
      </trkpt>
      <trkpt lat="46.27036" lon="10.46715">
        <ele>1998.366</ele>
        <time>2018-08-09T16:52:55Z</time>
      </trkpt>
      <trkpt lat="46.2703" lon="10.4674">
        <ele>2000.117</ele>
        <time>2018-08-09T16:53:15Z</time>
      </trkpt>
      <trkpt lat="46.27027" lon="10.46761">
        <ele>2004.044</ele>
        <time>2018-08-09T16:53:35Z</time>
      </trkpt>
      <trkpt lat="46.27026" lon="10.46767">
        <ele>2005.687</ele>
        <time>2018-08-09T16:53:55Z</time>
      </trkpt>
      <trkpt lat="46.27024" lon="10.46779">
        <ele>2008.784</ele>
        <time>2018-08-09T16:54:15Z</time>
      </trkpt>
      <trkpt lat="46.27023" lon="10.46793">
        <ele>2012.507</ele>
        <time>2018-08-09T16:54:35Z</time>
      </trkpt>
      <trkpt lat="46.27013" lon="10.46816">
        <ele>2015.617</ele>
        <time>2018-08-09T16:54:55Z</time>
      </trkpt>
      <trkpt lat="46.27008" lon="10.46841">
        <ele>2022.708</ele>
        <time>2018-08-09T16:55:15Z</time>
      </trkpt>
      <trkpt lat="46.27005" lon="10.46845">
        <ele>2022.99</ele>
        <time>2018-08-09T16:55:35Z</time>
      </trkpt>
      <trkpt lat="46.26995" lon="10.46857">
        <ele>2024.795</ele>
        <time>2018-08-09T16:55:55Z</time>
      </trkpt>
      <trkpt lat="46.26994" lon="10.46858">
        <ele>2024.961</ele>
        <time>2018-08-09T16:56:15Z</time>
      </trkpt>
      <trkpt lat="46.26985" lon="10.46881">
        <ele>2030.625</ele>
        <time>2018-08-09T16:56:35Z</time>
      </trkpt>
      <trkpt lat="46.26974" lon="10.46904">
        <ele>2035.94</ele>
        <time>2018-08-09T16:56:55Z</time>
      </trkpt>
      <trkpt lat="46.26961" lon="10.46924">
        <ele>2042.141</ele>
        <time>2018-08-09T16:57:15Z</time>
      </trkpt>
      <trkpt lat="46.26948" lon="10.46941">
        <ele>2048.788</ele>
        <time>2018-08-09T16:57:35Z</time>
      </trkpt>
      <trkpt lat="46.26947" lon="10.46944">
        <ele>2049.671</ele>
        <time>2018-08-09T16:57:55Z</time>
      </trkpt>
      <trkpt lat="46.26938" lon="10.46964">
        <ele>2052.364</ele>
        <time>2018-08-09T16:58:15Z</time>
      </trkpt>
      <trkpt lat="46.26946" lon="10.46969">
        <ele>2054.506</ele>
        <time>2018-08-09T16:58:35Z</time>
      </trkpt>
      <trkpt lat="46.26952" lon="10.46975">
        <ele>2056.116</ele>
        <time>2018-08-09T16:58:55Z</time>
      </trkpt>
      <trkpt lat="46.26959" lon="10.46976">
        <ele>2056.908</ele>
        <time>2018-08-09T16:59:15Z</time>
      </trkpt>
      <trkpt lat="46.26967" lon="10.46977">
        <ele>2057.978</ele>
        <time>2018-08-09T16:59:35Z</time>
      </trkpt>
      <trkpt lat="46.26972" lon="10.46978">
        <ele>2058.693</ele>
        <time>2018-08-09T16:59:55Z</time>
      </trkpt>
      <trkpt lat="46.26977" lon="10.46978">
        <ele>2059.799</ele>
        <time>2018-08-09T17:00:15Z</time>
      </trkpt>
      <trkpt lat="46.26974" lon="10.46987">
        <ele>2061.833</ele>
        <time>2018-08-09T17:00:35Z</time>
      </trkpt>
      <trkpt lat="46.26969" lon="10.46997">
        <ele>2063.648</ele>
        <time>2018-08-09T17:00:55Z</time>
      </trkpt>
      <trkpt lat="46.26968" lon="10.46999">
        <ele>2064.239</ele>
        <time>2018-08-09T17:01:15Z</time>
      </trkpt>
      <trkpt lat="46.26952" lon="10.47044">
        <ele>2072.336</ele>
        <time>2018-08-09T17:01:35Z</time>
      </trkpt>
      <trkpt lat="46.2695" lon="10.47049">
        <ele>2072.749</ele>
        <time>2018-08-09T17:01:55Z</time>
      </trkpt>
      <trkpt lat="46.26946" lon="10.47059">
        <ele>2074.237</ele>
        <time>2018-08-09T17:02:15Z</time>
      </trkpt>
      <trkpt lat="46.26944" lon="10.47066">
        <ele>2075.349</ele>
        <time>2018-08-09T17:02:35Z</time>
      </trkpt>
      <trkpt lat="46.26944" lon="10.47073">
        <ele>2077.113</ele>
        <time>2018-08-09T17:02:55Z</time>
      </trkpt>
      <trkpt lat="46.26944" lon="10.4708">
        <ele>2078.708</ele>
        <time>2018-08-09T17:03:15Z</time>
      </trkpt>
      <trkpt lat="46.26942" lon="10.47087">
        <ele>2080.115</ele>
        <time>2018-08-09T17:03:35Z</time>
      </trkpt>
      <trkpt lat="46.26941" lon="10.47094">
        <ele>2081.27</ele>
        <time>2018-08-09T17:03:55Z</time>
      </trkpt>
      <trkpt lat="46.2694" lon="10.47102">
        <ele>2082.496</ele>
        <time>2018-08-09T17:04:15Z</time>
      </trkpt>
      <trkpt lat="46.26939" lon="10.47109">
        <ele>2083.58</ele>
        <time>2018-08-09T17:04:35Z</time>
      </trkpt>
      <trkpt lat="46.26938" lon="10.47117">
        <ele>2085.015</ele>
        <time>2018-08-09T17:04:55Z</time>
      </trkpt>
      <trkpt lat="46.26937" lon="10.47123">
        <ele>2085.826</ele>
        <time>2018-08-09T17:05:15Z</time>
      </trkpt>
      <trkpt lat="46.26936" lon="10.47131">
        <ele>2087.373</ele>
        <time>2018-08-09T17:05:35Z</time>
      </trkpt>
      <trkpt lat="46.26935" lon="10.47139">
        <ele>2088.946</ele>
        <time>2018-08-09T17:05:55Z</time>
      </trkpt>
      <trkpt lat="46.26935" lon="10.47145">
        <ele>2090.371</ele>
        <time>2018-08-09T17:06:15Z</time>
      </trkpt>
      <trkpt lat="46.26935" lon="10.47152">
        <ele>2091.941</ele>
        <time>2018-08-09T17:06:35Z</time>
      </trkpt>
      <trkpt lat="46.26934" lon="10.47159">
        <ele>2093.615</ele>
        <time>2018-08-09T17:06:55Z</time>
      </trkpt>
      <trkpt lat="46.26935" lon="10.47166">
        <ele>2095.308</ele>
        <time>2018-08-09T17:07:15Z</time>
      </trkpt>
      <trkpt lat="46.26934" lon="10.47173">
        <ele>2096.469</ele>
        <time>2018-08-09T17:07:35Z</time>
      </trkpt>
      <trkpt lat="46.26934" lon="10.4718">
        <ele>2097.764</ele>
        <time>2018-08-09T17:07:55Z</time>
      </trkpt>
      <trkpt lat="46.26934" lon="10.47187">
        <ele>2099.15</ele>
        <time>2018-08-09T17:08:15Z</time>
      </trkpt>
      <trkpt lat="46.26934" lon="10.47195">
        <ele>2100.524</ele>
        <time>2018-08-09T17:08:35Z</time>
      </trkpt>
      <trkpt lat="46.26936" lon="10.47205">
        <ele>2102.269</ele>
        <time>2018-08-09T17:08:55Z</time>
      </trkpt>
      <trkpt lat="46.26944" lon="10.47218">
        <ele>2105.29</ele>
        <time>2018-08-09T17:09:15Z</time>
      </trkpt>
      <trkpt lat="46.2695" lon="10.47228">
        <ele>2107.847</ele>
        <time>2018-08-09T17:09:35Z</time>
      </trkpt>
      <trkpt lat="46.26957" lon="10.47238">
        <ele>2110.57</ele>
        <time>2018-08-09T17:09:55Z</time>
      </trkpt>
      <trkpt lat="46.26963" lon="10.47247">
        <ele>2113.356</ele>
        <time>2018-08-09T17:10:15Z</time>
      </trkpt>
      <trkpt lat="46.26966" lon="10.47254">
        <ele>2115.159</ele>
        <time>2018-08-09T17:10:35Z</time>
      </trkpt>
      <trkpt lat="46.26967" lon="10.47261">
        <ele>2116.314</ele>
        <time>2018-08-09T17:10:55Z</time>
      </trkpt>
      <trkpt lat="46.2697" lon="10.47264">
        <ele>2117.408</ele>
        <time>2018-08-09T17:11:15Z</time>
      </trkpt>
      <trkpt lat="46.2697" lon="10.47267">
        <ele>2117.867</ele>
        <time>2018-08-09T17:11:35Z</time>
      </trkpt>
      <trkpt lat="46.26971" lon="10.47273">
        <ele>2118.952</ele>
        <time>2018-08-09T17:11:55Z</time>
      </trkpt>
      <trkpt lat="46.26974" lon="10.47279">
        <ele>2120.938</ele>
        <time>2018-08-09T17:12:15Z</time>
      </trkpt>
      <trkpt lat="46.26977" lon="10.47285">
        <ele>2122.932</ele>
        <time>2018-08-09T17:12:35Z</time>
      </trkpt>
      <trkpt lat="46.2698" lon="10.4729">
        <ele>2124.757</ele>
        <time>2018-08-09T17:12:55Z</time>
      </trkpt>
      <trkpt lat="46.26983" lon="10.47296">
        <ele>2126.478</ele>
        <time>2018-08-09T17:13:15Z</time>
      </trkpt>
      <trkpt lat="46.26986" lon="10.47302">
        <ele>2128.035</ele>
        <time>2018-08-09T17:13:35Z</time>
      </trkpt>
      <trkpt lat="46.26989" lon="10.47307">
        <ele>2129.228</ele>
        <time>2018-08-09T17:13:55Z</time>
      </trkpt>
      <trkpt lat="46.26992" lon="10.47313">
        <ele>2130.072</ele>
        <time>2018-08-09T17:14:15Z</time>
      </trkpt>
      <trkpt lat="46.26993" lon="10.4732">
        <ele>2130.713</ele>
        <time>2018-08-09T17:14:35Z</time>
      </trkpt>
      <trkpt lat="46.26993" lon="10.47327">
        <ele>2130.914</ele>
        <time>2018-08-09T17:14:55Z</time>
      </trkpt>
      <trkpt lat="46.26993" lon="10.47335">
        <ele>2131.108</ele>
        <time>2018-08-09T17:15:15Z</time>
      </trkpt>
      <trkpt lat="46.26993" lon="10.47343">
        <ele>2131.199</ele>
        <time>2018-08-09T17:15:35Z</time>
      </trkpt>
      <trkpt lat="46.26994" lon="10.4735">
        <ele>2131.464</ele>
        <time>2018-08-09T17:15:55Z</time>
      </trkpt>
      <trkpt lat="46.26997" lon="10.47357">
        <ele>2132.19</ele>
        <time>2018-08-09T17:16:15Z</time>
      </trkpt>
      <trkpt lat="46.26998" lon="10.47365">
        <ele>2132.574</ele>
        <time>2018-08-09T17:16:35Z</time>
      </trkpt>
      <trkpt lat="46.26996" lon="10.47372">
        <ele>2132.469</ele>
        <time>2018-08-09T17:16:55Z</time>
      </trkpt>
      <trkpt lat="46.26995" lon="10.47379">
        <ele>2132.31</ele>
        <time>2018-08-09T17:17:15Z</time>
      </trkpt>
      <trkpt lat="46.26994" lon="10.47385">
        <ele>2132.367</ele>
        <time>2018-08-09T17:17:35Z</time>
      </trkpt>
      <trkpt lat="46.26992" lon="10.47393">
        <ele>2132.27</ele>
        <time>2018-08-09T17:17:55Z</time>
      </trkpt>
      <trkpt lat="46.26991" lon="10.474">
        <ele>2132.253</ele>
        <time>2018-08-09T17:18:15Z</time>
      </trkpt>
      <trkpt lat="46.26991" lon="10.47407">
        <ele>2132.404</ele>
        <time>2018-08-09T17:18:35Z</time>
      </trkpt>
      <trkpt lat="46.26992" lon="10.47415">
        <ele>2132.714</ele>
        <time>2018-08-09T17:18:55Z</time>
      </trkpt>
      <trkpt lat="46.26991" lon="10.47422">
        <ele>2133.008</ele>
        <time>2018-08-09T17:19:15Z</time>
      </trkpt>
      <trkpt lat="46.26991" lon="10.4743">
        <ele>2133.367</ele>
        <time>2018-08-09T17:19:35Z</time>
      </trkpt>
      <trkpt lat="46.26992" lon="10.47437">
        <ele>2133.732</ele>
        <time>2018-08-09T17:19:55Z</time>
      </trkpt>
      <trkpt lat="46.26993" lon="10.47444">
        <ele>2134.168</ele>
        <time>2018-08-09T17:20:15Z</time>
      </trkpt>
      <trkpt lat="46.26992" lon="10.47451">
        <ele>2134.272</ele>
        <time>2018-08-09T17:20:35Z</time>
      </trkpt>
      <trkpt lat="46.26992" lon="10.47458">
        <ele>2134.447</ele>
        <time>2018-08-09T17:20:55Z</time>
      </trkpt>
      <trkpt lat="46.26991" lon="10.47465">
        <ele>2134.588</ele>
        <time>2018-08-09T17:21:15Z</time>
      </trkpt>
      <trkpt lat="46.26992" lon="10.47472">
        <ele>2134.945</ele>
        <time>2018-08-09T17:21:35Z</time>
      </trkpt>
      <trkpt lat="46.26992" lon="10.47479">
        <ele>2134.948</ele>
        <time>2018-08-09T17:21:55Z</time>
      </trkpt>
      <trkpt lat="46.26992" lon="10.47485">
        <ele>2135.097</ele>
        <time>2018-08-09T17:22:15Z</time>
      </trkpt>
      <trkpt lat="46.26991" lon="10.47492">
        <ele>2135.023</ele>
        <time>2018-08-09T17:22:35Z</time>
      </trkpt>
      <trkpt lat="46.26991" lon="10.47499">
        <ele>2135.025</ele>
        <time>2018-08-09T17:22:55Z</time>
      </trkpt>
      <trkpt lat="46.2699" lon="10.47507">
        <ele>2135.108</ele>
        <time>2018-08-09T17:23:15Z</time>
      </trkpt>
      <trkpt lat="46.2699" lon="10.47514">
        <ele>2135.221</ele>
        <time>2018-08-09T17:23:35Z</time>
      </trkpt>
      <trkpt lat="46.26989" lon="10.47521">
        <ele>2135.386</ele>
        <time>2018-08-09T17:23:55Z</time>
      </trkpt>
      <trkpt lat="46.26988" lon="10.47529">
        <ele>2135.362</ele>
        <time>2018-08-09T17:24:15Z</time>
      </trkpt>
      <trkpt lat="46.26987" lon="10.47536">
        <ele>2135.436</ele>
        <time>2018-08-09T17:24:35Z</time>
      </trkpt>
      <trkpt lat="46.26986" lon="10.47544">
        <ele>2135.431</ele>
        <time>2018-08-09T17:24:55Z</time>
      </trkpt>
      <trkpt lat="46.26985" lon="10.47551">
        <ele>2135.572</ele>
        <time>2018-08-09T17:25:15Z</time>
      </trkpt>
      <trkpt lat="46.26984" lon="10.47559">
        <ele>2135.289</ele>
        <time>2018-08-09T17:25:35Z</time>
      </trkpt>
      <trkpt lat="46.26982" lon="10.47566">
        <ele>2134.392</ele>
        <time>2018-08-09T17:25:55Z</time>
      </trkpt>
      <trkpt lat="46.26981" lon="10.47574">
        <ele>2133.515</ele>
        <time>2018-08-09T17:26:15Z</time>
      </trkpt>
      <trkpt lat="46.2698" lon="10.47581">
        <ele>2132.865</ele>
        <time>2018-08-09T17:26:35Z</time>
      </trkpt>
      <trkpt lat="46.26981" lon="10.47589">
        <ele>2132.611</ele>
        <time>2018-08-09T17:26:55Z</time>
      </trkpt>
      <trkpt lat="46.26983" lon="10.47595">
        <ele>2132.608</ele>
        <time>2018-08-09T17:27:15Z</time>
      </trkpt>
      <trkpt lat="46.26984" lon="10.47602">
        <ele>2132.683</ele>
        <time>2018-08-09T17:27:35Z</time>
      </trkpt>
      <trkpt lat="46.26986" lon="10.47608">
        <ele>2132.588</ele>
        <time>2018-08-09T17:27:55Z</time>
      </trkpt>
      <trkpt lat="46.26988" lon="10.47614">
        <ele>2132.554</ele>
        <time>2018-08-09T17:28:15Z</time>
      </trkpt>
      <trkpt lat="46.2699" lon="10.4762">
        <ele>2132.648</ele>
        <time>2018-08-09T17:28:35Z</time>
      </trkpt>
      <trkpt lat="46.26992" lon="10.47626">
        <ele>2132.673</ele>
        <time>2018-08-09T17:28:55Z</time>
      </trkpt>
      <trkpt lat="46.26995" lon="10.47632">
        <ele>2132.674</ele>
        <time>2018-08-09T17:29:15Z</time>
      </trkpt>
      <trkpt lat="46.26997" lon="10.47638">
        <ele>2132.581</ele>
        <time>2018-08-09T17:29:35Z</time>
      </trkpt>
      <trkpt lat="46.26999" lon="10.47644">
        <ele>2132.424</ele>
        <time>2018-08-09T17:29:55Z</time>
      </trkpt>
      <trkpt lat="46.27" lon="10.4765">
        <ele>2132.265</ele>
        <time>2018-08-09T17:30:15Z</time>
      </trkpt>
      <trkpt lat="46.27002" lon="10.47657">
        <ele>2131.968</ele>
        <time>2018-08-09T17:30:35Z</time>
      </trkpt>
      <trkpt lat="46.27004" lon="10.47663">
        <ele>2131.814</ele>
        <time>2018-08-09T17:30:55Z</time>
      </trkpt>
      <trkpt lat="46.27007" lon="10.47669">
        <ele>2131.808</ele>
        <time>2018-08-09T17:31:15Z</time>
      </trkpt>
      <trkpt lat="46.27011" lon="10.47674">
        <ele>2131.998</ele>
        <time>2018-08-09T17:31:35Z</time>
      </trkpt>
      <trkpt lat="46.27013" lon="10.47675">
        <ele>2132.193</ele>
        <time>2018-08-09T17:31:55Z</time>
      </trkpt>
      <trkpt lat="46.27015" lon="10.47676">
        <ele>2132.369</ele>
        <time>2018-08-09T17:32:15Z</time>
      </trkpt>
      <trkpt lat="46.27017" lon="10.47677">
        <ele>2132.563</ele>
        <time>2018-08-09T17:32:35Z</time>
      </trkpt>
      <trkpt lat="46.27019" lon="10.47678">
        <ele>2132.798</ele>
        <time>2018-08-09T17:32:55Z</time>
      </trkpt>
      <trkpt lat="46.27022" lon="10.47678">
        <ele>2132.939</ele>
        <time>2018-08-09T17:33:15Z</time>
      </trkpt>
      <trkpt lat="46.27024" lon="10.47679">
        <ele>2133.256</ele>
        <time>2018-08-09T17:33:35Z</time>
      </trkpt>
      <trkpt lat="46.27026" lon="10.47679">
        <ele>2133.419</ele>
        <time>2018-08-09T17:33:55Z</time>
      </trkpt>
      <trkpt lat="46.27029" lon="10.4768">
        <ele>2133.666</ele>
        <time>2018-08-09T17:34:15Z</time>
      </trkpt>
      <trkpt lat="46.27031" lon="10.47681">
        <ele>2134.029</ele>
        <time>2018-08-09T17:34:35Z</time>
      </trkpt>
      <trkpt lat="46.27033" lon="10.47682">
        <ele>2134.321</ele>
        <time>2018-08-09T17:34:55Z</time>
      </trkpt>
      <trkpt lat="46.27036" lon="10.47683">
        <ele>2134.608</ele>
        <time>2018-08-09T17:35:15Z</time>
      </trkpt>
      <trkpt lat="46.27038" lon="10.47684">
        <ele>2134.988</ele>
        <time>2018-08-09T17:35:35Z</time>
      </trkpt>
      <trkpt lat="46.2704" lon="10.47686">
        <ele>2135.063</ele>
        <time>2018-08-09T17:35:55Z</time>
      </trkpt>
      <trkpt lat="46.27042" lon="10.47688">
        <ele>2135.219</ele>
        <time>2018-08-09T17:36:15Z</time>
      </trkpt>
      <trkpt lat="46.27044" lon="10.47689">
        <ele>2135.443</ele>
        <time>2018-08-09T17:36:35Z</time>
      </trkpt>
      <trkpt lat="46.27046" lon="10.47689">
        <ele>2135.898</ele>
        <time>2018-08-09T17:36:55Z</time>
      </trkpt>
      <trkpt lat="46.27048" lon="10.4769">
        <ele>2136.189</ele>
        <time>2018-08-09T17:37:15Z</time>
      </trkpt>
      <trkpt lat="46.2705" lon="10.47691">
        <ele>2136.476</ele>
        <time>2018-08-09T17:37:35Z</time>
      </trkpt>
      <trkpt lat="46.27053" lon="10.47693">
        <ele>2136.649</ele>
        <time>2018-08-09T17:37:55Z</time>
      </trkpt>
      <trkpt lat="46.27055" lon="10.47694">
        <ele>2136.839</ele>
        <time>2018-08-09T17:38:15Z</time>
      </trkpt>
      <trkpt lat="46.27057" lon="10.47696">
        <ele>2137.001</ele>
        <time>2018-08-09T17:38:35Z</time>
      </trkpt>
      <trkpt lat="46.27059" lon="10.47697">
        <ele>2137.221</ele>
        <time>2018-08-09T17:38:55Z</time>
      </trkpt>
      <trkpt lat="46.27061" lon="10.47698">
        <ele>2137.508</ele>
        <time>2018-08-09T17:39:15Z</time>
      </trkpt>
      <trkpt lat="46.27063" lon="10.477">
        <ele>2137.755</ele>
        <time>2018-08-09T17:39:35Z</time>
      </trkpt>
      <trkpt lat="46.27065" lon="10.47702">
        <ele>2137.81</ele>
        <time>2018-08-09T17:39:55Z</time>
      </trkpt>
      <trkpt lat="46.27068" lon="10.47703">
        <ele>2138.186</ele>
        <time>2018-08-09T17:40:15Z</time>
      </trkpt>
      <trkpt lat="46.2707" lon="10.47704">
        <ele>2138.38</ele>
        <time>2018-08-09T17:40:35Z</time>
      </trkpt>
      <trkpt lat="46.27072" lon="10.47705">
        <ele>2138.515</ele>
        <time>2018-08-09T17:40:55Z</time>
      </trkpt>
      <trkpt lat="46.27075" lon="10.47706">
        <ele>2138.836</ele>
        <time>2018-08-09T17:41:15Z</time>
      </trkpt>
      <trkpt lat="46.27077" lon="10.47707">
        <ele>2139.113</ele>
        <time>2018-08-09T17:41:35Z</time>
      </trkpt>
      <trkpt lat="46.27079" lon="10.47708">
        <ele>2139.416</ele>
        <time>2018-08-09T17:41:55Z</time>
      </trkpt>
      <trkpt lat="46.27082" lon="10.47708">
        <ele>2139.785</ele>
        <time>2018-08-09T17:42:15Z</time>
      </trkpt>
      <trkpt lat="46.27084" lon="10.47708">
        <ele>2140.189</ele>
        <time>2018-08-09T17:42:35Z</time>
      </trkpt>
      <trkpt lat="46.27086" lon="10.47709">
        <ele>2140.617</ele>
        <time>2018-08-09T17:42:55Z</time>
      </trkpt>
      <trkpt lat="46.27089" lon="10.47709">
        <ele>2141.108</ele>
        <time>2018-08-09T17:43:15Z</time>
      </trkpt>
      <trkpt lat="46.27091" lon="10.47709">
        <ele>2141.55</ele>
        <time>2018-08-09T17:43:35Z</time>
      </trkpt>
      <trkpt lat="46.27093" lon="10.4771">
        <ele>2141.945</ele>
        <time>2018-08-09T17:43:55Z</time>
      </trkpt>
      <trkpt lat="46.27096" lon="10.47711">
        <ele>2142.351</ele>
        <time>2018-08-09T17:44:15Z</time>
      </trkpt>
      <trkpt lat="46.27098" lon="10.47711">
        <ele>2142.825</ele>
        <time>2018-08-09T17:44:35Z</time>
      </trkpt>
      <trkpt lat="46.27101" lon="10.47711">
        <ele>2143.33</ele>
        <time>2018-08-09T17:44:55Z</time>
      </trkpt>
      <trkpt lat="46.27103" lon="10.47712">
        <ele>2143.711</ele>
        <time>2018-08-09T17:45:15Z</time>
      </trkpt>
      <trkpt lat="46.27105" lon="10.47712">
        <ele>2144.148</ele>
        <time>2018-08-09T17:45:35Z</time>
      </trkpt>
      <trkpt lat="46.27107" lon="10.47713">
        <ele>2144.421</ele>
        <time>2018-08-09T17:45:55Z</time>
      </trkpt>
      <trkpt lat="46.2711" lon="10.47714">
        <ele>2144.657</ele>
        <time>2018-08-09T17:46:15Z</time>
      </trkpt>
      <trkpt lat="46.27112" lon="10.47715">
        <ele>2144.8</ele>
        <time>2018-08-09T17:46:35Z</time>
      </trkpt>
      <trkpt lat="46.27114" lon="10.47717">
        <ele>2145.02</ele>
        <time>2018-08-09T17:46:55Z</time>
      </trkpt>
      <trkpt lat="46.27116" lon="10.47718">
        <ele>2145.008</ele>
        <time>2018-08-09T17:47:15Z</time>
      </trkpt>
      <trkpt lat="46.27118" lon="10.4772">
        <ele>2145.047</ele>
        <time>2018-08-09T17:47:35Z</time>
      </trkpt>
      <trkpt lat="46.2712" lon="10.47722">
        <ele>2145.012</ele>
        <time>2018-08-09T17:47:55Z</time>
      </trkpt>
      <trkpt lat="46.27122" lon="10.47724">
        <ele>2144.948</ele>
        <time>2018-08-09T17:48:15Z</time>
      </trkpt>
      <trkpt lat="46.27124" lon="10.47726">
        <ele>2144.852</ele>
        <time>2018-08-09T17:48:35Z</time>
      </trkpt>
      <trkpt lat="46.27125" lon="10.47728">
        <ele>2144.667</ele>
        <time>2018-08-09T17:48:55Z</time>
      </trkpt>
      <trkpt lat="46.27127" lon="10.4773">
        <ele>2144.318</ele>
        <time>2018-08-09T17:49:15Z</time>
      </trkpt>
      <trkpt lat="46.27129" lon="10.47733">
        <ele>2144.135</ele>
        <time>2018-08-09T17:49:35Z</time>
      </trkpt>
      <trkpt lat="46.2713" lon="10.47735">
        <ele>2143.988</ele>
        <time>2018-08-09T17:49:55Z</time>
      </trkpt>
      <trkpt lat="46.27132" lon="10.47737">
        <ele>2143.624</ele>
        <time>2018-08-09T17:50:15Z</time>
      </trkpt>
      <trkpt lat="46.27133" lon="10.4774">
        <ele>2143.404</ele>
        <time>2018-08-09T17:50:35Z</time>
      </trkpt>
      <trkpt lat="46.27135" lon="10.47742">
        <ele>2143.214</ele>
        <time>2018-08-09T17:50:55Z</time>
      </trkpt>
      <trkpt lat="46.27136" lon="10.47744">
        <ele>2142.908</ele>
        <time>2018-08-09T17:51:15Z</time>
      </trkpt>
      <trkpt lat="46.27138" lon="10.47746">
        <ele>2142.964</ele>
        <time>2018-08-09T17:51:35Z</time>
      </trkpt>
      <trkpt lat="46.2714" lon="10.47748">
        <ele>2142.599</ele>
        <time>2018-08-09T17:51:55Z</time>
      </trkpt>
      <trkpt lat="46.27141" lon="10.4775">
        <ele>2142.245</ele>
        <time>2018-08-09T17:52:15Z</time>
      </trkpt>
      <trkpt lat="46.27143" lon="10.47752">
        <ele>2141.969</ele>
        <time>2018-08-09T17:52:35Z</time>
      </trkpt>
      <trkpt lat="46.27145" lon="10.47753">
        <ele>2141.974</ele>
        <time>2018-08-09T17:52:55Z</time>
      </trkpt>
      <trkpt lat="46.27147" lon="10.47754">
        <ele>2141.965</ele>
        <time>2018-08-09T17:53:15Z</time>
      </trkpt>
      <trkpt lat="46.2715" lon="10.47755">
        <ele>2141.842</ele>
        <time>2018-08-09T17:53:35Z</time>
      </trkpt>
      <trkpt lat="46.27156" lon="10.47755">
        <ele>2142.625</ele>
        <time>2018-08-09T17:53:55Z</time>
      </trkpt>
      <trkpt lat="46.27158" lon="10.47755">
        <ele>2142.956</ele>
        <time>2018-08-09T17:54:15Z</time>
      </trkpt>
      <trkpt lat="46.2716" lon="10.47753">
        <ele>2143.659</ele>
        <time>2018-08-09T17:54:35Z</time>
      </trkpt>
      <trkpt lat="46.27161" lon="10.4775">
        <ele>2144.314</ele>
        <time>2018-08-09T17:54:55Z</time>
      </trkpt>
      <trkpt lat="46.27163" lon="10.47749">
        <ele>2144.708</ele>
        <time>2018-08-09T17:55:15Z</time>
      </trkpt>
      <trkpt lat="46.27165" lon="10.47749">
        <ele>2145.077</ele>
        <time>2018-08-09T17:55:35Z</time>
      </trkpt>
      <trkpt lat="46.27168" lon="10.47749">
        <ele>2145.332</ele>
        <time>2018-08-09T17:55:55Z</time>
      </trkpt>
      <trkpt lat="46.2717" lon="10.4775">
        <ele>2145.418</ele>
        <time>2018-08-09T17:56:15Z</time>
      </trkpt>
      <trkpt lat="46.27173" lon="10.47751">
        <ele>2145.492</ele>
        <time>2018-08-09T17:56:35Z</time>
      </trkpt>
      <trkpt lat="46.27174" lon="10.47751">
        <ele>2145.627</ele>
        <time>2018-08-09T17:56:55Z</time>
      </trkpt>
      <trkpt lat="46.27176" lon="10.47751">
        <ele>2145.798</ele>
        <time>2018-08-09T17:57:15Z</time>
      </trkpt>
      <trkpt lat="46.27178" lon="10.47751">
        <ele>2146.085</ele>
        <time>2018-08-09T17:57:35Z</time>
      </trkpt>
      <trkpt lat="46.27181" lon="10.47751">
        <ele>2146.388</ele>
        <time>2018-08-09T17:57:55Z</time>
      </trkpt>
      <trkpt lat="46.27183" lon="10.4775">
        <ele>2146.783</ele>
        <time>2018-08-09T17:58:15Z</time>
      </trkpt>
      <trkpt lat="46.27185" lon="10.4775">
        <ele>2147.125</ele>
        <time>2018-08-09T17:58:35Z</time>
      </trkpt>
      <trkpt lat="46.27188" lon="10.47749">
        <ele>2147.517</ele>
        <time>2018-08-09T17:58:55Z</time>
      </trkpt>
      <trkpt lat="46.2719" lon="10.4775">
        <ele>2147.608</ele>
        <time>2018-08-09T17:59:15Z</time>
      </trkpt>
      <trkpt lat="46.27192" lon="10.4775">
        <ele>2147.75</ele>
        <time>2018-08-09T17:59:35Z</time>
      </trkpt>
      <trkpt lat="46.27194" lon="10.47749">
        <ele>2148.195</ele>
        <time>2018-08-09T17:59:55Z</time>
      </trkpt>
      <trkpt lat="46.27196" lon="10.47749">
        <ele>2149.061</ele>
        <time>2018-08-09T18:00:15Z</time>
      </trkpt>
      <trkpt lat="46.27198" lon="10.47748">
        <ele>2149.825</ele>
        <time>2018-08-09T18:00:35Z</time>
      </trkpt>
      <trkpt lat="46.27201" lon="10.47748">
        <ele>2150.69</ele>
        <time>2018-08-09T18:00:55Z</time>
      </trkpt>
      <trkpt lat="46.27203" lon="10.47749">
        <ele>2151.131</ele>
        <time>2018-08-09T18:01:15Z</time>
      </trkpt>
      <trkpt lat="46.27204" lon="10.47751">
        <ele>2150.838</ele>
        <time>2018-08-09T18:01:35Z</time>
      </trkpt>
      <trkpt lat="46.27207" lon="10.47751">
        <ele>2151.581</ele>
        <time>2018-08-09T18:01:55Z</time>
      </trkpt>
      <trkpt lat="46.27209" lon="10.47751">
        <ele>2152.482</ele>
        <time>2018-08-09T18:02:15Z</time>
      </trkpt>
      <trkpt lat="46.27211" lon="10.4775">
        <ele>2153.643</ele>
        <time>2018-08-09T18:02:35Z</time>
      </trkpt>
      <trkpt lat="46.27214" lon="10.47749">
        <ele>2154.817</ele>
        <time>2018-08-09T18:02:55Z</time>
      </trkpt>
      <trkpt lat="46.27216" lon="10.47748">
        <ele>2156.008</ele>
        <time>2018-08-09T18:03:15Z</time>
      </trkpt>
      <trkpt lat="46.27219" lon="10.47747">
        <ele>2157.04</ele>
        <time>2018-08-09T18:03:35Z</time>
      </trkpt>
      <trkpt lat="46.27221" lon="10.47748">
        <ele>2157.695</ele>
        <time>2018-08-09T18:03:55Z</time>
      </trkpt>
      <trkpt lat="46.27224" lon="10.47748">
        <ele>2158.181</ele>
        <time>2018-08-09T18:04:15Z</time>
      </trkpt>
      <trkpt lat="46.27226" lon="10.47748">
        <ele>2158.315</ele>
        <time>2018-08-09T18:04:35Z</time>
      </trkpt>
      <trkpt lat="46.27227" lon="10.47749">
        <ele>2158.26</ele>
        <time>2018-08-09T18:04:55Z</time>
      </trkpt>
      <trkpt lat="46.27229" lon="10.47749">
        <ele>2158.651</ele>
        <time>2018-08-09T18:05:15Z</time>
      </trkpt>
      <trkpt lat="46.27231" lon="10.47749">
        <ele>2159.118</ele>
        <time>2018-08-09T18:05:35Z</time>
      </trkpt>
      <trkpt lat="46.27234" lon="10.47748">
        <ele>2159.821</ele>
        <time>2018-08-09T18:05:55Z</time>
      </trkpt>
      <trkpt lat="46.27236" lon="10.47748">
        <ele>2160.244</ele>
        <time>2018-08-09T18:06:15Z</time>
      </trkpt>
      <trkpt lat="46.27238" lon="10.47747">
        <ele>2161.005</ele>
        <time>2018-08-09T18:06:35Z</time>
      </trkpt>
      <trkpt lat="46.27241" lon="10.47746">
        <ele>2161.515</ele>
        <time>2018-08-09T18:06:55Z</time>
      </trkpt>
      <trkpt lat="46.27243" lon="10.47746">
        <ele>2162.008</ele>
        <time>2018-08-09T18:07:15Z</time>
      </trkpt>
      <trkpt lat="46.27245" lon="10.47746">
        <ele>2162.216</ele>
        <time>2018-08-09T18:07:35Z</time>
      </trkpt>
      <trkpt lat="46.27247" lon="10.47747">
        <ele>2162.421</ele>
        <time>2018-08-09T18:07:55Z</time>
      </trkpt>
      <trkpt lat="46.27249" lon="10.47747">
        <ele>2162.677</ele>
        <time>2018-08-09T18:08:15Z</time>
      </trkpt>
      <trkpt lat="46.27251" lon="10.47747">
        <ele>2162.981</ele>
        <time>2018-08-09T18:08:35Z</time>
      </trkpt>
      <trkpt lat="46.27253" lon="10.47747">
        <ele>2163.296</ele>
        <time>2018-08-09T18:08:55Z</time>
      </trkpt>
      <trkpt lat="46.27256" lon="10.47747">
        <ele>2163.457</ele>
        <time>2018-08-09T18:09:15Z</time>
      </trkpt>
      <trkpt lat="46.27257" lon="10.47747">
        <ele>2163.574</ele>
        <time>2018-08-09T18:09:35Z</time>
      </trkpt>
      <trkpt lat="46.27259" lon="10.47747">
        <ele>2163.757</ele>
        <time>2018-08-09T18:09:55Z</time>
      </trkpt>
      <trkpt lat="46.27262" lon="10.47748">
        <ele>2163.882</ele>
        <time>2018-08-09T18:10:15Z</time>
      </trkpt>
      <trkpt lat="46.27264" lon="10.47749">
        <ele>2163.943</ele>
        <time>2018-08-09T18:10:35Z</time>
      </trkpt>
      <trkpt lat="46.27266" lon="10.47749">
        <ele>2163.817</ele>
        <time>2018-08-09T18:10:55Z</time>
      </trkpt>
      <trkpt lat="46.27267" lon="10.4775">
        <ele>2163.908</ele>
        <time>2018-08-09T18:11:15Z</time>
      </trkpt>
      <trkpt lat="46.27269" lon="10.4775">
        <ele>2164.17</ele>
        <time>2018-08-09T18:11:35Z</time>
      </trkpt>
      <trkpt lat="46.27272" lon="10.4775">
        <ele>2164.215</ele>
        <time>2018-08-09T18:11:55Z</time>
      </trkpt>
      <trkpt lat="46.27275" lon="10.47751">
        <ele>2164.231</ele>
        <time>2018-08-09T18:12:15Z</time>
      </trkpt>
      <trkpt lat="46.27277" lon="10.47752">
        <ele>2164.425</ele>
        <time>2018-08-09T18:12:35Z</time>
      </trkpt>
      <trkpt lat="46.27279" lon="10.47752">
        <ele>2164.86</ele>
        <time>2018-08-09T18:12:55Z</time>
      </trkpt>
      <trkpt lat="46.27281" lon="10.47751">
        <ele>2165.411</ele>
        <time>2018-08-09T18:13:15Z</time>
      </trkpt>
      <trkpt lat="46.27283" lon="10.47749">
        <ele>2166.268</ele>
        <time>2018-08-09T18:13:35Z</time>
      </trkpt>
      <trkpt lat="46.27285" lon="10.47747">
        <ele>2167.261</ele>
        <time>2018-08-09T18:13:55Z</time>
      </trkpt>
      <trkpt lat="46.27287" lon="10.47747">
        <ele>2167.617</ele>
        <time>2018-08-09T18:14:15Z</time>
      </trkpt>
      <trkpt lat="46.2729" lon="10.47747">
        <ele>2168.187</ele>
        <time>2018-08-09T18:14:35Z</time>
      </trkpt>
      <trkpt lat="46.27292" lon="10.47746">
        <ele>2168.715</ele>
        <time>2018-08-09T18:14:55Z</time>
      </trkpt>
      <trkpt lat="46.27294" lon="10.47747">
        <ele>2168.808</ele>
        <time>2018-08-09T18:15:15Z</time>
      </trkpt>
      <trkpt lat="46.27296" lon="10.47748">
        <ele>2168.893</ele>
        <time>2018-08-09T18:15:35Z</time>
      </trkpt>
      <trkpt lat="46.27298" lon="10.47749">
        <ele>2169.038</ele>
        <time>2018-08-09T18:15:55Z</time>
      </trkpt>
      <trkpt lat="46.273" lon="10.4775">
        <ele>2169.134</ele>
        <time>2018-08-09T18:16:15Z</time>
      </trkpt>
      <trkpt lat="46.27302" lon="10.47751">
        <ele>2169.128</ele>
        <time>2018-08-09T18:16:35Z</time>
      </trkpt>
      <trkpt lat="46.27305" lon="10.47752">
        <ele>2169.313</ele>
        <time>2018-08-09T18:16:55Z</time>
      </trkpt>
      <trkpt lat="46.27307" lon="10.47753">
        <ele>2169.544</ele>
        <time>2018-08-09T18:17:15Z</time>
      </trkpt>
      <trkpt lat="46.27309" lon="10.47753">
        <ele>2170.171</ele>
        <time>2018-08-09T18:17:35Z</time>
      </trkpt>
      <trkpt lat="46.27311" lon="10.47753">
        <ele>2170.514</ele>
        <time>2018-08-09T18:17:55Z</time>
      </trkpt>
      <trkpt lat="46.27313" lon="10.47755">
        <ele>2170.632</ele>
        <time>2018-08-09T18:18:15Z</time>
      </trkpt>
      <trkpt lat="46.27316" lon="10.47754">
        <ele>2171.592</ele>
        <time>2018-08-09T18:18:35Z</time>
      </trkpt>
      <trkpt lat="46.27318" lon="10.47755">
        <ele>2171.811</ele>
        <time>2018-08-09T18:18:55Z</time>
      </trkpt>
      <trkpt lat="46.2732" lon="10.47754">
        <ele>2172.408</ele>
        <time>2018-08-09T18:19:15Z</time>
      </trkpt>
      <trkpt lat="46.27322" lon="10.47755">
        <ele>2172.855</ele>
        <time>2018-08-09T18:19:35Z</time>
      </trkpt>
      <trkpt lat="46.27324" lon="10.47754">
        <ele>2173.52</ele>
        <time>2018-08-09T18:19:55Z</time>
      </trkpt>
      <trkpt lat="46.27326" lon="10.47754">
        <ele>2174.186</ele>
        <time>2018-08-09T18:20:15Z</time>
      </trkpt>
      <trkpt lat="46.27329" lon="10.47756">
        <ele>2174.32</ele>
        <time>2018-08-09T18:20:35Z</time>
      </trkpt>
      <trkpt lat="46.2733" lon="10.47757">
        <ele>2174.645</ele>
        <time>2018-08-09T18:20:55Z</time>
      </trkpt>
      <trkpt lat="46.27333" lon="10.47757">
        <ele>2175.266</ele>
        <time>2018-08-09T18:21:15Z</time>
      </trkpt>
      <trkpt lat="46.27335" lon="10.47758">
        <ele>2175.683</ele>
        <time>2018-08-09T18:21:35Z</time>
      </trkpt>
      <trkpt lat="46.27337" lon="10.47758">
        <ele>2176.136</ele>
        <time>2018-08-09T18:21:55Z</time>
      </trkpt>
      <trkpt lat="46.27339" lon="10.47759">
        <ele>2176.592</ele>
        <time>2018-08-09T18:22:15Z</time>
      </trkpt>
      <trkpt lat="46.27341" lon="10.47759">
        <ele>2177.373</ele>
        <time>2018-08-09T18:22:35Z</time>
      </trkpt>
      <trkpt lat="46.27344" lon="10.4776">
        <ele>2177.62</ele>
        <time>2018-08-09T18:22:55Z</time>
      </trkpt>
      <trkpt lat="46.27345" lon="10.47761">
        <ele>2177.808</ele>
        <time>2018-08-09T18:23:15Z</time>
      </trkpt>
      <trkpt lat="46.27347" lon="10.47762">
        <ele>2178.091</ele>
        <time>2018-08-09T18:23:35Z</time>
      </trkpt>
      <trkpt lat="46.27349" lon="10.47764">
        <ele>2178.116</ele>
        <time>2018-08-09T18:23:55Z</time>
      </trkpt>
      <trkpt lat="46.2735" lon="10.47766">
        <ele>2178.072</ele>
        <time>2018-08-09T18:24:15Z</time>
      </trkpt>
      <trkpt lat="46.27351" lon="10.47769">
        <ele>2177.766</ele>
        <time>2018-08-09T18:24:35Z</time>
      </trkpt>
      <trkpt lat="46.27353" lon="10.4777">
        <ele>2177.741</ele>
        <time>2018-08-09T18:24:55Z</time>
      </trkpt>
      <trkpt lat="46.27355" lon="10.47772">
        <ele>2177.712</ele>
        <time>2018-08-09T18:25:15Z</time>
      </trkpt>
      <trkpt lat="46.27357" lon="10.47773">
        <ele>2178.139</ele>
        <time>2018-08-09T18:25:35Z</time>
      </trkpt>
      <trkpt lat="46.27359" lon="10.47776">
        <ele>2177.942</ele>
        <time>2018-08-09T18:25:55Z</time>
      </trkpt>
      <trkpt lat="46.2736" lon="10.47779">
        <ele>2177.443</ele>
        <time>2018-08-09T18:26:15Z</time>
      </trkpt>
      <trkpt lat="46.27361" lon="10.47782">
        <ele>2177.064</ele>
        <time>2018-08-09T18:26:35Z</time>
      </trkpt>
      <trkpt lat="46.27362" lon="10.47784">
        <ele>2176.71</ele>
        <time>2018-08-09T18:26:55Z</time>
      </trkpt>
      <trkpt lat="46.27362" lon="10.47787">
        <ele>2176.308</ele>
        <time>2018-08-09T18:27:15Z</time>
      </trkpt>
      <trkpt lat="46.27363" lon="10.4779">
        <ele>2176.056</ele>
        <time>2018-08-09T18:27:35Z</time>
      </trkpt>
      <trkpt lat="46.27364" lon="10.47792">
        <ele>2175.981</ele>
        <time>2018-08-09T18:27:55Z</time>
      </trkpt>
      <trkpt lat="46.27367" lon="10.47793">
        <ele>2176.197</ele>
        <time>2018-08-09T18:28:15Z</time>
      </trkpt>
      <trkpt lat="46.27369" lon="10.47795">
        <ele>2176.391</ele>
        <time>2018-08-09T18:28:35Z</time>
      </trkpt>
      <trkpt lat="46.27371" lon="10.47795">
        <ele>2176.856</ele>
        <time>2018-08-09T18:28:55Z</time>
      </trkpt>
      <trkpt lat="46.27373" lon="10.47794">
        <ele>2177.777</ele>
        <time>2018-08-09T18:29:15Z</time>
      </trkpt>
      <trkpt lat="46.27375" lon="10.47793">
        <ele>2178.364</ele>
        <time>2018-08-09T18:29:35Z</time>
      </trkpt>
      <trkpt lat="46.27377" lon="10.47794">
        <ele>2178.927</ele>
        <time>2018-08-09T18:29:55Z</time>
      </trkpt>
      <trkpt lat="46.27379" lon="10.47794">
        <ele>2179.364</ele>
        <time>2018-08-09T18:30:15Z</time>
      </trkpt>
      <trkpt lat="46.27382" lon="10.47795">
        <ele>2179.806</ele>
        <time>2018-08-09T18:30:35Z</time>
      </trkpt>
      <trkpt lat="46.27384" lon="10.47795">
        <ele>2180.516</ele>
        <time>2018-08-09T18:30:55Z</time>
      </trkpt>
      <trkpt lat="46.27387" lon="10.47795">
        <ele>2181.008</ele>
        <time>2018-08-09T18:31:15Z</time>
      </trkpt>
      <trkpt lat="46.27389" lon="10.47796">
        <ele>2181.478</ele>
        <time>2018-08-09T18:31:35Z</time>
      </trkpt>
      <trkpt lat="46.27391" lon="10.47796">
        <ele>2182.043</ele>
        <time>2018-08-09T18:31:55Z</time>
      </trkpt>
      <trkpt lat="46.27393" lon="10.47796">
        <ele>2182.549</ele>
        <time>2018-08-09T18:32:15Z</time>
      </trkpt>
      <trkpt lat="46.27396" lon="10.47797">
        <ele>2183.133</ele>
        <time>2018-08-09T18:32:35Z</time>
      </trkpt>
      <trkpt lat="46.27398" lon="10.47797">
        <ele>2183.588</ele>
        <time>2018-08-09T18:32:55Z</time>
      </trkpt>
      <trkpt lat="46.274" lon="10.47797">
        <ele>2184.129</ele>
        <time>2018-08-09T18:33:15Z</time>
      </trkpt>
      <trkpt lat="46.27402" lon="10.47797">
        <ele>2184.746</ele>
        <time>2018-08-09T18:33:35Z</time>
      </trkpt>
      <trkpt lat="46.27404" lon="10.47797">
        <ele>2185.379</ele>
        <time>2018-08-09T18:33:55Z</time>
      </trkpt>
      <trkpt lat="46.27406" lon="10.47796">
        <ele>2186.092</ele>
        <time>2018-08-09T18:34:15Z</time>
      </trkpt>
      <trkpt lat="46.27408" lon="10.47796">
        <ele>2186.573</ele>
        <time>2018-08-09T18:34:35Z</time>
      </trkpt>
      <trkpt lat="46.2741" lon="10.47796">
        <ele>2187.22</ele>
        <time>2018-08-09T18:34:55Z</time>
      </trkpt>
      <trkpt lat="46.27412" lon="10.47795">
        <ele>2187.908</ele>
        <time>2018-08-09T18:35:15Z</time>
      </trkpt>
      <trkpt lat="46.27414" lon="10.47795">
        <ele>2188.591</ele>
        <time>2018-08-09T18:35:35Z</time>
      </trkpt>
      <trkpt lat="46.27416" lon="10.47796">
        <ele>2188.916</ele>
        <time>2018-08-09T18:35:55Z</time>
      </trkpt>
      <trkpt lat="46.27418" lon="10.47796">
        <ele>2189.422</ele>
        <time>2018-08-09T18:36:15Z</time>
      </trkpt>
      <trkpt lat="46.2742" lon="10.47797">
        <ele>2189.966</ele>
        <time>2018-08-09T18:36:35Z</time>
      </trkpt>
      <trkpt lat="46.27423" lon="10.47797">
        <ele>2190.611</ele>
        <time>2018-08-09T18:36:55Z</time>
      </trkpt>
      <trkpt lat="46.27425" lon="10.47798">
        <ele>2190.962</ele>
        <time>2018-08-09T18:37:15Z</time>
      </trkpt>
      <trkpt lat="46.27427" lon="10.47799">
        <ele>2191.429</ele>
        <time>2018-08-09T18:37:35Z</time>
      </trkpt>
      <trkpt lat="46.2743" lon="10.478">
        <ele>2191.842</ele>
        <time>2018-08-09T18:37:55Z</time>
      </trkpt>
      <trkpt lat="46.27431" lon="10.47801">
        <ele>2192.166</ele>
        <time>2018-08-09T18:38:15Z</time>
      </trkpt>
      <trkpt lat="46.27433" lon="10.47802">
        <ele>2192.529</ele>
        <time>2018-08-09T18:38:35Z</time>
      </trkpt>
      <trkpt lat="46.27435" lon="10.47802">
        <ele>2193.021</ele>
        <time>2018-08-09T18:38:55Z</time>
      </trkpt>
      <trkpt lat="46.27437" lon="10.47802">
        <ele>2193.508</ele>
        <time>2018-08-09T18:39:15Z</time>
      </trkpt>
      <trkpt lat="46.27439" lon="10.47803">
        <ele>2194.048</ele>
        <time>2018-08-09T18:39:35Z</time>
      </trkpt>
      <trkpt lat="46.27442" lon="10.47804">
        <ele>2194.593</ele>
        <time>2018-08-09T18:39:55Z</time>
      </trkpt>
      <trkpt lat="46.27444" lon="10.47804">
        <ele>2195.299</ele>
        <time>2018-08-09T18:40:15Z</time>
      </trkpt>
      <trkpt lat="46.27446" lon="10.47805">
        <ele>2195.673</ele>
        <time>2018-08-09T18:40:35Z</time>
      </trkpt>
      <trkpt lat="46.27448" lon="10.47805">
        <ele>2196.318</ele>
        <time>2018-08-09T18:40:55Z</time>
      </trkpt>
      <trkpt lat="46.27451" lon="10.47805">
        <ele>2196.859</ele>
        <time>2018-08-09T18:41:15Z</time>
      </trkpt>
      <trkpt lat="46.27452" lon="10.47806">
        <ele>2197.186</ele>
        <time>2018-08-09T18:41:35Z</time>
      </trkpt>
      <trkpt lat="46.27454" lon="10.47807">
        <ele>2197.429</ele>
        <time>2018-08-09T18:41:55Z</time>
      </trkpt>
      <trkpt lat="46.27456" lon="10.4781">
        <ele>2197.523</ele>
        <time>2018-08-09T18:42:15Z</time>
      </trkpt>
      <trkpt lat="46.27458" lon="10.47812">
        <ele>2197.683</ele>
        <time>2018-08-09T18:42:35Z</time>
      </trkpt>
      <trkpt lat="46.27459" lon="10.47814">
        <ele>2197.611</ele>
        <time>2018-08-09T18:42:55Z</time>
      </trkpt>
      <trkpt lat="46.27461" lon="10.47817">
        <ele>2197.708</ele>
        <time>2018-08-09T18:43:15Z</time>
      </trkpt>
      <trkpt lat="46.27463" lon="10.47819">
        <ele>2197.984</ele>
        <time>2018-08-09T18:43:35Z</time>
      </trkpt>
      <trkpt lat="46.27464" lon="10.4782">
        <ele>2198.079</ele>
        <time>2018-08-09T18:43:55Z</time>
      </trkpt>
      <trkpt lat="46.27487" lon="10.47835">
        <ele>2200.965</ele>
        <time>2018-08-09T18:44:15Z</time>
      </trkpt>
      <trkpt lat="46.27489" lon="10.47837">
        <ele>2201.089</ele>
        <time>2018-08-09T18:44:35Z</time>
      </trkpt>
      <trkpt lat="46.27491" lon="10.47837">
        <ele>2201.524</ele>
        <time>2018-08-09T18:44:55Z</time>
      </trkpt>
      <trkpt lat="46.27493" lon="10.47838">
        <ele>2201.785</ele>
        <time>2018-08-09T18:45:15Z</time>
      </trkpt>
      <trkpt lat="46.27495" lon="10.4784">
        <ele>2201.942</ele>
        <time>2018-08-09T18:45:35Z</time>
      </trkpt>
      <trkpt lat="46.27496" lon="10.47841">
        <ele>2202.045</ele>
        <time>2018-08-09T18:45:55Z</time>
      </trkpt>
      <trkpt lat="46.27498" lon="10.47843">
        <ele>2202.324</ele>
        <time>2018-08-09T18:46:15Z</time>
      </trkpt>
      <trkpt lat="46.275" lon="10.47844">
        <ele>2202.604</ele>
        <time>2018-08-09T18:46:35Z</time>
      </trkpt>
      <trkpt lat="46.27502" lon="10.47846">
        <ele>2203.114</ele>
        <time>2018-08-09T18:46:55Z</time>
      </trkpt>
      <trkpt lat="46.27503" lon="10.47848">
        <ele>2203.708</ele>
        <time>2018-08-09T18:47:15Z</time>
      </trkpt>
      <trkpt lat="46.27505" lon="10.4785">
        <ele>2204.394</ele>
        <time>2018-08-09T18:47:35Z</time>
      </trkpt>
      <trkpt lat="46.27506" lon="10.47852">
        <ele>2204.889</ele>
        <time>2018-08-09T18:47:55Z</time>
      </trkpt>
      <trkpt lat="46.27506" lon="10.47855">
        <ele>2204.535</ele>
        <time>2018-08-09T18:48:15Z</time>
      </trkpt>
      <trkpt lat="46.27508" lon="10.47856">
        <ele>2205.529</ele>
        <time>2018-08-09T18:48:35Z</time>
      </trkpt>
      <trkpt lat="46.2751" lon="10.4786">
        <ele>2206.084</ele>
        <time>2018-08-09T18:48:55Z</time>
      </trkpt>
      <trkpt lat="46.27512" lon="10.47862">
        <ele>2206.535</ele>
        <time>2018-08-09T18:49:15Z</time>
      </trkpt>
      <trkpt lat="46.27513" lon="10.47865">
        <ele>2207.222</ele>
        <time>2018-08-09T18:49:35Z</time>
      </trkpt>
      <trkpt lat="46.27515" lon="10.47868">
        <ele>2207.415</ele>
        <time>2018-08-09T18:49:55Z</time>
      </trkpt>
      <trkpt lat="46.27516" lon="10.47871">
        <ele>2207.992</ele>
        <time>2018-08-09T18:50:15Z</time>
      </trkpt>
      <trkpt lat="46.27518" lon="10.47874">
        <ele>2208.873</ele>
        <time>2018-08-09T18:50:35Z</time>
      </trkpt>
      <trkpt lat="46.2752" lon="10.47876">
        <ele>2209.22</ele>
        <time>2018-08-09T18:50:55Z</time>
      </trkpt>
      <trkpt lat="46.27521" lon="10.47878">
        <ele>2209.808</ele>
        <time>2018-08-09T18:51:15Z</time>
      </trkpt>
      <trkpt lat="46.27523" lon="10.4788">
        <ele>2210.691</ele>
        <time>2018-08-09T18:51:35Z</time>
      </trkpt>
      <trkpt lat="46.27524" lon="10.47882">
        <ele>2211.186</ele>
        <time>2018-08-09T18:51:55Z</time>
      </trkpt>
      <trkpt lat="46.27526" lon="10.47883">
        <ele>2211.942</ele>
        <time>2018-08-09T18:52:15Z</time>
      </trkpt>
      <trkpt lat="46.27528" lon="10.47885">
        <ele>2212.696</ele>
        <time>2018-08-09T18:52:35Z</time>
      </trkpt>
      <trkpt lat="46.2753" lon="10.47886">
        <ele>2212.871</ele>
        <time>2018-08-09T18:52:55Z</time>
      </trkpt>
      <trkpt lat="46.27532" lon="10.47886">
        <ele>2213.192</ele>
        <time>2018-08-09T18:53:15Z</time>
      </trkpt>
      <trkpt lat="46.27534" lon="10.47887">
        <ele>2213.479</ele>
        <time>2018-08-09T18:53:35Z</time>
      </trkpt>
      <trkpt lat="46.27536" lon="10.47887">
        <ele>2213.712</ele>
        <time>2018-08-09T18:53:55Z</time>
      </trkpt>
      <trkpt lat="46.27538" lon="10.47886">
        <ele>2214.296</ele>
        <time>2018-08-09T18:54:15Z</time>
      </trkpt>
      <trkpt lat="46.2754" lon="10.47885">
        <ele>2214.631</ele>
        <time>2018-08-09T18:54:35Z</time>
      </trkpt>
      <trkpt lat="46.27541" lon="10.47884">
        <ele>2215.124</ele>
        <time>2018-08-09T18:54:55Z</time>
      </trkpt>
      <trkpt lat="46.27543" lon="10.47881">
        <ele>2215.708</ele>
        <time>2018-08-09T18:55:15Z</time>
      </trkpt>
      <trkpt lat="46.27545" lon="10.4788">
        <ele>2216.151</ele>
        <time>2018-08-09T18:55:35Z</time>
      </trkpt>
      <trkpt lat="46.27547" lon="10.47879">
        <ele>2216.656</ele>
        <time>2018-08-09T18:55:55Z</time>
      </trkpt>
      <trkpt lat="46.27549" lon="10.47878">
        <ele>2217.142</ele>
        <time>2018-08-09T18:56:15Z</time>
      </trkpt>
      <trkpt lat="46.27551" lon="10.47876">
        <ele>2217.596</ele>
        <time>2018-08-09T18:56:35Z</time>
      </trkpt>
      <trkpt lat="46.27552" lon="10.47874">
        <ele>2218.011</ele>
        <time>2018-08-09T18:56:55Z</time>
      </trkpt>
      <trkpt lat="46.27554" lon="10.47872">
        <ele>2218.412</ele>
        <time>2018-08-09T18:57:15Z</time>
      </trkpt>
      <trkpt lat="46.27555" lon="10.4787">
        <ele>2218.959</ele>
        <time>2018-08-09T18:57:35Z</time>
      </trkpt>
      <trkpt lat="46.27557" lon="10.47868">
        <ele>2219.482</ele>
        <time>2018-08-09T18:57:55Z</time>
      </trkpt>
      <trkpt lat="46.27559" lon="10.47867">
        <ele>2219.785</ele>
        <time>2018-08-09T18:58:15Z</time>
      </trkpt>
      <trkpt lat="46.27561" lon="10.47866">
        <ele>2220.089</ele>
        <time>2018-08-09T18:58:35Z</time>
      </trkpt>
      <trkpt lat="46.27562" lon="10.47865">
        <ele>2220.317</ele>
        <time>2018-08-09T18:58:55Z</time>
      </trkpt>
      <trkpt lat="46.27564" lon="10.47864">
        <ele>2220.508</ele>
        <time>2018-08-09T18:59:15Z</time>
      </trkpt>
      <trkpt lat="46.27566" lon="10.47866">
        <ele>2220.69</ele>
        <time>2018-08-09T18:59:35Z</time>
      </trkpt>
      <trkpt lat="46.27568" lon="10.47868">
        <ele>2220.655</ele>
        <time>2018-08-09T18:59:55Z</time>
      </trkpt>
      <trkpt lat="46.27569" lon="10.47869">
        <ele>2220.651</ele>
        <time>2018-08-09T19:00:15Z</time>
      </trkpt>
      <trkpt lat="46.27571" lon="10.47871">
        <ele>2220.565</ele>
        <time>2018-08-09T19:00:35Z</time>
      </trkpt>
      <trkpt lat="46.27572" lon="10.47873">
        <ele>2220.43</ele>
        <time>2018-08-09T19:00:55Z</time>
      </trkpt>
      <trkpt lat="46.27573" lon="10.47876">
        <ele>2220.311</ele>
        <time>2018-08-09T19:01:15Z</time>
      </trkpt>
      <trkpt lat="46.27575" lon="10.47878">
        <ele>2220.288</ele>
        <time>2018-08-09T19:01:35Z</time>
      </trkpt>
      <trkpt lat="46.27576" lon="10.4788">
        <ele>2220.051</ele>
        <time>2018-08-09T19:01:55Z</time>
      </trkpt>
      <trkpt lat="46.27577" lon="10.47882">
        <ele>2220.043</ele>
        <time>2018-08-09T19:02:15Z</time>
      </trkpt>
      <trkpt lat="46.27579" lon="10.47884">
        <ele>2220.064</ele>
        <time>2018-08-09T19:02:35Z</time>
      </trkpt>
      <trkpt lat="46.2758" lon="10.47885">
        <ele>2220.11</ele>
        <time>2018-08-09T19:02:55Z</time>
      </trkpt>
      <trkpt lat="46.27593" lon="10.47894">
        <ele>2221.308</ele>
        <time>2018-08-09T19:03:15Z</time>
      </trkpt>
      <trkpt lat="46.27595" lon="10.47896">
        <ele>2221.526</ele>
        <time>2018-08-09T19:03:35Z</time>
      </trkpt>
      <trkpt lat="46.27596" lon="10.47898">
        <ele>2221.581</ele>
        <time>2018-08-09T19:03:55Z</time>
      </trkpt>
      <trkpt lat="46.27598" lon="10.47899">
        <ele>2221.737</ele>
        <time>2018-08-09T19:04:15Z</time>
      </trkpt>
      <trkpt lat="46.276" lon="10.47901">
        <ele>2221.971</ele>
        <time>2018-08-09T19:04:35Z</time>
      </trkpt>
      <trkpt lat="46.27602" lon="10.47903">
        <ele>2222.036</ele>
        <time>2018-08-09T19:04:55Z</time>
      </trkpt>
      <trkpt lat="46.27603" lon="10.47906">
        <ele>2222.167</ele>
        <time>2018-08-09T19:05:15Z</time>
      </trkpt>
      <trkpt lat="46.27604" lon="10.47908">
        <ele>2222.284</ele>
        <time>2018-08-09T19:05:35Z</time>
      </trkpt>
      <trkpt lat="46.27605" lon="10.4791">
        <ele>2222.177</ele>
        <time>2018-08-09T19:05:55Z</time>
      </trkpt>
      <trkpt lat="46.27606" lon="10.47913">
        <ele>2222.156</ele>
        <time>2018-08-09T19:06:15Z</time>
      </trkpt>
      <trkpt lat="46.27606" lon="10.47916">
        <ele>2221.959</ele>
        <time>2018-08-09T19:06:35Z</time>
      </trkpt>
      <trkpt lat="46.27607" lon="10.47919">
        <ele>2221.714</ele>
        <time>2018-08-09T19:06:55Z</time>
      </trkpt>
      <trkpt lat="46.27607" lon="10.47922">
        <ele>2221.508</ele>
        <time>2018-08-09T19:07:15Z</time>
      </trkpt>
      <trkpt lat="46.27608" lon="10.47925">
        <ele>2221.357</ele>
        <time>2018-08-09T19:07:35Z</time>
      </trkpt>
      <trkpt lat="46.2761" lon="10.47927">
        <ele>2221.622</ele>
        <time>2018-08-09T19:07:55Z</time>
      </trkpt>
      <trkpt lat="46.27611" lon="10.4793">
        <ele>2221.588</ele>
        <time>2018-08-09T19:08:15Z</time>
      </trkpt>
      <trkpt lat="46.27612" lon="10.47932">
        <ele>2221.642</ele>
        <time>2018-08-09T19:08:35Z</time>
      </trkpt>
      <trkpt lat="46.27614" lon="10.47935">
        <ele>2221.697</ele>
        <time>2018-08-09T19:08:55Z</time>
      </trkpt>
      <trkpt lat="46.27615" lon="10.47938">
        <ele>2221.758</ele>
        <time>2018-08-09T19:09:15Z</time>
      </trkpt>
      <trkpt lat="46.27617" lon="10.4794">
        <ele>2222.325</ele>
        <time>2018-08-09T19:09:35Z</time>
      </trkpt>
      <trkpt lat="46.27619" lon="10.4794">
        <ele>2222.958</ele>
        <time>2018-08-09T19:09:55Z</time>
      </trkpt>
      <trkpt lat="46.27622" lon="10.47941">
        <ele>2223.718</ele>
        <time>2018-08-09T19:10:15Z</time>
      </trkpt>
      <trkpt lat="46.27624" lon="10.47943">
        <ele>2224.398</ele>
        <time>2018-08-09T19:10:35Z</time>
      </trkpt>
      <trkpt lat="46.27626" lon="10.47944">
        <ele>2224.717</ele>
        <time>2018-08-09T19:10:55Z</time>
      </trkpt>
      <trkpt lat="46.27627" lon="10.47945">
        <ele>2225.208</ele>
        <time>2018-08-09T19:11:15Z</time>
      </trkpt>
      <trkpt lat="46.27629" lon="10.47947">
        <ele>2225.683</ele>
        <time>2018-08-09T19:11:35Z</time>
      </trkpt>
      <trkpt lat="46.27631" lon="10.47948">
        <ele>2226.288</ele>
        <time>2018-08-09T19:11:55Z</time>
      </trkpt>
      <trkpt lat="46.27632" lon="10.47949">
        <ele>2226.754</ele>
        <time>2018-08-09T19:12:15Z</time>
      </trkpt>
      <trkpt lat="46.27635" lon="10.47951">
        <ele>2227.538</ele>
        <time>2018-08-09T19:12:35Z</time>
      </trkpt>
      <trkpt lat="46.27637" lon="10.47953">
        <ele>2228.373</ele>
        <time>2018-08-09T19:12:55Z</time>
      </trkpt>
      <trkpt lat="46.27638" lon="10.47957">
        <ele>2228.674</ele>
        <time>2018-08-09T19:13:15Z</time>
      </trkpt>
      <trkpt lat="46.27638" lon="10.4796">
        <ele>2228.661</ele>
        <time>2018-08-09T19:13:35Z</time>
      </trkpt>
      <trkpt lat="46.27638" lon="10.47963">
        <ele>2228.514</ele>
        <time>2018-08-09T19:13:55Z</time>
      </trkpt>
      <trkpt lat="46.27638" lon="10.47965">
        <ele>2228.426</ele>
        <time>2018-08-09T19:14:15Z</time>
      </trkpt>
      <trkpt lat="46.27635" lon="10.4798">
        <ele>2226.547</ele>
        <time>2018-08-09T19:14:35Z</time>
      </trkpt>
      <trkpt lat="46.27634" lon="10.47982">
        <ele>2226.011</ele>
        <time>2018-08-09T19:14:55Z</time>
      </trkpt>
      <trkpt lat="46.27632" lon="10.47986">
        <ele>2225.008</ele>
        <time>2018-08-09T19:15:15Z</time>
      </trkpt>
      <trkpt lat="46.27631" lon="10.47989">
        <ele>2224.284</ele>
        <time>2018-08-09T19:15:35Z</time>
      </trkpt>
      <trkpt lat="46.2763" lon="10.47991">
        <ele>2223.399</ele>
        <time>2018-08-09T19:15:55Z</time>
      </trkpt>
      <trkpt lat="46.27629" lon="10.47995">
        <ele>2222.945</ele>
        <time>2018-08-09T19:16:15Z</time>
      </trkpt>
      <trkpt lat="46.27629" lon="10.47998">
        <ele>2222.549</ele>
        <time>2018-08-09T19:16:35Z</time>
      </trkpt>
      <trkpt lat="46.27628" lon="10.48001">
        <ele>2221.824</ele>
        <time>2018-08-09T19:16:55Z</time>
      </trkpt>
      <trkpt lat="46.27628" lon="10.48004">
        <ele>2221.475</ele>
        <time>2018-08-09T19:17:15Z</time>
      </trkpt>
      <trkpt lat="46.27628" lon="10.48007">
        <ele>2221.132</ele>
        <time>2018-08-09T19:17:35Z</time>
      </trkpt>
      <trkpt lat="46.27627" lon="10.4801">
        <ele>2220.885</ele>
        <time>2018-08-09T19:17:55Z</time>
      </trkpt>
      <trkpt lat="46.27627" lon="10.48014">
        <ele>2220.135</ele>
        <time>2018-08-09T19:18:15Z</time>
      </trkpt>
      <trkpt lat="46.27626" lon="10.48017">
        <ele>2219.986</ele>
        <time>2018-08-09T19:18:35Z</time>
      </trkpt>
      <trkpt lat="46.27626" lon="10.4802">
        <ele>2219.614</ele>
        <time>2018-08-09T19:18:55Z</time>
      </trkpt>
      <trkpt lat="46.27626" lon="10.48023">
        <ele>2219.408</ele>
        <time>2018-08-09T19:19:15Z</time>
      </trkpt>
      <trkpt lat="46.27626" lon="10.48026">
        <ele>2219.015</ele>
        <time>2018-08-09T19:19:35Z</time>
      </trkpt>
      <trkpt lat="46.27625" lon="10.48029">
        <ele>2218.35</ele>
        <time>2018-08-09T19:19:55Z</time>
      </trkpt>
      <trkpt lat="46.27625" lon="10.48032">
        <ele>2217.856</ele>
        <time>2018-08-09T19:20:15Z</time>
      </trkpt>
      <trkpt lat="46.27625" lon="10.48035">
        <ele>2217.66</ele>
        <time>2018-08-09T19:20:35Z</time>
      </trkpt>
      <trkpt lat="46.27624" lon="10.48039">
        <ele>2217.285</ele>
        <time>2018-08-09T19:20:55Z</time>
      </trkpt>
      <trkpt lat="46.27624" lon="10.48042">
        <ele>2216.736</ele>
        <time>2018-08-09T19:21:15Z</time>
      </trkpt>
      <trkpt lat="46.27624" lon="10.48045">
        <ele>2216.273</ele>
        <time>2018-08-09T19:21:35Z</time>
      </trkpt>
      <trkpt lat="46.27624" lon="10.48048">
        <ele>2216.066</ele>
        <time>2018-08-09T19:21:55Z</time>
      </trkpt>
      <trkpt lat="46.27625" lon="10.48051">
        <ele>2216.226</ele>
        <time>2018-08-09T19:22:15Z</time>
      </trkpt>
      <trkpt lat="46.27626" lon="10.48054">
        <ele>2216.447</ele>
        <time>2018-08-09T19:22:35Z</time>
      </trkpt>
      <trkpt lat="46.27626" lon="10.48057">
        <ele>2216.411</ele>
        <time>2018-08-09T19:22:55Z</time>
      </trkpt>
      <trkpt lat="46.27628" lon="10.4806">
        <ele>2216.608</ele>
        <time>2018-08-09T19:23:15Z</time>
      </trkpt>
      <trkpt lat="46.27628" lon="10.48063">
        <ele>2216.554</ele>
        <time>2018-08-09T19:23:35Z</time>
      </trkpt>
      <trkpt lat="46.2763" lon="10.48066">
        <ele>2216.659</ele>
        <time>2018-08-09T19:23:55Z</time>
      </trkpt>
      <trkpt lat="46.2763" lon="10.48069">
        <ele>2216.475</ele>
        <time>2018-08-09T19:24:15Z</time>
      </trkpt>
      <trkpt lat="46.27632" lon="10.48072">
        <ele>2216.669</ele>
        <time>2018-08-09T19:24:35Z</time>
      </trkpt>
      <trkpt lat="46.27632" lon="10.48075">
        <ele>2216.434</ele>
        <time>2018-08-09T19:24:55Z</time>
      </trkpt>
      <trkpt lat="46.27632" lon="10.48078">
        <ele>2216.145</ele>
        <time>2018-08-09T19:25:15Z</time>
      </trkpt>
      <trkpt lat="46.27634" lon="10.4808">
        <ele>2216.122</ele>
        <time>2018-08-09T19:25:35Z</time>
      </trkpt>
      <trkpt lat="46.27635" lon="10.48083">
        <ele>2216.145</ele>
        <time>2018-08-09T19:25:55Z</time>
      </trkpt>
      <trkpt lat="46.27636" lon="10.48086">
        <ele>2216.299</ele>
        <time>2018-08-09T19:26:15Z</time>
      </trkpt>
      <trkpt lat="46.27637" lon="10.48089">
        <ele>2216.507</ele>
        <time>2018-08-09T19:26:35Z</time>
      </trkpt>
      <trkpt lat="46.27639" lon="10.4809">
        <ele>2216.927</ele>
        <time>2018-08-09T19:26:55Z</time>
      </trkpt>
      <trkpt lat="46.2764" lon="10.48094">
        <ele>2216.908</ele>
        <time>2018-08-09T19:27:15Z</time>
      </trkpt>
      <trkpt lat="46.27641" lon="10.48097">
        <ele>2216.941</ele>
        <time>2018-08-09T19:27:35Z</time>
      </trkpt>
      <trkpt lat="46.27641" lon="10.481">
        <ele>2216.676</ele>
        <time>2018-08-09T19:27:55Z</time>
      </trkpt>
      <trkpt lat="46.27642" lon="10.48103">
        <ele>2216.642</ele>
        <time>2018-08-09T19:28:15Z</time>
      </trkpt>
      <trkpt lat="46.27643" lon="10.48106">
        <ele>2216.776</ele>
        <time>2018-08-09T19:28:35Z</time>
      </trkpt>
      <trkpt lat="46.27645" lon="10.48108">
        <ele>2217.341</ele>
        <time>2018-08-09T19:28:55Z</time>
      </trkpt>
      <trkpt lat="46.27647" lon="10.48109">
        <ele>2218.292</ele>
        <time>2018-08-09T19:29:15Z</time>
      </trkpt>
      <trkpt lat="46.27649" lon="10.48109">
        <ele>2219.129</ele>
        <time>2018-08-09T19:29:35Z</time>
      </trkpt>
      <trkpt lat="46.27651" lon="10.48112">
        <ele>2219.842</ele>
        <time>2018-08-09T19:29:55Z</time>
      </trkpt>
      <trkpt lat="46.27653" lon="10.48112">
        <ele>2220.799</ele>
        <time>2018-08-09T19:30:15Z</time>
      </trkpt>
      <trkpt lat="46.27654" lon="10.48115">
        <ele>2221.307</ele>
        <time>2018-08-09T19:30:35Z</time>
      </trkpt>
      <trkpt lat="46.27656" lon="10.48117">
        <ele>2221.827</ele>
        <time>2018-08-09T19:30:55Z</time>
      </trkpt>
      <trkpt lat="46.27658" lon="10.48118">
        <ele>2222.708</ele>
        <time>2018-08-09T19:31:15Z</time>
      </trkpt>
      <trkpt lat="46.2766" lon="10.48119">
        <ele>2223.761</ele>
        <time>2018-08-09T19:31:35Z</time>
      </trkpt>
      <trkpt lat="46.27661" lon="10.4812">
        <ele>2224.486</ele>
        <time>2018-08-09T19:31:55Z</time>
      </trkpt>
      <trkpt lat="46.27663" lon="10.48122">
        <ele>2225.122</ele>
        <time>2018-08-09T19:32:15Z</time>
      </trkpt>
      <trkpt lat="46.27665" lon="10.48123">
        <ele>2226.336</ele>
        <time>2018-08-09T19:32:35Z</time>
      </trkpt>
      <trkpt lat="46.27668" lon="10.48125">
        <ele>2227.121</ele>
        <time>2018-08-09T19:32:55Z</time>
      </trkpt>
      <trkpt lat="46.27669" lon="10.48126">
        <ele>2227.262</ele>
        <time>2018-08-09T19:33:15Z</time>
      </trkpt>
      <trkpt lat="46.27672" lon="10.48126">
        <ele>2227.539</ele>
        <time>2018-08-09T19:33:35Z</time>
      </trkpt>
      <trkpt lat="46.27674" lon="10.48129">
        <ele>2227.522</ele>
        <time>2018-08-09T19:33:55Z</time>
      </trkpt>
      <trkpt lat="46.27676" lon="10.4813">
        <ele>2227.768</ele>
        <time>2018-08-09T19:34:15Z</time>
      </trkpt>
      <trkpt lat="46.27678" lon="10.48131">
        <ele>2227.842</ele>
        <time>2018-08-09T19:34:35Z</time>
      </trkpt>
      <trkpt lat="46.27679" lon="10.48133">
        <ele>2227.826</ele>
        <time>2018-08-09T19:34:55Z</time>
      </trkpt>
      <trkpt lat="46.27681" lon="10.48136">
        <ele>2227.808</ele>
        <time>2018-08-09T19:35:15Z</time>
      </trkpt>
      <trkpt lat="46.27683" lon="10.48137">
        <ele>2227.918</ele>
        <time>2018-08-09T19:35:35Z</time>
      </trkpt>
      <trkpt lat="46.27685" lon="10.48138">
        <ele>2228.073</ele>
        <time>2018-08-09T19:35:55Z</time>
      </trkpt>
      <trkpt lat="46.27687" lon="10.48139">
        <ele>2228.179</ele>
        <time>2018-08-09T19:36:15Z</time>
      </trkpt>
      <trkpt lat="46.27689" lon="10.48139">
        <ele>2228.343</ele>
        <time>2018-08-09T19:36:35Z</time>
      </trkpt>
      <trkpt lat="46.27691" lon="10.48139">
        <ele>2228.668</ele>
        <time>2018-08-09T19:36:55Z</time>
      </trkpt>
      <trkpt lat="46.27693" lon="10.48142">
        <ele>2228.419</ele>
        <time>2018-08-09T19:37:15Z</time>
      </trkpt>
      <trkpt lat="46.27694" lon="10.48145">
        <ele>2228.026</ele>
        <time>2018-08-09T19:37:35Z</time>
      </trkpt>
      <trkpt lat="46.27695" lon="10.48147">
        <ele>2228.449</ele>
        <time>2018-08-09T19:37:55Z</time>
      </trkpt>
      <trkpt lat="46.27697" lon="10.4815">
        <ele>2229.339</ele>
        <time>2018-08-09T19:38:15Z</time>
      </trkpt>
      <trkpt lat="46.27698" lon="10.48153">
        <ele>2229.801</ele>
        <time>2018-08-09T19:38:35Z</time>
      </trkpt>
      <trkpt lat="46.277" lon="10.48155">
        <ele>2230.321</ele>
        <time>2018-08-09T19:38:55Z</time>
      </trkpt>
      <trkpt lat="46.27701" lon="10.48157">
        <ele>2231.008</ele>
        <time>2018-08-09T19:39:15Z</time>
      </trkpt>
      <trkpt lat="46.27703" lon="10.48159">
        <ele>2231.915</ele>
        <time>2018-08-09T19:39:35Z</time>
      </trkpt>
      <trkpt lat="46.27704" lon="10.48162">
        <ele>2232.18</ele>
        <time>2018-08-09T19:39:55Z</time>
      </trkpt>
      <trkpt lat="46.27706" lon="10.48164">
        <ele>2233.096</ele>
        <time>2018-08-09T19:40:15Z</time>
      </trkpt>
      <trkpt lat="46.27708" lon="10.48166">
        <ele>2234.01</ele>
        <time>2018-08-09T19:40:35Z</time>
      </trkpt>
      <trkpt lat="46.27709" lon="10.48168">
        <ele>2234.425</ele>
        <time>2018-08-09T19:40:55Z</time>
      </trkpt>
      <trkpt lat="46.2771" lon="10.48171">
        <ele>2235.056</ele>
        <time>2018-08-09T19:41:15Z</time>
      </trkpt>
      <trkpt lat="46.27712" lon="10.48173">
        <ele>2235.993</ele>
        <time>2018-08-09T19:41:35Z</time>
      </trkpt>
      <trkpt lat="46.27713" lon="10.48176">
        <ele>2236.496</ele>
        <time>2018-08-09T19:41:55Z</time>
      </trkpt>
      <trkpt lat="46.27712" lon="10.48179">
        <ele>2235.581</ele>
        <time>2018-08-09T19:42:15Z</time>
      </trkpt>
      <trkpt lat="46.27712" lon="10.48183">
        <ele>2235.161</ele>
        <time>2018-08-09T19:42:35Z</time>
      </trkpt>
      <trkpt lat="46.27713" lon="10.48187">
        <ele>2234.917</ele>
        <time>2018-08-09T19:42:55Z</time>
      </trkpt>
      <trkpt lat="46.27713" lon="10.48188">
        <ele>2234.908</ele>
        <time>2018-08-09T19:43:15Z</time>
      </trkpt>
      <trkpt lat="46.27713" lon="10.48189">
        <ele>2234.95</ele>
        <time>2018-08-09T19:43:35Z</time>
      </trkpt>
      <trkpt lat="46.27714" lon="10.48192">
        <ele>2234.665</ele>
        <time>2018-08-09T19:43:55Z</time>
      </trkpt>
      <trkpt lat="46.27713" lon="10.48195">
        <ele>2234.181</ele>
        <time>2018-08-09T19:44:15Z</time>
      </trkpt>
      <trkpt lat="46.27714" lon="10.48198">
        <ele>2234.065</ele>
        <time>2018-08-09T19:44:35Z</time>
      </trkpt>
      <trkpt lat="46.27714" lon="10.48202">
        <ele>2233.41</ele>
        <time>2018-08-09T19:44:55Z</time>
      </trkpt>
      <trkpt lat="46.27714" lon="10.48205">
        <ele>2233.621</ele>
        <time>2018-08-09T19:45:15Z</time>
      </trkpt>
      <trkpt lat="46.27715" lon="10.48208">
        <ele>2233.368</ele>
        <time>2018-08-09T19:45:35Z</time>
      </trkpt>
      <trkpt lat="46.27715" lon="10.48211">
        <ele>2233.491</ele>
        <time>2018-08-09T19:45:55Z</time>
      </trkpt>
      <trkpt lat="46.27716" lon="10.48213">
        <ele>2233.586</ele>
        <time>2018-08-09T19:46:15Z</time>
      </trkpt>
      <trkpt lat="46.27717" lon="10.48217">
        <ele>2233.76</ele>
        <time>2018-08-09T19:46:35Z</time>
      </trkpt>
      <trkpt lat="46.27717" lon="10.48219">
        <ele>2233.326</ele>
        <time>2018-08-09T19:46:55Z</time>
      </trkpt>
      <trkpt lat="46.27717" lon="10.48223">
        <ele>2232.708</ele>
        <time>2018-08-09T19:47:15Z</time>
      </trkpt>
      <trkpt lat="46.27717" lon="10.48226">
        <ele>2232.35</ele>
        <time>2018-08-09T19:47:35Z</time>
      </trkpt>
      <trkpt lat="46.27716" lon="10.4823">
        <ele>2231.585</ele>
        <time>2018-08-09T19:47:55Z</time>
      </trkpt>
      <trkpt lat="46.27714" lon="10.48233">
        <ele>2230.471</ele>
        <time>2018-08-09T19:48:15Z</time>
      </trkpt>
      <trkpt lat="46.27714" lon="10.48235">
        <ele>2229.945</ele>
        <time>2018-08-09T19:48:35Z</time>
      </trkpt>
      <trkpt lat="46.27714" lon="10.48238">
        <ele>2230.03</ele>
        <time>2018-08-09T19:48:55Z</time>
      </trkpt>
      <trkpt lat="46.27714" lon="10.48241">
        <ele>2229.641</ele>
        <time>2018-08-09T19:49:15Z</time>
      </trkpt>
      <trkpt lat="46.27714" lon="10.48245">
        <ele>2229.128</ele>
        <time>2018-08-09T19:49:35Z</time>
      </trkpt>
      <trkpt lat="46.27714" lon="10.48248">
        <ele>2228.711</ele>
        <time>2018-08-09T19:49:55Z</time>
      </trkpt>
      <trkpt lat="46.27712" lon="10.48251">
        <ele>2228.182</ele>
        <time>2018-08-09T19:50:15Z</time>
      </trkpt>
      <trkpt lat="46.27711" lon="10.48254">
        <ele>2227.943</ele>
        <time>2018-08-09T19:50:35Z</time>
      </trkpt>
      <trkpt lat="46.27709" lon="10.48255">
        <ele>2227.217</ele>
        <time>2018-08-09T19:50:55Z</time>
      </trkpt>
      <trkpt lat="46.27707" lon="10.48257">
        <ele>2226.808</ele>
        <time>2018-08-09T19:51:15Z</time>
      </trkpt>
      <trkpt lat="46.27706" lon="10.48259">
        <ele>2226.49</ele>
        <time>2018-08-09T19:51:35Z</time>
      </trkpt>
      <trkpt lat="46.27704" lon="10.48261">
        <ele>2225.995</ele>
        <time>2018-08-09T19:51:55Z</time>
      </trkpt>
      <trkpt lat="46.27702" lon="10.48263">
        <ele>2225.621</ele>
        <time>2018-08-09T19:52:15Z</time>
      </trkpt>
      <trkpt lat="46.27701" lon="10.48265">
        <ele>2225.585</ele>
        <time>2018-08-09T19:52:35Z</time>
      </trkpt>
      <trkpt lat="46.277" lon="10.48268">
        <ele>2225.46</ele>
        <time>2018-08-09T19:52:55Z</time>
      </trkpt>
      <trkpt lat="46.27698" lon="10.48271">
        <ele>2225.211</ele>
        <time>2018-08-09T19:53:15Z</time>
      </trkpt>
      <trkpt lat="46.27699" lon="10.48273">
        <ele>2225.728</ele>
        <time>2018-08-09T19:53:35Z</time>
      </trkpt>
      <trkpt lat="46.27699" lon="10.48277">
        <ele>2226.311</ele>
        <time>2018-08-09T19:53:55Z</time>
      </trkpt>
      <trkpt lat="46.277" lon="10.4828">
        <ele>2226.929</ele>
        <time>2018-08-09T19:54:15Z</time>
      </trkpt>
      <trkpt lat="46.277" lon="10.48283">
        <ele>2227.4</ele>
        <time>2018-08-09T19:54:35Z</time>
      </trkpt>
      <trkpt lat="46.27701" lon="10.48287">
        <ele>2227.82</ele>
        <time>2018-08-09T19:54:55Z</time>
      </trkpt>
      <trkpt lat="46.27701" lon="10.4829">
        <ele>2228.508</ele>
        <time>2018-08-09T19:55:15Z</time>
      </trkpt>
      <trkpt lat="46.27702" lon="10.48294">
        <ele>2229.054</ele>
        <time>2018-08-09T19:55:35Z</time>
      </trkpt>
      <trkpt lat="46.27703" lon="10.48297">
        <ele>2229.599</ele>
        <time>2018-08-09T19:55:55Z</time>
      </trkpt>
      <trkpt lat="46.27703" lon="10.483">
        <ele>2229.875</ele>
        <time>2018-08-09T19:56:15Z</time>
      </trkpt>
      <trkpt lat="46.27704" lon="10.48303">
        <ele>2230.379</ele>
        <time>2018-08-09T19:56:35Z</time>
      </trkpt>
      <trkpt lat="46.27704" lon="10.48305">
        <ele>2230.814</ele>
        <time>2018-08-09T19:56:55Z</time>
      </trkpt>
      <trkpt lat="46.27706" lon="10.48308">
        <ele>2231.215</ele>
        <time>2018-08-09T19:57:15Z</time>
      </trkpt>
      <trkpt lat="46.27706" lon="10.48311">
        <ele>2231.512</ele>
        <time>2018-08-09T19:57:35Z</time>
      </trkpt>
      <trkpt lat="46.27708" lon="10.48313">
        <ele>2232.155</ele>
        <time>2018-08-09T19:57:55Z</time>
      </trkpt>
      <trkpt lat="46.27711" lon="10.48314">
        <ele>2232.746</ele>
        <time>2018-08-09T19:58:15Z</time>
      </trkpt>
      <trkpt lat="46.27712" lon="10.48318">
        <ele>2233.288</ele>
        <time>2018-08-09T19:58:35Z</time>
      </trkpt>
      <trkpt lat="46.27714" lon="10.48319">
        <ele>2233.716</ele>
        <time>2018-08-09T19:58:55Z</time>
      </trkpt>
      <trkpt lat="46.27716" lon="10.48321">
        <ele>2234.308</ele>
        <time>2018-08-09T19:59:15Z</time>
      </trkpt>
      <trkpt lat="46.27718" lon="10.48323">
        <ele>2234.966</ele>
        <time>2018-08-09T19:59:35Z</time>
      </trkpt>
      <trkpt lat="46.2772" lon="10.48325">
        <ele>2235.421</ele>
        <time>2018-08-09T19:59:55Z</time>
      </trkpt>
      <trkpt lat="46.27721" lon="10.48328">
        <ele>2235.657</ele>
        <time>2018-08-09T20:00:15Z</time>
      </trkpt>
      <trkpt lat="46.27722" lon="10.48331">
        <ele>2235.911</ele>
        <time>2018-08-09T20:00:35Z</time>
      </trkpt>
      <trkpt lat="46.27724" lon="10.48333">
        <ele>2236.326</ele>
        <time>2018-08-09T20:00:55Z</time>
      </trkpt>
      <trkpt lat="46.27725" lon="10.48335">
        <ele>2236.487</ele>
        <time>2018-08-09T20:01:15Z</time>
      </trkpt>
      <trkpt lat="46.27726" lon="10.48338">
        <ele>2236.274</ele>
        <time>2018-08-09T20:01:35Z</time>
      </trkpt>
      <trkpt lat="46.27727" lon="10.48343">
        <ele>2235.667</ele>
        <time>2018-08-09T20:01:55Z</time>
      </trkpt>
      <trkpt lat="46.27728" lon="10.48346">
        <ele>2235.382</ele>
        <time>2018-08-09T20:02:15Z</time>
      </trkpt>
      <trkpt lat="46.27729" lon="10.48349">
        <ele>2234.943</ele>
        <time>2018-08-09T20:02:35Z</time>
      </trkpt>
      <trkpt lat="46.2773" lon="10.48354">
        <ele>2234.517</ele>
        <time>2018-08-09T20:02:55Z</time>
      </trkpt>
      <trkpt lat="46.2773" lon="10.48356">
        <ele>2234.208</ele>
        <time>2018-08-09T20:03:15Z</time>
      </trkpt>
      <trkpt lat="46.27732" lon="10.48359">
        <ele>2234.21</ele>
        <time>2018-08-09T20:03:35Z</time>
      </trkpt>
      <trkpt lat="46.27733" lon="10.48362">
        <ele>2234.075</ele>
        <time>2018-08-09T20:03:55Z</time>
      </trkpt>
      <trkpt lat="46.27735" lon="10.48365">
        <ele>2233.821</ele>
        <time>2018-08-09T20:04:15Z</time>
      </trkpt>
      <trkpt lat="46.27737" lon="10.48366">
        <ele>2234.085</ele>
        <time>2018-08-09T20:04:35Z</time>
      </trkpt>
      <trkpt lat="46.27739" lon="10.48368">
        <ele>2234.22</ele>
        <time>2018-08-09T20:04:55Z</time>
      </trkpt>
      <trkpt lat="46.2774" lon="10.48371">
        <ele>2234.041</ele>
        <time>2018-08-09T20:05:15Z</time>
      </trkpt>
      <trkpt lat="46.27742" lon="10.48374">
        <ele>2233.868</ele>
        <time>2018-08-09T20:05:35Z</time>
      </trkpt>
      <trkpt lat="46.27743" lon="10.48376">
        <ele>2233.941</ele>
        <time>2018-08-09T20:05:55Z</time>
      </trkpt>
      <trkpt lat="46.27745" lon="10.48377">
        <ele>2233.948</ele>
        <time>2018-08-09T20:06:15Z</time>
      </trkpt>
      <trkpt lat="46.27746" lon="10.4838">
        <ele>2233.761</ele>
        <time>2018-08-09T20:06:35Z</time>
      </trkpt>
      <trkpt lat="46.27747" lon="10.48382">
        <ele>2233.717</ele>
        <time>2018-08-09T20:06:55Z</time>
      </trkpt>
      <trkpt lat="46.27749" lon="10.48384">
        <ele>2233.708</ele>
        <time>2018-08-09T20:07:15Z</time>
      </trkpt>
      <trkpt lat="46.2775" lon="10.48387">
        <ele>2233.536</ele>
        <time>2018-08-09T20:07:35Z</time>
      </trkpt>
      <trkpt lat="46.27751" lon="10.48389">
        <ele>2233.271</ele>
        <time>2018-08-09T20:07:55Z</time>
      </trkpt>
      <trkpt lat="46.27753" lon="10.4839">
        <ele>2233.167</ele>
        <time>2018-08-09T20:08:15Z</time>
      </trkpt>
      <trkpt lat="46.27756" lon="10.48392">
        <ele>2233.271</ele>
        <time>2018-08-09T20:08:35Z</time>
      </trkpt>
      <trkpt lat="46.27757" lon="10.48393">
        <ele>2233.396</ele>
        <time>2018-08-09T20:08:55Z</time>
      </trkpt>
      <trkpt lat="46.27759" lon="10.48395">
        <ele>2233.167</ele>
        <time>2018-08-09T20:09:15Z</time>
      </trkpt>
      <trkpt lat="46.27761" lon="10.48396">
        <ele>2233.164</ele>
        <time>2018-08-09T20:09:35Z</time>
      </trkpt>
      <trkpt lat="46.27763" lon="10.48397">
        <ele>2233.357</ele>
        <time>2018-08-09T20:09:55Z</time>
      </trkpt>
      <trkpt lat="46.27765" lon="10.48397">
        <ele>2233.538</ele>
        <time>2018-08-09T20:10:15Z</time>
      </trkpt>
      <trkpt lat="46.27767" lon="10.48398">
        <ele>2233.67</ele>
        <time>2018-08-09T20:10:35Z</time>
      </trkpt>
      <trkpt lat="46.2777" lon="10.48399">
        <ele>2233.817</ele>
        <time>2018-08-09T20:10:55Z</time>
      </trkpt>
      <trkpt lat="46.27772" lon="10.48399">
        <ele>2233.908</ele>
        <time>2018-08-09T20:11:15Z</time>
      </trkpt>
      <trkpt lat="46.27773" lon="10.48398">
        <ele>2234.415</ele>
        <time>2018-08-09T20:11:35Z</time>
      </trkpt>
      <trkpt lat="46.27776" lon="10.48399">
        <ele>2234.53</ele>
        <time>2018-08-09T20:11:55Z</time>
      </trkpt>
      <trkpt lat="46.27778" lon="10.484">
        <ele>2234.796</ele>
        <time>2018-08-09T20:12:15Z</time>
      </trkpt>
      <trkpt lat="46.2778" lon="10.484">
        <ele>2234.56</ele>
        <time>2018-08-09T20:12:35Z</time>
      </trkpt>
      <trkpt lat="46.27782" lon="10.48401">
        <ele>2234.035</ele>
        <time>2018-08-09T20:12:55Z</time>
      </trkpt>
      <trkpt lat="46.27785" lon="10.48403">
        <ele>2233.436</ele>
        <time>2018-08-09T20:13:15Z</time>
      </trkpt>
      <trkpt lat="46.27787" lon="10.48403">
        <ele>2233.033</ele>
        <time>2018-08-09T20:13:35Z</time>
      </trkpt>
      <trkpt lat="46.27789" lon="10.48404">
        <ele>2232.766</ele>
        <time>2018-08-09T20:13:55Z</time>
      </trkpt>
      <trkpt lat="46.27791" lon="10.48406">
        <ele>2231.851</ele>
        <time>2018-08-09T20:14:15Z</time>
      </trkpt>
      <trkpt lat="46.27792" lon="10.48407">
        <ele>2231.001</ele>
        <time>2018-08-09T20:14:35Z</time>
      </trkpt>
      <trkpt lat="46.27794" lon="10.48405">
        <ele>2231.811</ele>
        <time>2018-08-09T20:14:55Z</time>
      </trkpt>
      <trkpt lat="46.27796" lon="10.48403">
        <ele>2232.408</ele>
        <time>2018-08-09T20:15:15Z</time>
      </trkpt>
      <trkpt lat="46.27798" lon="10.48401">
        <ele>2232.797</ele>
        <time>2018-08-09T20:15:35Z</time>
      </trkpt>
      <trkpt lat="46.27801" lon="10.48403">
        <ele>2231.972</ele>
        <time>2018-08-09T20:15:55Z</time>
      </trkpt>
      <trkpt lat="46.27802" lon="10.48404">
        <ele>2231.298</ele>
        <time>2018-08-09T20:16:15Z</time>
      </trkpt>
      <trkpt lat="46.27805" lon="10.48406">
        <ele>2230.262</ele>
        <time>2018-08-09T20:16:35Z</time>
      </trkpt>
      <trkpt lat="46.27806" lon="10.48406">
        <ele>2230.137</ele>
        <time>2018-08-09T20:16:55Z</time>
      </trkpt>
      <trkpt lat="46.27808" lon="10.48406">
        <ele>2230.798</ele>
        <time>2018-08-09T20:17:15Z</time>
      </trkpt>
      <trkpt lat="46.27811" lon="10.48406">
        <ele>2231.225</ele>
        <time>2018-08-09T20:17:35Z</time>
      </trkpt>
      <trkpt lat="46.27813" lon="10.48407">
        <ele>2231.488</ele>
        <time>2018-08-09T20:17:55Z</time>
      </trkpt>
      <trkpt lat="46.27815" lon="10.48408">
        <ele>2231.558</ele>
        <time>2018-08-09T20:18:15Z</time>
      </trkpt>
      <trkpt lat="46.27817" lon="10.48409">
        <ele>2231.952</ele>
        <time>2018-08-09T20:18:35Z</time>
      </trkpt>
      <trkpt lat="46.27819" lon="10.48408">
        <ele>2232.817</ele>
        <time>2018-08-09T20:18:55Z</time>
      </trkpt>
      <trkpt lat="46.27821" lon="10.4841">
        <ele>2232.508</ele>
        <time>2018-08-09T20:19:15Z</time>
      </trkpt>
      <trkpt lat="46.27823" lon="10.48411">
        <ele>2232.467</ele>
        <time>2018-08-09T20:19:35Z</time>
      </trkpt>
      <trkpt lat="46.27825" lon="10.48413">
        <ele>2232.042</ele>
        <time>2018-08-09T20:19:55Z</time>
      </trkpt>
      <trkpt lat="46.27826" lon="10.48415">
        <ele>2231.818</ele>
        <time>2018-08-09T20:20:15Z</time>
      </trkpt>
      <trkpt lat="46.27828" lon="10.48416">
        <ele>2231.892</ele>
        <time>2018-08-09T20:20:35Z</time>
      </trkpt>
      <trkpt lat="46.2783" lon="10.48417">
        <ele>2231.937</ele>
        <time>2018-08-09T20:20:55Z</time>
      </trkpt>
      <trkpt lat="46.27832" lon="10.48419">
        <ele>2231.958</ele>
        <time>2018-08-09T20:21:15Z</time>
      </trkpt>
      <trkpt lat="46.27834" lon="10.48421">
        <ele>2231.875</ele>
        <time>2018-08-09T20:21:35Z</time>
      </trkpt>
      <trkpt lat="46.27836" lon="10.48422">
        <ele>2231.898</ele>
        <time>2018-08-09T20:21:55Z</time>
      </trkpt>
      <trkpt lat="46.27838" lon="10.48424">
        <ele>2231.413</ele>
        <time>2018-08-09T20:22:15Z</time>
      </trkpt>
      <trkpt lat="46.2784" lon="10.48426">
        <ele>2231.443</ele>
        <time>2018-08-09T20:22:35Z</time>
      </trkpt>
      <trkpt lat="46.27841" lon="10.48429">
        <ele>2230.807</ele>
        <time>2018-08-09T20:22:55Z</time>
      </trkpt>
      <trkpt lat="46.27843" lon="10.48432">
        <ele>2230.308</ele>
        <time>2018-08-09T20:23:15Z</time>
      </trkpt>
      <trkpt lat="46.27843" lon="10.48434">
        <ele>2229.683</ele>
        <time>2018-08-09T20:23:35Z</time>
      </trkpt>
      <trkpt lat="46.27879" lon="10.48453">
        <ele>2234.728</ele>
        <time>2018-08-09T20:23:55Z</time>
      </trkpt>
      <trkpt lat="46.27917" lon="10.48463">
        <ele>2241.964</ele>
        <time>2018-08-09T20:24:15Z</time>
      </trkpt>
      <trkpt lat="46.27952" lon="10.48455">
        <ele>2249.968</ele>
        <time>2018-08-09T20:24:35Z</time>
      </trkpt>
      <trkpt lat="46.27977" lon="10.48442">
        <ele>2257.693</ele>
        <time>2018-08-09T20:24:55Z</time>
      </trkpt>
      <trkpt lat="46.27994" lon="10.48437">
        <ele>2262.744</ele>
        <time>2018-08-09T20:25:15Z</time>
      </trkpt>
      <trkpt lat="46.28021" lon="10.4843">
        <ele>2269.111</ele>
        <time>2018-08-09T20:25:35Z</time>
      </trkpt>
      <trkpt lat="46.28043" lon="10.48423">
        <ele>2273.284</ele>
        <time>2018-08-09T20:25:55Z</time>
      </trkpt>
      <trkpt lat="46.28057" lon="10.48424">
        <ele>2274.962</ele>
        <time>2018-08-09T20:26:15Z</time>
      </trkpt>
      <trkpt lat="46.28088" lon="10.48446">
        <ele>2281.783</ele>
        <time>2018-08-09T20:26:35Z</time>
      </trkpt>
      <trkpt lat="46.28107" lon="10.48482">
        <ele>2290.911</ele>
        <time>2018-08-09T20:26:55Z</time>
      </trkpt>
      <trkpt lat="46.28116" lon="10.48493">
        <ele>2296.608</ele>
        <time>2018-08-09T20:27:15Z</time>
      </trkpt>
      <trkpt lat="46.2813" lon="10.4851">
        <ele>2301.748</ele>
        <time>2018-08-09T20:27:35Z</time>
      </trkpt>
      <trkpt lat="46.28149" lon="10.48511">
        <ele>2308.863</ele>
        <time>2018-08-09T20:27:55Z</time>
      </trkpt>
      <trkpt lat="46.28172" lon="10.48506">
        <ele>2319.039</ele>
        <time>2018-08-09T20:28:15Z</time>
      </trkpt>
      <trkpt lat="46.28189" lon="10.4849">
        <ele>2328.323</ele>
        <time>2018-08-09T20:28:35Z</time>
      </trkpt>
      <trkpt lat="46.2821" lon="10.48463">
        <ele>2340.468</ele>
        <time>2018-08-09T20:28:55Z</time>
      </trkpt>
      <trkpt lat="46.28272" lon="10.48396">
        <ele>2372.879</ele>
        <time>2018-08-09T20:29:15Z</time>
      </trkpt>
      <trkpt lat="46.28297" lon="10.48364">
        <ele>2394.476</ele>
        <time>2018-08-09T20:29:35Z</time>
      </trkpt>
      <trkpt lat="46.2832" lon="10.48342">
        <ele>2406.569</ele>
        <time>2018-08-09T20:29:55Z</time>
      </trkpt>
      <trkpt lat="46.28345" lon="10.48329">
        <ele>2414.336</ele>
        <time>2018-08-09T20:30:15Z</time>
      </trkpt>
      <trkpt lat="46.28401" lon="10.48317">
        <ele>2422.617</ele>
        <time>2018-08-09T20:30:35Z</time>
      </trkpt>
      <trkpt lat="46.28457" lon="10.483">
        <ele>2426.518</ele>
        <time>2018-08-09T20:30:55Z</time>
      </trkpt>
      <trkpt lat="46.28493" lon="10.48286">
        <ele>2432.708</ele>
        <time>2018-08-09T20:31:15Z</time>
      </trkpt>
      <trkpt lat="46.28525" lon="10.48282">
        <ele>2433.775</ele>
        <time>2018-08-09T20:31:35Z</time>
      </trkpt>
      <trkpt lat="46.28567" lon="10.48277">
        <ele>2432.16</ele>
        <time>2018-08-09T20:31:55Z</time>
      </trkpt>
      <trkpt lat="46.28626" lon="10.48276">
        <ele>2441.216</ele>
        <time>2018-08-09T20:32:15Z</time>
      </trkpt>
      <trkpt lat="46.28672" lon="10.4828">
        <ele>2446.05</ele>
        <time>2018-08-09T20:32:35Z</time>
      </trkpt>
      <trkpt lat="46.28696" lon="10.48284">
        <ele>2452.485</ele>
        <time>2018-08-09T20:32:55Z</time>
      </trkpt>
      <trkpt lat="46.28736" lon="10.48285">
        <ele>2471.316</ele>
        <time>2018-08-09T20:33:15Z</time>
      </trkpt>
      <trkpt lat="46.28778" lon="10.48305">
        <ele>2485.293</ele>
        <time>2018-08-09T20:33:35Z</time>
      </trkpt>
      <trkpt lat="46.28779" lon="10.48308">
        <ele>2485.786</ele>
        <time>2018-08-09T20:33:55Z</time>
      </trkpt>
      <trkpt lat="46.28793" lon="10.48339">
        <ele>2491.752</ele>
        <time>2018-08-09T20:34:15Z</time>
      </trkpt>
      <trkpt lat="46.28797" lon="10.48347">
        <ele>2492.953</ele>
        <time>2018-08-09T20:34:35Z</time>
      </trkpt>
      <trkpt lat="46.28838" lon="10.4834">
        <ele>2502.608</ele>
        <time>2018-08-09T20:34:55Z</time>
      </trkpt>
      <trkpt lat="46.28857" lon="10.4831">
        <ele>2516.308</ele>
        <time>2018-08-09T20:35:15Z</time>
      </trkpt>
      <trkpt lat="46.28869" lon="10.4828">
        <ele>2525.777</ele>
        <time>2018-08-09T20:35:35Z</time>
      </trkpt>
      <trkpt lat="46.28878" lon="10.48259">
        <ele>2535.142</ele>
        <time>2018-08-09T20:35:55Z</time>
      </trkpt>
      <trkpt lat="46.28886" lon="10.48231">
        <ele>2547.378</ele>
        <time>2018-08-09T20:36:15Z</time>
      </trkpt>
      <trkpt lat="46.28896" lon="10.48209">
        <ele>2553.842</ele>
        <time>2018-08-09T20:36:35Z</time>
      </trkpt>
      <trkpt lat="46.28903" lon="10.48195">
        <ele>2557.067</ele>
        <time>2018-08-09T20:36:55Z</time>
      </trkpt>
      <trkpt lat="46.28931" lon="10.48185">
        <ele>2559.488</ele>
        <time>2018-08-09T20:37:15Z</time>
      </trkpt>
      <trkpt lat="46.28941" lon="10.48176">
        <ele>2561.185</ele>
        <time>2018-08-09T20:37:35Z</time>
      </trkpt>
      <trkpt lat="46.28963" lon="10.48147">
        <ele>2573.418</ele>
        <time>2018-08-09T20:37:55Z</time>
      </trkpt>
      <trkpt lat="46.28977" lon="10.48142">
        <ele>2577.591</ele>
        <time>2018-08-09T20:38:15Z</time>
      </trkpt>
      <trkpt lat="46.28994" lon="10.48136">
        <ele>2579.181</ele>
        <time>2018-08-09T20:38:35Z</time>
      </trkpt>
      <trkpt lat="46.29025" lon="10.48141">
        <ele>2578.719</ele>
        <time>2018-08-09T20:38:55Z</time>
      </trkpt>
      <trkpt lat="46.2905" lon="10.48162">
        <ele>2595.708</ele>
        <time>2018-08-09T20:39:15Z</time>
      </trkpt>
      <trkpt lat="46.29075" lon="10.48187">
        <ele>2601.421</ele>
        <time>2018-08-09T20:39:35Z</time>
      </trkpt>
      <trkpt lat="46.29096" lon="10.48207">
        <ele>2610.076</ele>
        <time>2018-08-09T20:39:55Z</time>
      </trkpt>
      <trkpt lat="46.29098" lon="10.48209">
        <ele>2611.162</ele>
        <time>2018-08-09T20:40:15Z</time>
      </trkpt>
      <trkpt lat="46.29101" lon="10.48212">
        <ele>2612.936</ele>
        <time>2018-08-09T20:40:35Z</time>
      </trkpt>
      <trkpt lat="46.29087" lon="10.48239">
        <ele>2598.731</ele>
        <time>2018-08-09T20:40:55Z</time>
      </trkpt>
      <trkpt lat="46.29075" lon="10.48265">
        <ele>2592.122</ele>
        <time>2018-08-09T20:41:15Z</time>
      </trkpt>
      <trkpt lat="46.29074" lon="10.4827">
        <ele>2591.919</ele>
        <time>2018-08-09T20:41:35Z</time>
      </trkpt>
      <trkpt lat="46.29064" lon="10.48283">
        <ele>2586.532</ele>
        <time>2018-08-09T20:41:55Z</time>
      </trkpt>
      <trkpt lat="46.29046" lon="10.48295">
        <ele>2578.219</ele>
        <time>2018-08-09T20:42:15Z</time>
      </trkpt>
      <trkpt lat="46.29032" lon="10.48314">
        <ele>2571.509</ele>
        <time>2018-08-09T20:42:35Z</time>
      </trkpt>
      <trkpt lat="46.2903" lon="10.48335">
        <ele>2566.119</ele>
        <time>2018-08-09T20:42:55Z</time>
      </trkpt>
      <trkpt lat="46.29023" lon="10.48367">
        <ele>2561.708</ele>
        <time>2018-08-09T20:43:15Z</time>
      </trkpt>
      <trkpt lat="46.29025" lon="10.48392">
        <ele>2571.963</ele>
        <time>2018-08-09T20:43:35Z</time>
      </trkpt>
      <trkpt lat="46.29022" lon="10.48414">
        <ele>2570.338</ele>
        <time>2018-08-09T20:43:55Z</time>
      </trkpt>
      <trkpt lat="46.29011" lon="10.48438">
        <ele>2562.894</ele>
        <time>2018-08-09T20:44:15Z</time>
      </trkpt>
      <trkpt lat="46.29001" lon="10.48459">
        <ele>2554.918</ele>
        <time>2018-08-09T20:44:35Z</time>
      </trkpt>
      <trkpt lat="46.28987" lon="10.48472">
        <ele>2552.043</ele>
        <time>2018-08-09T20:44:55Z</time>
      </trkpt>
      <trkpt lat="46.28977" lon="10.48491">
        <ele>2550.364</ele>
        <time>2018-08-09T20:45:15Z</time>
      </trkpt>
      <trkpt lat="46.2897" lon="10.4851">
        <ele>2548.031</ele>
        <time>2018-08-09T20:45:35Z</time>
      </trkpt>
      <trkpt lat="46.28966" lon="10.48523">
        <ele>2545.274</ele>
        <time>2018-08-09T20:45:55Z</time>
      </trkpt>
      <trkpt lat="46.28962" lon="10.48528">
        <ele>2543.221</ele>
        <time>2018-08-09T20:46:15Z</time>
      </trkpt>
      <trkpt lat="46.28918" lon="10.48564">
        <ele>2526.241</ele>
        <time>2018-08-09T20:46:35Z</time>
      </trkpt>
      <trkpt lat="46.28908" lon="10.48577">
        <ele>2521.705</ele>
        <time>2018-08-09T20:46:55Z</time>
      </trkpt>
      <trkpt lat="46.28893" lon="10.48596">
        <ele>2512.608</ele>
        <time>2018-08-09T20:47:15Z</time>
      </trkpt>
      <trkpt lat="46.28889" lon="10.48597">
        <ele>2510.784</ele>
        <time>2018-08-09T20:47:35Z</time>
      </trkpt>
      <trkpt lat="46.28874" lon="10.48601">
        <ele>2507.129</ele>
        <time>2018-08-09T20:47:55Z</time>
      </trkpt>
      <trkpt lat="46.28865" lon="10.48608">
        <ele>2504.755</ele>
        <time>2018-08-09T20:48:15Z</time>
      </trkpt>
      <trkpt lat="46.28842" lon="10.48616">
        <ele>2502.999</ele>
        <time>2018-08-09T20:48:35Z</time>
      </trkpt>
      <trkpt lat="46.28839" lon="10.48617">
        <ele>2502.714</ele>
        <time>2018-08-09T20:48:55Z</time>
      </trkpt>
      <trkpt lat="46.28833" lon="10.48612">
        <ele>2503.845</ele>
        <time>2018-08-09T20:49:15Z</time>
      </trkpt>
      <trkpt lat="46.28828" lon="10.48607">
        <ele>2504.332</ele>
        <time>2018-08-09T20:49:35Z</time>
      </trkpt>
      <trkpt lat="46.28828" lon="10.48566">
        <ele>2500.435</ele>
        <time>2018-08-09T20:49:55Z</time>
      </trkpt>
      <trkpt lat="46.28827" lon="10.48519">
        <ele>2485.129</ele>
        <time>2018-08-09T20:50:15Z</time>
      </trkpt>
      <trkpt lat="46.28832" lon="10.48474">
        <ele>2480.5</ele>
        <time>2018-08-09T20:50:35Z</time>
      </trkpt>
      <trkpt lat="46.28831" lon="10.48452">
        <ele>2483.82</ele>
        <time>2018-08-09T20:50:55Z</time>
      </trkpt>
      <trkpt lat="46.28833" lon="10.48441">
        <ele>2484.808</ele>
        <time>2018-08-09T20:51:15Z</time>
      </trkpt>
      <trkpt lat="46.28836" lon="10.48404">
        <ele>2489.574</ele>
        <time>2018-08-09T20:51:35Z</time>
      </trkpt>
      <trkpt lat="46.28829" lon="10.48403">
        <ele>2490.759</ele>
        <time>2018-08-09T20:51:55Z</time>
      </trkpt>
      <trkpt lat="46.28799" lon="10.48399">
        <ele>2495.085</ele>
        <time>2018-08-09T20:52:15Z</time>
      </trkpt>
      <trkpt lat="46.28798" lon="10.48399">
        <ele>2495.049</ele>
        <time>2018-08-09T20:52:35Z</time>
      </trkpt>
      <trkpt lat="46.28787" lon="10.48404">
        <ele>2495.474</ele>
        <time>2018-08-09T20:52:55Z</time>
      </trkpt>
      <trkpt lat="46.28776" lon="10.48415">
        <ele>2496.295</ele>
        <time>2018-08-09T20:53:15Z</time>
      </trkpt>
      <trkpt lat="46.28761" lon="10.48429">
        <ele>2494.272</ele>
        <time>2018-08-09T20:53:35Z</time>
      </trkpt>
      <trkpt lat="46.28727" lon="10.4845">
        <ele>2479.935</ele>
        <time>2018-08-09T20:53:55Z</time>
      </trkpt>
      <trkpt lat="46.28702" lon="10.48463">
        <ele>2473.263</ele>
        <time>2018-08-09T20:54:15Z</time>
      </trkpt>
      <trkpt lat="46.28676" lon="10.4848">
        <ele>2471.144</ele>
        <time>2018-08-09T20:54:35Z</time>
      </trkpt>
      <trkpt lat="46.28657" lon="10.4848">
        <ele>2463.118</ele>
        <time>2018-08-09T20:54:55Z</time>
      </trkpt>
      <trkpt lat="46.28633" lon="10.48482">
        <ele>2451.808</ele>
        <time>2018-08-09T20:55:15Z</time>
      </trkpt>
      <trkpt lat="46.2858" lon="10.48496">
        <ele>2444.288</ele>
        <time>2018-08-09T20:55:35Z</time>
      </trkpt>
      <trkpt lat="46.28544" lon="10.48498">
        <ele>2435.833</ele>
        <time>2018-08-09T20:55:55Z</time>
      </trkpt>
      <trkpt lat="46.28527" lon="10.4849">
        <ele>2430.059</ele>
        <time>2018-08-09T20:56:15Z</time>
      </trkpt>
      <trkpt lat="46.28498" lon="10.48485">
        <ele>2425.283</ele>
        <time>2018-08-09T20:56:35Z</time>
      </trkpt>
      <trkpt lat="46.28476" lon="10.48493">
        <ele>2424.028</ele>
        <time>2018-08-09T20:56:55Z</time>
      </trkpt>
      <trkpt lat="46.28452" lon="10.48493">
        <ele>2421.719</ele>
        <time>2018-08-09T20:57:15Z</time>
      </trkpt>
      <trkpt lat="46.28425" lon="10.48497">
        <ele>2414.856</ele>
        <time>2018-08-09T20:57:35Z</time>
      </trkpt>
      <trkpt lat="46.28408" lon="10.48518">
        <ele>2409.169</ele>
        <time>2018-08-09T20:57:55Z</time>
      </trkpt>
      <trkpt lat="46.2838" lon="10.48543">
        <ele>2401.132</ele>
        <time>2018-08-09T20:58:15Z</time>
      </trkpt>
      <trkpt lat="46.28362" lon="10.48548">
        <ele>2391.392</ele>
        <time>2018-08-09T20:58:35Z</time>
      </trkpt>
      <trkpt lat="46.28343" lon="10.48552">
        <ele>2382.911</ele>
        <time>2018-08-09T20:58:55Z</time>
      </trkpt>
      <trkpt lat="46.28305" lon="10.48563">
        <ele>2370.608</ele>
        <time>2018-08-09T20:59:15Z</time>
      </trkpt>
      <trkpt lat="46.28299" lon="10.48564">
        <ele>2369.215</ele>
        <time>2018-08-09T20:59:35Z</time>
      </trkpt>
      <trkpt lat="46.28189" lon="10.48578">
        <ele>2324.47</ele>
        <time>2018-08-09T20:59:55Z</time>
      </trkpt>
      <trkpt lat="46.28184" lon="10.48562">
        <ele>2322.226</ele>
        <time>2018-08-09T21:00:15Z</time>
      </trkpt>
      <trkpt lat="46.28174" lon="10.48568">
        <ele>2316.38</ele>
        <time>2018-08-09T21:00:35Z</time>
      </trkpt>
      <trkpt lat="46.28173" lon="10.48581">
        <ele>2315.035</ele>
        <time>2018-08-09T21:00:55Z</time>
      </trkpt>
      <trkpt lat="46.28172" lon="10.48601">
        <ele>2314.976</ele>
        <time>2018-08-09T21:01:15Z</time>
      </trkpt>
      <trkpt lat="46.28167" lon="10.48629">
        <ele>2315.563</ele>
        <time>2018-08-09T21:01:35Z</time>
      </trkpt>
      <trkpt lat="46.28159" lon="10.48641">
        <ele>2312.526</ele>
        <time>2018-08-09T21:01:55Z</time>
      </trkpt>
      <trkpt lat="46.28141" lon="10.48662">
        <ele>2303.193</ele>
        <time>2018-08-09T21:02:15Z</time>
      </trkpt>
      <trkpt lat="46.28107" lon="10.48683">
        <ele>2299.165</ele>
        <time>2018-08-09T21:02:35Z</time>
      </trkpt>
      <trkpt lat="46.28089" lon="10.48704">
        <ele>2295.921</ele>
        <time>2018-08-09T21:02:55Z</time>
      </trkpt>
      <trkpt lat="46.2806" lon="10.48723">
        <ele>2291.908</ele>
        <time>2018-08-09T21:03:15Z</time>
      </trkpt>
      <trkpt lat="46.28047" lon="10.48736">
        <ele>2289.391</ele>
        <time>2018-08-09T21:03:35Z</time>
      </trkpt>
      <trkpt lat="46.28035" lon="10.48756">
        <ele>2287.936</ele>
        <time>2018-08-09T21:03:55Z</time>
      </trkpt>
      <trkpt lat="46.28011" lon="10.48769">
        <ele>2279.712</ele>
        <time>2018-08-09T21:04:15Z</time>
      </trkpt>
      <trkpt lat="46.27998" lon="10.48777">
        <ele>2275.056</ele>
        <time>2018-08-09T21:04:35Z</time>
      </trkpt>
      <trkpt lat="46.27978" lon="10.48793">
        <ele>2269.971</ele>
        <time>2018-08-09T21:04:55Z</time>
      </trkpt>
      <trkpt lat="46.2795" lon="10.48811">
        <ele>2262.722</ele>
        <time>2018-08-09T21:05:15Z</time>
      </trkpt>
      <trkpt lat="46.27944" lon="10.48816">
        <ele>2261.329</ele>
        <time>2018-08-09T21:05:35Z</time>
      </trkpt>
      <trkpt lat="46.27937" lon="10.48827">
        <ele>2259.312</ele>
        <time>2018-08-09T21:05:55Z</time>
      </trkpt>
      <trkpt lat="46.2793" lon="10.48845">
        <ele>2259.362</ele>
        <time>2018-08-09T21:06:15Z</time>
      </trkpt>
      <trkpt lat="46.2792" lon="10.48859">
        <ele>2257.683</ele>
        <time>2018-08-09T21:06:35Z</time>
      </trkpt>
      <trkpt lat="46.27899" lon="10.48876">
        <ele>2250.811</ele>
        <time>2018-08-09T21:06:55Z</time>
      </trkpt>
      <trkpt lat="46.27879" lon="10.48888">
        <ele>2244.008</ele>
        <time>2018-08-09T21:07:15Z</time>
      </trkpt>
      <trkpt lat="46.27856" lon="10.48932">
        <ele>2245.018</ele>
        <time>2018-08-09T21:07:35Z</time>
      </trkpt>
      <trkpt lat="46.27854" lon="10.48938">
        <ele>2245.683</ele>
        <time>2018-08-09T21:07:55Z</time>
      </trkpt>
      <trkpt lat="46.27835" lon="10.48961">
        <ele>2245.479</ele>
        <time>2018-08-09T21:08:15Z</time>
      </trkpt>
      <trkpt lat="46.27819" lon="10.48976">
        <ele>2242.213</ele>
        <time>2018-08-09T21:08:35Z</time>
      </trkpt>
      <trkpt lat="46.27803" lon="10.48984">
        <ele>2237.578</ele>
        <time>2018-08-09T21:08:55Z</time>
      </trkpt>
      <trkpt lat="46.27786" lon="10.48994">
        <ele>2232.849</ele>
        <time>2018-08-09T21:09:15Z</time>
      </trkpt>
      <trkpt lat="46.27768" lon="10.49009">
        <ele>2225.386</ele>
        <time>2018-08-09T21:09:35Z</time>
      </trkpt>
      <trkpt lat="46.2776" lon="10.4904">
        <ele>2230.799</ele>
        <time>2018-08-09T21:09:55Z</time>
      </trkpt>
      <trkpt lat="46.27751" lon="10.49051">
        <ele>2228.354</ele>
        <time>2018-08-09T21:10:15Z</time>
      </trkpt>
      <trkpt lat="46.27739" lon="10.49068">
        <ele>2226.556</ele>
        <time>2018-08-09T21:10:35Z</time>
      </trkpt>
      <trkpt lat="46.27729" lon="10.49085">
        <ele>2227.811</ele>
        <time>2018-08-09T21:10:55Z</time>
      </trkpt>
      <trkpt lat="46.27695" lon="10.49122">
        <ele>2222.508</ele>
        <time>2018-08-09T21:11:15Z</time>
      </trkpt>
      <trkpt lat="46.27669" lon="10.49171">
        <ele>2219.627</ele>
        <time>2018-08-09T21:11:35Z</time>
      </trkpt>
      <trkpt lat="46.27643" lon="10.49225">
        <ele>2214.092</ele>
        <time>2018-08-09T21:11:55Z</time>
      </trkpt>
      <trkpt lat="46.27631" lon="10.49278">
        <ele>2208.648</ele>
        <time>2018-08-09T21:12:15Z</time>
      </trkpt>
      <trkpt lat="46.27631" lon="10.4932">
        <ele>2205.362</ele>
        <time>2018-08-09T21:12:35Z</time>
      </trkpt>
      <trkpt lat="46.27628" lon="10.49357">
        <ele>2202.347</ele>
        <time>2018-08-09T21:12:55Z</time>
      </trkpt>
      <trkpt lat="46.27622" lon="10.49404">
        <ele>2195.668</ele>
        <time>2018-08-09T21:13:15Z</time>
      </trkpt>
      <trkpt lat="46.27614" lon="10.49448">
        <ele>2186.965</ele>
        <time>2018-08-09T21:13:35Z</time>
      </trkpt>
      <trkpt lat="46.27606" lon="10.495">
        <ele>2176.268</ele>
        <time>2018-08-09T21:13:55Z</time>
      </trkpt>
      <trkpt lat="46.27603" lon="10.49529">
        <ele>2173.736</ele>
        <time>2018-08-09T21:14:15Z</time>
      </trkpt>
      <trkpt lat="46.27595" lon="10.49553">
        <ele>2170.817</ele>
        <time>2018-08-09T21:14:35Z</time>
      </trkpt>
      <trkpt lat="46.27595" lon="10.49554">
        <ele>2170.718</ele>
        <time>2018-08-09T21:14:55Z</time>
      </trkpt>
      <trkpt lat="46.27574" lon="10.49626">
        <ele>2161.208</ele>
        <time>2018-08-09T21:15:15Z</time>
      </trkpt>
      <trkpt lat="46.27573" lon="10.49625">
        <ele>2161.055</ele>
        <time>2018-08-09T21:15:35Z</time>
      </trkpt>
      <trkpt lat="46.27571" lon="10.49624">
        <ele>2160.84</ele>
        <time>2018-08-09T21:15:55Z</time>
      </trkpt>
      <trkpt lat="46.2756" lon="10.49619">
        <ele>2159.166</ele>
        <time>2018-08-09T21:16:15Z</time>
      </trkpt>
      <trkpt lat="46.27552" lon="10.49606">
        <ele>2158.27</ele>
        <time>2018-08-09T21:16:35Z</time>
      </trkpt>
      <trkpt lat="46.27541" lon="10.49594">
        <ele>2156.265</ele>
        <time>2018-08-09T21:16:55Z</time>
      </trkpt>
      <trkpt lat="46.27535" lon="10.49589">
        <ele>2154.676</ele>
        <time>2018-08-09T21:17:15Z</time>
      </trkpt>
      <trkpt lat="46.27522" lon="10.49592">
        <ele>2150.693</ele>
        <time>2018-08-09T21:17:35Z</time>
      </trkpt>
      <trkpt lat="46.27512" lon="10.49599">
        <ele>2147.796</ele>
        <time>2018-08-09T21:17:55Z</time>
      </trkpt>
      <trkpt lat="46.27503" lon="10.49619">
        <ele>2143.799</ele>
        <time>2018-08-09T21:18:15Z</time>
      </trkpt>
      <trkpt lat="46.27503" lon="10.4962">
        <ele>2143.707</ele>
        <time>2018-08-09T21:18:35Z</time>
      </trkpt>
      <trkpt lat="46.275" lon="10.49625">
        <ele>2142.327</ele>
        <time>2018-08-09T21:18:55Z</time>
      </trkpt>
      <trkpt lat="46.27498" lon="10.49661">
        <ele>2138.908</ele>
        <time>2018-08-09T21:19:15Z</time>
      </trkpt>
      <trkpt lat="46.27496" lon="10.49721">
        <ele>2132.871</ele>
        <time>2018-08-09T21:19:35Z</time>
      </trkpt>
      <trkpt lat="46.27497" lon="10.49735">
        <ele>2132.346</ele>
        <time>2018-08-09T21:19:55Z</time>
      </trkpt>
      <trkpt lat="46.27502" lon="10.49787">
        <ele>2128.812</ele>
        <time>2018-08-09T21:20:15Z</time>
      </trkpt>
      <trkpt lat="46.27508" lon="10.49802">
        <ele>2128.926</ele>
        <time>2018-08-09T21:20:35Z</time>
      </trkpt>
      <trkpt lat="46.27514" lon="10.49831">
        <ele>2127.371</ele>
        <time>2018-08-09T21:20:55Z</time>
      </trkpt>
      <trkpt lat="46.27517" lon="10.49849">
        <ele>2125.632</ele>
        <time>2018-08-09T21:21:15Z</time>
      </trkpt>
      <trkpt lat="46.27519" lon="10.49861">
        <ele>2124.519</ele>
        <time>2018-08-09T21:21:35Z</time>
      </trkpt>
      <trkpt lat="46.27522" lon="10.49876">
        <ele>2121.962</ele>
        <time>2018-08-09T21:21:55Z</time>
      </trkpt>
      <trkpt lat="46.27525" lon="10.499">
        <ele>2117.293</ele>
        <time>2018-08-09T21:22:15Z</time>
      </trkpt>
      <trkpt lat="46.27527" lon="10.49905">
        <ele>2116.565</ele>
        <time>2018-08-09T21:22:35Z</time>
      </trkpt>
      <trkpt lat="46.27529" lon="10.49909">
        <ele>2116.421</ele>
        <time>2018-08-09T21:22:55Z</time>
      </trkpt>
      <trkpt lat="46.27531" lon="10.49909">
        <ele>2116.608</ele>
        <time>2018-08-09T21:23:15Z</time>
      </trkpt>
      <trkpt lat="46.27549" lon="10.4992">
        <ele>2119.261</ele>
        <time>2018-08-09T21:23:35Z</time>
      </trkpt>
      <trkpt lat="46.27565" lon="10.49934">
        <ele>2119.346</ele>
        <time>2018-08-09T21:23:55Z</time>
      </trkpt>
      <trkpt lat="46.27598" lon="10.49966">
        <ele>2116.972</ele>
        <time>2018-08-09T21:24:15Z</time>
      </trkpt>
      <trkpt lat="46.27617" lon="10.49974">
        <ele>2118.626</ele>
        <time>2018-08-09T21:24:35Z</time>
      </trkpt>
      <trkpt lat="46.27637" lon="10.49993">
        <ele>2116.271</ele>
        <time>2018-08-09T21:24:55Z</time>
      </trkpt>
      <trkpt lat="46.27646" lon="10.5">
        <ele>2115.562</ele>
        <time>2018-08-09T21:25:15Z</time>
      </trkpt>
      <trkpt lat="46.27653" lon="10.50007">
        <ele>2114.399</ele>
        <time>2018-08-09T21:25:35Z</time>
      </trkpt>
      <trkpt lat="46.27655" lon="10.5001">
        <ele>2113.772</ele>
        <time>2018-08-09T21:25:55Z</time>
      </trkpt>
      <trkpt lat="46.27657" lon="10.50013">
        <ele>2113.154</ele>
        <time>2018-08-09T21:26:15Z</time>
      </trkpt>
      <trkpt lat="46.2766" lon="10.50016">
        <ele>2112.656</ele>
        <time>2018-08-09T21:26:35Z</time>
      </trkpt>
      <trkpt lat="46.27666" lon="10.50018">
        <ele>2113.111</ele>
        <time>2018-08-09T21:26:55Z</time>
      </trkpt>
      <trkpt lat="46.27679" lon="10.50023">
        <ele>2114.208</ele>
        <time>2018-08-09T21:27:15Z</time>
      </trkpt>
      <trkpt lat="46.27705" lon="10.50028">
        <ele>2117.257</ele>
        <time>2018-08-09T21:27:35Z</time>
      </trkpt>
      <trkpt lat="46.27725" lon="10.50029">
        <ele>2119.162</ele>
        <time>2018-08-09T21:27:55Z</time>
      </trkpt>
      <trkpt lat="46.27734" lon="10.5003">
        <ele>2120.588</ele>
        <time>2018-08-09T21:28:15Z</time>
      </trkpt>
      <trkpt lat="46.27744" lon="10.50034">
        <ele>2120.952</ele>
        <time>2018-08-09T21:28:35Z</time>
      </trkpt>
      <trkpt lat="46.2775" lon="10.50038">
        <ele>2120.077</ele>
        <time>2018-08-09T21:28:55Z</time>
      </trkpt>
      <trkpt lat="46.27754" lon="10.50045">
        <ele>2118.118</ele>
        <time>2018-08-09T21:29:15Z</time>
      </trkpt>
      <trkpt lat="46.27762" lon="10.50057">
        <ele>2114.435</ele>
        <time>2018-08-09T21:29:35Z</time>
      </trkpt>
      <trkpt lat="46.27772" lon="10.50069">
        <ele>2110.378</ele>
        <time>2018-08-09T21:29:55Z</time>
      </trkpt>
      <trkpt lat="46.27785" lon="10.50084">
        <ele>2108.054</ele>
        <time>2018-08-09T21:30:15Z</time>
      </trkpt>
      <trkpt lat="46.27797" lon="10.50093">
        <ele>2111.156</ele>
        <time>2018-08-09T21:30:35Z</time>
      </trkpt>
      <trkpt lat="46.27823" lon="10.50112">
        <ele>2113.911</ele>
        <time>2018-08-09T21:30:55Z</time>
      </trkpt>
      <trkpt lat="46.27835" lon="10.50122">
        <ele>2113.608</ele>
        <time>2018-08-09T21:31:15Z</time>
      </trkpt>
      <trkpt lat="46.27845" lon="10.50132">
        <ele>2113.167</ele>
        <time>2018-08-09T21:31:35Z</time>
      </trkpt>
      <trkpt lat="46.27856" lon="10.50146">
        <ele>2112.312</ele>
        <time>2018-08-09T21:31:55Z</time>
      </trkpt>
      <trkpt lat="46.27866" lon="10.50161">
        <ele>2110.618</ele>
        <time>2018-08-09T21:32:15Z</time>
      </trkpt>
      <trkpt lat="46.27871" lon="10.50167">
        <ele>2109.472</ele>
        <time>2018-08-09T21:32:35Z</time>
      </trkpt>
      <trkpt lat="46.2787" lon="10.5017">
        <ele>2108.237</ele>
        <time>2018-08-09T21:32:55Z</time>
      </trkpt>
      <trkpt lat="46.2787" lon="10.50171">
        <ele>2108.138</ele>
        <time>2018-08-09T21:33:15Z</time>
      </trkpt>
      <trkpt lat="46.27872" lon="10.50174">
        <ele>2107.745</ele>
        <time>2018-08-09T21:33:35Z</time>
      </trkpt>
      <trkpt lat="46.27894" lon="10.50209">
        <ele>2104.778</ele>
        <time>2018-08-09T21:33:55Z</time>
      </trkpt>
      <trkpt lat="46.27905" lon="10.50221">
        <ele>2105.496</ele>
        <time>2018-08-09T21:34:15Z</time>
      </trkpt>
      <trkpt lat="46.27909" lon="10.50222">
        <ele>2106.831</ele>
        <time>2018-08-09T21:34:35Z</time>
      </trkpt>
      <trkpt lat="46.2791" lon="10.50222">
        <ele>2107.424</ele>
        <time>2018-08-09T21:34:55Z</time>
      </trkpt>
      <trkpt lat="46.27931" lon="10.50219">
        <ele>2113.308</ele>
        <time>2018-08-09T21:35:15Z</time>
      </trkpt>
      <trkpt lat="46.27941" lon="10.5022">
        <ele>2115.051</ele>
        <time>2018-08-09T21:35:35Z</time>
      </trkpt>
      <trkpt lat="46.27967" lon="10.50223">
        <ele>2117.946</ele>
        <time>2018-08-09T21:35:55Z</time>
      </trkpt>
      <trkpt lat="46.27991" lon="10.50227">
        <ele>2119.782</ele>
        <time>2018-08-09T21:36:15Z</time>
      </trkpt>
      <trkpt lat="46.27992" lon="10.50222">
        <ele>2121.346</ele>
        <time>2018-08-09T21:36:35Z</time>
      </trkpt>
      <trkpt lat="46.27995" lon="10.50222">
        <ele>2121.591</ele>
        <time>2018-08-09T21:36:55Z</time>
      </trkpt>
      <trkpt lat="46.27994" lon="10.50227">
        <ele>2119.842</ele>
        <time>2018-08-09T21:37:15Z</time>
      </trkpt>
      <trkpt lat="46.28005" lon="10.50228">
        <ele>2120.539</ele>
        <time>2018-08-09T21:37:35Z</time>
      </trkpt>
      <trkpt lat="46.28011" lon="10.5023">
        <ele>2120.612</ele>
        <time>2018-08-09T21:37:55Z</time>
      </trkpt>
      <trkpt lat="46.28022" lon="10.50234">
        <ele>2120.375</ele>
        <time>2018-08-09T21:38:15Z</time>
      </trkpt>
      <trkpt lat="46.28048" lon="10.50236">
        <ele>2121.828</ele>
        <time>2018-08-09T21:38:35Z</time>
      </trkpt>
      <trkpt lat="46.28088" lon="10.50245">
        <ele>2121.02</ele>
        <time>2018-08-09T21:38:55Z</time>
      </trkpt>
      <trkpt lat="46.28101" lon="10.50244">
        <ele>2121.308</ele>
        <time>2018-08-09T21:39:15Z</time>
      </trkpt>
      <trkpt lat="46.28128" lon="10.50247">
        <ele>2119.719</ele>
        <time>2018-08-09T21:39:35Z</time>
      </trkpt>
      <trkpt lat="46.28148" lon="10.50248">
        <ele>2118.934</ele>
        <time>2018-08-09T21:39:55Z</time>
      </trkpt>
      <trkpt lat="46.28156" lon="10.50247">
        <ele>2119.31</ele>
        <time>2018-08-09T21:40:15Z</time>
      </trkpt>
      <trkpt lat="46.28162" lon="10.50246">
        <ele>2119.584</ele>
        <time>2018-08-09T21:40:35Z</time>
      </trkpt>
      <trkpt lat="46.28173" lon="10.50243">
        <ele>2121.379</ele>
        <time>2018-08-09T21:40:55Z</time>
      </trkpt>
      <trkpt lat="46.28189" lon="10.50239">
        <ele>2124.84</ele>
        <time>2018-08-09T21:41:15Z</time>
      </trkpt>
      <trkpt lat="46.28209" lon="10.50245">
        <ele>2126.197</ele>
        <time>2018-08-09T21:41:35Z</time>
      </trkpt>
      <trkpt lat="46.28215" lon="10.50245">
        <ele>2127.31</ele>
        <time>2018-08-09T21:41:55Z</time>
      </trkpt>
      <trkpt lat="46.28229" lon="10.50254">
        <ele>2126.897</ele>
        <time>2018-08-09T21:42:15Z</time>
      </trkpt>
      <trkpt lat="46.28246" lon="10.5027">
        <ele>2124.823</ele>
        <time>2018-08-09T21:42:35Z</time>
      </trkpt>
      <trkpt lat="46.28286" lon="10.50277">
        <ele>2131.125</ele>
        <time>2018-08-09T21:42:55Z</time>
      </trkpt>
      <trkpt lat="46.28319" lon="10.50281">
        <ele>2134.908</ele>
        <time>2018-08-09T21:43:15Z</time>
      </trkpt>
      <trkpt lat="46.28337" lon="10.50274">
        <ele>2137.671</ele>
        <time>2018-08-09T21:43:35Z</time>
      </trkpt>
      <trkpt lat="46.28359" lon="10.50284">
        <ele>2132.176</ele>
        <time>2018-08-09T21:43:55Z</time>
      </trkpt>
      <trkpt lat="46.28381" lon="10.50276">
        <ele>2128.492</ele>
        <time>2018-08-09T21:44:15Z</time>
      </trkpt>
      <trkpt lat="46.28406" lon="10.50256">
        <ele>2127.176</ele>
        <time>2018-08-09T21:44:35Z</time>
      </trkpt>
      <trkpt lat="46.28448" lon="10.50227">
        <ele>2122.281</ele>
        <time>2018-08-09T21:44:55Z</time>
      </trkpt>
      <trkpt lat="46.28486" lon="10.50206">
        <ele>2115.742</ele>
        <time>2018-08-09T21:45:15Z</time>
      </trkpt>
      <trkpt lat="46.28536" lon="10.50173">
        <ele>2107.639</ele>
        <time>2018-08-09T21:45:35Z</time>
      </trkpt>
      <trkpt lat="46.28563" lon="10.50127">
        <ele>2103.122</ele>
        <time>2018-08-09T21:45:55Z</time>
      </trkpt>
      <trkpt lat="46.28573" lon="10.50093">
        <ele>2101.816</ele>
        <time>2018-08-09T21:46:15Z</time>
      </trkpt>
      <trkpt lat="46.28578" lon="10.50082">
        <ele>2099.776</ele>
        <time>2018-08-09T21:46:35Z</time>
      </trkpt>
      <trkpt lat="46.28582" lon="10.50069">
        <ele>2098.813</ele>
        <time>2018-08-09T21:46:55Z</time>
      </trkpt>
      <trkpt lat="46.28591" lon="10.50067">
        <ele>2096.008</ele>
        <time>2018-08-09T21:47:15Z</time>
      </trkpt>
      <trkpt lat="46.286" lon="10.5007">
        <ele>2093.283</ele>
        <time>2018-08-09T21:47:35Z</time>
      </trkpt>
      <trkpt lat="46.28612" lon="10.50068">
        <ele>2090.638</ele>
        <time>2018-08-09T21:47:55Z</time>
      </trkpt>
      <trkpt lat="46.28623" lon="10.50058">
        <ele>2089.594</ele>
        <time>2018-08-09T21:48:15Z</time>
      </trkpt>
      <trkpt lat="46.28631" lon="10.50045">
        <ele>2090.038</ele>
        <time>2018-08-09T21:48:35Z</time>
      </trkpt>
      <trkpt lat="46.28639" lon="10.50034">
        <ele>2089.523</ele>
        <time>2018-08-09T21:48:55Z</time>
      </trkpt>
      <trkpt lat="46.28645" lon="10.50026">
        <ele>2089.384</ele>
        <time>2018-08-09T21:49:15Z</time>
      </trkpt>
      <trkpt lat="46.2865" lon="10.50014">
        <ele>2090.381</ele>
        <time>2018-08-09T21:49:35Z</time>
      </trkpt>
      <trkpt lat="46.2868" lon="10.49954">
        <ele>2089.324</ele>
        <time>2018-08-09T21:49:55Z</time>
      </trkpt>
      <trkpt lat="46.28683" lon="10.49949">
        <ele>2088.952</ele>
        <time>2018-08-09T21:50:15Z</time>
      </trkpt>
      <trkpt lat="46.28708" lon="10.49936">
        <ele>2076.753</ele>
        <time>2018-08-09T21:50:35Z</time>
      </trkpt>
      <trkpt lat="46.28755" lon="10.49922">
        <ele>2059.308</ele>
        <time>2018-08-09T21:50:55Z</time>
      </trkpt>
      <trkpt lat="46.28806" lon="10.49909">
        <ele>2046.108</ele>
        <time>2018-08-09T21:51:15Z</time>
      </trkpt>
      <trkpt lat="46.28841" lon="10.49901">
        <ele>2035.147</ele>
        <time>2018-08-09T21:51:35Z</time>
      </trkpt>
      <trkpt lat="46.28871" lon="10.49909">
        <ele>2025.972</ele>
        <time>2018-08-09T21:51:55Z</time>
      </trkpt>
      <trkpt lat="46.28889" lon="10.49919">
        <ele>2021.518</ele>
        <time>2018-08-09T21:52:15Z</time>
      </trkpt>
      <trkpt lat="46.28897" lon="10.49924">
        <ele>2018.942</ele>
        <time>2018-08-09T21:52:35Z</time>
      </trkpt>
      <trkpt lat="46.28927" lon="10.49942">
        <ele>2010.027</ele>
        <time>2018-08-09T21:52:55Z</time>
      </trkpt>
      <trkpt lat="46.28978" lon="10.49955">
        <ele>1993.498</ele>
        <time>2018-08-09T21:53:15Z</time>
      </trkpt>
      <trkpt lat="46.2901" lon="10.49939">
        <ele>1985.655</ele>
        <time>2018-08-09T21:53:35Z</time>
      </trkpt>
      <trkpt lat="46.29035" lon="10.49891">
        <ele>1981.718</ele>
        <time>2018-08-09T21:53:55Z</time>
      </trkpt>
      <trkpt lat="46.29058" lon="10.49853">
        <ele>1978.678</ele>
        <time>2018-08-09T21:54:15Z</time>
      </trkpt>
      <trkpt lat="46.29088" lon="10.49849">
        <ele>1971.733</ele>
        <time>2018-08-09T21:54:35Z</time>
      </trkpt>
      <trkpt lat="46.29111" lon="10.49845">
        <ele>1967.226</ele>
        <time>2018-08-09T21:54:55Z</time>
      </trkpt>
      <trkpt lat="46.29132" lon="10.49834">
        <ele>1963.808</ele>
        <time>2018-08-09T21:55:15Z</time>
      </trkpt>
      <trkpt lat="46.29162" lon="10.49827">
        <ele>1959.549</ele>
        <time>2018-08-09T21:55:35Z</time>
      </trkpt>
      <trkpt lat="46.29197" lon="10.49817">
        <ele>1959.274</ele>
        <time>2018-08-09T21:55:55Z</time>
      </trkpt>
      <trkpt lat="46.29197" lon="10.49816">
        <ele>1959.48</ele>
        <time>2018-08-09T21:56:15Z</time>
      </trkpt>
      <trkpt lat="46.29197" lon="10.49813">
        <ele>1959.844</ele>
        <time>2018-08-09T21:56:35Z</time>
      </trkpt>
      <trkpt lat="46.29197" lon="10.4981">
        <ele>1960.229</ele>
        <time>2018-08-09T21:56:55Z</time>
      </trkpt>
      <trkpt lat="46.29197" lon="10.49807">
        <ele>1960.69</ele>
        <time>2018-08-09T21:57:15Z</time>
      </trkpt>
      <trkpt lat="46.29197" lon="10.49805">
        <ele>1961.017</ele>
        <time>2018-08-09T21:57:35Z</time>
      </trkpt>
      <trkpt lat="46.29198" lon="10.49801">
        <ele>1961.58</ele>
        <time>2018-08-09T21:57:55Z</time>
      </trkpt>
      <trkpt lat="46.29199" lon="10.49798">
        <ele>1961.899</ele>
        <time>2018-08-09T21:58:15Z</time>
      </trkpt>
      <trkpt lat="46.292" lon="10.49796">
        <ele>1962.107</ele>
        <time>2018-08-09T21:58:35Z</time>
      </trkpt>
      <trkpt lat="46.29201" lon="10.49794">
        <ele>1962.427</ele>
        <time>2018-08-09T21:58:55Z</time>
      </trkpt>
      <trkpt lat="46.29203" lon="10.49792">
        <ele>1962.608</ele>
        <time>2018-08-09T21:59:15Z</time>
      </trkpt>
      <trkpt lat="46.29203" lon="10.49792">
        <ele>1962.631</ele>
        <time>2018-08-09T21:59:35Z</time>
      </trkpt>
      <trkpt lat="46.29204" lon="10.49791">
        <ele>1962.786</ele>
        <time>2018-08-09T21:59:55Z</time>
      </trkpt>
      <trkpt lat="46.29207" lon="10.49789">
        <ele>1962.972</ele>
        <time>2018-08-09T22:00:15Z</time>
      </trkpt>
      <trkpt lat="46.29208" lon="10.49788">
        <ele>1963.026</ele>
        <time>2018-08-09T22:00:35Z</time>
      </trkpt>
      <trkpt lat="46.29211" lon="10.49787">
        <ele>1963.031</ele>
        <time>2018-08-09T22:00:55Z</time>
      </trkpt>
      <trkpt lat="46.29213" lon="10.49786">
        <ele>1963.112</ele>
        <time>2018-08-09T22:01:15Z</time>
      </trkpt>
      <trkpt lat="46.29215" lon="10.49785">
        <ele>1963.239</ele>
        <time>2018-08-09T22:01:35Z</time>
      </trkpt>
      <trkpt lat="46.29217" lon="10.49784">
        <ele>1963.332</ele>
        <time>2018-08-09T22:01:55Z</time>
      </trkpt>
      <trkpt lat="46.29219" lon="10.49783">
        <ele>1963.455</ele>
        <time>2018-08-09T22:02:15Z</time>
      </trkpt>
      <trkpt lat="46.2922" lon="10.49781">
        <ele>1963.607</ele>
        <time>2018-08-09T22:02:35Z</time>
      </trkpt>
      <trkpt lat="46.29335" lon="10.49723">
        <ele>1973.517</ele>
        <time>2018-08-09T22:02:55Z</time>
      </trkpt>
      <trkpt lat="46.29339" lon="10.49718">
        <ele>1973.108</ele>
        <time>2018-08-09T22:03:15Z</time>
      </trkpt>
      <trkpt lat="46.2934" lon="10.49717">
        <ele>1973.117</ele>
        <time>2018-08-09T22:03:35Z</time>
      </trkpt>
      <trkpt lat="46.29341" lon="10.49716">
        <ele>1972.822</ele>
        <time>2018-08-09T22:03:55Z</time>
      </trkpt>
      <trkpt lat="46.29359" lon="10.49707">
        <ele>1969.518</ele>
        <time>2018-08-09T22:04:15Z</time>
      </trkpt>
      <trkpt lat="46.29375" lon="10.49679">
        <ele>1970.942</ele>
        <time>2018-08-09T22:04:35Z</time>
      </trkpt>
      <trkpt lat="46.29377" lon="10.49676">
        <ele>1970.947</ele>
        <time>2018-08-09T22:04:55Z</time>
      </trkpt>
      <trkpt lat="46.29391" lon="10.49644">
        <ele>1972.788</ele>
        <time>2018-08-09T22:05:15Z</time>
      </trkpt>
      <trkpt lat="46.29427" lon="10.49608">
        <ele>1975.235</ele>
        <time>2018-08-09T22:05:35Z</time>
      </trkpt>
      <trkpt lat="46.29448" lon="10.49591">
        <ele>1979.868</ele>
        <time>2018-08-09T22:05:55Z</time>
      </trkpt>
      <trkpt lat="46.29465" lon="10.49581">
        <ele>1980.713</ele>
        <time>2018-08-09T22:06:15Z</time>
      </trkpt>
      <trkpt lat="46.29466" lon="10.4958">
        <ele>1980.743</ele>
        <time>2018-08-09T22:06:35Z</time>
      </trkpt>
      <trkpt lat="46.29484" lon="10.49567">
        <ele>1980.607</ele>
        <time>2018-08-09T22:06:55Z</time>
      </trkpt>
      <trkpt lat="46.2949" lon="10.49547">
        <ele>1987.208</ele>
        <time>2018-08-09T22:07:15Z</time>
      </trkpt>
      <trkpt lat="46.29498" lon="10.49546">
        <ele>1984.513</ele>
        <time>2018-08-09T22:07:35Z</time>
      </trkpt>
      <trkpt lat="46.29499" lon="10.49542">
        <ele>1985.588</ele>
        <time>2018-08-09T22:07:55Z</time>
      </trkpt>
      <trkpt lat="46.295" lon="10.49541">
        <ele>1985.814</ele>
        <time>2018-08-09T22:08:15Z</time>
      </trkpt>
      <trkpt lat="46.29502" lon="10.49539">
        <ele>1985.948</ele>
        <time>2018-08-09T22:08:35Z</time>
      </trkpt>
      <trkpt lat="46.29505" lon="10.49537">
        <ele>1985.583</ele>
        <time>2018-08-09T22:08:55Z</time>
      </trkpt>
      <trkpt lat="46.29507" lon="10.49537">
        <ele>1984.694</ele>
        <time>2018-08-09T22:09:15Z</time>
      </trkpt>
      <trkpt lat="46.29509" lon="10.49537">
        <ele>1984.181</ele>
        <time>2018-08-09T22:09:35Z</time>
      </trkpt>
      <trkpt lat="46.29511" lon="10.49537">
        <ele>1983.464</ele>
        <time>2018-08-09T22:09:55Z</time>
      </trkpt>
      <trkpt lat="46.29514" lon="10.49537">
        <ele>1982.788</ele>
        <time>2018-08-09T22:10:15Z</time>
      </trkpt>
      <trkpt lat="46.29517" lon="10.49536">
        <ele>1981.924</ele>
        <time>2018-08-09T22:10:35Z</time>
      </trkpt>
      <trkpt lat="46.29518" lon="10.49536">
        <ele>1981.326</ele>
        <time>2018-08-09T22:10:55Z</time>
      </trkpt>
      <trkpt lat="46.29523" lon="10.49535">
        <ele>1980.408</ele>
        <time>2018-08-09T22:11:15Z</time>
      </trkpt>
      <trkpt lat="46.29525" lon="10.49535">
        <ele>1980.02</ele>
        <time>2018-08-09T22:11:35Z</time>
      </trkpt>
      <trkpt lat="46.29527" lon="10.49534">
        <ele>1979.835</ele>
        <time>2018-08-09T22:11:55Z</time>
      </trkpt>
      <trkpt lat="46.29529" lon="10.49533">
        <ele>1979.691</ele>
        <time>2018-08-09T22:12:15Z</time>
      </trkpt>
      <trkpt lat="46.29531" lon="10.49531">
        <ele>1979.625</ele>
        <time>2018-08-09T22:12:35Z</time>
      </trkpt>
      <trkpt lat="46.29532" lon="10.4953">
        <ele>1979.79</ele>
        <time>2018-08-09T22:12:55Z</time>
      </trkpt>
      <trkpt lat="46.29535" lon="10.49528">
        <ele>1979.841</ele>
        <time>2018-08-09T22:13:15Z</time>
      </trkpt>
      <trkpt lat="46.29537" lon="10.49527">
        <ele>1979.818</ele>
        <time>2018-08-09T22:13:35Z</time>
      </trkpt>
      <trkpt lat="46.29539" lon="10.49525">
        <ele>1979.451</ele>
        <time>2018-08-09T22:13:55Z</time>
      </trkpt>
      <trkpt lat="46.29542" lon="10.49524">
        <ele>1979.117</ele>
        <time>2018-08-09T22:14:15Z</time>
      </trkpt>
      <trkpt lat="46.29544" lon="10.49522">
        <ele>1979.187</ele>
        <time>2018-08-09T22:14:35Z</time>
      </trkpt>
      <trkpt lat="46.29546" lon="10.49521">
        <ele>1979.115</ele>
        <time>2018-08-09T22:14:55Z</time>
      </trkpt>
      <trkpt lat="46.29547" lon="10.49519">
        <ele>1979.208</ele>
        <time>2018-08-09T22:15:15Z</time>
      </trkpt>
      <trkpt lat="46.29549" lon="10.49517">
        <ele>1980.063</ele>
        <time>2018-08-09T22:15:35Z</time>
      </trkpt>
      <trkpt lat="46.29551" lon="10.49515">
        <ele>1980.368</ele>
        <time>2018-08-09T22:15:55Z</time>
      </trkpt>
      <trkpt lat="46.29553" lon="10.49514">
        <ele>1980.384</ele>
        <time>2018-08-09T22:16:15Z</time>
      </trkpt>
      <trkpt lat="46.29556" lon="10.49513">
        <ele>1979.858</ele>
        <time>2018-08-09T22:16:35Z</time>
      </trkpt>
      <trkpt lat="46.29558" lon="10.49513">
        <ele>1979.553</ele>
        <time>2018-08-09T22:16:55Z</time>
      </trkpt>
      <trkpt lat="46.2956" lon="10.49512">
        <ele>1979.734</ele>
        <time>2018-08-09T22:17:15Z</time>
      </trkpt>
      <trkpt lat="46.2956" lon="10.49511">
        <ele>1979.711</ele>
        <time>2018-08-09T22:17:35Z</time>
      </trkpt>
      <trkpt lat="46.29572" lon="10.49499">
        <ele>1983.844</ele>
        <time>2018-08-09T22:17:55Z</time>
      </trkpt>
      <trkpt lat="46.29574" lon="10.49497">
        <ele>1984.041</ele>
        <time>2018-08-09T22:18:15Z</time>
      </trkpt>
      <trkpt lat="46.29577" lon="10.49495">
        <ele>1984.281</ele>
        <time>2018-08-09T22:18:35Z</time>
      </trkpt>
      <trkpt lat="46.29604" lon="10.49476">
        <ele>1984.409</ele>
        <time>2018-08-09T22:18:55Z</time>
      </trkpt>
      <trkpt lat="46.29611" lon="10.49473">
        <ele>1983.608</ele>
        <time>2018-08-09T22:19:15Z</time>
      </trkpt>
      <trkpt lat="46.29613" lon="10.49472">
        <ele>1983.156</ele>
        <time>2018-08-09T22:19:35Z</time>
      </trkpt>
      <trkpt lat="46.29641" lon="10.4945">
        <ele>1983.461</ele>
        <time>2018-08-09T22:19:55Z</time>
      </trkpt>
      <trkpt lat="46.2965" lon="10.49446">
        <ele>1980.977</ele>
        <time>2018-08-09T22:20:15Z</time>
      </trkpt>
      <trkpt lat="46.29684" lon="10.49432">
        <ele>1973.571</ele>
        <time>2018-08-09T22:20:35Z</time>
      </trkpt>
      <trkpt lat="46.29725" lon="10.49393">
        <ele>1984.486</ele>
        <time>2018-08-09T22:20:55Z</time>
      </trkpt>
      <trkpt lat="46.29731" lon="10.49382">
        <ele>1989.447</ele>
        <time>2018-08-09T22:21:15Z</time>
      </trkpt>
      <trkpt lat="46.29732" lon="10.49382">
        <ele>1989.534</ele>
        <time>2018-08-09T22:21:35Z</time>
      </trkpt>
      <trkpt lat="46.29737" lon="10.49378">
        <ele>1990.857</ele>
        <time>2018-08-09T22:21:55Z</time>
      </trkpt>
      <trkpt lat="46.29755" lon="10.49361">
        <ele>1995.176</ele>
        <time>2018-08-09T22:22:15Z</time>
      </trkpt>
      <trkpt lat="46.2979" lon="10.4935">
        <ele>1994.19</ele>
        <time>2018-08-09T22:22:35Z</time>
      </trkpt>
      <trkpt lat="46.29798" lon="10.49346">
        <ele>1996.519</ele>
        <time>2018-08-09T22:22:55Z</time>
      </trkpt>
      <trkpt lat="46.2983" lon="10.49339">
        <ele>2006.108</ele>
        <time>2018-08-09T22:23:15Z</time>
      </trkpt>
      <trkpt lat="46.2983" lon="10.49339">
        <ele>2006.229</ele>
        <time>2018-08-09T22:23:35Z</time>
      </trkpt>
      <trkpt lat="46.29833" lon="10.49339">
        <ele>2007.214</ele>
        <time>2018-08-09T22:23:55Z</time>
      </trkpt>
      <trkpt lat="46.29835" lon="10.49338">
        <ele>2008.09</ele>
        <time>2018-08-09T22:24:15Z</time>
      </trkpt>
      <trkpt lat="46.29837" lon="10.49337">
        <ele>2008.564</ele>
        <time>2018-08-09T22:24:35Z</time>
      </trkpt>
      <trkpt lat="46.2984" lon="10.49337">
        <ele>2008.939</ele>
        <time>2018-08-09T22:24:55Z</time>
      </trkpt>
      <trkpt lat="46.29842" lon="10.49338">
        <ele>2008.71</ele>
        <time>2018-08-09T22:25:15Z</time>
      </trkpt>
      <trkpt lat="46.29844" lon="10.49338">
        <ele>2008.577</ele>
        <time>2018-08-09T22:25:35Z</time>
      </trkpt>
      <trkpt lat="46.29846" lon="10.49338">
        <ele>2008.32</ele>
        <time>2018-08-09T22:25:55Z</time>
      </trkpt>
      <trkpt lat="46.29848" lon="10.49339">
        <ele>2007.846</ele>
        <time>2018-08-09T22:26:15Z</time>
      </trkpt>
      <trkpt lat="46.2985" lon="10.4934">
        <ele>2007.388</ele>
        <time>2018-08-09T22:26:35Z</time>
      </trkpt>
      <trkpt lat="46.29852" lon="10.49341">
        <ele>2006.916</ele>
        <time>2018-08-09T22:26:55Z</time>
      </trkpt>
      <trkpt lat="46.29854" lon="10.4934">
        <ele>2007.808</ele>
        <time>2018-08-09T22:27:15Z</time>
      </trkpt>
      <trkpt lat="46.29856" lon="10.49341">
        <ele>2007.546</ele>
        <time>2018-08-09T22:27:35Z</time>
      </trkpt>
      <trkpt lat="46.29858" lon="10.49341">
        <ele>2007.511</ele>
        <time>2018-08-09T22:27:55Z</time>
      </trkpt>
      <trkpt lat="46.2986" lon="10.4934">
        <ele>2008.157</ele>
        <time>2018-08-09T22:28:15Z</time>
      </trkpt>
      <trkpt lat="46.29863" lon="10.49339">
        <ele>2009.151</ele>
        <time>2018-08-09T22:28:35Z</time>
      </trkpt>
      <trkpt lat="46.29864" lon="10.49338">
        <ele>2009.216</ele>
        <time>2018-08-09T22:28:55Z</time>
      </trkpt>
      <trkpt lat="46.29866" lon="10.49338">
        <ele>2009.447</ele>
        <time>2018-08-09T22:29:15Z</time>
      </trkpt>
      <trkpt lat="46.29869" lon="10.49337">
        <ele>2010.134</ele>
        <time>2018-08-09T22:29:35Z</time>
      </trkpt>
      <trkpt lat="46.29871" lon="10.49335">
        <ele>2010.947</ele>
        <time>2018-08-09T22:29:55Z</time>
      </trkpt>
      <trkpt lat="46.29873" lon="10.49334">
        <ele>2011.464</ele>
        <time>2018-08-09T22:30:15Z</time>
      </trkpt>
      <trkpt lat="46.29875" lon="10.49334">
        <ele>2011.506</ele>
        <time>2018-08-09T22:30:35Z</time>
      </trkpt>
      <trkpt lat="46.29878" lon="10.49334">
        <ele>2011.216</ele>
        <time>2018-08-09T22:30:55Z</time>
      </trkpt>
      <trkpt lat="46.2988" lon="10.49334">
        <ele>2011.108</ele>
        <time>2018-08-09T22:31:15Z</time>
      </trkpt>
      <trkpt lat="46.29882" lon="10.49333">
        <ele>2012.078</ele>
        <time>2018-08-09T22:31:35Z</time>
      </trkpt>
      <trkpt lat="46.29883" lon="10.49333">
        <ele>2011.533</ele>
        <time>2018-08-09T22:31:55Z</time>
      </trkpt>
      <trkpt lat="46.29886" lon="10.49334">
        <ele>2010.989</ele>
        <time>2018-08-09T22:32:15Z</time>
      </trkpt>
      <trkpt lat="46.29887" lon="10.49332">
        <ele>2012.153</ele>
        <time>2018-08-09T22:32:35Z</time>
      </trkpt>
      <trkpt lat="46.29889" lon="10.49333">
        <ele>2011.388</ele>
        <time>2018-08-09T22:32:55Z</time>
      </trkpt>
      <trkpt lat="46.29891" lon="10.49333">
        <ele>2010.739</ele>
        <time>2018-08-09T22:33:15Z</time>
      </trkpt>
      <trkpt lat="46.29892" lon="10.49331">
        <ele>2011.166</ele>
        <time>2018-08-09T22:33:35Z</time>
      </trkpt>
      <trkpt lat="46.29893" lon="10.49329">
        <ele>2012.279</ele>
        <time>2018-08-09T22:33:55Z</time>
      </trkpt>
      <trkpt lat="46.29895" lon="10.49326">
        <ele>2013.296</ele>
        <time>2018-08-09T22:34:15Z</time>
      </trkpt>
      <trkpt lat="46.29896" lon="10.49325">
        <ele>2013.731</ele>
        <time>2018-08-09T22:34:35Z</time>
      </trkpt>
      <trkpt lat="46.29898" lon="10.49323">
        <ele>2014.524</ele>
        <time>2018-08-09T22:34:55Z</time>
      </trkpt>
      <trkpt lat="46.29899" lon="10.49321">
        <ele>2015.208</ele>
        <time>2018-08-09T22:35:15Z</time>
      </trkpt>
      <trkpt lat="46.29901" lon="10.49318">
        <ele>2016.521</ele>
        <time>2018-08-09T22:35:35Z</time>
      </trkpt>
      <trkpt lat="46.29902" lon="10.49316">
        <ele>2017.546</ele>
        <time>2018-08-09T22:35:55Z</time>
      </trkpt>
      <trkpt lat="46.29921" lon="10.49303">
        <ele>2022.352</ele>
        <time>2018-08-09T22:36:15Z</time>
      </trkpt>
      <trkpt lat="46.29935" lon="10.49301">
        <ele>2021.496</ele>
        <time>2018-08-09T22:36:35Z</time>
      </trkpt>
      <trkpt lat="46.2998" lon="10.49305">
        <ele>2015.381</ele>
        <time>2018-08-09T22:36:55Z</time>
      </trkpt>
      <trkpt lat="46.30015" lon="10.49272">
        <ele>2025.582</ele>
        <time>2018-08-09T22:37:15Z</time>
      </trkpt>
      <trkpt lat="46.30023" lon="10.49259">
        <ele>2030.129</ele>
        <time>2018-08-09T22:37:35Z</time>
      </trkpt>
      <trkpt lat="46.30029" lon="10.4925">
        <ele>2033.412</ele>
        <time>2018-08-09T22:37:55Z</time>
      </trkpt>
      <trkpt lat="46.30035" lon="10.49237">
        <ele>2040.346</ele>
        <time>2018-08-09T22:38:15Z</time>
      </trkpt>
      <trkpt lat="46.30043" lon="10.4922">
        <ele>2048.588</ele>
        <time>2018-08-09T22:38:35Z</time>
      </trkpt>
      <trkpt lat="46.30075" lon="10.49161">
        <ele>2068.416</ele>
        <time>2018-08-09T22:38:55Z</time>
      </trkpt>
      <trkpt lat="46.3008" lon="10.49157">
        <ele>2068.308</ele>
        <time>2018-08-09T22:39:15Z</time>
      </trkpt>
      <trkpt lat="46.3008" lon="10.49157">
        <ele>2068.346</ele>
        <time>2018-08-09T22:39:35Z</time>
      </trkpt>
      <trkpt lat="46.3008" lon="10.49157">
        <ele>2068.441</ele>
        <time>2018-08-09T22:39:55Z</time>
      </trkpt>
      <trkpt lat="46.30088" lon="10.49149">
        <ele>2067.947</ele>
        <time>2018-08-09T22:40:15Z</time>
      </trkpt>
      <trkpt lat="46.30109" lon="10.49129">
        <ele>2065.431</ele>
        <time>2018-08-09T22:40:35Z</time>
      </trkpt>
      <trkpt lat="46.30109" lon="10.49128">
        <ele>2065.696</ele>
        <time>2018-08-09T22:40:55Z</time>
      </trkpt>
      <trkpt lat="46.30119" lon="10.49103">
        <ele>2070.487</ele>
        <time>2018-08-09T22:41:15Z</time>
      </trkpt>
      <trkpt lat="46.30123" lon="10.49092">
        <ele>2072.384</ele>
        <time>2018-08-09T22:41:35Z</time>
      </trkpt>
      <trkpt lat="46.30148" lon="10.49057">
        <ele>2071.817</ele>
        <time>2018-08-09T22:41:55Z</time>
      </trkpt>
      <trkpt lat="46.30168" lon="10.49029">
        <ele>2070.569</ele>
        <time>2018-08-09T22:42:15Z</time>
      </trkpt>
      <trkpt lat="46.3019" lon="10.4899">
        <ele>2064.804</ele>
        <time>2018-08-09T22:42:35Z</time>
      </trkpt>
      <trkpt lat="46.30199" lon="10.48946">
        <ele>2062.024</ele>
        <time>2018-08-09T22:42:55Z</time>
      </trkpt>
      <trkpt lat="46.30193" lon="10.48915">
        <ele>2056.408</ele>
        <time>2018-08-09T22:43:15Z</time>
      </trkpt>
      <trkpt lat="46.30192" lon="10.48881">
        <ele>2048.898</ele>
        <time>2018-08-09T22:43:35Z</time>
      </trkpt>
      <trkpt lat="46.3019" lon="10.48841">
        <ele>2035.893</ele>
        <time>2018-08-09T22:43:55Z</time>
      </trkpt>
      <trkpt lat="46.30173" lon="10.48815">
        <ele>2042.939</ele>
        <time>2018-08-09T22:44:15Z</time>
      </trkpt>
      <trkpt lat="46.30172" lon="10.48814">
        <ele>2043.013</ele>
        <time>2018-08-09T22:44:35Z</time>
      </trkpt>
      <trkpt lat="46.30172" lon="10.48811">
        <ele>2043.378</ele>
        <time>2018-08-09T22:44:55Z</time>
      </trkpt>
      <trkpt lat="46.30171" lon="10.48808">
        <ele>2043.949</ele>
        <time>2018-08-09T22:45:15Z</time>
      </trkpt>
      <trkpt lat="46.3017" lon="10.48805">
        <ele>2044.456</ele>
        <time>2018-08-09T22:45:35Z</time>
      </trkpt>
      <trkpt lat="46.30169" lon="10.48802">
        <ele>2044.579</ele>
        <time>2018-08-09T22:45:55Z</time>
      </trkpt>
      <trkpt lat="46.30168" lon="10.48799">
        <ele>2044.881</ele>
        <time>2018-08-09T22:46:15Z</time>
      </trkpt>
      <trkpt lat="46.30167" lon="10.48796">
        <ele>2045.061</ele>
        <time>2018-08-09T22:46:35Z</time>
      </trkpt>
      <trkpt lat="46.30166" lon="10.48794">
        <ele>2045.517</ele>
        <time>2018-08-09T22:46:55Z</time>
      </trkpt>
      <trkpt lat="46.30166" lon="10.4879">
        <ele>2045.408</ele>
        <time>2018-08-09T22:47:15Z</time>
      </trkpt>
      <trkpt lat="46.30165" lon="10.48787">
        <ele>2045.64</ele>
        <time>2018-08-09T22:47:35Z</time>
      </trkpt>
      <trkpt lat="46.30163" lon="10.48785">
        <ele>2047.195</ele>
        <time>2018-08-09T22:47:55Z</time>
      </trkpt>
      <trkpt lat="46.30163" lon="10.48782">
        <ele>2047.571</ele>
        <time>2018-08-09T22:48:15Z</time>
      </trkpt>
      <trkpt lat="46.30162" lon="10.4878">
        <ele>2047.565</ele>
        <time>2018-08-09T22:48:35Z</time>
      </trkpt>
      <trkpt lat="46.30162" lon="10.48776">
        <ele>2047.65</ele>
        <time>2018-08-09T22:48:55Z</time>
      </trkpt>
      <trkpt lat="46.3016" lon="10.48776">
        <ele>2048.911</ele>
        <time>2018-08-09T22:49:15Z</time>
      </trkpt>
      <trkpt lat="46.30153" lon="10.48748">
        <ele>2052.318</ele>
        <time>2018-08-09T22:49:35Z</time>
      </trkpt>
      <trkpt lat="46.30141" lon="10.48702">
        <ele>2054.981</ele>
        <time>2018-08-09T22:49:55Z</time>
      </trkpt>
      <trkpt lat="46.3013" lon="10.48668">
        <ele>2057.669</ele>
        <time>2018-08-09T22:50:15Z</time>
      </trkpt>
      <trkpt lat="46.30109" lon="10.48626">
        <ele>2068.004</ele>
        <time>2018-08-09T22:50:35Z</time>
      </trkpt>
      <trkpt lat="46.30106" lon="10.48606">
        <ele>2068.324</ele>
        <time>2018-08-09T22:50:55Z</time>
      </trkpt>
      <trkpt lat="46.30104" lon="10.48583">
        <ele>2066.108</ele>
        <time>2018-08-09T22:51:15Z</time>
      </trkpt>
      <trkpt lat="46.30101" lon="10.48576">
        <ele>2067.418</ele>
        <time>2018-08-09T22:51:35Z</time>
      </trkpt>
      <trkpt lat="46.30098" lon="10.48566">
        <ele>2069.163</ele>
        <time>2018-08-09T22:51:55Z</time>
      </trkpt>
      <trkpt lat="46.30093" lon="10.48552">
        <ele>2071.879</ele>
        <time>2018-08-09T22:52:15Z</time>
      </trkpt>
      <trkpt lat="46.30091" lon="10.48543">
        <ele>2073.543</ele>
        <time>2018-08-09T22:52:35Z</time>
      </trkpt>
      <trkpt lat="46.30085" lon="10.48521">
        <ele>2078.418</ele>
        <time>2018-08-09T22:52:55Z</time>
      </trkpt>
      <trkpt lat="46.30082" lon="10.48507">
        <ele>2081.649</ele>
        <time>2018-08-09T22:53:15Z</time>
      </trkpt>
      <trkpt lat="46.30078" lon="10.4849">
        <ele>2084.836</ele>
        <time>2018-08-09T22:53:35Z</time>
      </trkpt>
      <trkpt lat="46.30081" lon="10.48464">
        <ele>2083.819</ele>
        <time>2018-08-09T22:53:55Z</time>
      </trkpt>
      <trkpt lat="46.30082" lon="10.48454">
        <ele>2083.372</ele>
        <time>2018-08-09T22:54:15Z</time>
      </trkpt>
      <trkpt lat="46.30085" lon="10.48417">
        <ele>2081.813</ele>
        <time>2018-08-09T22:54:35Z</time>
      </trkpt>
      <trkpt lat="46.30081" lon="10.48402">
        <ele>2082.414</ele>
        <time>2018-08-09T22:54:55Z</time>
      </trkpt>
      <trkpt lat="46.30081" lon="10.48401">
        <ele>2082.908</ele>
        <time>2018-08-09T22:55:15Z</time>
      </trkpt>
      <trkpt lat="46.30079" lon="10.48399">
        <ele>2083.779</ele>
        <time>2018-08-09T22:55:35Z</time>
      </trkpt>
      <trkpt lat="46.30077" lon="10.48396">
        <ele>2084.844</ele>
        <time>2018-08-09T22:55:55Z</time>
      </trkpt>
      <trkpt lat="46.30077" lon="10.48393">
        <ele>2084.76</ele>
        <time>2018-08-09T22:56:15Z</time>
      </trkpt>
      <trkpt lat="46.30077" lon="10.4839">
        <ele>2084.454</ele>
        <time>2018-08-09T22:56:35Z</time>
      </trkpt>
      <trkpt lat="46.30077" lon="10.48387">
        <ele>2084.229</ele>
        <time>2018-08-09T22:56:55Z</time>
      </trkpt>
      <trkpt lat="46.30077" lon="10.48385">
        <ele>2084.09</ele>
        <time>2018-08-09T22:57:15Z</time>
      </trkpt>
      <trkpt lat="46.30069" lon="10.48366">
        <ele>2088.327</ele>
        <time>2018-08-09T22:57:35Z</time>
      </trkpt>
      <trkpt lat="46.30068" lon="10.48363">
        <ele>2089.16</ele>
        <time>2018-08-09T22:57:55Z</time>
      </trkpt>
      <trkpt lat="46.30065" lon="10.4835">
        <ele>2090.727</ele>
        <time>2018-08-09T22:58:15Z</time>
      </trkpt>
      <trkpt lat="46.30065" lon="10.48347">
        <ele>2090.368</ele>
        <time>2018-08-09T22:58:35Z</time>
      </trkpt>
      <trkpt lat="46.30065" lon="10.48343">
        <ele>2090.414</ele>
        <time>2018-08-09T22:58:55Z</time>
      </trkpt>
      <trkpt lat="46.30064" lon="10.48341">
        <ele>2091.108</ele>
        <time>2018-08-09T22:59:15Z</time>
      </trkpt>
      <trkpt lat="46.30063" lon="10.48338">
        <ele>2091.994</ele>
        <time>2018-08-09T22:59:35Z</time>
      </trkpt>
      <trkpt lat="46.30061" lon="10.48329">
        <ele>2093.499</ele>
        <time>2018-08-09T22:59:55Z</time>
      </trkpt>
      <trkpt lat="46.30059" lon="10.48326">
        <ele>2094.685</ele>
        <time>2018-08-09T23:00:15Z</time>
      </trkpt>
      <trkpt lat="46.30059" lon="10.48325">
        <ele>2094.919</ele>
        <time>2018-08-09T23:00:35Z</time>
      </trkpt>
      <trkpt lat="46.30058" lon="10.48323">
        <ele>2095.864</ele>
        <time>2018-08-09T23:00:55Z</time>
      </trkpt>
      <trkpt lat="46.30057" lon="10.4832">
        <ele>2096.795</ele>
        <time>2018-08-09T23:01:15Z</time>
      </trkpt>
      <trkpt lat="46.30056" lon="10.48318">
        <ele>2097.622</ele>
        <time>2018-08-09T23:01:35Z</time>
      </trkpt>
      <trkpt lat="46.30056" lon="10.48317">
        <ele>2098.055</ele>
        <time>2018-08-09T23:01:55Z</time>
      </trkpt>
      <trkpt lat="46.30046" lon="10.4829">
        <ele>2107.417</ele>
        <time>2018-08-09T23:02:15Z</time>
      </trkpt>
      <trkpt lat="46.30044" lon="10.48287">
        <ele>2108.587</ele>
        <time>2018-08-09T23:02:35Z</time>
      </trkpt>
      <trkpt lat="46.3004" lon="10.48275">
        <ele>2111.915</ele>
        <time>2018-08-09T23:02:55Z</time>
      </trkpt>
      <trkpt lat="46.30039" lon="10.48272">
        <ele>2112.708</ele>
        <time>2018-08-09T23:03:15Z</time>
      </trkpt>
      <trkpt lat="46.30038" lon="10.48269">
        <ele>2113.813</ele>
        <time>2018-08-09T23:03:35Z</time>
      </trkpt>
      <trkpt lat="46.30038" lon="10.48267">
        <ele>2114.658</ele>
        <time>2018-08-09T23:03:55Z</time>
      </trkpt>
      <trkpt lat="46.30037" lon="10.48263">
        <ele>2115.544</ele>
        <time>2018-08-09T23:04:15Z</time>
      </trkpt>
      <trkpt lat="46.30036" lon="10.4826">
        <ele>2116.418</ele>
        <time>2018-08-09T23:04:35Z</time>
      </trkpt>
      <trkpt lat="46.30036" lon="10.48258">
        <ele>2117.183</ele>
        <time>2018-08-09T23:04:55Z</time>
      </trkpt>
      <trkpt lat="46.30035" lon="10.48254">
        <ele>2117.984</ele>
        <time>2018-08-09T23:05:15Z</time>
      </trkpt>
      <trkpt lat="46.30033" lon="10.48252">
        <ele>2118.891</ele>
        <time>2018-08-09T23:05:35Z</time>
      </trkpt>
      <trkpt lat="46.30032" lon="10.48252">
        <ele>2119.464</ele>
        <time>2018-08-09T23:05:55Z</time>
      </trkpt>
      <trkpt lat="46.30029" lon="10.48236">
        <ele>2122.261</ele>
        <time>2018-08-09T23:06:15Z</time>
      </trkpt>
      <trkpt lat="46.30029" lon="10.48236">
        <ele>2122.221</ele>
        <time>2018-08-09T23:06:35Z</time>
      </trkpt>
      <trkpt lat="46.30031" lon="10.48234">
        <ele>2121.913</ele>
        <time>2018-08-09T23:06:55Z</time>
      </trkpt>
      <trkpt lat="46.30033" lon="10.48232">
        <ele>2121.908</ele>
        <time>2018-08-09T23:07:15Z</time>
      </trkpt>
      <trkpt lat="46.30032" lon="10.48231">
        <ele>2122.398</ele>
        <time>2018-08-09T23:07:35Z</time>
      </trkpt>
      <trkpt lat="46.30023" lon="10.48209">
        <ele>2130.263</ele>
        <time>2018-08-09T23:07:55Z</time>
      </trkpt>
      <trkpt lat="46.30023" lon="10.48209">
        <ele>2130.359</ele>
        <time>2018-08-09T23:08:15Z</time>
      </trkpt>
      <trkpt lat="46.30023" lon="10.48206">
        <ele>2131.083</ele>
        <time>2018-08-09T23:08:35Z</time>
      </trkpt>
      <trkpt lat="46.30023" lon="10.48203">
        <ele>2131.788</ele>
        <time>2018-08-09T23:08:55Z</time>
      </trkpt>
      <trkpt lat="46.30023" lon="10.482">
        <ele>2132.169</ele>
        <time>2018-08-09T23:09:15Z</time>
      </trkpt>
      <trkpt lat="46.30023" lon="10.48197">
        <ele>2132.836</ele>
        <time>2018-08-09T23:09:35Z</time>
      </trkpt>
      <trkpt lat="46.30023" lon="10.48194">
        <ele>2133.449</ele>
        <time>2018-08-09T23:09:55Z</time>
      </trkpt>
      <trkpt lat="46.30023" lon="10.4819">
        <ele>2134.326</ele>
        <time>2018-08-09T23:10:15Z</time>
      </trkpt>
      <trkpt lat="46.30022" lon="10.48187">
        <ele>2135.747</ele>
        <time>2018-08-09T23:10:35Z</time>
      </trkpt>
      <trkpt lat="46.30021" lon="10.48184">
        <ele>2136.911</ele>
        <time>2018-08-09T23:10:55Z</time>
      </trkpt>
      <trkpt lat="46.30021" lon="10.4818">
        <ele>2137.408</ele>
        <time>2018-08-09T23:11:15Z</time>
      </trkpt>
      <trkpt lat="46.30023" lon="10.48181">
        <ele>2136.464</ele>
        <time>2018-08-09T23:11:35Z</time>
      </trkpt>
      <trkpt lat="46.30025" lon="10.48183">
        <ele>2134.769</ele>
        <time>2018-08-09T23:11:55Z</time>
      </trkpt>
      <trkpt lat="46.30026" lon="10.48184">
        <ele>2133.945</ele>
        <time>2018-08-09T23:12:15Z</time>
      </trkpt>
      <trkpt lat="46.30028" lon="10.48185">
        <ele>2132.989</ele>
        <time>2018-08-09T23:12:35Z</time>
      </trkpt>
      <trkpt lat="46.30037" lon="10.48178">
        <ele>2133.934</ele>
        <time>2018-08-09T23:12:55Z</time>
      </trkpt>
      <trkpt lat="46.30039" lon="10.48176">
        <ele>2134.135</ele>
        <time>2018-08-09T23:13:15Z</time>
      </trkpt>
      <trkpt lat="46.30039" lon="10.48155">
        <ele>2140.012</ele>
        <time>2018-08-09T23:13:35Z</time>
      </trkpt>
      <trkpt lat="46.30038" lon="10.48124">
        <ele>2148.395</ele>
        <time>2018-08-09T23:13:55Z</time>
      </trkpt>
      <trkpt lat="46.30033" lon="10.48105">
        <ele>2153.546</ele>
        <time>2018-08-09T23:14:15Z</time>
      </trkpt>
      <trkpt lat="46.30033" lon="10.48104">
        <ele>2153.688</ele>
        <time>2018-08-09T23:14:35Z</time>
      </trkpt>
      <trkpt lat="46.30033" lon="10.48103">
        <ele>2153.916</ele>
        <time>2018-08-09T23:14:55Z</time>
      </trkpt>
      <trkpt lat="46.30028" lon="10.48082">
        <ele>2159.308</ele>
        <time>2018-08-09T23:15:15Z</time>
      </trkpt>
      <trkpt lat="46.30028" lon="10.4808">
        <ele>2159.676</ele>
        <time>2018-08-09T23:15:35Z</time>
      </trkpt>
      <trkpt lat="46.30027" lon="10.48079">
        <ele>2160.011</ele>
        <time>2018-08-09T23:15:55Z</time>
      </trkpt>
      <trkpt lat="46.30027" lon="10.48079">
        <ele>2160.257</ele>
        <time>2018-08-09T23:16:15Z</time>
      </trkpt>
      <trkpt lat="46.30024" lon="10.48075">
        <ele>2161.571</ele>
        <time>2018-08-09T23:16:35Z</time>
      </trkpt>
      <trkpt lat="46.30024" lon="10.48074">
        <ele>2162.096</ele>
        <time>2018-08-09T23:16:55Z</time>
      </trkpt>
      <trkpt lat="46.30023" lon="10.48074">
        <ele>2162.247</ele>
        <time>2018-08-09T23:17:15Z</time>
      </trkpt>
      <trkpt lat="46.30009" lon="10.48057">
        <ele>2169.314</ele>
        <time>2018-08-09T23:17:35Z</time>
      </trkpt>
      <trkpt lat="46.30009" lon="10.48056">
        <ele>2169.577</ele>
        <time>2018-08-09T23:17:55Z</time>
      </trkpt>
      <trkpt lat="46.30008" lon="10.48055">
        <ele>2170.252</ele>
        <time>2018-08-09T23:18:15Z</time>
      </trkpt>
      <trkpt lat="46.30005" lon="10.48049">
        <ele>2172.353</ele>
        <time>2018-08-09T23:18:35Z</time>
      </trkpt>
      <trkpt lat="46.30001" lon="10.48036">
        <ele>2176.608</ele>
        <time>2018-08-09T23:18:55Z</time>
      </trkpt>
      <trkpt lat="46.29997" lon="10.48024">
        <ele>2180.508</ele>
        <time>2018-08-09T23:19:15Z</time>
      </trkpt>
      <trkpt lat="46.29996" lon="10.48022">
        <ele>2181.237</ele>
        <time>2018-08-09T23:19:35Z</time>
      </trkpt>
      <trkpt lat="46.29995" lon="10.47974">
        <ele>2195.482</ele>
        <time>2018-08-09T23:19:55Z</time>
      </trkpt>
      <trkpt lat="46.29997" lon="10.47962">
        <ele>2198.428</ele>
        <time>2018-08-09T23:20:15Z</time>
      </trkpt>
      <trkpt lat="46.29997" lon="10.47959">
        <ele>2199.482</ele>
        <time>2018-08-09T23:20:35Z</time>
      </trkpt>
      <trkpt lat="46.29996" lon="10.47956">
        <ele>2200.227</ele>
        <time>2018-08-09T23:20:55Z</time>
      </trkpt>
      <trkpt lat="46.29997" lon="10.47953">
        <ele>2201.098</ele>
        <time>2018-08-09T23:21:15Z</time>
      </trkpt>
      <trkpt lat="46.29997" lon="10.4795">
        <ele>2201.715</ele>
        <time>2018-08-09T23:21:35Z</time>
      </trkpt>
      <trkpt lat="46.29997" lon="10.47947">
        <ele>2202.648</ele>
        <time>2018-08-09T23:21:55Z</time>
      </trkpt>
      <trkpt lat="46.29997" lon="10.47944">
        <ele>2203.585</ele>
        <time>2018-08-09T23:22:15Z</time>
      </trkpt>
      <trkpt lat="46.29997" lon="10.47941">
        <ele>2204.389</ele>
        <time>2018-08-09T23:22:35Z</time>
      </trkpt>
      <trkpt lat="46.29997" lon="10.47937">
        <ele>2205.017</ele>
        <time>2018-08-09T23:22:55Z</time>
      </trkpt>
      <trkpt lat="46.29998" lon="10.47935">
        <ele>2205.408</ele>
        <time>2018-08-09T23:23:15Z</time>
      </trkpt>
      <trkpt lat="46.29997" lon="10.47932">
        <ele>2206.08</ele>
        <time>2018-08-09T23:23:35Z</time>
      </trkpt>
      <trkpt lat="46.29998" lon="10.47929">
        <ele>2206.735</ele>
        <time>2018-08-09T23:23:55Z</time>
      </trkpt>
      <trkpt lat="46.3" lon="10.47927">
        <ele>2206.811</ele>
        <time>2018-08-09T23:24:15Z</time>
      </trkpt>
      <trkpt lat="46.3" lon="10.47924">
        <ele>2207.415</ele>
        <time>2018-08-09T23:24:35Z</time>
      </trkpt>
      <trkpt lat="46.30002" lon="10.47921">
        <ele>2207.78</ele>
        <time>2018-08-09T23:24:55Z</time>
      </trkpt>
      <trkpt lat="46.30002" lon="10.47918">
        <ele>2208.441</ele>
        <time>2018-08-09T23:25:15Z</time>
      </trkpt>
      <trkpt lat="46.30002" lon="10.47914">
        <ele>2209.218</ele>
        <time>2018-08-09T23:25:35Z</time>
      </trkpt>
      <trkpt lat="46.30002" lon="10.47911">
        <ele>2209.721</ele>
        <time>2018-08-09T23:25:55Z</time>
      </trkpt>
      <trkpt lat="46.30004" lon="10.47909">
        <ele>2210.192</ele>
        <time>2018-08-09T23:26:15Z</time>
      </trkpt>
      <trkpt lat="46.30004" lon="10.47905">
        <ele>2210.973</ele>
        <time>2018-08-09T23:26:35Z</time>
      </trkpt>
      <trkpt lat="46.30004" lon="10.47902">
        <ele>2211.72</ele>
        <time>2018-08-09T23:26:55Z</time>
      </trkpt>
      <trkpt lat="46.30003" lon="10.47898">
        <ele>2212.508</ele>
        <time>2018-08-09T23:27:15Z</time>
      </trkpt>
      <trkpt lat="46.30001" lon="10.47897">
        <ele>2213.051</ele>
        <time>2018-08-09T23:27:35Z</time>
      </trkpt>
      <trkpt lat="46.30001" lon="10.47894">
        <ele>2213.786</ele>
        <time>2018-08-09T23:27:55Z</time>
      </trkpt>
      <trkpt lat="46.3" lon="10.47891">
        <ele>2214.452</ele>
        <time>2018-08-09T23:28:15Z</time>
      </trkpt>
      <trkpt lat="46.3" lon="10.47888">
        <ele>2215.286</ele>
        <time>2018-08-09T23:28:35Z</time>
      </trkpt>
      <trkpt lat="46.29999" lon="10.47884">
        <ele>2216.381</ele>
        <time>2018-08-09T23:28:55Z</time>
      </trkpt>
      <trkpt lat="46.29998" lon="10.47881">
        <ele>2217.322</ele>
        <time>2018-08-09T23:29:15Z</time>
      </trkpt>
      <trkpt lat="46.29998" lon="10.47878">
        <ele>2218.039</ele>
        <time>2018-08-09T23:29:35Z</time>
      </trkpt>
      <trkpt lat="46.29997" lon="10.47875">
        <ele>2218.842</ele>
        <time>2018-08-09T23:29:55Z</time>
      </trkpt>
      <trkpt lat="46.29995" lon="10.47873">
        <ele>2219.584</ele>
        <time>2018-08-09T23:30:15Z</time>
      </trkpt>
      <trkpt lat="46.29993" lon="10.47873">
        <ele>2219.807</ele>
        <time>2018-08-09T23:30:35Z</time>
      </trkpt>
      <trkpt lat="46.29991" lon="10.47871">
        <ele>2220.517</ele>
        <time>2018-08-09T23:30:55Z</time>
      </trkpt>
      <trkpt lat="46.29989" lon="10.4787">
        <ele>2221.008</ele>
        <time>2018-08-09T23:31:15Z</time>
      </trkpt>
      <trkpt lat="46.29989" lon="10.47866">
        <ele>2222.04</ele>
        <time>2018-08-09T23:31:35Z</time>
      </trkpt>
      <trkpt lat="46.29989" lon="10.47863">
        <ele>2222.715</ele>
        <time>2018-08-09T23:31:55Z</time>
      </trkpt>
      <trkpt lat="46.29987" lon="10.47861">
        <ele>2223.541</ele>
        <time>2018-08-09T23:32:15Z</time>
      </trkpt>
      <trkpt lat="46.29986" lon="10.47858">
        <ele>2224.285</ele>
        <time>2018-08-09T23:32:35Z</time>
      </trkpt>
      <trkpt lat="46.29984" lon="10.47856">
        <ele>2224.89</ele>
        <time>2018-08-09T23:32:55Z</time>
      </trkpt>
      <trkpt lat="46.2998" lon="10.47846">
        <ele>2227.491</ele>
        <time>2018-08-09T23:33:15Z</time>
      </trkpt>
      <trkpt lat="46.29981" lon="10.47843">
        <ele>2228.098</ele>
        <time>2018-08-09T23:33:35Z</time>
      </trkpt>
      <trkpt lat="46.29979" lon="10.47841">
        <ele>2228.791</ele>
        <time>2018-08-09T23:33:55Z</time>
      </trkpt>
      <trkpt lat="46.29979" lon="10.47837">
        <ele>2229.369</ele>
        <time>2018-08-09T23:34:15Z</time>
      </trkpt>
      <trkpt lat="46.29981" lon="10.47838">
        <ele>2229.004</ele>
        <time>2018-08-09T23:34:35Z</time>
      </trkpt>
      <trkpt lat="46.29983" lon="10.47837">
        <ele>2228.924</ele>
        <time>2018-08-09T23:34:55Z</time>
      </trkpt>
      <trkpt lat="46.29985" lon="10.47836">
        <ele>2229.008</ele>
        <time>2018-08-09T23:35:15Z</time>
      </trkpt>
      <trkpt lat="46.29988" lon="10.47829">
        <ele>2229.968</ele>
        <time>2018-08-09T23:35:35Z</time>
      </trkpt>
      <trkpt lat="46.29997" lon="10.47812">
        <ele>2232.283</ele>
        <time>2018-08-09T23:35:55Z</time>
      </trkpt>
      <trkpt lat="46.29997" lon="10.47811">
        <ele>2232.379</ele>
        <time>2018-08-09T23:36:15Z</time>
      </trkpt>
      <trkpt lat="46.30001" lon="10.47805">
        <ele>2233.023</ele>
        <time>2018-08-09T23:36:35Z</time>
      </trkpt>
      <trkpt lat="46.30009" lon="10.47792">
        <ele>2234.878</ele>
        <time>2018-08-09T23:36:55Z</time>
      </trkpt>
      <trkpt lat="46.30011" lon="10.47786">
        <ele>2235.929</ele>
        <time>2018-08-09T23:37:15Z</time>
      </trkpt>
      <trkpt lat="46.30017" lon="10.47767">
        <ele>2240.056</ele>
        <time>2018-08-09T23:37:35Z</time>
      </trkpt>
      <trkpt lat="46.30026" lon="10.47759">
        <ele>2241.519</ele>
        <time>2018-08-09T23:37:55Z</time>
      </trkpt>
      <trkpt lat="46.30026" lon="10.47756">
        <ele>2242.248</ele>
        <time>2018-08-09T23:38:15Z</time>
      </trkpt>
      <trkpt lat="46.30027" lon="10.47754">
        <ele>2242.961</ele>
        <time>2018-08-09T23:38:35Z</time>
      </trkpt>
      <trkpt lat="46.30029" lon="10.47751">
        <ele>2244.017</ele>
        <time>2018-08-09T23:38:55Z</time>
      </trkpt>
      <trkpt lat="46.30031" lon="10.47752">
        <ele>2244.408</ele>
        <time>2018-08-09T23:39:15Z</time>
      </trkpt>
      <trkpt lat="46.30033" lon="10.47753">
        <ele>2244.556</ele>
        <time>2018-08-09T23:39:35Z</time>
      </trkpt>
      <trkpt lat="46.30033" lon="10.47753">
        <ele>2244.671</ele>
        <time>2018-08-09T23:39:55Z</time>
      </trkpt>
      <trkpt lat="46.30034" lon="10.47753">
        <ele>2244.787</ele>
        <time>2018-08-09T23:40:15Z</time>
      </trkpt>
      <trkpt lat="46.30052" lon="10.47765">
        <ele>2246.371</ele>
        <time>2018-08-09T23:40:35Z</time>
      </trkpt>
      <trkpt lat="46.30054" lon="10.47766">
        <ele>2246.366</ele>
        <time>2018-08-09T23:40:55Z</time>
      </trkpt>
      <trkpt lat="46.30072" lon="10.47782">
        <ele>2244.787</ele>
        <time>2018-08-09T23:41:15Z</time>
      </trkpt>
      <trkpt lat="46.30081" lon="10.47774">
        <ele>2248.524</ele>
        <time>2018-08-09T23:41:35Z</time>
      </trkpt>
      <trkpt lat="46.30076" lon="10.47761">
        <ele>2250.677</ele>
        <time>2018-08-09T23:41:55Z</time>
      </trkpt>
      <trkpt lat="46.30075" lon="10.47759">
        <ele>2251.068</ele>
        <time>2018-08-09T23:42:15Z</time>
      </trkpt>
      <trkpt lat="46.30074" lon="10.47758">
        <ele>2251.342</ele>
        <time>2018-08-09T23:42:35Z</time>
      </trkpt>
      <trkpt lat="46.30071" lon="10.47751">
        <ele>2252.926</ele>
        <time>2018-08-09T23:42:55Z</time>
      </trkpt>
      <trkpt lat="46.30068" lon="10.47745">
        <ele>2253.808</ele>
        <time>2018-08-09T23:43:15Z</time>
      </trkpt>
      <trkpt lat="46.30066" lon="10.47739">
        <ele>2255.148</ele>
        <time>2018-08-09T23:43:35Z</time>
      </trkpt>
      <trkpt lat="46.30055" lon="10.47709">
        <ele>2260.823</ele>
        <time>2018-08-09T23:43:55Z</time>
      </trkpt>
      <trkpt lat="46.3005" lon="10.47677">
        <ele>2267.719</ele>
        <time>2018-08-09T23:44:15Z</time>
      </trkpt>
      <trkpt lat="46.3006" lon="10.47658">
        <ele>2272.493</ele>
        <time>2018-08-09T23:44:35Z</time>
      </trkpt>
      <trkpt lat="46.30076" lon="10.47655">
        <ele>2274.428</ele>
        <time>2018-08-09T23:44:55Z</time>
      </trkpt>
      <trkpt lat="46.30085" lon="10.47653">
        <ele>2275.849</ele>
        <time>2018-08-09T23:45:15Z</time>
      </trkpt>
      <trkpt lat="46.30102" lon="10.47662">
        <ele>2277.816</ele>
        <time>2018-08-09T23:45:35Z</time>
      </trkpt>
      <trkpt lat="46.30113" lon="10.47676">
        <ele>2276.529</ele>
        <time>2018-08-09T23:45:55Z</time>
      </trkpt>
      <trkpt lat="46.30113" lon="10.47676">
        <ele>2276.658</ele>
        <time>2018-08-09T23:46:15Z</time>
      </trkpt>
      <trkpt lat="46.30118" lon="10.47682">
        <ele>2278.152</ele>
        <time>2018-08-09T23:46:35Z</time>
      </trkpt>
      <trkpt lat="46.30118" lon="10.47683">
        <ele>2278.117</ele>
        <time>2018-08-09T23:46:55Z</time>
      </trkpt>
      <trkpt lat="46.30122" lon="10.47685">
        <ele>2279.808</ele>
        <time>2018-08-09T23:47:15Z</time>
      </trkpt>
      <trkpt lat="46.30124" lon="10.47687">
        <ele>2280.817</ele>
        <time>2018-08-09T23:47:35Z</time>
      </trkpt>
      <trkpt lat="46.30125" lon="10.4769">
        <ele>2280.552</ele>
        <time>2018-08-09T23:47:55Z</time>
      </trkpt>
      <trkpt lat="46.30126" lon="10.47692">
        <ele>2280.538</ele>
        <time>2018-08-09T23:48:15Z</time>
      </trkpt>
      <trkpt lat="46.30127" lon="10.47694">
        <ele>2280.192</ele>
        <time>2018-08-09T23:48:35Z</time>
      </trkpt>
      <trkpt lat="46.30128" lon="10.47696">
        <ele>2280.637</ele>
        <time>2018-08-09T23:48:55Z</time>
      </trkpt>
      <trkpt lat="46.3013" lon="10.47697">
        <ele>2281.168</ele>
        <time>2018-08-09T23:49:15Z</time>
      </trkpt>
      <trkpt lat="46.30132" lon="10.477">
        <ele>2281.215</ele>
        <time>2018-08-09T23:49:35Z</time>
      </trkpt>
      <trkpt lat="46.30133" lon="10.47702">
        <ele>2280.718</ele>
        <time>2018-08-09T23:49:55Z</time>
      </trkpt>
      <trkpt lat="46.30134" lon="10.47704">
        <ele>2280.542</ele>
        <time>2018-08-09T23:50:15Z</time>
      </trkpt>
      <trkpt lat="46.30136" lon="10.47706">
        <ele>2280.822</ele>
        <time>2018-08-09T23:50:35Z</time>
      </trkpt>
      <trkpt lat="46.30137" lon="10.47708">
        <ele>2280.614</ele>
        <time>2018-08-09T23:50:55Z</time>
      </trkpt>
      <trkpt lat="46.30139" lon="10.47711">
        <ele>2280.208</ele>
        <time>2018-08-09T23:51:15Z</time>
      </trkpt>
      <trkpt lat="46.30139" lon="10.47714">
        <ele>2278.946</ele>
        <time>2018-08-09T23:51:35Z</time>
      </trkpt>
      <trkpt lat="46.3014" lon="10.47718">
        <ele>2277.591</ele>
        <time>2018-08-09T23:51:55Z</time>
      </trkpt>
      <trkpt lat="46.30142" lon="10.4772">
        <ele>2277.187</ele>
        <time>2018-08-09T23:52:15Z</time>
      </trkpt>
      <trkpt lat="46.30144" lon="10.47721">
        <ele>2277.661</ele>
        <time>2018-08-09T23:52:35Z</time>
      </trkpt>
      <trkpt lat="46.30145" lon="10.47721">
        <ele>2278.646</ele>
        <time>2018-08-09T23:52:55Z</time>
      </trkpt>
      <trkpt lat="46.30147" lon="10.47718">
        <ele>2280.477</ele>
        <time>2018-08-09T23:53:15Z</time>
      </trkpt>
      <trkpt lat="46.30149" lon="10.47717">
        <ele>2281.854</ele>
        <time>2018-08-09T23:53:35Z</time>
      </trkpt>
      <trkpt lat="46.3015" lon="10.47715">
        <ele>2283.297</ele>
        <time>2018-08-09T23:53:55Z</time>
      </trkpt>
      <trkpt lat="46.30152" lon="10.47713">
        <ele>2284.571</ele>
        <time>2018-08-09T23:54:15Z</time>
      </trkpt>
      <trkpt lat="46.30154" lon="10.47714">
        <ele>2285.341</ele>
        <time>2018-08-09T23:54:35Z</time>
      </trkpt>
      <trkpt lat="46.30155" lon="10.47716">
        <ele>2284.815</ele>
        <time>2018-08-09T23:54:55Z</time>
      </trkpt>
      <trkpt lat="46.30157" lon="10.47716">
        <ele>2285.508</ele>
        <time>2018-08-09T23:55:15Z</time>
      </trkpt>
      <trkpt lat="46.3016" lon="10.47716">
        <ele>2286.929</ele>
        <time>2018-08-09T23:55:35Z</time>
      </trkpt>
      <trkpt lat="46.30162" lon="10.47716">
        <ele>2288.024</ele>
        <time>2018-08-09T23:55:55Z</time>
      </trkpt>
      <trkpt lat="46.30165" lon="10.47716">
        <ele>2288.73</ele>
        <time>2018-08-09T23:56:15Z</time>
      </trkpt>
      <trkpt lat="46.30166" lon="10.47718">
        <ele>2289.184</ele>
        <time>2018-08-09T23:56:35Z</time>
      </trkpt>
      <trkpt lat="46.30169" lon="10.47719">
        <ele>2288.979</ele>
        <time>2018-08-09T23:56:55Z</time>
      </trkpt>
      <trkpt lat="46.30171" lon="10.47719">
        <ele>2289.09</ele>
        <time>2018-08-09T23:57:15Z</time>
      </trkpt>
      <trkpt lat="46.30172" lon="10.47719">
        <ele>2289.267</ele>
        <time>2018-08-09T23:57:35Z</time>
      </trkpt>
      <trkpt lat="46.30175" lon="10.47718">
        <ele>2289.54</ele>
        <time>2018-08-09T23:57:55Z</time>
      </trkpt>
      <trkpt lat="46.30177" lon="10.47719">
        <ele>2289.383</ele>
        <time>2018-08-09T23:58:15Z</time>
      </trkpt>
      <trkpt lat="46.30179" lon="10.4772">
        <ele>2289.125</ele>
        <time>2018-08-09T23:58:35Z</time>
      </trkpt>
      <trkpt lat="46.30181" lon="10.47721">
        <ele>2288.917</ele>
        <time>2018-08-09T23:58:55Z</time>
      </trkpt>
      <trkpt lat="46.30183" lon="10.4772">
        <ele>2289.208</ele>
        <time>2018-08-09T23:59:15Z</time>
      </trkpt>
      <trkpt lat="46.30185" lon="10.4772">
        <ele>2289.25</ele>
        <time>2018-08-09T23:59:35Z</time>
      </trkpt>
      <trkpt lat="46.30187" lon="10.47721">
        <ele>2289.235</ele>
        <time>2018-08-09T23:59:55Z</time>
      </trkpt>
      <trkpt lat="46.30188" lon="10.47721">
        <ele>2289.161</ele>
        <time>2018-08-10T00:00:15Z</time>
      </trkpt>
      <trkpt lat="46.30189" lon="10.47721">
        <ele>2289.315</ele>
        <time>2018-08-10T00:00:35Z</time>
      </trkpt>
      <trkpt lat="46.302" lon="10.4772">
        <ele>2289.99</ele>
        <time>2018-08-10T00:00:55Z</time>
      </trkpt>
      <trkpt lat="46.30211" lon="10.47719">
        <ele>2290.631</ele>
        <time>2018-08-10T00:01:15Z</time>
      </trkpt>
      <trkpt lat="46.30213" lon="10.4772">
        <ele>2290.388</ele>
        <time>2018-08-10T00:01:35Z</time>
      </trkpt>
      <trkpt lat="46.30215" lon="10.47721">
        <ele>2290.161</ele>
        <time>2018-08-10T00:01:55Z</time>
      </trkpt>
      <trkpt lat="46.30217" lon="10.47721">
        <ele>2290.036</ele>
        <time>2018-08-10T00:02:15Z</time>
      </trkpt>
      <trkpt lat="46.30219" lon="10.47721">
        <ele>2290.317</ele>
        <time>2018-08-10T00:02:35Z</time>
      </trkpt>
      <trkpt lat="46.30221" lon="10.4772">
        <ele>2290.518</ele>
        <time>2018-08-10T00:02:55Z</time>
      </trkpt>
      <trkpt lat="46.30223" lon="10.47721">
        <ele>2290.408</ele>
        <time>2018-08-10T00:03:15Z</time>
      </trkpt>
      <trkpt lat="46.30225" lon="10.47721">
        <ele>2290.515</ele>
        <time>2018-08-10T00:03:35Z</time>
      </trkpt>
      <trkpt lat="46.30227" lon="10.47722">
        <ele>2290.48</ele>
        <time>2018-08-10T00:03:55Z</time>
      </trkpt>
      <trkpt lat="46.30229" lon="10.47722">
        <ele>2290.576</ele>
        <time>2018-08-10T00:04:15Z</time>
      </trkpt>
      <trkpt lat="46.30231" lon="10.47722">
        <ele>2290.61</ele>
        <time>2018-08-10T00:04:35Z</time>
      </trkpt>
      <trkpt lat="46.30234" lon="10.47722">
        <ele>2290.855</ele>
        <time>2018-08-10T00:04:55Z</time>
      </trkpt>
      <trkpt lat="46.30236" lon="10.47721">
        <ele>2291.286</ele>
        <time>2018-08-10T00:05:15Z</time>
      </trkpt>
      <trkpt lat="46.30238" lon="10.4772">
        <ele>2291.523</ele>
        <time>2018-08-10T00:05:35Z</time>
      </trkpt>
      <trkpt lat="46.3024" lon="10.4772">
        <ele>2291.896</ele>
        <time>2018-08-10T00:05:55Z</time>
      </trkpt>
      <trkpt lat="46.30242" lon="10.47719">
        <ele>2292.287</ele>
        <time>2018-08-10T00:06:15Z</time>
      </trkpt>
      <trkpt lat="46.30248" lon="10.47716">
        <ele>2293.342</ele>
        <time>2018-08-10T00:06:35Z</time>
      </trkpt>
      <trkpt lat="46.30268" lon="10.47703">
        <ele>2297.526</ele>
        <time>2018-08-10T00:06:55Z</time>
      </trkpt>
      <trkpt lat="46.3027" lon="10.47702">
        <ele>2297.808</ele>
        <time>2018-08-10T00:07:15Z</time>
      </trkpt>
      <trkpt lat="46.30271" lon="10.47701">
        <ele>2298.05</ele>
        <time>2018-08-10T00:07:35Z</time>
      </trkpt>
      <trkpt lat="46.30274" lon="10.47699">
        <ele>2298.615</ele>
        <time>2018-08-10T00:07:55Z</time>
      </trkpt>
      <trkpt lat="46.3028" lon="10.47695">
        <ele>2300.351</ele>
        <time>2018-08-10T00:08:15Z</time>
      </trkpt>
      <trkpt lat="46.30282" lon="10.47694">
        <ele>2301.095</ele>
        <time>2018-08-10T00:08:35Z</time>
      </trkpt>
      <trkpt lat="46.30284" lon="10.47693">
        <ele>2301.56</ele>
        <time>2018-08-10T00:08:55Z</time>
      </trkpt>
      <trkpt lat="46.30287" lon="10.47692">
        <ele>2302.661</ele>
        <time>2018-08-10T00:09:15Z</time>
      </trkpt>
      <trkpt lat="46.30288" lon="10.4769">
        <ele>2303.638</ele>
        <time>2018-08-10T00:09:35Z</time>
      </trkpt>
      <trkpt lat="46.30291" lon="10.47691">
        <ele>2303.951</ele>
        <time>2018-08-10T00:09:55Z</time>
      </trkpt>
      <trkpt lat="46.30293" lon="10.47691">
        <ele>2304.122</ele>
        <time>2018-08-10T00:10:15Z</time>
      </trkpt>
      <trkpt lat="46.30296" lon="10.47691">
        <ele>2304.362</ele>
        <time>2018-08-10T00:10:35Z</time>
      </trkpt>
      <trkpt lat="46.30297" lon="10.4769">
        <ele>2305.308</ele>
        <time>2018-08-10T00:10:55Z</time>
      </trkpt>
      <trkpt lat="46.30298" lon="10.47687">
        <ele>2306.308</ele>
        <time>2018-08-10T00:11:15Z</time>
      </trkpt>
      <trkpt lat="46.303" lon="10.47685">
        <ele>2307.364</ele>
        <time>2018-08-10T00:11:35Z</time>
      </trkpt>
      <trkpt lat="46.30301" lon="10.47685">
        <ele>2307.859</ele>
        <time>2018-08-10T00:11:55Z</time>
      </trkpt>
      <trkpt lat="46.30304" lon="10.47684">
        <ele>2308.465</ele>
        <time>2018-08-10T00:12:15Z</time>
      </trkpt>
      <trkpt lat="46.30306" lon="10.47683">
        <ele>2309.089</ele>
        <time>2018-08-10T00:12:35Z</time>
      </trkpt>
      <trkpt lat="46.30308" lon="10.47682">
        <ele>2309.784</ele>
        <time>2018-08-10T00:12:55Z</time>
      </trkpt>
      <trkpt lat="46.30311" lon="10.47681">
        <ele>2310.485</ele>
        <time>2018-08-10T00:13:15Z</time>
      </trkpt>
      <trkpt lat="46.30313" lon="10.4768">
        <ele>2310.992</ele>
        <time>2018-08-10T00:13:35Z</time>
      </trkpt>
      <trkpt lat="46.30315" lon="10.47679">
        <ele>2311.545</ele>
        <time>2018-08-10T00:13:55Z</time>
      </trkpt>
      <trkpt lat="46.30317" lon="10.47679">
        <ele>2311.991</ele>
        <time>2018-08-10T00:14:15Z</time>
      </trkpt>
      <trkpt lat="46.30319" lon="10.47679">
        <ele>2312.081</ele>
        <time>2018-08-10T00:14:35Z</time>
      </trkpt>
      <trkpt lat="46.30322" lon="10.47679">
        <ele>2312.319</ele>
        <time>2018-08-10T00:14:55Z</time>
      </trkpt>
      <trkpt lat="46.30324" lon="10.47678">
        <ele>2312.808</ele>
        <time>2018-08-10T00:15:15Z</time>
      </trkpt>
      <trkpt lat="46.30327" lon="10.47678">
        <ele>2313.011</ele>
        <time>2018-08-10T00:15:35Z</time>
      </trkpt>
      <trkpt lat="46.30329" lon="10.47678">
        <ele>2313.586</ele>
        <time>2018-08-10T00:15:55Z</time>
      </trkpt>
      <trkpt lat="46.30331" lon="10.47676">
        <ele>2314.252</ele>
        <time>2018-08-10T00:16:15Z</time>
      </trkpt>
      <trkpt lat="46.30333" lon="10.47676">
        <ele>2314.516</ele>
        <time>2018-08-10T00:16:35Z</time>
      </trkpt>
      <trkpt lat="46.30335" lon="10.47677">
        <ele>2314.441</ele>
        <time>2018-08-10T00:16:55Z</time>
      </trkpt>
      <trkpt lat="46.30337" lon="10.47677">
        <ele>2314.532</ele>
        <time>2018-08-10T00:17:15Z</time>
      </trkpt>
      <trkpt lat="46.30339" lon="10.47678">
        <ele>2314.089</ele>
        <time>2018-08-10T00:17:35Z</time>
      </trkpt>
      <trkpt lat="46.30342" lon="10.47678">
        <ele>2314.242</ele>
        <time>2018-08-10T00:17:55Z</time>
      </trkpt>
      <trkpt lat="46.30343" lon="10.47677">
        <ele>2314.758</ele>
        <time>2018-08-10T00:18:15Z</time>
      </trkpt>
      <trkpt lat="46.30345" lon="10.47674">
        <ele>2315.652</ele>
        <time>2018-08-10T00:18:35Z</time>
      </trkpt>
      <trkpt lat="46.30347" lon="10.47675">
        <ele>2315.617</ele>
        <time>2018-08-10T00:18:55Z</time>
      </trkpt>
      <trkpt lat="46.30349" lon="10.47674">
        <ele>2315.808</ele>
        <time>2018-08-10T00:19:15Z</time>
      </trkpt>
      <trkpt lat="46.30351" lon="10.47674">
        <ele>2316.037</ele>
        <time>2018-08-10T00:19:35Z</time>
      </trkpt>
      <trkpt lat="46.30353" lon="10.47675">
        <ele>2315.612</ele>
        <time>2018-08-10T00:19:55Z</time>
      </trkpt>
      <trkpt lat="46.30354" lon="10.47677">
        <ele>2315.128</ele>
        <time>2018-08-10T00:20:15Z</time>
      </trkpt>
      <trkpt lat="46.30356" lon="10.47677">
        <ele>2315.182</ele>
        <time>2018-08-10T00:20:35Z</time>
      </trkpt>
      <trkpt lat="46.30362" lon="10.47674">
        <ele>2316.387</ele>
        <time>2018-08-10T00:20:55Z</time>
      </trkpt>
      <trkpt lat="46.30383" lon="10.47664">
        <ele>2318.538</ele>
        <time>2018-08-10T00:21:15Z</time>
      </trkpt>
      <trkpt lat="46.30412" lon="10.47639">
        <ele>2319.455</ele>
        <time>2018-08-10T00:21:35Z</time>
      </trkpt>
      <trkpt lat="46.30424" lon="10.47619">
        <ele>2323.458</ele>
        <time>2018-08-10T00:21:55Z</time>
      </trkpt>
      <trkpt lat="46.30428" lon="10.47612">
        <ele>2325.517</ele>
        <time>2018-08-10T00:22:15Z</time>
      </trkpt>
      <trkpt lat="46.30442" lon="10.47573">
        <ele>2333.487</ele>
        <time>2018-08-10T00:22:35Z</time>
      </trkpt>
      <trkpt lat="46.30448" lon="10.47551">
        <ele>2338.215</ele>
        <time>2018-08-10T00:22:55Z</time>
      </trkpt>
      <trkpt lat="46.30449" lon="10.47525">
        <ele>2344.508</ele>
        <time>2018-08-10T00:23:15Z</time>
      </trkpt>
      <trkpt lat="46.30459" lon="10.47492">
        <ele>2351.643</ele>
        <time>2018-08-10T00:23:35Z</time>
      </trkpt>
      <trkpt lat="46.30492" lon="10.47467">
        <ele>2358.478</ele>
        <time>2018-08-10T00:23:55Z</time>
      </trkpt>
      <trkpt lat="46.305" lon="10.47451">
        <ele>2362.584</ele>
        <time>2018-08-10T00:24:15Z</time>
      </trkpt>
      <trkpt lat="46.30506" lon="10.47437">
        <ele>2364.198</ele>
        <time>2018-08-10T00:24:35Z</time>
      </trkpt>
      <trkpt lat="46.30548" lon="10.47399">
        <ele>2362.853</ele>
        <time>2018-08-10T00:24:55Z</time>
      </trkpt>
      <trkpt lat="46.30573" lon="10.4738">
        <ele>2364.344</ele>
        <time>2018-08-10T00:25:15Z</time>
      </trkpt>
      <trkpt lat="46.30593" lon="10.4738">
        <ele>2366.531</ele>
        <time>2018-08-10T00:25:35Z</time>
      </trkpt>
      <trkpt lat="46.30605" lon="10.47387">
        <ele>2368.584</ele>
        <time>2018-08-10T00:25:55Z</time>
      </trkpt>
      <trkpt lat="46.30608" lon="10.47389">
        <ele>2368.992</ele>
        <time>2018-08-10T00:26:15Z</time>
      </trkpt>
      <trkpt lat="46.30627" lon="10.4739">
        <ele>2372.673</ele>
        <time>2018-08-10T00:26:35Z</time>
      </trkpt>
      <trkpt lat="46.30628" lon="10.47389">
        <ele>2373.02</ele>
        <time>2018-08-10T00:26:55Z</time>
      </trkpt>
      <trkpt lat="46.3063" lon="10.47388">
        <ele>2373.508</ele>
        <time>2018-08-10T00:27:15Z</time>
      </trkpt>
      <trkpt lat="46.30632" lon="10.47387">
        <ele>2374.321</ele>
        <time>2018-08-10T00:27:35Z</time>
      </trkpt>
      <trkpt lat="46.30634" lon="10.47387">
        <ele>2374.656</ele>
        <time>2018-08-10T00:27:55Z</time>
      </trkpt>
      <trkpt lat="46.30637" lon="10.47386">
        <ele>2375.382</ele>
        <time>2018-08-10T00:28:15Z</time>
      </trkpt>
      <trkpt lat="46.30639" lon="10.47385">
        <ele>2375.856</ele>
        <time>2018-08-10T00:28:35Z</time>
      </trkpt>
      <trkpt lat="46.30641" lon="10.47384">
        <ele>2376.061</ele>
        <time>2018-08-10T00:28:55Z</time>
      </trkpt>
      <trkpt lat="46.30644" lon="10.47383">
        <ele>2376.132</ele>
        <time>2018-08-10T00:29:15Z</time>
      </trkpt>
      <trkpt lat="46.30646" lon="10.47383">
        <ele>2376.099</ele>
        <time>2018-08-10T00:29:35Z</time>
      </trkpt>
      <trkpt lat="46.30648" lon="10.47382">
        <ele>2376.082</ele>
        <time>2018-08-10T00:29:55Z</time>
      </trkpt>
      <trkpt lat="46.3065" lon="10.47382">
        <ele>2375.833</ele>
        <time>2018-08-10T00:30:15Z</time>
      </trkpt>
      <trkpt lat="46.30652" lon="10.47383">
        <ele>2375.423</ele>
        <time>2018-08-10T00:30:35Z</time>
      </trkpt>
      <trkpt lat="46.30654" lon="10.47385">
        <ele>2374.815</ele>
        <time>2018-08-10T00:30:55Z</time>
      </trkpt>
      <trkpt lat="46.30656" lon="10.47386">
        <ele>2374.108</ele>
        <time>2018-08-10T00:31:15Z</time>
      </trkpt>
      <trkpt lat="46.30658" lon="10.47388">
        <ele>2373.265</ele>
        <time>2018-08-10T00:31:35Z</time>
      </trkpt>
      <trkpt lat="46.3066" lon="10.47389">
        <ele>2372.41</ele>
        <time>2018-08-10T00:31:55Z</time>
      </trkpt>
      <trkpt lat="46.30662" lon="10.4739">
        <ele>2371.816</ele>
        <time>2018-08-10T00:32:15Z</time>
      </trkpt>
      <trkpt lat="46.30664" lon="10.4739">
        <ele>2371.48</ele>
        <time>2018-08-10T00:32:35Z</time>
      </trkpt>
      <trkpt lat="46.30667" lon="10.4739">
        <ele>2371.185</ele>
        <time>2018-08-10T00:32:55Z</time>
      </trkpt>
      <trkpt lat="46.30669" lon="10.4739">
        <ele>2371.136</ele>
        <time>2018-08-10T00:33:15Z</time>
      </trkpt>
      <trkpt lat="46.30671" lon="10.47389">
        <ele>2371.423</ele>
        <time>2018-08-10T00:33:35Z</time>
      </trkpt>
      <trkpt lat="46.30673" lon="10.47389">
        <ele>2371.016</ele>
        <time>2018-08-10T00:33:55Z</time>
      </trkpt>
      <trkpt lat="46.30675" lon="10.47389">
        <ele>2370.568</ele>
        <time>2018-08-10T00:34:15Z</time>
      </trkpt>
      <trkpt lat="46.30678" lon="10.47387">
        <ele>2370.842</ele>
        <time>2018-08-10T00:34:35Z</time>
      </trkpt>
      <trkpt lat="46.30679" lon="10.47385">
        <ele>2371.426</ele>
        <time>2018-08-10T00:34:55Z</time>
      </trkpt>
      <trkpt lat="46.30681" lon="10.47383">
        <ele>2372.208</ele>
        <time>2018-08-10T00:35:15Z</time>
      </trkpt>
      <trkpt lat="46.30683" lon="10.47383">
        <ele>2372.148</ele>
        <time>2018-08-10T00:35:35Z</time>
      </trkpt>
      <trkpt lat="46.30685" lon="10.47382">
        <ele>2372.133</ele>
        <time>2018-08-10T00:35:55Z</time>
      </trkpt>
      <trkpt lat="46.30687" lon="10.47382">
        <ele>2371.959</ele>
        <time>2018-08-10T00:36:15Z</time>
      </trkpt>
      <trkpt lat="46.30689" lon="10.47382">
        <ele>2371.663</ele>
        <time>2018-08-10T00:36:35Z</time>
      </trkpt>
      <trkpt lat="46.30691" lon="10.47382">
        <ele>2371.258</ele>
        <time>2018-08-10T00:36:55Z</time>
      </trkpt>
      <trkpt lat="46.30693" lon="10.47382">
        <ele>2370.949</ele>
        <time>2018-08-10T00:37:15Z</time>
      </trkpt>
      <trkpt lat="46.30695" lon="10.47382">
        <ele>2370.816</ele>
        <time>2018-08-10T00:37:35Z</time>
      </trkpt>
      <trkpt lat="46.30698" lon="10.4738">
        <ele>2370.629</ele>
        <time>2018-08-10T00:37:55Z</time>
      </trkpt>
      <trkpt lat="46.30704" lon="10.47378">
        <ele>2370.375</ele>
        <time>2018-08-10T00:38:15Z</time>
      </trkpt>
      <trkpt lat="46.30711" lon="10.47377">
        <ele>2368.428</ele>
        <time>2018-08-10T00:38:35Z</time>
      </trkpt>
      <trkpt lat="46.30723" lon="10.47376">
        <ele>2365.52</ele>
        <time>2018-08-10T00:38:55Z</time>
      </trkpt>
      <trkpt lat="46.30733" lon="10.47376">
        <ele>2361.208</ele>
        <time>2018-08-10T00:39:15Z</time>
      </trkpt>
      <trkpt lat="46.30751" lon="10.47365">
        <ele>2357.399</ele>
        <time>2018-08-10T00:39:35Z</time>
      </trkpt>
      <trkpt lat="46.30768" lon="10.47357">
        <ele>2355.764</ele>
        <time>2018-08-10T00:39:55Z</time>
      </trkpt>
      <trkpt lat="46.30776" lon="10.47357">
        <ele>2353.63</ele>
        <time>2018-08-10T00:40:15Z</time>
      </trkpt>
      <trkpt lat="46.3078" lon="10.47357">
        <ele>2351.634</ele>
        <time>2018-08-10T00:40:35Z</time>
      </trkpt>
      <trkpt lat="46.3079" lon="10.47357">
        <ele>2346.279</ele>
        <time>2018-08-10T00:40:55Z</time>
      </trkpt>
      <trkpt lat="46.30799" lon="10.47361">
        <ele>2339.71</ele>
        <time>2018-08-10T00:41:15Z</time>
      </trkpt>
      <trkpt lat="46.30819" lon="10.47375">
        <ele>2329.817</ele>
        <time>2018-08-10T00:41:35Z</time>
      </trkpt>
      <trkpt lat="46.3084" lon="10.47378">
        <ele>2325.26</ele>
        <time>2018-08-10T00:41:55Z</time>
      </trkpt>
      <trkpt lat="46.30856" lon="10.4737">
        <ele>2323.575</ele>
        <time>2018-08-10T00:42:15Z</time>
      </trkpt>
      <trkpt lat="46.30877" lon="10.47346">
        <ele>2315.928</ele>
        <time>2018-08-10T00:42:35Z</time>
      </trkpt>
      <trkpt lat="46.30892" lon="10.4733">
        <ele>2313.72</ele>
        <time>2018-08-10T00:42:55Z</time>
      </trkpt>
      <trkpt lat="46.30893" lon="10.4733">
        <ele>2313.808</ele>
        <time>2018-08-10T00:43:15Z</time>
      </trkpt>
      <trkpt lat="46.30894" lon="10.4733">
        <ele>2313.999</ele>
        <time>2018-08-10T00:43:35Z</time>
      </trkpt>
      <trkpt lat="46.30918" lon="10.47347">
        <ele>2312.124</ele>
        <time>2018-08-10T00:43:55Z</time>
      </trkpt>
      <trkpt lat="46.30932" lon="10.47372">
        <ele>2308.04</ele>
        <time>2018-08-10T00:44:15Z</time>
      </trkpt>
      <trkpt lat="46.30957" lon="10.47393">
        <ele>2305.354</ele>
        <time>2018-08-10T00:44:35Z</time>
      </trkpt>
      <trkpt lat="46.30976" lon="10.47391">
        <ele>2305.749</ele>
        <time>2018-08-10T00:44:55Z</time>
      </trkpt>
      <trkpt lat="46.30998" lon="10.4738">
        <ele>2307.37</ele>
        <time>2018-08-10T00:45:15Z</time>
      </trkpt>
      <trkpt lat="46.31006" lon="10.47375">
        <ele>2307.057</ele>
        <time>2018-08-10T00:45:35Z</time>
      </trkpt>
      <trkpt lat="46.31007" lon="10.47375">
        <ele>2307.03</ele>
        <time>2018-08-10T00:45:55Z</time>
      </trkpt>
      <trkpt lat="46.31016" lon="10.47355">
        <ele>2308.552</ele>
        <time>2018-08-10T00:46:15Z</time>
      </trkpt>
      <trkpt lat="46.31018" lon="10.47352">
        <ele>2308.753</ele>
        <time>2018-08-10T00:46:35Z</time>
      </trkpt>
      <trkpt lat="46.3103" lon="10.47327">
        <ele>2310.308</ele>
        <time>2018-08-10T00:46:55Z</time>
      </trkpt>
      <trkpt lat="46.31036" lon="10.47326">
        <ele>2308.808</ele>
        <time>2018-08-10T00:47:15Z</time>
      </trkpt>
      <trkpt lat="46.31054" lon="10.47321">
        <ele>2304.197</ele>
        <time>2018-08-10T00:47:35Z</time>
      </trkpt>
      <trkpt lat="46.31055" lon="10.4732">
        <ele>2304.012</ele>
        <time>2018-08-10T00:47:55Z</time>
      </trkpt>
      <trkpt lat="46.31057" lon="10.47318">
        <ele>2304.118</ele>
        <time>2018-08-10T00:48:15Z</time>
      </trkpt>
      <trkpt lat="46.31058" lon="10.47316">
        <ele>2304.312</ele>
        <time>2018-08-10T00:48:35Z</time>
      </trkpt>
      <trkpt lat="46.3106" lon="10.47313">
        <ele>2304.457</ele>
        <time>2018-08-10T00:48:55Z</time>
      </trkpt>
      <trkpt lat="46.31061" lon="10.47311">
        <ele>2304.628</ele>
        <time>2018-08-10T00:49:15Z</time>
      </trkpt>
      <trkpt lat="46.31063" lon="10.47309">
        <ele>2304.635</ele>
        <time>2018-08-10T00:49:35Z</time>
      </trkpt>
      <trkpt lat="46.31065" lon="10.47307">
        <ele>2304.878</ele>
        <time>2018-08-10T00:49:55Z</time>
      </trkpt>
      <trkpt lat="46.31066" lon="10.47305">
        <ele>2304.927</ele>
        <time>2018-08-10T00:50:15Z</time>
      </trkpt>
      <trkpt lat="46.31066" lon="10.47302">
        <ele>2305.368</ele>
        <time>2018-08-10T00:50:35Z</time>
      </trkpt>
      <trkpt lat="46.31067" lon="10.47299">
        <ele>2305.414</ele>
        <time>2018-08-10T00:50:55Z</time>
      </trkpt>
      <trkpt lat="46.31068" lon="10.47297">
        <ele>2305.608</ele>
        <time>2018-08-10T00:51:15Z</time>
      </trkpt>
      <trkpt lat="46.3107" lon="10.47294">
        <ele>2305.784</ele>
        <time>2018-08-10T00:51:35Z</time>
      </trkpt>
      <trkpt lat="46.31072" lon="10.47292">
        <ele>2305.679</ele>
        <time>2018-08-10T00:51:55Z</time>
      </trkpt>
      <trkpt lat="46.31074" lon="10.47291">
        <ele>2305.345</ele>
        <time>2018-08-10T00:52:15Z</time>
      </trkpt>
      <trkpt lat="46.31077" lon="10.47292">
        <ele>2304.939</ele>
        <time>2018-08-10T00:52:35Z</time>
      </trkpt>
      <trkpt lat="46.31078" lon="10.47292">
        <ele>2304.744</ele>
        <time>2018-08-10T00:52:55Z</time>
      </trkpt>
      <trkpt lat="46.31081" lon="10.47293">
        <ele>2304.255</ele>
        <time>2018-08-10T00:53:15Z</time>
      </trkpt>
      <trkpt lat="46.31082" lon="10.47295">
        <ele>2303.942</ele>
        <time>2018-08-10T00:53:35Z</time>
      </trkpt>
      <trkpt lat="46.31083" lon="10.47297">
        <ele>2303.665</ele>
        <time>2018-08-10T00:53:55Z</time>
      </trkpt>
      <trkpt lat="46.31085" lon="10.473">
        <ele>2303.193</ele>
        <time>2018-08-10T00:54:15Z</time>
      </trkpt>
      <trkpt lat="46.31087" lon="10.47303">
        <ele>2302.765</ele>
        <time>2018-08-10T00:54:35Z</time>
      </trkpt>
      <trkpt lat="46.31088" lon="10.47306">
        <ele>2302.321</ele>
        <time>2018-08-10T00:54:55Z</time>
      </trkpt>
      <trkpt lat="46.31089" lon="10.47308">
        <ele>2301.908</ele>
        <time>2018-08-10T00:55:15Z</time>
      </trkpt>
      <trkpt lat="46.31091" lon="10.4731">
        <ele>2301.381</ele>
        <time>2018-08-10T00:55:35Z</time>
      </trkpt>
      <trkpt lat="46.31093" lon="10.47312">
        <ele>2300.856</ele>
        <time>2018-08-10T00:55:55Z</time>
      </trkpt>
      <trkpt lat="46.31094" lon="10.47314">
        <ele>2300.342</ele>
        <time>2018-08-10T00:56:15Z</time>
      </trkpt>
      <trkpt lat="46.31095" lon="10.47316">
        <ele>2299.896</ele>
        <time>2018-08-10T00:56:35Z</time>
      </trkpt>
      <trkpt lat="46.31096" lon="10.47319">
        <ele>2299.371</ele>
        <time>2018-08-10T00:56:55Z</time>
      </trkpt>
      <trkpt lat="46.31098" lon="10.47321">
        <ele>2298.622</ele>
        <time>2018-08-10T00:57:15Z</time>
      </trkpt>
      <trkpt lat="46.31099" lon="10.47323">
        <ele>2298.189</ele>
        <time>2018-08-10T00:57:35Z</time>
      </trkpt>
      <trkpt lat="46.31099" lon="10.47324">
        <ele>2298.182</ele>
        <time>2018-08-10T00:57:55Z</time>
      </trkpt>
      <trkpt lat="46.31102" lon="10.47331">
        <ele>2296.328</ele>
        <time>2018-08-10T00:58:15Z</time>
      </trkpt>
      <trkpt lat="46.31111" lon="10.47344">
        <ele>2291.889</ele>
        <time>2018-08-10T00:58:35Z</time>
      </trkpt>
      <trkpt lat="46.31114" lon="10.47346">
        <ele>2290.517</ele>
        <time>2018-08-10T00:58:55Z</time>
      </trkpt>
      <trkpt lat="46.3113" lon="10.47363">
        <ele>2283.608</ele>
        <time>2018-08-10T00:59:15Z</time>
      </trkpt>
      <trkpt lat="46.31133" lon="10.47363">
        <ele>2283.184</ele>
        <time>2018-08-10T00:59:35Z</time>
      </trkpt>
      <trkpt lat="46.3115" lon="10.47363">
        <ele>2281.459</ele>
        <time>2018-08-10T00:59:55Z</time>
      </trkpt>
      <trkpt lat="46.31162" lon="10.47363">
        <ele>2281.075</ele>
        <time>2018-08-10T01:00:15Z</time>
      </trkpt>
      <trkpt lat="46.31175" lon="10.47354">
        <ele>2280.469</ele>
        <time>2018-08-10T01:00:35Z</time>
      </trkpt>
      <trkpt lat="46.31183" lon="10.47337">
        <ele>2280.524</ele>
        <time>2018-08-10T01:00:55Z</time>
      </trkpt>
      <trkpt lat="46.31191" lon="10.47323">
        <ele>2280.645</ele>
        <time>2018-08-10T01:01:15Z</time>
      </trkpt>
      <trkpt lat="46.31192" lon="10.47323">
        <ele>2280.662</ele>
        <time>2018-08-10T01:01:35Z</time>
      </trkpt>
      <trkpt lat="46.31194" lon="10.47321">
        <ele>2280.525</ele>
        <time>2018-08-10T01:01:55Z</time>
      </trkpt>
      <trkpt lat="46.31195" lon="10.4732">
        <ele>2280.128</ele>
        <time>2018-08-10T01:02:15Z</time>
      </trkpt>
      <trkpt lat="46.31197" lon="10.47317">
        <ele>2279.589</ele>
        <time>2018-08-10T01:02:35Z</time>
      </trkpt>
      <trkpt lat="46.31199" lon="10.47316">
        <ele>2279.017</ele>
        <time>2018-08-10T01:02:55Z</time>
      </trkpt>
      <trkpt lat="46.312" lon="10.47314">
        <ele>2278.608</ele>
        <time>2018-08-10T01:03:15Z</time>
      </trkpt>
      <trkpt lat="46.31202" lon="10.47312">
        <ele>2278.144</ele>
        <time>2018-08-10T01:03:35Z</time>
      </trkpt>
      <trkpt lat="46.31207" lon="10.47312">
        <ele>2275.959</ele>
        <time>2018-08-10T01:03:55Z</time>
      </trkpt>
      <trkpt lat="46.31211" lon="10.47313">
        <ele>2274.795</ele>
        <time>2018-08-10T01:04:15Z</time>
      </trkpt>
      <trkpt lat="46.31228" lon="10.47329">
        <ele>2268.139</ele>
        <time>2018-08-10T01:04:35Z</time>
      </trkpt>
      <trkpt lat="46.31228" lon="10.47335">
        <ele>2267.624</ele>
        <time>2018-08-10T01:04:55Z</time>
      </trkpt>
      <trkpt lat="46.31228" lon="10.47352">
        <ele>2265.885</ele>
        <time>2018-08-10T01:05:15Z</time>
      </trkpt>
      <trkpt lat="46.31227" lon="10.47384">
        <ele>2262.412</ele>
        <time>2018-08-10T01:05:35Z</time>
      </trkpt>
      <trkpt lat="46.31227" lon="10.47389">
        <ele>2261.935</ele>
        <time>2018-08-10T01:05:55Z</time>
      </trkpt>
      <trkpt lat="46.31228" lon="10.4739">
        <ele>2261.731</ele>
        <time>2018-08-10T01:06:15Z</time>
      </trkpt>
      <trkpt lat="46.31235" lon="10.4742">
        <ele>2256.961</ele>
        <time>2018-08-10T01:06:35Z</time>
      </trkpt>
      <trkpt lat="46.3124" lon="10.47434">
        <ele>2253.807</ele>
        <time>2018-08-10T01:06:55Z</time>
      </trkpt>
      <trkpt lat="46.31244" lon="10.47457">
        <ele>2249.508</ele>
        <time>2018-08-10T01:07:15Z</time>
      </trkpt>
      <trkpt lat="46.31234" lon="10.47485">
        <ele>2248.045</ele>
        <time>2018-08-10T01:07:35Z</time>
      </trkpt>
      <trkpt lat="46.31222" lon="10.47498">
        <ele>2251.24</ele>
        <time>2018-08-10T01:07:55Z</time>
      </trkpt>
      <trkpt lat="46.31218" lon="10.47518">
        <ele>2245.596</ele>
        <time>2018-08-10T01:08:15Z</time>
      </trkpt>
      <trkpt lat="46.31212" lon="10.47532">
        <ele>2241.98</ele>
        <time>2018-08-10T01:08:35Z</time>
      </trkpt>
      <trkpt lat="46.31187" lon="10.47537">
        <ele>2242.895</ele>
        <time>2018-08-10T01:08:55Z</time>
      </trkpt>
      <trkpt lat="46.31176" lon="10.47545">
        <ele>2238.146</ele>
        <time>2018-08-10T01:09:15Z</time>
      </trkpt>
      <trkpt lat="46.31176" lon="10.47546">
        <ele>2237.993</ele>
        <time>2018-08-10T01:09:35Z</time>
      </trkpt>
      <trkpt lat="46.31165" lon="10.47553">
        <ele>2233.926</ele>
        <time>2018-08-10T01:09:55Z</time>
      </trkpt>
      <trkpt lat="46.31151" lon="10.47559">
        <ele>2229.922</ele>
        <time>2018-08-10T01:10:15Z</time>
      </trkpt>
      <trkpt lat="46.31137" lon="10.4757">
        <ele>2224.162</ele>
        <time>2018-08-10T01:10:35Z</time>
      </trkpt>
      <trkpt lat="46.31126" lon="10.47578">
        <ele>2219.808</ele>
        <time>2018-08-10T01:10:55Z</time>
      </trkpt>
      <trkpt lat="46.31119" lon="10.47583">
        <ele>2216.808</ele>
        <time>2018-08-10T01:11:15Z</time>
      </trkpt>
      <trkpt lat="46.31112" lon="10.47589">
        <ele>2213.964</ele>
        <time>2018-08-10T01:11:35Z</time>
      </trkpt>
      <trkpt lat="46.31096" lon="10.47603">
        <ele>2207.239</ele>
        <time>2018-08-10T01:11:55Z</time>
      </trkpt>
      <trkpt lat="46.31081" lon="10.47608">
        <ele>2203.725</ele>
        <time>2018-08-10T01:12:15Z</time>
      </trkpt>
      <trkpt lat="46.31069" lon="10.47615">
        <ele>2199.269</ele>
        <time>2018-08-10T01:12:35Z</time>
      </trkpt>
      <trkpt lat="46.31068" lon="10.47616">
        <ele>2198.584</ele>
        <time>2018-08-10T01:12:55Z</time>
      </trkpt>
      <trkpt lat="46.31059" lon="10.47632">
        <ele>2189.475</ele>
        <time>2018-08-10T01:13:15Z</time>
      </trkpt>
      <trkpt lat="46.31042" lon="10.47654">
        <ele>2173.912</ele>
        <time>2018-08-10T01:13:35Z</time>
      </trkpt>
      <trkpt lat="46.31034" lon="10.47665">
        <ele>2166.895</ele>
        <time>2018-08-10T01:13:55Z</time>
      </trkpt>
      <trkpt lat="46.31025" lon="10.4767">
        <ele>2163.664</ele>
        <time>2018-08-10T01:14:15Z</time>
      </trkpt>
      <trkpt lat="46.31015" lon="10.4767">
        <ele>2165.506</ele>
        <time>2018-08-10T01:14:35Z</time>
      </trkpt>
      <trkpt lat="46.30996" lon="10.47669">
        <ele>2170.216</ele>
        <time>2018-08-10T01:14:55Z</time>
      </trkpt>
      <trkpt lat="46.30993" lon="10.47682">
        <ele>2165.208</ele>
        <time>2018-08-10T01:15:15Z</time>
      </trkpt>
      <trkpt lat="46.3099" lon="10.47694">
        <ele>2160.578</ele>
        <time>2018-08-10T01:15:35Z</time>
      </trkpt>
      <trkpt lat="46.30987" lon="10.4771">
        <ele>2155.163</ele>
        <time>2018-08-10T01:15:55Z</time>
      </trkpt>
      <trkpt lat="46.30984" lon="10.47728">
        <ele>2149.239</ele>
        <time>2018-08-10T01:16:15Z</time>
      </trkpt>
      <trkpt lat="46.3098" lon="10.47737">
        <ele>2147.593</ele>
        <time>2018-08-10T01:16:35Z</time>
      </trkpt>
      <trkpt lat="46.30975" lon="10.47742">
        <ele>2147.188</ele>
        <time>2018-08-10T01:16:55Z</time>
      </trkpt>
      <trkpt lat="46.30975" lon="10.47761">
        <ele>2141.169</ele>
        <time>2018-08-10T01:17:15Z</time>
      </trkpt>
      <trkpt lat="46.30975" lon="10.47766">
        <ele>2139.946</ele>
        <time>2018-08-10T01:17:35Z</time>
      </trkpt>
      <trkpt lat="46.30975" lon="10.47778">
        <ele>2136.349</ele>
        <time>2018-08-10T01:17:55Z</time>
      </trkpt>
      <trkpt lat="46.30985" lon="10.47801">
        <ele>2128.463</ele>
        <time>2018-08-10T01:18:15Z</time>
      </trkpt>
      <trkpt lat="46.30986" lon="10.47818">
        <ele>2122.744</ele>
        <time>2018-08-10T01:18:35Z</time>
      </trkpt>
      <trkpt lat="46.30984" lon="10.47829">
        <ele>2119.418</ele>
        <time>2018-08-10T01:18:55Z</time>
      </trkpt>
      <trkpt lat="46.30984" lon="10.47829">
        <ele>2119.308</ele>
        <time>2018-08-10T01:19:15Z</time>
      </trkpt>
      <trkpt lat="46.30966" lon="10.47845">
        <ele>2116.038</ele>
        <time>2018-08-10T01:19:35Z</time>
      </trkpt>
      <trkpt lat="46.30964" lon="10.47868">
        <ele>2108.123</ele>
        <time>2018-08-10T01:19:55Z</time>
      </trkpt>
      <trkpt lat="46.3096" lon="10.4789">
        <ele>2100.549</ele>
        <time>2018-08-10T01:20:15Z</time>
      </trkpt>
      <trkpt lat="46.30954" lon="10.47907">
        <ele>2096.393</ele>
        <time>2018-08-10T01:20:35Z</time>
      </trkpt>
      <trkpt lat="46.30957" lon="10.47918">
        <ele>2093.038</ele>
        <time>2018-08-10T01:20:55Z</time>
      </trkpt>
      <trkpt lat="46.30955" lon="10.47928">
        <ele>2090.689</ele>
        <time>2018-08-10T01:21:15Z</time>
      </trkpt>
      <trkpt lat="46.30954" lon="10.47931">
        <ele>2089.676</ele>
        <time>2018-08-10T01:21:35Z</time>
      </trkpt>
      <trkpt lat="46.30952" lon="10.47934">
        <ele>2088.859</ele>
        <time>2018-08-10T01:21:55Z</time>
      </trkpt>
      <trkpt lat="46.3094" lon="10.47949">
        <ele>2085.176</ele>
        <time>2018-08-10T01:22:15Z</time>
      </trkpt>
      <trkpt lat="46.30928" lon="10.4796">
        <ele>2082.89</ele>
        <time>2018-08-10T01:22:35Z</time>
      </trkpt>
      <trkpt lat="46.30916" lon="10.47968">
        <ele>2081.119</ele>
        <time>2018-08-10T01:22:55Z</time>
      </trkpt>
      <trkpt lat="46.30906" lon="10.4797">
        <ele>2080.908</ele>
        <time>2018-08-10T01:23:15Z</time>
      </trkpt>
      <trkpt lat="46.30895" lon="10.47981">
        <ele>2078.279</ele>
        <time>2018-08-10T01:23:35Z</time>
      </trkpt>
      <trkpt lat="46.30895" lon="10.47984">
        <ele>2077.434</ele>
        <time>2018-08-10T01:23:55Z</time>
      </trkpt>
      <trkpt lat="46.3089" lon="10.47982">
        <ele>2078.27</ele>
        <time>2018-08-10T01:24:15Z</time>
      </trkpt>
      <trkpt lat="46.30888" lon="10.47987">
        <ele>2076.754</ele>
        <time>2018-08-10T01:24:35Z</time>
      </trkpt>
      <trkpt lat="46.30889" lon="10.4799">
        <ele>2075.979</ele>
        <time>2018-08-10T01:24:55Z</time>
      </trkpt>
      <trkpt lat="46.3089" lon="10.47992">
        <ele>2075.29</ele>
        <time>2018-08-10T01:25:15Z</time>
      </trkpt>
      <trkpt lat="46.3089" lon="10.47995">
        <ele>2074.337</ele>
        <time>2018-08-10T01:25:35Z</time>
      </trkpt>
      <trkpt lat="46.3089" lon="10.47998">
        <ele>2073.45</ele>
        <time>2018-08-10T01:25:55Z</time>
      </trkpt>
      <trkpt lat="46.3089" lon="10.47999">
        <ele>2073.332</ele>
        <time>2018-08-10T01:26:15Z</time>
      </trkpt>
      <trkpt lat="46.30889" lon="10.48001">
        <ele>2072.592</ele>
        <time>2018-08-10T01:26:35Z</time>
      </trkpt>
      <trkpt lat="46.3089" lon="10.48004">
        <ele>2071.611</ele>
        <time>2018-08-10T01:26:55Z</time>
      </trkpt>
      <trkpt lat="46.30892" lon="10.48006">
        <ele>2070.708</ele>
        <time>2018-08-10T01:27:15Z</time>
      </trkpt>
      <trkpt lat="46.30894" lon="10.48008">
        <ele>2069.825</ele>
        <time>2018-08-10T01:27:35Z</time>
      </trkpt>
      <trkpt lat="46.30896" lon="10.48011">
        <ele>2068.99</ele>
        <time>2018-08-10T01:27:55Z</time>
      </trkpt>
      <trkpt lat="46.30897" lon="10.48014">
        <ele>2068.016</ele>
        <time>2018-08-10T01:28:15Z</time>
      </trkpt>
      <trkpt lat="46.30898" lon="10.48017">
        <ele>2066.95</ele>
        <time>2018-08-10T01:28:35Z</time>
      </trkpt>
      <trkpt lat="46.309" lon="10.48019">
        <ele>2066.135</ele>
        <time>2018-08-10T01:28:55Z</time>
      </trkpt>
      <trkpt lat="46.30902" lon="10.48022">
        <ele>2065.326</ele>
        <time>2018-08-10T01:29:15Z</time>
      </trkpt>
      <trkpt lat="46.30904" lon="10.48024">
        <ele>2064.693</ele>
        <time>2018-08-10T01:29:35Z</time>
      </trkpt>
      <trkpt lat="46.30905" lon="10.48027">
        <ele>2063.976</ele>
        <time>2018-08-10T01:29:55Z</time>
      </trkpt>
      <trkpt lat="46.30906" lon="10.48029">
        <ele>2063.191</ele>
        <time>2018-08-10T01:30:15Z</time>
      </trkpt>
      <trkpt lat="46.30906" lon="10.4803">
        <ele>2062.981</ele>
        <time>2018-08-10T01:30:35Z</time>
      </trkpt>
      <trkpt lat="46.30915" lon="10.48054">
        <ele>2055.519</ele>
        <time>2018-08-10T01:30:55Z</time>
      </trkpt>
      <trkpt lat="46.30917" lon="10.48058">
        <ele>2054.408</ele>
        <time>2018-08-10T01:31:15Z</time>
      </trkpt>
      <trkpt lat="46.30913" lon="10.48056">
        <ele>2054.591</ele>
        <time>2018-08-10T01:31:35Z</time>
      </trkpt>
      <trkpt lat="46.30899" lon="10.48052">
        <ele>2055.136</ele>
        <time>2018-08-10T01:31:55Z</time>
      </trkpt>
      <trkpt lat="46.30882" lon="10.48057">
        <ele>2051.152</ele>
        <time>2018-08-10T01:32:15Z</time>
      </trkpt>
      <trkpt lat="46.30866" lon="10.48076">
        <ele>2042.846</ele>
        <time>2018-08-10T01:32:35Z</time>
      </trkpt>
      <trkpt lat="46.30865" lon="10.48085">
        <ele>2040.251</ele>
        <time>2018-08-10T01:32:55Z</time>
      </trkpt>
      <trkpt lat="46.30865" lon="10.48089">
        <ele>2039.172</ele>
        <time>2018-08-10T01:33:15Z</time>
      </trkpt>
      <trkpt lat="46.30864" lon="10.48098">
        <ele>2036.219</ele>
        <time>2018-08-10T01:33:35Z</time>
      </trkpt>
      <trkpt lat="46.30863" lon="10.48105">
        <ele>2034.182</ele>
        <time>2018-08-10T01:33:55Z</time>
      </trkpt>
      <trkpt lat="46.30858" lon="10.48129">
        <ele>2025.076</ele>
        <time>2018-08-10T01:34:15Z</time>
      </trkpt>
      <trkpt lat="46.30852" lon="10.4814">
        <ele>2018.79</ele>
        <time>2018-08-10T01:34:35Z</time>
      </trkpt>
      <trkpt lat="46.30851" lon="10.48163">
        <ele>2011.619</ele>
        <time>2018-08-10T01:34:55Z</time>
      </trkpt>
      <trkpt lat="46.30851" lon="10.48182">
        <ele>2005.408</ele>
        <time>2018-08-10T01:35:15Z</time>
      </trkpt>
      <trkpt lat="46.30843" lon="10.48202">
        <ele>1995.749</ele>
        <time>2018-08-10T01:35:35Z</time>
      </trkpt>
      <trkpt lat="46.30841" lon="10.48201">
        <ele>1995.444</ele>
        <time>2018-08-10T01:35:55Z</time>
      </trkpt>
      <trkpt lat="46.30822" lon="10.48188">
        <ele>1991.93</ele>
        <time>2018-08-10T01:36:15Z</time>
      </trkpt>
      <trkpt lat="46.30821" lon="10.48185">
        <ele>1992.264</ele>
        <time>2018-08-10T01:36:35Z</time>
      </trkpt>
      <trkpt lat="46.30821" lon="10.48183">
        <ele>1993.089</ele>
        <time>2018-08-10T01:36:55Z</time>
      </trkpt>
      <trkpt lat="46.3082" lon="10.4818">
        <ele>1993.42</ele>
        <time>2018-08-10T01:37:15Z</time>
      </trkpt>
      <trkpt lat="46.30818" lon="10.48178">
        <ele>1993.387</ele>
        <time>2018-08-10T01:37:35Z</time>
      </trkpt>
      <trkpt lat="46.30817" lon="10.48175">
        <ele>1993.62</ele>
        <time>2018-08-10T01:37:55Z</time>
      </trkpt>
      <trkpt lat="46.30816" lon="10.48173">
        <ele>1993.641</ele>
        <time>2018-08-10T01:38:15Z</time>
      </trkpt>
      <trkpt lat="46.30814" lon="10.48171">
        <ele>1993.181</ele>
        <time>2018-08-10T01:38:35Z</time>
      </trkpt>
      <trkpt lat="46.30811" lon="10.4817">
        <ele>1992.409</ele>
        <time>2018-08-10T01:38:55Z</time>
      </trkpt>
      <trkpt lat="46.30809" lon="10.48169">
        <ele>1991.708</ele>
        <time>2018-08-10T01:39:15Z</time>
      </trkpt>
      <trkpt lat="46.30806" lon="10.48168">
        <ele>1990.926</ele>
        <time>2018-08-10T01:39:35Z</time>
      </trkpt>
      <trkpt lat="46.30804" lon="10.48168">
        <ele>1990.021</ele>
        <time>2018-08-10T01:39:55Z</time>
      </trkpt>
      <trkpt lat="46.30801" lon="10.48167">
        <ele>1989.177</ele>
        <time>2018-08-10T01:40:15Z</time>
      </trkpt>
      <trkpt lat="46.30799" lon="10.48166">
        <ele>1988.341</ele>
        <time>2018-08-10T01:40:35Z</time>
      </trkpt>
      <trkpt lat="46.30797" lon="10.48166">
        <ele>1987.626</ele>
        <time>2018-08-10T01:40:55Z</time>
      </trkpt>
      <trkpt lat="46.30795" lon="10.48164">
        <ele>1987.657</ele>
        <time>2018-08-10T01:41:15Z</time>
      </trkpt>
      <trkpt lat="46.30795" lon="10.48161">
        <ele>1988.044</ele>
        <time>2018-08-10T01:41:35Z</time>
      </trkpt>
      <trkpt lat="46.30794" lon="10.48158">
        <ele>1988.347</ele>
        <time>2018-08-10T01:41:55Z</time>
      </trkpt>
      <trkpt lat="46.30792" lon="10.48157">
        <ele>1988.135</ele>
        <time>2018-08-10T01:42:15Z</time>
      </trkpt>
      <trkpt lat="46.30791" lon="10.48153">
        <ele>1988.586</ele>
        <time>2018-08-10T01:42:35Z</time>
      </trkpt>
      <trkpt lat="46.3079" lon="10.48151">
        <ele>1989.014</ele>
        <time>2018-08-10T01:42:55Z</time>
      </trkpt>
      <trkpt lat="46.30789" lon="10.48149">
        <ele>1989.108</ele>
        <time>2018-08-10T01:43:15Z</time>
      </trkpt>
      <trkpt lat="46.30787" lon="10.48148">
        <ele>1988.915</ele>
        <time>2018-08-10T01:43:35Z</time>
      </trkpt>
      <trkpt lat="46.30785" lon="10.48146">
        <ele>1988.85</ele>
        <time>2018-08-10T01:43:55Z</time>
      </trkpt>
      <trkpt lat="46.30784" lon="10.48145">
        <ele>1988.736</ele>
        <time>2018-08-10T01:44:15Z</time>
      </trkpt>
      <trkpt lat="46.30782" lon="10.48143">
        <ele>1988.74</ele>
        <time>2018-08-10T01:44:35Z</time>
      </trkpt>
      <trkpt lat="46.3078" lon="10.48141">
        <ele>1988.875</ele>
        <time>2018-08-10T01:44:55Z</time>
      </trkpt>
      <trkpt lat="46.30779" lon="10.48138">
        <ele>1989.496</ele>
        <time>2018-08-10T01:45:15Z</time>
      </trkpt>
      <trkpt lat="46.30777" lon="10.48136">
        <ele>1989.683</ele>
        <time>2018-08-10T01:45:35Z</time>
      </trkpt>
      <trkpt lat="46.30775" lon="10.48136">
        <ele>1989.196</ele>
        <time>2018-08-10T01:45:55Z</time>
      </trkpt>
      <trkpt lat="46.30772" lon="10.48136">
        <ele>1988.629</ele>
        <time>2018-08-10T01:46:15Z</time>
      </trkpt>
      <trkpt lat="46.30771" lon="10.48137">
        <ele>1987.9</ele>
        <time>2018-08-10T01:46:35Z</time>
      </trkpt>
      <trkpt lat="46.30769" lon="10.48138">
        <ele>1987.22</ele>
        <time>2018-08-10T01:46:55Z</time>
      </trkpt>
      <trkpt lat="46.30767" lon="10.48139">
        <ele>1986.708</ele>
        <time>2018-08-10T01:47:15Z</time>
      </trkpt>
      <trkpt lat="46.30765" lon="10.48138">
        <ele>1986.424</ele>
        <time>2018-08-10T01:47:35Z</time>
      </trkpt>
      <trkpt lat="46.30763" lon="10.48139">
        <ele>1985.839</ele>
        <time>2018-08-10T01:47:55Z</time>
      </trkpt>
      <trkpt lat="46.30761" lon="10.48138">
        <ele>1985.455</ele>
        <time>2018-08-10T01:48:15Z</time>
      </trkpt>
      <trkpt lat="46.30759" lon="10.48138">
        <ele>1984.989</ele>
        <time>2018-08-10T01:48:35Z</time>
      </trkpt>
      <trkpt lat="46.30757" lon="10.48137">
        <ele>1985.054</ele>
        <time>2018-08-10T01:48:55Z</time>
      </trkpt>
      <trkpt lat="46.30755" lon="10.48135">
        <ele>1985.195</ele>
        <time>2018-08-10T01:49:15Z</time>
      </trkpt>
      <trkpt lat="46.30753" lon="10.48136">
        <ele>1984.492</ele>
        <time>2018-08-10T01:49:35Z</time>
      </trkpt>
      <trkpt lat="46.30752" lon="10.48139">
        <ele>1983.485</ele>
        <time>2018-08-10T01:49:55Z</time>
      </trkpt>
      <trkpt lat="46.3075" lon="10.48138">
        <ele>1983.165</ele>
        <time>2018-08-10T01:50:15Z</time>
      </trkpt>
      <trkpt lat="46.30748" lon="10.48137">
        <ele>1982.968</ele>
        <time>2018-08-10T01:50:35Z</time>
      </trkpt>
      <trkpt lat="46.30746" lon="10.48137">
        <ele>1982.714</ele>
        <time>2018-08-10T01:50:55Z</time>
      </trkpt>
      <trkpt lat="46.30745" lon="10.48137">
        <ele>1982.508</ele>
        <time>2018-08-10T01:51:15Z</time>
      </trkpt>
      <trkpt lat="46.30744" lon="10.48137">
        <ele>1982.178</ele>
        <time>2018-08-10T01:51:35Z</time>
      </trkpt>
      <trkpt lat="46.30742" lon="10.48139">
        <ele>1981.343</ele>
        <time>2018-08-10T01:51:55Z</time>
      </trkpt>
      <trkpt lat="46.30741" lon="10.4814">
        <ele>1980.579</ele>
        <time>2018-08-10T01:52:15Z</time>
      </trkpt>
      <trkpt lat="46.30739" lon="10.48143">
        <ele>1979.563</ele>
        <time>2018-08-10T01:52:35Z</time>
      </trkpt>
      <trkpt lat="46.30738" lon="10.48144">
        <ele>1978.838</ele>
        <time>2018-08-10T01:52:55Z</time>
      </trkpt>
      <trkpt lat="46.30736" lon="10.48145">
        <ele>1978.119</ele>
        <time>2018-08-10T01:53:15Z</time>
      </trkpt>
      <trkpt lat="46.30736" lon="10.48148">
        <ele>1977.216</ele>
        <time>2018-08-10T01:53:35Z</time>
      </trkpt>
      <trkpt lat="46.30737" lon="10.48151">
        <ele>1976.439</ele>
        <time>2018-08-10T01:53:55Z</time>
      </trkpt>
      <trkpt lat="46.30735" lon="10.48152">
        <ele>1975.684</ele>
        <time>2018-08-10T01:54:15Z</time>
      </trkpt>
      <trkpt lat="46.30733" lon="10.48153">
        <ele>1974.907</ele>
        <time>2018-08-10T01:54:35Z</time>
      </trkpt>
      <trkpt lat="46.30732" lon="10.48155">
        <ele>1973.917</ele>
        <time>2018-08-10T01:54:55Z</time>
      </trkpt>
      <trkpt lat="46.30731" lon="10.48158">
        <ele>1972.908</ele>
        <time>2018-08-10T01:55:15Z</time>
      </trkpt>
      <trkpt lat="46.30729" lon="10.4816">
        <ele>1972.07</ele>
        <time>2018-08-10T01:55:35Z</time>
      </trkpt>
      <trkpt lat="46.30727" lon="10.4816">
        <ele>1971.435</ele>
        <time>2018-08-10T01:55:55Z</time>
      </trkpt>
      <trkpt lat="46.30726" lon="10.48162">
        <ele>1970.481</ele>
        <time>2018-08-10T01:56:15Z</time>
      </trkpt>
      <trkpt lat="46.30725" lon="10.48165">
        <ele>1969.315</ele>
        <time>2018-08-10T01:56:35Z</time>
      </trkpt>
      <trkpt lat="46.30723" lon="10.48166">
        <ele>1968.39</ele>
        <time>2018-08-10T01:56:55Z</time>
      </trkpt>
      <trkpt lat="46.30722" lon="10.48167">
        <ele>1967.511</ele>
        <time>2018-08-10T01:57:15Z</time>
      </trkpt>
      <trkpt lat="46.3072" lon="10.48169">
        <ele>1966.598</ele>
        <time>2018-08-10T01:57:35Z</time>
      </trkpt>
      <trkpt lat="46.30718" lon="10.4817">
        <ele>1965.581</ele>
        <time>2018-08-10T01:57:55Z</time>
      </trkpt>
      <trkpt lat="46.30716" lon="10.48172">
        <ele>1964.627</ele>
        <time>2018-08-10T01:58:15Z</time>
      </trkpt>
      <trkpt lat="46.30714" lon="10.48173">
        <ele>1963.868</ele>
        <time>2018-08-10T01:58:35Z</time>
      </trkpt>
      <trkpt lat="46.30712" lon="10.48173">
        <ele>1962.914</ele>
        <time>2018-08-10T01:58:55Z</time>
      </trkpt>
      <trkpt lat="46.3071" lon="10.48174">
        <ele>1962.008</ele>
        <time>2018-08-10T01:59:15Z</time>
      </trkpt>
      <trkpt lat="46.30708" lon="10.48176">
        <ele>1961.134</ele>
        <time>2018-08-10T01:59:35Z</time>
      </trkpt>
      <trkpt lat="46.30706" lon="10.48178">
        <ele>1960.129</ele>
        <time>2018-08-10T01:59:55Z</time>
      </trkpt>
      <trkpt lat="46.30704" lon="10.48179">
        <ele>1959.175</ele>
        <time>2018-08-10T02:00:15Z</time>
      </trkpt>
      <trkpt lat="46.30703" lon="10.48181">
        <ele>1958.269</ele>
        <time>2018-08-10T02:00:35Z</time>
      </trkpt>
      <trkpt lat="46.30703" lon="10.48184">
        <ele>1957.344</ele>
        <time>2018-08-10T02:00:55Z</time>
      </trkpt>
      <trkpt lat="46.30701" lon="10.48186">
        <ele>1956.335</ele>
        <time>2018-08-10T02:01:15Z</time>
      </trkpt>
      <trkpt lat="46.30701" lon="10.48188">
        <ele>1955.572</ele>
        <time>2018-08-10T02:01:35Z</time>
      </trkpt>
      <trkpt lat="46.307" lon="10.4819">
        <ele>1954.635</ele>
        <time>2018-08-10T02:01:55Z</time>
      </trkpt>
      <trkpt lat="46.307" lon="10.48193">
        <ele>1953.786</ele>
        <time>2018-08-10T02:02:15Z</time>
      </trkpt>
      <trkpt lat="46.307" lon="10.48196">
        <ele>1953.06</ele>
        <time>2018-08-10T02:02:35Z</time>
      </trkpt>
      <trkpt lat="46.30699" lon="10.48199">
        <ele>1952.026</ele>
        <time>2018-08-10T02:02:55Z</time>
      </trkpt>
      <trkpt lat="46.30697" lon="10.48201">
        <ele>1950.908</ele>
        <time>2018-08-10T02:03:15Z</time>
      </trkpt>
      <trkpt lat="46.30696" lon="10.48203">
        <ele>1950.16</ele>
        <time>2018-08-10T02:03:35Z</time>
      </trkpt>
      <trkpt lat="46.30694" lon="10.48204">
        <ele>1949.435</ele>
        <time>2018-08-10T02:03:55Z</time>
      </trkpt>
      <trkpt lat="46.30692" lon="10.48205">
        <ele>1948.951</ele>
        <time>2018-08-10T02:04:15Z</time>
      </trkpt>
      <trkpt lat="46.30692" lon="10.48208">
        <ele>1948.185</ele>
        <time>2018-08-10T02:04:35Z</time>
      </trkpt>
      <trkpt lat="46.30692" lon="10.4821">
        <ele>1947.52</ele>
        <time>2018-08-10T02:04:55Z</time>
      </trkpt>
      <trkpt lat="46.30692" lon="10.48213">
        <ele>1946.781</ele>
        <time>2018-08-10T02:05:15Z</time>
      </trkpt>
      <trkpt lat="46.30691" lon="10.48216">
        <ele>1945.998</ele>
        <time>2018-08-10T02:05:35Z</time>
      </trkpt>
      <trkpt lat="46.30689" lon="10.48215">
        <ele>1945.731</ele>
        <time>2018-08-10T02:05:55Z</time>
      </trkpt>
      <trkpt lat="46.30687" lon="10.48215">
        <ele>1945.178</ele>
        <time>2018-08-10T02:06:15Z</time>
      </trkpt>
      <trkpt lat="46.30685" lon="10.48216">
        <ele>1944.433</ele>
        <time>2018-08-10T02:06:35Z</time>
      </trkpt>
      <trkpt lat="46.30685" lon="10.48219">
        <ele>1943.326</ele>
        <time>2018-08-10T02:06:55Z</time>
      </trkpt>
      <trkpt lat="46.30687" lon="10.48285">
        <ele>1924.108</ele>
        <time>2018-08-10T02:07:15Z</time>
      </trkpt>
      <trkpt lat="46.30688" lon="10.48288">
        <ele>1923.729</ele>
        <time>2018-08-10T02:07:35Z</time>
      </trkpt>
      <trkpt lat="46.30687" lon="10.4829">
        <ele>1922.654</ele>
        <time>2018-08-10T02:07:55Z</time>
      </trkpt>
      <trkpt lat="46.30685" lon="10.48291">
        <ele>1921.84</ele>
        <time>2018-08-10T02:08:15Z</time>
      </trkpt>
      <trkpt lat="46.30686" lon="10.48293">
        <ele>1921.224</ele>
        <time>2018-08-10T02:08:35Z</time>
      </trkpt>
      <trkpt lat="46.30685" lon="10.48296">
        <ele>1920.189</ele>
        <time>2018-08-10T02:08:55Z</time>
      </trkpt>
      <trkpt lat="46.30684" lon="10.48299">
        <ele>1919.17</ele>
        <time>2018-08-10T02:09:15Z</time>
      </trkpt>
      <trkpt lat="46.30682" lon="10.483">
        <ele>1918.117</ele>
        <time>2018-08-10T02:09:35Z</time>
      </trkpt>
      <trkpt lat="46.30681" lon="10.48303">
        <ele>1916.91</ele>
        <time>2018-08-10T02:09:55Z</time>
      </trkpt>
      <trkpt lat="46.3068" lon="10.48305">
        <ele>1915.912</ele>
        <time>2018-08-10T02:10:15Z</time>
      </trkpt>
      <trkpt lat="46.30679" lon="10.48307">
        <ele>1914.932</ele>
        <time>2018-08-10T02:10:35Z</time>
      </trkpt>
      <trkpt lat="46.30678" lon="10.4831">
        <ele>1914.105</ele>
        <time>2018-08-10T02:10:55Z</time>
      </trkpt>
      <trkpt lat="46.3068" lon="10.48315">
        <ele>1913.008</ele>
        <time>2018-08-10T02:11:15Z</time>
      </trkpt>
      <trkpt lat="46.3068" lon="10.48318">
        <ele>1912.353</ele>
        <time>2018-08-10T02:11:35Z</time>
      </trkpt>
      <trkpt lat="46.30681" lon="10.48321">
        <ele>1911.698</ele>
        <time>2018-08-10T02:11:55Z</time>
      </trkpt>
      <trkpt lat="46.3068" lon="10.48324">
        <ele>1910.674</ele>
        <time>2018-08-10T02:12:15Z</time>
      </trkpt>
      <trkpt lat="46.3068" lon="10.48327">
        <ele>1909.728</ele>
        <time>2018-08-10T02:12:35Z</time>
      </trkpt>
      <trkpt lat="46.30681" lon="10.48329">
        <ele>1909.373</ele>
        <time>2018-08-10T02:12:55Z</time>
      </trkpt>
      <trkpt lat="46.30682" lon="10.48331">
        <ele>1908.974</ele>
        <time>2018-08-10T02:13:15Z</time>
      </trkpt>
      <trkpt lat="46.30684" lon="10.48333">
        <ele>1908.781</ele>
        <time>2018-08-10T02:13:35Z</time>
      </trkpt>
      <trkpt lat="46.30686" lon="10.48335">
        <ele>1908.734</ele>
        <time>2018-08-10T02:13:55Z</time>
      </trkpt>
      <trkpt lat="46.30686" lon="10.48337">
        <ele>1908.023</ele>
        <time>2018-08-10T02:14:15Z</time>
      </trkpt>
      <trkpt lat="46.30688" lon="10.4834">
        <ele>1907.383</ele>
        <time>2018-08-10T02:14:35Z</time>
      </trkpt>
      <trkpt lat="46.30689" lon="10.48342">
        <ele>1907.011</ele>
        <time>2018-08-10T02:14:55Z</time>
      </trkpt>
      <trkpt lat="46.30691" lon="10.48344">
        <ele>1906.608</ele>
        <time>2018-08-10T02:15:15Z</time>
      </trkpt>
      <trkpt lat="46.30692" lon="10.48345">
        <ele>1906.514</ele>
        <time>2018-08-10T02:15:35Z</time>
      </trkpt>
      <trkpt lat="46.30692" lon="10.48348">
        <ele>1905.649</ele>
        <time>2018-08-10T02:15:55Z</time>
      </trkpt>
      <trkpt lat="46.30693" lon="10.48351">
        <ele>1904.895</ele>
        <time>2018-08-10T02:16:15Z</time>
      </trkpt>
      <trkpt lat="46.30694" lon="10.48354">
        <ele>1904.169</ele>
        <time>2018-08-10T02:16:35Z</time>
      </trkpt>
      <trkpt lat="46.30693" lon="10.48357">
        <ele>1903.224</ele>
        <time>2018-08-10T02:16:55Z</time>
      </trkpt>
      <trkpt lat="46.30693" lon="10.4836">
        <ele>1902.135</ele>
        <time>2018-08-10T02:17:15Z</time>
      </trkpt>
      <trkpt lat="46.30692" lon="10.48362">
        <ele>1901.092</ele>
        <time>2018-08-10T02:17:35Z</time>
      </trkpt>
      <trkpt lat="46.30693" lon="10.48365">
        <ele>1899.735</ele>
        <time>2018-08-10T02:17:55Z</time>
      </trkpt>
      <trkpt lat="46.30694" lon="10.48368">
        <ele>1898.899</ele>
        <time>2018-08-10T02:18:15Z</time>
      </trkpt>
      <trkpt lat="46.30695" lon="10.4837">
        <ele>1898.107</ele>
        <time>2018-08-10T02:18:35Z</time>
      </trkpt>
      <trkpt lat="46.30695" lon="10.48373">
        <ele>1896.827</ele>
        <time>2018-08-10T02:18:55Z</time>
      </trkpt>
      <trkpt lat="46.30695" lon="10.48376">
        <ele>1895.608</ele>
        <time>2018-08-10T02:19:15Z</time>
      </trkpt>
      <trkpt lat="46.30695" lon="10.48379">
        <ele>1894.281</ele>
        <time>2018-08-10T02:19:35Z</time>
      </trkpt>
      <trkpt lat="46.30694" lon="10.48382">
        <ele>1892.866</ele>
        <time>2018-08-10T02:19:55Z</time>
      </trkpt>
      <trkpt lat="46.30693" lon="10.48385">
        <ele>1891.692</ele>
        <time>2018-08-10T02:20:15Z</time>
      </trkpt>
      <trkpt lat="46.30694" lon="10.48387">
        <ele>1890.826</ele>
        <time>2018-08-10T02:20:35Z</time>
      </trkpt>
      <trkpt lat="46.30696" lon="10.48389">
        <ele>1889.811</ele>
        <time>2018-08-10T02:20:55Z</time>
      </trkpt>
      <trkpt lat="46.30697" lon="10.48392">
        <ele>1888.892</ele>
        <time>2018-08-10T02:21:15Z</time>
      </trkpt>
      <trkpt lat="46.30695" lon="10.48394">
        <ele>1888.159</ele>
        <time>2018-08-10T02:21:35Z</time>
      </trkpt>
      <trkpt lat="46.30694" lon="10.48397">
        <ele>1887.182</ele>
        <time>2018-08-10T02:21:55Z</time>
      </trkpt>
      <trkpt lat="46.30694" lon="10.484">
        <ele>1885.935</ele>
        <time>2018-08-10T02:22:15Z</time>
      </trkpt>
      <trkpt lat="46.30693" lon="10.48402">
        <ele>1884.986</ele>
        <time>2018-08-10T02:22:35Z</time>
      </trkpt>
      <trkpt lat="46.30692" lon="10.48404">
        <ele>1884.014</ele>
        <time>2018-08-10T02:22:55Z</time>
      </trkpt>
      <trkpt lat="46.30692" lon="10.48407">
        <ele>1882.808</ele>
        <time>2018-08-10T02:23:15Z</time>
      </trkpt>
      <trkpt lat="46.30691" lon="10.4841">
        <ele>1881.685</ele>
        <time>2018-08-10T02:23:35Z</time>
      </trkpt>
      <trkpt lat="46.30691" lon="10.48413">
        <ele>1880.64</ele>
        <time>2018-08-10T02:23:55Z</time>
      </trkpt>
      <trkpt lat="46.30689" lon="10.48414">
        <ele>1879.846</ele>
        <time>2018-08-10T02:24:15Z</time>
      </trkpt>
      <trkpt lat="46.30688" lon="10.48416">
        <ele>1878.66</ele>
        <time>2018-08-10T02:24:35Z</time>
      </trkpt>
      <trkpt lat="46.30688" lon="10.48419">
        <ele>1877.775</ele>
        <time>2018-08-10T02:24:55Z</time>
      </trkpt>
      <trkpt lat="46.30687" lon="10.48422">
        <ele>1876.736</ele>
        <time>2018-08-10T02:25:15Z</time>
      </trkpt>
      <trkpt lat="46.30688" lon="10.48425">
        <ele>1876.193</ele>
        <time>2018-08-10T02:25:35Z</time>
      </trkpt>
      <trkpt lat="46.3069" lon="10.48427">
        <ele>1875.666</ele>
        <time>2018-08-10T02:25:55Z</time>
      </trkpt>
      <trkpt lat="46.3069" lon="10.48431">
        <ele>1874.374</ele>
        <time>2018-08-10T02:26:15Z</time>
      </trkpt>
      <trkpt lat="46.30689" lon="10.48433">
        <ele>1873.456</ele>
        <time>2018-08-10T02:26:35Z</time>
      </trkpt>
      <trkpt lat="46.30689" lon="10.48436">
        <ele>1872.421</ele>
        <time>2018-08-10T02:26:55Z</time>
      </trkpt>
      <trkpt lat="46.3069" lon="10.48439">
        <ele>1871.608</ele>
        <time>2018-08-10T02:27:15Z</time>
      </trkpt>
      <trkpt lat="46.3069" lon="10.48443">
        <ele>1870.529</ele>
        <time>2018-08-10T02:27:35Z</time>
      </trkpt>
      <trkpt lat="46.30691" lon="10.48446">
        <ele>1869.964</ele>
        <time>2018-08-10T02:27:55Z</time>
      </trkpt>
      <trkpt lat="46.30692" lon="10.48449">
        <ele>1869.12</ele>
        <time>2018-08-10T02:28:15Z</time>
      </trkpt>
      <trkpt lat="46.30693" lon="10.48452">
        <ele>1868.684</ele>
        <time>2018-08-10T02:28:35Z</time>
      </trkpt>
      <trkpt lat="46.30695" lon="10.48453">
        <ele>1868.579</ele>
        <time>2018-08-10T02:28:55Z</time>
      </trkpt>
      <trkpt lat="46.30696" lon="10.48455">
        <ele>1867.86</ele>
        <time>2018-08-10T02:29:15Z</time>
      </trkpt>
      <trkpt lat="46.30697" lon="10.48458">
        <ele>1866.977</ele>
        <time>2018-08-10T02:29:35Z</time>
      </trkpt>
      <trkpt lat="46.30695" lon="10.48459">
        <ele>1866.67</ele>
        <time>2018-08-10T02:29:55Z</time>
      </trkpt>
      <trkpt lat="46.30694" lon="10.48462">
        <ele>1865.857</ele>
        <time>2018-08-10T02:30:15Z</time>
      </trkpt>
      <trkpt lat="46.30693" lon="10.48465">
        <ele>1864.8</ele>
        <time>2018-08-10T02:30:35Z</time>
      </trkpt>
      <trkpt lat="46.30692" lon="10.48466">
        <ele>1864.22</ele>
        <time>2018-08-10T02:30:55Z</time>
      </trkpt>
      <trkpt lat="46.3069" lon="10.48467">
        <ele>1863.408</ele>
        <time>2018-08-10T02:31:15Z</time>
      </trkpt>
      <trkpt lat="46.30687" lon="10.48469">
        <ele>1862.347</ele>
        <time>2018-08-10T02:31:35Z</time>
      </trkpt>
      <trkpt lat="46.30686" lon="10.48472">
        <ele>1861.312</ele>
        <time>2018-08-10T02:31:55Z</time>
      </trkpt>
      <trkpt lat="46.30685" lon="10.48474">
        <ele>1860.488</ele>
        <time>2018-08-10T02:32:15Z</time>
      </trkpt>
      <trkpt lat="46.30685" lon="10.48477">
        <ele>1859.412</ele>
        <time>2018-08-10T02:32:35Z</time>
      </trkpt>
      <trkpt lat="46.30684" lon="10.4848">
        <ele>1858.687</ele>
        <time>2018-08-10T02:32:55Z</time>
      </trkpt>
      <trkpt lat="46.30685" lon="10.48483">
        <ele>1857.818</ele>
        <time>2018-08-10T02:33:15Z</time>
      </trkpt>
      <trkpt lat="46.30685" lon="10.48486">
        <ele>1857.035</ele>
        <time>2018-08-10T02:33:35Z</time>
      </trkpt>
      <trkpt lat="46.30686" lon="10.48488">
        <ele>1856.528</ele>
        <time>2018-08-10T02:33:55Z</time>
      </trkpt>
      <trkpt lat="46.30687" lon="10.48491">
        <ele>1856.016</ele>
        <time>2018-08-10T02:34:15Z</time>
      </trkpt>
      <trkpt lat="46.30687" lon="10.48494">
        <ele>1855.276</ele>
        <time>2018-08-10T02:34:35Z</time>
      </trkpt>
      <trkpt lat="46.30687" lon="10.48496">
        <ele>1854.413</ele>
        <time>2018-08-10T02:34:55Z</time>
      </trkpt>
      <trkpt lat="46.30686" lon="10.48499">
        <ele>1853.308</ele>
        <time>2018-08-10T02:35:15Z</time>
      </trkpt>
      <trkpt lat="46.30686" lon="10.48502">
        <ele>1852.433</ele>
        <time>2018-08-10T02:35:35Z</time>
      </trkpt>
      <trkpt lat="46.30686" lon="10.48505">
        <ele>1851.578</ele>
        <time>2018-08-10T02:35:55Z</time>
      </trkpt>
      <trkpt lat="46.30687" lon="10.48507">
        <ele>1850.974</ele>
        <time>2018-08-10T02:36:15Z</time>
      </trkpt>
      <trkpt lat="46.30688" lon="10.4851">
        <ele>1850.088</ele>
        <time>2018-08-10T02:36:35Z</time>
      </trkpt>
      <trkpt lat="46.30688" lon="10.48514">
        <ele>1848.943</ele>
        <time>2018-08-10T02:36:55Z</time>
      </trkpt>
      <trkpt lat="46.30688" lon="10.48517">
        <ele>1847.984</ele>
        <time>2018-08-10T02:37:15Z</time>
      </trkpt>
      <trkpt lat="46.30686" lon="10.48519">
        <ele>1846.881</ele>
        <time>2018-08-10T02:37:35Z</time>
      </trkpt>
      <trkpt lat="46.30687" lon="10.48522">
        <ele>1845.784</ele>
        <time>2018-08-10T02:37:55Z</time>
      </trkpt>
      <trkpt lat="46.30687" lon="10.48525">
        <ele>1845.124</ele>
        <time>2018-08-10T02:38:15Z</time>
      </trkpt>
      <trkpt lat="46.30687" lon="10.48528">
        <ele>1844.004</ele>
        <time>2018-08-10T02:38:35Z</time>
      </trkpt>
      <trkpt lat="46.30686" lon="10.48531">
        <ele>1842.814</ele>
        <time>2018-08-10T02:38:55Z</time>
      </trkpt>
      <trkpt lat="46.30688" lon="10.48533">
        <ele>1842.308</ele>
        <time>2018-08-10T02:39:15Z</time>
      </trkpt>
      <trkpt lat="46.30689" lon="10.48536">
        <ele>1841.374</ele>
        <time>2018-08-10T02:39:35Z</time>
      </trkpt>
      <trkpt lat="46.30688" lon="10.4854">
        <ele>1839.479</ele>
        <time>2018-08-10T02:39:55Z</time>
      </trkpt>
      <trkpt lat="46.30685" lon="10.48543">
        <ele>1837.845</ele>
        <time>2018-08-10T02:40:15Z</time>
      </trkpt>
      <trkpt lat="46.30683" lon="10.48544">
        <ele>1837.159</ele>
        <time>2018-08-10T02:40:35Z</time>
      </trkpt>
      <trkpt lat="46.30681" lon="10.48543">
        <ele>1836.974</ele>
        <time>2018-08-10T02:40:55Z</time>
      </trkpt>
      <trkpt lat="46.30679" lon="10.48542">
        <ele>1836.735</ele>
        <time>2018-08-10T02:41:15Z</time>
      </trkpt>
      <trkpt lat="46.30677" lon="10.48541">
        <ele>1836.522</ele>
        <time>2018-08-10T02:41:35Z</time>
      </trkpt>
      <trkpt lat="46.30675" lon="10.48541">
        <ele>1836.255</ele>
        <time>2018-08-10T02:41:55Z</time>
      </trkpt>
      <trkpt lat="46.30673" lon="10.48541">
        <ele>1835.783</ele>
        <time>2018-08-10T02:42:15Z</time>
      </trkpt>
      <trkpt lat="46.30671" lon="10.48541">
        <ele>1835.125</ele>
        <time>2018-08-10T02:42:35Z</time>
      </trkpt>
      <trkpt lat="46.3067" lon="10.48539">
        <ele>1835.817</ele>
        <time>2018-08-10T02:42:55Z</time>
      </trkpt>
      <trkpt lat="46.30669" lon="10.48538">
        <ele>1835.808</ele>
        <time>2018-08-10T02:43:15Z</time>
      </trkpt>
      <trkpt lat="46.30669" lon="10.48538">
        <ele>1835.81</ele>
        <time>2018-08-10T02:43:35Z</time>
      </trkpt>
      <trkpt lat="46.30667" lon="10.48537">
        <ele>1835.635</ele>
        <time>2018-08-10T02:43:55Z</time>
      </trkpt>
      <trkpt lat="46.30665" lon="10.48537">
        <ele>1835.691</ele>
        <time>2018-08-10T02:44:15Z</time>
      </trkpt>
      <trkpt lat="46.30663" lon="10.48537">
        <ele>1835.455</ele>
        <time>2018-08-10T02:44:35Z</time>
      </trkpt>
      <trkpt lat="46.30661" lon="10.48538">
        <ele>1835.07</ele>
        <time>2018-08-10T02:44:55Z</time>
      </trkpt>
      <trkpt lat="46.30659" lon="10.4854">
        <ele>1834.151</ele>
        <time>2018-08-10T02:45:15Z</time>
      </trkpt>
      <trkpt lat="46.30659" lon="10.48543">
        <ele>1833.318</ele>
        <time>2018-08-10T02:45:35Z</time>
      </trkpt>
      <trkpt lat="46.30659" lon="10.48545">
        <ele>1832.481</ele>
        <time>2018-08-10T02:45:55Z</time>
      </trkpt>
      <trkpt lat="46.30661" lon="10.48547">
        <ele>1832.076</ele>
        <time>2018-08-10T02:46:15Z</time>
      </trkpt>
      <trkpt lat="46.30662" lon="10.48549">
        <ele>1831.49</ele>
        <time>2018-08-10T02:46:35Z</time>
      </trkpt>
      <trkpt lat="46.30663" lon="10.48551">
        <ele>1830.519</ele>
        <time>2018-08-10T02:46:55Z</time>
      </trkpt>
      <trkpt lat="46.30664" lon="10.48554">
        <ele>1829.608</ele>
        <time>2018-08-10T02:47:15Z</time>
      </trkpt>
      <trkpt lat="46.30664" lon="10.48557">
        <ele>1828.669</ele>
        <time>2018-08-10T02:47:35Z</time>
      </trkpt>
      <trkpt lat="46.30665" lon="10.4856">
        <ele>1828.024</ele>
        <time>2018-08-10T02:47:55Z</time>
      </trkpt>
      <trkpt lat="46.30668" lon="10.48568">
        <ele>1826.05</ele>
        <time>2018-08-10T02:48:15Z</time>
      </trkpt>
      <trkpt lat="46.30667" lon="10.4857">
        <ele>1825.324</ele>
        <time>2018-08-10T02:48:35Z</time>
      </trkpt>
      <trkpt lat="46.30668" lon="10.48573">
        <ele>1824.679</ele>
        <time>2018-08-10T02:48:55Z</time>
      </trkpt>
      <trkpt lat="46.30668" lon="10.48574">
        <ele>1824.46</ele>
        <time>2018-08-10T02:49:15Z</time>
      </trkpt>
      <trkpt lat="46.30669" lon="10.48576">
        <ele>1824.167</ele>
        <time>2018-08-10T02:49:35Z</time>
      </trkpt>
      <trkpt lat="46.30669" lon="10.48579">
        <ele>1823.22</ele>
        <time>2018-08-10T02:49:55Z</time>
      </trkpt>
      <trkpt lat="46.30669" lon="10.48582">
        <ele>1822.463</ele>
        <time>2018-08-10T02:50:15Z</time>
      </trkpt>
      <trkpt lat="46.30668" lon="10.48585">
        <ele>1821.844</ele>
        <time>2018-08-10T02:50:35Z</time>
      </trkpt>
      <trkpt lat="46.30668" lon="10.48585">
        <ele>1821.718</ele>
        <time>2018-08-10T02:50:55Z</time>
      </trkpt>
      <trkpt lat="46.30668" lon="10.48586">
        <ele>1821.508</ele>
        <time>2018-08-10T02:51:15Z</time>
      </trkpt>
      <trkpt lat="46.30668" lon="10.48588">
        <ele>1821.288</ele>
        <time>2018-08-10T02:51:35Z</time>
      </trkpt>
      <trkpt lat="46.30668" lon="10.48589">
        <ele>1821.063</ele>
        <time>2018-08-10T02:51:55Z</time>
      </trkpt>
      <trkpt lat="46.30668" lon="10.48591">
        <ele>1820.799</ele>
        <time>2018-08-10T02:52:15Z</time>
      </trkpt>
      <trkpt lat="46.30668" lon="10.48592">
        <ele>1820.663</ele>
        <time>2018-08-10T02:52:35Z</time>
      </trkpt>
      <trkpt lat="46.30669" lon="10.48593">
        <ele>1820.368</ele>
        <time>2018-08-10T02:52:55Z</time>
      </trkpt>
      <trkpt lat="46.30669" lon="10.48597">
        <ele>1819.779</ele>
        <time>2018-08-10T02:53:15Z</time>
      </trkpt>
      <trkpt lat="46.30668" lon="10.48597">
        <ele>1819.526</ele>
        <time>2018-08-10T02:53:35Z</time>
      </trkpt>
      <trkpt lat="46.30667" lon="10.48598">
        <ele>1819.479</ele>
        <time>2018-08-10T02:53:55Z</time>
      </trkpt>
      <trkpt lat="46.30668" lon="10.48601">
        <ele>1818.983</ele>
        <time>2018-08-10T02:54:15Z</time>
      </trkpt>
      <trkpt lat="46.30667" lon="10.48603">
        <ele>1818.425</ele>
        <time>2018-08-10T02:54:35Z</time>
      </trkpt>
      <trkpt lat="46.30666" lon="10.48606">
        <ele>1817.917</ele>
        <time>2018-08-10T02:54:55Z</time>
      </trkpt>
      <trkpt lat="46.30664" lon="10.48608">
        <ele>1817.508</ele>
        <time>2018-08-10T02:55:15Z</time>
      </trkpt>
      <trkpt lat="46.30664" lon="10.4861">
        <ele>1817.16</ele>
        <time>2018-08-10T02:55:35Z</time>
      </trkpt>
      <trkpt lat="46.30664" lon="10.4861">
        <ele>1817.085</ele>
        <time>2018-08-10T02:55:55Z</time>
      </trkpt>
      <trkpt lat="46.30663" lon="10.48612">
        <ele>1816.621</ele>
        <time>2018-08-10T02:56:15Z</time>
      </trkpt>
      <trkpt lat="46.30664" lon="10.48615">
        <ele>1816.145</ele>
        <time>2018-08-10T02:56:35Z</time>
      </trkpt>
      <trkpt lat="46.30663" lon="10.48618">
        <ele>1815.65</ele>
        <time>2018-08-10T02:56:55Z</time>
      </trkpt>
      <trkpt lat="46.30663" lon="10.48621">
        <ele>1815.161</ele>
        <time>2018-08-10T02:57:15Z</time>
      </trkpt>
      <trkpt lat="46.30664" lon="10.48624">
        <ele>1814.658</ele>
        <time>2018-08-10T02:57:35Z</time>
      </trkpt>
      <trkpt lat="46.30663" lon="10.48626">
        <ele>1814.161</ele>
        <time>2018-08-10T02:57:55Z</time>
      </trkpt>
      <trkpt lat="46.30664" lon="10.4863">
        <ele>1813.567</ele>
        <time>2018-08-10T02:58:15Z</time>
      </trkpt>
      <trkpt lat="46.30665" lon="10.48631">
        <ele>1813.381</ele>
        <time>2018-08-10T02:58:35Z</time>
      </trkpt>
      <trkpt lat="46.30666" lon="10.48634">
        <ele>1812.819</ele>
        <time>2018-08-10T02:58:55Z</time>
      </trkpt>
      <trkpt lat="46.30665" lon="10.48637">
        <ele>1812.208</ele>
        <time>2018-08-10T02:59:15Z</time>
      </trkpt>
      <trkpt lat="46.30663" lon="10.48639">
        <ele>1811.918</ele>
        <time>2018-08-10T02:59:35Z</time>
      </trkpt>
      <trkpt lat="46.30661" lon="10.4864">
        <ele>1811.633</ele>
        <time>2018-08-10T02:59:55Z</time>
      </trkpt>
      <trkpt lat="46.30661" lon="10.48643">
        <ele>1811.039</ele>
        <time>2018-08-10T03:00:15Z</time>
      </trkpt>
      <trkpt lat="46.30661" lon="10.48646">
        <ele>1810.523</ele>
        <time>2018-08-10T03:00:35Z</time>
      </trkpt>
      <trkpt lat="46.30662" lon="10.48649">
        <ele>1810.028</ele>
        <time>2018-08-10T03:00:55Z</time>
      </trkpt>
      <trkpt lat="46.30663" lon="10.48651">
        <ele>1809.669</ele>
        <time>2018-08-10T03:01:15Z</time>
      </trkpt>
      <trkpt lat="46.30664" lon="10.48653">
        <ele>1809.276</ele>
        <time>2018-08-10T03:01:35Z</time>
      </trkpt>
      <trkpt lat="46.30666" lon="10.48655">
        <ele>1809.079</ele>
        <time>2018-08-10T03:01:55Z</time>
      </trkpt>
      <trkpt lat="46.30667" lon="10.48656">
        <ele>1808.757</ele>
        <time>2018-08-10T03:02:15Z</time>
      </trkpt>
      <trkpt lat="46.30668" lon="10.48657">
        <ele>1808.6</ele>
        <time>2018-08-10T03:02:35Z</time>
      </trkpt>
      <trkpt lat="46.3067" lon="10.48658">
        <ele>1808.12</ele>
        <time>2018-08-10T03:02:55Z</time>
      </trkpt>
      <trkpt lat="46.30672" lon="10.48658">
        <ele>1807.808</ele>
        <time>2018-08-10T03:03:15Z</time>
      </trkpt>
      <trkpt lat="46.30674" lon="10.48658">
        <ele>1807.697</ele>
        <time>2018-08-10T03:03:35Z</time>
      </trkpt>
      <trkpt lat="46.30676" lon="10.48659">
        <ele>1807.192</ele>
        <time>2018-08-10T03:03:55Z</time>
      </trkpt>
      <trkpt lat="46.30678" lon="10.48661">
        <ele>1806.658</ele>
        <time>2018-08-10T03:04:15Z</time>
      </trkpt>
      <trkpt lat="46.30679" lon="10.48663">
        <ele>1805.912</ele>
        <time>2018-08-10T03:04:35Z</time>
      </trkpt>
      <trkpt lat="46.3068" lon="10.48666">
        <ele>1805.357</ele>
        <time>2018-08-10T03:04:55Z</time>
      </trkpt>
      <trkpt lat="46.30681" lon="10.48668">
        <ele>1804.728</ele>
        <time>2018-08-10T03:05:15Z</time>
      </trkpt>
      <trkpt lat="46.30682" lon="10.48671">
        <ele>1803.815</ele>
        <time>2018-08-10T03:05:35Z</time>
      </trkpt>
      <trkpt lat="46.30683" lon="10.48674">
        <ele>1803.278</ele>
        <time>2018-08-10T03:05:55Z</time>
      </trkpt>
      <trkpt lat="46.30682" lon="10.48676">
        <ele>1802.685</ele>
        <time>2018-08-10T03:06:15Z</time>
      </trkpt>
      <trkpt lat="46.30683" lon="10.48679">
        <ele>1801.989</ele>
        <time>2018-08-10T03:06:35Z</time>
      </trkpt>
      <trkpt lat="46.30685" lon="10.48681">
        <ele>1801.217</ele>
        <time>2018-08-10T03:06:55Z</time>
      </trkpt>
      <trkpt lat="46.30684" lon="10.48684">
        <ele>1800.808</ele>
        <time>2018-08-10T03:07:15Z</time>
      </trkpt>
      <trkpt lat="46.30684" lon="10.48687">
        <ele>1800.15</ele>
        <time>2018-08-10T03:07:35Z</time>
      </trkpt>
      <trkpt lat="46.30682" lon="10.48689">
        <ele>1799.715</ele>
        <time>2018-08-10T03:07:55Z</time>
      </trkpt>
      <trkpt lat="46.30681" lon="10.48692">
        <ele>1799.471</ele>
        <time>2018-08-10T03:08:15Z</time>
      </trkpt>
      <trkpt lat="46.30681" lon="10.48695">
        <ele>1798.935</ele>
        <time>2018-08-10T03:08:35Z</time>
      </trkpt>
      <trkpt lat="46.3068" lon="10.48697">
        <ele>1798.25</ele>
        <time>2018-08-10T03:08:55Z</time>
      </trkpt>
      <trkpt lat="46.30679" lon="10.48699">
        <ele>1797.961</ele>
        <time>2018-08-10T03:09:15Z</time>
      </trkpt>
      <trkpt lat="46.30677" lon="10.48701">
        <ele>1797.848</ele>
        <time>2018-08-10T03:09:35Z</time>
      </trkpt>
      <trkpt lat="46.30677" lon="10.48703">
        <ele>1797.211</ele>
        <time>2018-08-10T03:09:55Z</time>
      </trkpt>
      <trkpt lat="46.30675" lon="10.48706">
        <ele>1796.959</ele>
        <time>2018-08-10T03:10:15Z</time>
      </trkpt>
      <trkpt lat="46.30674" lon="10.48708">
        <ele>1796.503</ele>
        <time>2018-08-10T03:10:35Z</time>
      </trkpt>
      <trkpt lat="46.30673" lon="10.48711">
        <ele>1795.823</ele>
        <time>2018-08-10T03:10:55Z</time>
      </trkpt>
      <trkpt lat="46.30672" lon="10.48713">
        <ele>1795.508</ele>
        <time>2018-08-10T03:11:15Z</time>
      </trkpt>
      <trkpt lat="46.3067" lon="10.48716">
        <ele>1795.077</ele>
        <time>2018-08-10T03:11:35Z</time>
      </trkpt>
      <trkpt lat="46.30669" lon="10.48718">
        <ele>1794.682</ele>
        <time>2018-08-10T03:11:55Z</time>
      </trkpt>
      <trkpt lat="46.30668" lon="10.48721">
        <ele>1794.298</ele>
        <time>2018-08-10T03:12:15Z</time>
      </trkpt>
      <trkpt lat="46.30666" lon="10.48723">
        <ele>1793.592</ele>
        <time>2018-08-10T03:12:35Z</time>
      </trkpt>
      <trkpt lat="46.30666" lon="10.48724">
        <ele>1793.337</ele>
        <time>2018-08-10T03:12:55Z</time>
      </trkpt>
      <trkpt lat="46.30665" lon="10.48726">
        <ele>1791.868</ele>
        <time>2018-08-10T03:13:15Z</time>
      </trkpt>
      <trkpt lat="46.30664" lon="10.48729">
        <ele>1790.245</ele>
        <time>2018-08-10T03:13:35Z</time>
      </trkpt>
      <trkpt lat="46.30663" lon="10.48732">
        <ele>1788.918</ele>
        <time>2018-08-10T03:13:55Z</time>
      </trkpt>
      <trkpt lat="46.30664" lon="10.48735">
        <ele>1787.987</ele>
        <time>2018-08-10T03:14:15Z</time>
      </trkpt>
      <trkpt lat="46.30666" lon="10.48736">
        <ele>1787.842</ele>
        <time>2018-08-10T03:14:35Z</time>
      </trkpt>
      <trkpt lat="46.30666" lon="10.48738">
        <ele>1787.026</ele>
        <time>2018-08-10T03:14:55Z</time>
      </trkpt>
      <trkpt lat="46.30666" lon="10.48739">
        <ele>1786.808</ele>
        <time>2018-08-10T03:15:15Z</time>
      </trkpt>
      <trkpt lat="46.30667" lon="10.48741">
        <ele>1785.61</ele>
        <time>2018-08-10T03:15:35Z</time>
      </trkpt>
      <trkpt lat="46.30668" lon="10.48744">
        <ele>1784.475</ele>
        <time>2018-08-10T03:15:55Z</time>
      </trkpt>
      <trkpt lat="46.30668" lon="10.48747">
        <ele>1783.191</ele>
        <time>2018-08-10T03:16:15Z</time>
      </trkpt>
      <trkpt lat="46.3067" lon="10.4875">
        <ele>1781.975</ele>
        <time>2018-08-10T03:16:35Z</time>
      </trkpt>
      <trkpt lat="46.30672" lon="10.48751">
        <ele>1781.27</ele>
        <time>2018-08-10T03:16:55Z</time>
      </trkpt>
      <trkpt lat="46.30674" lon="10.48752">
        <ele>1780.591</ele>
        <time>2018-08-10T03:17:15Z</time>
      </trkpt>
      <trkpt lat="46.30675" lon="10.48754">
        <ele>1779.698</ele>
        <time>2018-08-10T03:17:35Z</time>
      </trkpt>
      <trkpt lat="46.30675" lon="10.48757">
        <ele>1778.541</ele>
        <time>2018-08-10T03:17:55Z</time>
      </trkpt>
      <trkpt lat="46.30674" lon="10.48759">
        <ele>1777.544</ele>
        <time>2018-08-10T03:18:15Z</time>
      </trkpt>
      <trkpt lat="46.30673" lon="10.48762">
        <ele>1776.105</ele>
        <time>2018-08-10T03:18:35Z</time>
      </trkpt>
      <trkpt lat="46.30674" lon="10.48766">
        <ele>1774.715</ele>
        <time>2018-08-10T03:18:55Z</time>
      </trkpt>
      <trkpt lat="46.30676" lon="10.48765">
        <ele>1774.908</ele>
        <time>2018-08-10T03:19:15Z</time>
      </trkpt>
      <trkpt lat="46.30679" lon="10.48767">
        <ele>1774.316</ele>
        <time>2018-08-10T03:19:35Z</time>
      </trkpt>
      <trkpt lat="46.3068" lon="10.48768">
        <ele>1774.061</ele>
        <time>2018-08-10T03:19:55Z</time>
      </trkpt>
      <trkpt lat="46.30682" lon="10.48769">
        <ele>1773.777</ele>
        <time>2018-08-10T03:20:15Z</time>
      </trkpt>
      <trkpt lat="46.30684" lon="10.48768">
        <ele>1774.021</ele>
        <time>2018-08-10T03:20:35Z</time>
      </trkpt>
      <trkpt lat="46.30687" lon="10.48769">
        <ele>1773.716</ele>
        <time>2018-08-10T03:20:55Z</time>
      </trkpt>
      <trkpt lat="46.30689" lon="10.48768">
        <ele>1774.087</ele>
        <time>2018-08-10T03:21:15Z</time>
      </trkpt>
      <trkpt lat="46.30691" lon="10.48769">
        <ele>1773.634</ele>
        <time>2018-08-10T03:21:35Z</time>
      </trkpt>
      <trkpt lat="46.30693" lon="10.4877">
        <ele>1773.557</ele>
        <time>2018-08-10T03:21:55Z</time>
      </trkpt>
      <trkpt lat="46.30695" lon="10.48769">
        <ele>1773.649</ele>
        <time>2018-08-10T03:22:15Z</time>
      </trkpt>
      <trkpt lat="46.30697" lon="10.4877">
        <ele>1772.802</ele>
        <time>2018-08-10T03:22:35Z</time>
      </trkpt>
      <trkpt lat="46.30698" lon="10.48772">
        <ele>1771.922</ele>
        <time>2018-08-10T03:22:55Z</time>
      </trkpt>
      <trkpt lat="46.307" lon="10.48773">
        <ele>1771.208</ele>
        <time>2018-08-10T03:23:15Z</time>
      </trkpt>
      <trkpt lat="46.30702" lon="10.48772">
        <ele>1771.116</ele>
        <time>2018-08-10T03:23:35Z</time>
      </trkpt>
      <trkpt lat="46.30716" lon="10.48778">
        <ele>1765.451</ele>
        <time>2018-08-10T03:23:55Z</time>
      </trkpt>
      <trkpt lat="46.30718" lon="10.4878">
        <ele>1764.367</ele>
        <time>2018-08-10T03:24:15Z</time>
      </trkpt>
      <trkpt lat="46.30719" lon="10.48782">
        <ele>1763.071</ele>
        <time>2018-08-10T03:24:35Z</time>
      </trkpt>
      <trkpt lat="46.30718" lon="10.48783">
        <ele>1763.226</ele>
        <time>2018-08-10T03:24:55Z</time>
      </trkpt>
      <trkpt lat="46.30718" lon="10.48786">
        <ele>1762.137</ele>
        <time>2018-08-10T03:25:15Z</time>
      </trkpt>
      <trkpt lat="46.3072" lon="10.48789">
        <ele>1760.734</ele>
        <time>2018-08-10T03:25:35Z</time>
      </trkpt>
      <trkpt lat="46.3072" lon="10.48792">
        <ele>1759.647</ele>
        <time>2018-08-10T03:25:55Z</time>
      </trkpt>
      <trkpt lat="46.30719" lon="10.48795">
        <ele>1758.442</ele>
        <time>2018-08-10T03:26:15Z</time>
      </trkpt>
      <trkpt lat="46.3072" lon="10.48798">
        <ele>1757.322</ele>
        <time>2018-08-10T03:26:35Z</time>
      </trkpt>
      <trkpt lat="46.3072" lon="10.48801">
        <ele>1756.214</ele>
        <time>2018-08-10T03:26:55Z</time>
      </trkpt>
      <trkpt lat="46.30719" lon="10.48803">
        <ele>1755.508</ele>
        <time>2018-08-10T03:27:15Z</time>
      </trkpt>
      <trkpt lat="46.30719" lon="10.48807">
        <ele>1754.266</ele>
        <time>2018-08-10T03:27:35Z</time>
      </trkpt>
      <trkpt lat="46.30719" lon="10.48809">
        <ele>1753.211</ele>
        <time>2018-08-10T03:27:55Z</time>
      </trkpt>
      <trkpt lat="46.30717" lon="10.48811">
        <ele>1752.797</ele>
        <time>2018-08-10T03:28:15Z</time>
      </trkpt>
      <trkpt lat="46.30715" lon="10.48812">
        <ele>1752.721</ele>
        <time>2018-08-10T03:28:35Z</time>
      </trkpt>
      <trkpt lat="46.30713" lon="10.48814">
        <ele>1752.226</ele>
        <time>2018-08-10T03:28:55Z</time>
      </trkpt>
      <trkpt lat="46.30713" lon="10.48816">
        <ele>1751.237</ele>
        <time>2018-08-10T03:29:15Z</time>
      </trkpt>
      <trkpt lat="46.30711" lon="10.48818">
        <ele>1750.974</ele>
        <time>2018-08-10T03:29:35Z</time>
      </trkpt>
      <trkpt lat="46.3071" lon="10.4882">
        <ele>1749.917</ele>
        <time>2018-08-10T03:29:55Z</time>
      </trkpt>
      <trkpt lat="46.30709" lon="10.48823">
        <ele>1748.984</ele>
        <time>2018-08-10T03:30:15Z</time>
      </trkpt>
      <trkpt lat="46.30707" lon="10.48825">
        <ele>1748.707</ele>
        <time>2018-08-10T03:30:35Z</time>
      </trkpt>
      <trkpt lat="46.30705" lon="10.48827">
        <ele>1747.817</ele>
        <time>2018-08-10T03:30:55Z</time>
      </trkpt>
      <trkpt lat="46.30705" lon="10.4883">
        <ele>1746.608</ele>
        <time>2018-08-10T03:31:15Z</time>
      </trkpt>
      <trkpt lat="46.30703" lon="10.48832">
        <ele>1745.99</ele>
        <time>2018-08-10T03:31:35Z</time>
      </trkpt>
      <trkpt lat="46.30702" lon="10.48834">
        <ele>1745.315</ele>
        <time>2018-08-10T03:31:55Z</time>
      </trkpt>
      <trkpt lat="46.307" lon="10.48836">
        <ele>1744.551</ele>
        <time>2018-08-10T03:32:15Z</time>
      </trkpt>
      <trkpt lat="46.30698" lon="10.48837">
        <ele>1744.565</ele>
        <time>2018-08-10T03:32:35Z</time>
      </trkpt>
      <trkpt lat="46.30696" lon="10.48838">
        <ele>1744.54</ele>
        <time>2018-08-10T03:32:55Z</time>
      </trkpt>
      <trkpt lat="46.30693" lon="10.48838">
        <ele>1744.321</ele>
        <time>2018-08-10T03:33:15Z</time>
      </trkpt>
      <trkpt lat="46.30691" lon="10.4884">
        <ele>1743.028</ele>
        <time>2018-08-10T03:33:35Z</time>
      </trkpt>
      <trkpt lat="46.3069" lon="10.48842">
        <ele>1742.021</ele>
        <time>2018-08-10T03:33:55Z</time>
      </trkpt>
      <trkpt lat="46.30685" lon="10.48852">
        <ele>1736.857</ele>
        <time>2018-08-10T03:34:15Z</time>
      </trkpt>
      <trkpt lat="46.30686" lon="10.48854">
        <ele>1736</ele>
        <time>2018-08-10T03:34:35Z</time>
      </trkpt>
      <trkpt lat="46.30688" lon="10.48854">
        <ele>1735.82</ele>
        <time>2018-08-10T03:34:55Z</time>
      </trkpt>
      <trkpt lat="46.3069" lon="10.48855">
        <ele>1735.308</ele>
        <time>2018-08-10T03:35:15Z</time>
      </trkpt>
      <trkpt lat="46.30692" lon="10.48857">
        <ele>1734.327</ele>
        <time>2018-08-10T03:35:35Z</time>
      </trkpt>
      <trkpt lat="46.30694" lon="10.48857">
        <ele>1734.432</ele>
        <time>2018-08-10T03:35:55Z</time>
      </trkpt>
      <trkpt lat="46.30696" lon="10.48857">
        <ele>1734.098</ele>
        <time>2018-08-10T03:36:15Z</time>
      </trkpt>
      <trkpt lat="46.30698" lon="10.48857">
        <ele>1733.722</ele>
        <time>2018-08-10T03:36:35Z</time>
      </trkpt>
      <trkpt lat="46.307" lon="10.48859">
        <ele>1732.347</ele>
        <time>2018-08-10T03:36:55Z</time>
      </trkpt>
      <trkpt lat="46.30701" lon="10.48861">
        <ele>1731.148</ele>
        <time>2018-08-10T03:37:15Z</time>
      </trkpt>
      <trkpt lat="46.30703" lon="10.48862">
        <ele>1730.265</ele>
        <time>2018-08-10T03:37:35Z</time>
      </trkpt>
      <trkpt lat="46.30707" lon="10.4886">
        <ele>1730.868</ele>
        <time>2018-08-10T03:37:55Z</time>
      </trkpt>
      <trkpt lat="46.30709" lon="10.48861">
        <ele>1729.833</ele>
        <time>2018-08-10T03:38:15Z</time>
      </trkpt>
      <trkpt lat="46.3071" lon="10.48861">
        <ele>1729.623</ele>
        <time>2018-08-10T03:38:35Z</time>
      </trkpt>
      <trkpt lat="46.30713" lon="10.48861">
        <ele>1729.215</ele>
        <time>2018-08-10T03:38:55Z</time>
      </trkpt>
      <trkpt lat="46.30714" lon="10.48864">
        <ele>1727.908</ele>
        <time>2018-08-10T03:39:15Z</time>
      </trkpt>
      <trkpt lat="46.30715" lon="10.48867">
        <ele>1726.395</ele>
        <time>2018-08-10T03:39:35Z</time>
      </trkpt>
      <trkpt lat="46.30717" lon="10.48864">
        <ele>1727.48</ele>
        <time>2018-08-10T03:39:55Z</time>
      </trkpt>
      <trkpt lat="46.3072" lon="10.48864">
        <ele>1727.246</ele>
        <time>2018-08-10T03:40:15Z</time>
      </trkpt>
      <trkpt lat="46.30722" lon="10.48863">
        <ele>1727.16</ele>
        <time>2018-08-10T03:40:35Z</time>
      </trkpt>
      <trkpt lat="46.30724" lon="10.48862">
        <ele>1727.075</ele>
        <time>2018-08-10T03:40:55Z</time>
      </trkpt>
      <trkpt lat="46.30726" lon="10.4886">
        <ele>1727.166</ele>
        <time>2018-08-10T03:41:15Z</time>
      </trkpt>
      <trkpt lat="46.30727" lon="10.48858">
        <ele>1727.523</ele>
        <time>2018-08-10T03:41:35Z</time>
      </trkpt>
      <trkpt lat="46.30729" lon="10.48858">
        <ele>1726.886</ele>
        <time>2018-08-10T03:41:55Z</time>
      </trkpt>
      <trkpt lat="46.3073" lon="10.4886">
        <ele>1725.256</ele>
        <time>2018-08-10T03:42:15Z</time>
      </trkpt>
      <trkpt lat="46.30732" lon="10.48862">
        <ele>1723.859</ele>
        <time>2018-08-10T03:42:35Z</time>
      </trkpt>
      <trkpt lat="46.30734" lon="10.48862">
        <ele>1723.114</ele>
        <time>2018-08-10T03:42:55Z</time>
      </trkpt>
      <trkpt lat="46.30736" lon="10.48862">
        <ele>1721.808</ele>
        <time>2018-08-10T03:43:15Z</time>
      </trkpt>
      <trkpt lat="46.30738" lon="10.48862">
        <ele>1721.457</ele>
        <time>2018-08-10T03:43:35Z</time>
      </trkpt>
      <trkpt lat="46.3074" lon="10.48861">
        <ele>1720.672</ele>
        <time>2018-08-10T03:43:55Z</time>
      </trkpt>
      <trkpt lat="46.30743" lon="10.48861">
        <ele>1720.228</ele>
        <time>2018-08-10T03:44:15Z</time>
      </trkpt>
      <trkpt lat="46.30745" lon="10.48861">
        <ele>1719.332</ele>
        <time>2018-08-10T03:44:35Z</time>
      </trkpt>
      <trkpt lat="46.30747" lon="10.4886">
        <ele>1719.117</ele>
        <time>2018-08-10T03:44:55Z</time>
      </trkpt>
      <trkpt lat="46.30749" lon="10.48859">
        <ele>1718.858</ele>
        <time>2018-08-10T03:45:15Z</time>
      </trkpt>
      <trkpt lat="46.3075" lon="10.48857">
        <ele>1719.495</ele>
        <time>2018-08-10T03:45:35Z</time>
      </trkpt>
      <trkpt lat="46.30752" lon="10.48857">
        <ele>1718.438</ele>
        <time>2018-08-10T03:45:55Z</time>
      </trkpt>
      <trkpt lat="46.30754" lon="10.48859">
        <ele>1716.835</ele>
        <time>2018-08-10T03:46:15Z</time>
      </trkpt>
      <trkpt lat="46.30753" lon="10.48862">
        <ele>1715.486</ele>
        <time>2018-08-10T03:46:35Z</time>
      </trkpt>
      <trkpt lat="46.30752" lon="10.48864">
        <ele>1714.314</ele>
        <time>2018-08-10T03:46:55Z</time>
      </trkpt>
      <trkpt lat="46.30753" lon="10.48867">
        <ele>1712.508</ele>
        <time>2018-08-10T03:47:15Z</time>
      </trkpt>
      <trkpt lat="46.30754" lon="10.48868">
        <ele>1711.475</ele>
        <time>2018-08-10T03:47:35Z</time>
      </trkpt>
      <trkpt lat="46.30754" lon="10.48871">
        <ele>1709.98</ele>
        <time>2018-08-10T03:47:55Z</time>
      </trkpt>
      <trkpt lat="46.30752" lon="10.48872">
        <ele>1709.956</ele>
        <time>2018-08-10T03:48:15Z</time>
      </trkpt>
      <trkpt lat="46.30753" lon="10.48875">
        <ele>1707.89</ele>
        <time>2018-08-10T03:48:35Z</time>
      </trkpt>
      <trkpt lat="46.30753" lon="10.48878">
        <ele>1706.245</ele>
        <time>2018-08-10T03:48:55Z</time>
      </trkpt>
      <trkpt lat="46.30751" lon="10.4888">
        <ele>1705.496</ele>
        <time>2018-08-10T03:49:15Z</time>
      </trkpt>
      <trkpt lat="46.3075" lon="10.48883">
        <ele>1703.773</ele>
        <time>2018-08-10T03:49:35Z</time>
      </trkpt>
      <trkpt lat="46.30749" lon="10.48885">
        <ele>1702.856</ele>
        <time>2018-08-10T03:49:55Z</time>
      </trkpt>
      <trkpt lat="46.30747" lon="10.48887">
        <ele>1702.742</ele>
        <time>2018-08-10T03:50:15Z</time>
      </trkpt>
      <trkpt lat="46.30746" lon="10.4889">
        <ele>1701.822</ele>
        <time>2018-08-10T03:50:35Z</time>
      </trkpt>
      <trkpt lat="46.30747" lon="10.48892">
        <ele>1700.814</ele>
        <time>2018-08-10T03:50:55Z</time>
      </trkpt>
      <trkpt lat="46.30747" lon="10.48895">
        <ele>1700.408</ele>
        <time>2018-08-10T03:51:15Z</time>
      </trkpt>
      <trkpt lat="46.30747" lon="10.48897">
        <ele>1700.166</ele>
        <time>2018-08-10T03:51:35Z</time>
      </trkpt>
      <trkpt lat="46.30746" lon="10.489">
        <ele>1699.771</ele>
        <time>2018-08-10T03:51:55Z</time>
      </trkpt>
      <trkpt lat="46.30745" lon="10.48903">
        <ele>1699.447</ele>
        <time>2018-08-10T03:52:15Z</time>
      </trkpt>
      <trkpt lat="46.30744" lon="10.48904">
        <ele>1699.991</ele>
        <time>2018-08-10T03:52:35Z</time>
      </trkpt>
      <trkpt lat="46.30743" lon="10.48906">
        <ele>1699.726</ele>
        <time>2018-08-10T03:52:55Z</time>
      </trkpt>
      <trkpt lat="46.30742" lon="10.48909">
        <ele>1699.357</ele>
        <time>2018-08-10T03:53:15Z</time>
      </trkpt>
      <trkpt lat="46.30741" lon="10.48911">
        <ele>1699.144</ele>
        <time>2018-08-10T03:53:35Z</time>
      </trkpt>
      <trkpt lat="46.30741" lon="10.48914">
        <ele>1698.377</ele>
        <time>2018-08-10T03:53:55Z</time>
      </trkpt>
      <trkpt lat="46.30739" lon="10.48915">
        <ele>1698.527</ele>
        <time>2018-08-10T03:54:15Z</time>
      </trkpt>
      <trkpt lat="46.30737" lon="10.48917">
        <ele>1698.568</ele>
        <time>2018-08-10T03:54:35Z</time>
      </trkpt>
      <trkpt lat="46.30736" lon="10.4892">
        <ele>1698.414</ele>
        <time>2018-08-10T03:54:55Z</time>
      </trkpt>
      <trkpt lat="46.30735" lon="10.48922">
        <ele>1698.308</ele>
        <time>2018-08-10T03:55:15Z</time>
      </trkpt>
      <trkpt lat="46.30734" lon="10.48925">
        <ele>1698.094</ele>
        <time>2018-08-10T03:55:35Z</time>
      </trkpt>
      <trkpt lat="46.30735" lon="10.48927">
        <ele>1697.239</ele>
        <time>2018-08-10T03:55:55Z</time>
      </trkpt>
      <trkpt lat="46.30734" lon="10.4893">
        <ele>1696.935</ele>
        <time>2018-08-10T03:56:15Z</time>
      </trkpt>
      <trkpt lat="46.30735" lon="10.48932">
        <ele>1696.179</ele>
        <time>2018-08-10T03:56:35Z</time>
      </trkpt>
      <trkpt lat="46.30737" lon="10.48934">
        <ele>1695.484</ele>
        <time>2018-08-10T03:56:55Z</time>
      </trkpt>
      <trkpt lat="46.30737" lon="10.48937">
        <ele>1694.715</ele>
        <time>2018-08-10T03:57:15Z</time>
      </trkpt>
      <trkpt lat="46.30738" lon="10.48939">
        <ele>1694.012</ele>
        <time>2018-08-10T03:57:35Z</time>
      </trkpt>
      <trkpt lat="46.3074" lon="10.4894">
        <ele>1693.515</ele>
        <time>2018-08-10T03:57:55Z</time>
      </trkpt>
      <trkpt lat="46.30742" lon="10.48942">
        <ele>1692.933</ele>
        <time>2018-08-10T03:58:15Z</time>
      </trkpt>
      <trkpt lat="46.30744" lon="10.48943">
        <ele>1692.323</ele>
        <time>2018-08-10T03:58:35Z</time>
      </trkpt>
      <trkpt lat="46.30747" lon="10.48942">
        <ele>1692.015</ele>
        <time>2018-08-10T03:58:55Z</time>
      </trkpt>
      <trkpt lat="46.30748" lon="10.48943">
        <ele>1691.408</ele>
        <time>2018-08-10T03:59:15Z</time>
      </trkpt>
      <trkpt lat="46.3075" lon="10.48943">
        <ele>1691.135</ele>
        <time>2018-08-10T03:59:35Z</time>
      </trkpt>
      <trkpt lat="46.30752" lon="10.48945">
        <ele>1690.48</ele>
        <time>2018-08-10T03:59:55Z</time>
      </trkpt>
      <trkpt lat="46.30754" lon="10.48945">
        <ele>1689.886</ele>
        <time>2018-08-10T04:00:15Z</time>
      </trkpt>
      <trkpt lat="46.30757" lon="10.48945">
        <ele>1689.42</ele>
        <time>2018-08-10T04:00:35Z</time>
      </trkpt>
      <trkpt lat="46.30759" lon="10.48944">
        <ele>1689.135</ele>
        <time>2018-08-10T04:00:55Z</time>
      </trkpt>
      <trkpt lat="46.30761" lon="10.48945">
        <ele>1688.656</ele>
        <time>2018-08-10T04:01:15Z</time>
      </trkpt>
      <trkpt lat="46.30762" lon="10.48947">
        <ele>1687.953</ele>
        <time>2018-08-10T04:01:35Z</time>
      </trkpt>
      <trkpt lat="46.30764" lon="10.48948">
        <ele>1687.266</ele>
        <time>2018-08-10T04:01:55Z</time>
      </trkpt>
      <trkpt lat="46.30766" lon="10.4895">
        <ele>1686.435</ele>
        <time>2018-08-10T04:02:15Z</time>
      </trkpt>
      <trkpt lat="46.30767" lon="10.48953">
        <ele>1685.686</ele>
        <time>2018-08-10T04:02:35Z</time>
      </trkpt>
      <trkpt lat="46.30768" lon="10.48955">
        <ele>1684.814</ele>
        <time>2018-08-10T04:02:55Z</time>
      </trkpt>
      <trkpt lat="46.3077" lon="10.48957">
        <ele>1683.808</ele>
        <time>2018-08-10T04:03:15Z</time>
      </trkpt>
      <trkpt lat="46.30772" lon="10.48959">
        <ele>1683.035</ele>
        <time>2018-08-10T04:03:35Z</time>
      </trkpt>
      <trkpt lat="46.30774" lon="10.48961">
        <ele>1682.06</ele>
        <time>2018-08-10T04:03:55Z</time>
      </trkpt>
      <trkpt lat="46.30776" lon="10.48962">
        <ele>1681.136</ele>
        <time>2018-08-10T04:04:15Z</time>
      </trkpt>
      <trkpt lat="46.30777" lon="10.48964">
        <ele>1680.33</ele>
        <time>2018-08-10T04:04:35Z</time>
      </trkpt>
      <trkpt lat="46.30779" lon="10.48966">
        <ele>1679.225</ele>
        <time>2018-08-10T04:04:55Z</time>
      </trkpt>
      <trkpt lat="46.30781" lon="10.48968">
        <ele>1678.266</ele>
        <time>2018-08-10T04:05:15Z</time>
      </trkpt>
      <trkpt lat="46.30783" lon="10.4897">
        <ele>1677.283</ele>
        <time>2018-08-10T04:05:35Z</time>
      </trkpt>
      <trkpt lat="46.30785" lon="10.4897">
        <ele>1676.596</ele>
        <time>2018-08-10T04:05:55Z</time>
      </trkpt>
      <trkpt lat="46.30787" lon="10.48971">
        <ele>1675.954</ele>
        <time>2018-08-10T04:06:15Z</time>
      </trkpt>
      <trkpt lat="46.3079" lon="10.48971">
        <ele>1675.256</ele>
        <time>2018-08-10T04:06:35Z</time>
      </trkpt>
      <trkpt lat="46.30792" lon="10.48972">
        <ele>1674.411</ele>
        <time>2018-08-10T04:06:55Z</time>
      </trkpt>
      <trkpt lat="46.30795" lon="10.48972">
        <ele>1673.708</ele>
        <time>2018-08-10T04:07:15Z</time>
      </trkpt>
      <trkpt lat="46.30803" lon="10.48973">
        <ele>1671.627</ele>
        <time>2018-08-10T04:07:35Z</time>
      </trkpt>
      <trkpt lat="46.30808" lon="10.48984">
        <ele>1669.362</ele>
        <time>2018-08-10T04:07:55Z</time>
      </trkpt>
      <trkpt lat="46.30806" lon="10.49014">
        <ele>1666.448</ele>
        <time>2018-08-10T04:08:15Z</time>
      </trkpt>
      <trkpt lat="46.30807" lon="10.49017">
        <ele>1666.032</ele>
        <time>2018-08-10T04:08:35Z</time>
      </trkpt>
      <trkpt lat="46.30807" lon="10.49019">
        <ele>1665.797</ele>
        <time>2018-08-10T04:08:55Z</time>
      </trkpt>
      <trkpt lat="46.30808" lon="10.49023">
        <ele>1665.218</ele>
        <time>2018-08-10T04:09:15Z</time>
      </trkpt>
      <trkpt lat="46.30809" lon="10.49024">
        <ele>1664.895</ele>
        <time>2018-08-10T04:09:35Z</time>
      </trkpt>
      <trkpt lat="46.3081" lon="10.49027">
        <ele>1664.438</ele>
        <time>2018-08-10T04:09:55Z</time>
      </trkpt>
      <trkpt lat="46.30812" lon="10.49031">
        <ele>1663.751</ele>
        <time>2018-08-10T04:10:15Z</time>
      </trkpt>
      <trkpt lat="46.30813" lon="10.49033">
        <ele>1663.401</ele>
        <time>2018-08-10T04:10:35Z</time>
      </trkpt>
      <trkpt lat="46.30814" lon="10.49036">
        <ele>1662.911</ele>
        <time>2018-08-10T04:10:55Z</time>
      </trkpt>
      <trkpt lat="46.30815" lon="10.49039">
        <ele>1662.508</ele>
        <time>2018-08-10T04:11:15Z</time>
      </trkpt>
      <trkpt lat="46.30816" lon="10.49042">
        <ele>1662.187</ele>
        <time>2018-08-10T04:11:35Z</time>
      </trkpt>
      <trkpt lat="46.30817" lon="10.49044">
        <ele>1661.852</ele>
        <time>2018-08-10T04:11:55Z</time>
      </trkpt>
      <trkpt lat="46.30819" lon="10.49046">
        <ele>1661.468</ele>
        <time>2018-08-10T04:12:15Z</time>
      </trkpt>
      <trkpt lat="46.3082" lon="10.49049">
        <ele>1661.012</ele>
        <time>2018-08-10T04:12:35Z</time>
      </trkpt>
      <trkpt lat="46.30822" lon="10.49051">
        <ele>1660.677</ele>
        <time>2018-08-10T04:12:55Z</time>
      </trkpt>
      <trkpt lat="46.30822" lon="10.49053">
        <ele>1660.438</ele>
        <time>2018-08-10T04:13:15Z</time>
      </trkpt>
      <trkpt lat="46.30823" lon="10.49055">
        <ele>1660.135</ele>
        <time>2018-08-10T04:13:35Z</time>
      </trkpt>
      <trkpt lat="46.30825" lon="10.49057">
        <ele>1659.728</ele>
        <time>2018-08-10T04:13:55Z</time>
      </trkpt>
      <trkpt lat="46.30827" lon="10.4906">
        <ele>1659.268</ele>
        <time>2018-08-10T04:14:15Z</time>
      </trkpt>
      <trkpt lat="46.30828" lon="10.49063">
        <ele>1658.742</ele>
        <time>2018-08-10T04:14:35Z</time>
      </trkpt>
      <trkpt lat="46.3083" lon="10.49066">
        <ele>1658.326</ele>
        <time>2018-08-10T04:14:55Z</time>
      </trkpt>
      <trkpt lat="46.30831" lon="10.49068">
        <ele>1657.808</ele>
        <time>2018-08-10T04:15:15Z</time>
      </trkpt>
      <trkpt lat="46.30833" lon="10.49071">
        <ele>1657.418</ele>
        <time>2018-08-10T04:15:35Z</time>
      </trkpt>
      <trkpt lat="46.30834" lon="10.49073">
        <ele>1657.193</ele>
        <time>2018-08-10T04:15:55Z</time>
      </trkpt>
      <trkpt lat="46.30836" lon="10.49074">
        <ele>1656.739</ele>
        <time>2018-08-10T04:16:15Z</time>
      </trkpt>
      <trkpt lat="46.30838" lon="10.49077">
        <ele>1656.353</ele>
        <time>2018-08-10T04:16:35Z</time>
      </trkpt>
      <trkpt lat="46.30839" lon="10.49079">
        <ele>1656.058</ele>
        <time>2018-08-10T04:16:55Z</time>
      </trkpt>
      <trkpt lat="46.30841" lon="10.49082">
        <ele>1655.619</ele>
        <time>2018-08-10T04:17:15Z</time>
      </trkpt>
      <trkpt lat="46.30843" lon="10.49083">
        <ele>1655.316</ele>
        <time>2018-08-10T04:17:35Z</time>
      </trkpt>
      <trkpt lat="46.30845" lon="10.49084">
        <ele>1655.189</ele>
        <time>2018-08-10T04:17:55Z</time>
      </trkpt>
      <trkpt lat="46.30848" lon="10.49084">
        <ele>1654.967</ele>
        <time>2018-08-10T04:18:15Z</time>
      </trkpt>
      <trkpt lat="46.3085" lon="10.49084">
        <ele>1654.781</ele>
        <time>2018-08-10T04:18:35Z</time>
      </trkpt>
      <trkpt lat="46.30852" lon="10.49084">
        <ele>1654.619</ele>
        <time>2018-08-10T04:18:55Z</time>
      </trkpt>
      <trkpt lat="46.30855" lon="10.49083">
        <ele>1654.408</ele>
        <time>2018-08-10T04:19:15Z</time>
      </trkpt>
      <trkpt lat="46.30856" lon="10.49083">
        <ele>1654.318</ele>
        <time>2018-08-10T04:19:35Z</time>
      </trkpt>
      <trkpt lat="46.30858" lon="10.49082">
        <ele>1654.313</ele>
        <time>2018-08-10T04:19:55Z</time>
      </trkpt>
      <trkpt lat="46.3086" lon="10.49081">
        <ele>1654.399</ele>
        <time>2018-08-10T04:20:15Z</time>
      </trkpt>
      <trkpt lat="46.30862" lon="10.49079">
        <ele>1654.433</ele>
        <time>2018-08-10T04:20:35Z</time>
      </trkpt>
      <trkpt lat="46.30863" lon="10.49077">
        <ele>1654.618</ele>
        <time>2018-08-10T04:20:55Z</time>
      </trkpt>
      <trkpt lat="46.30865" lon="10.49076">
        <ele>1654.739</ele>
        <time>2018-08-10T04:21:15Z</time>
      </trkpt>
      <trkpt lat="46.30867" lon="10.49075">
        <ele>1654.896</ele>
        <time>2018-08-10T04:21:35Z</time>
      </trkpt>
      <trkpt lat="46.30869" lon="10.49076">
        <ele>1654.719</ele>
        <time>2018-08-10T04:21:55Z</time>
      </trkpt>
      <trkpt lat="46.3087" lon="10.49079">
        <ele>1654.443</ele>
        <time>2018-08-10T04:22:15Z</time>
      </trkpt>
      <trkpt lat="46.3087" lon="10.49081">
        <ele>1654.264</ele>
        <time>2018-08-10T04:22:35Z</time>
      </trkpt>
      <trkpt lat="46.30871" lon="10.49084">
        <ele>1653.91</ele>
        <time>2018-08-10T04:22:55Z</time>
      </trkpt>
      <trkpt lat="46.30872" lon="10.49087">
        <ele>1653.708</ele>
        <time>2018-08-10T04:23:15Z</time>
      </trkpt>
      <trkpt lat="46.30873" lon="10.4909">
        <ele>1653.426</ele>
        <time>2018-08-10T04:23:35Z</time>
      </trkpt>
      <trkpt lat="46.30875" lon="10.49092">
        <ele>1653.141</ele>
        <time>2018-08-10T04:23:55Z</time>
      </trkpt>
      <trkpt lat="46.30876" lon="10.49095">
        <ele>1652.957</ele>
        <time>2018-08-10T04:24:15Z</time>
      </trkpt>
      <trkpt lat="46.30884" lon="10.49112">
        <ele>1651.141</ele>
        <time>2018-08-10T04:24:35Z</time>
      </trkpt>
      <trkpt lat="46.30884" lon="10.49113">
        <ele>1651.136</ele>
        <time>2018-08-10T04:24:55Z</time>
      </trkpt>
      <trkpt lat="46.30885" lon="10.49116">
        <ele>1650.967</ele>
        <time>2018-08-10T04:25:15Z</time>
      </trkpt>
      <trkpt lat="46.30885" lon="10.49117">
        <ele>1650.934</ele>
        <time>2018-08-10T04:25:35Z</time>
      </trkpt>
      <trkpt lat="46.30884" lon="10.49118">
        <ele>1650.827</ele>
        <time>2018-08-10T04:25:55Z</time>
      </trkpt>
      <trkpt lat="46.30874" lon="10.49142">
        <ele>1650.095</ele>
        <time>2018-08-10T04:26:15Z</time>
      </trkpt>
      <trkpt lat="46.30872" lon="10.49155">
        <ele>1650.249</ele>
        <time>2018-08-10T04:26:35Z</time>
      </trkpt>
      <trkpt lat="46.3086" lon="10.49177">
        <ele>1650.023</ele>
        <time>2018-08-10T04:26:55Z</time>
      </trkpt>
      <trkpt lat="46.30837" lon="10.49207">
        <ele>1650.008</ele>
        <time>2018-08-10T04:27:15Z</time>
      </trkpt>
      <trkpt lat="46.3082" lon="10.49231">
        <ele>1650.031</ele>
        <time>2018-08-10T04:27:35Z</time>
      </trkpt>
      <trkpt lat="46.30815" lon="10.49248">
        <ele>1650.036</ele>
        <time>2018-08-10T04:27:55Z</time>
      </trkpt>
      <trkpt lat="46.30808" lon="10.49265">
        <ele>1650.072</ele>
        <time>2018-08-10T04:28:15Z</time>
      </trkpt>
      <trkpt lat="46.30804" lon="10.49273">
        <ele>1649.736</ele>
        <time>2018-08-10T04:28:35Z</time>
      </trkpt>
      <trkpt lat="46.30797" lon="10.49283">
        <ele>1648.521</ele>
        <time>2018-08-10T04:28:55Z</time>
      </trkpt>
      <trkpt lat="46.30785" lon="10.49301">
        <ele>1645.842</ele>
        <time>2018-08-10T04:29:15Z</time>
      </trkpt>
      <trkpt lat="46.3077" lon="10.49333">
        <ele>1639.829</ele>
        <time>2018-08-10T04:29:35Z</time>
      </trkpt>
      <trkpt lat="46.30764" lon="10.49351">
        <ele>1639.532</ele>
        <time>2018-08-10T04:29:55Z</time>
      </trkpt>
      <trkpt lat="46.3075" lon="10.49371">
        <ele>1637.062</ele>
        <time>2018-08-10T04:30:15Z</time>
      </trkpt>
      <trkpt lat="46.30714" lon="10.49441">
        <ele>1632.383</ele>
        <time>2018-08-10T04:30:35Z</time>
      </trkpt>
      <trkpt lat="46.307" lon="10.49462">
        <ele>1629.511</ele>
        <time>2018-08-10T04:30:55Z</time>
      </trkpt>
      <trkpt lat="46.30683" lon="10.49473">
        <ele>1627.408</ele>
        <time>2018-08-10T04:31:15Z</time>
      </trkpt>
      <trkpt lat="46.30664" lon="10.49485">
        <ele>1625.068</ele>
        <time>2018-08-10T04:31:35Z</time>
      </trkpt>
      <trkpt lat="46.30642" lon="10.49495">
        <ele>1625.033</ele>
        <time>2018-08-10T04:31:55Z</time>
      </trkpt>
      <trkpt lat="46.30621" lon="10.4951">
        <ele>1625.089</ele>
        <time>2018-08-10T04:32:15Z</time>
      </trkpt>
      <trkpt lat="46.30606" lon="10.49521">
        <ele>1625.033</ele>
        <time>2018-08-10T04:32:35Z</time>
      </trkpt>
      <trkpt lat="46.30582" lon="10.4953">
        <ele>1625.028</ele>
        <time>2018-08-10T04:32:55Z</time>
      </trkpt>
      <trkpt lat="46.30563" lon="10.49548">
        <ele>1625.079</ele>
        <time>2018-08-10T04:33:15Z</time>
      </trkpt>
      <trkpt lat="46.30546" lon="10.49563">
        <ele>1624.956</ele>
        <time>2018-08-10T04:33:35Z</time>
      </trkpt>
      <trkpt lat="46.30534" lon="10.49574">
        <ele>1624.479</ele>
        <time>2018-08-10T04:33:55Z</time>
      </trkpt>
      <trkpt lat="46.30529" lon="10.49581">
        <ele>1624.145</ele>
        <time>2018-08-10T04:34:15Z</time>
      </trkpt>
      <trkpt lat="46.30498" lon="10.4962">
        <ele>1617.747</ele>
        <time>2018-08-10T04:34:35Z</time>
      </trkpt>
      <trkpt lat="46.30481" lon="10.49646">
        <ele>1612.511</ele>
        <time>2018-08-10T04:34:55Z</time>
      </trkpt>
      <trkpt lat="46.30475" lon="10.49658">
        <ele>1611.708</ele>
        <time>2018-08-10T04:35:15Z</time>
      </trkpt>
      <trkpt lat="46.30474" lon="10.49659">
        <ele>1611.626</ele>
        <time>2018-08-10T04:35:35Z</time>
      </trkpt>
      <trkpt lat="46.30472" lon="10.49661">
        <ele>1611.411</ele>
        <time>2018-08-10T04:35:55Z</time>
      </trkpt>
      <trkpt lat="46.30436" lon="10.49729">
        <ele>1607.047</ele>
        <time>2018-08-10T04:36:15Z</time>
      </trkpt>
      <trkpt lat="46.30418" lon="10.49767">
        <ele>1604.671</ele>
        <time>2018-08-10T04:36:35Z</time>
      </trkpt>
      <trkpt lat="46.30414" lon="10.49776">
        <ele>1604.446</ele>
        <time>2018-08-10T04:36:55Z</time>
      </trkpt>
      <trkpt lat="46.30396" lon="10.49813">
        <ele>1602.057</ele>
        <time>2018-08-10T04:37:15Z</time>
      </trkpt>
      <trkpt lat="46.30395" lon="10.49816">
        <ele>1601.634</ele>
        <time>2018-08-10T04:37:35Z</time>
      </trkpt>
      <trkpt lat="46.30392" lon="10.49824">
        <ele>1600.947</ele>
        <time>2018-08-10T04:37:55Z</time>
      </trkpt>
      <trkpt lat="46.3039" lon="10.49828">
        <ele>1600.393</ele>
        <time>2018-08-10T04:38:15Z</time>
      </trkpt>
      <trkpt lat="46.30373" lon="10.49871">
        <ele>1600.065</ele>
        <time>2018-08-10T04:38:35Z</time>
      </trkpt>
      <trkpt lat="46.30371" lon="10.49875">
        <ele>1600.021</ele>
        <time>2018-08-10T04:38:55Z</time>
      </trkpt>
      <trkpt lat="46.3037" lon="10.49877">
        <ele>1600.008</ele>
        <time>2018-08-10T04:39:15Z</time>
      </trkpt>
      <trkpt lat="46.30364" lon="10.49889">
        <ele>1600.021</ele>
        <time>2018-08-10T04:39:35Z</time>
      </trkpt>
      <trkpt lat="46.30357" lon="10.49903">
        <ele>1600.026</ele>
        <time>2018-08-10T04:39:55Z</time>
      </trkpt>
      <trkpt lat="46.30347" lon="10.4992">
        <ele>1600.042</ele>
        <time>2018-08-10T04:40:15Z</time>
      </trkpt>
      <trkpt lat="46.30345" lon="10.49924">
        <ele>1600.016</ele>
        <time>2018-08-10T04:40:35Z</time>
      </trkpt>
      <trkpt lat="46.30332" lon="10.49944">
        <ele>1600.071</ele>
        <time>2018-08-10T04:40:55Z</time>
      </trkpt>
      <trkpt lat="46.30332" lon="10.49945">
        <ele>1600.032</ele>
        <time>2018-08-10T04:41:15Z</time>
      </trkpt>
      <trkpt lat="46.30326" lon="10.49952">
        <ele>1600.089</ele>
        <time>2018-08-10T04:41:35Z</time>
      </trkpt>
      <trkpt lat="46.3032" lon="10.4996">
        <ele>1600.082</ele>
        <time>2018-08-10T04:41:55Z</time>
      </trkpt>
      <trkpt lat="46.30313" lon="10.49967">
        <ele>1600.087</ele>
        <time>2018-08-10T04:42:15Z</time>
      </trkpt>
      <trkpt lat="46.30306" lon="10.49973">
        <ele>1600.042</ele>
        <time>2018-08-10T04:42:35Z</time>
      </trkpt>
      <trkpt lat="46.30301" lon="10.49977">
        <ele>1600.026</ele>
        <time>2018-08-10T04:42:55Z</time>
      </trkpt>
      <trkpt lat="46.30298" lon="10.4998">
        <ele>1600.008</ele>
        <time>2018-08-10T04:43:15Z</time>
      </trkpt>
      <trkpt lat="46.30294" lon="10.49982">
        <ele>1600.09</ele>
        <time>2018-08-10T04:43:35Z</time>
      </trkpt>
      <trkpt lat="46.30289" lon="10.49986">
        <ele>1600.035</ele>
        <time>2018-08-10T04:43:55Z</time>
      </trkpt>
      <trkpt lat="46.30277" lon="10.49989">
        <ele>1600.021</ele>
        <time>2018-08-10T04:44:15Z</time>
      </trkpt>
      <trkpt lat="46.30275" lon="10.4999">
        <ele>1600.015</ele>
        <time>2018-08-10T04:44:35Z</time>
      </trkpt>
      <trkpt lat="46.30274" lon="10.49991">
        <ele>1600.01</ele>
        <time>2018-08-10T04:44:55Z</time>
      </trkpt>
      <trkpt lat="46.30273" lon="10.49991">
        <ele>1600.041</ele>
        <time>2018-08-10T04:45:15Z</time>
      </trkpt>
      <trkpt lat="46.30271" lon="10.49991">
        <ele>1600.028</ele>
        <time>2018-08-10T04:45:35Z</time>
      </trkpt>
      <trkpt lat="46.30267" lon="10.49995">
        <ele>1600.011</ele>
        <time>2018-08-10T04:45:55Z</time>
      </trkpt>
      <trkpt lat="46.30243" lon="10.50004">
        <ele>1600.014</ele>
        <time>2018-08-10T04:46:15Z</time>
      </trkpt>
      <trkpt lat="46.30242" lon="10.50004">
        <ele>1600.054</ele>
        <time>2018-08-10T04:46:35Z</time>
      </trkpt>
      <trkpt lat="46.3024" lon="10.50006">
        <ele>1600.009</ele>
        <time>2018-08-10T04:46:55Z</time>
      </trkpt>
      <trkpt lat="46.30238" lon="10.50007">
        <ele>1600.008</ele>
        <time>2018-08-10T04:47:15Z</time>
      </trkpt>
      <trkpt lat="46.30236" lon="10.50008">
        <ele>1600.063</ele>
        <time>2018-08-10T04:47:35Z</time>
      </trkpt>
      <trkpt lat="46.30234" lon="10.50009">
        <ele>1600.028</ele>
        <time>2018-08-10T04:47:55Z</time>
      </trkpt>
      <trkpt lat="46.30231" lon="10.5001">
        <ele>1600.044</ele>
        <time>2018-08-10T04:48:15Z</time>
      </trkpt>
      <trkpt lat="46.30229" lon="10.50011">
        <ele>1600.068</ele>
        <time>2018-08-10T04:48:35Z</time>
      </trkpt>
      <trkpt lat="46.30229" lon="10.50011">
        <ele>1600.023</ele>
        <time>2018-08-10T04:48:55Z</time>
      </trkpt>
      <trkpt lat="46.30221" lon="10.5002">
        <ele>1600.044</ele>
        <time>2018-08-10T04:49:15Z</time>
      </trkpt>
      <trkpt lat="46.30221" lon="10.5002">
        <ele>1600.011</ele>
        <time>2018-08-10T04:49:35Z</time>
      </trkpt>
      <trkpt lat="46.3022" lon="10.5002">
        <ele>1600.064</ele>
        <time>2018-08-10T04:49:55Z</time>
      </trkpt>
      <trkpt lat="46.30219" lon="10.5002">
        <ele>1600.037</ele>
        <time>2018-08-10T04:50:15Z</time>
      </trkpt>
      <trkpt lat="46.30218" lon="10.50021">
        <ele>1600.049</ele>
        <time>2018-08-10T04:50:35Z</time>
      </trkpt>
      <trkpt lat="46.30212" lon="10.50024">
        <ele>1600.013</ele>
        <time>2018-08-10T04:50:55Z</time>
      </trkpt>
      <trkpt lat="46.30207" lon="10.50026">
        <ele>1600.008</ele>
        <time>2018-08-10T04:51:15Z</time>
      </trkpt>
      <trkpt lat="46.30204" lon="10.50028">
        <ele>1600.085</ele>
        <time>2018-08-10T04:51:35Z</time>
      </trkpt>
      <trkpt lat="46.302" lon="10.50032">
        <ele>1600.01</ele>
        <time>2018-08-10T04:51:55Z</time>
      </trkpt>
      <trkpt lat="46.30194" lon="10.50038">
        <ele>1600.046</ele>
        <time>2018-08-10T04:52:15Z</time>
      </trkpt>
      <trkpt lat="46.3019" lon="10.50041">
        <ele>1600.01</ele>
        <time>2018-08-10T04:52:35Z</time>
      </trkpt>
      <trkpt lat="46.30186" lon="10.50043">
        <ele>1600.015</ele>
        <time>2018-08-10T04:52:55Z</time>
      </trkpt>
      <trkpt lat="46.30182" lon="10.50046">
        <ele>1600.076</ele>
        <time>2018-08-10T04:53:15Z</time>
      </trkpt>
      <trkpt lat="46.30179" lon="10.50048">
        <ele>1600.033</ele>
        <time>2018-08-10T04:53:35Z</time>
      </trkpt>
      <trkpt lat="46.30172" lon="10.50051">
        <ele>1600.046</ele>
        <time>2018-08-10T04:53:55Z</time>
      </trkpt>
      <trkpt lat="46.30168" lon="10.50054">
        <ele>1600.084</ele>
        <time>2018-08-10T04:54:15Z</time>
      </trkpt>
      <trkpt lat="46.30159" lon="10.50064">
        <ele>1600.007</ele>
        <time>2018-08-10T04:54:35Z</time>
      </trkpt>
      <trkpt lat="46.30157" lon="10.50065">
        <ele>1600.017</ele>
        <time>2018-08-10T04:54:55Z</time>
      </trkpt>
      <trkpt lat="46.30154" lon="10.50068">
        <ele>1600.008</ele>
        <time>2018-08-10T04:55:15Z</time>
      </trkpt>
      <trkpt lat="46.30151" lon="10.50071">
        <ele>1600.09</ele>
        <time>2018-08-10T04:55:35Z</time>
      </trkpt>
      <trkpt lat="46.30151" lon="10.50071">
        <ele>1600.055</ele>
        <time>2018-08-10T04:55:55Z</time>
      </trkpt>
      <trkpt lat="46.30149" lon="10.50075">
        <ele>1600.051</ele>
        <time>2018-08-10T04:56:15Z</time>
      </trkpt>
      <trkpt lat="46.30142" lon="10.50085">
        <ele>1600.085</ele>
        <time>2018-08-10T04:56:35Z</time>
      </trkpt>
      <trkpt lat="46.30141" lon="10.50087">
        <ele>1600.07</ele>
        <time>2018-08-10T04:56:55Z</time>
      </trkpt>
      <trkpt lat="46.3014" lon="10.50089">
        <ele>1600.021</ele>
        <time>2018-08-10T04:57:15Z</time>
      </trkpt>
      <trkpt lat="46.30137" lon="10.50093">
        <ele>1600.078</ele>
        <time>2018-08-10T04:57:35Z</time>
      </trkpt>
      <trkpt lat="46.30134" lon="10.50097">
        <ele>1600.031</ele>
        <time>2018-08-10T04:57:55Z</time>
      </trkpt>
      <trkpt lat="46.30131" lon="10.50099">
        <ele>1600.056</ele>
        <time>2018-08-10T04:58:15Z</time>
      </trkpt>
      <trkpt lat="46.30128" lon="10.50102">
        <ele>1600.059</ele>
        <time>2018-08-10T04:58:35Z</time>
      </trkpt>
      <trkpt lat="46.30126" lon="10.50104">
        <ele>1600.014</ele>
        <time>2018-08-10T04:58:55Z</time>
      </trkpt>
      <trkpt lat="46.30123" lon="10.50106">
        <ele>1600.008</ele>
        <time>2018-08-10T04:59:15Z</time>
      </trkpt>
      <trkpt lat="46.3012" lon="10.50109">
        <ele>1600.067</ele>
        <time>2018-08-10T04:59:35Z</time>
      </trkpt>
      <trkpt lat="46.30117" lon="10.50111">
        <ele>1600.022</ele>
        <time>2018-08-10T04:59:55Z</time>
      </trkpt>
      <trkpt lat="46.30115" lon="10.50114">
        <ele>1600.038</ele>
        <time>2018-08-10T05:00:15Z</time>
      </trkpt>
      <trkpt lat="46.30112" lon="10.50117">
        <ele>1600.022</ele>
        <time>2018-08-10T05:00:35Z</time>
      </trkpt>
      <trkpt lat="46.3011" lon="10.50119">
        <ele>1600.037</ele>
        <time>2018-08-10T05:00:55Z</time>
      </trkpt>
      <trkpt lat="46.30107" lon="10.50122">
        <ele>1600.098</ele>
        <time>2018-08-10T05:01:15Z</time>
      </trkpt>
      <trkpt lat="46.30105" lon="10.50125">
        <ele>1600.065</ele>
        <time>2018-08-10T05:01:35Z</time>
      </trkpt>
      <trkpt lat="46.30102" lon="10.50127">
        <ele>1600.048</ele>
        <time>2018-08-10T05:01:55Z</time>
      </trkpt>
      <trkpt lat="46.301" lon="10.5013">
        <ele>1600.098</ele>
        <time>2018-08-10T05:02:15Z</time>
      </trkpt>
      <trkpt lat="46.30097" lon="10.50132">
        <ele>1600.015</ele>
        <time>2018-08-10T05:02:35Z</time>
      </trkpt>
      <trkpt lat="46.30094" lon="10.50135">
        <ele>1600.026</ele>
        <time>2018-08-10T05:02:55Z</time>
      </trkpt>
      <trkpt lat="46.30091" lon="10.50138">
        <ele>1600.008</ele>
        <time>2018-08-10T05:03:15Z</time>
      </trkpt>
      <trkpt lat="46.30089" lon="10.50141">
        <ele>1600.021</ele>
        <time>2018-08-10T05:03:35Z</time>
      </trkpt>
      <trkpt lat="46.30086" lon="10.50144">
        <ele>1600.076</ele>
        <time>2018-08-10T05:03:55Z</time>
      </trkpt>
      <trkpt lat="46.30084" lon="10.50148">
        <ele>1600.012</ele>
        <time>2018-08-10T05:04:15Z</time>
      </trkpt>
      <trkpt lat="46.30081" lon="10.50151">
        <ele>1600.076</ele>
        <time>2018-08-10T05:04:35Z</time>
      </trkpt>
      <trkpt lat="46.30079" lon="10.50155">
        <ele>1600.051</ele>
        <time>2018-08-10T05:04:55Z</time>
      </trkpt>
      <trkpt lat="46.30077" lon="10.50159">
        <ele>1600.052</ele>
        <time>2018-08-10T05:05:15Z</time>
      </trkpt>
      <trkpt lat="46.30075" lon="10.50162">
        <ele>1600.049</ele>
        <time>2018-08-10T05:05:35Z</time>
      </trkpt>
      <trkpt lat="46.30073" lon="10.50166">
        <ele>1600.012</ele>
        <time>2018-08-10T05:05:55Z</time>
      </trkpt>
      <trkpt lat="46.30071" lon="10.50169">
        <ele>1600.029</ele>
        <time>2018-08-10T05:06:15Z</time>
      </trkpt>
      <trkpt lat="46.30069" lon="10.50172">
        <ele>1600</ele>
        <time>2018-08-10T05:06:35Z</time>
      </trkpt>
      <trkpt lat="46.30067" lon="10.50176">
        <ele>1600.02</ele>
        <time>2018-08-10T05:06:55Z</time>
      </trkpt>
      <trkpt lat="46.30066" lon="10.50177">
        <ele>1600.008</ele>
        <time>2018-08-10T05:07:15Z</time>
      </trkpt>
      <trkpt lat="46.30063" lon="10.50183">
        <ele>1600.014</ele>
        <time>2018-08-10T05:07:35Z</time>
      </trkpt>
      <trkpt lat="46.30059" lon="10.50192">
        <ele>1600.019</ele>
        <time>2018-08-10T05:07:55Z</time>
      </trkpt>
      <trkpt lat="46.30058" lon="10.50195">
        <ele>1600.075</ele>
        <time>2018-08-10T05:08:15Z</time>
      </trkpt>
      <trkpt lat="46.30056" lon="10.50198">
        <ele>1600.069</ele>
        <time>2018-08-10T05:08:35Z</time>
      </trkpt>
      <trkpt lat="46.30055" lon="10.50201">
        <ele>1600.024</ele>
        <time>2018-08-10T05:08:55Z</time>
      </trkpt>
      <trkpt lat="46.30052" lon="10.5021">
        <ele>1600.045</ele>
        <time>2018-08-10T05:09:15Z</time>
      </trkpt>
      <trkpt lat="46.3005" lon="10.50219">
        <ele>1600.072</ele>
        <time>2018-08-10T05:09:35Z</time>
      </trkpt>
      <trkpt lat="46.30048" lon="10.50224">
        <ele>1600.025</ele>
        <time>2018-08-10T05:09:55Z</time>
      </trkpt>
      <trkpt lat="46.30046" lon="10.5023">
        <ele>1600.064</ele>
        <time>2018-08-10T05:10:15Z</time>
      </trkpt>
      <trkpt lat="46.30045" lon="10.50233">
        <ele>1600.006</ele>
        <time>2018-08-10T05:10:35Z</time>
      </trkpt>
      <trkpt lat="46.30042" lon="10.50239">
        <ele>1600.016</ele>
        <time>2018-08-10T05:10:55Z</time>
      </trkpt>
      <trkpt lat="46.30042" lon="10.5024">
        <ele>1600.008</ele>
        <time>2018-08-10T05:11:15Z</time>
      </trkpt>
      <trkpt lat="46.30037" lon="10.50263">
        <ele>1600.078</ele>
        <time>2018-08-10T05:11:35Z</time>
      </trkpt>
      <trkpt lat="46.30036" lon="10.50269">
        <ele>1600.043</ele>
        <time>2018-08-10T05:11:55Z</time>
      </trkpt>
      <trkpt lat="46.30033" lon="10.50279">
        <ele>1600.029</ele>
        <time>2018-08-10T05:12:15Z</time>
      </trkpt>
      <trkpt lat="46.30027" lon="10.50309">
        <ele>1600.053</ele>
        <time>2018-08-10T05:12:35Z</time>
      </trkpt>
      <trkpt lat="46.30024" lon="10.50322">
        <ele>1600.098</ele>
        <time>2018-08-10T05:12:55Z</time>
      </trkpt>
      <trkpt lat="46.30021" lon="10.50336">
        <ele>1600.029</ele>
        <time>2018-08-10T05:13:15Z</time>
      </trkpt>
      <trkpt lat="46.30021" lon="10.50341">
        <ele>1600.036</ele>
        <time>2018-08-10T05:13:35Z</time>
      </trkpt>
      <trkpt lat="46.3002" lon="10.50345">
        <ele>1600.059</ele>
        <time>2018-08-10T05:13:55Z</time>
      </trkpt>
      <trkpt lat="46.3002" lon="10.50348">
        <ele>1600.011</ele>
        <time>2018-08-10T05:14:15Z</time>
      </trkpt>
      <trkpt lat="46.30019" lon="10.50361">
        <ele>1600.021</ele>
        <time>2018-08-10T05:14:35Z</time>
      </trkpt>
      <trkpt lat="46.30019" lon="10.50373">
        <ele>1600.003</ele>
        <time>2018-08-10T05:14:55Z</time>
      </trkpt>
      <trkpt lat="46.30018" lon="10.50377">
        <ele>1600.008</ele>
        <time>2018-08-10T05:15:15Z</time>
      </trkpt>
      <trkpt lat="46.30018" lon="10.5038">
        <ele>1600.053</ele>
        <time>2018-08-10T05:15:35Z</time>
      </trkpt>
      <trkpt lat="46.30018" lon="10.5038">
        <ele>1600.018</ele>
        <time>2018-08-10T05:15:55Z</time>
      </trkpt>
      <trkpt lat="46.30012" lon="10.50397">
        <ele>1600.034</ele>
        <time>2018-08-10T05:16:15Z</time>
      </trkpt>
      <trkpt lat="46.30005" lon="10.50408">
        <ele>1600.078</ele>
        <time>2018-08-10T05:16:35Z</time>
      </trkpt>
      <trkpt lat="46.29999" lon="10.5042">
        <ele>1600.023</ele>
        <time>2018-08-10T05:16:55Z</time>
      </trkpt>
      <trkpt lat="46.29995" lon="10.50428">
        <ele>1600.084</ele>
        <time>2018-08-10T05:17:15Z</time>
      </trkpt>
      <trkpt lat="46.29992" lon="10.50433">
        <ele>1600.091</ele>
        <time>2018-08-10T05:17:35Z</time>
      </trkpt>
      <trkpt lat="46.29989" lon="10.50437">
        <ele>1600.094</ele>
        <time>2018-08-10T05:17:55Z</time>
      </trkpt>
      <trkpt lat="46.29923" lon="10.50528">
        <ele>1600.261</ele>
        <time>2018-08-10T05:18:15Z</time>
      </trkpt>
      <trkpt lat="46.29919" lon="10.50533">
        <ele>1600.321</ele>
        <time>2018-08-10T05:18:35Z</time>
      </trkpt>
      <trkpt lat="46.29914" lon="10.50537">
        <ele>1600.313</ele>
        <time>2018-08-10T05:18:55Z</time>
      </trkpt>
      <trkpt lat="46.29909" lon="10.50541">
        <ele>1600.308</ele>
        <time>2018-08-10T05:19:15Z</time>
      </trkpt>
      <trkpt lat="46.29903" lon="10.50547">
        <ele>1600.358</ele>
        <time>2018-08-10T05:19:35Z</time>
      </trkpt>
      <trkpt lat="46.29888" lon="10.5056">
        <ele>1600.123</ele>
        <time>2018-08-10T05:19:55Z</time>
      </trkpt>
      <trkpt lat="46.29883" lon="10.50564">
        <ele>1600.269</ele>
        <time>2018-08-10T05:20:15Z</time>
      </trkpt>
      <trkpt lat="46.29875" lon="10.50572">
        <ele>1600.253</ele>
        <time>2018-08-10T05:20:35Z</time>
      </trkpt>
      <trkpt lat="46.2987" lon="10.50577">
        <ele>1600.248</ele>
        <time>2018-08-10T05:20:55Z</time>
      </trkpt>
      <trkpt lat="46.29864" lon="10.50583">
        <ele>1600.019</ele>
        <time>2018-08-10T05:21:15Z</time>
      </trkpt>
      <trkpt lat="46.29858" lon="10.50588">
        <ele>1600.186</ele>
        <time>2018-08-10T05:21:35Z</time>
      </trkpt>
      <trkpt lat="46.29847" lon="10.50594">
        <ele>1600.199</ele>
        <time>2018-08-10T05:21:55Z</time>
      </trkpt>
      <trkpt lat="46.29831" lon="10.50601">
        <ele>1600.072</ele>
        <time>2018-08-10T05:22:15Z</time>
      </trkpt>
      <trkpt lat="46.2982" lon="10.50605">
        <ele>1600.013</ele>
        <time>2018-08-10T05:22:35Z</time>
      </trkpt>
      <trkpt lat="46.29786" lon="10.50621">
        <ele>1600.014</ele>
        <time>2018-08-10T05:22:55Z</time>
      </trkpt>
      <trkpt lat="46.29759" lon="10.50624">
        <ele>1600.008</ele>
        <time>2018-08-10T05:23:15Z</time>
      </trkpt>
      <trkpt lat="46.29752" lon="10.50631">
        <ele>1600.029</ele>
        <time>2018-08-10T05:23:35Z</time>
      </trkpt>
      <trkpt lat="46.29733" lon="10.50648">
        <ele>1600.054</ele>
        <time>2018-08-10T05:23:55Z</time>
      </trkpt>
      <trkpt lat="46.29731" lon="10.50649">
        <ele>1600.01</ele>
        <time>2018-08-10T05:24:15Z</time>
      </trkpt>
      <trkpt lat="46.29711" lon="10.5066">
        <ele>1600.064</ele>
        <time>2018-08-10T05:24:35Z</time>
      </trkpt>
      <trkpt lat="46.29696" lon="10.50668">
        <ele>1600.019</ele>
        <time>2018-08-10T05:24:55Z</time>
      </trkpt>
      <trkpt lat="46.2969" lon="10.50671">
        <ele>1600.03</ele>
        <time>2018-08-10T05:25:15Z</time>
      </trkpt>
      <trkpt lat="46.29687" lon="10.50673">
        <ele>1600.037</ele>
        <time>2018-08-10T05:25:35Z</time>
      </trkpt>
      <trkpt lat="46.29675" lon="10.50686">
        <ele>1600.02</ele>
        <time>2018-08-10T05:25:55Z</time>
      </trkpt>
      <trkpt lat="46.29675" lon="10.50686">
        <ele>1600.018</ele>
        <time>2018-08-10T05:26:15Z</time>
      </trkpt>
      <trkpt lat="46.29666" lon="10.50693">
        <ele>1600.098</ele>
        <time>2018-08-10T05:26:35Z</time>
      </trkpt>
      <trkpt lat="46.29649" lon="10.50711">
        <ele>1600.017</ele>
        <time>2018-08-10T05:26:55Z</time>
      </trkpt>
      <trkpt lat="46.29642" lon="10.50724">
        <ele>1600.008</ele>
        <time>2018-08-10T05:27:15Z</time>
      </trkpt>
      <trkpt lat="46.29625" lon="10.50737">
        <ele>1600.083</ele>
        <time>2018-08-10T05:27:35Z</time>
      </trkpt>
      <trkpt lat="46.29615" lon="10.50748">
        <ele>1600.088</ele>
        <time>2018-08-10T05:27:55Z</time>
      </trkpt>
      <trkpt lat="46.29597" lon="10.50758">
        <ele>1600.064</ele>
        <time>2018-08-10T05:28:15Z</time>
      </trkpt>
      <trkpt lat="46.29594" lon="10.5076">
        <ele>1600.038</ele>
        <time>2018-08-10T05:28:35Z</time>
      </trkpt>
      <trkpt lat="46.29576" lon="10.50776">
        <ele>1600.093</ele>
        <time>2018-08-10T05:28:55Z</time>
      </trkpt>
      <trkpt lat="46.29551" lon="10.50795">
        <ele>1600.024</ele>
        <time>2018-08-10T05:29:15Z</time>
      </trkpt>
      <trkpt lat="46.2953" lon="10.50822">
        <ele>1600.021</ele>
        <time>2018-08-10T05:29:35Z</time>
      </trkpt>
      <trkpt lat="46.29523" lon="10.50844">
        <ele>1600.014</ele>
        <time>2018-08-10T05:29:55Z</time>
      </trkpt>
      <trkpt lat="46.29512" lon="10.50869">
        <ele>1600.061</ele>
        <time>2018-08-10T05:30:15Z</time>
      </trkpt>
      <trkpt lat="46.29499" lon="10.50898">
        <ele>1600.021</ele>
        <time>2018-08-10T05:30:35Z</time>
      </trkpt>
      <trkpt lat="46.29493" lon="10.50907">
        <ele>1600.013</ele>
        <time>2018-08-10T05:30:55Z</time>
      </trkpt>
      <trkpt lat="46.29482" lon="10.50918">
        <ele>1600.008</ele>
        <time>2018-08-10T05:31:15Z</time>
      </trkpt>
      <trkpt lat="46.2944" lon="10.50965">
        <ele>1600.318</ele>
        <time>2018-08-10T05:31:35Z</time>
      </trkpt>
      <trkpt lat="46.29428" lon="10.50974">
        <ele>1598.673</ele>
        <time>2018-08-10T05:31:55Z</time>
      </trkpt>
      <trkpt lat="46.29422" lon="10.50982">
        <ele>1598.489</ele>
        <time>2018-08-10T05:32:15Z</time>
      </trkpt>
      <trkpt lat="46.2942" lon="10.51002">
        <ele>1600.743</ele>
        <time>2018-08-10T05:32:35Z</time>
      </trkpt>
      <trkpt lat="46.29426" lon="10.51012">
        <ele>1602.698</ele>
        <time>2018-08-10T05:32:55Z</time>
      </trkpt>
      <trkpt lat="46.29435" lon="10.51018">
        <ele>1604.939</ele>
        <time>2018-08-10T05:33:15Z</time>
      </trkpt>
      <trkpt lat="46.29445" lon="10.5102">
        <ele>1607.276</ele>
        <time>2018-08-10T05:33:35Z</time>
      </trkpt>
      <trkpt lat="46.29457" lon="10.5101">
        <ele>1606.659</ele>
        <time>2018-08-10T05:33:55Z</time>
      </trkpt>
      <trkpt lat="46.29464" lon="10.50998">
        <ele>1605.589</ele>
        <time>2018-08-10T05:34:15Z</time>
      </trkpt>
      <trkpt lat="46.29474" lon="10.50991">
        <ele>1605.306</ele>
        <time>2018-08-10T05:34:35Z</time>
      </trkpt>
      <trkpt lat="46.29491" lon="10.51">
        <ele>1609.326</ele>
        <time>2018-08-10T05:34:55Z</time>
      </trkpt>
      <trkpt lat="46.29513" lon="10.5102">
        <ele>1620.308</ele>
        <time>2018-08-10T05:35:15Z</time>
      </trkpt>
      <trkpt lat="46.29524" lon="10.51024">
        <ele>1625.61</ele>
        <time>2018-08-10T05:35:35Z</time>
      </trkpt>
      <trkpt lat="46.29543" lon="10.51036">
        <ele>1632.695</ele>
        <time>2018-08-10T05:35:55Z</time>
      </trkpt>
      <trkpt lat="46.29548" lon="10.51045">
        <ele>1635.921</ele>
        <time>2018-08-10T05:36:15Z</time>
      </trkpt>
      <trkpt lat="46.29546" lon="10.51059">
        <ele>1638.795</ele>
        <time>2018-08-10T05:36:35Z</time>
      </trkpt>
      <trkpt lat="46.29537" lon="10.51071">
        <ele>1639.42</ele>
        <time>2018-08-10T05:36:55Z</time>
      </trkpt>
      <trkpt lat="46.29531" lon="10.5108">
        <ele>1639.881</ele>
        <time>2018-08-10T05:37:15Z</time>
      </trkpt>
      <trkpt lat="46.29527" lon="10.51093">
        <ele>1641.938</ele>
        <time>2018-08-10T05:37:35Z</time>
      </trkpt>
      <trkpt lat="46.2952" lon="10.51106">
        <ele>1641.351</ele>
        <time>2018-08-10T05:37:55Z</time>
      </trkpt>
      <trkpt lat="46.29517" lon="10.51116">
        <ele>1642.179</ele>
        <time>2018-08-10T05:38:15Z</time>
      </trkpt>
      <trkpt lat="46.29516" lon="10.5115">
        <ele>1648.605</ele>
        <time>2018-08-10T05:38:35Z</time>
      </trkpt>
      <trkpt lat="46.29513" lon="10.51176">
        <ele>1653.225</ele>
        <time>2018-08-10T05:38:55Z</time>
      </trkpt>
      <trkpt lat="46.29509" lon="10.512">
        <ele>1656.008</ele>
        <time>2018-08-10T05:39:15Z</time>
      </trkpt>
      <trkpt lat="46.29503" lon="10.51219">
        <ele>1656.969</ele>
        <time>2018-08-10T05:39:35Z</time>
      </trkpt>
      <trkpt lat="46.29499" lon="10.51232">
        <ele>1657.554</ele>
        <time>2018-08-10T05:39:55Z</time>
      </trkpt>
      <trkpt lat="46.29498" lon="10.51243">
        <ele>1658.92</ele>
        <time>2018-08-10T05:40:15Z</time>
      </trkpt>
      <trkpt lat="46.29499" lon="10.51255">
        <ele>1661.214</ele>
        <time>2018-08-10T05:40:35Z</time>
      </trkpt>
      <trkpt lat="46.29501" lon="10.51261">
        <ele>1663.719</ele>
        <time>2018-08-10T05:40:55Z</time>
      </trkpt>
      <trkpt lat="46.29507" lon="10.51256">
        <ele>1666.07</ele>
        <time>2018-08-10T05:41:15Z</time>
      </trkpt>
      <trkpt lat="46.29511" lon="10.5124">
        <ele>1665.197</ele>
        <time>2018-08-10T05:41:35Z</time>
      </trkpt>
      <trkpt lat="46.29519" lon="10.51225">
        <ele>1666.15</ele>
        <time>2018-08-10T05:41:55Z</time>
      </trkpt>
      <trkpt lat="46.29531" lon="10.51211">
        <ele>1669.482</ele>
        <time>2018-08-10T05:42:15Z</time>
      </trkpt>
      <trkpt lat="46.29553" lon="10.5119">
        <ele>1676.943</ele>
        <time>2018-08-10T05:42:35Z</time>
      </trkpt>
      <trkpt lat="46.29561" lon="10.51183">
        <ele>1679.017</ele>
        <time>2018-08-10T05:42:55Z</time>
      </trkpt>
      <trkpt lat="46.29571" lon="10.51175">
        <ele>1681.008</ele>
        <time>2018-08-10T05:43:15Z</time>
      </trkpt>
      <trkpt lat="46.29578" lon="10.51166">
        <ele>1681.24</ele>
        <time>2018-08-10T05:43:35Z</time>
      </trkpt>
      <trkpt lat="46.29585" lon="10.51158">
        <ele>1681.415</ele>
        <time>2018-08-10T05:43:55Z</time>
      </trkpt>
      <trkpt lat="46.29602" lon="10.51154">
        <ele>1687.751</ele>
        <time>2018-08-10T05:44:15Z</time>
      </trkpt>
      <trkpt lat="46.29621" lon="10.51152">
        <ele>1694.635</ele>
        <time>2018-08-10T05:44:35Z</time>
      </trkpt>
      <trkpt lat="46.29632" lon="10.51152">
        <ele>1698.39</ele>
        <time>2018-08-10T05:44:55Z</time>
      </trkpt>
      <trkpt lat="46.2964" lon="10.51149">
        <ele>1700.081</ele>
        <time>2018-08-10T05:45:15Z</time>
      </trkpt>
      <trkpt lat="46.29645" lon="10.51144">
        <ele>1699.548</ele>
        <time>2018-08-10T05:45:35Z</time>
      </trkpt>
      <trkpt lat="46.2965" lon="10.51137">
        <ele>1698.661</ele>
        <time>2018-08-10T05:45:55Z</time>
      </trkpt>
      <trkpt lat="46.29658" lon="10.51142">
        <ele>1701.259</ele>
        <time>2018-08-10T05:46:15Z</time>
      </trkpt>
      <trkpt lat="46.29672" lon="10.51142">
        <ele>1704.103</ele>
        <time>2018-08-10T05:46:35Z</time>
      </trkpt>
      <trkpt lat="46.29688" lon="10.51132">
        <ele>1706.123</ele>
        <time>2018-08-10T05:46:55Z</time>
      </trkpt>
      <trkpt lat="46.297" lon="10.5112">
        <ele>1707.308</ele>
        <time>2018-08-10T05:47:15Z</time>
      </trkpt>
      <trkpt lat="46.29721" lon="10.51108">
        <ele>1711.627</ele>
        <time>2018-08-10T05:47:35Z</time>
      </trkpt>
      <trkpt lat="46.29743" lon="10.51109">
        <ele>1719.842</ele>
        <time>2018-08-10T05:47:55Z</time>
      </trkpt>
      <trkpt lat="46.29762" lon="10.51108">
        <ele>1723.198</ele>
        <time>2018-08-10T05:48:15Z</time>
      </trkpt>
      <trkpt lat="46.29778" lon="10.51099">
        <ele>1722.132</ele>
        <time>2018-08-10T05:48:35Z</time>
      </trkpt>
      <trkpt lat="46.29786" lon="10.51094">
        <ele>1722.667</ele>
        <time>2018-08-10T05:48:55Z</time>
      </trkpt>
      <trkpt lat="46.2981" lon="10.51077">
        <ele>1724.598</ele>
        <time>2018-08-10T05:49:15Z</time>
      </trkpt>
      <trkpt lat="46.29812" lon="10.51075">
        <ele>1724.645</ele>
        <time>2018-08-10T05:49:35Z</time>
      </trkpt>
      <trkpt lat="46.29822" lon="10.51071">
        <ele>1726.358</ele>
        <time>2018-08-10T05:49:55Z</time>
      </trkpt>
      <trkpt lat="46.29837" lon="10.51063">
        <ele>1728.436</ele>
        <time>2018-08-10T05:50:15Z</time>
      </trkpt>
      <trkpt lat="46.29845" lon="10.51056">
        <ele>1729.017</ele>
        <time>2018-08-10T05:50:35Z</time>
      </trkpt>
      <trkpt lat="46.29853" lon="10.51049">
        <ele>1730.318</ele>
        <time>2018-08-10T05:50:55Z</time>
      </trkpt>
      <trkpt lat="46.29862" lon="10.51054">
        <ele>1735.008</ele>
        <time>2018-08-10T05:51:15Z</time>
      </trkpt>
      <trkpt lat="46.29867" lon="10.51069">
        <ele>1741.155</ele>
        <time>2018-08-10T05:51:35Z</time>
      </trkpt>
      <trkpt lat="46.2986" lon="10.51081">
        <ele>1742.03</ele>
        <time>2018-08-10T05:51:55Z</time>
      </trkpt>
      <trkpt lat="46.29851" lon="10.51094">
        <ele>1742.266</ele>
        <time>2018-08-10T05:52:15Z</time>
      </trkpt>
      <trkpt lat="46.29845" lon="10.51109">
        <ele>1744.35</ele>
        <time>2018-08-10T05:52:35Z</time>
      </trkpt>
      <trkpt lat="46.29838" lon="10.51129">
        <ele>1747.945</ele>
        <time>2018-08-10T05:52:55Z</time>
      </trkpt>
      <trkpt lat="46.29832" lon="10.51146">
        <ele>1750.586</ele>
        <time>2018-08-10T05:53:15Z</time>
      </trkpt>
      <trkpt lat="46.29824" lon="10.51159">
        <ele>1750.013</ele>
        <time>2018-08-10T05:53:35Z</time>
      </trkpt>
      <trkpt lat="46.29816" lon="10.51167">
        <ele>1749.856</ele>
        <time>2018-08-10T05:53:55Z</time>
      </trkpt>
      <trkpt lat="46.29812" lon="10.51184">
        <ele>1751.551</ele>
        <time>2018-08-10T05:54:15Z</time>
      </trkpt>
      <trkpt lat="46.29808" lon="10.51202">
        <ele>1753.901</ele>
        <time>2018-08-10T05:54:35Z</time>
      </trkpt>
      <trkpt lat="46.29807" lon="10.51218">
        <ele>1756.411</ele>
        <time>2018-08-10T05:54:55Z</time>
      </trkpt>
      <trkpt lat="46.29814" lon="10.51234">
        <ele>1760.308</ele>
        <time>2018-08-10T05:55:15Z</time>
      </trkpt>
      <trkpt lat="46.29835" lon="10.51239">
        <ele>1764.967</ele>
        <time>2018-08-10T05:55:35Z</time>
      </trkpt>
      <trkpt lat="46.29854" lon="10.51237">
        <ele>1772.332</ele>
        <time>2018-08-10T05:55:55Z</time>
      </trkpt>
      <trkpt lat="46.29866" lon="10.51231">
        <ele>1775.548</ele>
        <time>2018-08-10T05:56:15Z</time>
      </trkpt>
      <trkpt lat="46.29874" lon="10.51226">
        <ele>1777.222</ele>
        <time>2018-08-10T05:56:35Z</time>
      </trkpt>
      <trkpt lat="46.29887" lon="10.51223">
        <ele>1780.557</ele>
        <time>2018-08-10T05:56:55Z</time>
      </trkpt>
      <trkpt lat="46.29898" lon="10.5123">
        <ele>1787.128</ele>
        <time>2018-08-10T05:57:15Z</time>
      </trkpt>
      <trkpt lat="46.29905" lon="10.51239">
        <ele>1792.375</ele>
        <time>2018-08-10T05:57:35Z</time>
      </trkpt>
      <trkpt lat="46.29907" lon="10.51258">
        <ele>1796.328</ele>
        <time>2018-08-10T05:57:55Z</time>
      </trkpt>
      <trkpt lat="46.29904" lon="10.51273">
        <ele>1797.433</ele>
        <time>2018-08-10T05:58:15Z</time>
      </trkpt>
      <trkpt lat="46.29906" lon="10.51289">
        <ele>1801.023</ele>
        <time>2018-08-10T05:58:35Z</time>
      </trkpt>
      <trkpt lat="46.29914" lon="10.51295">
        <ele>1805.215</ele>
        <time>2018-08-10T05:58:55Z</time>
      </trkpt>
      <trkpt lat="46.29927" lon="10.51292">
        <ele>1808.608</ele>
        <time>2018-08-10T05:59:15Z</time>
      </trkpt>
      <trkpt lat="46.29936" lon="10.51272">
        <ele>1808.155</ele>
        <time>2018-08-10T05:59:35Z</time>
      </trkpt>
      <trkpt lat="46.29945" lon="10.51258">
        <ele>1809.06</ele>
        <time>2018-08-10T05:59:55Z</time>
      </trkpt>
      <trkpt lat="46.29948" lon="10.51235">
        <ele>1807.896</ele>
        <time>2018-08-10T06:00:15Z</time>
      </trkpt>
      <trkpt lat="46.29971" lon="10.51197">
        <ele>1813.78</ele>
        <time>2018-08-10T06:00:35Z</time>
      </trkpt>
      <trkpt lat="46.29985" lon="10.51188">
        <ele>1819.565</ele>
        <time>2018-08-10T06:00:55Z</time>
      </trkpt>
      <trkpt lat="46.29998" lon="10.5118">
        <ele>1824.886</ele>
        <time>2018-08-10T06:01:15Z</time>
      </trkpt>
      <trkpt lat="46.3001" lon="10.51173">
        <ele>1832.723</ele>
        <time>2018-08-10T06:01:35Z</time>
      </trkpt>
      <trkpt lat="46.3003" lon="10.51161">
        <ele>1844.886</ele>
        <time>2018-08-10T06:01:55Z</time>
      </trkpt>
      <trkpt lat="46.30036" lon="10.51153">
        <ele>1847.095</ele>
        <time>2018-08-10T06:02:15Z</time>
      </trkpt>
      <trkpt lat="46.30041" lon="10.51144">
        <ele>1849.149</ele>
        <time>2018-08-10T06:02:35Z</time>
      </trkpt>
      <trkpt lat="46.30046" lon="10.51173">
        <ele>1855.123</ele>
        <time>2018-08-10T06:02:55Z</time>
      </trkpt>
      <trkpt lat="46.30043" lon="10.51299">
        <ele>1869.408</ele>
        <time>2018-08-10T06:03:15Z</time>
      </trkpt>
      <trkpt lat="46.30043" lon="10.51334">
        <ele>1876.131</ele>
        <time>2018-08-10T06:03:35Z</time>
      </trkpt>
      <trkpt lat="46.30043" lon="10.51365">
        <ele>1880.726</ele>
        <time>2018-08-10T06:03:55Z</time>
      </trkpt>
      <trkpt lat="46.30042" lon="10.51388">
        <ele>1883.532</ele>
        <time>2018-08-10T06:04:15Z</time>
      </trkpt>
      <trkpt lat="46.30033" lon="10.51413">
        <ele>1884.766</ele>
        <time>2018-08-10T06:04:35Z</time>
      </trkpt>
      <trkpt lat="46.3001" lon="10.51463">
        <ele>1889.371</ele>
        <time>2018-08-10T06:04:55Z</time>
      </trkpt>
      <trkpt lat="46.29994" lon="10.51484">
        <ele>1891.282</ele>
        <time>2018-08-10T06:05:15Z</time>
      </trkpt>
      <trkpt lat="46.29986" lon="10.51505">
        <ele>1896.979</ele>
        <time>2018-08-10T06:05:35Z</time>
      </trkpt>
      <trkpt lat="46.29979" lon="10.51528">
        <ele>1903.212</ele>
        <time>2018-08-10T06:05:55Z</time>
      </trkpt>
      <trkpt lat="46.29969" lon="10.51556">
        <ele>1906.788</ele>
        <time>2018-08-10T06:06:15Z</time>
      </trkpt>
      <trkpt lat="46.29962" lon="10.51573">
        <ele>1910.524</ele>
        <time>2018-08-10T06:06:35Z</time>
      </trkpt>
      <trkpt lat="46.29953" lon="10.51587">
        <ele>1913.626</ele>
        <time>2018-08-10T06:06:55Z</time>
      </trkpt>
      <trkpt lat="46.29942" lon="10.51593">
        <ele>1914.208</ele>
        <time>2018-08-10T06:07:15Z</time>
      </trkpt>
      <trkpt lat="46.29924" lon="10.51602">
        <ele>1916.28</ele>
        <time>2018-08-10T06:07:35Z</time>
      </trkpt>
      <trkpt lat="46.29912" lon="10.51611">
        <ele>1916.765</ele>
        <time>2018-08-10T06:07:55Z</time>
      </trkpt>
      <trkpt lat="46.29898" lon="10.51618">
        <ele>1916.071</ele>
        <time>2018-08-10T06:08:15Z</time>
      </trkpt>
      <trkpt lat="46.29879" lon="10.51645">
        <ele>1918.795</ele>
        <time>2018-08-10T06:08:35Z</time>
      </trkpt>
      <trkpt lat="46.29866" lon="10.51658">
        <ele>1918.21</ele>
        <time>2018-08-10T06:08:55Z</time>
      </trkpt>
      <trkpt lat="46.29847" lon="10.51695">
        <ele>1922.421</ele>
        <time>2018-08-10T06:09:15Z</time>
      </trkpt>
      <trkpt lat="46.29838" lon="10.51707">
        <ele>1923.068</ele>
        <time>2018-08-10T06:09:35Z</time>
      </trkpt>
      <trkpt lat="46.29828" lon="10.51721">
        <ele>1923.511</ele>
        <time>2018-08-10T06:09:55Z</time>
      </trkpt>
      <trkpt lat="46.29821" lon="10.51735">
        <ele>1926.037</ele>
        <time>2018-08-10T06:10:15Z</time>
      </trkpt>
      <trkpt lat="46.29813" lon="10.51746">
        <ele>1927.449</ele>
        <time>2018-08-10T06:10:35Z</time>
      </trkpt>
      <trkpt lat="46.29813" lon="10.51747">
        <ele>1927.513</ele>
        <time>2018-08-10T06:10:55Z</time>
      </trkpt>
      <trkpt lat="46.29815" lon="10.51747">
        <ele>1928.408</ele>
        <time>2018-08-10T06:11:15Z</time>
      </trkpt>
      <trkpt lat="46.29818" lon="10.51748">
        <ele>1929.575</ele>
        <time>2018-08-10T06:11:35Z</time>
      </trkpt>
      <trkpt lat="46.29818" lon="10.51749">
        <ele>1929.64</ele>
        <time>2018-08-10T06:11:55Z</time>
      </trkpt>
      <trkpt lat="46.29818" lon="10.51749">
        <ele>1929.766</ele>
        <time>2018-08-10T06:12:15Z</time>
      </trkpt>
      <trkpt lat="46.29819" lon="10.51749">
        <ele>1929.99</ele>
        <time>2018-08-10T06:12:35Z</time>
      </trkpt>
      <trkpt lat="46.29823" lon="10.51748">
        <ele>1931.185</ele>
        <time>2018-08-10T06:12:55Z</time>
      </trkpt>
      <trkpt lat="46.2983" lon="10.51745">
        <ele>1932.176</ele>
        <time>2018-08-10T06:13:15Z</time>
      </trkpt>
      <trkpt lat="46.29834" lon="10.51742">
        <ele>1932.553</ele>
        <time>2018-08-10T06:13:35Z</time>
      </trkpt>
      <trkpt lat="46.29839" lon="10.51738">
        <ele>1933.376</ele>
        <time>2018-08-10T06:13:55Z</time>
      </trkpt>
      <trkpt lat="46.29842" lon="10.51734">
        <ele>1933.516</ele>
        <time>2018-08-10T06:14:15Z</time>
      </trkpt>
      <trkpt lat="46.29843" lon="10.51732">
        <ele>1933.576</ele>
        <time>2018-08-10T06:14:35Z</time>
      </trkpt>
      <trkpt lat="46.29862" lon="10.51716">
        <ele>1935.813</ele>
        <time>2018-08-10T06:14:55Z</time>
      </trkpt>
      <trkpt lat="46.29868" lon="10.51712">
        <ele>1937.308</ele>
        <time>2018-08-10T06:15:15Z</time>
      </trkpt>
      <trkpt lat="46.29879" lon="10.51709">
        <ele>1940.733</ele>
        <time>2018-08-10T06:15:35Z</time>
      </trkpt>
      <trkpt lat="46.29889" lon="10.51705">
        <ele>1944.238</ele>
        <time>2018-08-10T06:15:55Z</time>
      </trkpt>
      <trkpt lat="46.29904" lon="10.51701">
        <ele>1947.334</ele>
        <time>2018-08-10T06:16:15Z</time>
      </trkpt>
      <trkpt lat="46.29917" lon="10.51698">
        <ele>1951.288</ele>
        <time>2018-08-10T06:16:35Z</time>
      </trkpt>
      <trkpt lat="46.29934" lon="10.51695">
        <ele>1953.923</ele>
        <time>2018-08-10T06:16:55Z</time>
      </trkpt>
      <trkpt lat="46.29948" lon="10.51694">
        <ele>1956.994</ele>
        <time>2018-08-10T06:17:15Z</time>
      </trkpt>
      <trkpt lat="46.29958" lon="10.51693">
        <ele>1959.711</ele>
        <time>2018-08-10T06:17:35Z</time>
      </trkpt>
      <trkpt lat="46.29975" lon="10.51686">
        <ele>1962.224</ele>
        <time>2018-08-10T06:17:55Z</time>
      </trkpt>
      <trkpt lat="46.29977" lon="10.51684">
        <ele>1962.359</ele>
        <time>2018-08-10T06:18:15Z</time>
      </trkpt>
      <trkpt lat="46.2999" lon="10.51676">
        <ele>1964.403</ele>
        <time>2018-08-10T06:18:35Z</time>
      </trkpt>
      <trkpt lat="46.29996" lon="10.5167">
        <ele>1965.223</ele>
        <time>2018-08-10T06:18:55Z</time>
      </trkpt>
      <trkpt lat="46.30004" lon="10.51663">
        <ele>1967.508</ele>
        <time>2018-08-10T06:19:15Z</time>
      </trkpt>
      <trkpt lat="46.30004" lon="10.51663">
        <ele>1967.727</ele>
        <time>2018-08-10T06:19:35Z</time>
      </trkpt>
      <trkpt lat="46.30016" lon="10.51652">
        <ele>1971.582</ele>
        <time>2018-08-10T06:19:55Z</time>
      </trkpt>
      <trkpt lat="46.30031" lon="10.51638">
        <ele>1975.538</ele>
        <time>2018-08-10T06:20:15Z</time>
      </trkpt>
      <trkpt lat="46.30032" lon="10.5164">
        <ele>1977.342</ele>
        <time>2018-08-10T06:20:35Z</time>
      </trkpt>
      <trkpt lat="46.30033" lon="10.51641">
        <ele>1979.087</ele>
        <time>2018-08-10T06:20:55Z</time>
      </trkpt>
      <trkpt lat="46.3004" lon="10.51635">
        <ele>1983.128</ele>
        <time>2018-08-10T06:21:15Z</time>
      </trkpt>
      <trkpt lat="46.3004" lon="10.51634">
        <ele>1983.315</ele>
        <time>2018-08-10T06:21:35Z</time>
      </trkpt>
      <trkpt lat="46.30042" lon="10.51632">
        <ele>1984.058</ele>
        <time>2018-08-10T06:21:55Z</time>
      </trkpt>
      <trkpt lat="46.30043" lon="10.5163">
        <ele>1984.734</ele>
        <time>2018-08-10T06:22:15Z</time>
      </trkpt>
      <trkpt lat="46.30045" lon="10.51627">
        <ele>1985.155</ele>
        <time>2018-08-10T06:22:35Z</time>
      </trkpt>
      <trkpt lat="46.30046" lon="10.51625">
        <ele>1985.31</ele>
        <time>2018-08-10T06:22:55Z</time>
      </trkpt>
      <trkpt lat="46.3005" lon="10.5162">
        <ele>1987.608</ele>
        <time>2018-08-10T06:23:15Z</time>
      </trkpt>
      <trkpt lat="46.30054" lon="10.51615">
        <ele>1989.595</ele>
        <time>2018-08-10T06:23:35Z</time>
      </trkpt>
      <trkpt lat="46.30056" lon="10.51609">
        <ele>1988.73</ele>
        <time>2018-08-10T06:23:55Z</time>
      </trkpt>
      <trkpt lat="46.30059" lon="10.51604">
        <ele>1989.166</ele>
        <time>2018-08-10T06:24:15Z</time>
      </trkpt>
      <trkpt lat="46.30063" lon="10.51595">
        <ele>1988.66</ele>
        <time>2018-08-10T06:24:35Z</time>
      </trkpt>
      <trkpt lat="46.30062" lon="10.51581">
        <ele>1983.515</ele>
        <time>2018-08-10T06:24:55Z</time>
      </trkpt>
      <trkpt lat="46.30063" lon="10.51579">
        <ele>1983.586</ele>
        <time>2018-08-10T06:25:15Z</time>
      </trkpt>
      <trkpt lat="46.30065" lon="10.51577">
        <ele>1984.313</ele>
        <time>2018-08-10T06:25:35Z</time>
      </trkpt>
      <trkpt lat="46.30068" lon="10.51576">
        <ele>1986.616</ele>
        <time>2018-08-10T06:25:55Z</time>
      </trkpt>
      <trkpt lat="46.3007" lon="10.51578">
        <ele>1989.146</ele>
        <time>2018-08-10T06:26:15Z</time>
      </trkpt>
      <trkpt lat="46.30072" lon="10.51581">
        <ele>1991.788</ele>
        <time>2018-08-10T06:26:35Z</time>
      </trkpt>
      <trkpt lat="46.30072" lon="10.51586">
        <ele>1993.116</ele>
        <time>2018-08-10T06:26:55Z</time>
      </trkpt>
      <trkpt lat="46.3007" lon="10.51613">
        <ele>1999.608</ele>
        <time>2018-08-10T06:27:15Z</time>
      </trkpt>
      <trkpt lat="46.30069" lon="10.51622">
        <ele>2001.856</ele>
        <time>2018-08-10T06:27:35Z</time>
      </trkpt>
      <trkpt lat="46.30067" lon="10.51631">
        <ele>2003.381</ele>
        <time>2018-08-10T06:27:55Z</time>
      </trkpt>
      <trkpt lat="46.30057" lon="10.51659">
        <ele>2004.927</ele>
        <time>2018-08-10T06:28:15Z</time>
      </trkpt>
      <trkpt lat="46.30052" lon="10.51671">
        <ele>2004.661</ele>
        <time>2018-08-10T06:28:35Z</time>
      </trkpt>
      <trkpt lat="46.30042" lon="10.51705">
        <ele>2010.496</ele>
        <time>2018-08-10T06:28:55Z</time>
      </trkpt>
      <trkpt lat="46.30035" lon="10.5173">
        <ele>2014.677</ele>
        <time>2018-08-10T06:29:15Z</time>
      </trkpt>
      <trkpt lat="46.30033" lon="10.51738">
        <ele>2016.044</ele>
        <time>2018-08-10T06:29:35Z</time>
      </trkpt>
      <trkpt lat="46.30032" lon="10.51745">
        <ele>2017.357</ele>
        <time>2018-08-10T06:29:55Z</time>
      </trkpt>
      <trkpt lat="46.30031" lon="10.5175">
        <ele>2018.411</ele>
        <time>2018-08-10T06:30:15Z</time>
      </trkpt>
      <trkpt lat="46.30028" lon="10.51759">
        <ele>2019.721</ele>
        <time>2018-08-10T06:30:35Z</time>
      </trkpt>
      <trkpt lat="46.30025" lon="10.51764">
        <ele>2020.003</ele>
        <time>2018-08-10T06:30:55Z</time>
      </trkpt>
      <trkpt lat="46.3002" lon="10.51768">
        <ele>2019.008</ele>
        <time>2018-08-10T06:31:15Z</time>
      </trkpt>
      <trkpt lat="46.30016" lon="10.51774">
        <ele>2019.153</ele>
        <time>2018-08-10T06:31:35Z</time>
      </trkpt>
      <trkpt lat="46.30006" lon="10.51785">
        <ele>2018.518</ele>
        <time>2018-08-10T06:31:55Z</time>
      </trkpt>
      <trkpt lat="46.29995" lon="10.51798">
        <ele>2019.314</ele>
        <time>2018-08-10T06:32:15Z</time>
      </trkpt>
      <trkpt lat="46.29988" lon="10.51822">
        <ele>2027.528</ele>
        <time>2018-08-10T06:32:35Z</time>
      </trkpt>
      <trkpt lat="46.29981" lon="10.51838">
        <ele>2031.573</ele>
        <time>2018-08-10T06:32:55Z</time>
      </trkpt>
      <trkpt lat="46.29972" lon="10.51846">
        <ele>2030.724</ele>
        <time>2018-08-10T06:33:15Z</time>
      </trkpt>
      <trkpt lat="46.29965" lon="10.51852">
        <ele>2032.681</ele>
        <time>2018-08-10T06:33:35Z</time>
      </trkpt>
      <trkpt lat="46.29958" lon="10.51858">
        <ele>2034.624</ele>
        <time>2018-08-10T06:33:55Z</time>
      </trkpt>
      <trkpt lat="46.29949" lon="10.51865">
        <ele>2036.716</ele>
        <time>2018-08-10T06:34:15Z</time>
      </trkpt>
      <trkpt lat="46.29941" lon="10.51869">
        <ele>2037.476</ele>
        <time>2018-08-10T06:34:35Z</time>
      </trkpt>
      <trkpt lat="46.2993" lon="10.51875">
        <ele>2039.613</ele>
        <time>2018-08-10T06:34:55Z</time>
      </trkpt>
      <trkpt lat="46.29921" lon="10.51885">
        <ele>2047.008</ele>
        <time>2018-08-10T06:35:15Z</time>
      </trkpt>
      <trkpt lat="46.29913" lon="10.51888">
        <ele>2047.513</ele>
        <time>2018-08-10T06:35:35Z</time>
      </trkpt>
      <trkpt lat="46.29901" lon="10.5189">
        <ele>2043.348</ele>
        <time>2018-08-10T06:35:55Z</time>
      </trkpt>
      <trkpt lat="46.29907" lon="10.51902">
        <ele>2051.314</ele>
        <time>2018-08-10T06:36:15Z</time>
      </trkpt>
      <trkpt lat="46.29919" lon="10.51906">
        <ele>2056.138</ele>
        <time>2018-08-10T06:36:35Z</time>
      </trkpt>
      <trkpt lat="46.29927" lon="10.5191">
        <ele>2058.323</ele>
        <time>2018-08-10T06:36:55Z</time>
      </trkpt>
      <trkpt lat="46.2993" lon="10.51921">
        <ele>2063.014</ele>
        <time>2018-08-10T06:37:15Z</time>
      </trkpt>
      <trkpt lat="46.29929" lon="10.51923">
        <ele>2063.811</ele>
        <time>2018-08-10T06:37:35Z</time>
      </trkpt>
      <trkpt lat="46.29929" lon="10.51923">
        <ele>2064.114</ele>
        <time>2018-08-10T06:37:55Z</time>
      </trkpt>
      <trkpt lat="46.29925" lon="10.5193">
        <ele>2066.354</ele>
        <time>2018-08-10T06:38:15Z</time>
      </trkpt>
      <trkpt lat="46.29916" lon="10.51936">
        <ele>2066.856</ele>
        <time>2018-08-10T06:38:35Z</time>
      </trkpt>
      <trkpt lat="46.29907" lon="10.5194">
        <ele>2065.411</ele>
        <time>2018-08-10T06:38:55Z</time>
      </trkpt>
      <trkpt lat="46.29898" lon="10.51948">
        <ele>2065.108</ele>
        <time>2018-08-10T06:39:15Z</time>
      </trkpt>
      <trkpt lat="46.29897" lon="10.51951">
        <ele>2065.877</ele>
        <time>2018-08-10T06:39:35Z</time>
      </trkpt>
      <trkpt lat="46.29895" lon="10.51954">
        <ele>2066.342</ele>
        <time>2018-08-10T06:39:55Z</time>
      </trkpt>
      <trkpt lat="46.29893" lon="10.51961">
        <ele>2068.238</ele>
        <time>2018-08-10T06:40:15Z</time>
      </trkpt>
      <trkpt lat="46.29889" lon="10.51975">
        <ele>2070.812</ele>
        <time>2018-08-10T06:40:35Z</time>
      </trkpt>
      <trkpt lat="46.29886" lon="10.51999">
        <ele>2074.217</ele>
        <time>2018-08-10T06:40:55Z</time>
      </trkpt>
      <trkpt lat="46.29889" lon="10.52029">
        <ele>2082.298</ele>
        <time>2018-08-10T06:41:15Z</time>
      </trkpt>
      <trkpt lat="46.29886" lon="10.52071">
        <ele>2087.865</ele>
        <time>2018-08-10T06:41:35Z</time>
      </trkpt>
      <trkpt lat="46.29886" lon="10.52093">
        <ele>2091.238</ele>
        <time>2018-08-10T06:41:55Z</time>
      </trkpt>
      <trkpt lat="46.29884" lon="10.52131">
        <ele>2099.564</ele>
        <time>2018-08-10T06:42:15Z</time>
      </trkpt>
      <trkpt lat="46.29886" lon="10.52156">
        <ele>2107.906</ele>
        <time>2018-08-10T06:42:35Z</time>
      </trkpt>
      <trkpt lat="46.29883" lon="10.52182">
        <ele>2112.616</ele>
        <time>2018-08-10T06:42:55Z</time>
      </trkpt>
      <trkpt lat="46.29879" lon="10.52202">
        <ele>2115.108</ele>
        <time>2018-08-10T06:43:15Z</time>
      </trkpt>
      <trkpt lat="46.2988" lon="10.52226">
        <ele>2119.648</ele>
        <time>2018-08-10T06:43:35Z</time>
      </trkpt>
      <trkpt lat="46.29876" lon="10.52251">
        <ele>2123.833</ele>
        <time>2018-08-10T06:43:55Z</time>
      </trkpt>
      <trkpt lat="46.29876" lon="10.52253">
        <ele>2123.979</ele>
        <time>2018-08-10T06:44:15Z</time>
      </trkpt>
      <trkpt lat="46.29867" lon="10.52274">
        <ele>2126.093</ele>
        <time>2018-08-10T06:44:35Z</time>
      </trkpt>
      <trkpt lat="46.29865" lon="10.52278">
        <ele>2126.788</ele>
        <time>2018-08-10T06:44:55Z</time>
      </trkpt>
      <trkpt lat="46.29863" lon="10.52283">
        <ele>2126.859</ele>
        <time>2018-08-10T06:45:15Z</time>
      </trkpt>
      <trkpt lat="46.29861" lon="10.52287">
        <ele>2126.776</ele>
        <time>2018-08-10T06:45:35Z</time>
      </trkpt>
      <trkpt lat="46.29857" lon="10.52293">
        <ele>2126.119</ele>
        <time>2018-08-10T06:45:55Z</time>
      </trkpt>
      <trkpt lat="46.29855" lon="10.52296">
        <ele>2126.057</ele>
        <time>2018-08-10T06:46:15Z</time>
      </trkpt>
      <trkpt lat="46.29852" lon="10.52301">
        <ele>2125.7</ele>
        <time>2018-08-10T06:46:35Z</time>
      </trkpt>
      <trkpt lat="46.2985" lon="10.52304">
        <ele>2125.62</ele>
        <time>2018-08-10T06:46:55Z</time>
      </trkpt>
      <trkpt lat="46.29849" lon="10.52306">
        <ele>2125.608</ele>
        <time>2018-08-10T06:47:15Z</time>
      </trkpt>
      <trkpt lat="46.29848" lon="10.52307">
        <ele>2125.787</ele>
        <time>2018-08-10T06:47:35Z</time>
      </trkpt>
      <trkpt lat="46.29848" lon="10.52307">
        <ele>2125.722</ele>
        <time>2018-08-10T06:47:55Z</time>
      </trkpt>
      <trkpt lat="46.29848" lon="10.52309">
        <ele>2126.068</ele>
        <time>2018-08-10T06:48:15Z</time>
      </trkpt>
      <trkpt lat="46.29849" lon="10.52309">
        <ele>2126.422</ele>
        <time>2018-08-10T06:48:35Z</time>
      </trkpt>
      <trkpt lat="46.29851" lon="10.52307">
        <ele>2126.947</ele>
        <time>2018-08-10T06:48:55Z</time>
      </trkpt>
      <trkpt lat="46.2985" lon="10.52309">
        <ele>2127.158</ele>
        <time>2018-08-10T06:49:15Z</time>
      </trkpt>
      <trkpt lat="46.2985" lon="10.5231">
        <ele>2127.395</ele>
        <time>2018-08-10T06:49:35Z</time>
      </trkpt>
      <trkpt lat="46.2985" lon="10.52312">
        <ele>2127.898</ele>
        <time>2018-08-10T06:49:55Z</time>
      </trkpt>
      <trkpt lat="46.29851" lon="10.52313">
        <ele>2128.471</ele>
        <time>2018-08-10T06:50:15Z</time>
      </trkpt>
      <trkpt lat="46.29856" lon="10.52312">
        <ele>2130.541</ele>
        <time>2018-08-10T06:50:35Z</time>
      </trkpt>
      <trkpt lat="46.29859" lon="10.52312">
        <ele>2131.915</ele>
        <time>2018-08-10T06:50:55Z</time>
      </trkpt>
      <trkpt lat="46.29875" lon="10.52298">
        <ele>2134.808</ele>
        <time>2018-08-10T06:51:15Z</time>
      </trkpt>
      <trkpt lat="46.29888" lon="10.52287">
        <ele>2137.729</ele>
        <time>2018-08-10T06:51:35Z</time>
      </trkpt>
      <trkpt lat="46.2989" lon="10.52286">
        <ele>2137.944</ele>
        <time>2018-08-10T06:51:55Z</time>
      </trkpt>
      <trkpt lat="46.29891" lon="10.52284">
        <ele>2138.29</ele>
        <time>2018-08-10T06:52:15Z</time>
      </trkpt>
      <trkpt lat="46.29893" lon="10.52282">
        <ele>2138.624</ele>
        <time>2018-08-10T06:52:35Z</time>
      </trkpt>
      <trkpt lat="46.29895" lon="10.52281">
        <ele>2138.919</ele>
        <time>2018-08-10T06:52:55Z</time>
      </trkpt>
      <trkpt lat="46.29897" lon="10.52279">
        <ele>2139.45</ele>
        <time>2018-08-10T06:53:15Z</time>
      </trkpt>
      <trkpt lat="46.29899" lon="10.52278">
        <ele>2139.957</ele>
        <time>2018-08-10T06:53:35Z</time>
      </trkpt>
      <trkpt lat="46.29901" lon="10.52277">
        <ele>2140.42</ele>
        <time>2018-08-10T06:53:55Z</time>
      </trkpt>
      <trkpt lat="46.29902" lon="10.52276">
        <ele>2140.798</ele>
        <time>2018-08-10T06:54:15Z</time>
      </trkpt>
      <trkpt lat="46.29902" lon="10.52276">
        <ele>2140.915</ele>
        <time>2018-08-10T06:54:35Z</time>
      </trkpt>
      <trkpt lat="46.29905" lon="10.52275">
        <ele>2142.026</ele>
        <time>2018-08-10T06:54:55Z</time>
      </trkpt>
      <trkpt lat="46.29905" lon="10.52286">
        <ele>2143.608</ele>
        <time>2018-08-10T06:55:15Z</time>
      </trkpt>
      <trkpt lat="46.29905" lon="10.52288">
        <ele>2143.951</ele>
        <time>2018-08-10T06:55:35Z</time>
      </trkpt>
      <trkpt lat="46.29905" lon="10.52291">
        <ele>2144.496</ele>
        <time>2018-08-10T06:55:55Z</time>
      </trkpt>
      <trkpt lat="46.29905" lon="10.52294">
        <ele>2144.842</ele>
        <time>2018-08-10T06:56:15Z</time>
      </trkpt>
      <trkpt lat="46.29905" lon="10.52297">
        <ele>2145.176</ele>
        <time>2018-08-10T06:56:35Z</time>
      </trkpt>
      <trkpt lat="46.29905" lon="10.523">
        <ele>2145.641</ele>
        <time>2018-08-10T06:56:55Z</time>
      </trkpt>
      <trkpt lat="46.29905" lon="10.52303">
        <ele>2146.192</ele>
        <time>2018-08-10T06:57:15Z</time>
      </trkpt>
      <trkpt lat="46.29904" lon="10.52306">
        <ele>2146.539</ele>
        <time>2018-08-10T06:57:35Z</time>
      </trkpt>
      <trkpt lat="46.29904" lon="10.52309">
        <ele>2147.092</ele>
        <time>2018-08-10T06:57:55Z</time>
      </trkpt>
      <trkpt lat="46.29903" lon="10.52312">
        <ele>2147.391</ele>
        <time>2018-08-10T06:58:15Z</time>
      </trkpt>
      <trkpt lat="46.29902" lon="10.52315">
        <ele>2147.581</ele>
        <time>2018-08-10T06:58:35Z</time>
      </trkpt>
      <trkpt lat="46.29902" lon="10.52318">
        <ele>2147.819</ele>
        <time>2018-08-10T06:58:55Z</time>
      </trkpt>
      <trkpt lat="46.29901" lon="10.52321">
        <ele>2148.208</ele>
        <time>2018-08-10T06:59:15Z</time>
      </trkpt>
      <trkpt lat="46.299" lon="10.52324">
        <ele>2148.471</ele>
        <time>2018-08-10T06:59:35Z</time>
      </trkpt>
      <trkpt lat="46.29898" lon="10.52326">
        <ele>2148.526</ele>
        <time>2018-08-10T06:59:55Z</time>
      </trkpt>
      <trkpt lat="46.29897" lon="10.52328">
        <ele>2148.772</ele>
        <time>2018-08-10T07:00:15Z</time>
      </trkpt>
      <trkpt lat="46.29896" lon="10.52331">
        <ele>2149.026</ele>
        <time>2018-08-10T07:00:35Z</time>
      </trkpt>
      <trkpt lat="46.29895" lon="10.52335">
        <ele>2149.411</ele>
        <time>2018-08-10T07:00:55Z</time>
      </trkpt>
      <trkpt lat="46.29895" lon="10.52337">
        <ele>2149.912</ele>
        <time>2018-08-10T07:01:15Z</time>
      </trkpt>
      <trkpt lat="46.29896" lon="10.5234">
        <ele>2150.599</ele>
        <time>2018-08-10T07:01:35Z</time>
      </trkpt>
      <trkpt lat="46.29898" lon="10.52341">
        <ele>2151.122</ele>
        <time>2018-08-10T07:01:55Z</time>
      </trkpt>
      <trkpt lat="46.299" lon="10.5234">
        <ele>2151.435</ele>
        <time>2018-08-10T07:02:15Z</time>
      </trkpt>
      <trkpt lat="46.29903" lon="10.52339">
        <ele>2151.886</ele>
        <time>2018-08-10T07:02:35Z</time>
      </trkpt>
      <trkpt lat="46.29905" lon="10.52338">
        <ele>2152.214</ele>
        <time>2018-08-10T07:02:55Z</time>
      </trkpt>
      <trkpt lat="46.29907" lon="10.52337">
        <ele>2152.408</ele>
        <time>2018-08-10T07:03:15Z</time>
      </trkpt>
      <trkpt lat="46.29909" lon="10.52336">
        <ele>2152.755</ele>
        <time>2018-08-10T07:03:35Z</time>
      </trkpt>
      <trkpt lat="46.29911" lon="10.52334">
        <ele>2152.91</ele>
        <time>2018-08-10T07:03:55Z</time>
      </trkpt>
      <trkpt lat="46.29914" lon="10.52333">
        <ele>2153.256</ele>
        <time>2018-08-10T07:04:15Z</time>
      </trkpt>
      <trkpt lat="46.29916" lon="10.52331">
        <ele>2153.49</ele>
        <time>2018-08-10T07:04:35Z</time>
      </trkpt>
      <trkpt lat="46.29917" lon="10.5233">
        <ele>2153.625</ele>
        <time>2018-08-10T07:04:55Z</time>
      </trkpt>
      <trkpt lat="46.2992" lon="10.52329">
        <ele>2154.716</ele>
        <time>2018-08-10T07:05:15Z</time>
      </trkpt>
      <trkpt lat="46.2993" lon="10.52322">
        <ele>2159.073</ele>
        <time>2018-08-10T07:05:35Z</time>
      </trkpt>
      <trkpt lat="46.29934" lon="10.52312">
        <ele>2160.116</ele>
        <time>2018-08-10T07:05:55Z</time>
      </trkpt>
      <trkpt lat="46.29934" lon="10.52315">
        <ele>2160.486</ele>
        <time>2018-08-10T07:06:15Z</time>
      </trkpt>
      <trkpt lat="46.29934" lon="10.52318">
        <ele>2160.66</ele>
        <time>2018-08-10T07:06:35Z</time>
      </trkpt>
      <trkpt lat="46.29934" lon="10.52321">
        <ele>2160.926</ele>
        <time>2018-08-10T07:06:55Z</time>
      </trkpt>
      <trkpt lat="46.29935" lon="10.52325">
        <ele>2161.508</ele>
        <time>2018-08-10T07:07:15Z</time>
      </trkpt>
      <trkpt lat="46.29935" lon="10.52328">
        <ele>2161.97</ele>
        <time>2018-08-10T07:07:35Z</time>
      </trkpt>
      <trkpt lat="46.29935" lon="10.52331">
        <ele>2162.365</ele>
        <time>2018-08-10T07:07:55Z</time>
      </trkpt>
      <trkpt lat="46.29935" lon="10.52334">
        <ele>2162.761</ele>
        <time>2018-08-10T07:08:15Z</time>
      </trkpt>
      <trkpt lat="46.29935" lon="10.52337">
        <ele>2163.255</ele>
        <time>2018-08-10T07:08:35Z</time>
      </trkpt>
      <trkpt lat="46.29936" lon="10.5234">
        <ele>2163.75</ele>
        <time>2018-08-10T07:08:55Z</time>
      </trkpt>
      <trkpt lat="46.29937" lon="10.52344">
        <ele>2164.461</ele>
        <time>2018-08-10T07:09:15Z</time>
      </trkpt>
      <trkpt lat="46.29937" lon="10.52347">
        <ele>2165.118</ele>
        <time>2018-08-10T07:09:35Z</time>
      </trkpt>
      <trkpt lat="46.29942" lon="10.52374">
        <ele>2169.851</ele>
        <time>2018-08-10T07:09:55Z</time>
      </trkpt>
      <trkpt lat="46.29944" lon="10.52392">
        <ele>2172.224</ele>
        <time>2018-08-10T07:10:15Z</time>
      </trkpt>
      <trkpt lat="46.29944" lon="10.52414">
        <ele>2174.504</ele>
        <time>2018-08-10T07:10:35Z</time>
      </trkpt>
      <trkpt lat="46.29944" lon="10.52422">
        <ele>2175.614</ele>
        <time>2018-08-10T07:10:55Z</time>
      </trkpt>
      <trkpt lat="46.29942" lon="10.52426">
        <ele>2176.008</ele>
        <time>2018-08-10T07:11:15Z</time>
      </trkpt>
      <trkpt lat="46.2994" lon="10.52436">
        <ele>2176.844</ele>
        <time>2018-08-10T07:11:35Z</time>
      </trkpt>
      <trkpt lat="46.29934" lon="10.52447">
        <ele>2176.739</ele>
        <time>2018-08-10T07:11:55Z</time>
      </trkpt>
      <trkpt lat="46.2993" lon="10.52459">
        <ele>2177.945</ele>
        <time>2018-08-10T07:12:15Z</time>
      </trkpt>
      <trkpt lat="46.29926" lon="10.52461">
        <ele>2176.349</ele>
        <time>2018-08-10T07:12:35Z</time>
      </trkpt>
      <trkpt lat="46.29921" lon="10.52467">
        <ele>2175.624</ele>
        <time>2018-08-10T07:12:55Z</time>
      </trkpt>
      <trkpt lat="46.29913" lon="10.52474">
        <ele>2175.385</ele>
        <time>2018-08-10T07:13:15Z</time>
      </trkpt>
      <trkpt lat="46.29908" lon="10.52481">
        <ele>2176.722</ele>
        <time>2018-08-10T07:13:35Z</time>
      </trkpt>
      <trkpt lat="46.29907" lon="10.52487">
        <ele>2178.875</ele>
        <time>2018-08-10T07:13:55Z</time>
      </trkpt>
      <trkpt lat="46.29913" lon="10.52489">
        <ele>2181.139</ele>
        <time>2018-08-10T07:14:15Z</time>
      </trkpt>
      <trkpt lat="46.29914" lon="10.52489">
        <ele>2181.301</ele>
        <time>2018-08-10T07:14:35Z</time>
      </trkpt>
      <trkpt lat="46.29921" lon="10.52488">
        <ele>2182.921</ele>
        <time>2018-08-10T07:14:55Z</time>
      </trkpt>
      <trkpt lat="46.29942" lon="10.52487">
        <ele>2188.508</ele>
        <time>2018-08-10T07:15:15Z</time>
      </trkpt>
      <trkpt lat="46.2995" lon="10.52486">
        <ele>2190.425</ele>
        <time>2018-08-10T07:15:35Z</time>
      </trkpt>
      <trkpt lat="46.29958" lon="10.52489">
        <ele>2193.21</ele>
        <time>2018-08-10T07:15:55Z</time>
      </trkpt>
      <trkpt lat="46.29958" lon="10.52495">
        <ele>2194.126</ele>
        <time>2018-08-10T07:16:15Z</time>
      </trkpt>
      <trkpt lat="46.29956" lon="10.52502">
        <ele>2194.83</ele>
        <time>2018-08-10T07:16:35Z</time>
      </trkpt>
      <trkpt lat="46.2995" lon="10.52516">
        <ele>2196.485</ele>
        <time>2018-08-10T07:16:55Z</time>
      </trkpt>
      <trkpt lat="46.29949" lon="10.52523">
        <ele>2197.666</ele>
        <time>2018-08-10T07:17:15Z</time>
      </trkpt>
      <trkpt lat="46.29948" lon="10.52524">
        <ele>2197.863</ele>
        <time>2018-08-10T07:17:35Z</time>
      </trkpt>
      <trkpt lat="46.29947" lon="10.52524">
        <ele>2197.666</ele>
        <time>2018-08-10T07:17:55Z</time>
      </trkpt>
      <trkpt lat="46.29942" lon="10.52528">
        <ele>2198.138</ele>
        <time>2018-08-10T07:18:15Z</time>
      </trkpt>
      <trkpt lat="46.29917" lon="10.52541">
        <ele>2201.87</ele>
        <time>2018-08-10T07:18:35Z</time>
      </trkpt>
      <trkpt lat="46.29908" lon="10.5255">
        <ele>2197.517</ele>
        <time>2018-08-10T07:18:55Z</time>
      </trkpt>
      <trkpt lat="46.29904" lon="10.52557">
        <ele>2196.208</ele>
        <time>2018-08-10T07:19:15Z</time>
      </trkpt>
      <trkpt lat="46.29899" lon="10.52566">
        <ele>2194.365</ele>
        <time>2018-08-10T07:19:35Z</time>
      </trkpt>
      <trkpt lat="46.29895" lon="10.52595">
        <ele>2196.76</ele>
        <time>2018-08-10T07:19:55Z</time>
      </trkpt>
      <trkpt lat="46.29895" lon="10.52595">
        <ele>2196.866</ele>
        <time>2018-08-10T07:20:15Z</time>
      </trkpt>
      <trkpt lat="46.299" lon="10.52622">
        <ele>2204.66</ele>
        <time>2018-08-10T07:20:35Z</time>
      </trkpt>
      <trkpt lat="46.299" lon="10.52627">
        <ele>2205.955</ele>
        <time>2018-08-10T07:20:55Z</time>
      </trkpt>
      <trkpt lat="46.29905" lon="10.52636">
        <ele>2210.236</ele>
        <time>2018-08-10T07:21:15Z</time>
      </trkpt>
      <trkpt lat="46.29907" lon="10.52638">
        <ele>2211.463</ele>
        <time>2018-08-10T07:21:35Z</time>
      </trkpt>
      <trkpt lat="46.29909" lon="10.52642">
        <ele>2213.366</ele>
        <time>2018-08-10T07:21:55Z</time>
      </trkpt>
      <trkpt lat="46.29917" lon="10.5265">
        <ele>2219.013</ele>
        <time>2018-08-10T07:22:15Z</time>
      </trkpt>
      <trkpt lat="46.29924" lon="10.52652">
        <ele>2222.643</ele>
        <time>2018-08-10T07:22:35Z</time>
      </trkpt>
      <trkpt lat="46.29931" lon="10.52636">
        <ele>2223.907</ele>
        <time>2018-08-10T07:22:55Z</time>
      </trkpt>
      <trkpt lat="46.29937" lon="10.52629">
        <ele>2225.908</ele>
        <time>2018-08-10T07:23:15Z</time>
      </trkpt>
      <trkpt lat="46.29959" lon="10.52611">
        <ele>2227.443</ele>
        <time>2018-08-10T07:23:35Z</time>
      </trkpt>
      <trkpt lat="46.2997" lon="10.52608">
        <ele>2227.058</ele>
        <time>2018-08-10T07:23:55Z</time>
      </trkpt>
      <trkpt lat="46.29972" lon="10.52608">
        <ele>2227.024</ele>
        <time>2018-08-10T07:24:15Z</time>
      </trkpt>
      <trkpt lat="46.29985" lon="10.52611">
        <ele>2231.678</ele>
        <time>2018-08-10T07:24:35Z</time>
      </trkpt>
      <trkpt lat="46.29994" lon="10.52613">
        <ele>2235.333</ele>
        <time>2018-08-10T07:24:55Z</time>
      </trkpt>
      <trkpt lat="46.29995" lon="10.52616">
        <ele>2236.884</ele>
        <time>2018-08-10T07:25:15Z</time>
      </trkpt>
      <trkpt lat="46.30002" lon="10.52618">
        <ele>2240.621</ele>
        <time>2018-08-10T07:25:35Z</time>
      </trkpt>
      <trkpt lat="46.30003" lon="10.52629">
        <ele>2246.434</ele>
        <time>2018-08-10T07:25:55Z</time>
      </trkpt>
      <trkpt lat="46.30008" lon="10.52637">
        <ele>2251.425</ele>
        <time>2018-08-10T07:26:15Z</time>
      </trkpt>
      <trkpt lat="46.30014" lon="10.52649">
        <ele>2255.426</ele>
        <time>2018-08-10T07:26:35Z</time>
      </trkpt>
      <trkpt lat="46.30029" lon="10.52674">
        <ele>2261.108</ele>
        <time>2018-08-10T07:26:55Z</time>
      </trkpt>
      <trkpt lat="46.30036" lon="10.52686">
        <ele>2261.008</ele>
        <time>2018-08-10T07:27:15Z</time>
      </trkpt>
      <trkpt lat="46.30037" lon="10.52688">
        <ele>2261.054</ele>
        <time>2018-08-10T07:27:35Z</time>
      </trkpt>
      <trkpt lat="46.30038" lon="10.52689">
        <ele>2261.299</ele>
        <time>2018-08-10T07:27:55Z</time>
      </trkpt>
      <trkpt lat="46.30047" lon="10.52699">
        <ele>2264.225</ele>
        <time>2018-08-10T07:28:15Z</time>
      </trkpt>
      <trkpt lat="46.30054" lon="10.52708">
        <ele>2266.889</ele>
        <time>2018-08-10T07:28:35Z</time>
      </trkpt>
      <trkpt lat="46.30061" lon="10.52723">
        <ele>2269.394</ele>
        <time>2018-08-10T07:28:55Z</time>
      </trkpt>
      <trkpt lat="46.30064" lon="10.5273">
        <ele>2270.055</ele>
        <time>2018-08-10T07:29:15Z</time>
      </trkpt>
      <trkpt lat="46.3007" lon="10.52751">
        <ele>2270.032</ele>
        <time>2018-08-10T07:29:35Z</time>
      </trkpt>
      <trkpt lat="46.30075" lon="10.52767">
        <ele>2272.795</ele>
        <time>2018-08-10T07:29:55Z</time>
      </trkpt>
      <trkpt lat="46.30078" lon="10.52787">
        <ele>2275.085</ele>
        <time>2018-08-10T07:30:15Z</time>
      </trkpt>
      <trkpt lat="46.3008" lon="10.52799">
        <ele>2278.589</ele>
        <time>2018-08-10T07:30:35Z</time>
      </trkpt>
      <trkpt lat="46.30081" lon="10.52797">
        <ele>2278.317</ele>
        <time>2018-08-10T07:30:55Z</time>
      </trkpt>
      <trkpt lat="46.30082" lon="10.52804">
        <ele>2280.308</ele>
        <time>2018-08-10T07:31:15Z</time>
      </trkpt>
      <trkpt lat="46.30089" lon="10.52787">
        <ele>2281.42</ele>
        <time>2018-08-10T07:31:35Z</time>
      </trkpt>
      <trkpt lat="46.30091" lon="10.52769">
        <ele>2283.235</ele>
        <time>2018-08-10T07:31:55Z</time>
      </trkpt>
      <trkpt lat="46.30092" lon="10.52766">
        <ele>2283.751</ele>
        <time>2018-08-10T07:32:15Z</time>
      </trkpt>
      <trkpt lat="46.30092" lon="10.52764">
        <ele>2284.635</ele>
        <time>2018-08-10T07:32:35Z</time>
      </trkpt>
      <trkpt lat="46.30095" lon="10.52751">
        <ele>2288.05</ele>
        <time>2018-08-10T07:32:55Z</time>
      </trkpt>
      <trkpt lat="46.30095" lon="10.52733">
        <ele>2290.491</ele>
        <time>2018-08-10T07:33:15Z</time>
      </trkpt>
      <trkpt lat="46.30096" lon="10.52716">
        <ele>2292.418</ele>
        <time>2018-08-10T07:33:35Z</time>
      </trkpt>
      <trkpt lat="46.30097" lon="10.5271">
        <ele>2293.981</ele>
        <time>2018-08-10T07:33:55Z</time>
      </trkpt>
      <trkpt lat="46.30096" lon="10.52703">
        <ele>2294.099</ele>
        <time>2018-08-10T07:34:15Z</time>
      </trkpt>
      <trkpt lat="46.30098" lon="10.52705">
        <ele>2295.107</ele>
        <time>2018-08-10T07:34:35Z</time>
      </trkpt>
      <trkpt lat="46.30099" lon="10.52703">
        <ele>2295.527</ele>
        <time>2018-08-10T07:34:55Z</time>
      </trkpt>
      <trkpt lat="46.30104" lon="10.52713">
        <ele>2298.408</ele>
        <time>2018-08-10T07:35:15Z</time>
      </trkpt>
      <trkpt lat="46.30106" lon="10.52715">
        <ele>2299.511</ele>
        <time>2018-08-10T07:35:35Z</time>
      </trkpt>
      <trkpt lat="46.30122" lon="10.52744">
        <ele>2305.386</ele>
        <time>2018-08-10T07:35:55Z</time>
      </trkpt>
      <trkpt lat="46.30124" lon="10.52747">
        <ele>2305.792</ele>
        <time>2018-08-10T07:36:15Z</time>
      </trkpt>
      <trkpt lat="46.30125" lon="10.52753">
        <ele>2305.926</ele>
        <time>2018-08-10T07:36:35Z</time>
      </trkpt>
      <trkpt lat="46.30126" lon="10.52756">
        <ele>2306.021</ele>
        <time>2018-08-10T07:36:55Z</time>
      </trkpt>
      <trkpt lat="46.30126" lon="10.52757">
        <ele>2306.122</ele>
        <time>2018-08-10T07:37:15Z</time>
      </trkpt>
      <trkpt lat="46.30129" lon="10.52766">
        <ele>2306.779</ele>
        <time>2018-08-10T07:37:35Z</time>
      </trkpt>
      <trkpt lat="46.30129" lon="10.52769">
        <ele>2306.792</ele>
        <time>2018-08-10T07:37:55Z</time>
      </trkpt>
      <trkpt lat="46.30129" lon="10.52777">
        <ele>2306.392</ele>
        <time>2018-08-10T07:38:15Z</time>
      </trkpt>
      <trkpt lat="46.30129" lon="10.5278">
        <ele>2306.673</ele>
        <time>2018-08-10T07:38:35Z</time>
      </trkpt>
      <trkpt lat="46.30131" lon="10.52785">
        <ele>2307.72</ele>
        <time>2018-08-10T07:38:55Z</time>
      </trkpt>
      <trkpt lat="46.3014" lon="10.52794">
        <ele>2312.808</ele>
        <time>2018-08-10T07:39:15Z</time>
      </trkpt>
      <trkpt lat="46.30142" lon="10.52795">
        <ele>2313.481</ele>
        <time>2018-08-10T07:39:35Z</time>
      </trkpt>
      <trkpt lat="46.30143" lon="10.52799">
        <ele>2314.246</ele>
        <time>2018-08-10T07:39:55Z</time>
      </trkpt>
      <trkpt lat="46.30142" lon="10.528">
        <ele>2314.352</ele>
        <time>2018-08-10T07:40:15Z</time>
      </trkpt>
      <trkpt lat="46.30141" lon="10.52841">
        <ele>2318.496</ele>
        <time>2018-08-10T07:40:35Z</time>
      </trkpt>
      <trkpt lat="46.30139" lon="10.52847">
        <ele>2318.661</ele>
        <time>2018-08-10T07:40:55Z</time>
      </trkpt>
      <trkpt lat="46.30138" lon="10.52851">
        <ele>2318.312</ele>
        <time>2018-08-10T07:41:15Z</time>
      </trkpt>
      <trkpt lat="46.30136" lon="10.52854">
        <ele>2317.979</ele>
        <time>2018-08-10T07:41:35Z</time>
      </trkpt>
      <trkpt lat="46.30135" lon="10.52856">
        <ele>2317.392</ele>
        <time>2018-08-10T07:41:55Z</time>
      </trkpt>
      <trkpt lat="46.30133" lon="10.52857">
        <ele>2316.773</ele>
        <time>2018-08-10T07:42:15Z</time>
      </trkpt>
      <trkpt lat="46.30131" lon="10.52859">
        <ele>2315.985</ele>
        <time>2018-08-10T07:42:35Z</time>
      </trkpt>
      <trkpt lat="46.30123" lon="10.52863">
        <ele>2312.213</ele>
        <time>2018-08-10T07:42:55Z</time>
      </trkpt>
      <trkpt lat="46.30122" lon="10.52864">
        <ele>2311.508</ele>
        <time>2018-08-10T07:43:15Z</time>
      </trkpt>
      <trkpt lat="46.30106" lon="10.52869">
        <ele>2305.859</ele>
        <time>2018-08-10T07:43:35Z</time>
      </trkpt>
      <trkpt lat="46.30106" lon="10.52869">
        <ele>2305.834</ele>
        <time>2018-08-10T07:43:55Z</time>
      </trkpt>
      <trkpt lat="46.301" lon="10.52874">
        <ele>2305.29</ele>
        <time>2018-08-10T07:44:15Z</time>
      </trkpt>
      <trkpt lat="46.30098" lon="10.52876">
        <ele>2304.984</ele>
        <time>2018-08-10T07:44:35Z</time>
      </trkpt>
      <trkpt lat="46.30099" lon="10.52878">
        <ele>2305.489</ele>
        <time>2018-08-10T07:44:55Z</time>
      </trkpt>
      <trkpt lat="46.30099" lon="10.52879">
        <ele>2305.42</ele>
        <time>2018-08-10T07:45:15Z</time>
      </trkpt>
      <trkpt lat="46.30099" lon="10.52879">
        <ele>2305.427</ele>
        <time>2018-08-10T07:45:35Z</time>
      </trkpt>
      <trkpt lat="46.30097" lon="10.52883">
        <ele>2305.45</ele>
        <time>2018-08-10T07:45:55Z</time>
      </trkpt>
      <trkpt lat="46.30097" lon="10.52883">
        <ele>2305.451</ele>
        <time>2018-08-10T07:46:15Z</time>
      </trkpt>
      <trkpt lat="46.30096" lon="10.52887">
        <ele>2305.601</ele>
        <time>2018-08-10T07:46:35Z</time>
      </trkpt>
      <trkpt lat="46.30097" lon="10.52887">
        <ele>2305.711</ele>
        <time>2018-08-10T07:46:55Z</time>
      </trkpt>
      <trkpt lat="46.30096" lon="10.5289">
        <ele>2305.808</ele>
        <time>2018-08-10T07:47:15Z</time>
      </trkpt>
      <trkpt lat="46.30098" lon="10.52902">
        <ele>2306.767</ele>
        <time>2018-08-10T07:47:35Z</time>
      </trkpt>
      <trkpt lat="46.30102" lon="10.52927">
        <ele>2309.612</ele>
        <time>2018-08-10T07:47:55Z</time>
      </trkpt>
      <trkpt lat="46.30105" lon="10.52954">
        <ele>2312.918</ele>
        <time>2018-08-10T07:48:15Z</time>
      </trkpt>
      <trkpt lat="46.30107" lon="10.52971">
        <ele>2316.792</ele>
        <time>2018-08-10T07:48:35Z</time>
      </trkpt>
      <trkpt lat="46.30115" lon="10.52999">
        <ele>2316.317</ele>
        <time>2018-08-10T07:48:55Z</time>
      </trkpt>
      <trkpt lat="46.30121" lon="10.53015">
        <ele>2316.688</ele>
        <time>2018-08-10T07:49:15Z</time>
      </trkpt>
      <trkpt lat="46.30127" lon="10.53032">
        <ele>2317.645</ele>
        <time>2018-08-10T07:49:35Z</time>
      </trkpt>
      <trkpt lat="46.30129" lon="10.53046">
        <ele>2317.268</ele>
        <time>2018-08-10T07:49:55Z</time>
      </trkpt>
      <trkpt lat="46.30129" lon="10.53067">
        <ele>2315.321</ele>
        <time>2018-08-10T07:50:15Z</time>
      </trkpt>
      <trkpt lat="46.30126" lon="10.5309">
        <ele>2314.141</ele>
        <time>2018-08-10T07:50:35Z</time>
      </trkpt>
      <trkpt lat="46.3012" lon="10.53118">
        <ele>2313.605</ele>
        <time>2018-08-10T07:50:55Z</time>
      </trkpt>
      <trkpt lat="46.30111" lon="10.53152">
        <ele>2313.908</ele>
        <time>2018-08-10T07:51:15Z</time>
      </trkpt>
      <trkpt lat="46.30105" lon="10.5318">
        <ele>2313.464</ele>
        <time>2018-08-10T07:51:35Z</time>
      </trkpt>
      <trkpt lat="46.30102" lon="10.53212">
        <ele>2316.049</ele>
        <time>2018-08-10T07:51:55Z</time>
      </trkpt>
      <trkpt lat="46.30104" lon="10.53235">
        <ele>2317.815</ele>
        <time>2018-08-10T07:52:15Z</time>
      </trkpt>
      <trkpt lat="46.30102" lon="10.53254">
        <ele>2316.359</ele>
        <time>2018-08-10T07:52:35Z</time>
      </trkpt>
      <trkpt lat="46.30106" lon="10.53268">
        <ele>2315.644</ele>
        <time>2018-08-10T07:52:55Z</time>
      </trkpt>
      <trkpt lat="46.30108" lon="10.53276">
        <ele>2315.155</ele>
        <time>2018-08-10T07:53:15Z</time>
      </trkpt>
      <trkpt lat="46.30109" lon="10.5328">
        <ele>2314.962</ele>
        <time>2018-08-10T07:53:35Z</time>
      </trkpt>
      <trkpt lat="46.30117" lon="10.53302">
        <ele>2314.885</ele>
        <time>2018-08-10T07:53:55Z</time>
      </trkpt>
      <trkpt lat="46.30131" lon="10.5332">
        <ele>2319.345</ele>
        <time>2018-08-10T07:54:15Z</time>
      </trkpt>
      <trkpt lat="46.30144" lon="10.53335">
        <ele>2321.147</ele>
        <time>2018-08-10T07:54:35Z</time>
      </trkpt>
      <trkpt lat="46.3016" lon="10.53366">
        <ele>2318.611</ele>
        <time>2018-08-10T07:54:55Z</time>
      </trkpt>
      <trkpt lat="46.30163" lon="10.53376">
        <ele>2318.708</ele>
        <time>2018-08-10T07:55:15Z</time>
      </trkpt>
      <trkpt lat="46.30163" lon="10.53378">
        <ele>2318.226</ele>
        <time>2018-08-10T07:55:35Z</time>
      </trkpt>
      <trkpt lat="46.30169" lon="10.53405">
        <ele>2318.361</ele>
        <time>2018-08-10T07:55:55Z</time>
      </trkpt>
      <trkpt lat="46.3017" lon="10.53414">
        <ele>2317.457</ele>
        <time>2018-08-10T07:56:15Z</time>
      </trkpt>
      <trkpt lat="46.30175" lon="10.53451">
        <ele>2313.461</ele>
        <time>2018-08-10T07:56:35Z</time>
      </trkpt>
      <trkpt lat="46.30182" lon="10.53477">
        <ele>2310.326</ele>
        <time>2018-08-10T07:56:55Z</time>
      </trkpt>
      <trkpt lat="46.30193" lon="10.53487">
        <ele>2310.557</ele>
        <time>2018-08-10T07:57:15Z</time>
      </trkpt>
      <trkpt lat="46.30206" lon="10.53496">
        <ele>2311.174</ele>
        <time>2018-08-10T07:57:35Z</time>
      </trkpt>
      <trkpt lat="46.30214" lon="10.53502">
        <ele>2310.857</ele>
        <time>2018-08-10T07:57:55Z</time>
      </trkpt>
      <trkpt lat="46.30224" lon="10.53508">
        <ele>2311.091</ele>
        <time>2018-08-10T07:58:15Z</time>
      </trkpt>
      <trkpt lat="46.30234" lon="10.5352">
        <ele>2311.481</ele>
        <time>2018-08-10T07:58:35Z</time>
      </trkpt>
      <trkpt lat="46.3024" lon="10.53533">
        <ele>2311.519</ele>
        <time>2018-08-10T07:58:55Z</time>
      </trkpt>
      <trkpt lat="46.30246" lon="10.53543">
        <ele>2312.208</ele>
        <time>2018-08-10T07:59:15Z</time>
      </trkpt>
      <trkpt lat="46.30251" lon="10.53557">
        <ele>2312.071</ele>
        <time>2018-08-10T07:59:35Z</time>
      </trkpt>
      <trkpt lat="46.30256" lon="10.53567">
        <ele>2311.956</ele>
        <time>2018-08-10T07:59:55Z</time>
      </trkpt>
      <trkpt lat="46.30263" lon="10.53581">
        <ele>2311.932</ele>
        <time>2018-08-10T08:00:15Z</time>
      </trkpt>
      <trkpt lat="46.30267" lon="10.53593">
        <ele>2311.316</ele>
        <time>2018-08-10T08:00:35Z</time>
      </trkpt>
      <trkpt lat="46.30274" lon="10.53602">
        <ele>2311.621</ele>
        <time>2018-08-10T08:00:55Z</time>
      </trkpt>
      <trkpt lat="46.30279" lon="10.53613">
        <ele>2311.312</ele>
        <time>2018-08-10T08:01:15Z</time>
      </trkpt>
      <trkpt lat="46.30284" lon="10.53622">
        <ele>2312.019</ele>
        <time>2018-08-10T08:01:35Z</time>
      </trkpt>
      <trkpt lat="46.30297" lon="10.53649">
        <ele>2314.252</ele>
        <time>2018-08-10T08:01:55Z</time>
      </trkpt>
      <trkpt lat="46.30298" lon="10.53651">
        <ele>2314.456</ele>
        <time>2018-08-10T08:02:15Z</time>
      </trkpt>
      <trkpt lat="46.30302" lon="10.53659">
        <ele>2314.459</ele>
        <time>2018-08-10T08:02:35Z</time>
      </trkpt>
      <trkpt lat="46.30306" lon="10.5368">
        <ele>2312.814</ele>
        <time>2018-08-10T08:02:55Z</time>
      </trkpt>
      <trkpt lat="46.3031" lon="10.53691">
        <ele>2312.208</ele>
        <time>2018-08-10T08:03:15Z</time>
      </trkpt>
      <trkpt lat="46.30314" lon="10.53705">
        <ele>2310.587</ele>
        <time>2018-08-10T08:03:35Z</time>
      </trkpt>
      <trkpt lat="46.30322" lon="10.53726">
        <ele>2308.562</ele>
        <time>2018-08-10T08:03:55Z</time>
      </trkpt>
      <trkpt lat="46.30329" lon="10.53735">
        <ele>2308.828</ele>
        <time>2018-08-10T08:04:15Z</time>
      </trkpt>
      <trkpt lat="46.30336" lon="10.53743">
        <ele>2309.562</ele>
        <time>2018-08-10T08:04:35Z</time>
      </trkpt>
      <trkpt lat="46.30345" lon="10.53754">
        <ele>2309.727</ele>
        <time>2018-08-10T08:04:55Z</time>
      </trkpt>
      <trkpt lat="46.30358" lon="10.53761">
        <ele>2311.698</ele>
        <time>2018-08-10T08:05:15Z</time>
      </trkpt>
      <trkpt lat="46.30368" lon="10.53775">
        <ele>2310.825</ele>
        <time>2018-08-10T08:05:35Z</time>
      </trkpt>
      <trkpt lat="46.30368" lon="10.53775">
        <ele>2310.878</ele>
        <time>2018-08-10T08:05:55Z</time>
      </trkpt>
      <trkpt lat="46.30376" lon="10.53789">
        <ele>2309.291</ele>
        <time>2018-08-10T08:06:15Z</time>
      </trkpt>
      <trkpt lat="46.30381" lon="10.53795">
        <ele>2308.781</ele>
        <time>2018-08-10T08:06:35Z</time>
      </trkpt>
      <trkpt lat="46.30387" lon="10.538">
        <ele>2308.919</ele>
        <time>2018-08-10T08:06:55Z</time>
      </trkpt>
      <trkpt lat="46.3039" lon="10.53807">
        <ele>2307.908</ele>
        <time>2018-08-10T08:07:15Z</time>
      </trkpt>
      <trkpt lat="46.3039" lon="10.53821">
        <ele>2303.781</ele>
        <time>2018-08-10T08:07:35Z</time>
      </trkpt>
      <trkpt lat="46.30394" lon="10.53831">
        <ele>2301.766</ele>
        <time>2018-08-10T08:07:55Z</time>
      </trkpt>
      <trkpt lat="46.30398" lon="10.5384">
        <ele>2299.372</ele>
        <time>2018-08-10T08:08:15Z</time>
      </trkpt>
      <trkpt lat="46.30403" lon="10.5385">
        <ele>2297.086</ele>
        <time>2018-08-10T08:08:35Z</time>
      </trkpt>
      <trkpt lat="46.3041" lon="10.53855">
        <ele>2296.661</ele>
        <time>2018-08-10T08:08:55Z</time>
      </trkpt>
      <trkpt lat="46.30425" lon="10.53859">
        <ele>2299.072</ele>
        <time>2018-08-10T08:09:15Z</time>
      </trkpt>
      <trkpt lat="46.30435" lon="10.53862">
        <ele>2300.889</ele>
        <time>2018-08-10T08:09:35Z</time>
      </trkpt>
      <trkpt lat="46.30447" lon="10.53866">
        <ele>2302.932</ele>
        <time>2018-08-10T08:09:55Z</time>
      </trkpt>
      <trkpt lat="46.30465" lon="10.53867">
        <ele>2307.141</ele>
        <time>2018-08-10T08:10:15Z</time>
      </trkpt>
      <trkpt lat="46.30479" lon="10.53879">
        <ele>2306.981</ele>
        <time>2018-08-10T08:10:35Z</time>
      </trkpt>
      <trkpt lat="46.3049" lon="10.53888">
        <ele>2306.609</ele>
        <time>2018-08-10T08:10:55Z</time>
      </trkpt>
      <trkpt lat="46.30499" lon="10.53898">
        <ele>2304.508</ele>
        <time>2018-08-10T08:11:15Z</time>
      </trkpt>
      <trkpt lat="46.30511" lon="10.53913">
        <ele>2303.446</ele>
        <time>2018-08-10T08:11:35Z</time>
      </trkpt>
      <trkpt lat="46.30526" lon="10.53936">
        <ele>2299.851</ele>
        <time>2018-08-10T08:11:55Z</time>
      </trkpt>
      <trkpt lat="46.30535" lon="10.53953">
        <ele>2293.147</ele>
        <time>2018-08-10T08:12:15Z</time>
      </trkpt>
      <trkpt lat="46.30546" lon="10.53964">
        <ele>2291.821</ele>
        <time>2018-08-10T08:12:35Z</time>
      </trkpt>
      <trkpt lat="46.30552" lon="10.53979">
        <ele>2287.676</ele>
        <time>2018-08-10T08:12:55Z</time>
      </trkpt>
      <trkpt lat="46.30563" lon="10.53986">
        <ele>2288.117</ele>
        <time>2018-08-10T08:13:15Z</time>
      </trkpt>
      <trkpt lat="46.30589" lon="10.54001">
        <ele>2288.684</ele>
        <time>2018-08-10T08:13:35Z</time>
      </trkpt>
      <trkpt lat="46.30603" lon="10.5401">
        <ele>2288.587</ele>
        <time>2018-08-10T08:13:55Z</time>
      </trkpt>
      <trkpt lat="46.30619" lon="10.54022">
        <ele>2287.835</ele>
        <time>2018-08-10T08:14:15Z</time>
      </trkpt>
      <trkpt lat="46.30641" lon="10.54048">
        <ele>2281.886</ele>
        <time>2018-08-10T08:14:35Z</time>
      </trkpt>
      <trkpt lat="46.30663" lon="10.5407">
        <ele>2274.414</ele>
        <time>2018-08-10T08:14:55Z</time>
      </trkpt>
      <trkpt lat="46.30675" lon="10.54077">
        <ele>2273.708</ele>
        <time>2018-08-10T08:15:15Z</time>
      </trkpt>
      <trkpt lat="46.30689" lon="10.54092">
        <ele>2269.795</ele>
        <time>2018-08-10T08:15:35Z</time>
      </trkpt>
      <trkpt lat="46.30705" lon="10.54104">
        <ele>2270.17</ele>
        <time>2018-08-10T08:15:55Z</time>
      </trkpt>
      <trkpt lat="46.30713" lon="10.54108">
        <ele>2271.126</ele>
        <time>2018-08-10T08:16:15Z</time>
      </trkpt>
      <trkpt lat="46.30725" lon="10.54113">
        <ele>2272.17</ele>
        <time>2018-08-10T08:16:35Z</time>
      </trkpt>
      <trkpt lat="46.30737" lon="10.54113">
        <ele>2273.365</ele>
        <time>2018-08-10T08:16:55Z</time>
      </trkpt>
      <trkpt lat="46.30746" lon="10.54114">
        <ele>2273.626</ele>
        <time>2018-08-10T08:17:15Z</time>
      </trkpt>
      <trkpt lat="46.30767" lon="10.54122">
        <ele>2270.823</ele>
        <time>2018-08-10T08:17:35Z</time>
      </trkpt>
      <trkpt lat="46.30788" lon="10.5412">
        <ele>2269.376</ele>
        <time>2018-08-10T08:17:55Z</time>
      </trkpt>
      <trkpt lat="46.30801" lon="10.54114">
        <ele>2269.549</ele>
        <time>2018-08-10T08:18:15Z</time>
      </trkpt>
      <trkpt lat="46.30812" lon="10.54115">
        <ele>2267.102</ele>
        <time>2018-08-10T08:18:35Z</time>
      </trkpt>
      <trkpt lat="46.30825" lon="10.54113">
        <ele>2266.022</ele>
        <time>2018-08-10T08:18:55Z</time>
      </trkpt>
      <trkpt lat="46.30835" lon="10.54113">
        <ele>2264.708</ele>
        <time>2018-08-10T08:19:15Z</time>
      </trkpt>
      <trkpt lat="46.30847" lon="10.54113">
        <ele>2263.756</ele>
        <time>2018-08-10T08:19:35Z</time>
      </trkpt>
      <trkpt lat="46.30869" lon="10.54115">
        <ele>2261.841</ele>
        <time>2018-08-10T08:19:55Z</time>
      </trkpt>
      <trkpt lat="46.3088" lon="10.54115">
        <ele>2262.167</ele>
        <time>2018-08-10T08:20:15Z</time>
      </trkpt>
      <trkpt lat="46.30892" lon="10.54113">
        <ele>2262.351</ele>
        <time>2018-08-10T08:20:35Z</time>
      </trkpt>
      <trkpt lat="46.309" lon="10.54115">
        <ele>2260.816</ele>
        <time>2018-08-10T08:20:55Z</time>
      </trkpt>
      <trkpt lat="46.30912" lon="10.54114">
        <ele>2259.677</ele>
        <time>2018-08-10T08:21:15Z</time>
      </trkpt>
      <trkpt lat="46.30922" lon="10.54109">
        <ele>2258.674</ele>
        <time>2018-08-10T08:21:35Z</time>
      </trkpt>
      <trkpt lat="46.30927" lon="10.54105">
        <ele>2258.377</ele>
        <time>2018-08-10T08:21:55Z</time>
      </trkpt>
      <trkpt lat="46.30935" lon="10.54102">
        <ele>2255.789</ele>
        <time>2018-08-10T08:22:15Z</time>
      </trkpt>
      <trkpt lat="46.3095" lon="10.54094">
        <ele>2250.606</ele>
        <time>2018-08-10T08:22:35Z</time>
      </trkpt>
      <trkpt lat="46.30955" lon="10.54086">
        <ele>2250.526</ele>
        <time>2018-08-10T08:22:55Z</time>
      </trkpt>
      <trkpt lat="46.30968" lon="10.54075">
        <ele>2247.808</ele>
        <time>2018-08-10T08:23:15Z</time>
      </trkpt>
      <trkpt lat="46.30974" lon="10.5407">
        <ele>2247.14</ele>
        <time>2018-08-10T08:23:35Z</time>
      </trkpt>
      <trkpt lat="46.30981" lon="10.54066">
        <ele>2247.795</ele>
        <time>2018-08-10T08:23:55Z</time>
      </trkpt>
      <trkpt lat="46.30994" lon="10.5405">
        <ele>2251.631</ele>
        <time>2018-08-10T08:24:15Z</time>
      </trkpt>
      <trkpt lat="46.31" lon="10.54048">
        <ele>2251.125</ele>
        <time>2018-08-10T08:24:35Z</time>
      </trkpt>
      <trkpt lat="46.31011" lon="10.54046">
        <ele>2249.94</ele>
        <time>2018-08-10T08:24:55Z</time>
      </trkpt>
      <trkpt lat="46.31019" lon="10.5404">
        <ele>2251.221</ele>
        <time>2018-08-10T08:25:15Z</time>
      </trkpt>
      <trkpt lat="46.31029" lon="10.54034">
        <ele>2252.148</ele>
        <time>2018-08-10T08:25:35Z</time>
      </trkpt>
      <trkpt lat="46.31034" lon="10.54032">
        <ele>2252.891</ele>
        <time>2018-08-10T08:25:55Z</time>
      </trkpt>
      <trkpt lat="46.31038" lon="10.54028">
        <ele>2254.121</ele>
        <time>2018-08-10T08:26:15Z</time>
      </trkpt>
      <trkpt lat="46.31044" lon="10.54028">
        <ele>2253.741</ele>
        <time>2018-08-10T08:26:35Z</time>
      </trkpt>
      <trkpt lat="46.31051" lon="10.54027">
        <ele>2253.605</ele>
        <time>2018-08-10T08:26:55Z</time>
      </trkpt>
      <trkpt lat="46.31053" lon="10.54027">
        <ele>2253.608</ele>
        <time>2018-08-10T08:27:15Z</time>
      </trkpt>
      <trkpt lat="46.31067" lon="10.54024">
        <ele>2252.824</ele>
        <time>2018-08-10T08:27:35Z</time>
      </trkpt>
      <trkpt lat="46.31069" lon="10.54024">
        <ele>2252.249</ele>
        <time>2018-08-10T08:27:55Z</time>
      </trkpt>
      <trkpt lat="46.31085" lon="10.54021">
        <ele>2251.375</ele>
        <time>2018-08-10T08:28:15Z</time>
      </trkpt>
      <trkpt lat="46.31088" lon="10.5402">
        <ele>2252.019</ele>
        <time>2018-08-10T08:28:35Z</time>
      </trkpt>
      <trkpt lat="46.31093" lon="10.54015">
        <ele>2254.074</ele>
        <time>2018-08-10T08:28:55Z</time>
      </trkpt>
      <trkpt lat="46.31097" lon="10.54014">
        <ele>2254.645</ele>
        <time>2018-08-10T08:29:15Z</time>
      </trkpt>
      <trkpt lat="46.31144" lon="10.54001">
        <ele>2250.922</ele>
        <time>2018-08-10T08:29:35Z</time>
      </trkpt>
      <trkpt lat="46.31154" lon="10.53992">
        <ele>2250.735</ele>
        <time>2018-08-10T08:29:55Z</time>
      </trkpt>
      <trkpt lat="46.31168" lon="10.53975">
        <ele>2249.097</ele>
        <time>2018-08-10T08:30:15Z</time>
      </trkpt>
      <trkpt lat="46.31175" lon="10.53967">
        <ele>2250.523</ele>
        <time>2018-08-10T08:30:35Z</time>
      </trkpt>
      <trkpt lat="46.31189" lon="10.53952">
        <ele>2250.725</ele>
        <time>2018-08-10T08:30:55Z</time>
      </trkpt>
      <trkpt lat="46.31197" lon="10.53945">
        <ele>2249.708</ele>
        <time>2018-08-10T08:31:15Z</time>
      </trkpt>
      <trkpt lat="46.31203" lon="10.53942">
        <ele>2250.981</ele>
        <time>2018-08-10T08:31:35Z</time>
      </trkpt>
      <trkpt lat="46.3121" lon="10.53942">
        <ele>2250.946</ele>
        <time>2018-08-10T08:31:55Z</time>
      </trkpt>
      <trkpt lat="46.31215" lon="10.53946">
        <ele>2249.422</ele>
        <time>2018-08-10T08:32:15Z</time>
      </trkpt>
      <trkpt lat="46.31224" lon="10.5395">
        <ele>2247.596</ele>
        <time>2018-08-10T08:32:35Z</time>
      </trkpt>
      <trkpt lat="46.31224" lon="10.5395">
        <ele>2247.561</ele>
        <time>2018-08-10T08:32:55Z</time>
      </trkpt>
      <trkpt lat="46.31229" lon="10.53949">
        <ele>2246.862</ele>
        <time>2018-08-10T08:33:15Z</time>
      </trkpt>
      <trkpt lat="46.31237" lon="10.53951">
        <ele>2244.029</ele>
        <time>2018-08-10T08:33:35Z</time>
      </trkpt>
      <trkpt lat="46.31244" lon="10.53954">
        <ele>2241.152</ele>
        <time>2018-08-10T08:33:55Z</time>
      </trkpt>
      <trkpt lat="46.31251" lon="10.53955">
        <ele>2239.289</ele>
        <time>2018-08-10T08:34:15Z</time>
      </trkpt>
      <trkpt lat="46.31256" lon="10.53958">
        <ele>2237.306</ele>
        <time>2018-08-10T08:34:35Z</time>
      </trkpt>
      <trkpt lat="46.3126" lon="10.53963">
        <ele>2234.726</ele>
        <time>2018-08-10T08:34:55Z</time>
      </trkpt>
      <trkpt lat="46.31265" lon="10.53963">
        <ele>2234.008</ele>
        <time>2018-08-10T08:35:15Z</time>
      </trkpt>
      <trkpt lat="46.3127" lon="10.53959">
        <ele>2235.03</ele>
        <time>2018-08-10T08:35:35Z</time>
      </trkpt>
      <trkpt lat="46.31278" lon="10.53955">
        <ele>2234.975</ele>
        <time>2018-08-10T08:35:55Z</time>
      </trkpt>
      <trkpt lat="46.31286" lon="10.53959">
        <ele>2233.361</ele>
        <time>2018-08-10T08:36:15Z</time>
      </trkpt>
      <trkpt lat="46.31289" lon="10.53966">
        <ele>2231.265</ele>
        <time>2018-08-10T08:36:35Z</time>
      </trkpt>
      <trkpt lat="46.31291" lon="10.53978">
        <ele>2227.75</ele>
        <time>2018-08-10T08:36:55Z</time>
      </trkpt>
      <trkpt lat="46.31292" lon="10.53987">
        <ele>2224.741</ele>
        <time>2018-08-10T08:37:15Z</time>
      </trkpt>
      <trkpt lat="46.31291" lon="10.53999">
        <ele>2220.958</ele>
        <time>2018-08-10T08:37:35Z</time>
      </trkpt>
      <trkpt lat="46.31288" lon="10.54005">
        <ele>2218.821</ele>
        <time>2018-08-10T08:37:55Z</time>
      </trkpt>
      <trkpt lat="46.31285" lon="10.54013">
        <ele>2215.957</ele>
        <time>2018-08-10T08:38:15Z</time>
      </trkpt>
      <trkpt lat="46.31282" lon="10.54021">
        <ele>2213.3</ele>
        <time>2018-08-10T08:38:35Z</time>
      </trkpt>
      <trkpt lat="46.31279" lon="10.54027">
        <ele>2211.32</ele>
        <time>2018-08-10T08:38:55Z</time>
      </trkpt>
      <trkpt lat="46.31277" lon="10.54033">
        <ele>2209.008</ele>
        <time>2018-08-10T08:39:15Z</time>
      </trkpt>
      <trkpt lat="46.31275" lon="10.54043">
        <ele>2205.357</ele>
        <time>2018-08-10T08:39:35Z</time>
      </trkpt>
      <trkpt lat="46.31272" lon="10.54049">
        <ele>2203.342</ele>
        <time>2018-08-10T08:39:55Z</time>
      </trkpt>
      <trkpt lat="46.3127" lon="10.54058">
        <ele>2200.338</ele>
        <time>2018-08-10T08:40:15Z</time>
      </trkpt>
      <trkpt lat="46.31268" lon="10.54063">
        <ele>2198.982</ele>
        <time>2018-08-10T08:40:35Z</time>
      </trkpt>
      <trkpt lat="46.31266" lon="10.54069">
        <ele>2196.897</ele>
        <time>2018-08-10T08:40:55Z</time>
      </trkpt>
      <trkpt lat="46.31263" lon="10.54074">
        <ele>2195.768</ele>
        <time>2018-08-10T08:41:15Z</time>
      </trkpt>
      <trkpt lat="46.31256" lon="10.54074">
        <ele>2196.365</ele>
        <time>2018-08-10T08:41:35Z</time>
      </trkpt>
      <trkpt lat="46.31252" lon="10.54071">
        <ele>2198.318</ele>
        <time>2018-08-10T08:41:55Z</time>
      </trkpt>
      <trkpt lat="46.31248" lon="10.54068">
        <ele>2200.178</ele>
        <time>2018-08-10T08:42:15Z</time>
      </trkpt>
      <trkpt lat="46.31243" lon="10.54067">
        <ele>2201.233</ele>
        <time>2018-08-10T08:42:35Z</time>
      </trkpt>
      <trkpt lat="46.31242" lon="10.54068">
        <ele>2201.226</ele>
        <time>2018-08-10T08:42:55Z</time>
      </trkpt>
      <trkpt lat="46.31239" lon="10.5407">
        <ele>2201.008</ele>
        <time>2018-08-10T08:43:15Z</time>
      </trkpt>
      <trkpt lat="46.3124" lon="10.54075">
        <ele>2199.099</ele>
        <time>2018-08-10T08:43:35Z</time>
      </trkpt>
      <trkpt lat="46.31241" lon="10.54078">
        <ele>2197.964</ele>
        <time>2018-08-10T08:43:55Z</time>
      </trkpt>
      <trkpt lat="46.3124" lon="10.54093">
        <ele>2192.76</ele>
        <time>2018-08-10T08:44:15Z</time>
      </trkpt>
      <trkpt lat="46.3124" lon="10.54096">
        <ele>2191.744</ele>
        <time>2018-08-10T08:44:35Z</time>
      </trkpt>
      <trkpt lat="46.31238" lon="10.54112">
        <ele>2186.719</ele>
        <time>2018-08-10T08:44:55Z</time>
      </trkpt>
      <trkpt lat="46.31243" lon="10.54129">
        <ele>2179.26</ele>
        <time>2018-08-10T08:45:15Z</time>
      </trkpt>
      <trkpt lat="46.31241" lon="10.5413">
        <ele>2179.547</ele>
        <time>2018-08-10T08:45:35Z</time>
      </trkpt>
      <trkpt lat="46.31236" lon="10.54133">
        <ele>2179.74</ele>
        <time>2018-08-10T08:45:55Z</time>
      </trkpt>
      <trkpt lat="46.31233" lon="10.54138">
        <ele>2178.378</ele>
        <time>2018-08-10T08:46:15Z</time>
      </trkpt>
      <trkpt lat="46.31232" lon="10.54146">
        <ele>2176.333</ele>
        <time>2018-08-10T08:46:35Z</time>
      </trkpt>
      <trkpt lat="46.31227" lon="10.54153">
        <ele>2175.126</ele>
        <time>2018-08-10T08:46:55Z</time>
      </trkpt>
      <trkpt lat="46.31226" lon="10.54161">
        <ele>2173.008</ele>
        <time>2018-08-10T08:47:15Z</time>
      </trkpt>
      <trkpt lat="46.31223" lon="10.5417">
        <ele>2170.759</ele>
        <time>2018-08-10T08:47:35Z</time>
      </trkpt>
      <trkpt lat="46.31222" lon="10.54184">
        <ele>2165.844</ele>
        <time>2018-08-10T08:47:55Z</time>
      </trkpt>
      <trkpt lat="46.31219" lon="10.54189">
        <ele>2164.82</ele>
        <time>2018-08-10T08:48:15Z</time>
      </trkpt>
      <trkpt lat="46.31215" lon="10.54199">
        <ele>2162.094</ele>
        <time>2018-08-10T08:48:35Z</time>
      </trkpt>
      <trkpt lat="46.31213" lon="10.54204">
        <ele>2160.829</ele>
        <time>2018-08-10T08:48:55Z</time>
      </trkpt>
      <trkpt lat="46.3121" lon="10.54209">
        <ele>2159.39</ele>
        <time>2018-08-10T08:49:15Z</time>
      </trkpt>
      <trkpt lat="46.31209" lon="10.54215">
        <ele>2157.287</ele>
        <time>2018-08-10T08:49:35Z</time>
      </trkpt>
      <trkpt lat="46.31214" lon="10.54218">
        <ele>2154.91</ele>
        <time>2018-08-10T08:49:55Z</time>
      </trkpt>
      <trkpt lat="46.31215" lon="10.54218">
        <ele>2154.814</ele>
        <time>2018-08-10T08:50:15Z</time>
      </trkpt>
      <trkpt lat="46.3122" lon="10.54217">
        <ele>2154.154</ele>
        <time>2018-08-10T08:50:35Z</time>
      </trkpt>
      <trkpt lat="46.31221" lon="10.54217">
        <ele>2154.109</ele>
        <time>2018-08-10T08:50:55Z</time>
      </trkpt>
      <trkpt lat="46.31235" lon="10.54216">
        <ele>2152.308</ele>
        <time>2018-08-10T08:51:15Z</time>
      </trkpt>
      <trkpt lat="46.31235" lon="10.54216">
        <ele>2152.263</ele>
        <time>2018-08-10T08:51:35Z</time>
      </trkpt>
      <trkpt lat="46.31241" lon="10.54218">
        <ele>2150.888</ele>
        <time>2018-08-10T08:51:55Z</time>
      </trkpt>
      <trkpt lat="46.31245" lon="10.54221">
        <ele>2149.134</ele>
        <time>2018-08-10T08:52:15Z</time>
      </trkpt>
      <trkpt lat="46.31252" lon="10.54227">
        <ele>2145.258</ele>
        <time>2018-08-10T08:52:35Z</time>
      </trkpt>
      <trkpt lat="46.31256" lon="10.54229">
        <ele>2142.713</ele>
        <time>2018-08-10T08:52:55Z</time>
      </trkpt>
      <trkpt lat="46.31262" lon="10.5423">
        <ele>2140.284</ele>
        <time>2018-08-10T08:53:15Z</time>
      </trkpt>
      <trkpt lat="46.31265" lon="10.54227">
        <ele>2140.371</ele>
        <time>2018-08-10T08:53:35Z</time>
      </trkpt>
      <trkpt lat="46.31271" lon="10.54226">
        <ele>2138.444</ele>
        <time>2018-08-10T08:53:55Z</time>
      </trkpt>
      <trkpt lat="46.31278" lon="10.54218">
        <ele>2138.488</ele>
        <time>2018-08-10T08:54:15Z</time>
      </trkpt>
      <trkpt lat="46.31283" lon="10.54218">
        <ele>2137.324</ele>
        <time>2018-08-10T08:54:35Z</time>
      </trkpt>
      <trkpt lat="46.3129" lon="10.54217">
        <ele>2136.126</ele>
        <time>2018-08-10T08:54:55Z</time>
      </trkpt>
      <trkpt lat="46.31295" lon="10.5422">
        <ele>2134.208</ele>
        <time>2018-08-10T08:55:15Z</time>
      </trkpt>
      <trkpt lat="46.31298" lon="10.54224">
        <ele>2132.21</ele>
        <time>2018-08-10T08:55:35Z</time>
      </trkpt>
      <trkpt lat="46.31299" lon="10.54233">
        <ele>2129.235</ele>
        <time>2018-08-10T08:55:55Z</time>
      </trkpt>
      <trkpt lat="46.31302" lon="10.54245">
        <ele>2125.071</ele>
        <time>2018-08-10T08:56:15Z</time>
      </trkpt>
      <trkpt lat="46.31304" lon="10.54251">
        <ele>2122.945</ele>
        <time>2018-08-10T08:56:35Z</time>
      </trkpt>
      <trkpt lat="46.31311" lon="10.54259">
        <ele>2121.15</ele>
        <time>2018-08-10T08:56:55Z</time>
      </trkpt>
      <trkpt lat="46.31315" lon="10.54261">
        <ele>2120.761</ele>
        <time>2018-08-10T08:57:15Z</time>
      </trkpt>
      <trkpt lat="46.31318" lon="10.54268">
        <ele>2119.628</ele>
        <time>2018-08-10T08:57:35Z</time>
      </trkpt>
      <trkpt lat="46.31325" lon="10.54271">
        <ele>2119.481</ele>
        <time>2018-08-10T08:57:55Z</time>
      </trkpt>
      <trkpt lat="46.3133" lon="10.54272">
        <ele>2119.641</ele>
        <time>2018-08-10T08:58:15Z</time>
      </trkpt>
      <trkpt lat="46.31334" lon="10.54272">
        <ele>2120.181</ele>
        <time>2018-08-10T08:58:35Z</time>
      </trkpt>
      <trkpt lat="46.31342" lon="10.54273">
        <ele>2120.109</ele>
        <time>2018-08-10T08:58:55Z</time>
      </trkpt>
      <trkpt lat="46.31346" lon="10.54277">
        <ele>2119.608</ele>
        <time>2018-08-10T08:59:15Z</time>
      </trkpt>
      <trkpt lat="46.31352" lon="10.54281">
        <ele>2119.126</ele>
        <time>2018-08-10T08:59:35Z</time>
      </trkpt>
      <trkpt lat="46.31358" lon="10.54283">
        <ele>2118.931</ele>
        <time>2018-08-10T08:59:55Z</time>
      </trkpt>
      <trkpt lat="46.31366" lon="10.54287">
        <ele>2118.117</ele>
        <time>2018-08-10T09:00:15Z</time>
      </trkpt>
      <trkpt lat="46.31368" lon="10.54288">
        <ele>2117.831</ele>
        <time>2018-08-10T09:00:35Z</time>
      </trkpt>
      <trkpt lat="46.31369" lon="10.54289">
        <ele>2117.716</ele>
        <time>2018-08-10T09:00:55Z</time>
      </trkpt>
      <trkpt lat="46.31373" lon="10.54291">
        <ele>2117.277</ele>
        <time>2018-08-10T09:01:15Z</time>
      </trkpt>
      <trkpt lat="46.31378" lon="10.54292">
        <ele>2116.814</ele>
        <time>2018-08-10T09:01:35Z</time>
      </trkpt>
      <trkpt lat="46.31389" lon="10.54292">
        <ele>2116.437</ele>
        <time>2018-08-10T09:01:55Z</time>
      </trkpt>
      <trkpt lat="46.314" lon="10.54288">
        <ele>2116.516</ele>
        <time>2018-08-10T09:02:15Z</time>
      </trkpt>
      <trkpt lat="46.31401" lon="10.54288">
        <ele>2116.576</ele>
        <time>2018-08-10T09:02:35Z</time>
      </trkpt>
      <trkpt lat="46.31407" lon="10.54287">
        <ele>2116.413</ele>
        <time>2018-08-10T09:02:55Z</time>
      </trkpt>
      <trkpt lat="46.31412" lon="10.54287">
        <ele>2116.308</ele>
        <time>2018-08-10T09:03:15Z</time>
      </trkpt>
      <trkpt lat="46.31416" lon="10.54287">
        <ele>2116.143</ele>
        <time>2018-08-10T09:03:35Z</time>
      </trkpt>
      <trkpt lat="46.31446" lon="10.54309">
        <ele>2099.278</ele>
        <time>2018-08-10T09:03:55Z</time>
      </trkpt>
      <trkpt lat="46.3145" lon="10.54328">
        <ele>2095.844</ele>
        <time>2018-08-10T09:04:15Z</time>
      </trkpt>
      <trkpt lat="46.31448" lon="10.54336">
        <ele>2095.098</ele>
        <time>2018-08-10T09:04:35Z</time>
      </trkpt>
      <trkpt lat="46.31443" lon="10.54346">
        <ele>2094.693</ele>
        <time>2018-08-10T09:04:55Z</time>
      </trkpt>
      <trkpt lat="46.31435" lon="10.54366">
        <ele>2093.814</ele>
        <time>2018-08-10T09:05:15Z</time>
      </trkpt>
      <trkpt lat="46.31435" lon="10.54375">
        <ele>2092.181</ele>
        <time>2018-08-10T09:05:35Z</time>
      </trkpt>
      <trkpt lat="46.31434" lon="10.54383">
        <ele>2091.044</ele>
        <time>2018-08-10T09:05:55Z</time>
      </trkpt>
      <trkpt lat="46.31423" lon="10.54397">
        <ele>2091.659</ele>
        <time>2018-08-10T09:06:15Z</time>
      </trkpt>
      <trkpt lat="46.31416" lon="10.54404">
        <ele>2092.303</ele>
        <time>2018-08-10T09:06:35Z</time>
      </trkpt>
      <trkpt lat="46.31412" lon="10.54413">
        <ele>2091.123</ele>
        <time>2018-08-10T09:06:55Z</time>
      </trkpt>
      <trkpt lat="46.31406" lon="10.54427">
        <ele>2088.908</ele>
        <time>2018-08-10T09:07:15Z</time>
      </trkpt>
      <trkpt lat="46.31358" lon="10.54484">
        <ele>2082.727</ele>
        <time>2018-08-10T09:07:35Z</time>
      </trkpt>
      <trkpt lat="46.31358" lon="10.54484">
        <ele>2082.662</ele>
        <time>2018-08-10T09:07:55Z</time>
      </trkpt>
      <trkpt lat="46.3135" lon="10.54483">
        <ele>2082.248</ele>
        <time>2018-08-10T09:08:15Z</time>
      </trkpt>
      <trkpt lat="46.31345" lon="10.54486">
        <ele>2081.422</ele>
        <time>2018-08-10T09:08:35Z</time>
      </trkpt>
      <trkpt lat="46.3134" lon="10.54493">
        <ele>2079.697</ele>
        <time>2018-08-10T09:08:55Z</time>
      </trkpt>
      <trkpt lat="46.31331" lon="10.54505">
        <ele>2076.198</ele>
        <time>2018-08-10T09:09:15Z</time>
      </trkpt>
      <trkpt lat="46.31322" lon="10.5451">
        <ele>2072.675</ele>
        <time>2018-08-10T09:09:35Z</time>
      </trkpt>
      <trkpt lat="46.31319" lon="10.54509">
        <ele>2072.378</ele>
        <time>2018-08-10T09:09:55Z</time>
      </trkpt>
      <trkpt lat="46.31311" lon="10.54507">
        <ele>2071.379</ele>
        <time>2018-08-10T09:10:15Z</time>
      </trkpt>
      <trkpt lat="46.31305" lon="10.54498">
        <ele>2072.205</ele>
        <time>2018-08-10T09:10:35Z</time>
      </trkpt>
      <trkpt lat="46.31297" lon="10.54484">
        <ele>2073.225</ele>
        <time>2018-08-10T09:10:55Z</time>
      </trkpt>
      <trkpt lat="46.31285" lon="10.54475">
        <ele>2072.108</ele>
        <time>2018-08-10T09:11:15Z</time>
      </trkpt>
      <trkpt lat="46.31276" lon="10.54474">
        <ele>2070.029</ele>
        <time>2018-08-10T09:11:35Z</time>
      </trkpt>
      <trkpt lat="46.31261" lon="10.54474">
        <ele>2066.844</ele>
        <time>2018-08-10T09:11:55Z</time>
      </trkpt>
      <trkpt lat="46.31255" lon="10.54476">
        <ele>2065.42</ele>
        <time>2018-08-10T09:12:15Z</time>
      </trkpt>
      <trkpt lat="46.31235" lon="10.54476">
        <ele>2063.474</ele>
        <time>2018-08-10T09:12:35Z</time>
      </trkpt>
      <trkpt lat="46.31228" lon="10.54471">
        <ele>2063.579</ele>
        <time>2018-08-10T09:12:55Z</time>
      </trkpt>
      <trkpt lat="46.31211" lon="10.54457">
        <ele>2064.66</ele>
        <time>2018-08-10T09:13:15Z</time>
      </trkpt>
      <trkpt lat="46.31187" lon="10.54441">
        <ele>2065.717</ele>
        <time>2018-08-10T09:13:35Z</time>
      </trkpt>
      <trkpt lat="46.31171" lon="10.54441">
        <ele>2063.49</ele>
        <time>2018-08-10T09:13:55Z</time>
      </trkpt>
      <trkpt lat="46.31159" lon="10.54439">
        <ele>2062.426</ele>
        <time>2018-08-10T09:14:15Z</time>
      </trkpt>
      <trkpt lat="46.31139" lon="10.54432">
        <ele>2061.747</ele>
        <time>2018-08-10T09:14:35Z</time>
      </trkpt>
      <trkpt lat="46.31125" lon="10.54427">
        <ele>2062.211</ele>
        <time>2018-08-10T09:14:55Z</time>
      </trkpt>
      <trkpt lat="46.31115" lon="10.54437">
        <ele>2059.608</ele>
        <time>2018-08-10T09:15:15Z</time>
      </trkpt>
      <trkpt lat="46.31099" lon="10.54449">
        <ele>2056.714</ele>
        <time>2018-08-10T09:15:35Z</time>
      </trkpt>
      <trkpt lat="46.31087" lon="10.5445">
        <ele>2056.159</ele>
        <time>2018-08-10T09:15:55Z</time>
      </trkpt>
      <trkpt lat="46.31075" lon="10.54444">
        <ele>2054.615</ele>
        <time>2018-08-10T09:16:15Z</time>
      </trkpt>
      <trkpt lat="46.31058" lon="10.54438">
        <ele>2051.959</ele>
        <time>2018-08-10T09:16:35Z</time>
      </trkpt>
      <trkpt lat="46.31049" lon="10.54438">
        <ele>2050.684</ele>
        <time>2018-08-10T09:16:55Z</time>
      </trkpt>
      <trkpt lat="46.31039" lon="10.54439">
        <ele>2049.195</ele>
        <time>2018-08-10T09:17:15Z</time>
      </trkpt>
      <trkpt lat="46.31028" lon="10.54434">
        <ele>2049.372</ele>
        <time>2018-08-10T09:17:35Z</time>
      </trkpt>
      <trkpt lat="46.31014" lon="10.54433">
        <ele>2048.575</ele>
        <time>2018-08-10T09:17:55Z</time>
      </trkpt>
      <trkpt lat="46.31002" lon="10.5443">
        <ele>2048.311</ele>
        <time>2018-08-10T09:18:15Z</time>
      </trkpt>
      <trkpt lat="46.30992" lon="10.54426">
        <ele>2048.621</ele>
        <time>2018-08-10T09:18:35Z</time>
      </trkpt>
      <trkpt lat="46.30988" lon="10.54428">
        <ele>2048.403</ele>
        <time>2018-08-10T09:18:55Z</time>
      </trkpt>
      <trkpt lat="46.30987" lon="10.54427">
        <ele>2048.408</ele>
        <time>2018-08-10T09:19:15Z</time>
      </trkpt>
      <trkpt lat="46.30937" lon="10.54454">
        <ele>2044.793</ele>
        <time>2018-08-10T09:19:35Z</time>
      </trkpt>
      <trkpt lat="46.30944" lon="10.54456">
        <ele>2044.418</ele>
        <time>2018-08-10T09:19:55Z</time>
      </trkpt>
      <trkpt lat="46.30943" lon="10.54459">
        <ele>2043.914</ele>
        <time>2018-08-10T09:20:15Z</time>
      </trkpt>
      <trkpt lat="46.30945" lon="10.54469">
        <ele>2042.548</ele>
        <time>2018-08-10T09:20:35Z</time>
      </trkpt>
      <trkpt lat="46.30952" lon="10.54472">
        <ele>2041.983</ele>
        <time>2018-08-10T09:20:55Z</time>
      </trkpt>
      <trkpt lat="46.30966" lon="10.54471">
        <ele>2042.134</ele>
        <time>2018-08-10T09:21:15Z</time>
      </trkpt>
      <trkpt lat="46.30977" lon="10.54465">
        <ele>2042.991</ele>
        <time>2018-08-10T09:21:35Z</time>
      </trkpt>
      <trkpt lat="46.30978" lon="10.54465">
        <ele>2043.054</ele>
        <time>2018-08-10T09:21:55Z</time>
      </trkpt>
      <trkpt lat="46.3098" lon="10.54465">
        <ele>2043.069</ele>
        <time>2018-08-10T09:22:15Z</time>
      </trkpt>
      <trkpt lat="46.30995" lon="10.54531">
        <ele>2033.504</ele>
        <time>2018-08-10T09:22:35Z</time>
      </trkpt>
      <trkpt lat="46.30987" lon="10.54614">
        <ele>2020.424</ele>
        <time>2018-08-10T09:22:55Z</time>
      </trkpt>
      <trkpt lat="46.30977" lon="10.54683">
        <ele>2006.808</ele>
        <time>2018-08-10T09:23:15Z</time>
      </trkpt>
      <trkpt lat="46.30983" lon="10.54685">
        <ele>2006.688</ele>
        <time>2018-08-10T09:23:35Z</time>
      </trkpt>
      <trkpt lat="46.30984" lon="10.54686">
        <ele>2006.683</ele>
        <time>2018-08-10T09:23:55Z</time>
      </trkpt>
      <trkpt lat="46.30999" lon="10.54692">
        <ele>2006.389</ele>
        <time>2018-08-10T09:24:15Z</time>
      </trkpt>
      <trkpt lat="46.31017" lon="10.54682">
        <ele>2009.513</ele>
        <time>2018-08-10T09:24:35Z</time>
      </trkpt>
      <trkpt lat="46.31026" lon="10.5469">
        <ele>2008.628</ele>
        <time>2018-08-10T09:24:55Z</time>
      </trkpt>
      <trkpt lat="46.31038" lon="10.54708">
        <ele>2005.619</ele>
        <time>2018-08-10T09:25:15Z</time>
      </trkpt>
      <trkpt lat="46.31038" lon="10.54708">
        <ele>2005.596</ele>
        <time>2018-08-10T09:25:35Z</time>
      </trkpt>
      <trkpt lat="46.31048" lon="10.54713">
        <ele>2004.699</ele>
        <time>2018-08-10T09:25:55Z</time>
      </trkpt>
      <trkpt lat="46.3106" lon="10.54718">
        <ele>2003.415</ele>
        <time>2018-08-10T09:26:15Z</time>
      </trkpt>
      <trkpt lat="46.31078" lon="10.5472">
        <ele>2001.765</ele>
        <time>2018-08-10T09:26:35Z</time>
      </trkpt>
      <trkpt lat="46.31094" lon="10.54721">
        <ele>1997.311</ele>
        <time>2018-08-10T09:26:55Z</time>
      </trkpt>
      <trkpt lat="46.31121" lon="10.54712">
        <ele>1993.008</ele>
        <time>2018-08-10T09:27:15Z</time>
      </trkpt>
      <trkpt lat="46.31137" lon="10.54701">
        <ele>1995.073</ele>
        <time>2018-08-10T09:27:35Z</time>
      </trkpt>
      <trkpt lat="46.31155" lon="10.54706">
        <ele>1995.828</ele>
        <time>2018-08-10T09:27:55Z</time>
      </trkpt>
      <trkpt lat="46.31178" lon="10.54713">
        <ele>1997.124</ele>
        <time>2018-08-10T09:28:15Z</time>
      </trkpt>
      <trkpt lat="46.31194" lon="10.54723">
        <ele>1997.958</ele>
        <time>2018-08-10T09:28:35Z</time>
      </trkpt>
      <trkpt lat="46.31201" lon="10.5474">
        <ele>1997.083</ele>
        <time>2018-08-10T09:28:55Z</time>
      </trkpt>
      <trkpt lat="46.31199" lon="10.54755">
        <ele>1995.874</ele>
        <time>2018-08-10T09:29:15Z</time>
      </trkpt>
      <trkpt lat="46.3116" lon="10.54765">
        <ele>1989.571</ele>
        <time>2018-08-10T09:29:35Z</time>
      </trkpt>
      <trkpt lat="46.31128" lon="10.54783">
        <ele>1982.554</ele>
        <time>2018-08-10T09:29:55Z</time>
      </trkpt>
      <trkpt lat="46.31124" lon="10.54787">
        <ele>1981.169</ele>
        <time>2018-08-10T09:30:15Z</time>
      </trkpt>
      <trkpt lat="46.31102" lon="10.54807">
        <ele>1974.904</ele>
        <time>2018-08-10T09:30:35Z</time>
      </trkpt>
      <trkpt lat="46.31077" lon="10.54837">
        <ele>1973.124</ele>
        <time>2018-08-10T09:30:55Z</time>
      </trkpt>
      <trkpt lat="46.31072" lon="10.5484">
        <ele>1972.308</ele>
        <time>2018-08-10T09:31:15Z</time>
      </trkpt>
      <trkpt lat="46.31063" lon="10.54843">
        <ele>1970.788</ele>
        <time>2018-08-10T09:31:35Z</time>
      </trkpt>
      <trkpt lat="46.31056" lon="10.54858">
        <ele>1967.673</ele>
        <time>2018-08-10T09:31:55Z</time>
      </trkpt>
      <trkpt lat="46.3105" lon="10.54868">
        <ele>1965.029</ele>
        <time>2018-08-10T09:32:15Z</time>
      </trkpt>
      <trkpt lat="46.31043" lon="10.54878">
        <ele>1961.953</ele>
        <time>2018-08-10T09:32:35Z</time>
      </trkpt>
      <trkpt lat="46.31039" lon="10.54884">
        <ele>1959.768</ele>
        <time>2018-08-10T09:32:55Z</time>
      </trkpt>
      <trkpt lat="46.31024" lon="10.549">
        <ele>1953.319</ele>
        <time>2018-08-10T09:33:15Z</time>
      </trkpt>
      <trkpt lat="46.31016" lon="10.54902">
        <ele>1952.016</ele>
        <time>2018-08-10T09:33:35Z</time>
      </trkpt>
      <trkpt lat="46.31011" lon="10.54904">
        <ele>1951.359</ele>
        <time>2018-08-10T09:33:55Z</time>
      </trkpt>
      <trkpt lat="46.30997" lon="10.54911">
        <ele>1950.034</ele>
        <time>2018-08-10T09:34:15Z</time>
      </trkpt>
      <trkpt lat="46.30988" lon="10.5492">
        <ele>1950.055</ele>
        <time>2018-08-10T09:34:35Z</time>
      </trkpt>
      <trkpt lat="46.30982" lon="10.54931">
        <ele>1950.01</ele>
        <time>2018-08-10T09:34:55Z</time>
      </trkpt>
      <trkpt lat="46.30979" lon="10.54935">
        <ele>1950.008</ele>
        <time>2018-08-10T09:35:15Z</time>
      </trkpt>
      <trkpt lat="46.30963" lon="10.5495">
        <ele>1949.615</ele>
        <time>2018-08-10T09:35:35Z</time>
      </trkpt>
      <trkpt lat="46.30948" lon="10.54972">
        <ele>1949.16</ele>
        <time>2018-08-10T09:35:55Z</time>
      </trkpt>
      <trkpt lat="46.3094" lon="10.54978">
        <ele>1948.486</ele>
        <time>2018-08-10T09:36:15Z</time>
      </trkpt>
      <trkpt lat="46.30927" lon="10.54994">
        <ele>1946.18</ele>
        <time>2018-08-10T09:36:35Z</time>
      </trkpt>
      <trkpt lat="46.30893" lon="10.55026">
        <ele>1938.865</ele>
        <time>2018-08-10T09:36:55Z</time>
      </trkpt>
      <trkpt lat="46.3089" lon="10.55028">
        <ele>1938.296</ele>
        <time>2018-08-10T09:37:15Z</time>
      </trkpt>
      <trkpt lat="46.30879" lon="10.55034">
        <ele>1936.623</ele>
        <time>2018-08-10T09:37:35Z</time>
      </trkpt>
      <trkpt lat="46.30864" lon="10.55049">
        <ele>1934.986</ele>
        <time>2018-08-10T09:37:55Z</time>
      </trkpt>
      <trkpt lat="46.30836" lon="10.55069">
        <ele>1932.714</ele>
        <time>2018-08-10T09:38:15Z</time>
      </trkpt>
      <trkpt lat="46.30814" lon="10.55079">
        <ele>1926.054</ele>
        <time>2018-08-10T09:38:35Z</time>
      </trkpt>
      <trkpt lat="46.30803" lon="10.55076">
        <ele>1921.809</ele>
        <time>2018-08-10T09:38:55Z</time>
      </trkpt>
      <trkpt lat="46.30787" lon="10.5507">
        <ele>1917.308</ele>
        <time>2018-08-10T09:39:15Z</time>
      </trkpt>
      <trkpt lat="46.30773" lon="10.55069">
        <ele>1913.963</ele>
        <time>2018-08-10T09:39:35Z</time>
      </trkpt>
      <trkpt lat="46.3076" lon="10.55069">
        <ele>1911.338</ele>
        <time>2018-08-10T09:39:55Z</time>
      </trkpt>
      <trkpt lat="46.30747" lon="10.5507">
        <ele>1909.444</ele>
        <time>2018-08-10T09:40:15Z</time>
      </trkpt>
      <trkpt lat="46.30737" lon="10.55072">
        <ele>1908.938</ele>
        <time>2018-08-10T09:40:35Z</time>
      </trkpt>
      <trkpt lat="46.30724" lon="10.5507">
        <ele>1907.653</ele>
        <time>2018-08-10T09:40:55Z</time>
      </trkpt>
      <trkpt lat="46.30723" lon="10.55057">
        <ele>1906.234</ele>
        <time>2018-08-10T09:41:15Z</time>
      </trkpt>
      <trkpt lat="46.30726" lon="10.55041">
        <ele>1904.051</ele>
        <time>2018-08-10T09:41:35Z</time>
      </trkpt>
      <trkpt lat="46.30733" lon="10.55027">
        <ele>1902.274</ele>
        <time>2018-08-10T09:41:55Z</time>
      </trkpt>
      <trkpt lat="46.30731" lon="10.55021">
        <ele>1901.114</ele>
        <time>2018-08-10T09:42:15Z</time>
      </trkpt>
      <trkpt lat="46.30718" lon="10.55006">
        <ele>1897.254</ele>
        <time>2018-08-10T09:42:35Z</time>
      </trkpt>
      <trkpt lat="46.30707" lon="10.54993">
        <ele>1891.709</ele>
        <time>2018-08-10T09:42:55Z</time>
      </trkpt>
      <trkpt lat="46.30693" lon="10.54993">
        <ele>1887.508</ele>
        <time>2018-08-10T09:43:15Z</time>
      </trkpt>
      <trkpt lat="46.3068" lon="10.54984">
        <ele>1878.993</ele>
        <time>2018-08-10T09:43:35Z</time>
      </trkpt>
      <trkpt lat="46.30668" lon="10.5498">
        <ele>1873.278</ele>
        <time>2018-08-10T09:43:55Z</time>
      </trkpt>
      <trkpt lat="46.30657" lon="10.54969">
        <ele>1870.544</ele>
        <time>2018-08-10T09:44:15Z</time>
      </trkpt>
      <trkpt lat="46.30661" lon="10.54955">
        <ele>1872.178</ele>
        <time>2018-08-10T09:44:35Z</time>
      </trkpt>
      <trkpt lat="46.30661" lon="10.54951">
        <ele>1872.543</ele>
        <time>2018-08-10T09:44:55Z</time>
      </trkpt>
      <trkpt lat="46.30658" lon="10.54948">
        <ele>1872.114</ele>
        <time>2018-08-10T09:45:15Z</time>
      </trkpt>
      <trkpt lat="46.3065" lon="10.54935">
        <ele>1871.971</ele>
        <time>2018-08-10T09:45:35Z</time>
      </trkpt>
      <trkpt lat="46.30643" lon="10.54923">
        <ele>1872.044</ele>
        <time>2018-08-10T09:45:55Z</time>
      </trkpt>
      <trkpt lat="46.30638" lon="10.54914">
        <ele>1872.217</ele>
        <time>2018-08-10T09:46:15Z</time>
      </trkpt>
      <trkpt lat="46.30629" lon="10.54904">
        <ele>1872.887</ele>
        <time>2018-08-10T09:46:35Z</time>
      </trkpt>
      <trkpt lat="46.30615" lon="10.54887">
        <ele>1873.915</ele>
        <time>2018-08-10T09:46:55Z</time>
      </trkpt>
      <trkpt lat="46.30602" lon="10.54875">
        <ele>1874.508</ele>
        <time>2018-08-10T09:47:15Z</time>
      </trkpt>
      <trkpt lat="46.30587" lon="10.54861">
        <ele>1874.833</ele>
        <time>2018-08-10T09:47:35Z</time>
      </trkpt>
      <trkpt lat="46.30576" lon="10.5486">
        <ele>1873.198</ele>
        <time>2018-08-10T09:47:55Z</time>
      </trkpt>
      <trkpt lat="46.30564" lon="10.54859">
        <ele>1870.834</ele>
        <time>2018-08-10T09:48:15Z</time>
      </trkpt>
      <trkpt lat="46.30551" lon="10.54859">
        <ele>1868.278</ele>
        <time>2018-08-10T09:48:35Z</time>
      </trkpt>
      <trkpt lat="46.30524" lon="10.54851">
        <ele>1863.813</ele>
        <time>2018-08-10T09:48:55Z</time>
      </trkpt>
      <trkpt lat="46.30494" lon="10.54852">
        <ele>1862.324</ele>
        <time>2018-08-10T09:49:15Z</time>
      </trkpt>
      <trkpt lat="46.30467" lon="10.54851">
        <ele>1862.621</ele>
        <time>2018-08-10T09:49:35Z</time>
      </trkpt>
      <trkpt lat="46.30443" lon="10.54863">
        <ele>1861.774</ele>
        <time>2018-08-10T09:49:55Z</time>
      </trkpt>
      <trkpt lat="46.3042" lon="10.54875">
        <ele>1859.978</ele>
        <time>2018-08-10T09:50:15Z</time>
      </trkpt>
      <trkpt lat="46.30387" lon="10.54894">
        <ele>1841.733</ele>
        <time>2018-08-10T09:50:35Z</time>
      </trkpt>
      <trkpt lat="46.30366" lon="10.54905">
        <ele>1836.226</ele>
        <time>2018-08-10T09:50:55Z</time>
      </trkpt>
      <trkpt lat="46.30349" lon="10.54911">
        <ele>1830.408</ele>
        <time>2018-08-10T09:51:15Z</time>
      </trkpt>
      <trkpt lat="46.30343" lon="10.54914">
        <ele>1827.869</ele>
        <time>2018-08-10T09:51:35Z</time>
      </trkpt>
      <trkpt lat="46.30337" lon="10.54921">
        <ele>1824.274</ele>
        <time>2018-08-10T09:51:55Z</time>
      </trkpt>
      <trkpt lat="46.30328" lon="10.54924">
        <ele>1821.55</ele>
        <time>2018-08-10T09:52:15Z</time>
      </trkpt>
      <trkpt lat="46.30323" lon="10.54916">
        <ele>1821.934</ele>
        <time>2018-08-10T09:52:35Z</time>
      </trkpt>
      <trkpt lat="46.30318" lon="10.54903">
        <ele>1823.719</ele>
        <time>2018-08-10T09:52:55Z</time>
      </trkpt>
      <trkpt lat="46.30312" lon="10.549">
        <ele>1822.53</ele>
        <time>2018-08-10T09:53:15Z</time>
      </trkpt>
      <trkpt lat="46.30295" lon="10.54891">
        <ele>1821.877</ele>
        <time>2018-08-10T09:53:35Z</time>
      </trkpt>
      <trkpt lat="46.3028" lon="10.54884">
        <ele>1822.83</ele>
        <time>2018-08-10T09:53:55Z</time>
      </trkpt>
      <trkpt lat="46.3027" lon="10.54881">
        <ele>1822.581</ele>
        <time>2018-08-10T09:54:15Z</time>
      </trkpt>
      <trkpt lat="46.30251" lon="10.54886">
        <ele>1818.861</ele>
        <time>2018-08-10T09:54:35Z</time>
      </trkpt>
      <trkpt lat="46.3025" lon="10.54886">
        <ele>1818.617</ele>
        <time>2018-08-10T09:54:55Z</time>
      </trkpt>
      <trkpt lat="46.30244" lon="10.54885">
        <ele>1816.408</ele>
        <time>2018-08-10T09:55:15Z</time>
      </trkpt>
      <trkpt lat="46.30227" lon="10.54883">
        <ele>1810.89</ele>
        <time>2018-08-10T09:55:35Z</time>
      </trkpt>
      <trkpt lat="46.30221" lon="10.54882">
        <ele>1809.495</ele>
        <time>2018-08-10T09:55:55Z</time>
      </trkpt>
      <trkpt lat="46.30211" lon="10.54882">
        <ele>1808.361</ele>
        <time>2018-08-10T09:56:15Z</time>
      </trkpt>
      <trkpt lat="46.30201" lon="10.5489">
        <ele>1803.545</ele>
        <time>2018-08-10T09:56:35Z</time>
      </trkpt>
      <trkpt lat="46.30192" lon="10.54896">
        <ele>1802.19</ele>
        <time>2018-08-10T09:56:55Z</time>
      </trkpt>
      <trkpt lat="46.30184" lon="10.54896">
        <ele>1802.471</ele>
        <time>2018-08-10T09:57:15Z</time>
      </trkpt>
      <trkpt lat="46.30176" lon="10.54899">
        <ele>1802.228</ele>
        <time>2018-08-10T09:57:35Z</time>
      </trkpt>
      <trkpt lat="46.30167" lon="10.54903">
        <ele>1802.091</ele>
        <time>2018-08-10T09:57:55Z</time>
      </trkpt>
      <trkpt lat="46.30156" lon="10.54907">
        <ele>1801.144</ele>
        <time>2018-08-10T09:58:15Z</time>
      </trkpt>
      <trkpt lat="46.30146" lon="10.54904">
        <ele>1801.805</ele>
        <time>2018-08-10T09:58:35Z</time>
      </trkpt>
      <trkpt lat="46.30139" lon="10.54905">
        <ele>1801.415</ele>
        <time>2018-08-10T09:58:55Z</time>
      </trkpt>
      <trkpt lat="46.30128" lon="10.54908">
        <ele>1799.608</ele>
        <time>2018-08-10T09:59:15Z</time>
      </trkpt>
      <trkpt lat="46.30112" lon="10.54911">
        <ele>1797.746</ele>
        <time>2018-08-10T09:59:35Z</time>
      </trkpt>
      <trkpt lat="46.30094" lon="10.54911">
        <ele>1796.511</ele>
        <time>2018-08-10T09:59:55Z</time>
      </trkpt>
      <trkpt lat="46.30058" lon="10.54911">
        <ele>1790.047</ele>
        <time>2018-08-10T10:00:15Z</time>
      </trkpt>
      <trkpt lat="46.30038" lon="10.5491">
        <ele>1783.881</ele>
        <time>2018-08-10T10:00:35Z</time>
      </trkpt>
      <trkpt lat="46.30032" lon="10.5491">
        <ele>1782.076</ele>
        <time>2018-08-10T10:00:55Z</time>
      </trkpt>
      <trkpt lat="46.30011" lon="10.54903">
        <ele>1778.817</ele>
        <time>2018-08-10T10:01:15Z</time>
      </trkpt>
      <trkpt lat="46.29987" lon="10.54893">
        <ele>1775.274</ele>
        <time>2018-08-10T10:01:35Z</time>
      </trkpt>
      <trkpt lat="46.29966" lon="10.54882">
        <ele>1773.437</ele>
        <time>2018-08-10T10:01:55Z</time>
      </trkpt>
      <trkpt lat="46.29949" lon="10.5487">
        <ele>1772.532</ele>
        <time>2018-08-10T10:02:15Z</time>
      </trkpt>
      <trkpt lat="46.29935" lon="10.54856">
        <ele>1772.392</ele>
        <time>2018-08-10T10:02:35Z</time>
      </trkpt>
      <trkpt lat="46.2991" lon="10.54836">
        <ele>1770.311</ele>
        <time>2018-08-10T10:02:55Z</time>
      </trkpt>
      <trkpt lat="46.29896" lon="10.54825">
        <ele>1769.708</ele>
        <time>2018-08-10T10:03:15Z</time>
      </trkpt>
      <trkpt lat="46.29885" lon="10.54824">
        <ele>1768.245</ele>
        <time>2018-08-10T10:03:35Z</time>
      </trkpt>
      <trkpt lat="46.29889" lon="10.54853">
        <ele>1764.34</ele>
        <time>2018-08-10T10:03:55Z</time>
      </trkpt>
      <trkpt lat="46.29885" lon="10.54905">
        <ele>1756.996</ele>
        <time>2018-08-10T10:04:15Z</time>
      </trkpt>
      <trkpt lat="46.29885" lon="10.54907">
        <ele>1756.82</ele>
        <time>2018-08-10T10:04:35Z</time>
      </trkpt>
      <trkpt lat="46.29885" lon="10.54907">
        <ele>1756.895</ele>
        <time>2018-08-10T10:04:55Z</time>
      </trkpt>
      <trkpt lat="46.29886" lon="10.54908">
        <ele>1756.916</ele>
        <time>2018-08-10T10:05:15Z</time>
      </trkpt>
      <trkpt lat="46.29906" lon="10.54927">
        <ele>1760.163</ele>
        <time>2018-08-10T10:05:35Z</time>
      </trkpt>
      <trkpt lat="46.29908" lon="10.5493">
        <ele>1760.656</ele>
        <time>2018-08-10T10:05:55Z</time>
      </trkpt>
      <trkpt lat="46.29939" lon="10.5496">
        <ele>1766.025</ele>
        <time>2018-08-10T10:06:15Z</time>
      </trkpt>
      <trkpt lat="46.30013" lon="10.5499">
        <ele>1772.326</ele>
        <time>2018-08-10T10:06:35Z</time>
      </trkpt>
      <trkpt lat="46.30042" lon="10.54998">
        <ele>1774.008</ele>
        <time>2018-08-10T10:06:55Z</time>
      </trkpt>
      <trkpt lat="46.30052" lon="10.55003">
        <ele>1774.608</ele>
        <time>2018-08-10T10:07:15Z</time>
      </trkpt>
      <trkpt lat="46.30065" lon="10.55007">
        <ele>1777.884</ele>
        <time>2018-08-10T10:07:35Z</time>
      </trkpt>
      <trkpt lat="46.3007" lon="10.55006">
        <ele>1779.839</ele>
        <time>2018-08-10T10:07:55Z</time>
      </trkpt>
      <trkpt lat="46.30099" lon="10.55013">
        <ele>1784.455</ele>
        <time>2018-08-10T10:08:15Z</time>
      </trkpt>
      <trkpt lat="46.3011" lon="10.55017">
        <ele>1785.099</ele>
        <time>2018-08-10T10:08:35Z</time>
      </trkpt>
      <trkpt lat="46.30145" lon="10.55027">
        <ele>1786.734</ele>
        <time>2018-08-10T10:08:55Z</time>
      </trkpt>
      <trkpt lat="46.30199" lon="10.55044">
        <ele>1790.885</ele>
        <time>2018-08-10T10:09:15Z</time>
      </trkpt>
      <trkpt lat="46.30216" lon="10.55059">
        <ele>1791.592</ele>
        <time>2018-08-10T10:09:35Z</time>
      </trkpt>
      <trkpt lat="46.30225" lon="10.55068">
        <ele>1792.315</ele>
        <time>2018-08-10T10:09:55Z</time>
      </trkpt>
      <trkpt lat="46.30231" lon="10.55076">
        <ele>1793.223</ele>
        <time>2018-08-10T10:10:15Z</time>
      </trkpt>
      <trkpt lat="46.30249" lon="10.55064">
        <ele>1795.783</ele>
        <time>2018-08-10T10:10:35Z</time>
      </trkpt>
      <trkpt lat="46.30304" lon="10.55036">
        <ele>1804.611</ele>
        <time>2018-08-10T10:10:55Z</time>
      </trkpt>
      <trkpt lat="46.30333" lon="10.55034">
        <ele>1813.308</ele>
        <time>2018-08-10T10:11:15Z</time>
      </trkpt>
      <trkpt lat="46.30281" lon="10.55147">
        <ele>1807.374</ele>
        <time>2018-08-10T10:11:35Z</time>
      </trkpt>
      <trkpt lat="46.30259" lon="10.55194">
        <ele>1810.829</ele>
        <time>2018-08-10T10:11:55Z</time>
      </trkpt>
      <trkpt lat="46.30225" lon="10.55265">
        <ele>1819.055</ele>
        <time>2018-08-10T10:12:15Z</time>
      </trkpt>
      <trkpt lat="46.30136" lon="10.55294">
        <ele>1822.639</ele>
        <time>2018-08-10T10:12:35Z</time>
      </trkpt>
      <trkpt lat="46.30061" lon="10.55347">
        <ele>1825.014</ele>
        <time>2018-08-10T10:12:55Z</time>
      </trkpt>
      <trkpt lat="46.30181" lon="10.55333">
        <ele>1835.935</ele>
        <time>2018-08-10T10:13:15Z</time>
      </trkpt>
      <trkpt lat="46.30308" lon="10.55306">
        <ele>1852.392</ele>
        <time>2018-08-10T10:13:35Z</time>
      </trkpt>
      <trkpt lat="46.30373" lon="10.55283">
        <ele>1859.945</ele>
        <time>2018-08-10T10:13:55Z</time>
      </trkpt>
      <trkpt lat="46.30441" lon="10.55209">
        <ele>1864.362</ele>
        <time>2018-08-10T10:14:15Z</time>
      </trkpt>
      <trkpt lat="46.30458" lon="10.55155">
        <ele>1859.583</ele>
        <time>2018-08-10T10:14:35Z</time>
      </trkpt>
      <trkpt lat="46.30485" lon="10.55115">
        <ele>1859.211</ele>
        <time>2018-08-10T10:14:55Z</time>
      </trkpt>
      <trkpt lat="46.3049" lon="10.5512">
        <ele>1861.308</ele>
        <time>2018-08-10T10:15:15Z</time>
      </trkpt>
      <trkpt lat="46.30494" lon="10.55121">
        <ele>1862.148</ele>
        <time>2018-08-10T10:15:35Z</time>
      </trkpt>
      <trkpt lat="46.30513" lon="10.55152">
        <ele>1872.253</ele>
        <time>2018-08-10T10:15:55Z</time>
      </trkpt>
      <trkpt lat="46.3051" lon="10.55154">
        <ele>1871.579</ele>
        <time>2018-08-10T10:16:15Z</time>
      </trkpt>
      <trkpt lat="46.3051" lon="10.55155">
        <ele>1871.663</ele>
        <time>2018-08-10T10:16:35Z</time>
      </trkpt>
      <trkpt lat="46.3051" lon="10.55158">
        <ele>1871.978</ele>
        <time>2018-08-10T10:16:55Z</time>
      </trkpt>
      <trkpt lat="46.3051" lon="10.55161">
        <ele>1872.299</ele>
        <time>2018-08-10T10:17:15Z</time>
      </trkpt>
      <trkpt lat="46.3051" lon="10.55161">
        <ele>1872.236</ele>
        <time>2018-08-10T10:17:35Z</time>
      </trkpt>
      <trkpt lat="46.30499" lon="10.55188">
        <ele>1872.969</ele>
        <time>2018-08-10T10:17:55Z</time>
      </trkpt>
      <trkpt lat="46.30498" lon="10.5519">
        <ele>1872.938</ele>
        <time>2018-08-10T10:18:15Z</time>
      </trkpt>
      <trkpt lat="46.30496" lon="10.55192">
        <ele>1872.97</ele>
        <time>2018-08-10T10:18:35Z</time>
      </trkpt>
      <trkpt lat="46.30495" lon="10.55194">
        <ele>1873.017</ele>
        <time>2018-08-10T10:18:55Z</time>
      </trkpt>
      <trkpt lat="46.30493" lon="10.55197">
        <ele>1873.108</ele>
        <time>2018-08-10T10:19:15Z</time>
      </trkpt>
      <trkpt lat="46.30491" lon="10.55199">
        <ele>1873.355</ele>
        <time>2018-08-10T10:19:35Z</time>
      </trkpt>
      <trkpt lat="46.30489" lon="10.55201">
        <ele>1873.68</ele>
        <time>2018-08-10T10:19:55Z</time>
      </trkpt>
      <trkpt lat="46.30488" lon="10.55204">
        <ele>1873.826</ele>
        <time>2018-08-10T10:20:15Z</time>
      </trkpt>
      <trkpt lat="46.30487" lon="10.55206">
        <ele>1874.13</ele>
        <time>2018-08-10T10:20:35Z</time>
      </trkpt>
      <trkpt lat="46.30485" lon="10.55209">
        <ele>1874.425</ele>
        <time>2018-08-10T10:20:55Z</time>
      </trkpt>
      <trkpt lat="46.30484" lon="10.55212">
        <ele>1874.716</ele>
        <time>2018-08-10T10:21:15Z</time>
      </trkpt>
      <trkpt lat="46.30482" lon="10.55216">
        <ele>1875.133</ele>
        <time>2018-08-10T10:21:35Z</time>
      </trkpt>
      <trkpt lat="46.30481" lon="10.55219">
        <ele>1875.426</ele>
        <time>2018-08-10T10:21:55Z</time>
      </trkpt>
      <trkpt lat="46.30479" lon="10.55222">
        <ele>1875.659</ele>
        <time>2018-08-10T10:22:15Z</time>
      </trkpt>
      <trkpt lat="46.30477" lon="10.55225">
        <ele>1875.903</ele>
        <time>2018-08-10T10:22:35Z</time>
      </trkpt>
      <trkpt lat="46.30475" lon="10.55228">
        <ele>1876.123</ele>
        <time>2018-08-10T10:22:55Z</time>
      </trkpt>
      <trkpt lat="46.30434" lon="10.55287">
        <ele>1881.608</ele>
        <time>2018-08-10T10:23:15Z</time>
      </trkpt>
      <trkpt lat="46.30432" lon="10.55289">
        <ele>1881.697</ele>
        <time>2018-08-10T10:23:35Z</time>
      </trkpt>
      <trkpt lat="46.30429" lon="10.55292">
        <ele>1881.512</ele>
        <time>2018-08-10T10:23:55Z</time>
      </trkpt>
      <trkpt lat="46.30427" lon="10.55294">
        <ele>1881.428</ele>
        <time>2018-08-10T10:24:15Z</time>
      </trkpt>
      <trkpt lat="46.30424" lon="10.55296">
        <ele>1881.362</ele>
        <time>2018-08-10T10:24:35Z</time>
      </trkpt>
      <trkpt lat="46.30422" lon="10.55299">
        <ele>1881.487</ele>
        <time>2018-08-10T10:24:55Z</time>
      </trkpt>
      <trkpt lat="46.3042" lon="10.55302">
        <ele>1881.898</ele>
        <time>2018-08-10T10:25:15Z</time>
      </trkpt>
      <trkpt lat="46.30419" lon="10.55305">
        <ele>1882.335</ele>
        <time>2018-08-10T10:25:35Z</time>
      </trkpt>
      <trkpt lat="46.30418" lon="10.55308">
        <ele>1883.118</ele>
        <time>2018-08-10T10:25:55Z</time>
      </trkpt>
      <trkpt lat="46.30417" lon="10.55312">
        <ele>1884.111</ele>
        <time>2018-08-10T10:26:15Z</time>
      </trkpt>
      <trkpt lat="46.30415" lon="10.55316">
        <ele>1885.121</ele>
        <time>2018-08-10T10:26:35Z</time>
      </trkpt>
      <trkpt lat="46.30414" lon="10.55321">
        <ele>1886.203</ele>
        <time>2018-08-10T10:26:55Z</time>
      </trkpt>
      <trkpt lat="46.30412" lon="10.55325">
        <ele>1887.108</ele>
        <time>2018-08-10T10:27:15Z</time>
      </trkpt>
      <trkpt lat="46.3041" lon="10.55329">
        <ele>1887.733</ele>
        <time>2018-08-10T10:27:35Z</time>
      </trkpt>
      <trkpt lat="46.30408" lon="10.55332">
        <ele>1888.088</ele>
        <time>2018-08-10T10:27:55Z</time>
      </trkpt>
      <trkpt lat="46.30405" lon="10.55336">
        <ele>1888.384</ele>
        <time>2018-08-10T10:28:15Z</time>
      </trkpt>
      <trkpt lat="46.30403" lon="10.55338">
        <ele>1888.428</ele>
        <time>2018-08-10T10:28:35Z</time>
      </trkpt>
      <trkpt lat="46.304" lon="10.5534">
        <ele>1888.473</ele>
        <time>2018-08-10T10:28:55Z</time>
      </trkpt>
      <trkpt lat="46.30397" lon="10.55342">
        <ele>1888.084</ele>
        <time>2018-08-10T10:29:15Z</time>
      </trkpt>
      <trkpt lat="46.30394" lon="10.55344">
        <ele>1887.241</ele>
        <time>2018-08-10T10:29:35Z</time>
      </trkpt>
      <trkpt lat="46.3039" lon="10.55344">
        <ele>1886.354</ele>
        <time>2018-08-10T10:29:55Z</time>
      </trkpt>
      <trkpt lat="46.30387" lon="10.55346">
        <ele>1885.736</ele>
        <time>2018-08-10T10:30:15Z</time>
      </trkpt>
      <trkpt lat="46.30383" lon="10.55347">
        <ele>1885.317</ele>
        <time>2018-08-10T10:30:35Z</time>
      </trkpt>
      <trkpt lat="46.3038" lon="10.55348">
        <ele>1884.818</ele>
        <time>2018-08-10T10:30:55Z</time>
      </trkpt>
      <trkpt lat="46.30376" lon="10.55349">
        <ele>1884.408</ele>
        <time>2018-08-10T10:31:15Z</time>
      </trkpt>
      <trkpt lat="46.30373" lon="10.5535">
        <ele>1884.025</ele>
        <time>2018-08-10T10:31:35Z</time>
      </trkpt>
      <trkpt lat="46.30369" lon="10.55352">
        <ele>1883.87</ele>
        <time>2018-08-10T10:31:55Z</time>
      </trkpt>
      <trkpt lat="46.30366" lon="10.55354">
        <ele>1883.616</ele>
        <time>2018-08-10T10:32:15Z</time>
      </trkpt>
      <trkpt lat="46.30363" lon="10.55356">
        <ele>1883.62</ele>
        <time>2018-08-10T10:32:35Z</time>
      </trkpt>
      <trkpt lat="46.3036" lon="10.55359">
        <ele>1883.915</ele>
        <time>2018-08-10T10:32:55Z</time>
      </trkpt>
      <trkpt lat="46.30357" lon="10.55362">
        <ele>1884.326</ele>
        <time>2018-08-10T10:33:15Z</time>
      </trkpt>
      <trkpt lat="46.30355" lon="10.55365">
        <ele>1885.033</ele>
        <time>2018-08-10T10:33:35Z</time>
      </trkpt>
      <trkpt lat="46.30352" lon="10.55369">
        <ele>1885.786</ele>
        <time>2018-08-10T10:33:55Z</time>
      </trkpt>
      <trkpt lat="46.3035" lon="10.55372">
        <ele>1886.592</ele>
        <time>2018-08-10T10:34:15Z</time>
      </trkpt>
      <trkpt lat="46.30347" lon="10.55376">
        <ele>1887.273</ele>
        <time>2018-08-10T10:34:35Z</time>
      </trkpt>
      <trkpt lat="46.30346" lon="10.55379">
        <ele>1887.82</ele>
        <time>2018-08-10T10:34:55Z</time>
      </trkpt>
      <trkpt lat="46.30344" lon="10.55381">
        <ele>1888.408</ele>
        <time>2018-08-10T10:35:15Z</time>
      </trkpt>
      <trkpt lat="46.30342" lon="10.55384">
        <ele>1888.861</ele>
        <time>2018-08-10T10:35:35Z</time>
      </trkpt>
      <trkpt lat="46.30339" lon="10.55386">
        <ele>1889.376</ele>
        <time>2018-08-10T10:35:55Z</time>
      </trkpt>
      <trkpt lat="46.30337" lon="10.55389">
        <ele>1889.742</ele>
        <time>2018-08-10T10:36:15Z</time>
      </trkpt>
      <trkpt lat="46.30335" lon="10.55392">
        <ele>1890.386</ele>
        <time>2018-08-10T10:36:35Z</time>
      </trkpt>
      <trkpt lat="46.30333" lon="10.55394">
        <ele>1890.941</ele>
        <time>2018-08-10T10:36:55Z</time>
      </trkpt>
      <trkpt lat="46.30331" lon="10.55396">
        <ele>1891.652</ele>
        <time>2018-08-10T10:37:15Z</time>
      </trkpt>
      <trkpt lat="46.30329" lon="10.55399">
        <ele>1892.319</ele>
        <time>2018-08-10T10:37:35Z</time>
      </trkpt>
      <trkpt lat="46.30327" lon="10.55402">
        <ele>1893.222</ele>
        <time>2018-08-10T10:37:55Z</time>
      </trkpt>
      <trkpt lat="46.30325" lon="10.55405">
        <ele>1894.235</ele>
        <time>2018-08-10T10:38:15Z</time>
      </trkpt>
      <trkpt lat="46.30322" lon="10.55408">
        <ele>1895.386</ele>
        <time>2018-08-10T10:38:35Z</time>
      </trkpt>
      <trkpt lat="46.3032" lon="10.55411">
        <ele>1896.314</ele>
        <time>2018-08-10T10:38:55Z</time>
      </trkpt>
      <trkpt lat="46.30318" lon="10.55414">
        <ele>1897.308</ele>
        <time>2018-08-10T10:39:15Z</time>
      </trkpt>
      <trkpt lat="46.30316" lon="10.55417">
        <ele>1898.495</ele>
        <time>2018-08-10T10:39:35Z</time>
      </trkpt>
      <trkpt lat="46.30314" lon="10.5542">
        <ele>1899.63</ele>
        <time>2018-08-10T10:39:55Z</time>
      </trkpt>
      <trkpt lat="46.30312" lon="10.55422">
        <ele>1900.586</ele>
        <time>2018-08-10T10:40:15Z</time>
      </trkpt>
      <trkpt lat="46.30309" lon="10.55424">
        <ele>1901.32</ele>
        <time>2018-08-10T10:40:35Z</time>
      </trkpt>
      <trkpt lat="46.30307" lon="10.55426">
        <ele>1901.955</ele>
        <time>2018-08-10T10:40:55Z</time>
      </trkpt>
      <trkpt lat="46.30304" lon="10.55428">
        <ele>1902.736</ele>
        <time>2018-08-10T10:41:15Z</time>
      </trkpt>
      <trkpt lat="46.30302" lon="10.55431">
        <ele>1903.443</ele>
        <time>2018-08-10T10:41:35Z</time>
      </trkpt>
      <trkpt lat="46.30299" lon="10.55432">
        <ele>1904.126</ele>
        <time>2018-08-10T10:41:55Z</time>
      </trkpt>
      <trkpt lat="46.30297" lon="10.55434">
        <ele>1904.812</ele>
        <time>2018-08-10T10:42:15Z</time>
      </trkpt>
      <trkpt lat="46.30294" lon="10.55437">
        <ele>1905.832</ele>
        <time>2018-08-10T10:42:35Z</time>
      </trkpt>
      <trkpt lat="46.30292" lon="10.55439">
        <ele>1906.705</ele>
        <time>2018-08-10T10:42:55Z</time>
      </trkpt>
      <trkpt lat="46.30289" lon="10.55442">
        <ele>1907.608</ele>
        <time>2018-08-10T10:43:15Z</time>
      </trkpt>
      <trkpt lat="46.30287" lon="10.55443">
        <ele>1908.373</ele>
        <time>2018-08-10T10:43:35Z</time>
      </trkpt>
      <trkpt lat="46.30284" lon="10.55445">
        <ele>1908.928</ele>
        <time>2018-08-10T10:43:55Z</time>
      </trkpt>
      <trkpt lat="46.30281" lon="10.55446">
        <ele>1909.394</ele>
        <time>2018-08-10T10:44:15Z</time>
      </trkpt>
      <trkpt lat="46.30278" lon="10.55448">
        <ele>1909.518</ele>
        <time>2018-08-10T10:44:35Z</time>
      </trkpt>
      <trkpt lat="46.30275" lon="10.55449">
        <ele>1909.823</ele>
        <time>2018-08-10T10:44:55Z</time>
      </trkpt>
      <trkpt lat="46.30272" lon="10.5545">
        <ele>1910.254</ele>
        <time>2018-08-10T10:45:15Z</time>
      </trkpt>
      <trkpt lat="46.3027" lon="10.55451">
        <ele>1910.591</ele>
        <time>2018-08-10T10:45:35Z</time>
      </trkpt>
      <trkpt lat="46.30267" lon="10.55453">
        <ele>1911.064</ele>
        <time>2018-08-10T10:45:55Z</time>
      </trkpt>
      <trkpt lat="46.30265" lon="10.55455">
        <ele>1911.478</ele>
        <time>2018-08-10T10:46:15Z</time>
      </trkpt>
      <trkpt lat="46.30263" lon="10.55457">
        <ele>1912.133</ele>
        <time>2018-08-10T10:46:35Z</time>
      </trkpt>
      <trkpt lat="46.30261" lon="10.55459">
        <ele>1912.826</ele>
        <time>2018-08-10T10:46:55Z</time>
      </trkpt>
      <trkpt lat="46.30259" lon="10.55461">
        <ele>1913.508</ele>
        <time>2018-08-10T10:47:15Z</time>
      </trkpt>
      <trkpt lat="46.30257" lon="10.55464">
        <ele>1914.369</ele>
        <time>2018-08-10T10:47:35Z</time>
      </trkpt>
      <trkpt lat="46.30256" lon="10.55467">
        <ele>1915.174</ele>
        <time>2018-08-10T10:47:55Z</time>
      </trkpt>
      <trkpt lat="46.30254" lon="10.5547">
        <ele>1915.95</ele>
        <time>2018-08-10T10:48:15Z</time>
      </trkpt>
      <trkpt lat="46.30252" lon="10.55473">
        <ele>1916.674</ele>
        <time>2018-08-10T10:48:35Z</time>
      </trkpt>
      <trkpt lat="46.3025" lon="10.55476">
        <ele>1917.439</ele>
        <time>2018-08-10T10:48:55Z</time>
      </trkpt>
      <trkpt lat="46.30248" lon="10.55479">
        <ele>1918.48</ele>
        <time>2018-08-10T10:49:15Z</time>
      </trkpt>
      <trkpt lat="46.30246" lon="10.55482">
        <ele>1919.317</ele>
        <time>2018-08-10T10:49:35Z</time>
      </trkpt>
      <trkpt lat="46.30244" lon="10.55485">
        <ele>1920.14</ele>
        <time>2018-08-10T10:49:55Z</time>
      </trkpt>
      <trkpt lat="46.30242" lon="10.55488">
        <ele>1920.992</ele>
        <time>2018-08-10T10:50:15Z</time>
      </trkpt>
      <trkpt lat="46.3024" lon="10.55491">
        <ele>1921.873</ele>
        <time>2018-08-10T10:50:35Z</time>
      </trkpt>
      <trkpt lat="46.30238" lon="10.55494">
        <ele>1922.62</ele>
        <time>2018-08-10T10:50:55Z</time>
      </trkpt>
      <trkpt lat="46.30236" lon="10.55497">
        <ele>1923.308</ele>
        <time>2018-08-10T10:51:15Z</time>
      </trkpt>
      <trkpt lat="46.30233" lon="10.555">
        <ele>1923.931</ele>
        <time>2018-08-10T10:51:35Z</time>
      </trkpt>
      <trkpt lat="46.30231" lon="10.55503">
        <ele>1924.666</ele>
        <time>2018-08-10T10:51:55Z</time>
      </trkpt>
      <trkpt lat="46.30228" lon="10.55505">
        <ele>1925.372</ele>
        <time>2018-08-10T10:52:15Z</time>
      </trkpt>
      <trkpt lat="46.30225" lon="10.55508">
        <ele>1925.956</ele>
        <time>2018-08-10T10:52:35Z</time>
      </trkpt>
      <trkpt lat="46.30222" lon="10.55511">
        <ele>1926.641</ele>
        <time>2018-08-10T10:52:55Z</time>
      </trkpt>
      <trkpt lat="46.3022" lon="10.55513">
        <ele>1926.792</ele>
        <time>2018-08-10T10:53:15Z</time>
      </trkpt>
      <trkpt lat="46.30217" lon="10.55516">
        <ele>1926.939</ele>
        <time>2018-08-10T10:53:35Z</time>
      </trkpt>
      <trkpt lat="46.30215" lon="10.55518">
        <ele>1927.212</ele>
        <time>2018-08-10T10:53:55Z</time>
      </trkpt>
      <trkpt lat="46.30212" lon="10.5552">
        <ele>1927.334</ele>
        <time>2018-08-10T10:54:15Z</time>
      </trkpt>
      <trkpt lat="46.30209" lon="10.55522">
        <ele>1927.355</ele>
        <time>2018-08-10T10:54:35Z</time>
      </trkpt>
      <trkpt lat="46.30206" lon="10.55524">
        <ele>1927.11</ele>
        <time>2018-08-10T10:54:55Z</time>
      </trkpt>
      <trkpt lat="46.30204" lon="10.55525">
        <ele>1926.808</ele>
        <time>2018-08-10T10:55:15Z</time>
      </trkpt>
      <trkpt lat="46.30201" lon="10.55527">
        <ele>1926.495</ele>
        <time>2018-08-10T10:55:35Z</time>
      </trkpt>
      <trkpt lat="46.30198" lon="10.55528">
        <ele>1925.93</ele>
        <time>2018-08-10T10:55:55Z</time>
      </trkpt>
      <trkpt lat="46.30195" lon="10.55529">
        <ele>1925.576</ele>
        <time>2018-08-10T10:56:15Z</time>
      </trkpt>
      <trkpt lat="46.30192" lon="10.5553">
        <ele>1925.44</ele>
        <time>2018-08-10T10:56:35Z</time>
      </trkpt>
      <trkpt lat="46.30189" lon="10.55531">
        <ele>1925.435</ele>
        <time>2018-08-10T10:56:55Z</time>
      </trkpt>
      <trkpt lat="46.30186" lon="10.55533">
        <ele>1925.416</ele>
        <time>2018-08-10T10:57:15Z</time>
      </trkpt>
      <trkpt lat="46.30183" lon="10.55534">
        <ele>1925.583</ele>
        <time>2018-08-10T10:57:35Z</time>
      </trkpt>
      <trkpt lat="46.3018" lon="10.55536">
        <ele>1925.716</ele>
        <time>2018-08-10T10:57:55Z</time>
      </trkpt>
      <trkpt lat="46.30178" lon="10.55538">
        <ele>1926.161</ele>
        <time>2018-08-10T10:58:15Z</time>
      </trkpt>
      <trkpt lat="46.30177" lon="10.55539">
        <ele>1926.421</ele>
        <time>2018-08-10T10:58:35Z</time>
      </trkpt>
      <trkpt lat="46.30178" lon="10.55538">
        <ele>1926.213</ele>
        <time>2018-08-10T10:58:55Z</time>
      </trkpt>
      <trkpt lat="46.30178" lon="10.55541">
        <ele>1927.508</ele>
        <time>2018-08-10T10:59:15Z</time>
      </trkpt>
      <trkpt lat="46.30179" lon="10.55543">
        <ele>1928.768</ele>
        <time>2018-08-10T10:59:35Z</time>
      </trkpt>
      <trkpt lat="46.30182" lon="10.55544">
        <ele>1929.573</ele>
        <time>2018-08-10T10:59:55Z</time>
      </trkpt>
      <trkpt lat="46.30184" lon="10.55544">
        <ele>1929.889</ele>
        <time>2018-08-10T11:00:15Z</time>
      </trkpt>
      <trkpt lat="46.30186" lon="10.55543">
        <ele>1929.993</ele>
        <time>2018-08-10T11:00:35Z</time>
      </trkpt>
      <trkpt lat="46.30188" lon="10.55542">
        <ele>1930.058</ele>
        <time>2018-08-10T11:00:55Z</time>
      </trkpt>
      <trkpt lat="46.30191" lon="10.55542">
        <ele>1930.269</ele>
        <time>2018-08-10T11:01:15Z</time>
      </trkpt>
      <trkpt lat="46.30194" lon="10.55541">
        <ele>1930.556</ele>
        <time>2018-08-10T11:01:35Z</time>
      </trkpt>
      <trkpt lat="46.30196" lon="10.55541">
        <ele>1930.959</ele>
        <time>2018-08-10T11:01:55Z</time>
      </trkpt>
      <trkpt lat="46.30198" lon="10.55541">
        <ele>1931.479</ele>
        <time>2018-08-10T11:02:15Z</time>
      </trkpt>
      <trkpt lat="46.302" lon="10.55541">
        <ele>1932.005</ele>
        <time>2018-08-10T11:02:35Z</time>
      </trkpt>
      <trkpt lat="46.30202" lon="10.55541">
        <ele>1932.725</ele>
        <time>2018-08-10T11:02:55Z</time>
      </trkpt>
      <trkpt lat="46.30203" lon="10.55541">
        <ele>1933.508</ele>
        <time>2018-08-10T11:03:15Z</time>
      </trkpt>
      <trkpt lat="46.30205" lon="10.55542">
        <ele>1934.469</ele>
        <time>2018-08-10T11:03:35Z</time>
      </trkpt>
      <trkpt lat="46.30207" lon="10.55542">
        <ele>1935.224</ele>
        <time>2018-08-10T11:03:55Z</time>
      </trkpt>
      <trkpt lat="46.3021" lon="10.55543">
        <ele>1936.06</ele>
        <time>2018-08-10T11:04:15Z</time>
      </trkpt>
      <trkpt lat="46.30212" lon="10.55543">
        <ele>1936.774</ele>
        <time>2018-08-10T11:04:35Z</time>
      </trkpt>
      <trkpt lat="46.30214" lon="10.55543">
        <ele>1937.589</ele>
        <time>2018-08-10T11:04:55Z</time>
      </trkpt>
      <trkpt lat="46.30216" lon="10.55544">
        <ele>1938.33</ele>
        <time>2018-08-10T11:05:15Z</time>
      </trkpt>
      <trkpt lat="46.30218" lon="10.55544">
        <ele>1938.917</ele>
        <time>2018-08-10T11:05:35Z</time>
      </trkpt>
      <trkpt lat="46.3022" lon="10.55544">
        <ele>1939.68</ele>
        <time>2018-08-10T11:05:55Z</time>
      </trkpt>
      <trkpt lat="46.30222" lon="10.55544">
        <ele>1940.385</ele>
        <time>2018-08-10T11:06:15Z</time>
      </trkpt>
      <trkpt lat="46.30224" lon="10.55544">
        <ele>1940.689</ele>
        <time>2018-08-10T11:06:35Z</time>
      </trkpt>
      <trkpt lat="46.30226" lon="10.55545">
        <ele>1940.917</ele>
        <time>2018-08-10T11:06:55Z</time>
      </trkpt>
      <trkpt lat="46.30228" lon="10.55545">
        <ele>1941.208</ele>
        <time>2018-08-10T11:07:15Z</time>
      </trkpt>
      <trkpt lat="46.3023" lon="10.55545">
        <ele>1941.41</ele>
        <time>2018-08-10T11:07:35Z</time>
      </trkpt>
      <trkpt lat="46.30232" lon="10.55545">
        <ele>1941.665</ele>
        <time>2018-08-10T11:07:55Z</time>
      </trkpt>
      <trkpt lat="46.30234" lon="10.55545">
        <ele>1941.951</ele>
        <time>2018-08-10T11:08:15Z</time>
      </trkpt>
      <trkpt lat="46.30236" lon="10.55546">
        <ele>1942.275</ele>
        <time>2018-08-10T11:08:35Z</time>
      </trkpt>
      <trkpt lat="46.30238" lon="10.55546">
        <ele>1942.57</ele>
        <time>2018-08-10T11:08:55Z</time>
      </trkpt>
      <trkpt lat="46.30241" lon="10.55546">
        <ele>1942.791</ele>
        <time>2018-08-10T11:09:15Z</time>
      </trkpt>
      <trkpt lat="46.30243" lon="10.55546">
        <ele>1943.078</ele>
        <time>2018-08-10T11:09:35Z</time>
      </trkpt>
      <trkpt lat="46.30245" lon="10.55546">
        <ele>1943.171</ele>
        <time>2018-08-10T11:09:55Z</time>
      </trkpt>
      <trkpt lat="46.30247" lon="10.55546">
        <ele>1943.328</ele>
        <time>2018-08-10T11:10:15Z</time>
      </trkpt>
      <trkpt lat="46.30249" lon="10.55546">
        <ele>1943.589</ele>
        <time>2018-08-10T11:10:35Z</time>
      </trkpt>
      <trkpt lat="46.30251" lon="10.55546">
        <ele>1943.817</ele>
        <time>2018-08-10T11:10:55Z</time>
      </trkpt>
      <trkpt lat="46.30253" lon="10.55546">
        <ele>1944.108</ele>
        <time>2018-08-10T11:11:15Z</time>
      </trkpt>
      <trkpt lat="46.30255" lon="10.55546">
        <ele>1944.414</ele>
        <time>2018-08-10T11:11:35Z</time>
      </trkpt>
      <trkpt lat="46.30258" lon="10.55546">
        <ele>1944.869</ele>
        <time>2018-08-10T11:11:55Z</time>
      </trkpt>
      <trkpt lat="46.3026" lon="10.55545">
        <ele>1945.075</ele>
        <time>2018-08-10T11:12:15Z</time>
      </trkpt>
      <trkpt lat="46.30262" lon="10.55545">
        <ele>1945.199</ele>
        <time>2018-08-10T11:12:35Z</time>
      </trkpt>
      <trkpt lat="46.30264" lon="10.55544">
        <ele>1945.384</ele>
        <time>2018-08-10T11:12:55Z</time>
      </trkpt>
      <trkpt lat="46.30266" lon="10.55544">
        <ele>1945.545</ele>
        <time>2018-08-10T11:13:15Z</time>
      </trkpt>
      <trkpt lat="46.30268" lon="10.55543">
        <ele>1945.572</ele>
        <time>2018-08-10T11:13:35Z</time>
      </trkpt>
      <trkpt lat="46.3027" lon="10.55542">
        <ele>1945.725</ele>
        <time>2018-08-10T11:13:55Z</time>
      </trkpt>
      <trkpt lat="46.30271" lon="10.55542">
        <ele>1945.851</ele>
        <time>2018-08-10T11:14:15Z</time>
      </trkpt>
      <trkpt lat="46.30273" lon="10.55541">
        <ele>1946.001</ele>
        <time>2018-08-10T11:14:35Z</time>
      </trkpt>
      <trkpt lat="46.30275" lon="10.55541">
        <ele>1946.211</ele>
        <time>2018-08-10T11:14:55Z</time>
      </trkpt>
      <trkpt lat="46.30277" lon="10.5554">
        <ele>1946.408</ele>
        <time>2018-08-10T11:15:15Z</time>
      </trkpt>
      <trkpt lat="46.3028" lon="10.5554">
        <ele>1946.617</ele>
        <time>2018-08-10T11:15:35Z</time>
      </trkpt>
      <trkpt lat="46.30282" lon="10.5554">
        <ele>1946.912</ele>
        <time>2018-08-10T11:15:55Z</time>
      </trkpt>
      <trkpt lat="46.30283" lon="10.5554">
        <ele>1947.168</ele>
        <time>2018-08-10T11:16:15Z</time>
      </trkpt>
      <trkpt lat="46.30285" lon="10.5554">
        <ele>1947.362</ele>
        <time>2018-08-10T11:16:35Z</time>
      </trkpt>
      <trkpt lat="46.30287" lon="10.55539">
        <ele>1947.687</ele>
        <time>2018-08-10T11:16:55Z</time>
      </trkpt>
      <trkpt lat="46.3029" lon="10.55539">
        <ele>1947.848</ele>
        <time>2018-08-10T11:17:15Z</time>
      </trkpt>
      <trkpt lat="46.30292" lon="10.55539">
        <ele>1948.095</ele>
        <time>2018-08-10T11:17:35Z</time>
      </trkpt>
      <trkpt lat="46.30294" lon="10.55539">
        <ele>1948.258</ele>
        <time>2018-08-10T11:17:55Z</time>
      </trkpt>
      <trkpt lat="46.30296" lon="10.55538">
        <ele>1948.599</ele>
        <time>2018-08-10T11:18:15Z</time>
      </trkpt>
      <trkpt lat="46.30298" lon="10.55538">
        <ele>1948.607</ele>
        <time>2018-08-10T11:18:35Z</time>
      </trkpt>
      <trkpt lat="46.303" lon="10.55538">
        <ele>1948.727</ele>
        <time>2018-08-10T11:18:55Z</time>
      </trkpt>
      <trkpt lat="46.30302" lon="10.55537">
        <ele>1948.808</ele>
        <time>2018-08-10T11:19:15Z</time>
      </trkpt>
      <trkpt lat="46.30304" lon="10.55537">
        <ele>1948.841</ele>
        <time>2018-08-10T11:19:35Z</time>
      </trkpt>
      <trkpt lat="46.30306" lon="10.55536">
        <ele>1949.016</ele>
        <time>2018-08-10T11:19:55Z</time>
      </trkpt>
      <trkpt lat="46.30308" lon="10.55536">
        <ele>1949.442</ele>
        <time>2018-08-10T11:20:15Z</time>
      </trkpt>
      <trkpt lat="46.3031" lon="10.55535">
        <ele>1949.886</ele>
        <time>2018-08-10T11:20:35Z</time>
      </trkpt>
      <trkpt lat="46.30313" lon="10.55535">
        <ele>1950.261</ele>
        <time>2018-08-10T11:20:55Z</time>
      </trkpt>
      <trkpt lat="46.30315" lon="10.55535">
        <ele>1950.652</ele>
        <time>2018-08-10T11:21:15Z</time>
      </trkpt>
      <trkpt lat="46.30317" lon="10.55535">
        <ele>1951.169</ele>
        <time>2018-08-10T11:21:35Z</time>
      </trkpt>
      <trkpt lat="46.30319" lon="10.55535">
        <ele>1951.642</ele>
        <time>2018-08-10T11:21:55Z</time>
      </trkpt>
      <trkpt lat="46.30321" lon="10.55534">
        <ele>1952.098</ele>
        <time>2018-08-10T11:22:15Z</time>
      </trkpt>
      <trkpt lat="46.30323" lon="10.55534">
        <ele>1952.515</ele>
        <time>2018-08-10T11:22:35Z</time>
      </trkpt>
      <trkpt lat="46.30326" lon="10.55533">
        <ele>1952.826</ele>
        <time>2018-08-10T11:22:55Z</time>
      </trkpt>
      <trkpt lat="46.30328" lon="10.55533">
        <ele>1953.108</ele>
        <time>2018-08-10T11:23:15Z</time>
      </trkpt>
      <trkpt lat="46.3033" lon="10.55532">
        <ele>1953.221</ele>
        <time>2018-08-10T11:23:35Z</time>
      </trkpt>
      <trkpt lat="46.30332" lon="10.55531">
        <ele>1953.356</ele>
        <time>2018-08-10T11:23:55Z</time>
      </trkpt>
      <trkpt lat="46.30335" lon="10.5553">
        <ele>1953.432</ele>
        <time>2018-08-10T11:24:15Z</time>
      </trkpt>
      <trkpt lat="46.30337" lon="10.55529">
        <ele>1953.686</ele>
        <time>2018-08-10T11:24:35Z</time>
      </trkpt>
      <trkpt lat="46.30339" lon="10.55527">
        <ele>1953.761</ele>
        <time>2018-08-10T11:24:55Z</time>
      </trkpt>
      <trkpt lat="46.30341" lon="10.55526">
        <ele>1953.832</ele>
        <time>2018-08-10T11:25:15Z</time>
      </trkpt>
      <trkpt lat="46.30343" lon="10.55524">
        <ele>1953.779</ele>
        <time>2018-08-10T11:25:35Z</time>
      </trkpt>
      <trkpt lat="46.30345" lon="10.55522">
        <ele>1953.762</ele>
        <time>2018-08-10T11:25:55Z</time>
      </trkpt>
      <trkpt lat="46.30347" lon="10.5552">
        <ele>1953.672</ele>
        <time>2018-08-10T11:26:15Z</time>
      </trkpt>
      <trkpt lat="46.30349" lon="10.55519">
        <ele>1953.613</ele>
        <time>2018-08-10T11:26:35Z</time>
      </trkpt>
      <trkpt lat="46.30351" lon="10.55517">
        <ele>1953.514</ele>
        <time>2018-08-10T11:26:55Z</time>
      </trkpt>
      <trkpt lat="46.30353" lon="10.55515">
        <ele>1953.408</ele>
        <time>2018-08-10T11:27:15Z</time>
      </trkpt>
      <trkpt lat="46.30355" lon="10.55514">
        <ele>1953.569</ele>
        <time>2018-08-10T11:27:35Z</time>
      </trkpt>
      <trkpt lat="46.30357" lon="10.55512">
        <ele>1953.614</ele>
        <time>2018-08-10T11:27:55Z</time>
      </trkpt>
      <trkpt lat="46.30358" lon="10.55511">
        <ele>1953.51</ele>
        <time>2018-08-10T11:28:15Z</time>
      </trkpt>
      <trkpt lat="46.3036" lon="10.55509">
        <ele>1953.654</ele>
        <time>2018-08-10T11:28:35Z</time>
      </trkpt>
      <trkpt lat="46.30362" lon="10.55508">
        <ele>1953.819</ele>
        <time>2018-08-10T11:28:55Z</time>
      </trkpt>
      <trkpt lat="46.30364" lon="10.55507">
        <ele>1954.14</ele>
        <time>2018-08-10T11:29:15Z</time>
      </trkpt>
      <trkpt lat="46.30366" lon="10.55506">
        <ele>1954.597</ele>
        <time>2018-08-10T11:29:35Z</time>
      </trkpt>
      <trkpt lat="46.30368" lon="10.55506">
        <ele>1955.19</ele>
        <time>2018-08-10T11:29:55Z</time>
      </trkpt>
      <trkpt lat="46.30371" lon="10.55505">
        <ele>1955.997</ele>
        <time>2018-08-10T11:30:15Z</time>
      </trkpt>
      <trkpt lat="46.30373" lon="10.55505">
        <ele>1956.823</ele>
        <time>2018-08-10T11:30:35Z</time>
      </trkpt>
      <trkpt lat="46.30375" lon="10.55505">
        <ele>1957.725</ele>
        <time>2018-08-10T11:30:55Z</time>
      </trkpt>
      <trkpt lat="46.30377" lon="10.55505">
        <ele>1958.508</ele>
        <time>2018-08-10T11:31:15Z</time>
      </trkpt>
      <trkpt lat="46.3038" lon="10.55505">
        <ele>1959.361</ele>
        <time>2018-08-10T11:31:35Z</time>
      </trkpt>
      <trkpt lat="46.30382" lon="10.55504">
        <ele>1959.866</ele>
        <time>2018-08-10T11:31:55Z</time>
      </trkpt>
      <trkpt lat="46.30384" lon="10.55502">
        <ele>1960.122</ele>
        <time>2018-08-10T11:32:15Z</time>
      </trkpt>
      <trkpt lat="46.30387" lon="10.55501">
        <ele>1960.366</ele>
        <time>2018-08-10T11:32:35Z</time>
      </trkpt>
      <trkpt lat="46.30389" lon="10.55499">
        <ele>1960.441</ele>
        <time>2018-08-10T11:32:55Z</time>
      </trkpt>
      <trkpt lat="46.30391" lon="10.55497">
        <ele>1960.412</ele>
        <time>2018-08-10T11:33:15Z</time>
      </trkpt>
      <trkpt lat="46.30393" lon="10.55495">
        <ele>1960.599</ele>
        <time>2018-08-10T11:33:35Z</time>
      </trkpt>
      <trkpt lat="46.30395" lon="10.55493">
        <ele>1960.552</ele>
        <time>2018-08-10T11:33:55Z</time>
      </trkpt>
      <trkpt lat="46.30397" lon="10.55491">
        <ele>1960.468</ele>
        <time>2018-08-10T11:34:15Z</time>
      </trkpt>
      <trkpt lat="46.30399" lon="10.55488">
        <ele>1960.242</ele>
        <time>2018-08-10T11:34:35Z</time>
      </trkpt>
      <trkpt lat="46.30401" lon="10.55486">
        <ele>1960.226</ele>
        <time>2018-08-10T11:34:55Z</time>
      </trkpt>
      <trkpt lat="46.30403" lon="10.55484">
        <ele>1960.108</ele>
        <time>2018-08-10T11:35:15Z</time>
      </trkpt>
      <trkpt lat="46.30405" lon="10.55482">
        <ele>1960.168</ele>
        <time>2018-08-10T11:35:35Z</time>
      </trkpt>
      <trkpt lat="46.30407" lon="10.5548">
        <ele>1960.083</ele>
        <time>2018-08-10T11:35:55Z</time>
      </trkpt>
      <trkpt lat="46.30409" lon="10.55478">
        <ele>1960.189</ele>
        <time>2018-08-10T11:36:15Z</time>
      </trkpt>
      <trkpt lat="46.30411" lon="10.55476">
        <ele>1960.283</ele>
        <time>2018-08-10T11:36:35Z</time>
      </trkpt>
      <trkpt lat="46.30413" lon="10.55475">
        <ele>1960.598</ele>
        <time>2018-08-10T11:36:55Z</time>
      </trkpt>
      <trkpt lat="46.30415" lon="10.55474">
        <ele>1960.829</ele>
        <time>2018-08-10T11:37:15Z</time>
      </trkpt>
      <trkpt lat="46.30417" lon="10.55472">
        <ele>1961.066</ele>
        <time>2018-08-10T11:37:35Z</time>
      </trkpt>
      <trkpt lat="46.30419" lon="10.55471">
        <ele>1961.039</ele>
        <time>2018-08-10T11:37:55Z</time>
      </trkpt>
      <trkpt lat="46.30421" lon="10.5547">
        <ele>1961.081</ele>
        <time>2018-08-10T11:38:15Z</time>
      </trkpt>
      <trkpt lat="46.30423" lon="10.55468">
        <ele>1961.161</ele>
        <time>2018-08-10T11:38:35Z</time>
      </trkpt>
      <trkpt lat="46.30425" lon="10.55467">
        <ele>1961.217</ele>
        <time>2018-08-10T11:38:55Z</time>
      </trkpt>
      <trkpt lat="46.30428" lon="10.55466">
        <ele>1961.408</ele>
        <time>2018-08-10T11:39:15Z</time>
      </trkpt>
      <trkpt lat="46.3043" lon="10.55465">
        <ele>1961.74</ele>
        <time>2018-08-10T11:39:35Z</time>
      </trkpt>
      <trkpt lat="46.30432" lon="10.55465">
        <ele>1962.165</ele>
        <time>2018-08-10T11:39:55Z</time>
      </trkpt>
      <trkpt lat="46.30435" lon="10.55464">
        <ele>1962.381</ele>
        <time>2018-08-10T11:40:15Z</time>
      </trkpt>
      <trkpt lat="46.30437" lon="10.55464">
        <ele>1962.845</ele>
        <time>2018-08-10T11:40:35Z</time>
      </trkpt>
      <trkpt lat="46.30439" lon="10.55464">
        <ele>1963.57</ele>
        <time>2018-08-10T11:40:55Z</time>
      </trkpt>
      <trkpt lat="46.3044" lon="10.55467">
        <ele>1965.021</ele>
        <time>2018-08-10T11:41:15Z</time>
      </trkpt>
      <trkpt lat="46.30412" lon="10.55493">
        <ele>1967.348</ele>
        <time>2018-08-10T11:41:35Z</time>
      </trkpt>
      <trkpt lat="46.30411" lon="10.55494">
        <ele>1967.541</ele>
        <time>2018-08-10T11:41:55Z</time>
      </trkpt>
      <trkpt lat="46.3041" lon="10.55497">
        <ele>1968.194</ele>
        <time>2018-08-10T11:42:15Z</time>
      </trkpt>
      <trkpt lat="46.30409" lon="10.555">
        <ele>1969.057</ele>
        <time>2018-08-10T11:42:35Z</time>
      </trkpt>
      <trkpt lat="46.30408" lon="10.55503">
        <ele>1969.822</ele>
        <time>2018-08-10T11:42:55Z</time>
      </trkpt>
      <trkpt lat="46.30407" lon="10.55507">
        <ele>1970.708</ele>
        <time>2018-08-10T11:43:15Z</time>
      </trkpt>
      <trkpt lat="46.30406" lon="10.5551">
        <ele>1971.511</ele>
        <time>2018-08-10T11:43:35Z</time>
      </trkpt>
      <trkpt lat="46.30405" lon="10.55513">
        <ele>1972.466</ele>
        <time>2018-08-10T11:43:55Z</time>
      </trkpt>
      <trkpt lat="46.30404" lon="10.55516">
        <ele>1973.262</ele>
        <time>2018-08-10T11:44:15Z</time>
      </trkpt>
      <trkpt lat="46.30403" lon="10.55519">
        <ele>1973.976</ele>
        <time>2018-08-10T11:44:35Z</time>
      </trkpt>
      <trkpt lat="46.30402" lon="10.55522">
        <ele>1974.721</ele>
        <time>2018-08-10T11:44:55Z</time>
      </trkpt>
      <trkpt lat="46.30401" lon="10.55525">
        <ele>1975.452</ele>
        <time>2018-08-10T11:45:15Z</time>
      </trkpt>
      <trkpt lat="46.304" lon="10.55528">
        <ele>1976.139</ele>
        <time>2018-08-10T11:45:35Z</time>
      </trkpt>
      <trkpt lat="46.30399" lon="10.55531">
        <ele>1976.672</ele>
        <time>2018-08-10T11:45:55Z</time>
      </trkpt>
      <trkpt lat="46.30398" lon="10.55534">
        <ele>1977.163</ele>
        <time>2018-08-10T11:46:15Z</time>
      </trkpt>
      <trkpt lat="46.30397" lon="10.55537">
        <ele>1977.644</ele>
        <time>2018-08-10T11:46:35Z</time>
      </trkpt>
      <trkpt lat="46.30395" lon="10.55539">
        <ele>1978.018</ele>
        <time>2018-08-10T11:46:55Z</time>
      </trkpt>
      <trkpt lat="46.30394" lon="10.55542">
        <ele>1978.308</ele>
        <time>2018-08-10T11:47:15Z</time>
      </trkpt>
      <trkpt lat="46.30392" lon="10.55544">
        <ele>1978.588</ele>
        <time>2018-08-10T11:47:35Z</time>
      </trkpt>
      <trkpt lat="46.30391" lon="10.55547">
        <ele>1978.753</ele>
        <time>2018-08-10T11:47:55Z</time>
      </trkpt>
      <trkpt lat="46.30389" lon="10.55549">
        <ele>1978.879</ele>
        <time>2018-08-10T11:48:15Z</time>
      </trkpt>
      <trkpt lat="46.30387" lon="10.55551">
        <ele>1979.173</ele>
        <time>2018-08-10T11:48:35Z</time>
      </trkpt>
      <trkpt lat="46.30386" lon="10.55553">
        <ele>1979.498</ele>
        <time>2018-08-10T11:48:55Z</time>
      </trkpt>
      <trkpt lat="46.30384" lon="10.55555">
        <ele>1979.879</ele>
        <time>2018-08-10T11:49:15Z</time>
      </trkpt>
      <trkpt lat="46.30383" lon="10.55557">
        <ele>1980.236</ele>
        <time>2018-08-10T11:49:35Z</time>
      </trkpt>
      <trkpt lat="46.30381" lon="10.5556">
        <ele>1980.629</ele>
        <time>2018-08-10T11:49:55Z</time>
      </trkpt>
      <trkpt lat="46.3038" lon="10.55562">
        <ele>1981.022</ele>
        <time>2018-08-10T11:50:15Z</time>
      </trkpt>
      <trkpt lat="46.30378" lon="10.55564">
        <ele>1981.662</ele>
        <time>2018-08-10T11:50:35Z</time>
      </trkpt>
      <trkpt lat="46.30377" lon="10.55567">
        <ele>1982.208</ele>
        <time>2018-08-10T11:50:55Z</time>
      </trkpt>
      <trkpt lat="46.30376" lon="10.55569">
        <ele>1982.808</ele>
        <time>2018-08-10T11:51:15Z</time>
      </trkpt>
      <trkpt lat="46.30374" lon="10.55572">
        <ele>1983.434</ele>
        <time>2018-08-10T11:51:35Z</time>
      </trkpt>
      <trkpt lat="46.30373" lon="10.55574">
        <ele>1984.019</ele>
        <time>2018-08-10T11:51:55Z</time>
      </trkpt>
      <trkpt lat="46.30372" lon="10.55577">
        <ele>1984.745</ele>
        <time>2018-08-10T11:52:15Z</time>
      </trkpt>
      <trkpt lat="46.30371" lon="10.55579">
        <ele>1985.319</ele>
        <time>2018-08-10T11:52:35Z</time>
      </trkpt>
      <trkpt lat="46.3037" lon="10.55582">
        <ele>1986.024</ele>
        <time>2018-08-10T11:52:55Z</time>
      </trkpt>
      <trkpt lat="46.30369" lon="10.55584">
        <ele>1986.625</ele>
        <time>2018-08-10T11:53:15Z</time>
      </trkpt>
      <trkpt lat="46.30367" lon="10.55587">
        <ele>1987.212</ele>
        <time>2018-08-10T11:53:35Z</time>
      </trkpt>
      <trkpt lat="46.30366" lon="10.55589">
        <ele>1987.875</ele>
        <time>2018-08-10T11:53:55Z</time>
      </trkpt>
      <trkpt lat="46.30365" lon="10.55591">
        <ele>1988.533</ele>
        <time>2018-08-10T11:54:15Z</time>
      </trkpt>
      <trkpt lat="46.30364" lon="10.55594">
        <ele>1989.123</ele>
        <time>2018-08-10T11:54:35Z</time>
      </trkpt>
      <trkpt lat="46.30362" lon="10.55596">
        <ele>1989.615</ele>
        <time>2018-08-10T11:54:55Z</time>
      </trkpt>
      <trkpt lat="46.30361" lon="10.55598">
        <ele>1990.208</ele>
        <time>2018-08-10T11:55:15Z</time>
      </trkpt>
      <trkpt lat="46.30359" lon="10.556">
        <ele>1990.795</ele>
        <time>2018-08-10T11:55:35Z</time>
      </trkpt>
      <trkpt lat="46.30358" lon="10.55602">
        <ele>1991.08</ele>
        <time>2018-08-10T11:55:55Z</time>
      </trkpt>
      <trkpt lat="46.30356" lon="10.55604">
        <ele>1991.456</ele>
        <time>2018-08-10T11:56:15Z</time>
      </trkpt>
      <trkpt lat="46.30355" lon="10.55606">
        <ele>1991.77</ele>
        <time>2018-08-10T11:56:35Z</time>
      </trkpt>
      <trkpt lat="46.30353" lon="10.55607">
        <ele>1992.035</ele>
        <time>2018-08-10T11:56:55Z</time>
      </trkpt>
      <trkpt lat="46.30351" lon="10.55609">
        <ele>1992.366</ele>
        <time>2018-08-10T11:57:15Z</time>
      </trkpt>
      <trkpt lat="46.30349" lon="10.55611">
        <ele>1992.633</ele>
        <time>2018-08-10T11:57:35Z</time>
      </trkpt>
      <trkpt lat="46.30347" lon="10.55612">
        <ele>1992.896</ele>
        <time>2018-08-10T11:57:55Z</time>
      </trkpt>
      <trkpt lat="46.30345" lon="10.55613">
        <ele>1993.147</ele>
        <time>2018-08-10T11:58:15Z</time>
      </trkpt>
      <trkpt lat="46.30343" lon="10.55615">
        <ele>1993.329</ele>
        <time>2018-08-10T11:58:35Z</time>
      </trkpt>
      <trkpt lat="46.30341" lon="10.55617">
        <ele>1993.721</ele>
        <time>2018-08-10T11:58:55Z</time>
      </trkpt>
      <trkpt lat="46.30339" lon="10.55618">
        <ele>1994.008</ele>
        <time>2018-08-10T11:59:15Z</time>
      </trkpt>
      <trkpt lat="46.30337" lon="10.5562">
        <ele>1994.376</ele>
        <time>2018-08-10T11:59:35Z</time>
      </trkpt>
      <trkpt lat="46.30335" lon="10.55621">
        <ele>1994.651</ele>
        <time>2018-08-10T11:59:55Z</time>
      </trkpt>
      <trkpt lat="46.30333" lon="10.55623">
        <ele>1995.097</ele>
        <time>2018-08-10T12:00:15Z</time>
      </trkpt>
      <trkpt lat="46.30331" lon="10.55625">
        <ele>1995.431</ele>
        <time>2018-08-10T12:00:35Z</time>
      </trkpt>
      <trkpt lat="46.30329" lon="10.55627">
        <ele>1995.976</ele>
        <time>2018-08-10T12:00:55Z</time>
      </trkpt>
      <trkpt lat="46.30327" lon="10.55628">
        <ele>1996.467</ele>
        <time>2018-08-10T12:01:15Z</time>
      </trkpt>
      <trkpt lat="46.30325" lon="10.5563">
        <ele>1996.834</ele>
        <time>2018-08-10T12:01:35Z</time>
      </trkpt>
      <trkpt lat="46.30324" lon="10.55632">
        <ele>1997.227</ele>
        <time>2018-08-10T12:01:55Z</time>
      </trkpt>
      <trkpt lat="46.30322" lon="10.55634">
        <ele>1997.761</ele>
        <time>2018-08-10T12:02:15Z</time>
      </trkpt>
      <trkpt lat="46.30319" lon="10.55636">
        <ele>1998.121</ele>
        <time>2018-08-10T12:02:35Z</time>
      </trkpt>
      <trkpt lat="46.30317" lon="10.55637">
        <ele>1998.413</ele>
        <time>2018-08-10T12:02:55Z</time>
      </trkpt>
      <trkpt lat="46.30315" lon="10.55639">
        <ele>1998.808</ele>
        <time>2018-08-10T12:03:15Z</time>
      </trkpt>
      <trkpt lat="46.30313" lon="10.55641">
        <ele>1999.288</ele>
        <time>2018-08-10T12:03:35Z</time>
      </trkpt>
      <trkpt lat="46.30311" lon="10.55642">
        <ele>1999.693</ele>
        <time>2018-08-10T12:03:55Z</time>
      </trkpt>
      <trkpt lat="46.30309" lon="10.55644">
        <ele>2000.129</ele>
        <time>2018-08-10T12:04:15Z</time>
      </trkpt>
      <trkpt lat="46.30307" lon="10.55646">
        <ele>2000.633</ele>
        <time>2018-08-10T12:04:35Z</time>
      </trkpt>
      <trkpt lat="46.30305" lon="10.55648">
        <ele>2001.168</ele>
        <time>2018-08-10T12:04:55Z</time>
      </trkpt>
      <trkpt lat="46.30303" lon="10.55649">
        <ele>2001.799</ele>
        <time>2018-08-10T12:05:15Z</time>
      </trkpt>
      <trkpt lat="46.303" lon="10.55651">
        <ele>2002.246</ele>
        <time>2018-08-10T12:05:35Z</time>
      </trkpt>
      <trkpt lat="46.30298" lon="10.55653">
        <ele>2002.669</ele>
        <time>2018-08-10T12:05:55Z</time>
      </trkpt>
      <trkpt lat="46.30296" lon="10.55654">
        <ele>2003.018</ele>
        <time>2018-08-10T12:06:15Z</time>
      </trkpt>
      <trkpt lat="46.30294" lon="10.55656">
        <ele>2003.498</ele>
        <time>2018-08-10T12:06:35Z</time>
      </trkpt>
      <trkpt lat="46.30291" lon="10.55657">
        <ele>2003.817</ele>
        <time>2018-08-10T12:06:55Z</time>
      </trkpt>
      <trkpt lat="46.30289" lon="10.55659">
        <ele>2004.108</ele>
        <time>2018-08-10T12:07:15Z</time>
      </trkpt>
      <trkpt lat="46.30287" lon="10.5566">
        <ele>2004.333</ele>
        <time>2018-08-10T12:07:35Z</time>
      </trkpt>
      <trkpt lat="46.30284" lon="10.55661">
        <ele>2004.648</ele>
        <time>2018-08-10T12:07:55Z</time>
      </trkpt>
      <trkpt lat="46.30282" lon="10.55663">
        <ele>2004.834</ele>
        <time>2018-08-10T12:08:15Z</time>
      </trkpt>
      <trkpt lat="46.30279" lon="10.55664">
        <ele>2005.038</ele>
        <time>2018-08-10T12:08:35Z</time>
      </trkpt>
      <trkpt lat="46.30277" lon="10.55666">
        <ele>2005.193</ele>
        <time>2018-08-10T12:08:55Z</time>
      </trkpt>
      <trkpt lat="46.30274" lon="10.55667">
        <ele>2005.354</ele>
        <time>2018-08-10T12:09:15Z</time>
      </trkpt>
      <trkpt lat="46.30272" lon="10.55669">
        <ele>2005.591</ele>
        <time>2018-08-10T12:09:35Z</time>
      </trkpt>
      <trkpt lat="46.30269" lon="10.55671">
        <ele>2005.754</ele>
        <time>2018-08-10T12:09:55Z</time>
      </trkpt>
      <trkpt lat="46.30267" lon="10.55672">
        <ele>2006.042</ele>
        <time>2018-08-10T12:10:15Z</time>
      </trkpt>
      <trkpt lat="46.30265" lon="10.55674">
        <ele>2006.322</ele>
        <time>2018-08-10T12:10:35Z</time>
      </trkpt>
      <trkpt lat="46.30262" lon="10.55676">
        <ele>2006.614</ele>
        <time>2018-08-10T12:10:55Z</time>
      </trkpt>
      <trkpt lat="46.3026" lon="10.55679">
        <ele>2006.908</ele>
        <time>2018-08-10T12:11:15Z</time>
      </trkpt>
      <trkpt lat="46.30257" lon="10.55681">
        <ele>2007.226</ele>
        <time>2018-08-10T12:11:35Z</time>
      </trkpt>
      <trkpt lat="46.30255" lon="10.55683">
        <ele>2007.781</ele>
        <time>2018-08-10T12:11:55Z</time>
      </trkpt>
      <trkpt lat="46.30253" lon="10.55685">
        <ele>2008.097</ele>
        <time>2018-08-10T12:12:15Z</time>
      </trkpt>
      <trkpt lat="46.30251" lon="10.55688">
        <ele>2008.461</ele>
        <time>2018-08-10T12:12:35Z</time>
      </trkpt>
      <trkpt lat="46.30249" lon="10.5569">
        <ele>2008.836</ele>
        <time>2018-08-10T12:12:55Z</time>
      </trkpt>
      <trkpt lat="46.30246" lon="10.55692">
        <ele>2009.457</ele>
        <time>2018-08-10T12:13:15Z</time>
      </trkpt>
      <trkpt lat="46.30244" lon="10.55695">
        <ele>2010.094</ele>
        <time>2018-08-10T12:13:35Z</time>
      </trkpt>
      <trkpt lat="46.30242" lon="10.55697">
        <ele>2010.697</ele>
        <time>2018-08-10T12:13:55Z</time>
      </trkpt>
      <trkpt lat="46.3024" lon="10.557">
        <ele>2011.271</ele>
        <time>2018-08-10T12:14:15Z</time>
      </trkpt>
      <trkpt lat="46.30238" lon="10.55702">
        <ele>2011.741</ele>
        <time>2018-08-10T12:14:35Z</time>
      </trkpt>
      <trkpt lat="46.30236" lon="10.55704">
        <ele>2012.315</ele>
        <time>2018-08-10T12:14:55Z</time>
      </trkpt>
      <trkpt lat="46.30233" lon="10.55706">
        <ele>2012.808</ele>
        <time>2018-08-10T12:15:15Z</time>
      </trkpt>
      <trkpt lat="46.30231" lon="10.55708">
        <ele>2013.159</ele>
        <time>2018-08-10T12:15:35Z</time>
      </trkpt>
      <trkpt lat="46.30229" lon="10.55709">
        <ele>2013.424</ele>
        <time>2018-08-10T12:15:55Z</time>
      </trkpt>
      <trkpt lat="46.30226" lon="10.55711">
        <ele>2013.73</ele>
        <time>2018-08-10T12:16:15Z</time>
      </trkpt>
      <trkpt lat="46.30224" lon="10.55712">
        <ele>2013.974</ele>
        <time>2018-08-10T12:16:35Z</time>
      </trkpt>
      <trkpt lat="46.30221" lon="10.55714">
        <ele>2014.169</ele>
        <time>2018-08-10T12:16:55Z</time>
      </trkpt>
      <trkpt lat="46.30219" lon="10.55715">
        <ele>2014.12</ele>
        <time>2018-08-10T12:17:15Z</time>
      </trkpt>
      <trkpt lat="46.30217" lon="10.55716">
        <ele>2014.067</ele>
        <time>2018-08-10T12:17:35Z</time>
      </trkpt>
      <trkpt lat="46.30215" lon="10.55717">
        <ele>2013.93</ele>
        <time>2018-08-10T12:17:55Z</time>
      </trkpt>
      <trkpt lat="46.30213" lon="10.55718">
        <ele>2013.833</ele>
        <time>2018-08-10T12:18:15Z</time>
      </trkpt>
      <trkpt lat="46.30211" lon="10.5572">
        <ele>2014.423</ele>
        <time>2018-08-10T12:18:35Z</time>
      </trkpt>
      <trkpt lat="46.3021" lon="10.55723">
        <ele>2015.615</ele>
        <time>2018-08-10T12:18:55Z</time>
      </trkpt>
      <trkpt lat="46.3021" lon="10.55726">
        <ele>2017.108</ele>
        <time>2018-08-10T12:19:15Z</time>
      </trkpt>
      <trkpt lat="46.30212" lon="10.55727">
        <ele>2018.525</ele>
        <time>2018-08-10T12:19:35Z</time>
      </trkpt>
      <trkpt lat="46.30214" lon="10.55728">
        <ele>2019.28</ele>
        <time>2018-08-10T12:19:55Z</time>
      </trkpt>
      <trkpt lat="46.30217" lon="10.55728">
        <ele>2019.756</ele>
        <time>2018-08-10T12:20:15Z</time>
      </trkpt>
      <trkpt lat="46.30219" lon="10.55727">
        <ele>2019.97</ele>
        <time>2018-08-10T12:20:35Z</time>
      </trkpt>
      <trkpt lat="46.30221" lon="10.55727">
        <ele>2020.145</ele>
        <time>2018-08-10T12:20:55Z</time>
      </trkpt>
      <trkpt lat="46.30223" lon="10.55727">
        <ele>2020.356</ele>
        <time>2018-08-10T12:21:15Z</time>
      </trkpt>
      <trkpt lat="46.30225" lon="10.55726">
        <ele>2020.433</ele>
        <time>2018-08-10T12:21:35Z</time>
      </trkpt>
      <trkpt lat="46.30227" lon="10.55726">
        <ele>2020.426</ele>
        <time>2018-08-10T12:21:55Z</time>
      </trkpt>
      <trkpt lat="46.30229" lon="10.55725">
        <ele>2020.565</ele>
        <time>2018-08-10T12:22:15Z</time>
      </trkpt>
      <trkpt lat="46.30231" lon="10.55725">
        <ele>2020.668</ele>
        <time>2018-08-10T12:22:35Z</time>
      </trkpt>
      <trkpt lat="46.30233" lon="10.55725">
        <ele>2020.714</ele>
        <time>2018-08-10T12:22:55Z</time>
      </trkpt>
      <trkpt lat="46.30236" lon="10.55724">
        <ele>2020.808</ele>
        <time>2018-08-10T12:23:15Z</time>
      </trkpt>
      <trkpt lat="46.30238" lon="10.55724">
        <ele>2020.988</ele>
        <time>2018-08-10T12:23:35Z</time>
      </trkpt>
      <trkpt lat="46.3024" lon="10.55723">
        <ele>2020.993</ele>
        <time>2018-08-10T12:23:55Z</time>
      </trkpt>
      <trkpt lat="46.30242" lon="10.55723">
        <ele>2021.079</ele>
        <time>2018-08-10T12:24:15Z</time>
      </trkpt>
      <trkpt lat="46.30244" lon="10.55722">
        <ele>2021.143</ele>
        <time>2018-08-10T12:24:35Z</time>
      </trkpt>
      <trkpt lat="46.30247" lon="10.55722">
        <ele>2021.278</ele>
        <time>2018-08-10T12:24:55Z</time>
      </trkpt>
      <trkpt lat="46.30249" lon="10.55721">
        <ele>2021.229</ele>
        <time>2018-08-10T12:25:15Z</time>
      </trkpt>
      <trkpt lat="46.30251" lon="10.5572">
        <ele>2021.446</ele>
        <time>2018-08-10T12:25:35Z</time>
      </trkpt>
      <trkpt lat="46.30253" lon="10.5572">
        <ele>2021.669</ele>
        <time>2018-08-10T12:25:55Z</time>
      </trkpt>
      <trkpt lat="46.30255" lon="10.55719">
        <ele>2022.051</ele>
        <time>2018-08-10T12:26:15Z</time>
      </trkpt>
      <trkpt lat="46.30257" lon="10.55718">
        <ele>2022.301</ele>
        <time>2018-08-10T12:26:35Z</time>
      </trkpt>
      <trkpt lat="46.3026" lon="10.55718">
        <ele>2022.711</ele>
        <time>2018-08-10T12:26:55Z</time>
      </trkpt>
      <trkpt lat="46.30262" lon="10.55717">
        <ele>2023.008</ele>
        <time>2018-08-10T12:27:15Z</time>
      </trkpt>
      <trkpt lat="46.30264" lon="10.55717">
        <ele>2023.417</ele>
        <time>2018-08-10T12:27:35Z</time>
      </trkpt>
      <trkpt lat="46.30266" lon="10.55717">
        <ele>2023.832</ele>
        <time>2018-08-10T12:27:55Z</time>
      </trkpt>
      <trkpt lat="46.30269" lon="10.55716">
        <ele>2024.118</ele>
        <time>2018-08-10T12:28:15Z</time>
      </trkpt>
      <trkpt lat="46.30271" lon="10.55716">
        <ele>2024.522</ele>
        <time>2018-08-10T12:28:35Z</time>
      </trkpt>
      <trkpt lat="46.30273" lon="10.55715">
        <ele>2024.877</ele>
        <time>2018-08-10T12:28:55Z</time>
      </trkpt>
      <trkpt lat="46.30275" lon="10.55715">
        <ele>2025.258</ele>
        <time>2018-08-10T12:29:15Z</time>
      </trkpt>
      <trkpt lat="46.30277" lon="10.55715">
        <ele>2025.745</ele>
        <time>2018-08-10T12:29:35Z</time>
      </trkpt>
      <trkpt lat="46.30279" lon="10.55714">
        <ele>2026.228</ele>
        <time>2018-08-10T12:29:55Z</time>
      </trkpt>
      <trkpt lat="46.30281" lon="10.55714">
        <ele>2026.685</ele>
        <time>2018-08-10T12:30:15Z</time>
      </trkpt>
      <trkpt lat="46.30283" lon="10.55715">
        <ele>2027.289</ele>
        <time>2018-08-10T12:30:35Z</time>
      </trkpt>
      <trkpt lat="46.30285" lon="10.55715">
        <ele>2027.717</ele>
        <time>2018-08-10T12:30:55Z</time>
      </trkpt>
      <trkpt lat="46.30287" lon="10.55715">
        <ele>2028.308</ele>
        <time>2018-08-10T12:31:15Z</time>
      </trkpt>
      <trkpt lat="46.30289" lon="10.55716">
        <ele>2029.09</ele>
        <time>2018-08-10T12:31:35Z</time>
      </trkpt>
      <trkpt lat="46.30291" lon="10.55716">
        <ele>2029.695</ele>
        <time>2018-08-10T12:31:55Z</time>
      </trkpt>
      <trkpt lat="46.30293" lon="10.55717">
        <ele>2030.491</ele>
        <time>2018-08-10T12:32:15Z</time>
      </trkpt>
      <trkpt lat="46.30295" lon="10.55718">
        <ele>2031.185</ele>
        <time>2018-08-10T12:32:35Z</time>
      </trkpt>
      <trkpt lat="46.30297" lon="10.55719">
        <ele>2031.82</ele>
        <time>2018-08-10T12:32:55Z</time>
      </trkpt>
      <trkpt lat="46.30299" lon="10.55719">
        <ele>2032.351</ele>
        <time>2018-08-10T12:33:15Z</time>
      </trkpt>
      <trkpt lat="46.30301" lon="10.55719">
        <ele>2032.978</ele>
        <time>2018-08-10T12:33:35Z</time>
      </trkpt>
      <trkpt lat="46.30303" lon="10.55719">
        <ele>2033.421</ele>
        <time>2018-08-10T12:33:55Z</time>
      </trkpt>
      <trkpt lat="46.30305" lon="10.55719">
        <ele>2033.737</ele>
        <time>2018-08-10T12:34:15Z</time>
      </trkpt>
      <trkpt lat="46.30307" lon="10.55719">
        <ele>2034.049</ele>
        <time>2018-08-10T12:34:35Z</time>
      </trkpt>
      <trkpt lat="46.30309" lon="10.55719">
        <ele>2034.213</ele>
        <time>2018-08-10T12:34:55Z</time>
      </trkpt>
      <trkpt lat="46.30311" lon="10.55718">
        <ele>2034.308</ele>
        <time>2018-08-10T12:35:15Z</time>
      </trkpt>
      <trkpt lat="46.30313" lon="10.55717">
        <ele>2034.575</ele>
        <time>2018-08-10T12:35:35Z</time>
      </trkpt>
      <trkpt lat="46.30315" lon="10.55717">
        <ele>2034.77</ele>
        <time>2018-08-10T12:35:55Z</time>
      </trkpt>
      <trkpt lat="46.30317" lon="10.55717">
        <ele>2034.846</ele>
        <time>2018-08-10T12:36:15Z</time>
      </trkpt>
      <trkpt lat="46.30318" lon="10.55716">
        <ele>2035.02</ele>
        <time>2018-08-10T12:36:35Z</time>
      </trkpt>
      <trkpt lat="46.30367" lon="10.5571">
        <ele>2041.735</ele>
        <time>2018-08-10T12:36:55Z</time>
      </trkpt>
      <trkpt lat="46.30367" lon="10.5571">
        <ele>2041.726</ele>
        <time>2018-08-10T12:37:15Z</time>
      </trkpt>
      <trkpt lat="46.30369" lon="10.5571">
        <ele>2042.233</ele>
        <time>2018-08-10T12:37:35Z</time>
      </trkpt>
      <trkpt lat="46.30371" lon="10.5571">
        <ele>2042.776</ele>
        <time>2018-08-10T12:37:55Z</time>
      </trkpt>
      <trkpt lat="46.30373" lon="10.5571">
        <ele>2043.255</ele>
        <time>2018-08-10T12:38:15Z</time>
      </trkpt>
      <trkpt lat="46.30375" lon="10.55711">
        <ele>2043.807</ele>
        <time>2018-08-10T12:38:35Z</time>
      </trkpt>
      <trkpt lat="46.30377" lon="10.55711">
        <ele>2044.517</ele>
        <time>2018-08-10T12:38:55Z</time>
      </trkpt>
      <trkpt lat="46.30379" lon="10.55712">
        <ele>2045.008</ele>
        <time>2018-08-10T12:39:15Z</time>
      </trkpt>
      <trkpt lat="46.30381" lon="10.55712">
        <ele>2045.667</ele>
        <time>2018-08-10T12:39:35Z</time>
      </trkpt>
      <trkpt lat="46.30383" lon="10.55713">
        <ele>2046.352</ele>
        <time>2018-08-10T12:39:55Z</time>
      </trkpt>
      <trkpt lat="46.30385" lon="10.55713">
        <ele>2047.058</ele>
        <time>2018-08-10T12:40:15Z</time>
      </trkpt>
      <trkpt lat="46.30387" lon="10.55714">
        <ele>2047.722</ele>
        <time>2018-08-10T12:40:35Z</time>
      </trkpt>
      <trkpt lat="46.30389" lon="10.55714">
        <ele>2048.317</ele>
        <time>2018-08-10T12:40:55Z</time>
      </trkpt>
      <trkpt lat="46.30392" lon="10.55714">
        <ele>2049.028</ele>
        <time>2018-08-10T12:41:15Z</time>
      </trkpt>
      <trkpt lat="46.30394" lon="10.55714">
        <ele>2049.695</ele>
        <time>2018-08-10T12:41:35Z</time>
      </trkpt>
      <trkpt lat="46.30396" lon="10.55713">
        <ele>2049.968</ele>
        <time>2018-08-10T12:41:55Z</time>
      </trkpt>
      <trkpt lat="46.30398" lon="10.55713">
        <ele>2050.415</ele>
        <time>2018-08-10T12:42:15Z</time>
      </trkpt>
      <trkpt lat="46.304" lon="10.55712">
        <ele>2050.765</ele>
        <time>2018-08-10T12:42:35Z</time>
      </trkpt>
      <trkpt lat="46.30402" lon="10.55711">
        <ele>2051.011</ele>
        <time>2018-08-10T12:42:55Z</time>
      </trkpt>
      <trkpt lat="46.30405" lon="10.55711">
        <ele>2051.308</ele>
        <time>2018-08-10T12:43:15Z</time>
      </trkpt>
      <trkpt lat="46.30407" lon="10.5571">
        <ele>2051.733</ele>
        <time>2018-08-10T12:43:35Z</time>
      </trkpt>
      <trkpt lat="46.30409" lon="10.55709">
        <ele>2052.178</ele>
        <time>2018-08-10T12:43:55Z</time>
      </trkpt>
      <trkpt lat="46.30411" lon="10.55708">
        <ele>2052.484</ele>
        <time>2018-08-10T12:44:15Z</time>
      </trkpt>
      <trkpt lat="46.30413" lon="10.55708">
        <ele>2052.958</ele>
        <time>2018-08-10T12:44:35Z</time>
      </trkpt>
      <trkpt lat="46.30415" lon="10.55707">
        <ele>2053.523</ele>
        <time>2018-08-10T12:44:55Z</time>
      </trkpt>
      <trkpt lat="46.30417" lon="10.55707">
        <ele>2054.054</ele>
        <time>2018-08-10T12:45:15Z</time>
      </trkpt>
      <trkpt lat="46.3042" lon="10.55706">
        <ele>2054.481</ele>
        <time>2018-08-10T12:45:35Z</time>
      </trkpt>
      <trkpt lat="46.30422" lon="10.55706">
        <ele>2054.894</ele>
        <time>2018-08-10T12:45:55Z</time>
      </trkpt>
      <trkpt lat="46.30424" lon="10.55705">
        <ele>2055.223</ele>
        <time>2018-08-10T12:46:15Z</time>
      </trkpt>
      <trkpt lat="46.30426" lon="10.55705">
        <ele>2055.683</ele>
        <time>2018-08-10T12:46:35Z</time>
      </trkpt>
      <trkpt lat="46.30428" lon="10.55704">
        <ele>2056.111</ele>
        <time>2018-08-10T12:46:55Z</time>
      </trkpt>
      <trkpt lat="46.3043" lon="10.55704">
        <ele>2056.408</ele>
        <time>2018-08-10T12:47:15Z</time>
      </trkpt>
      <trkpt lat="46.30433" lon="10.55703">
        <ele>2056.864</ele>
        <time>2018-08-10T12:47:35Z</time>
      </trkpt>
      <trkpt lat="46.30435" lon="10.55702">
        <ele>2057.179</ele>
        <time>2018-08-10T12:47:55Z</time>
      </trkpt>
      <trkpt lat="46.30437" lon="10.55702">
        <ele>2057.445</ele>
        <time>2018-08-10T12:48:15Z</time>
      </trkpt>
      <trkpt lat="46.30439" lon="10.55701">
        <ele>2057.589</ele>
        <time>2018-08-10T12:48:35Z</time>
      </trkpt>
      <trkpt lat="46.30441" lon="10.55699">
        <ele>2057.744</ele>
        <time>2018-08-10T12:48:55Z</time>
      </trkpt>
      <trkpt lat="46.30443" lon="10.55698">
        <ele>2057.925</ele>
        <time>2018-08-10T12:49:15Z</time>
      </trkpt>
      <trkpt lat="46.30445" lon="10.55697">
        <ele>2058.142</ele>
        <time>2018-08-10T12:49:35Z</time>
      </trkpt>
      <trkpt lat="46.30446" lon="10.55697">
        <ele>2058.275</ele>
        <time>2018-08-10T12:49:55Z</time>
      </trkpt>
      <trkpt lat="46.30447" lon="10.55696">
        <ele>2058.354</ele>
        <time>2018-08-10T12:50:15Z</time>
      </trkpt>
      <trkpt lat="46.3045" lon="10.55695">
        <ele>2058.656</ele>
        <time>2018-08-10T12:50:35Z</time>
      </trkpt>
      <trkpt lat="46.30452" lon="10.55694">
        <ele>2058.911</ele>
        <time>2018-08-10T12:50:55Z</time>
      </trkpt>
      <trkpt lat="46.30454" lon="10.55692">
        <ele>2059.008</ele>
        <time>2018-08-10T12:51:15Z</time>
      </trkpt>
      <trkpt lat="46.30457" lon="10.5569">
        <ele>2059.097</ele>
        <time>2018-08-10T12:51:35Z</time>
      </trkpt>
      <trkpt lat="46.30459" lon="10.55688">
        <ele>2058.852</ele>
        <time>2018-08-10T12:51:55Z</time>
      </trkpt>
      <trkpt lat="46.3046" lon="10.55685">
        <ele>2058.718</ele>
        <time>2018-08-10T12:52:15Z</time>
      </trkpt>
      <trkpt lat="46.30462" lon="10.55683">
        <ele>2058.522</ele>
        <time>2018-08-10T12:52:35Z</time>
      </trkpt>
      <trkpt lat="46.30464" lon="10.5568">
        <ele>2058.297</ele>
        <time>2018-08-10T12:52:55Z</time>
      </trkpt>
      <trkpt lat="46.30466" lon="10.55678">
        <ele>2057.998</ele>
        <time>2018-08-10T12:53:15Z</time>
      </trkpt>
      <trkpt lat="46.30467" lon="10.55675">
        <ele>2057.785</ele>
        <time>2018-08-10T12:53:35Z</time>
      </trkpt>
      <trkpt lat="46.30469" lon="10.55673">
        <ele>2057.428</ele>
        <time>2018-08-10T12:53:55Z</time>
      </trkpt>
      <trkpt lat="46.3047" lon="10.5567">
        <ele>2057.115</ele>
        <time>2018-08-10T12:54:15Z</time>
      </trkpt>
      <trkpt lat="46.30472" lon="10.55667">
        <ele>2056.865</ele>
        <time>2018-08-10T12:54:35Z</time>
      </trkpt>
      <trkpt lat="46.30474" lon="10.55663">
        <ele>2056.911</ele>
        <time>2018-08-10T12:54:55Z</time>
      </trkpt>
      <trkpt lat="46.30476" lon="10.5566">
        <ele>2057.008</ele>
        <time>2018-08-10T12:55:15Z</time>
      </trkpt>
      <trkpt lat="46.30478" lon="10.55657">
        <ele>2057.113</ele>
        <time>2018-08-10T12:55:35Z</time>
      </trkpt>
      <trkpt lat="46.30479" lon="10.55654">
        <ele>2057.188</ele>
        <time>2018-08-10T12:55:55Z</time>
      </trkpt>
      <trkpt lat="46.30481" lon="10.55651">
        <ele>2057.114</ele>
        <time>2018-08-10T12:56:15Z</time>
      </trkpt>
      <trkpt lat="46.30483" lon="10.55648">
        <ele>2057.128</ele>
        <time>2018-08-10T12:56:35Z</time>
      </trkpt>
      <trkpt lat="46.30485" lon="10.55646">
        <ele>2057.263</ele>
        <time>2018-08-10T12:56:55Z</time>
      </trkpt>
      <trkpt lat="46.30487" lon="10.55644">
        <ele>2057.354</ele>
        <time>2018-08-10T12:57:15Z</time>
      </trkpt>
      <trkpt lat="46.30489" lon="10.55642">
        <ele>2057.461</ele>
        <time>2018-08-10T12:57:35Z</time>
      </trkpt>
      <trkpt lat="46.30491" lon="10.5564">
        <ele>2057.664</ele>
        <time>2018-08-10T12:57:55Z</time>
      </trkpt>
      <trkpt lat="46.30492" lon="10.55639">
        <ele>2057.878</ele>
        <time>2018-08-10T12:58:15Z</time>
      </trkpt>
      <trkpt lat="46.30494" lon="10.55638">
        <ele>2058.333</ele>
        <time>2018-08-10T12:58:35Z</time>
      </trkpt>
      <trkpt lat="46.30496" lon="10.55639">
        <ele>2059.426</ele>
        <time>2018-08-10T12:58:55Z</time>
      </trkpt>
      <trkpt lat="46.30497" lon="10.55641">
        <ele>2060.408</ele>
        <time>2018-08-10T12:59:15Z</time>
      </trkpt>
      <trkpt lat="46.30495" lon="10.55645">
        <ele>2060.829</ele>
        <time>2018-08-10T12:59:35Z</time>
      </trkpt>
      <trkpt lat="46.30493" lon="10.55647">
        <ele>2060.894</ele>
        <time>2018-08-10T12:59:55Z</time>
      </trkpt>
      <trkpt lat="46.30491" lon="10.55649">
        <ele>2060.79</ele>
        <time>2018-08-10T13:00:15Z</time>
      </trkpt>
      <trkpt lat="46.3049" lon="10.55651">
        <ele>2060.774</ele>
        <time>2018-08-10T13:00:35Z</time>
      </trkpt>
      <trkpt lat="46.30488" lon="10.55654">
        <ele>2060.849</ele>
        <time>2018-08-10T13:00:55Z</time>
      </trkpt>
      <trkpt lat="46.30487" lon="10.55657">
        <ele>2061.33</ele>
        <time>2018-08-10T13:01:15Z</time>
      </trkpt>
      <trkpt lat="46.30486" lon="10.5566">
        <ele>2061.787</ele>
        <time>2018-08-10T13:01:35Z</time>
      </trkpt>
      <trkpt lat="46.30485" lon="10.55663">
        <ele>2062.12</ele>
        <time>2018-08-10T13:01:55Z</time>
      </trkpt>
      <trkpt lat="46.30484" lon="10.55666">
        <ele>2062.635</ele>
        <time>2018-08-10T13:02:15Z</time>
      </trkpt>
      <trkpt lat="46.30483" lon="10.55669">
        <ele>2063.086</ele>
        <time>2018-08-10T13:02:35Z</time>
      </trkpt>
      <trkpt lat="46.30482" lon="10.55672">
        <ele>2063.514</ele>
        <time>2018-08-10T13:02:55Z</time>
      </trkpt>
      <trkpt lat="46.30481" lon="10.55675">
        <ele>2064.008</ele>
        <time>2018-08-10T13:03:15Z</time>
      </trkpt>
      <trkpt lat="46.30481" lon="10.55678">
        <ele>2064.545</ele>
        <time>2018-08-10T13:03:35Z</time>
      </trkpt>
      <trkpt lat="46.3048" lon="10.55682">
        <ele>2065.12</ele>
        <time>2018-08-10T13:03:55Z</time>
      </trkpt>
      <trkpt lat="46.30479" lon="10.55685">
        <ele>2065.726</ele>
        <time>2018-08-10T13:04:15Z</time>
      </trkpt>
      <trkpt lat="46.30478" lon="10.55688">
        <ele>2066.39</ele>
        <time>2018-08-10T13:04:35Z</time>
      </trkpt>
      <trkpt lat="46.30478" lon="10.55692">
        <ele>2066.965</ele>
        <time>2018-08-10T13:04:55Z</time>
      </trkpt>
      <trkpt lat="46.30477" lon="10.55695">
        <ele>2067.596</ele>
        <time>2018-08-10T13:05:15Z</time>
      </trkpt>
      <trkpt lat="46.30476" lon="10.55698">
        <ele>2068.113</ele>
        <time>2018-08-10T13:05:35Z</time>
      </trkpt>
      <trkpt lat="46.30476" lon="10.55702">
        <ele>2068.696</ele>
        <time>2018-08-10T13:05:55Z</time>
      </trkpt>
      <trkpt lat="46.30475" lon="10.55705">
        <ele>2069.283</ele>
        <time>2018-08-10T13:06:15Z</time>
      </trkpt>
      <trkpt lat="46.30474" lon="10.55708">
        <ele>2069.625</ele>
        <time>2018-08-10T13:06:35Z</time>
      </trkpt>
      <trkpt lat="46.30473" lon="10.55711">
        <ele>2070.017</ele>
        <time>2018-08-10T13:06:55Z</time>
      </trkpt>
      <trkpt lat="46.30472" lon="10.55714">
        <ele>2070.508</ele>
        <time>2018-08-10T13:07:15Z</time>
      </trkpt>
      <trkpt lat="46.30471" lon="10.55717">
        <ele>2071.07</ele>
        <time>2018-08-10T13:07:35Z</time>
      </trkpt>
      <trkpt lat="46.30469" lon="10.5572">
        <ele>2071.465</ele>
        <time>2018-08-10T13:07:55Z</time>
      </trkpt>
      <trkpt lat="46.30468" lon="10.55722">
        <ele>2071.861</ele>
        <time>2018-08-10T13:08:15Z</time>
      </trkpt>
      <trkpt lat="46.30466" lon="10.55725">
        <ele>2072.155</ele>
        <time>2018-08-10T13:08:35Z</time>
      </trkpt>
      <trkpt lat="46.30464" lon="10.55727">
        <ele>2072.42</ele>
        <time>2018-08-10T13:08:55Z</time>
      </trkpt>
      <trkpt lat="46.30462" lon="10.55729">
        <ele>2072.731</ele>
        <time>2018-08-10T13:09:15Z</time>
      </trkpt>
      <trkpt lat="46.3046" lon="10.55731">
        <ele>2072.958</ele>
        <time>2018-08-10T13:09:35Z</time>
      </trkpt>
      <trkpt lat="46.30458" lon="10.55733">
        <ele>2073.021</ele>
        <time>2018-08-10T13:09:55Z</time>
      </trkpt>
      <trkpt lat="46.30457" lon="10.55735">
        <ele>2073.266</ele>
        <time>2018-08-10T13:10:15Z</time>
      </trkpt>
      <trkpt lat="46.30454" lon="10.55737">
        <ele>2073.329</ele>
        <time>2018-08-10T13:10:35Z</time>
      </trkpt>
      <trkpt lat="46.30452" lon="10.5574">
        <ele>2073.521</ele>
        <time>2018-08-10T13:10:55Z</time>
      </trkpt>
      <trkpt lat="46.3045" lon="10.55742">
        <ele>2073.708</ele>
        <time>2018-08-10T13:11:15Z</time>
      </trkpt>
      <trkpt lat="46.30448" lon="10.55744">
        <ele>2073.838</ele>
        <time>2018-08-10T13:11:35Z</time>
      </trkpt>
      <trkpt lat="46.30447" lon="10.55745">
        <ele>2074.053</ele>
        <time>2018-08-10T13:11:55Z</time>
      </trkpt>
      <trkpt lat="46.30445" lon="10.55747">
        <ele>2074.179</ele>
        <time>2018-08-10T13:12:15Z</time>
      </trkpt>
      <trkpt lat="46.30443" lon="10.55749">
        <ele>2074.293</ele>
        <time>2018-08-10T13:12:35Z</time>
      </trkpt>
      <trkpt lat="46.30441" lon="10.55751">
        <ele>2074.418</ele>
        <time>2018-08-10T13:12:55Z</time>
      </trkpt>
      <trkpt lat="46.30439" lon="10.55752">
        <ele>2074.769</ele>
        <time>2018-08-10T13:13:15Z</time>
      </trkpt>
      <trkpt lat="46.30438" lon="10.55754">
        <ele>2074.996</ele>
        <time>2018-08-10T13:13:35Z</time>
      </trkpt>
      <trkpt lat="46.30436" lon="10.55756">
        <ele>2075.259</ele>
        <time>2018-08-10T13:13:55Z</time>
      </trkpt>
      <trkpt lat="46.30434" lon="10.55757">
        <ele>2075.447</ele>
        <time>2018-08-10T13:14:15Z</time>
      </trkpt>
      <trkpt lat="46.30432" lon="10.55759">
        <ele>2075.629</ele>
        <time>2018-08-10T13:14:35Z</time>
      </trkpt>
      <trkpt lat="46.3043" lon="10.55761">
        <ele>2075.821</ele>
        <time>2018-08-10T13:14:55Z</time>
      </trkpt>
      <trkpt lat="46.30428" lon="10.55762">
        <ele>2076.008</ele>
        <time>2018-08-10T13:15:15Z</time>
      </trkpt>
      <trkpt lat="46.30426" lon="10.55764">
        <ele>2076.226</ele>
        <time>2018-08-10T13:15:35Z</time>
      </trkpt>
      <trkpt lat="46.30425" lon="10.55765">
        <ele>2076.551</ele>
        <time>2018-08-10T13:15:55Z</time>
      </trkpt>
      <trkpt lat="46.30423" lon="10.55767">
        <ele>2076.927</ele>
        <time>2018-08-10T13:16:15Z</time>
      </trkpt>
      <trkpt lat="46.30421" lon="10.55769">
        <ele>2077.151</ele>
        <time>2018-08-10T13:16:35Z</time>
      </trkpt>
      <trkpt lat="46.30419" lon="10.5577">
        <ele>2077.466</ele>
        <time>2018-08-10T13:16:55Z</time>
      </trkpt>
      <trkpt lat="46.30418" lon="10.55772">
        <ele>2077.717</ele>
        <time>2018-08-10T13:17:15Z</time>
      </trkpt>
      <trkpt lat="46.30416" lon="10.55773">
        <ele>2077.824</ele>
        <time>2018-08-10T13:17:35Z</time>
      </trkpt>
      <trkpt lat="46.30414" lon="10.55774">
        <ele>2077.937</ele>
        <time>2018-08-10T13:17:55Z</time>
      </trkpt>
      <trkpt lat="46.30413" lon="10.55776">
        <ele>2077.935</ele>
        <time>2018-08-10T13:18:15Z</time>
      </trkpt>
      <trkpt lat="46.30411" lon="10.55777">
        <ele>2077.986</ele>
        <time>2018-08-10T13:18:35Z</time>
      </trkpt>
      <trkpt lat="46.3041" lon="10.55779">
        <ele>2078.114</ele>
        <time>2018-08-10T13:18:55Z</time>
      </trkpt>
      <trkpt lat="46.30408" lon="10.5578">
        <ele>2078.208</ele>
        <time>2018-08-10T13:19:15Z</time>
      </trkpt>
      <trkpt lat="46.30406" lon="10.55782">
        <ele>2078.445</ele>
        <time>2018-08-10T13:19:35Z</time>
      </trkpt>
      <trkpt lat="46.30405" lon="10.55784">
        <ele>2078.52</ele>
        <time>2018-08-10T13:19:55Z</time>
      </trkpt>
      <trkpt lat="46.30403" lon="10.55785">
        <ele>2078.626</ele>
        <time>2018-08-10T13:20:15Z</time>
      </trkpt>
      <trkpt lat="46.30402" lon="10.55787">
        <ele>2078.61</ele>
        <time>2018-08-10T13:20:35Z</time>
      </trkpt>
      <trkpt lat="46.30399" lon="10.55789">
        <ele>2078.675</ele>
        <time>2018-08-10T13:20:55Z</time>
      </trkpt>
      <trkpt lat="46.30397" lon="10.55791">
        <ele>2078.536</ele>
        <time>2018-08-10T13:21:15Z</time>
      </trkpt>
      <trkpt lat="46.30394" lon="10.55793">
        <ele>2078.313</ele>
        <time>2018-08-10T13:21:35Z</time>
      </trkpt>
      <trkpt lat="46.30393" lon="10.55794">
        <ele>2078.226</ele>
        <time>2018-08-10T13:21:55Z</time>
      </trkpt>
      <trkpt lat="46.30391" lon="10.55796">
        <ele>2078.197</ele>
        <time>2018-08-10T13:22:15Z</time>
      </trkpt>
      <trkpt lat="46.30389" lon="10.55798">
        <ele>2078.223</ele>
        <time>2018-08-10T13:22:35Z</time>
      </trkpt>
      <trkpt lat="46.30387" lon="10.558">
        <ele>2078.725</ele>
        <time>2018-08-10T13:22:55Z</time>
      </trkpt>
      <trkpt lat="46.30385" lon="10.55802">
        <ele>2079.308</ele>
        <time>2018-08-10T13:23:15Z</time>
      </trkpt>
      <trkpt lat="46.30384" lon="10.55804">
        <ele>2080.031</ele>
        <time>2018-08-10T13:23:35Z</time>
      </trkpt>
      <trkpt lat="46.30382" lon="10.55806">
        <ele>2080.736</ele>
        <time>2018-08-10T13:23:55Z</time>
      </trkpt>
      <trkpt lat="46.3038" lon="10.55808">
        <ele>2081.522</ele>
        <time>2018-08-10T13:24:15Z</time>
      </trkpt>
      <trkpt lat="46.30378" lon="10.55811">
        <ele>2082.276</ele>
        <time>2018-08-10T13:24:35Z</time>
      </trkpt>
      <trkpt lat="46.30376" lon="10.55813">
        <ele>2083.031</ele>
        <time>2018-08-10T13:24:55Z</time>
      </trkpt>
      <trkpt lat="46.30375" lon="10.55815">
        <ele>2083.752</ele>
        <time>2018-08-10T13:25:15Z</time>
      </trkpt>
      <trkpt lat="46.30373" lon="10.55817">
        <ele>2084.549</ele>
        <time>2018-08-10T13:25:35Z</time>
      </trkpt>
      <trkpt lat="46.30371" lon="10.55819">
        <ele>2085.162</ele>
        <time>2018-08-10T13:25:55Z</time>
      </trkpt>
      <trkpt lat="46.30369" lon="10.55821">
        <ele>2085.687</ele>
        <time>2018-08-10T13:26:15Z</time>
      </trkpt>
      <trkpt lat="46.30367" lon="10.55822">
        <ele>2086.042</ele>
        <time>2018-08-10T13:26:35Z</time>
      </trkpt>
      <trkpt lat="46.30365" lon="10.55823">
        <ele>2086.226</ele>
        <time>2018-08-10T13:26:55Z</time>
      </trkpt>
      <trkpt lat="46.30363" lon="10.55824">
        <ele>2086.308</ele>
        <time>2018-08-10T13:27:15Z</time>
      </trkpt>
      <trkpt lat="46.30361" lon="10.55824">
        <ele>2086.35</ele>
        <time>2018-08-10T13:27:35Z</time>
      </trkpt>
      <trkpt lat="46.30359" lon="10.55825">
        <ele>2086.585</ele>
        <time>2018-08-10T13:27:55Z</time>
      </trkpt>
      <trkpt lat="46.30356" lon="10.55826">
        <ele>2086.821</ele>
        <time>2018-08-10T13:28:15Z</time>
      </trkpt>
      <trkpt lat="46.30354" lon="10.55827">
        <ele>2087.295</ele>
        <time>2018-08-10T13:28:35Z</time>
      </trkpt>
      <trkpt lat="46.30351" lon="10.55828">
        <ele>2087.68</ele>
        <time>2018-08-10T13:28:55Z</time>
      </trkpt>
      <trkpt lat="46.30349" lon="10.55829">
        <ele>2088.181</ele>
        <time>2018-08-10T13:29:15Z</time>
      </trkpt>
      <trkpt lat="46.30347" lon="10.5583">
        <ele>2088.788</ele>
        <time>2018-08-10T13:29:35Z</time>
      </trkpt>
      <trkpt lat="46.30345" lon="10.55832">
        <ele>2089.371</ele>
        <time>2018-08-10T13:29:55Z</time>
      </trkpt>
      <trkpt lat="46.30342" lon="10.55833">
        <ele>2090.019</ele>
        <time>2018-08-10T13:30:15Z</time>
      </trkpt>
      <trkpt lat="46.3034" lon="10.55835">
        <ele>2090.609</ele>
        <time>2018-08-10T13:30:35Z</time>
      </trkpt>
      <trkpt lat="46.30338" lon="10.55836">
        <ele>2091.119</ele>
        <time>2018-08-10T13:30:55Z</time>
      </trkpt>
      <trkpt lat="46.30335" lon="10.55836">
        <ele>2091.508</ele>
        <time>2018-08-10T13:31:15Z</time>
      </trkpt>
      <trkpt lat="46.30333" lon="10.55837">
        <ele>2091.763</ele>
        <time>2018-08-10T13:31:35Z</time>
      </trkpt>
      <trkpt lat="46.30331" lon="10.55837">
        <ele>2091.818</ele>
        <time>2018-08-10T13:31:55Z</time>
      </trkpt>
      <trkpt lat="46.30328" lon="10.55837">
        <ele>2091.944</ele>
        <time>2018-08-10T13:32:15Z</time>
      </trkpt>
      <trkpt lat="46.30326" lon="10.55837">
        <ele>2091.928</ele>
        <time>2018-08-10T13:32:35Z</time>
      </trkpt>
      <trkpt lat="46.30323" lon="10.55837">
        <ele>2091.983</ele>
        <time>2018-08-10T13:32:55Z</time>
      </trkpt>
      <trkpt lat="46.30321" lon="10.55838">
        <ele>2092.064</ele>
        <time>2018-08-10T13:33:15Z</time>
      </trkpt>
      <trkpt lat="46.30318" lon="10.55838">
        <ele>2092.151</ele>
        <time>2018-08-10T13:33:35Z</time>
      </trkpt>
      <trkpt lat="46.30316" lon="10.55838">
        <ele>2092.164</ele>
        <time>2018-08-10T13:33:55Z</time>
      </trkpt>
      <trkpt lat="46.30313" lon="10.55838">
        <ele>2092.113</ele>
        <time>2018-08-10T13:34:15Z</time>
      </trkpt>
      <trkpt lat="46.30311" lon="10.55838">
        <ele>2092.343</ele>
        <time>2018-08-10T13:34:35Z</time>
      </trkpt>
      <trkpt lat="46.30308" lon="10.55839">
        <ele>2092.707</ele>
        <time>2018-08-10T13:34:55Z</time>
      </trkpt>
      <trkpt lat="46.30305" lon="10.5584">
        <ele>2093.008</ele>
        <time>2018-08-10T13:35:15Z</time>
      </trkpt>
      <trkpt lat="46.30303" lon="10.55841">
        <ele>2093.093</ele>
        <time>2018-08-10T13:35:35Z</time>
      </trkpt>
      <trkpt lat="46.303" lon="10.55842">
        <ele>2093.198</ele>
        <time>2018-08-10T13:35:55Z</time>
      </trkpt>
      <trkpt lat="46.30298" lon="10.55843">
        <ele>2093.074</ele>
        <time>2018-08-10T13:36:15Z</time>
      </trkpt>
      <trkpt lat="46.30295" lon="10.55844">
        <ele>2093.018</ele>
        <time>2018-08-10T13:36:35Z</time>
      </trkpt>
      <trkpt lat="46.30293" lon="10.55845">
        <ele>2093.083</ele>
        <time>2018-08-10T13:36:55Z</time>
      </trkpt>
      <trkpt lat="46.3029" lon="10.55846">
        <ele>2093.184</ele>
        <time>2018-08-10T13:37:15Z</time>
      </trkpt>
      <trkpt lat="46.30288" lon="10.55847">
        <ele>2093.151</ele>
        <time>2018-08-10T13:37:35Z</time>
      </trkpt>
      <trkpt lat="46.30285" lon="10.55847">
        <ele>2093.264</ele>
        <time>2018-08-10T13:37:55Z</time>
      </trkpt>
      <trkpt lat="46.30283" lon="10.55848">
        <ele>2093.283</ele>
        <time>2018-08-10T13:38:15Z</time>
      </trkpt>
      <trkpt lat="46.3028" lon="10.55849">
        <ele>2093.125</ele>
        <time>2018-08-10T13:38:35Z</time>
      </trkpt>
      <trkpt lat="46.30278" lon="10.55849">
        <ele>2092.917</ele>
        <time>2018-08-10T13:38:55Z</time>
      </trkpt>
      <trkpt lat="46.30275" lon="10.55849">
        <ele>2093.008</ele>
        <time>2018-08-10T13:39:15Z</time>
      </trkpt>
      <trkpt lat="46.30272" lon="10.55849">
        <ele>2093.16</ele>
        <time>2018-08-10T13:39:35Z</time>
      </trkpt>
      <trkpt lat="46.3027" lon="10.55849">
        <ele>2092.975</ele>
        <time>2018-08-10T13:39:55Z</time>
      </trkpt>
      <trkpt lat="46.30267" lon="10.55849">
        <ele>2092.771</ele>
        <time>2018-08-10T13:40:15Z</time>
      </trkpt>
      <trkpt lat="46.30265" lon="10.55848">
        <ele>2092.615</ele>
        <time>2018-08-10T13:40:35Z</time>
      </trkpt>
      <trkpt lat="46.30263" lon="10.55848">
        <ele>2092.53</ele>
        <time>2018-08-10T13:40:55Z</time>
      </trkpt>
      <trkpt lat="46.3026" lon="10.55848">
        <ele>2092.531</ele>
        <time>2018-08-10T13:41:15Z</time>
      </trkpt>
      <trkpt lat="46.30258" lon="10.55849">
        <ele>2092.778</ele>
        <time>2018-08-10T13:41:35Z</time>
      </trkpt>
      <trkpt lat="46.30255" lon="10.5585">
        <ele>2093.431</ele>
        <time>2018-08-10T13:41:55Z</time>
      </trkpt>
      <trkpt lat="46.30253" lon="10.55851">
        <ele>2094.496</ele>
        <time>2018-08-10T13:42:15Z</time>
      </trkpt>
      <trkpt lat="46.3025" lon="10.55853">
        <ele>2095.231</ele>
        <time>2018-08-10T13:42:35Z</time>
      </trkpt>
      <trkpt lat="46.30248" lon="10.55854">
        <ele>2095.924</ele>
        <time>2018-08-10T13:42:55Z</time>
      </trkpt>
      <trkpt lat="46.30245" lon="10.55855">
        <ele>2096.408</ele>
        <time>2018-08-10T13:43:15Z</time>
      </trkpt>
      <trkpt lat="46.30243" lon="10.55856">
        <ele>2096.831</ele>
        <time>2018-08-10T13:43:35Z</time>
      </trkpt>
      <trkpt lat="46.30241" lon="10.55855">
        <ele>2096.796</ele>
        <time>2018-08-10T13:43:55Z</time>
      </trkpt>
      <trkpt lat="46.30238" lon="10.55855">
        <ele>2096.472</ele>
        <time>2018-08-10T13:44:15Z</time>
      </trkpt>
      <trkpt lat="46.30236" lon="10.55854">
        <ele>2096.176</ele>
        <time>2018-08-10T13:44:35Z</time>
      </trkpt>
      <trkpt lat="46.30233" lon="10.55854">
        <ele>2095.721</ele>
        <time>2018-08-10T13:44:55Z</time>
      </trkpt>
      <trkpt lat="46.30231" lon="10.55853">
        <ele>2095.532</ele>
        <time>2018-08-10T13:45:15Z</time>
      </trkpt>
      <trkpt lat="46.30228" lon="10.55853">
        <ele>2095.289</ele>
        <time>2018-08-10T13:45:35Z</time>
      </trkpt>
      <trkpt lat="46.30226" lon="10.55853">
        <ele>2095.022</ele>
        <time>2018-08-10T13:45:55Z</time>
      </trkpt>
      <trkpt lat="46.30224" lon="10.55853">
        <ele>2095.058</ele>
        <time>2018-08-10T13:46:15Z</time>
      </trkpt>
      <trkpt lat="46.30221" lon="10.55852">
        <ele>2094.952</ele>
        <time>2018-08-10T13:46:35Z</time>
      </trkpt>
      <trkpt lat="46.30219" lon="10.55852">
        <ele>2095.017</ele>
        <time>2018-08-10T13:46:55Z</time>
      </trkpt>
      <trkpt lat="46.30216" lon="10.55852">
        <ele>2095.108</ele>
        <time>2018-08-10T13:47:15Z</time>
      </trkpt>
      <trkpt lat="46.30214" lon="10.55852">
        <ele>2095.477</ele>
        <time>2018-08-10T13:47:35Z</time>
      </trkpt>
      <trkpt lat="46.30212" lon="10.55852">
        <ele>2095.652</ele>
        <time>2018-08-10T13:47:55Z</time>
      </trkpt>
      <trkpt lat="46.30209" lon="10.55852">
        <ele>2095.948</ele>
        <time>2018-08-10T13:48:15Z</time>
      </trkpt>
      <trkpt lat="46.30207" lon="10.55852">
        <ele>2096.242</ele>
        <time>2018-08-10T13:48:35Z</time>
      </trkpt>
      <trkpt lat="46.30204" lon="10.55852">
        <ele>2096.547</ele>
        <time>2018-08-10T13:48:55Z</time>
      </trkpt>
      <trkpt lat="46.30201" lon="10.55853">
        <ele>2096.828</ele>
        <time>2018-08-10T13:49:15Z</time>
      </trkpt>
      <trkpt lat="46.30199" lon="10.55853">
        <ele>2097.425</ele>
        <time>2018-08-10T13:49:35Z</time>
      </trkpt>
      <trkpt lat="46.30196" lon="10.55854">
        <ele>2098.098</ele>
        <time>2018-08-10T13:49:55Z</time>
      </trkpt>
      <trkpt lat="46.30194" lon="10.55854">
        <ele>2098.523</ele>
        <time>2018-08-10T13:50:15Z</time>
      </trkpt>
      <trkpt lat="46.30191" lon="10.55855">
        <ele>2098.883</ele>
        <time>2018-08-10T13:50:35Z</time>
      </trkpt>
      <trkpt lat="46.30188" lon="10.55857">
        <ele>2099.411</ele>
        <time>2018-08-10T13:50:55Z</time>
      </trkpt>
      <trkpt lat="46.30186" lon="10.55858">
        <ele>2099.908</ele>
        <time>2018-08-10T13:51:15Z</time>
      </trkpt>
      <trkpt lat="46.30183" lon="10.55859">
        <ele>2100.514</ele>
        <time>2018-08-10T13:51:35Z</time>
      </trkpt>
      <trkpt lat="46.3018" lon="10.5586">
        <ele>2101.029</ele>
        <time>2018-08-10T13:51:55Z</time>
      </trkpt>
      <trkpt lat="46.30178" lon="10.55862">
        <ele>2101.445</ele>
        <time>2018-08-10T13:52:15Z</time>
      </trkpt>
      <trkpt lat="46.30174" lon="10.55863">
        <ele>2101.559</ele>
        <time>2018-08-10T13:52:35Z</time>
      </trkpt>
      <trkpt lat="46.30171" lon="10.55864">
        <ele>2101.554</ele>
        <time>2018-08-10T13:52:55Z</time>
      </trkpt>
      <trkpt lat="46.30168" lon="10.55864">
        <ele>2101.565</ele>
        <time>2018-08-10T13:53:15Z</time>
      </trkpt>
      <trkpt lat="46.30165" lon="10.55865">
        <ele>2101.462</ele>
        <time>2018-08-10T13:53:35Z</time>
      </trkpt>
      <trkpt lat="46.30162" lon="10.55865">
        <ele>2101.255</ele>
        <time>2018-08-10T13:53:55Z</time>
      </trkpt>
      <trkpt lat="46.3016" lon="10.55866">
        <ele>2101.153</ele>
        <time>2018-08-10T13:54:15Z</time>
      </trkpt>
      <trkpt lat="46.30157" lon="10.55866">
        <ele>2101.004</ele>
        <time>2018-08-10T13:54:35Z</time>
      </trkpt>
      <trkpt lat="46.30154" lon="10.55867">
        <ele>2101.014</ele>
        <time>2018-08-10T13:54:55Z</time>
      </trkpt>
      <trkpt lat="46.30151" lon="10.55868">
        <ele>2101.308</ele>
        <time>2018-08-10T13:55:15Z</time>
      </trkpt>
      <trkpt lat="46.30149" lon="10.55869">
        <ele>2101.857</ele>
        <time>2018-08-10T13:55:35Z</time>
      </trkpt>
      <trkpt lat="46.30146" lon="10.55871">
        <ele>2102.462</ele>
        <time>2018-08-10T13:55:55Z</time>
      </trkpt>
      <trkpt lat="46.30143" lon="10.55873">
        <ele>2103.098</ele>
        <time>2018-08-10T13:56:15Z</time>
      </trkpt>
      <trkpt lat="46.3014" lon="10.55875">
        <ele>2103.652</ele>
        <time>2018-08-10T13:56:35Z</time>
      </trkpt>
      <trkpt lat="46.30137" lon="10.55877">
        <ele>2104.267</ele>
        <time>2018-08-10T13:56:55Z</time>
      </trkpt>
      <trkpt lat="46.30134" lon="10.55878">
        <ele>2104.728</ele>
        <time>2018-08-10T13:57:15Z</time>
      </trkpt>
      <trkpt lat="46.30131" lon="10.55878">
        <ele>2104.845</ele>
        <time>2018-08-10T13:57:35Z</time>
      </trkpt>
      <trkpt lat="46.30129" lon="10.55878">
        <ele>2104.728</ele>
        <time>2018-08-10T13:57:55Z</time>
      </trkpt>
      <trkpt lat="46.30126" lon="10.55877">
        <ele>2104.582</ele>
        <time>2018-08-10T13:58:15Z</time>
      </trkpt>
      <trkpt lat="46.30123" lon="10.55876">
        <ele>2104.043</ele>
        <time>2018-08-10T13:58:35Z</time>
      </trkpt>
      <trkpt lat="46.30119" lon="10.55875">
        <ele>2103.517</ele>
        <time>2018-08-10T13:58:55Z</time>
      </trkpt>
      <trkpt lat="46.30116" lon="10.55874">
        <ele>2102.708</ele>
        <time>2018-08-10T13:59:15Z</time>
      </trkpt>
      <trkpt lat="46.30112" lon="10.55872">
        <ele>2102.06</ele>
        <time>2018-08-10T13:59:35Z</time>
      </trkpt>
      <trkpt lat="46.30109" lon="10.5587">
        <ele>2101.655</ele>
        <time>2018-08-10T13:59:55Z</time>
      </trkpt>
      <trkpt lat="46.30105" lon="10.55868">
        <ele>2101.451</ele>
        <time>2018-08-10T14:00:15Z</time>
      </trkpt>
      <trkpt lat="46.30102" lon="10.55867">
        <ele>2101.365</ele>
        <time>2018-08-10T14:00:35Z</time>
      </trkpt>
      <trkpt lat="46.30099" lon="10.55866">
        <ele>2101.38</ele>
        <time>2018-08-10T14:00:55Z</time>
      </trkpt>
      <trkpt lat="46.30096" lon="10.55865">
        <ele>2101.451</ele>
        <time>2018-08-10T14:01:15Z</time>
      </trkpt>
      <trkpt lat="46.30092" lon="10.55864">
        <ele>2101.618</ele>
        <time>2018-08-10T14:01:35Z</time>
      </trkpt>
      <trkpt lat="46.30089" lon="10.55863">
        <ele>2101.981</ele>
        <time>2018-08-10T14:01:55Z</time>
      </trkpt>
      <trkpt lat="46.30085" lon="10.55862">
        <ele>2102.139</ele>
        <time>2018-08-10T14:02:15Z</time>
      </trkpt>
      <trkpt lat="46.30081" lon="10.55861">
        <ele>2102.001</ele>
        <time>2018-08-10T14:02:35Z</time>
      </trkpt>
      <trkpt lat="46.30078" lon="10.55859">
        <ele>2101.621</ele>
        <time>2018-08-10T14:02:55Z</time>
      </trkpt>
      <trkpt lat="46.30074" lon="10.55857">
        <ele>2101.108</ele>
        <time>2018-08-10T14:03:15Z</time>
      </trkpt>
      <trkpt lat="46.3007" lon="10.55856">
        <ele>2100.625</ele>
        <time>2018-08-10T14:03:35Z</time>
      </trkpt>
      <trkpt lat="46.30067" lon="10.55854">
        <ele>2100.17</ele>
        <time>2018-08-10T14:03:55Z</time>
      </trkpt>
      <trkpt lat="46.30064" lon="10.55852">
        <ele>2099.946</ele>
        <time>2018-08-10T14:04:15Z</time>
      </trkpt>
      <trkpt lat="46.30062" lon="10.55852">
        <ele>2099.76</ele>
        <time>2018-08-10T14:04:35Z</time>
      </trkpt>
      <trkpt lat="46.30053" lon="10.55847">
        <ele>2098.725</ele>
        <time>2018-08-10T14:04:55Z</time>
      </trkpt>
      <trkpt lat="46.30051" lon="10.55846">
        <ele>2098.386</ele>
        <time>2018-08-10T14:05:15Z</time>
      </trkpt>
      <trkpt lat="46.30049" lon="10.55845">
        <ele>2098.113</ele>
        <time>2018-08-10T14:05:35Z</time>
      </trkpt>
      <trkpt lat="46.30047" lon="10.55844">
        <ele>2097.956</ele>
        <time>2018-08-10T14:05:55Z</time>
      </trkpt>
      <trkpt lat="46.30045" lon="10.55844">
        <ele>2097.766</ele>
        <time>2018-08-10T14:06:15Z</time>
      </trkpt>
      <trkpt lat="46.30042" lon="10.55843">
        <ele>2097.729</ele>
        <time>2018-08-10T14:06:35Z</time>
      </trkpt>
      <trkpt lat="46.3004" lon="10.55843">
        <ele>2098.021</ele>
        <time>2018-08-10T14:06:55Z</time>
      </trkpt>
      <trkpt lat="46.30038" lon="10.55844">
        <ele>2098.308</ele>
        <time>2018-08-10T14:07:15Z</time>
      </trkpt>
      <trkpt lat="46.30036" lon="10.55845">
        <ele>2099.078</ele>
        <time>2018-08-10T14:07:35Z</time>
      </trkpt>
      <trkpt lat="46.30035" lon="10.55846">
        <ele>2099.813</ele>
        <time>2018-08-10T14:07:55Z</time>
      </trkpt>
      <trkpt lat="46.30033" lon="10.55848">
        <ele>2100.769</ele>
        <time>2018-08-10T14:08:15Z</time>
      </trkpt>
      <trkpt lat="46.30031" lon="10.55849">
        <ele>2101.793</ele>
        <time>2018-08-10T14:08:35Z</time>
      </trkpt>
      <trkpt lat="46.3003" lon="10.55851">
        <ele>2102.768</ele>
        <time>2018-08-10T14:08:55Z</time>
      </trkpt>
      <trkpt lat="46.30028" lon="10.55853">
        <ele>2103.769</ele>
        <time>2018-08-10T14:09:15Z</time>
      </trkpt>
      <trkpt lat="46.30026" lon="10.55855">
        <ele>2104.516</ele>
        <time>2018-08-10T14:09:35Z</time>
      </trkpt>
      <trkpt lat="46.30024" lon="10.55856">
        <ele>2105.239</ele>
        <time>2018-08-10T14:09:55Z</time>
      </trkpt>
      <trkpt lat="46.30023" lon="10.55858">
        <ele>2105.987</ele>
        <time>2018-08-10T14:10:15Z</time>
      </trkpt>
      <trkpt lat="46.30021" lon="10.5586">
        <ele>2106.642</ele>
        <time>2018-08-10T14:10:35Z</time>
      </trkpt>
      <trkpt lat="46.30019" lon="10.55861">
        <ele>2107.326</ele>
        <time>2018-08-10T14:10:55Z</time>
      </trkpt>
      <trkpt lat="46.30017" lon="10.55862">
        <ele>2107.908</ele>
        <time>2018-08-10T14:11:15Z</time>
      </trkpt>
      <trkpt lat="46.30015" lon="10.55864">
        <ele>2108.41</ele>
        <time>2018-08-10T14:11:35Z</time>
      </trkpt>
      <trkpt lat="46.30013" lon="10.55865">
        <ele>2108.875</ele>
        <time>2018-08-10T14:11:55Z</time>
      </trkpt>
      <trkpt lat="46.30012" lon="10.55866">
        <ele>2109.261</ele>
        <time>2018-08-10T14:12:15Z</time>
      </trkpt>
      <trkpt lat="46.30009" lon="10.55867">
        <ele>2109.685</ele>
        <time>2018-08-10T14:12:35Z</time>
      </trkpt>
      <trkpt lat="46.30007" lon="10.55868">
        <ele>2109.95</ele>
        <time>2018-08-10T14:12:55Z</time>
      </trkpt>
      <trkpt lat="46.30005" lon="10.55869">
        <ele>2110.391</ele>
        <time>2018-08-10T14:13:15Z</time>
      </trkpt>
      <trkpt lat="46.30002" lon="10.5587">
        <ele>2110.648</ele>
        <time>2018-08-10T14:13:35Z</time>
      </trkpt>
      <trkpt lat="46.3" lon="10.55871">
        <ele>2110.911</ele>
        <time>2018-08-10T14:13:55Z</time>
      </trkpt>
      <trkpt lat="46.29997" lon="10.55872">
        <ele>2110.675</ele>
        <time>2018-08-10T14:14:15Z</time>
      </trkpt>
      <trkpt lat="46.29994" lon="10.55873">
        <ele>2110.228</ele>
        <time>2018-08-10T14:14:35Z</time>
      </trkpt>
      <trkpt lat="46.29991" lon="10.55874">
        <ele>2109.82</ele>
        <time>2018-08-10T14:14:55Z</time>
      </trkpt>
      <trkpt lat="46.29988" lon="10.55875">
        <ele>2109.308</ele>
        <time>2018-08-10T14:15:15Z</time>
      </trkpt>
      <trkpt lat="46.29985" lon="10.55876">
        <ele>2108.979</ele>
        <time>2018-08-10T14:15:35Z</time>
      </trkpt>
      <trkpt lat="46.29982" lon="10.55877">
        <ele>2108.484</ele>
        <time>2018-08-10T14:15:55Z</time>
      </trkpt>
      <trkpt lat="46.29979" lon="10.55878">
        <ele>2108.14</ele>
        <time>2018-08-10T14:16:15Z</time>
      </trkpt>
      <trkpt lat="46.29977" lon="10.55879">
        <ele>2107.974</ele>
        <time>2018-08-10T14:16:35Z</time>
      </trkpt>
      <trkpt lat="46.29974" lon="10.5588">
        <ele>2107.819</ele>
        <time>2018-08-10T14:16:55Z</time>
      </trkpt>
      <trkpt lat="46.29971" lon="10.55882">
        <ele>2108.02</ele>
        <time>2018-08-10T14:17:15Z</time>
      </trkpt>
      <trkpt lat="46.29969" lon="10.55884">
        <ele>2108.547</ele>
        <time>2018-08-10T14:17:35Z</time>
      </trkpt>
      <trkpt lat="46.29966" lon="10.55886">
        <ele>2109.08</ele>
        <time>2018-08-10T14:17:55Z</time>
      </trkpt>
      <trkpt lat="46.29964" lon="10.55887">
        <ele>2109.486</ele>
        <time>2018-08-10T14:18:15Z</time>
      </trkpt>
      <trkpt lat="46.29961" lon="10.55889">
        <ele>2109.86</ele>
        <time>2018-08-10T14:18:35Z</time>
      </trkpt>
      <trkpt lat="46.29958" lon="10.55891">
        <ele>2110.026</ele>
        <time>2018-08-10T14:18:55Z</time>
      </trkpt>
      <trkpt lat="46.29956" lon="10.55893">
        <ele>2110.108</ele>
        <time>2018-08-10T14:19:15Z</time>
      </trkpt>
      <trkpt lat="46.29953" lon="10.55894">
        <ele>2110.05</ele>
        <time>2018-08-10T14:19:35Z</time>
      </trkpt>
      <trkpt lat="46.2995" lon="10.55896">
        <ele>2109.945</ele>
        <time>2018-08-10T14:19:55Z</time>
      </trkpt>
      <trkpt lat="46.29947" lon="10.55898">
        <ele>2109.881</ele>
        <time>2018-08-10T14:20:15Z</time>
      </trkpt>
      <trkpt lat="46.29945" lon="10.55899">
        <ele>2109.615</ele>
        <time>2018-08-10T14:20:35Z</time>
      </trkpt>
      <trkpt lat="46.29942" lon="10.559">
        <ele>2109.74</ele>
        <time>2018-08-10T14:20:55Z</time>
      </trkpt>
      <trkpt lat="46.29939" lon="10.55902">
        <ele>2109.821</ele>
        <time>2018-08-10T14:21:15Z</time>
      </trkpt>
      <trkpt lat="46.29936" lon="10.55903">
        <ele>2110.078</ele>
        <time>2018-08-10T14:21:35Z</time>
      </trkpt>
      <trkpt lat="46.29933" lon="10.55905">
        <ele>2110.221</ele>
        <time>2018-08-10T14:21:55Z</time>
      </trkpt>
      <trkpt lat="46.29931" lon="10.55906">
        <ele>2110.224</ele>
        <time>2018-08-10T14:22:15Z</time>
      </trkpt>
      <trkpt lat="46.29929" lon="10.55907">
        <ele>2110.204</ele>
        <time>2018-08-10T14:22:35Z</time>
      </trkpt>
      <trkpt lat="46.29926" lon="10.55908">
        <ele>2110.314</ele>
        <time>2018-08-10T14:22:55Z</time>
      </trkpt>
      <trkpt lat="46.29924" lon="10.5591">
        <ele>2110.608</ele>
        <time>2018-08-10T14:23:15Z</time>
      </trkpt>
      <trkpt lat="46.29922" lon="10.55911">
        <ele>2110.954</ele>
        <time>2018-08-10T14:23:35Z</time>
      </trkpt>
      <trkpt lat="46.29919" lon="10.55913">
        <ele>2111.299</ele>
        <time>2018-08-10T14:23:55Z</time>
      </trkpt>
      <trkpt lat="46.29917" lon="10.55916">
        <ele>2111.645</ele>
        <time>2018-08-10T14:24:15Z</time>
      </trkpt>
      <trkpt lat="46.29915" lon="10.55918">
        <ele>2112.399</ele>
        <time>2018-08-10T14:24:35Z</time>
      </trkpt>
      <trkpt lat="46.29913" lon="10.5592">
        <ele>2113.074</ele>
        <time>2018-08-10T14:24:55Z</time>
      </trkpt>
      <trkpt lat="46.29911" lon="10.55923">
        <ele>2113.825</ele>
        <time>2018-08-10T14:25:15Z</time>
      </trkpt>
      <trkpt lat="46.29909" lon="10.55925">
        <ele>2114.572</ele>
        <time>2018-08-10T14:25:35Z</time>
      </trkpt>
      <trkpt lat="46.29907" lon="10.55927">
        <ele>2115.395</ele>
        <time>2018-08-10T14:25:55Z</time>
      </trkpt>
      <trkpt lat="46.29905" lon="10.5593">
        <ele>2116.353</ele>
        <time>2018-08-10T14:26:15Z</time>
      </trkpt>
      <trkpt lat="46.29903" lon="10.55933">
        <ele>2117.304</ele>
        <time>2018-08-10T14:26:35Z</time>
      </trkpt>
      <trkpt lat="46.29901" lon="10.55936">
        <ele>2118.314</ele>
        <time>2018-08-10T14:26:55Z</time>
      </trkpt>
      <trkpt lat="46.29899" lon="10.55938">
        <ele>2119.408</ele>
        <time>2018-08-10T14:27:15Z</time>
      </trkpt>
      <trkpt lat="46.29897" lon="10.55941">
        <ele>2120.417</ele>
        <time>2018-08-10T14:27:35Z</time>
      </trkpt>
      <trkpt lat="46.29896" lon="10.55944">
        <ele>2121.522</ele>
        <time>2018-08-10T14:27:55Z</time>
      </trkpt>
      <trkpt lat="46.29894" lon="10.55947">
        <ele>2123.278</ele>
        <time>2018-08-10T14:28:15Z</time>
      </trkpt>
      <trkpt lat="46.29892" lon="10.55951">
        <ele>2124.892</ele>
        <time>2018-08-10T14:28:35Z</time>
      </trkpt>
      <trkpt lat="46.2989" lon="10.55954">
        <ele>2126.387</ele>
        <time>2018-08-10T14:28:55Z</time>
      </trkpt>
      <trkpt lat="46.29887" lon="10.55956">
        <ele>2127.598</ele>
        <time>2018-08-10T14:29:15Z</time>
      </trkpt>
      <trkpt lat="46.29885" lon="10.55958">
        <ele>2128.685</ele>
        <time>2018-08-10T14:29:35Z</time>
      </trkpt>
      <trkpt lat="46.29883" lon="10.55959">
        <ele>2129.428</ele>
        <time>2018-08-10T14:29:55Z</time>
      </trkpt>
      <trkpt lat="46.2988" lon="10.5596">
        <ele>2130.268</ele>
        <time>2018-08-10T14:30:15Z</time>
      </trkpt>
      <trkpt lat="46.29878" lon="10.55961">
        <ele>2130.842</ele>
        <time>2018-08-10T14:30:35Z</time>
      </trkpt>
      <trkpt lat="46.29876" lon="10.55962">
        <ele>2131.226</ele>
        <time>2018-08-10T14:30:55Z</time>
      </trkpt>
      <trkpt lat="46.29874" lon="10.55962">
        <ele>2131.608</ele>
        <time>2018-08-10T14:31:15Z</time>
      </trkpt>
      <trkpt lat="46.29872" lon="10.55962">
        <ele>2131.788</ele>
        <time>2018-08-10T14:31:35Z</time>
      </trkpt>
      <trkpt lat="46.29868" lon="10.55962">
        <ele>2132.143</ele>
        <time>2018-08-10T14:31:55Z</time>
      </trkpt>
      <trkpt lat="46.29866" lon="10.55962">
        <ele>2132.159</ele>
        <time>2018-08-10T14:32:15Z</time>
      </trkpt>
      <trkpt lat="46.29864" lon="10.55961">
        <ele>2132.023</ele>
        <time>2018-08-10T14:32:35Z</time>
      </trkpt>
      <trkpt lat="46.29862" lon="10.55961">
        <ele>2131.868</ele>
        <time>2018-08-10T14:32:55Z</time>
      </trkpt>
      <trkpt lat="46.2986" lon="10.5596">
        <ele>2131.689</ele>
        <time>2018-08-10T14:33:15Z</time>
      </trkpt>
      <trkpt lat="46.29858" lon="10.55959">
        <ele>2131.376</ele>
        <time>2018-08-10T14:33:35Z</time>
      </trkpt>
      <trkpt lat="46.29856" lon="10.55958">
        <ele>2130.869</ele>
        <time>2018-08-10T14:33:55Z</time>
      </trkpt>
      <trkpt lat="46.29854" lon="10.55956">
        <ele>2130.349</ele>
        <time>2018-08-10T14:34:15Z</time>
      </trkpt>
      <trkpt lat="46.29852" lon="10.55955">
        <ele>2129.802</ele>
        <time>2018-08-10T14:34:35Z</time>
      </trkpt>
      <trkpt lat="46.2985" lon="10.55954">
        <ele>2129.322</ele>
        <time>2018-08-10T14:34:55Z</time>
      </trkpt>
      <trkpt lat="46.29848" lon="10.55953">
        <ele>2128.908</ele>
        <time>2018-08-10T14:35:15Z</time>
      </trkpt>
      <trkpt lat="46.29846" lon="10.55952">
        <ele>2128.556</ele>
        <time>2018-08-10T14:35:35Z</time>
      </trkpt>
      <trkpt lat="46.29843" lon="10.55951">
        <ele>2128.281</ele>
        <time>2018-08-10T14:35:55Z</time>
      </trkpt>
      <trkpt lat="46.29841" lon="10.5595">
        <ele>2128.037</ele>
        <time>2018-08-10T14:36:15Z</time>
      </trkpt>
      <trkpt lat="46.29839" lon="10.5595">
        <ele>2127.881</ele>
        <time>2018-08-10T14:36:35Z</time>
      </trkpt>
      <trkpt lat="46.29837" lon="10.5595">
        <ele>2127.836</ele>
        <time>2018-08-10T14:36:55Z</time>
      </trkpt>
      <trkpt lat="46.29835" lon="10.5595">
        <ele>2127.897</ele>
        <time>2018-08-10T14:37:15Z</time>
      </trkpt>
      <trkpt lat="46.29832" lon="10.5595">
        <ele>2128.224</ele>
        <time>2018-08-10T14:37:35Z</time>
      </trkpt>
      <trkpt lat="46.2983" lon="10.5595">
        <ele>2129.237</ele>
        <time>2018-08-10T14:37:55Z</time>
      </trkpt>
      <trkpt lat="46.29827" lon="10.55951">
        <ele>2130.281</ele>
        <time>2018-08-10T14:38:15Z</time>
      </trkpt>
      <trkpt lat="46.29825" lon="10.55951">
        <ele>2131.161</ele>
        <time>2018-08-10T14:38:35Z</time>
      </trkpt>
      <trkpt lat="46.29822" lon="10.55951">
        <ele>2132.117</ele>
        <time>2018-08-10T14:38:55Z</time>
      </trkpt>
      <trkpt lat="46.29819" lon="10.55951">
        <ele>2132.808</ele>
        <time>2018-08-10T14:39:15Z</time>
      </trkpt>
      <trkpt lat="46.29817" lon="10.55951">
        <ele>2133.33</ele>
        <time>2018-08-10T14:39:35Z</time>
      </trkpt>
      <trkpt lat="46.29814" lon="10.5595">
        <ele>2133.855</ele>
        <time>2018-08-10T14:39:55Z</time>
      </trkpt>
      <trkpt lat="46.29812" lon="10.55949">
        <ele>2134.281</ele>
        <time>2018-08-10T14:40:15Z</time>
      </trkpt>
      <trkpt lat="46.2981" lon="10.55949">
        <ele>2134.715</ele>
        <time>2018-08-10T14:40:35Z</time>
      </trkpt>
      <trkpt lat="46.29807" lon="10.55948">
        <ele>2135.08</ele>
        <time>2018-08-10T14:40:55Z</time>
      </trkpt>
      <trkpt lat="46.29805" lon="10.55947">
        <ele>2135.481</ele>
        <time>2018-08-10T14:41:15Z</time>
      </trkpt>
      <trkpt lat="46.29802" lon="10.55946">
        <ele>2135.548</ele>
        <time>2018-08-10T14:41:35Z</time>
      </trkpt>
      <trkpt lat="46.29799" lon="10.55945">
        <ele>2135.641</ele>
        <time>2018-08-10T14:41:55Z</time>
      </trkpt>
      <trkpt lat="46.29797" lon="10.55944">
        <ele>2135.766</ele>
        <time>2018-08-10T14:42:15Z</time>
      </trkpt>
      <trkpt lat="46.29794" lon="10.55942">
        <ele>2135.929</ele>
        <time>2018-08-10T14:42:35Z</time>
      </trkpt>
      <trkpt lat="46.29792" lon="10.55941">
        <ele>2136.121</ele>
        <time>2018-08-10T14:42:55Z</time>
      </trkpt>
      <trkpt lat="46.29789" lon="10.5594">
        <ele>2136.408</ele>
        <time>2018-08-10T14:43:15Z</time>
      </trkpt>
      <trkpt lat="46.29786" lon="10.55939">
        <ele>2136.828</ele>
        <time>2018-08-10T14:43:35Z</time>
      </trkpt>
      <trkpt lat="46.29784" lon="10.55939">
        <ele>2137.393</ele>
        <time>2018-08-10T14:43:55Z</time>
      </trkpt>
      <trkpt lat="46.29781" lon="10.55938">
        <ele>2137.739</ele>
        <time>2018-08-10T14:44:15Z</time>
      </trkpt>
      <trkpt lat="46.29779" lon="10.55937">
        <ele>2138.173</ele>
        <time>2018-08-10T14:44:35Z</time>
      </trkpt>
      <trkpt lat="46.29777" lon="10.55937">
        <ele>2138.628</ele>
        <time>2018-08-10T14:44:55Z</time>
      </trkpt>
      <trkpt lat="46.29775" lon="10.55936">
        <ele>2139.229</ele>
        <time>2018-08-10T14:45:15Z</time>
      </trkpt>
      <trkpt lat="46.29772" lon="10.55935">
        <ele>2139.896</ele>
        <time>2018-08-10T14:45:35Z</time>
      </trkpt>
      <trkpt lat="46.2977" lon="10.55934">
        <ele>2140.369</ele>
        <time>2018-08-10T14:45:55Z</time>
      </trkpt>
      <trkpt lat="46.29767" lon="10.55933">
        <ele>2140.723</ele>
        <time>2018-08-10T14:46:15Z</time>
      </trkpt>
      <trkpt lat="46.29765" lon="10.55931">
        <ele>2140.883</ele>
        <time>2018-08-10T14:46:35Z</time>
      </trkpt>
      <trkpt lat="46.29763" lon="10.55929">
        <ele>2140.911</ele>
        <time>2018-08-10T14:46:55Z</time>
      </trkpt>
      <trkpt lat="46.29761" lon="10.55927">
        <ele>2140.708</ele>
        <time>2018-08-10T14:47:15Z</time>
      </trkpt>
      <trkpt lat="46.29759" lon="10.55925">
        <ele>2140.474</ele>
        <time>2018-08-10T14:47:35Z</time>
      </trkpt>
      <trkpt lat="46.29757" lon="10.55923">
        <ele>2140.149</ele>
        <time>2018-08-10T14:47:55Z</time>
      </trkpt>
      <trkpt lat="46.29755" lon="10.5592">
        <ele>2139.825</ele>
        <time>2018-08-10T14:48:15Z</time>
      </trkpt>
      <trkpt lat="46.29752" lon="10.55917">
        <ele>2139.529</ele>
        <time>2018-08-10T14:48:35Z</time>
      </trkpt>
      <trkpt lat="46.2975" lon="10.55915">
        <ele>2139.454</ele>
        <time>2018-08-10T14:48:55Z</time>
      </trkpt>
      <trkpt lat="46.29747" lon="10.55913">
        <ele>2139.475</ele>
        <time>2018-08-10T14:49:15Z</time>
      </trkpt>
      <trkpt lat="46.29744" lon="10.55912">
        <ele>2139.662</ele>
        <time>2018-08-10T14:49:35Z</time>
      </trkpt>
      <trkpt lat="46.29741" lon="10.55911">
        <ele>2139.815</ele>
        <time>2018-08-10T14:49:55Z</time>
      </trkpt>
      <trkpt lat="46.29739" lon="10.5591">
        <ele>2140.149</ele>
        <time>2018-08-10T14:50:15Z</time>
      </trkpt>
      <trkpt lat="46.29736" lon="10.55909">
        <ele>2140.402</ele>
        <time>2018-08-10T14:50:35Z</time>
      </trkpt>
      <trkpt lat="46.29733" lon="10.55908">
        <ele>2140.822</ele>
        <time>2018-08-10T14:50:55Z</time>
      </trkpt>
      <trkpt lat="46.2973" lon="10.55907">
        <ele>2141.308</ele>
        <time>2018-08-10T14:51:15Z</time>
      </trkpt>
      <trkpt lat="46.29727" lon="10.55907">
        <ele>2141.816</ele>
        <time>2018-08-10T14:51:35Z</time>
      </trkpt>
      <trkpt lat="46.29724" lon="10.55907">
        <ele>2142.651</ele>
        <time>2018-08-10T14:51:55Z</time>
      </trkpt>
      <trkpt lat="46.2972" lon="10.55907">
        <ele>2143.197</ele>
        <time>2018-08-10T14:52:15Z</time>
      </trkpt>
      <trkpt lat="46.29717" lon="10.55907">
        <ele>2143.141</ele>
        <time>2018-08-10T14:52:35Z</time>
      </trkpt>
      <trkpt lat="46.29714" lon="10.55907">
        <ele>2143.166</ele>
        <time>2018-08-10T14:52:55Z</time>
      </trkpt>
      <trkpt lat="46.29711" lon="10.55907">
        <ele>2143.027</ele>
        <time>2018-08-10T14:53:15Z</time>
      </trkpt>
      <trkpt lat="46.29709" lon="10.55907">
        <ele>2142.974</ele>
        <time>2018-08-10T14:53:35Z</time>
      </trkpt>
      <trkpt lat="46.29706" lon="10.55907">
        <ele>2142.847</ele>
        <time>2018-08-10T14:53:55Z</time>
      </trkpt>
      <trkpt lat="46.29703" lon="10.55907">
        <ele>2142.859</ele>
        <time>2018-08-10T14:54:15Z</time>
      </trkpt>
      <trkpt lat="46.29701" lon="10.55907">
        <ele>2142.603</ele>
        <time>2018-08-10T14:54:35Z</time>
      </trkpt>
      <trkpt lat="46.29698" lon="10.55907">
        <ele>2142.623</ele>
        <time>2018-08-10T14:54:55Z</time>
      </trkpt>
      <trkpt lat="46.29695" lon="10.55907">
        <ele>2142.608</ele>
        <time>2018-08-10T14:55:15Z</time>
      </trkpt>
      <trkpt lat="46.29693" lon="10.55907">
        <ele>2143.077</ele>
        <time>2018-08-10T14:55:35Z</time>
      </trkpt>
      <trkpt lat="46.2969" lon="10.55908">
        <ele>2143.642</ele>
        <time>2018-08-10T14:55:55Z</time>
      </trkpt>
      <trkpt lat="46.29688" lon="10.55909">
        <ele>2144.238</ele>
        <time>2018-08-10T14:56:15Z</time>
      </trkpt>
      <trkpt lat="46.29685" lon="10.5591">
        <ele>2145.072</ele>
        <time>2018-08-10T14:56:35Z</time>
      </trkpt>
      <trkpt lat="46.29683" lon="10.55912">
        <ele>2145.977</ele>
        <time>2018-08-10T14:56:55Z</time>
      </trkpt>
      <trkpt lat="46.29681" lon="10.55913">
        <ele>2146.728</ele>
        <time>2018-08-10T14:57:15Z</time>
      </trkpt>
      <trkpt lat="46.29679" lon="10.55915">
        <ele>2148.015</ele>
        <time>2018-08-10T14:57:35Z</time>
      </trkpt>
      <trkpt lat="46.29679" lon="10.55918">
        <ele>2149.488</ele>
        <time>2018-08-10T14:57:55Z</time>
      </trkpt>
      <trkpt lat="46.29681" lon="10.55919">
        <ele>2149.656</ele>
        <time>2018-08-10T14:58:15Z</time>
      </trkpt>
      <trkpt lat="46.29685" lon="10.55919">
        <ele>2149.259</ele>
        <time>2018-08-10T14:58:35Z</time>
      </trkpt>
      <trkpt lat="46.29688" lon="10.55918">
        <ele>2148.414</ele>
        <time>2018-08-10T14:58:55Z</time>
      </trkpt>
      <trkpt lat="46.29691" lon="10.55918">
        <ele>2148.008</ele>
        <time>2018-08-10T14:59:15Z</time>
      </trkpt>
      <trkpt lat="46.29693" lon="10.55918">
        <ele>2147.687</ele>
        <time>2018-08-10T14:59:35Z</time>
      </trkpt>
      <trkpt lat="46.29695" lon="10.55918">
        <ele>2147.472</ele>
        <time>2018-08-10T14:59:55Z</time>
      </trkpt>
      <trkpt lat="46.29698" lon="10.55918">
        <ele>2147.698</ele>
        <time>2018-08-10T15:00:15Z</time>
      </trkpt>
      <trkpt lat="46.29701" lon="10.55919">
        <ele>2147.972</ele>
        <time>2018-08-10T15:00:35Z</time>
      </trkpt>
      <trkpt lat="46.29703" lon="10.55919">
        <ele>2148.257</ele>
        <time>2018-08-10T15:00:55Z</time>
      </trkpt>
      <trkpt lat="46.29706" lon="10.5592">
        <ele>2148.688</ele>
        <time>2018-08-10T15:01:15Z</time>
      </trkpt>
      <trkpt lat="46.29708" lon="10.55921">
        <ele>2149.095</ele>
        <time>2018-08-10T15:01:35Z</time>
      </trkpt>
      <trkpt lat="46.29711" lon="10.55922">
        <ele>2149.458</ele>
        <time>2018-08-10T15:01:55Z</time>
      </trkpt>
      <trkpt lat="46.29714" lon="10.55922">
        <ele>2149.748</ele>
        <time>2018-08-10T15:02:15Z</time>
      </trkpt>
      <trkpt lat="46.29716" lon="10.55923">
        <ele>2150.061</ele>
        <time>2018-08-10T15:02:35Z</time>
      </trkpt>
      <trkpt lat="46.29719" lon="10.55924">
        <ele>2150.217</ele>
        <time>2018-08-10T15:02:55Z</time>
      </trkpt>
      <trkpt lat="46.29722" lon="10.55924">
        <ele>2150.408</ele>
        <time>2018-08-10T15:03:15Z</time>
      </trkpt>
      <trkpt lat="46.29724" lon="10.55925">
        <ele>2150.226</ele>
        <time>2018-08-10T15:03:35Z</time>
      </trkpt>
      <trkpt lat="46.29727" lon="10.55926">
        <ele>2150.061</ele>
        <time>2018-08-10T15:03:55Z</time>
      </trkpt>
      <trkpt lat="46.29729" lon="10.55927">
        <ele>2149.987</ele>
        <time>2018-08-10T15:04:15Z</time>
      </trkpt>
      <trkpt lat="46.29731" lon="10.55928">
        <ele>2149.921</ele>
        <time>2018-08-10T15:04:35Z</time>
      </trkpt>
      <trkpt lat="46.29733" lon="10.5593">
        <ele>2150.016</ele>
        <time>2018-08-10T15:04:55Z</time>
      </trkpt>
      <trkpt lat="46.29736" lon="10.55932">
        <ele>2150.467</ele>
        <time>2018-08-10T15:05:15Z</time>
      </trkpt>
      <trkpt lat="46.29738" lon="10.55934">
        <ele>2150.874</ele>
        <time>2018-08-10T15:05:35Z</time>
      </trkpt>
      <trkpt lat="46.2974" lon="10.55937">
        <ele>2151.427</ele>
        <time>2018-08-10T15:05:55Z</time>
      </trkpt>
      <trkpt lat="46.29742" lon="10.55939">
        <ele>2152.119</ele>
        <time>2018-08-10T15:06:15Z</time>
      </trkpt>
      <trkpt lat="46.29743" lon="10.55942">
        <ele>2153.109</ele>
        <time>2018-08-10T15:06:35Z</time>
      </trkpt>
      <trkpt lat="46.29744" lon="10.55945">
        <ele>2153.919</ele>
        <time>2018-08-10T15:06:55Z</time>
      </trkpt>
      <trkpt lat="46.29745" lon="10.55948">
        <ele>2154.908</ele>
        <time>2018-08-10T15:07:15Z</time>
      </trkpt>
      <trkpt lat="46.29746" lon="10.55951">
        <ele>2156.053</ele>
        <time>2018-08-10T15:07:35Z</time>
      </trkpt>
      <trkpt lat="46.29747" lon="10.55954">
        <ele>2157.238</ele>
        <time>2018-08-10T15:07:55Z</time>
      </trkpt>
      <trkpt lat="46.29749" lon="10.55958">
        <ele>2158.534</ele>
        <time>2018-08-10T15:08:15Z</time>
      </trkpt>
      <trkpt lat="46.2975" lon="10.55961">
        <ele>2159.678</ele>
        <time>2018-08-10T15:08:35Z</time>
      </trkpt>
      <trkpt lat="46.29752" lon="10.55964">
        <ele>2160.413</ele>
        <time>2018-08-10T15:08:55Z</time>
      </trkpt>
      <trkpt lat="46.29754" lon="10.55967">
        <ele>2160.954</ele>
        <time>2018-08-10T15:09:15Z</time>
      </trkpt>
      <trkpt lat="46.29756" lon="10.55969">
        <ele>2161.171</ele>
        <time>2018-08-10T15:09:35Z</time>
      </trkpt>
      <trkpt lat="46.29759" lon="10.55971">
        <ele>2161.084</ele>
        <time>2018-08-10T15:09:55Z</time>
      </trkpt>
      <trkpt lat="46.29761" lon="10.55972">
        <ele>2160.664</ele>
        <time>2018-08-10T15:10:15Z</time>
      </trkpt>
      <trkpt lat="46.29763" lon="10.55973">
        <ele>2160.106</ele>
        <time>2018-08-10T15:10:35Z</time>
      </trkpt>
      <trkpt lat="46.29766" lon="10.55975">
        <ele>2159.816</ele>
        <time>2018-08-10T15:10:55Z</time>
      </trkpt>
      <trkpt lat="46.29768" lon="10.55977">
        <ele>2159.608</ele>
        <time>2018-08-10T15:11:15Z</time>
      </trkpt>
      <trkpt lat="46.2977" lon="10.55979">
        <ele>2159.688</ele>
        <time>2018-08-10T15:11:35Z</time>
      </trkpt>
      <trkpt lat="46.29772" lon="10.55982">
        <ele>2159.863</ele>
        <time>2018-08-10T15:11:55Z</time>
      </trkpt>
      <trkpt lat="46.29774" lon="10.55984">
        <ele>2160.019</ele>
        <time>2018-08-10T15:12:15Z</time>
      </trkpt>
      <trkpt lat="46.29775" lon="10.55987">
        <ele>2160.213</ele>
        <time>2018-08-10T15:12:35Z</time>
      </trkpt>
      <trkpt lat="46.29777" lon="10.55989">
        <ele>2160.158</ele>
        <time>2018-08-10T15:12:55Z</time>
      </trkpt>
      <trkpt lat="46.29779" lon="10.55991">
        <ele>2160.489</ele>
        <time>2018-08-10T15:13:15Z</time>
      </trkpt>
      <trkpt lat="46.29781" lon="10.55993">
        <ele>2160.636</ele>
        <time>2018-08-10T15:13:35Z</time>
      </trkpt>
      <trkpt lat="46.29784" lon="10.55994">
        <ele>2160.769</ele>
        <time>2018-08-10T15:13:55Z</time>
      </trkpt>
      <trkpt lat="46.29787" lon="10.55995">
        <ele>2160.655</ele>
        <time>2018-08-10T15:14:15Z</time>
      </trkpt>
      <trkpt lat="46.2979" lon="10.55996">
        <ele>2160.407</ele>
        <time>2018-08-10T15:14:35Z</time>
      </trkpt>
      <trkpt lat="46.29793" lon="10.55996">
        <ele>2160.217</ele>
        <time>2018-08-10T15:14:55Z</time>
      </trkpt>
      <trkpt lat="46.29796" lon="10.55997">
        <ele>2160.008</ele>
        <time>2018-08-10T15:15:15Z</time>
      </trkpt>
      <trkpt lat="46.29798" lon="10.55998">
        <ele>2160.057</ele>
        <time>2018-08-10T15:15:35Z</time>
      </trkpt>
      <trkpt lat="46.29801" lon="10.55999">
        <ele>2160.052</ele>
        <time>2018-08-10T15:15:55Z</time>
      </trkpt>
      <trkpt lat="46.29804" lon="10.55999">
        <ele>2159.948</ele>
        <time>2018-08-10T15:16:15Z</time>
      </trkpt>
      <trkpt lat="46.29806" lon="10.56">
        <ele>2159.882</ele>
        <time>2018-08-10T15:16:35Z</time>
      </trkpt>
      <trkpt lat="46.29809" lon="10.56001">
        <ele>2159.487</ele>
        <time>2018-08-10T15:16:55Z</time>
      </trkpt>
      <trkpt lat="46.29812" lon="10.56002">
        <ele>2158.928</ele>
        <time>2018-08-10T15:17:15Z</time>
      </trkpt>
      <trkpt lat="46.29814" lon="10.56003">
        <ele>2158.895</ele>
        <time>2018-08-10T15:17:35Z</time>
      </trkpt>
      <trkpt lat="46.29817" lon="10.56005">
        <ele>2158.748</ele>
        <time>2018-08-10T15:17:55Z</time>
      </trkpt>
      <trkpt lat="46.29819" lon="10.56006">
        <ele>2158.762</ele>
        <time>2018-08-10T15:18:15Z</time>
      </trkpt>
      <trkpt lat="46.2983" lon="10.56009">
        <ele>2157.483</ele>
        <time>2018-08-10T15:18:35Z</time>
      </trkpt>
      <trkpt lat="46.29832" lon="10.56012">
        <ele>2158.411</ele>
        <time>2018-08-10T15:18:55Z</time>
      </trkpt>
      <trkpt lat="46.29834" lon="10.56014">
        <ele>2158.908</ele>
        <time>2018-08-10T15:19:15Z</time>
      </trkpt>
      <trkpt lat="46.29836" lon="10.56016">
        <ele>2159.588</ele>
        <time>2018-08-10T15:19:35Z</time>
      </trkpt>
      <trkpt lat="46.29838" lon="10.56018">
        <ele>2160.323</ele>
        <time>2018-08-10T15:19:55Z</time>
      </trkpt>
      <trkpt lat="46.2984" lon="10.56021">
        <ele>2161.089</ele>
        <time>2018-08-10T15:20:15Z</time>
      </trkpt>
      <trkpt lat="46.29841" lon="10.56023">
        <ele>2161.643</ele>
        <time>2018-08-10T15:20:35Z</time>
      </trkpt>
      <trkpt lat="46.29843" lon="10.56025">
        <ele>2162.368</ele>
        <time>2018-08-10T15:20:55Z</time>
      </trkpt>
      <trkpt lat="46.29845" lon="10.56027">
        <ele>2163.039</ele>
        <time>2018-08-10T15:21:15Z</time>
      </trkpt>
      <trkpt lat="46.29846" lon="10.56029">
        <ele>2163.766</ele>
        <time>2018-08-10T15:21:35Z</time>
      </trkpt>
      <trkpt lat="46.29848" lon="10.56031">
        <ele>2164.469</ele>
        <time>2018-08-10T15:21:55Z</time>
      </trkpt>
      <trkpt lat="46.2985" lon="10.56034">
        <ele>2165.157</ele>
        <time>2018-08-10T15:22:15Z</time>
      </trkpt>
      <trkpt lat="46.29851" lon="10.56037">
        <ele>2166</ele>
        <time>2018-08-10T15:22:35Z</time>
      </trkpt>
      <trkpt lat="46.29853" lon="10.56039">
        <ele>2166.72</ele>
        <time>2018-08-10T15:22:55Z</time>
      </trkpt>
      <trkpt lat="46.29855" lon="10.56042">
        <ele>2167.508</ele>
        <time>2018-08-10T15:23:15Z</time>
      </trkpt>
      <trkpt lat="46.29857" lon="10.56045">
        <ele>2168.427</ele>
        <time>2018-08-10T15:23:35Z</time>
      </trkpt>
      <trkpt lat="46.29859" lon="10.56048">
        <ele>2169.252</ele>
        <time>2018-08-10T15:23:55Z</time>
      </trkpt>
      <trkpt lat="46.2986" lon="10.5605">
        <ele>2169.828</ele>
        <time>2018-08-10T15:24:15Z</time>
      </trkpt>
      <trkpt lat="46.29862" lon="10.56052">
        <ele>2170.662</ele>
        <time>2018-08-10T15:24:35Z</time>
      </trkpt>
      <trkpt lat="46.29864" lon="10.56054">
        <ele>2171.697</ele>
        <time>2018-08-10T15:24:55Z</time>
      </trkpt>
      <trkpt lat="46.29866" lon="10.56056">
        <ele>2172.628</ele>
        <time>2018-08-10T15:25:15Z</time>
      </trkpt>
      <trkpt lat="46.29868" lon="10.56057">
        <ele>2173.535</ele>
        <time>2018-08-10T15:25:35Z</time>
      </trkpt>
      <trkpt lat="46.29871" lon="10.56058">
        <ele>2174.218</ele>
        <time>2018-08-10T15:25:55Z</time>
      </trkpt>
      <trkpt lat="46.29873" lon="10.56058">
        <ele>2174.643</ele>
        <time>2018-08-10T15:26:15Z</time>
      </trkpt>
      <trkpt lat="46.29876" lon="10.56058">
        <ele>2175.064</ele>
        <time>2018-08-10T15:26:35Z</time>
      </trkpt>
      <trkpt lat="46.29879" lon="10.56059">
        <ele>2175.51</ele>
        <time>2018-08-10T15:26:55Z</time>
      </trkpt>
      <trkpt lat="46.29882" lon="10.56059">
        <ele>2176.008</ele>
        <time>2018-08-10T15:27:15Z</time>
      </trkpt>
      <trkpt lat="46.29885" lon="10.56059">
        <ele>2176.556</ele>
        <time>2018-08-10T15:27:35Z</time>
      </trkpt>
      <trkpt lat="46.29888" lon="10.5606">
        <ele>2177.261</ele>
        <time>2018-08-10T15:27:55Z</time>
      </trkpt>
      <trkpt lat="46.29891" lon="10.5606">
        <ele>2177.387</ele>
        <time>2018-08-10T15:28:15Z</time>
      </trkpt>
      <trkpt lat="46.29893" lon="10.56061">
        <ele>2177.361</ele>
        <time>2018-08-10T15:28:35Z</time>
      </trkpt>
      <trkpt lat="46.29895" lon="10.56061">
        <ele>2177.036</ele>
        <time>2018-08-10T15:28:55Z</time>
      </trkpt>
      <trkpt lat="46.29898" lon="10.56061">
        <ele>2176.737</ele>
        <time>2018-08-10T15:29:15Z</time>
      </trkpt>
      <trkpt lat="46.29901" lon="10.5606">
        <ele>2176.194</ele>
        <time>2018-08-10T15:29:35Z</time>
      </trkpt>
      <trkpt lat="46.29903" lon="10.56061">
        <ele>2176.177</ele>
        <time>2018-08-10T15:29:55Z</time>
      </trkpt>
      <trkpt lat="46.29906" lon="10.56061">
        <ele>2176.124</ele>
        <time>2018-08-10T15:30:15Z</time>
      </trkpt>
      <trkpt lat="46.29909" lon="10.56062">
        <ele>2176.104</ele>
        <time>2018-08-10T15:30:35Z</time>
      </trkpt>
      <trkpt lat="46.29911" lon="10.56062">
        <ele>2176.214</ele>
        <time>2018-08-10T15:30:55Z</time>
      </trkpt>
      <trkpt lat="46.2994" lon="10.5607">
        <ele>2178.808</ele>
        <time>2018-08-10T15:31:15Z</time>
      </trkpt>
      <trkpt lat="46.29943" lon="10.5607">
        <ele>2178.984</ele>
        <time>2018-08-10T15:31:35Z</time>
      </trkpt>
      <trkpt lat="46.29945" lon="10.5607">
        <ele>2179.179</ele>
        <time>2018-08-10T15:31:55Z</time>
      </trkpt>
      <trkpt lat="46.29948" lon="10.56071">
        <ele>2179.965</ele>
        <time>2018-08-10T15:32:15Z</time>
      </trkpt>
      <trkpt lat="46.29951" lon="10.56071">
        <ele>2180.639</ele>
        <time>2018-08-10T15:32:35Z</time>
      </trkpt>
      <trkpt lat="46.29979" lon="10.56073">
        <ele>2189.014</ele>
        <time>2018-08-10T15:32:55Z</time>
      </trkpt>
      <trkpt lat="46.29982" lon="10.56073">
        <ele>2189.675</ele>
        <time>2018-08-10T15:33:15Z</time>
      </trkpt>
      <trkpt lat="46.29985" lon="10.56073">
        <ele>2190.232</ele>
        <time>2018-08-10T15:33:35Z</time>
      </trkpt>
      <trkpt lat="46.29988" lon="10.56072">
        <ele>2190.635</ele>
        <time>2018-08-10T15:33:55Z</time>
      </trkpt>
      <trkpt lat="46.2999" lon="10.56071">
        <ele>2190.964</ele>
        <time>2018-08-10T15:34:15Z</time>
      </trkpt>
      <trkpt lat="46.29993" lon="10.56069">
        <ele>2191.106</ele>
        <time>2018-08-10T15:34:35Z</time>
      </trkpt>
      <trkpt lat="46.29995" lon="10.56067">
        <ele>2191.116</ele>
        <time>2018-08-10T15:34:55Z</time>
      </trkpt>
      <trkpt lat="46.30006" lon="10.5605">
        <ele>2188.108</ele>
        <time>2018-08-10T15:35:15Z</time>
      </trkpt>
      <trkpt lat="46.30007" lon="10.56046">
        <ele>2187.528</ele>
        <time>2018-08-10T15:35:35Z</time>
      </trkpt>
      <trkpt lat="46.30009" lon="10.56044">
        <ele>2187.053</ele>
        <time>2018-08-10T15:35:55Z</time>
      </trkpt>
      <trkpt lat="46.30011" lon="10.56041">
        <ele>2186.779</ele>
        <time>2018-08-10T15:36:15Z</time>
      </trkpt>
      <trkpt lat="46.30013" lon="10.56039">
        <ele>2186.593</ele>
        <time>2018-08-10T15:36:35Z</time>
      </trkpt>
      <trkpt lat="46.30015" lon="10.56038">
        <ele>2186.388</ele>
        <time>2018-08-10T15:36:55Z</time>
      </trkpt>
      <trkpt lat="46.30017" lon="10.56036">
        <ele>2186.359</ele>
        <time>2018-08-10T15:37:15Z</time>
      </trkpt>
      <trkpt lat="46.30019" lon="10.56035">
        <ele>2186.476</ele>
        <time>2018-08-10T15:37:35Z</time>
      </trkpt>
      <trkpt lat="46.30044" lon="10.56039">
        <ele>2187.239</ele>
        <time>2018-08-10T15:37:55Z</time>
      </trkpt>
      <trkpt lat="46.30046" lon="10.5604">
        <ele>2187.394</ele>
        <time>2018-08-10T15:38:15Z</time>
      </trkpt>
      <trkpt lat="46.30048" lon="10.56041">
        <ele>2187.457</ele>
        <time>2018-08-10T15:38:35Z</time>
      </trkpt>
      <trkpt lat="46.3005" lon="10.56043">
        <ele>2187.522</ele>
        <time>2018-08-10T15:38:55Z</time>
      </trkpt>
      <trkpt lat="46.30052" lon="10.56044">
        <ele>2187.608</ele>
        <time>2018-08-10T15:39:15Z</time>
      </trkpt>
      <trkpt lat="46.30055" lon="10.56045">
        <ele>2187.771</ele>
        <time>2018-08-10T15:39:35Z</time>
      </trkpt>
      <trkpt lat="46.30057" lon="10.56046">
        <ele>2187.746</ele>
        <time>2018-08-10T15:39:55Z</time>
      </trkpt>
      <trkpt lat="46.3006" lon="10.56047">
        <ele>2187.892</ele>
        <time>2018-08-10T15:40:15Z</time>
      </trkpt>
      <trkpt lat="46.30062" lon="10.56048">
        <ele>2187.946</ele>
        <time>2018-08-10T15:40:35Z</time>
      </trkpt>
      <trkpt lat="46.30065" lon="10.56049">
        <ele>2188.131</ele>
        <time>2018-08-10T15:40:55Z</time>
      </trkpt>
      <trkpt lat="46.30067" lon="10.56051">
        <ele>2188.432</ele>
        <time>2018-08-10T15:41:15Z</time>
      </trkpt>
      <trkpt lat="46.30069" lon="10.56053">
        <ele>2188.819</ele>
        <time>2018-08-10T15:41:35Z</time>
      </trkpt>
      <trkpt lat="46.30072" lon="10.56055">
        <ele>2189.182</ele>
        <time>2018-08-10T15:41:55Z</time>
      </trkpt>
      <trkpt lat="46.30074" lon="10.56056">
        <ele>2189.482</ele>
        <time>2018-08-10T15:42:15Z</time>
      </trkpt>
      <trkpt lat="46.30077" lon="10.56058">
        <ele>2189.743</ele>
        <time>2018-08-10T15:42:35Z</time>
      </trkpt>
      <trkpt lat="46.3008" lon="10.56059">
        <ele>2189.917</ele>
        <time>2018-08-10T15:42:55Z</time>
      </trkpt>
      <trkpt lat="46.30082" lon="10.5606">
        <ele>2190.108</ele>
        <time>2018-08-10T15:43:15Z</time>
      </trkpt>
      <trkpt lat="46.30085" lon="10.56061">
        <ele>2190.47</ele>
        <time>2018-08-10T15:43:35Z</time>
      </trkpt>
      <trkpt lat="46.30087" lon="10.56063">
        <ele>2190.625</ele>
        <time>2018-08-10T15:43:55Z</time>
      </trkpt>
      <trkpt lat="46.3009" lon="10.56065">
        <ele>2191.061</ele>
        <time>2018-08-10T15:44:15Z</time>
      </trkpt>
      <trkpt lat="46.30093" lon="10.56067">
        <ele>2191.545</ele>
        <time>2018-08-10T15:44:35Z</time>
      </trkpt>
      <trkpt lat="46.30095" lon="10.56069">
        <ele>2192.05</ele>
        <time>2018-08-10T15:44:55Z</time>
      </trkpt>
      <trkpt lat="46.30098" lon="10.5607">
        <ele>2192.471</ele>
        <time>2018-08-10T15:45:15Z</time>
      </trkpt>
      <trkpt lat="46.30101" lon="10.56072">
        <ele>2192.858</ele>
        <time>2018-08-10T15:45:35Z</time>
      </trkpt>
      <trkpt lat="46.30104" lon="10.56072">
        <ele>2192.981</ele>
        <time>2018-08-10T15:45:55Z</time>
      </trkpt>
      <trkpt lat="46.30107" lon="10.56072">
        <ele>2192.995</ele>
        <time>2018-08-10T15:46:15Z</time>
      </trkpt>
      <trkpt lat="46.30109" lon="10.56072">
        <ele>2192.849</ele>
        <time>2018-08-10T15:46:35Z</time>
      </trkpt>
      <trkpt lat="46.30112" lon="10.56072">
        <ele>2192.823</ele>
        <time>2018-08-10T15:46:55Z</time>
      </trkpt>
      <trkpt lat="46.30115" lon="10.56072">
        <ele>2192.808</ele>
        <time>2018-08-10T15:47:15Z</time>
      </trkpt>
      <trkpt lat="46.30118" lon="10.56072">
        <ele>2192.761</ele>
        <time>2018-08-10T15:47:35Z</time>
      </trkpt>
      <trkpt lat="46.30119" lon="10.56072">
        <ele>2192.616</ele>
        <time>2018-08-10T15:47:55Z</time>
      </trkpt>
      <trkpt lat="46.30138" lon="10.56075">
        <ele>2193.852</ele>
        <time>2018-08-10T15:48:15Z</time>
      </trkpt>
      <trkpt lat="46.3014" lon="10.56076">
        <ele>2194.166</ele>
        <time>2018-08-10T15:48:35Z</time>
      </trkpt>
      <trkpt lat="46.30142" lon="10.56078">
        <ele>2195.091</ele>
        <time>2018-08-10T15:48:55Z</time>
      </trkpt>
      <trkpt lat="46.30145" lon="10.56079">
        <ele>2195.912</ele>
        <time>2018-08-10T15:49:15Z</time>
      </trkpt>
      <trkpt lat="46.30148" lon="10.56081">
        <ele>2196.919</ele>
        <time>2018-08-10T15:49:35Z</time>
      </trkpt>
      <trkpt lat="46.3015" lon="10.56082">
        <ele>2197.742</ele>
        <time>2018-08-10T15:49:55Z</time>
      </trkpt>
      <trkpt lat="46.30153" lon="10.56083">
        <ele>2198.433</ele>
        <time>2018-08-10T15:50:15Z</time>
      </trkpt>
      <trkpt lat="46.30155" lon="10.56085">
        <ele>2199.523</ele>
        <time>2018-08-10T15:50:35Z</time>
      </trkpt>
      <trkpt lat="46.30158" lon="10.56086">
        <ele>2200.715</ele>
        <time>2018-08-10T15:50:55Z</time>
      </trkpt>
      <trkpt lat="46.3016" lon="10.56087">
        <ele>2202.008</ele>
        <time>2018-08-10T15:51:15Z</time>
      </trkpt>
      <trkpt lat="46.30163" lon="10.56089">
        <ele>2203.515</ele>
        <time>2018-08-10T15:51:35Z</time>
      </trkpt>
      <trkpt lat="46.30166" lon="10.56091">
        <ele>2205.19</ele>
        <time>2018-08-10T15:51:55Z</time>
      </trkpt>
      <trkpt lat="46.30168" lon="10.56092">
        <ele>2206.926</ele>
        <time>2018-08-10T15:52:15Z</time>
      </trkpt>
      <trkpt lat="46.30171" lon="10.56094">
        <ele>2208.52</ele>
        <time>2018-08-10T15:52:35Z</time>
      </trkpt>
      <trkpt lat="46.30173" lon="10.56095">
        <ele>2210.175</ele>
        <time>2018-08-10T15:52:55Z</time>
      </trkpt>
      <trkpt lat="46.30176" lon="10.56096">
        <ele>2211.636</ele>
        <time>2018-08-10T15:53:15Z</time>
      </trkpt>
      <trkpt lat="46.30179" lon="10.56097">
        <ele>2212.853</ele>
        <time>2018-08-10T15:53:35Z</time>
      </trkpt>
      <trkpt lat="46.30182" lon="10.56097">
        <ele>2213.896</ele>
        <time>2018-08-10T15:53:55Z</time>
      </trkpt>
      <trkpt lat="46.30185" lon="10.56097">
        <ele>2214.481</ele>
        <time>2018-08-10T15:54:15Z</time>
      </trkpt>
      <trkpt lat="46.30187" lon="10.56097">
        <ele>2214.761</ele>
        <time>2018-08-10T15:54:35Z</time>
      </trkpt>
      <trkpt lat="46.3019" lon="10.56095">
        <ele>2214.717</ele>
        <time>2018-08-10T15:54:55Z</time>
      </trkpt>
      <trkpt lat="46.30192" lon="10.56094">
        <ele>2214.508</ele>
        <time>2018-08-10T15:55:15Z</time>
      </trkpt>
      <trkpt lat="46.30194" lon="10.56093">
        <ele>2214.34</ele>
        <time>2018-08-10T15:55:35Z</time>
      </trkpt>
      <trkpt lat="46.30196" lon="10.56092">
        <ele>2214.685</ele>
        <time>2018-08-10T15:55:55Z</time>
      </trkpt>
      <trkpt lat="46.30198" lon="10.56093">
        <ele>2215.621</ele>
        <time>2018-08-10T15:56:15Z</time>
      </trkpt>
      <trkpt lat="46.302" lon="10.56095">
        <ele>2217.235</ele>
        <time>2018-08-10T15:56:35Z</time>
      </trkpt>
      <trkpt lat="46.30199" lon="10.56096">
        <ele>2217.49</ele>
        <time>2018-08-10T15:56:55Z</time>
      </trkpt>
      <trkpt lat="46.30196" lon="10.56097">
        <ele>2217.511</ele>
        <time>2018-08-10T15:57:15Z</time>
      </trkpt>
      <trkpt lat="46.30193" lon="10.56098">
        <ele>2216.838</ele>
        <time>2018-08-10T15:57:35Z</time>
      </trkpt>
      <trkpt lat="46.3019" lon="10.56099">
        <ele>2216.751</ele>
        <time>2018-08-10T15:57:55Z</time>
      </trkpt>
      <trkpt lat="46.30188" lon="10.56099">
        <ele>2216.673</ele>
        <time>2018-08-10T15:58:15Z</time>
      </trkpt>
      <trkpt lat="46.30186" lon="10.561">
        <ele>2216.685</ele>
        <time>2018-08-10T15:58:35Z</time>
      </trkpt>
      <trkpt lat="46.30184" lon="10.56101">
        <ele>2216.513</ele>
        <time>2018-08-10T15:58:55Z</time>
      </trkpt>
      <trkpt lat="46.30182" lon="10.56101">
        <ele>2216.308</ele>
        <time>2018-08-10T15:59:15Z</time>
      </trkpt>
      <trkpt lat="46.30179" lon="10.56101">
        <ele>2215.989</ele>
        <time>2018-08-10T15:59:35Z</time>
      </trkpt>
      <trkpt lat="46.30177" lon="10.56101">
        <ele>2215.364</ele>
        <time>2018-08-10T15:59:55Z</time>
      </trkpt>
      <trkpt lat="46.30175" lon="10.56101">
        <ele>2214.67</ele>
        <time>2018-08-10T16:00:15Z</time>
      </trkpt>
      <trkpt lat="46.30173" lon="10.56101">
        <ele>2213.894</ele>
        <time>2018-08-10T16:00:35Z</time>
      </trkpt>
      <trkpt lat="46.3017" lon="10.561">
        <ele>2213.129</ele>
        <time>2018-08-10T16:00:55Z</time>
      </trkpt>
      <trkpt lat="46.30168" lon="10.561">
        <ele>2212.32</ele>
        <time>2018-08-10T16:01:15Z</time>
      </trkpt>
      <trkpt lat="46.30166" lon="10.561">
        <ele>2211.847</ele>
        <time>2018-08-10T16:01:35Z</time>
      </trkpt>
      <trkpt lat="46.30163" lon="10.561">
        <ele>2211.57</ele>
        <time>2018-08-10T16:01:55Z</time>
      </trkpt>
      <trkpt lat="46.30161" lon="10.561">
        <ele>2211.117</ele>
        <time>2018-08-10T16:02:15Z</time>
      </trkpt>
      <trkpt lat="46.30159" lon="10.561">
        <ele>2210.787</ele>
        <time>2018-08-10T16:02:35Z</time>
      </trkpt>
      <trkpt lat="46.30156" lon="10.561">
        <ele>2210.415</ele>
        <time>2018-08-10T16:02:55Z</time>
      </trkpt>
      <trkpt lat="46.30154" lon="10.561">
        <ele>2210.008</ele>
        <time>2018-08-10T16:03:15Z</time>
      </trkpt>
      <trkpt lat="46.30152" lon="10.56099">
        <ele>2209.633</ele>
        <time>2018-08-10T16:03:35Z</time>
      </trkpt>
      <trkpt lat="46.30149" lon="10.56099">
        <ele>2209.278</ele>
        <time>2018-08-10T16:03:55Z</time>
      </trkpt>
      <trkpt lat="46.30147" lon="10.56099">
        <ele>2208.854</ele>
        <time>2018-08-10T16:04:15Z</time>
      </trkpt>
      <trkpt lat="46.30145" lon="10.56099">
        <ele>2208.518</ele>
        <time>2018-08-10T16:04:35Z</time>
      </trkpt>
      <trkpt lat="46.30142" lon="10.56099">
        <ele>2208.143</ele>
        <time>2018-08-10T16:04:55Z</time>
      </trkpt>
      <trkpt lat="46.3014" lon="10.56099">
        <ele>2207.924</ele>
        <time>2018-08-10T16:05:15Z</time>
      </trkpt>
      <trkpt lat="46.30138" lon="10.561">
        <ele>2208.161</ele>
        <time>2018-08-10T16:05:35Z</time>
      </trkpt>
      <trkpt lat="46.30135" lon="10.561">
        <ele>2208.334</ele>
        <time>2018-08-10T16:05:55Z</time>
      </trkpt>
      <trkpt lat="46.30133" lon="10.56101">
        <ele>2208.643</ele>
        <time>2018-08-10T16:06:15Z</time>
      </trkpt>
      <trkpt lat="46.30131" lon="10.56101">
        <ele>2208.964</ele>
        <time>2018-08-10T16:06:35Z</time>
      </trkpt>
      <trkpt lat="46.30128" lon="10.56102">
        <ele>2209.31</ele>
        <time>2018-08-10T16:06:55Z</time>
      </trkpt>
      <trkpt lat="46.30126" lon="10.56103">
        <ele>2209.808</ele>
        <time>2018-08-10T16:07:15Z</time>
      </trkpt>
      <trkpt lat="46.30124" lon="10.56104">
        <ele>2210.176</ele>
        <time>2018-08-10T16:07:35Z</time>
      </trkpt>
      <trkpt lat="46.30122" lon="10.56104">
        <ele>2210.051</ele>
        <time>2018-08-10T16:07:55Z</time>
      </trkpt>
      <trkpt lat="46.30119" lon="10.56104">
        <ele>2209.827</ele>
        <time>2018-08-10T16:08:15Z</time>
      </trkpt>
      <trkpt lat="46.30117" lon="10.56103">
        <ele>2209.111</ele>
        <time>2018-08-10T16:08:35Z</time>
      </trkpt>
      <trkpt lat="46.30115" lon="10.56102">
        <ele>2208.346</ele>
        <time>2018-08-10T16:08:55Z</time>
      </trkpt>
      <trkpt lat="46.30113" lon="10.56101">
        <ele>2207.767</ele>
        <time>2018-08-10T16:09:15Z</time>
      </trkpt>
      <trkpt lat="46.30111" lon="10.561">
        <ele>2207.064</ele>
        <time>2018-08-10T16:09:35Z</time>
      </trkpt>
      <trkpt lat="46.30108" lon="10.56099">
        <ele>2206.197</ele>
        <time>2018-08-10T16:09:55Z</time>
      </trkpt>
      <trkpt lat="46.30106" lon="10.56098">
        <ele>2205.218</ele>
        <time>2018-08-10T16:10:15Z</time>
      </trkpt>
      <trkpt lat="46.30104" lon="10.56097">
        <ele>2204.598</ele>
        <time>2018-08-10T16:10:35Z</time>
      </trkpt>
      <trkpt lat="46.30101" lon="10.56096">
        <ele>2203.817</ele>
        <time>2018-08-10T16:10:55Z</time>
      </trkpt>
      <trkpt lat="46.30099" lon="10.56096">
        <ele>2203.308</ele>
        <time>2018-08-10T16:11:15Z</time>
      </trkpt>
      <trkpt lat="46.30097" lon="10.56095">
        <ele>2202.873</ele>
        <time>2018-08-10T16:11:35Z</time>
      </trkpt>
      <trkpt lat="46.30095" lon="10.56095">
        <ele>2202.338</ele>
        <time>2018-08-10T16:11:55Z</time>
      </trkpt>
      <trkpt lat="46.30093" lon="10.56094">
        <ele>2201.614</ele>
        <time>2018-08-10T16:12:15Z</time>
      </trkpt>
      <trkpt lat="46.3009" lon="10.56093">
        <ele>2201.168</ele>
        <time>2018-08-10T16:12:35Z</time>
      </trkpt>
      <trkpt lat="46.30088" lon="10.56093">
        <ele>2200.983</ele>
        <time>2018-08-10T16:12:55Z</time>
      </trkpt>
      <trkpt lat="46.30086" lon="10.56094">
        <ele>2201.164</ele>
        <time>2018-08-10T16:13:15Z</time>
      </trkpt>
      <trkpt lat="46.30084" lon="10.56096">
        <ele>2201.891</ele>
        <time>2018-08-10T16:13:35Z</time>
      </trkpt>
      <trkpt lat="46.30082" lon="10.56098">
        <ele>2202.924</ele>
        <time>2018-08-10T16:13:55Z</time>
      </trkpt>
      <trkpt lat="46.3008" lon="10.56101">
        <ele>2204.091</ele>
        <time>2018-08-10T16:14:15Z</time>
      </trkpt>
      <trkpt lat="46.30079" lon="10.56104">
        <ele>2205.381</ele>
        <time>2018-08-10T16:14:35Z</time>
      </trkpt>
      <trkpt lat="46.30077" lon="10.56107">
        <ele>2206.719</ele>
        <time>2018-08-10T16:14:55Z</time>
      </trkpt>
      <trkpt lat="46.30076" lon="10.56111">
        <ele>2208.108</ele>
        <time>2018-08-10T16:15:15Z</time>
      </trkpt>
      <trkpt lat="46.30075" lon="10.56115">
        <ele>2210.091</ele>
        <time>2018-08-10T16:15:35Z</time>
      </trkpt>
      <trkpt lat="46.30074" lon="10.56118">
        <ele>2211.876</ele>
        <time>2018-08-10T16:15:55Z</time>
      </trkpt>
      <trkpt lat="46.30073" lon="10.56122">
        <ele>2213.682</ele>
        <time>2018-08-10T16:16:15Z</time>
      </trkpt>
      <trkpt lat="46.30071" lon="10.56126">
        <ele>2215.216</ele>
        <time>2018-08-10T16:16:35Z</time>
      </trkpt>
      <trkpt lat="46.3007" lon="10.5613">
        <ele>2216.831</ele>
        <time>2018-08-10T16:16:55Z</time>
      </trkpt>
      <trkpt lat="46.30068" lon="10.56133">
        <ele>2218.222</ele>
        <time>2018-08-10T16:17:15Z</time>
      </trkpt>
      <trkpt lat="46.30067" lon="10.56136">
        <ele>2219.429</ele>
        <time>2018-08-10T16:17:35Z</time>
      </trkpt>
      <trkpt lat="46.30065" lon="10.5614">
        <ele>2220.682</ele>
        <time>2018-08-10T16:17:55Z</time>
      </trkpt>
      <trkpt lat="46.30063" lon="10.56143">
        <ele>2221.531</ele>
        <time>2018-08-10T16:18:15Z</time>
      </trkpt>
      <trkpt lat="46.30062" lon="10.56146">
        <ele>2222.461</ele>
        <time>2018-08-10T16:18:35Z</time>
      </trkpt>
      <trkpt lat="46.3006" lon="10.56149">
        <ele>2223.107</ele>
        <time>2018-08-10T16:18:55Z</time>
      </trkpt>
      <trkpt lat="46.30058" lon="10.56152">
        <ele>2223.708</ele>
        <time>2018-08-10T16:19:15Z</time>
      </trkpt>
      <trkpt lat="46.30056" lon="10.56154">
        <ele>2224.225</ele>
        <time>2018-08-10T16:19:35Z</time>
      </trkpt>
      <trkpt lat="46.30055" lon="10.56157">
        <ele>2225.06</ele>
        <time>2018-08-10T16:19:55Z</time>
      </trkpt>
      <trkpt lat="46.30054" lon="10.56161">
        <ele>2226.416</ele>
        <time>2018-08-10T16:20:15Z</time>
      </trkpt>
      <trkpt lat="46.30055" lon="10.56165">
        <ele>2228.16</ele>
        <time>2018-08-10T16:20:35Z</time>
      </trkpt>
      <trkpt lat="46.30057" lon="10.56167">
        <ele>2229.725</ele>
        <time>2018-08-10T16:20:55Z</time>
      </trkpt>
      <trkpt lat="46.30059" lon="10.56168">
        <ele>2230.536</ele>
        <time>2018-08-10T16:21:15Z</time>
      </trkpt>
      <trkpt lat="46.30062" lon="10.56168">
        <ele>2231.243</ele>
        <time>2018-08-10T16:21:35Z</time>
      </trkpt>
      <trkpt lat="46.30064" lon="10.56168">
        <ele>2231.716</ele>
        <time>2018-08-10T16:21:55Z</time>
      </trkpt>
      <trkpt lat="46.30067" lon="10.56168">
        <ele>2232.367</ele>
        <time>2018-08-10T16:22:15Z</time>
      </trkpt>
      <trkpt lat="46.30069" lon="10.56168">
        <ele>2233.081</ele>
        <time>2018-08-10T16:22:35Z</time>
      </trkpt>
      <trkpt lat="46.30071" lon="10.56169">
        <ele>2233.719</ele>
        <time>2018-08-10T16:22:55Z</time>
      </trkpt>
      <trkpt lat="46.30074" lon="10.56169">
        <ele>2234.408</ele>
        <time>2018-08-10T16:23:15Z</time>
      </trkpt>
      <trkpt lat="46.30076" lon="10.56169">
        <ele>2235.198</ele>
        <time>2018-08-10T16:23:35Z</time>
      </trkpt>
      <trkpt lat="46.30078" lon="10.56169">
        <ele>2235.833</ele>
        <time>2018-08-10T16:23:55Z</time>
      </trkpt>
      <trkpt lat="46.30081" lon="10.56169">
        <ele>2236.219</ele>
        <time>2018-08-10T16:24:15Z</time>
      </trkpt>
      <trkpt lat="46.30083" lon="10.56168">
        <ele>2236.223</ele>
        <time>2018-08-10T16:24:35Z</time>
      </trkpt>
      <trkpt lat="46.30085" lon="10.56166">
        <ele>2236.418</ele>
        <time>2018-08-10T16:24:55Z</time>
      </trkpt>
      <trkpt lat="46.30087" lon="10.56164">
        <ele>2236.449</ele>
        <time>2018-08-10T16:25:15Z</time>
      </trkpt>
      <trkpt lat="46.30089" lon="10.56162">
        <ele>2236.346</ele>
        <time>2018-08-10T16:25:35Z</time>
      </trkpt>
      <trkpt lat="46.30092" lon="10.5616">
        <ele>2236.179</ele>
        <time>2018-08-10T16:25:55Z</time>
      </trkpt>
      <trkpt lat="46.30094" lon="10.56158">
        <ele>2235.865</ele>
        <time>2018-08-10T16:26:15Z</time>
      </trkpt>
      <trkpt lat="46.30096" lon="10.56156">
        <ele>2235.368</ele>
        <time>2018-08-10T16:26:35Z</time>
      </trkpt>
      <trkpt lat="46.30098" lon="10.56153">
        <ele>2234.514</ele>
        <time>2018-08-10T16:26:55Z</time>
      </trkpt>
      <trkpt lat="46.30099" lon="10.5615">
        <ele>2233.608</ele>
        <time>2018-08-10T16:27:15Z</time>
      </trkpt>
      <trkpt lat="46.30101" lon="10.56147">
        <ele>2232.788</ele>
        <time>2018-08-10T16:27:35Z</time>
      </trkpt>
      <trkpt lat="46.30103" lon="10.56145">
        <ele>2232.173</ele>
        <time>2018-08-10T16:27:55Z</time>
      </trkpt>
      <trkpt lat="46.30105" lon="10.56145">
        <ele>2232.649</ele>
        <time>2018-08-10T16:28:15Z</time>
      </trkpt>
      <trkpt lat="46.30106" lon="10.56147">
        <ele>2233.833</ele>
        <time>2018-08-10T16:28:35Z</time>
      </trkpt>
      <trkpt lat="46.30107" lon="10.56151">
        <ele>2236.498</ele>
        <time>2018-08-10T16:28:55Z</time>
      </trkpt>
      <trkpt lat="46.30106" lon="10.56154">
        <ele>2237.259</ele>
        <time>2018-08-10T16:29:15Z</time>
      </trkpt>
      <trkpt lat="46.30104" lon="10.56156">
        <ele>2238.196</ele>
        <time>2018-08-10T16:29:35Z</time>
      </trkpt>
      <trkpt lat="46.30103" lon="10.56159">
        <ele>2239.219</ele>
        <time>2018-08-10T16:29:55Z</time>
      </trkpt>
      <trkpt lat="46.30102" lon="10.56162">
        <ele>2240.462</ele>
        <time>2018-08-10T16:30:15Z</time>
      </trkpt>
      <trkpt lat="46.301" lon="10.56166">
        <ele>2241.683</ele>
        <time>2018-08-10T16:30:35Z</time>
      </trkpt>
      <trkpt lat="46.30099" lon="10.56169">
        <ele>2242.611</ele>
        <time>2018-08-10T16:30:55Z</time>
      </trkpt>
      <trkpt lat="46.30098" lon="10.56172">
        <ele>2243.508</ele>
        <time>2018-08-10T16:31:15Z</time>
      </trkpt>
      <trkpt lat="46.30096" lon="10.56176">
        <ele>2244.228</ele>
        <time>2018-08-10T16:31:35Z</time>
      </trkpt>
      <trkpt lat="46.30095" lon="10.56179">
        <ele>2244.883</ele>
        <time>2018-08-10T16:31:55Z</time>
      </trkpt>
      <trkpt lat="46.30093" lon="10.56181">
        <ele>2245.179</ele>
        <time>2018-08-10T16:32:15Z</time>
      </trkpt>
      <trkpt lat="46.30092" lon="10.56184">
        <ele>2245.693</ele>
        <time>2018-08-10T16:32:35Z</time>
      </trkpt>
      <trkpt lat="46.3009" lon="10.56187">
        <ele>2246.258</ele>
        <time>2018-08-10T16:32:55Z</time>
      </trkpt>
      <trkpt lat="46.30089" lon="10.5619">
        <ele>2246.949</ele>
        <time>2018-08-10T16:33:15Z</time>
      </trkpt>
      <trkpt lat="46.30088" lon="10.56193">
        <ele>2247.716</ele>
        <time>2018-08-10T16:33:35Z</time>
      </trkpt>
      <trkpt lat="46.30086" lon="10.56196">
        <ele>2248.559</ele>
        <time>2018-08-10T16:33:55Z</time>
      </trkpt>
      <trkpt lat="46.30085" lon="10.56199">
        <ele>2249.273</ele>
        <time>2018-08-10T16:34:15Z</time>
      </trkpt>
      <trkpt lat="46.30083" lon="10.56202">
        <ele>2249.785</ele>
        <time>2018-08-10T16:34:35Z</time>
      </trkpt>
      <trkpt lat="46.30081" lon="10.56205">
        <ele>2250.313</ele>
        <time>2018-08-10T16:34:55Z</time>
      </trkpt>
      <trkpt lat="46.30079" lon="10.56208">
        <ele>2251.008</ele>
        <time>2018-08-10T16:35:15Z</time>
      </trkpt>
      <trkpt lat="46.30077" lon="10.56211">
        <ele>2251.689</ele>
        <time>2018-08-10T16:35:35Z</time>
      </trkpt>
      <trkpt lat="46.30075" lon="10.56213">
        <ele>2252.134</ele>
        <time>2018-08-10T16:35:55Z</time>
      </trkpt>
      <trkpt lat="46.30073" lon="10.56216">
        <ele>2252.52</ele>
        <time>2018-08-10T16:36:15Z</time>
      </trkpt>
      <trkpt lat="46.30071" lon="10.56218">
        <ele>2253.074</ele>
        <time>2018-08-10T16:36:35Z</time>
      </trkpt>
      <trkpt lat="46.30069" lon="10.56221">
        <ele>2253.769</ele>
        <time>2018-08-10T16:36:55Z</time>
      </trkpt>
      <trkpt lat="46.30066" lon="10.56223">
        <ele>2254.39</ele>
        <time>2018-08-10T16:37:15Z</time>
      </trkpt>
      <trkpt lat="46.30064" lon="10.56226">
        <ele>2254.747</ele>
        <time>2018-08-10T16:37:35Z</time>
      </trkpt>
      <trkpt lat="46.30062" lon="10.56229">
        <ele>2255.32</ele>
        <time>2018-08-10T16:37:55Z</time>
      </trkpt>
      <trkpt lat="46.30059" lon="10.56231">
        <ele>2255.833</ele>
        <time>2018-08-10T16:38:15Z</time>
      </trkpt>
      <trkpt lat="46.30057" lon="10.56234">
        <ele>2256.423</ele>
        <time>2018-08-10T16:38:35Z</time>
      </trkpt>
      <trkpt lat="46.30054" lon="10.56236">
        <ele>2257.015</ele>
        <time>2018-08-10T16:38:55Z</time>
      </trkpt>
      <trkpt lat="46.30052" lon="10.56238">
        <ele>2257.908</ele>
        <time>2018-08-10T16:39:15Z</time>
      </trkpt>
      <trkpt lat="46.30049" lon="10.56239">
        <ele>2258.675</ele>
        <time>2018-08-10T16:39:35Z</time>
      </trkpt>
      <trkpt lat="46.30047" lon="10.56241">
        <ele>2259.34</ele>
        <time>2018-08-10T16:39:55Z</time>
      </trkpt>
      <trkpt lat="46.30044" lon="10.56242">
        <ele>2260.166</ele>
        <time>2018-08-10T16:40:15Z</time>
      </trkpt>
      <trkpt lat="46.30041" lon="10.56244">
        <ele>2260.84</ele>
        <time>2018-08-10T16:40:35Z</time>
      </trkpt>
      <trkpt lat="46.30038" lon="10.56245">
        <ele>2261.645</ele>
        <time>2018-08-10T16:40:55Z</time>
      </trkpt>
      <trkpt lat="46.30036" lon="10.56246">
        <ele>2262.366</ele>
        <time>2018-08-10T16:41:15Z</time>
      </trkpt>
      <trkpt lat="46.30033" lon="10.56246">
        <ele>2262.653</ele>
        <time>2018-08-10T16:41:35Z</time>
      </trkpt>
      <trkpt lat="46.30031" lon="10.56247">
        <ele>2263.156</ele>
        <time>2018-08-10T16:41:55Z</time>
      </trkpt>
      <trkpt lat="46.30028" lon="10.56247">
        <ele>2263.638</ele>
        <time>2018-08-10T16:42:15Z</time>
      </trkpt>
      <trkpt lat="46.30026" lon="10.56248">
        <ele>2264.17</ele>
        <time>2018-08-10T16:42:35Z</time>
      </trkpt>
      <trkpt lat="46.30024" lon="10.56248">
        <ele>2264.517</ele>
        <time>2018-08-10T16:42:55Z</time>
      </trkpt>
      <trkpt lat="46.30021" lon="10.56249">
        <ele>2265.008</ele>
        <time>2018-08-10T16:43:15Z</time>
      </trkpt>
      <trkpt lat="46.30019" lon="10.56249">
        <ele>2265.595</ele>
        <time>2018-08-10T16:43:35Z</time>
      </trkpt>
      <trkpt lat="46.30016" lon="10.5625">
        <ele>2266.08</ele>
        <time>2018-08-10T16:43:55Z</time>
      </trkpt>
      <trkpt lat="46.30013" lon="10.5625">
        <ele>2266.446</ele>
        <time>2018-08-10T16:44:15Z</time>
      </trkpt>
      <trkpt lat="46.3001" lon="10.5625">
        <ele>2266.78</ele>
        <time>2018-08-10T16:44:35Z</time>
      </trkpt>
      <trkpt lat="46.30008" lon="10.56249">
        <ele>2266.935</ele>
        <time>2018-08-10T16:44:55Z</time>
      </trkpt>
      <trkpt lat="46.30005" lon="10.56249">
        <ele>2267.086</ele>
        <time>2018-08-10T16:45:15Z</time>
      </trkpt>
      <trkpt lat="46.30003" lon="10.56248">
        <ele>2267.073</ele>
        <time>2018-08-10T16:45:35Z</time>
      </trkpt>
      <trkpt lat="46.3" lon="10.56247">
        <ele>2267.056</ele>
        <time>2018-08-10T16:45:55Z</time>
      </trkpt>
      <trkpt lat="46.29997" lon="10.56247">
        <ele>2267.112</ele>
        <time>2018-08-10T16:46:15Z</time>
      </trkpt>
      <trkpt lat="46.29995" lon="10.56246">
        <ele>2267.132</ele>
        <time>2018-08-10T16:46:35Z</time>
      </trkpt>
      <trkpt lat="46.29992" lon="10.56245">
        <ele>2267.205</ele>
        <time>2018-08-10T16:46:55Z</time>
      </trkpt>
      <trkpt lat="46.29989" lon="10.56244">
        <ele>2267.108</ele>
        <time>2018-08-10T16:47:15Z</time>
      </trkpt>
      <trkpt lat="46.29986" lon="10.56242">
        <ele>2267.133</ele>
        <time>2018-08-10T16:47:35Z</time>
      </trkpt>
      <trkpt lat="46.29983" lon="10.56242">
        <ele>2267.168</ele>
        <time>2018-08-10T16:47:55Z</time>
      </trkpt>
      <trkpt lat="46.2998" lon="10.56241">
        <ele>2267.234</ele>
        <time>2018-08-10T16:48:15Z</time>
      </trkpt>
      <trkpt lat="46.29977" lon="10.5624">
        <ele>2267.358</ele>
        <time>2018-08-10T16:48:35Z</time>
      </trkpt>
      <trkpt lat="46.29974" lon="10.56239">
        <ele>2267.523</ele>
        <time>2018-08-10T16:48:55Z</time>
      </trkpt>
      <trkpt lat="46.29972" lon="10.56239">
        <ele>2267.864</ele>
        <time>2018-08-10T16:49:15Z</time>
      </trkpt>
      <trkpt lat="46.29969" lon="10.56239">
        <ele>2267.921</ele>
        <time>2018-08-10T16:49:35Z</time>
      </trkpt>
      <trkpt lat="46.29967" lon="10.56237">
        <ele>2267.864</ele>
        <time>2018-08-10T16:49:55Z</time>
      </trkpt>
      <trkpt lat="46.29964" lon="10.56236">
        <ele>2267.635</ele>
        <time>2018-08-10T16:50:15Z</time>
      </trkpt>
      <trkpt lat="46.29962" lon="10.56234">
        <ele>2267.386</ele>
        <time>2018-08-10T16:50:35Z</time>
      </trkpt>
      <trkpt lat="46.2996" lon="10.56232">
        <ele>2266.914</ele>
        <time>2018-08-10T16:50:55Z</time>
      </trkpt>
      <trkpt lat="46.29957" lon="10.5623">
        <ele>2266.508</ele>
        <time>2018-08-10T16:51:15Z</time>
      </trkpt>
      <trkpt lat="46.29955" lon="10.56229">
        <ele>2266.215</ele>
        <time>2018-08-10T16:51:35Z</time>
      </trkpt>
      <trkpt lat="46.29952" lon="10.56227">
        <ele>2265.88</ele>
        <time>2018-08-10T16:51:55Z</time>
      </trkpt>
      <trkpt lat="46.2995" lon="10.56225">
        <ele>2265.436</ele>
        <time>2018-08-10T16:52:15Z</time>
      </trkpt>
      <trkpt lat="46.29949" lon="10.56223">
        <ele>2264.87</ele>
        <time>2018-08-10T16:52:35Z</time>
      </trkpt>
      <trkpt lat="46.29947" lon="10.56221">
        <ele>2263.955</ele>
        <time>2018-08-10T16:52:55Z</time>
      </trkpt>
      <trkpt lat="46.29946" lon="10.56218">
        <ele>2263.076</ele>
        <time>2018-08-10T16:53:15Z</time>
      </trkpt>
      <trkpt lat="46.29944" lon="10.56215">
        <ele>2262.283</ele>
        <time>2018-08-10T16:53:35Z</time>
      </trkpt>
      <trkpt lat="46.29942" lon="10.56213">
        <ele>2261.826</ele>
        <time>2018-08-10T16:53:55Z</time>
      </trkpt>
      <trkpt lat="46.29939" lon="10.56214">
        <ele>2262.255</ele>
        <time>2018-08-10T16:54:15Z</time>
      </trkpt>
      <trkpt lat="46.29937" lon="10.56216">
        <ele>2263.307</ele>
        <time>2018-08-10T16:54:35Z</time>
      </trkpt>
      <trkpt lat="46.29936" lon="10.56219">
        <ele>2264.817</ele>
        <time>2018-08-10T16:54:55Z</time>
      </trkpt>
      <trkpt lat="46.29936" lon="10.56223">
        <ele>2266.408</ele>
        <time>2018-08-10T16:55:15Z</time>
      </trkpt>
      <trkpt lat="46.29936" lon="10.56226">
        <ele>2267.897</ele>
        <time>2018-08-10T16:55:35Z</time>
      </trkpt>
      <trkpt lat="46.29937" lon="10.56229">
        <ele>2269.172</ele>
        <time>2018-08-10T16:55:55Z</time>
      </trkpt>
      <trkpt lat="46.29938" lon="10.56232">
        <ele>2270.318</ele>
        <time>2018-08-10T16:56:15Z</time>
      </trkpt>
      <trkpt lat="46.2994" lon="10.56235">
        <ele>2271.482</ele>
        <time>2018-08-10T16:56:35Z</time>
      </trkpt>
      <trkpt lat="46.29941" lon="10.56239">
        <ele>2272.617</ele>
        <time>2018-08-10T16:56:55Z</time>
      </trkpt>
      <trkpt lat="46.29943" lon="10.56242">
        <ele>2273.718</ele>
        <time>2018-08-10T16:57:15Z</time>
      </trkpt>
      <trkpt lat="46.29945" lon="10.56245">
        <ele>2274.735</ele>
        <time>2018-08-10T16:57:35Z</time>
      </trkpt>
      <trkpt lat="46.29947" lon="10.56248">
        <ele>2275.548</ele>
        <time>2018-08-10T16:57:55Z</time>
      </trkpt>
      <trkpt lat="46.29949" lon="10.56251">
        <ele>2276.312</ele>
        <time>2018-08-10T16:58:15Z</time>
      </trkpt>
      <trkpt lat="46.29952" lon="10.56253">
        <ele>2277.132</ele>
        <time>2018-08-10T16:58:35Z</time>
      </trkpt>
      <trkpt lat="46.29954" lon="10.56256">
        <ele>2277.805</ele>
        <time>2018-08-10T16:58:55Z</time>
      </trkpt>
      <trkpt lat="46.29956" lon="10.56259">
        <ele>2278.408</ele>
        <time>2018-08-10T16:59:15Z</time>
      </trkpt>
      <trkpt lat="46.29959" lon="10.56261">
        <ele>2279.093</ele>
        <time>2018-08-10T16:59:35Z</time>
      </trkpt>
      <trkpt lat="46.29962" lon="10.56264">
        <ele>2279.698</ele>
        <time>2018-08-10T16:59:55Z</time>
      </trkpt>
      <trkpt lat="46.29964" lon="10.56267">
        <ele>2280.214</ele>
        <time>2018-08-10T17:00:15Z</time>
      </trkpt>
      <trkpt lat="46.29967" lon="10.5627">
        <ele>2280.718</ele>
        <time>2018-08-10T17:00:35Z</time>
      </trkpt>
      <trkpt lat="46.29969" lon="10.56273">
        <ele>2281.263</ele>
        <time>2018-08-10T17:00:55Z</time>
      </trkpt>
      <trkpt lat="46.29971" lon="10.56277">
        <ele>2281.844</ele>
        <time>2018-08-10T17:01:15Z</time>
      </trkpt>
      <trkpt lat="46.29974" lon="10.5628">
        <ele>2282.571</ele>
        <time>2018-08-10T17:01:35Z</time>
      </trkpt>
      <trkpt lat="46.29976" lon="10.56283">
        <ele>2283.414</ele>
        <time>2018-08-10T17:01:55Z</time>
      </trkpt>
      <trkpt lat="46.29978" lon="10.56287">
        <ele>2284.124</ele>
        <time>2018-08-10T17:02:15Z</time>
      </trkpt>
      <trkpt lat="46.2998" lon="10.5629">
        <ele>2284.704</ele>
        <time>2018-08-10T17:02:35Z</time>
      </trkpt>
      <trkpt lat="46.29983" lon="10.56292">
        <ele>2285.114</ele>
        <time>2018-08-10T17:02:55Z</time>
      </trkpt>
      <trkpt lat="46.29985" lon="10.56295">
        <ele>2285.408</ele>
        <time>2018-08-10T17:03:15Z</time>
      </trkpt>
      <trkpt lat="46.29987" lon="10.56297">
        <ele>2285.724</ele>
        <time>2018-08-10T17:03:35Z</time>
      </trkpt>
      <trkpt lat="46.29989" lon="10.563">
        <ele>2286.019</ele>
        <time>2018-08-10T17:03:55Z</time>
      </trkpt>
      <trkpt lat="46.29992" lon="10.56303">
        <ele>2286.255</ele>
        <time>2018-08-10T17:04:15Z</time>
      </trkpt>
      <trkpt lat="46.29994" lon="10.56305">
        <ele>2286.319</ele>
        <time>2018-08-10T17:04:35Z</time>
      </trkpt>
      <trkpt lat="46.29996" lon="10.56307">
        <ele>2286.474</ele>
        <time>2018-08-10T17:04:55Z</time>
      </trkpt>
      <trkpt lat="46.29999" lon="10.56309">
        <ele>2286.415</ele>
        <time>2018-08-10T17:05:15Z</time>
      </trkpt>
      <trkpt lat="46.30001" lon="10.56311">
        <ele>2286.572</ele>
        <time>2018-08-10T17:05:35Z</time>
      </trkpt>
      <trkpt lat="46.30004" lon="10.56313">
        <ele>2286.965</ele>
        <time>2018-08-10T17:05:55Z</time>
      </trkpt>
      <trkpt lat="46.30006" lon="10.56315">
        <ele>2287.285</ele>
        <time>2018-08-10T17:06:15Z</time>
      </trkpt>
      <trkpt lat="46.30009" lon="10.56316">
        <ele>2287.489</ele>
        <time>2018-08-10T17:06:35Z</time>
      </trkpt>
      <trkpt lat="46.30012" lon="10.56318">
        <ele>2287.517</ele>
        <time>2018-08-10T17:06:55Z</time>
      </trkpt>
      <trkpt lat="46.30015" lon="10.56318">
        <ele>2287.608</ele>
        <time>2018-08-10T17:07:15Z</time>
      </trkpt>
      <trkpt lat="46.30018" lon="10.56319">
        <ele>2287.52</ele>
        <time>2018-08-10T17:07:35Z</time>
      </trkpt>
      <trkpt lat="46.30021" lon="10.56319">
        <ele>2287.485</ele>
        <time>2018-08-10T17:07:55Z</time>
      </trkpt>
      <trkpt lat="46.30023" lon="10.5632">
        <ele>2287.551</ele>
        <time>2018-08-10T17:08:15Z</time>
      </trkpt>
      <trkpt lat="46.30026" lon="10.56322">
        <ele>2287.845</ele>
        <time>2018-08-10T17:08:35Z</time>
      </trkpt>
      <trkpt lat="46.30029" lon="10.56324">
        <ele>2288.22</ele>
        <time>2018-08-10T17:08:55Z</time>
      </trkpt>
      <trkpt lat="46.30032" lon="10.56327">
        <ele>2288.711</ele>
        <time>2018-08-10T17:09:15Z</time>
      </trkpt>
      <trkpt lat="46.30035" lon="10.56329">
        <ele>2289.288</ele>
        <time>2018-08-10T17:09:35Z</time>
      </trkpt>
      <trkpt lat="46.30037" lon="10.56332">
        <ele>2289.771</ele>
        <time>2018-08-10T17:09:55Z</time>
      </trkpt>
      <trkpt lat="46.3004" lon="10.56334">
        <ele>2290.266</ele>
        <time>2018-08-10T17:10:15Z</time>
      </trkpt>
      <trkpt lat="46.30043" lon="10.56336">
        <ele>2290.629</ele>
        <time>2018-08-10T17:10:35Z</time>
      </trkpt>
      <trkpt lat="46.30046" lon="10.56338">
        <ele>2290.921</ele>
        <time>2018-08-10T17:10:55Z</time>
      </trkpt>
      <trkpt lat="46.30049" lon="10.5634">
        <ele>2291.208</ele>
        <time>2018-08-10T17:11:15Z</time>
      </trkpt>
      <trkpt lat="46.30052" lon="10.56342">
        <ele>2291.458</ele>
        <time>2018-08-10T17:11:35Z</time>
      </trkpt>
      <trkpt lat="46.30055" lon="10.56344">
        <ele>2291.783</ele>
        <time>2018-08-10T17:11:55Z</time>
      </trkpt>
      <trkpt lat="46.30058" lon="10.56346">
        <ele>2292.189</ele>
        <time>2018-08-10T17:12:15Z</time>
      </trkpt>
      <trkpt lat="46.30061" lon="10.56349">
        <ele>2292.643</ele>
        <time>2018-08-10T17:12:35Z</time>
      </trkpt>
      <trkpt lat="46.30063" lon="10.56351">
        <ele>2293.178</ele>
        <time>2018-08-10T17:12:55Z</time>
      </trkpt>
      <trkpt lat="46.30066" lon="10.56353">
        <ele>2293.699</ele>
        <time>2018-08-10T17:13:15Z</time>
      </trkpt>
      <trkpt lat="46.30067" lon="10.56356">
        <ele>2294.216</ele>
        <time>2018-08-10T17:13:35Z</time>
      </trkpt>
      <trkpt lat="46.30067" lon="10.56359">
        <ele>2295.019</ele>
        <time>2018-08-10T17:13:55Z</time>
      </trkpt>
      <trkpt lat="46.30065" lon="10.5636">
        <ele>2295.379</ele>
        <time>2018-08-10T17:14:15Z</time>
      </trkpt>
      <trkpt lat="46.30063" lon="10.56359">
        <ele>2295.205</ele>
        <time>2018-08-10T17:14:35Z</time>
      </trkpt>
      <trkpt lat="46.30062" lon="10.56359">
        <ele>2295.125</ele>
        <time>2018-08-10T17:14:55Z</time>
      </trkpt>
      <trkpt lat="46.30059" lon="10.56358">
        <ele>2294.908</ele>
        <time>2018-08-10T17:15:15Z</time>
      </trkpt>
      <trkpt lat="46.30057" lon="10.56357">
        <ele>2294.839</ele>
        <time>2018-08-10T17:15:35Z</time>
      </trkpt>
      <trkpt lat="46.30055" lon="10.56356">
        <ele>2294.864</ele>
        <time>2018-08-10T17:15:55Z</time>
      </trkpt>
      <trkpt lat="46.30053" lon="10.56356">
        <ele>2294.89</ele>
        <time>2018-08-10T17:16:15Z</time>
      </trkpt>
      <trkpt lat="46.30051" lon="10.56356">
        <ele>2294.934</ele>
        <time>2018-08-10T17:16:35Z</time>
      </trkpt>
      <trkpt lat="46.30048" lon="10.56355">
        <ele>2295.029</ele>
        <time>2018-08-10T17:16:55Z</time>
      </trkpt>
      <trkpt lat="46.30046" lon="10.56355">
        <ele>2295.21</ele>
        <time>2018-08-10T17:17:15Z</time>
      </trkpt>
      <trkpt lat="46.30043" lon="10.56355">
        <ele>2295.387</ele>
        <time>2018-08-10T17:17:35Z</time>
      </trkpt>
      <trkpt lat="46.30041" lon="10.56355">
        <ele>2295.59</ele>
        <time>2018-08-10T17:17:55Z</time>
      </trkpt>
      <trkpt lat="46.30038" lon="10.56355">
        <ele>2295.673</ele>
        <time>2018-08-10T17:18:15Z</time>
      </trkpt>
      <trkpt lat="46.30035" lon="10.56355">
        <ele>2295.885</ele>
        <time>2018-08-10T17:18:35Z</time>
      </trkpt>
      <trkpt lat="46.30033" lon="10.56355">
        <ele>2295.913</ele>
        <time>2018-08-10T17:18:55Z</time>
      </trkpt>
      <trkpt lat="46.3003" lon="10.56354">
        <ele>2296.108</ele>
        <time>2018-08-10T17:19:15Z</time>
      </trkpt>
      <trkpt lat="46.30027" lon="10.56354">
        <ele>2296.329</ele>
        <time>2018-08-10T17:19:35Z</time>
      </trkpt>
      <trkpt lat="46.30025" lon="10.56354">
        <ele>2296.874</ele>
        <time>2018-08-10T17:19:55Z</time>
      </trkpt>
      <trkpt lat="46.30022" lon="10.56354">
        <ele>2297.37</ele>
        <time>2018-08-10T17:20:15Z</time>
      </trkpt>
      <trkpt lat="46.30019" lon="10.56354">
        <ele>2297.954</ele>
        <time>2018-08-10T17:20:35Z</time>
      </trkpt>
      <trkpt lat="46.30016" lon="10.56354">
        <ele>2298.419</ele>
        <time>2018-08-10T17:20:55Z</time>
      </trkpt>
      <trkpt lat="46.30014" lon="10.56354">
        <ele>2299.09</ele>
        <time>2018-08-10T17:21:15Z</time>
      </trkpt>
      <trkpt lat="46.30011" lon="10.56354">
        <ele>2299.637</ele>
        <time>2018-08-10T17:21:35Z</time>
      </trkpt>
      <trkpt lat="46.30008" lon="10.56354">
        <ele>2300.26</ele>
        <time>2018-08-10T17:21:55Z</time>
      </trkpt>
      <trkpt lat="46.30005" lon="10.56354">
        <ele>2300.838</ele>
        <time>2018-08-10T17:22:15Z</time>
      </trkpt>
      <trkpt lat="46.30002" lon="10.56354">
        <ele>2301.37</ele>
        <time>2018-08-10T17:22:35Z</time>
      </trkpt>
      <trkpt lat="46.3" lon="10.56353">
        <ele>2301.417</ele>
        <time>2018-08-10T17:22:55Z</time>
      </trkpt>
      <trkpt lat="46.29998" lon="10.56352">
        <ele>2301.408</ele>
        <time>2018-08-10T17:23:15Z</time>
      </trkpt>
      <trkpt lat="46.29995" lon="10.5635">
        <ele>2301.195</ele>
        <time>2018-08-10T17:23:35Z</time>
      </trkpt>
      <trkpt lat="46.29994" lon="10.56347">
        <ele>2300.51</ele>
        <time>2018-08-10T17:23:55Z</time>
      </trkpt>
      <trkpt lat="46.29992" lon="10.56344">
        <ele>2299.726</ele>
        <time>2018-08-10T17:24:15Z</time>
      </trkpt>
      <trkpt lat="46.2999" lon="10.56341">
        <ele>2298.99</ele>
        <time>2018-08-10T17:24:35Z</time>
      </trkpt>
      <trkpt lat="46.29988" lon="10.56338">
        <ele>2298.155</ele>
        <time>2018-08-10T17:24:55Z</time>
      </trkpt>
      <trkpt lat="46.29987" lon="10.56336">
        <ele>2297.336</ele>
        <time>2018-08-10T17:25:15Z</time>
      </trkpt>
      <trkpt lat="46.29984" lon="10.56333">
        <ele>2296.823</ele>
        <time>2018-08-10T17:25:35Z</time>
      </trkpt>
      <trkpt lat="46.29982" lon="10.56331">
        <ele>2297.096</ele>
        <time>2018-08-10T17:25:55Z</time>
      </trkpt>
      <trkpt lat="46.29979" lon="10.5633">
        <ele>2297.397</ele>
        <time>2018-08-10T17:26:15Z</time>
      </trkpt>
      <trkpt lat="46.29976" lon="10.56329">
        <ele>2297.823</ele>
        <time>2018-08-10T17:26:35Z</time>
      </trkpt>
      <trkpt lat="46.29973" lon="10.56329">
        <ele>2298.425</ele>
        <time>2018-08-10T17:26:55Z</time>
      </trkpt>
      <trkpt lat="46.2997" lon="10.56329">
        <ele>2299.208</ele>
        <time>2018-08-10T17:27:15Z</time>
      </trkpt>
      <trkpt lat="46.29967" lon="10.5633">
        <ele>2300.191</ele>
        <time>2018-08-10T17:27:35Z</time>
      </trkpt>
      <trkpt lat="46.29965" lon="10.56332">
        <ele>2301.226</ele>
        <time>2018-08-10T17:27:55Z</time>
      </trkpt>
      <trkpt lat="46.29964" lon="10.56336">
        <ele>2302.782</ele>
        <time>2018-08-10T17:28:15Z</time>
      </trkpt>
      <trkpt lat="46.29962" lon="10.56339">
        <ele>2304.166</ele>
        <time>2018-08-10T17:28:35Z</time>
      </trkpt>
      <trkpt lat="46.29962" lon="10.56343">
        <ele>2305.641</ele>
        <time>2018-08-10T17:28:55Z</time>
      </trkpt>
      <trkpt lat="46.29961" lon="10.56347">
        <ele>2307.192</ele>
        <time>2018-08-10T17:29:15Z</time>
      </trkpt>
      <trkpt lat="46.2996" lon="10.56351">
        <ele>2308.549</ele>
        <time>2018-08-10T17:29:35Z</time>
      </trkpt>
      <trkpt lat="46.2996" lon="10.56355">
        <ele>2309.962</ele>
        <time>2018-08-10T17:29:55Z</time>
      </trkpt>
      <trkpt lat="46.29959" lon="10.56358">
        <ele>2311.088</ele>
        <time>2018-08-10T17:30:15Z</time>
      </trkpt>
      <trkpt lat="46.29958" lon="10.56361">
        <ele>2312.024</ele>
        <time>2018-08-10T17:30:35Z</time>
      </trkpt>
      <trkpt lat="46.29956" lon="10.56365">
        <ele>2313.126</ele>
        <time>2018-08-10T17:30:55Z</time>
      </trkpt>
      <trkpt lat="46.29954" lon="10.56368">
        <ele>2313.908</ele>
        <time>2018-08-10T17:31:15Z</time>
      </trkpt>
      <trkpt lat="46.29953" lon="10.5637">
        <ele>2314.65</ele>
        <time>2018-08-10T17:31:35Z</time>
      </trkpt>
      <trkpt lat="46.29951" lon="10.56373">
        <ele>2315.265</ele>
        <time>2018-08-10T17:31:55Z</time>
      </trkpt>
      <trkpt lat="46.29949" lon="10.56376">
        <ele>2315.731</ele>
        <time>2018-08-10T17:32:15Z</time>
      </trkpt>
      <trkpt lat="46.29947" lon="10.56379">
        <ele>2316.215</ele>
        <time>2018-08-10T17:32:35Z</time>
      </trkpt>
      <trkpt lat="46.29945" lon="10.56382">
        <ele>2316.64</ele>
        <time>2018-08-10T17:32:55Z</time>
      </trkpt>
      <trkpt lat="46.29944" lon="10.56385">
        <ele>2317.041</ele>
        <time>2018-08-10T17:33:15Z</time>
      </trkpt>
      <trkpt lat="46.29943" lon="10.56388">
        <ele>2317.728</ele>
        <time>2018-08-10T17:33:35Z</time>
      </trkpt>
      <trkpt lat="46.29941" lon="10.56391">
        <ele>2318.251</ele>
        <time>2018-08-10T17:33:55Z</time>
      </trkpt>
      <trkpt lat="46.2994" lon="10.56393">
        <ele>2318.794</ele>
        <time>2018-08-10T17:34:15Z</time>
      </trkpt>
      <trkpt lat="46.29938" lon="10.56395">
        <ele>2319.057</ele>
        <time>2018-08-10T17:34:35Z</time>
      </trkpt>
      <trkpt lat="46.29936" lon="10.56396">
        <ele>2319.222</ele>
        <time>2018-08-10T17:34:55Z</time>
      </trkpt>
      <trkpt lat="46.29932" lon="10.56394">
        <ele>2318.908</ele>
        <time>2018-08-10T17:35:15Z</time>
      </trkpt>
      <trkpt lat="46.29931" lon="10.56393">
        <ele>2318.761</ele>
        <time>2018-08-10T17:35:35Z</time>
      </trkpt>
      <trkpt lat="46.29929" lon="10.56392">
        <ele>2318.546</ele>
        <time>2018-08-10T17:35:55Z</time>
      </trkpt>
      <trkpt lat="46.29927" lon="10.56391">
        <ele>2318.352</ele>
        <time>2018-08-10T17:36:15Z</time>
      </trkpt>
      <trkpt lat="46.29927" lon="10.56391">
        <ele>2318.396</ele>
        <time>2018-08-10T17:36:35Z</time>
      </trkpt>
      <trkpt lat="46.29925" lon="10.5639">
        <ele>2318.281</ele>
        <time>2018-08-10T17:36:55Z</time>
      </trkpt>
      <trkpt lat="46.29923" lon="10.5639">
        <ele>2318.182</ele>
        <time>2018-08-10T17:37:15Z</time>
      </trkpt>
      <trkpt lat="46.29921" lon="10.5639">
        <ele>2318.289</ele>
        <time>2018-08-10T17:37:35Z</time>
      </trkpt>
      <trkpt lat="46.29919" lon="10.5639">
        <ele>2318.222</ele>
        <time>2018-08-10T17:37:55Z</time>
      </trkpt>
      <trkpt lat="46.29916" lon="10.56391">
        <ele>2318.479</ele>
        <time>2018-08-10T17:38:15Z</time>
      </trkpt>
      <trkpt lat="46.29914" lon="10.56392">
        <ele>2319.005</ele>
        <time>2018-08-10T17:38:35Z</time>
      </trkpt>
      <trkpt lat="46.29913" lon="10.56392">
        <ele>2319.025</ele>
        <time>2018-08-10T17:38:55Z</time>
      </trkpt>
      <trkpt lat="46.29895" lon="10.56398">
        <ele>2323.508</ele>
        <time>2018-08-10T17:39:15Z</time>
      </trkpt>
      <trkpt lat="46.29892" lon="10.56398">
        <ele>2324.059</ele>
        <time>2018-08-10T17:39:35Z</time>
      </trkpt>
      <trkpt lat="46.2989" lon="10.56399">
        <ele>2324.684</ele>
        <time>2018-08-10T17:39:55Z</time>
      </trkpt>
      <trkpt lat="46.29887" lon="10.56399">
        <ele>2325.15</ele>
        <time>2018-08-10T17:40:15Z</time>
      </trkpt>
      <trkpt lat="46.29885" lon="10.564">
        <ele>2325.554</ele>
        <time>2018-08-10T17:40:35Z</time>
      </trkpt>
      <trkpt lat="46.29882" lon="10.56401">
        <ele>2325.929</ele>
        <time>2018-08-10T17:40:55Z</time>
      </trkpt>
      <trkpt lat="46.2988" lon="10.56401">
        <ele>2326.48</ele>
        <time>2018-08-10T17:41:15Z</time>
      </trkpt>
      <trkpt lat="46.29877" lon="10.56402">
        <ele>2326.957</ele>
        <time>2018-08-10T17:41:35Z</time>
      </trkpt>
      <trkpt lat="46.29875" lon="10.56404">
        <ele>2327.45</ele>
        <time>2018-08-10T17:41:55Z</time>
      </trkpt>
      <trkpt lat="46.29872" lon="10.56406">
        <ele>2328.069</ele>
        <time>2018-08-10T17:42:15Z</time>
      </trkpt>
      <trkpt lat="46.2987" lon="10.56408">
        <ele>2328.704</ele>
        <time>2018-08-10T17:42:35Z</time>
      </trkpt>
      <trkpt lat="46.29868" lon="10.56411">
        <ele>2329.324</ele>
        <time>2018-08-10T17:42:55Z</time>
      </trkpt>
      <trkpt lat="46.29866" lon="10.56414">
        <ele>2329.908</ele>
        <time>2018-08-10T17:43:15Z</time>
      </trkpt>
      <trkpt lat="46.29864" lon="10.56417">
        <ele>2330.628</ele>
        <time>2018-08-10T17:43:35Z</time>
      </trkpt>
      <trkpt lat="46.29862" lon="10.5642">
        <ele>2331.343</ele>
        <time>2018-08-10T17:43:55Z</time>
      </trkpt>
      <trkpt lat="46.2986" lon="10.56423">
        <ele>2332.059</ele>
        <time>2018-08-10T17:44:15Z</time>
      </trkpt>
      <trkpt lat="46.29858" lon="10.56427">
        <ele>2332.583</ele>
        <time>2018-08-10T17:44:35Z</time>
      </trkpt>
      <trkpt lat="46.29856" lon="10.5643">
        <ele>2333.168</ele>
        <time>2018-08-10T17:44:55Z</time>
      </trkpt>
      <trkpt lat="46.29854" lon="10.56432">
        <ele>2333.579</ele>
        <time>2018-08-10T17:45:15Z</time>
      </trkpt>
      <trkpt lat="46.29853" lon="10.56435">
        <ele>2334.036</ele>
        <time>2018-08-10T17:45:35Z</time>
      </trkpt>
      <trkpt lat="46.29851" lon="10.56438">
        <ele>2334.419</ele>
        <time>2018-08-10T17:45:55Z</time>
      </trkpt>
      <trkpt lat="46.2985" lon="10.56441">
        <ele>2334.978</ele>
        <time>2018-08-10T17:46:15Z</time>
      </trkpt>
      <trkpt lat="46.29849" lon="10.56444">
        <ele>2335.333</ele>
        <time>2018-08-10T17:46:35Z</time>
      </trkpt>
      <trkpt lat="46.29848" lon="10.56448">
        <ele>2335.826</ele>
        <time>2018-08-10T17:46:55Z</time>
      </trkpt>
      <trkpt lat="46.29847" lon="10.56452">
        <ele>2336.208</ele>
        <time>2018-08-10T17:47:15Z</time>
      </trkpt>
      <trkpt lat="46.29847" lon="10.56456">
        <ele>2336.729</ele>
        <time>2018-08-10T17:47:35Z</time>
      </trkpt>
      <trkpt lat="46.29847" lon="10.56459">
        <ele>2337.194</ele>
        <time>2018-08-10T17:47:55Z</time>
      </trkpt>
      <trkpt lat="46.29847" lon="10.56463">
        <ele>2337.55</ele>
        <time>2018-08-10T17:48:15Z</time>
      </trkpt>
      <trkpt lat="46.29847" lon="10.56467">
        <ele>2337.884</ele>
        <time>2018-08-10T17:48:35Z</time>
      </trkpt>
      <trkpt lat="46.29848" lon="10.5647">
        <ele>2338.259</ele>
        <time>2018-08-10T17:48:55Z</time>
      </trkpt>
      <trkpt lat="46.29848" lon="10.56474">
        <ele>2338.63</ele>
        <time>2018-08-10T17:49:15Z</time>
      </trkpt>
      <trkpt lat="46.29849" lon="10.56477">
        <ele>2339.167</ele>
        <time>2018-08-10T17:49:35Z</time>
      </trkpt>
      <trkpt lat="46.29849" lon="10.56481">
        <ele>2339.62</ele>
        <time>2018-08-10T17:49:55Z</time>
      </trkpt>
      <trkpt lat="46.2985" lon="10.56484">
        <ele>2340.169</ele>
        <time>2018-08-10T17:50:15Z</time>
      </trkpt>
      <trkpt lat="46.2985" lon="10.56488">
        <ele>2340.604</ele>
        <time>2018-08-10T17:50:35Z</time>
      </trkpt>
      <trkpt lat="46.2985" lon="10.56491">
        <ele>2341.124</ele>
        <time>2018-08-10T17:50:55Z</time>
      </trkpt>
      <trkpt lat="46.2985" lon="10.56495">
        <ele>2341.608</ele>
        <time>2018-08-10T17:51:15Z</time>
      </trkpt>
      <trkpt lat="46.29849" lon="10.56497">
        <ele>2342.078</ele>
        <time>2018-08-10T17:51:35Z</time>
      </trkpt>
      <trkpt lat="46.29848" lon="10.565">
        <ele>2342.413</ele>
        <time>2018-08-10T17:51:55Z</time>
      </trkpt>
      <trkpt lat="46.29846" lon="10.56502">
        <ele>2342.719</ele>
        <time>2018-08-10T17:52:15Z</time>
      </trkpt>
      <trkpt lat="46.29844" lon="10.56503">
        <ele>2342.973</ele>
        <time>2018-08-10T17:52:35Z</time>
      </trkpt>
      <trkpt lat="46.29841" lon="10.56505">
        <ele>2343.248</ele>
        <time>2018-08-10T17:52:55Z</time>
      </trkpt>
      <trkpt lat="46.29839" lon="10.56507">
        <ele>2343.599</ele>
        <time>2018-08-10T17:53:15Z</time>
      </trkpt>
      <trkpt lat="46.29837" lon="10.56508">
        <ele>2343.746</ele>
        <time>2018-08-10T17:53:35Z</time>
      </trkpt>
      <trkpt lat="46.29835" lon="10.5651">
        <ele>2344.029</ele>
        <time>2018-08-10T17:53:55Z</time>
      </trkpt>
      <trkpt lat="46.29833" lon="10.56512">
        <ele>2344.238</ele>
        <time>2018-08-10T17:54:15Z</time>
      </trkpt>
      <trkpt lat="46.29831" lon="10.56514">
        <ele>2344.37</ele>
        <time>2018-08-10T17:54:35Z</time>
      </trkpt>
      <trkpt lat="46.29829" lon="10.56515">
        <ele>2344.417</ele>
        <time>2018-08-10T17:54:55Z</time>
      </trkpt>
      <trkpt lat="46.29827" lon="10.56517">
        <ele>2344.608</ele>
        <time>2018-08-10T17:55:15Z</time>
      </trkpt>
      <trkpt lat="46.29825" lon="10.56519">
        <ele>2344.775</ele>
        <time>2018-08-10T17:55:35Z</time>
      </trkpt>
      <trkpt lat="46.29823" lon="10.56521">
        <ele>2344.93</ele>
        <time>2018-08-10T17:55:55Z</time>
      </trkpt>
      <trkpt lat="46.29821" lon="10.56523">
        <ele>2345.026</ele>
        <time>2018-08-10T17:56:15Z</time>
      </trkpt>
      <trkpt lat="46.29819" lon="10.56525">
        <ele>2345.26</ele>
        <time>2018-08-10T17:56:35Z</time>
      </trkpt>
      <trkpt lat="46.29817" lon="10.56527">
        <ele>2345.315</ele>
        <time>2018-08-10T17:56:55Z</time>
      </trkpt>
      <trkpt lat="46.29815" lon="10.5653">
        <ele>2345.686</ele>
        <time>2018-08-10T17:57:15Z</time>
      </trkpt>
      <trkpt lat="46.29813" lon="10.56532">
        <ele>2345.893</ele>
        <time>2018-08-10T17:57:35Z</time>
      </trkpt>
      <trkpt lat="46.29811" lon="10.56534">
        <ele>2346.156</ele>
        <time>2018-08-10T17:57:55Z</time>
      </trkpt>
      <trkpt lat="46.29809" lon="10.56537">
        <ele>2346.384</ele>
        <time>2018-08-10T17:58:15Z</time>
      </trkpt>
      <trkpt lat="46.29807" lon="10.56539">
        <ele>2346.607</ele>
        <time>2018-08-10T17:58:35Z</time>
      </trkpt>
      <trkpt lat="46.29805" lon="10.56541">
        <ele>2346.917</ele>
        <time>2018-08-10T17:58:55Z</time>
      </trkpt>
      <trkpt lat="46.29804" lon="10.56545">
        <ele>2347.508</ele>
        <time>2018-08-10T17:59:15Z</time>
      </trkpt>
      <trkpt lat="46.29804" lon="10.5655">
        <ele>2348.22</ele>
        <time>2018-08-10T17:59:35Z</time>
      </trkpt>
      <trkpt lat="46.29806" lon="10.56553">
        <ele>2348.675</ele>
        <time>2018-08-10T17:59:55Z</time>
      </trkpt>
      <trkpt lat="46.29808" lon="10.56555">
        <ele>2349.061</ele>
        <time>2018-08-10T18:00:15Z</time>
      </trkpt>
      <trkpt lat="46.2981" lon="10.56557">
        <ele>2349.325</ele>
        <time>2018-08-10T18:00:35Z</time>
      </trkpt>
      <trkpt lat="46.29812" lon="10.56558">
        <ele>2349.51</ele>
        <time>2018-08-10T18:00:55Z</time>
      </trkpt>
      <trkpt lat="46.29815" lon="10.56559">
        <ele>2349.791</ele>
        <time>2018-08-10T18:01:15Z</time>
      </trkpt>
      <trkpt lat="46.29817" lon="10.5656">
        <ele>2350.098</ele>
        <time>2018-08-10T18:01:35Z</time>
      </trkpt>
      <trkpt lat="46.29819" lon="10.56561">
        <ele>2350.241</ele>
        <time>2018-08-10T18:01:55Z</time>
      </trkpt>
      <trkpt lat="46.29821" lon="10.56562">
        <ele>2350.417</ele>
        <time>2018-08-10T18:02:15Z</time>
      </trkpt>
      <trkpt lat="46.29824" lon="10.56563">
        <ele>2350.787</ele>
        <time>2018-08-10T18:02:35Z</time>
      </trkpt>
      <trkpt lat="46.29826" lon="10.56564">
        <ele>2350.915</ele>
        <time>2018-08-10T18:02:55Z</time>
      </trkpt>
      <trkpt lat="46.29919" lon="10.56623">
        <ele>2365.408</ele>
        <time>2018-08-10T18:03:15Z</time>
      </trkpt>
      <trkpt lat="46.2992" lon="10.56623">
        <ele>2365.633</ele>
        <time>2018-08-10T18:03:35Z</time>
      </trkpt>
      <trkpt lat="46.29922" lon="10.56625">
        <ele>2366.288</ele>
        <time>2018-08-10T18:03:55Z</time>
      </trkpt>
      <trkpt lat="46.29924" lon="10.56627">
        <ele>2366.834</ele>
        <time>2018-08-10T18:04:15Z</time>
      </trkpt>
      <trkpt lat="46.29926" lon="10.56628">
        <ele>2367.518</ele>
        <time>2018-08-10T18:04:35Z</time>
      </trkpt>
      <trkpt lat="46.29928" lon="10.5663">
        <ele>2368.273</ele>
        <time>2018-08-10T18:04:55Z</time>
      </trkpt>
      <trkpt lat="46.29929" lon="10.56631">
        <ele>2368.314</ele>
        <time>2018-08-10T18:05:15Z</time>
      </trkpt>
      <trkpt lat="46.2993" lon="10.56632">
        <ele>2368.961</ele>
        <time>2018-08-10T18:05:35Z</time>
      </trkpt>
      <trkpt lat="46.29933" lon="10.56634">
        <ele>2369.724</ele>
        <time>2018-08-10T18:05:55Z</time>
      </trkpt>
      <trkpt lat="46.29935" lon="10.56635">
        <ele>2370.414</ele>
        <time>2018-08-10T18:06:15Z</time>
      </trkpt>
      <trkpt lat="46.29938" lon="10.56636">
        <ele>2371.154</ele>
        <time>2018-08-10T18:06:35Z</time>
      </trkpt>
      <trkpt lat="46.29941" lon="10.56637">
        <ele>2371.809</ele>
        <time>2018-08-10T18:06:55Z</time>
      </trkpt>
      <trkpt lat="46.29943" lon="10.56638">
        <ele>2372.408</ele>
        <time>2018-08-10T18:07:15Z</time>
      </trkpt>
      <trkpt lat="46.29946" lon="10.56639">
        <ele>2372.793</ele>
        <time>2018-08-10T18:07:35Z</time>
      </trkpt>
      <trkpt lat="46.29948" lon="10.5664">
        <ele>2372.658</ele>
        <time>2018-08-10T18:07:55Z</time>
      </trkpt>
      <trkpt lat="46.29949" lon="10.56641">
        <ele>2372.534</ele>
        <time>2018-08-10T18:08:15Z</time>
      </trkpt>
      <trkpt lat="46.29951" lon="10.56643">
        <ele>2372.648</ele>
        <time>2018-08-10T18:08:35Z</time>
      </trkpt>
      <trkpt lat="46.29953" lon="10.56646">
        <ele>2372.963</ele>
        <time>2018-08-10T18:08:55Z</time>
      </trkpt>
      <trkpt lat="46.29954" lon="10.56649">
        <ele>2373.384</ele>
        <time>2018-08-10T18:09:15Z</time>
      </trkpt>
      <trkpt lat="46.29954" lon="10.56652">
        <ele>2373.851</ele>
        <time>2018-08-10T18:09:35Z</time>
      </trkpt>
      <trkpt lat="46.29955" lon="10.56655">
        <ele>2374.444</ele>
        <time>2018-08-10T18:09:55Z</time>
      </trkpt>
      <trkpt lat="46.29955" lon="10.56658">
        <ele>2375.065</ele>
        <time>2018-08-10T18:10:15Z</time>
      </trkpt>
      <trkpt lat="46.29955" lon="10.56661">
        <ele>2375.768</ele>
        <time>2018-08-10T18:10:35Z</time>
      </trkpt>
      <trkpt lat="46.29954" lon="10.56665">
        <ele>2376.514</ele>
        <time>2018-08-10T18:10:55Z</time>
      </trkpt>
      <trkpt lat="46.29954" lon="10.56668">
        <ele>2377.108</ele>
        <time>2018-08-10T18:11:15Z</time>
      </trkpt>
      <trkpt lat="46.29953" lon="10.56671">
        <ele>2377.698</ele>
        <time>2018-08-10T18:11:35Z</time>
      </trkpt>
      <trkpt lat="46.29952" lon="10.56674">
        <ele>2378.253</ele>
        <time>2018-08-10T18:11:55Z</time>
      </trkpt>
      <trkpt lat="46.29951" lon="10.56678">
        <ele>2378.789</ele>
        <time>2018-08-10T18:12:15Z</time>
      </trkpt>
      <trkpt lat="46.29951" lon="10.56681">
        <ele>2379.253</ele>
        <time>2018-08-10T18:12:35Z</time>
      </trkpt>
      <trkpt lat="46.2995" lon="10.56685">
        <ele>2379.858</ele>
        <time>2018-08-10T18:12:55Z</time>
      </trkpt>
      <trkpt lat="46.29949" lon="10.56688">
        <ele>2380.439</ele>
        <time>2018-08-10T18:13:15Z</time>
      </trkpt>
      <trkpt lat="46.29948" lon="10.56691">
        <ele>2381.076</ele>
        <time>2018-08-10T18:13:35Z</time>
      </trkpt>
      <trkpt lat="46.29947" lon="10.56695">
        <ele>2381.679</ele>
        <time>2018-08-10T18:13:55Z</time>
      </trkpt>
      <trkpt lat="46.29946" lon="10.56698">
        <ele>2382.046</ele>
        <time>2018-08-10T18:14:15Z</time>
      </trkpt>
      <trkpt lat="46.29945" lon="10.567">
        <ele>2382.588</ele>
        <time>2018-08-10T18:14:35Z</time>
      </trkpt>
      <trkpt lat="46.29943" lon="10.56702">
        <ele>2382.716</ele>
        <time>2018-08-10T18:14:55Z</time>
      </trkpt>
      <trkpt lat="46.29941" lon="10.56704">
        <ele>2382.608</ele>
        <time>2018-08-10T18:15:15Z</time>
      </trkpt>
      <trkpt lat="46.29939" lon="10.56705">
        <ele>2382.536</ele>
        <time>2018-08-10T18:15:35Z</time>
      </trkpt>
      <trkpt lat="46.29937" lon="10.56707">
        <ele>2382.321</ele>
        <time>2018-08-10T18:15:55Z</time>
      </trkpt>
      <trkpt lat="46.29935" lon="10.56708">
        <ele>2382.397</ele>
        <time>2018-08-10T18:16:15Z</time>
      </trkpt>
      <trkpt lat="46.29933" lon="10.56711">
        <ele>2382.371</ele>
        <time>2018-08-10T18:16:35Z</time>
      </trkpt>
      <trkpt lat="46.29932" lon="10.56713">
        <ele>2382.556</ele>
        <time>2018-08-10T18:16:55Z</time>
      </trkpt>
      <trkpt lat="46.2993" lon="10.56716">
        <ele>2382.627</ele>
        <time>2018-08-10T18:17:15Z</time>
      </trkpt>
      <trkpt lat="46.29929" lon="10.56719">
        <ele>2382.954</ele>
        <time>2018-08-10T18:17:35Z</time>
      </trkpt>
      <trkpt lat="46.29928" lon="10.56722">
        <ele>2383.117</ele>
        <time>2018-08-10T18:17:55Z</time>
      </trkpt>
      <trkpt lat="46.29927" lon="10.56725">
        <ele>2383.361</ele>
        <time>2018-08-10T18:18:15Z</time>
      </trkpt>
      <trkpt lat="46.29926" lon="10.56728">
        <ele>2383.521</ele>
        <time>2018-08-10T18:18:35Z</time>
      </trkpt>
      <trkpt lat="46.29924" lon="10.56731">
        <ele>2383.813</ele>
        <time>2018-08-10T18:18:55Z</time>
      </trkpt>
      <trkpt lat="46.29923" lon="10.56734">
        <ele>2384.008</ele>
        <time>2018-08-10T18:19:15Z</time>
      </trkpt>
      <trkpt lat="46.29922" lon="10.56737">
        <ele>2384.278</ele>
        <time>2018-08-10T18:19:35Z</time>
      </trkpt>
      <trkpt lat="46.29921" lon="10.5674">
        <ele>2384.573</ele>
        <time>2018-08-10T18:19:55Z</time>
      </trkpt>
      <trkpt lat="46.29921" lon="10.56744">
        <ele>2384.889</ele>
        <time>2018-08-10T18:20:15Z</time>
      </trkpt>
      <trkpt lat="46.2992" lon="10.56747">
        <ele>2385.133</ele>
        <time>2018-08-10T18:20:35Z</time>
      </trkpt>
      <trkpt lat="46.2992" lon="10.56751">
        <ele>2385.528</ele>
        <time>2018-08-10T18:20:55Z</time>
      </trkpt>
      <trkpt lat="46.29919" lon="10.56754">
        <ele>2385.919</ele>
        <time>2018-08-10T18:21:15Z</time>
      </trkpt>
      <trkpt lat="46.29919" lon="10.56758">
        <ele>2386.436</ele>
        <time>2018-08-10T18:21:35Z</time>
      </trkpt>
      <trkpt lat="46.29919" lon="10.56761">
        <ele>2386.989</ele>
        <time>2018-08-10T18:21:55Z</time>
      </trkpt>
      <trkpt lat="46.29918" lon="10.56765">
        <ele>2387.354</ele>
        <time>2018-08-10T18:22:15Z</time>
      </trkpt>
      <trkpt lat="46.29918" lon="10.56768">
        <ele>2387.856</ele>
        <time>2018-08-10T18:22:35Z</time>
      </trkpt>
      <trkpt lat="46.29918" lon="10.56772">
        <ele>2388.311</ele>
        <time>2018-08-10T18:22:55Z</time>
      </trkpt>
      <trkpt lat="46.29919" lon="10.56775">
        <ele>2388.908</ele>
        <time>2018-08-10T18:23:15Z</time>
      </trkpt>
      <trkpt lat="46.29919" lon="10.56779">
        <ele>2389.487</ele>
        <time>2018-08-10T18:23:35Z</time>
      </trkpt>
      <trkpt lat="46.29919" lon="10.56782">
        <ele>2390.072</ele>
        <time>2018-08-10T18:23:55Z</time>
      </trkpt>
      <trkpt lat="46.2992" lon="10.56786">
        <ele>2390.678</ele>
        <time>2018-08-10T18:24:15Z</time>
      </trkpt>
      <trkpt lat="46.29922" lon="10.56789">
        <ele>2391.312</ele>
        <time>2018-08-10T18:24:35Z</time>
      </trkpt>
      <trkpt lat="46.29923" lon="10.56791">
        <ele>2391.987</ele>
        <time>2018-08-10T18:24:55Z</time>
      </trkpt>
      <trkpt lat="46.29925" lon="10.56794">
        <ele>2392.568</ele>
        <time>2018-08-10T18:25:15Z</time>
      </trkpt>
      <trkpt lat="46.29927" lon="10.56796">
        <ele>2393.135</ele>
        <time>2018-08-10T18:25:35Z</time>
      </trkpt>
      <trkpt lat="46.29929" lon="10.56798">
        <ele>2393.778</ele>
        <time>2018-08-10T18:25:55Z</time>
      </trkpt>
      <trkpt lat="46.29931" lon="10.568">
        <ele>2394.246</ele>
        <time>2018-08-10T18:26:15Z</time>
      </trkpt>
      <trkpt lat="46.29941" lon="10.56808">
        <ele>2396.988</ele>
        <time>2018-08-10T18:26:35Z</time>
      </trkpt>
      <trkpt lat="46.29942" lon="10.56808">
        <ele>2397.116</ele>
        <time>2018-08-10T18:26:55Z</time>
      </trkpt>
      <trkpt lat="46.29944" lon="10.56809">
        <ele>2397.708</ele>
        <time>2018-08-10T18:27:15Z</time>
      </trkpt>
      <trkpt lat="46.29946" lon="10.5681">
        <ele>2397.916</ele>
        <time>2018-08-10T18:27:35Z</time>
      </trkpt>
      <trkpt lat="46.29949" lon="10.56811">
        <ele>2398.271</ele>
        <time>2018-08-10T18:27:55Z</time>
      </trkpt>
      <trkpt lat="46.29953" lon="10.56811">
        <ele>2398.397</ele>
        <time>2018-08-10T18:28:15Z</time>
      </trkpt>
      <trkpt lat="46.29964" lon="10.56814">
        <ele>2399.331</ele>
        <time>2018-08-10T18:28:35Z</time>
      </trkpt>
      <trkpt lat="46.29966" lon="10.56815">
        <ele>2399.646</ele>
        <time>2018-08-10T18:28:55Z</time>
      </trkpt>
      <trkpt lat="46.29968" lon="10.56816">
        <ele>2399.977</ele>
        <time>2018-08-10T18:29:15Z</time>
      </trkpt>
      <trkpt lat="46.29969" lon="10.56817">
        <ele>2400.234</ele>
        <time>2018-08-10T18:29:35Z</time>
      </trkpt>
      <trkpt lat="46.29971" lon="10.56818">
        <ele>2400.537</ele>
        <time>2018-08-10T18:29:55Z</time>
      </trkpt>
      <trkpt lat="46.29973" lon="10.56819">
        <ele>2400.848</ele>
        <time>2018-08-10T18:30:15Z</time>
      </trkpt>
      <trkpt lat="46.29975" lon="10.5682">
        <ele>2401.361</ele>
        <time>2018-08-10T18:30:35Z</time>
      </trkpt>
      <trkpt lat="46.29977" lon="10.56821">
        <ele>2401.717</ele>
        <time>2018-08-10T18:30:55Z</time>
      </trkpt>
      <trkpt lat="46.29979" lon="10.56822">
        <ele>2402.108</ele>
        <time>2018-08-10T18:31:15Z</time>
      </trkpt>
      <trkpt lat="46.29981" lon="10.56822">
        <ele>2402.486</ele>
        <time>2018-08-10T18:31:35Z</time>
      </trkpt>
      <trkpt lat="46.29983" lon="10.56822">
        <ele>2402.791</ele>
        <time>2018-08-10T18:31:55Z</time>
      </trkpt>
      <trkpt lat="46.29985" lon="10.56822">
        <ele>2402.877</ele>
        <time>2018-08-10T18:32:15Z</time>
      </trkpt>
      <trkpt lat="46.29987" lon="10.56822">
        <ele>2402.921</ele>
        <time>2018-08-10T18:32:35Z</time>
      </trkpt>
      <trkpt lat="46.29989" lon="10.56822">
        <ele>2403.086</ele>
        <time>2018-08-10T18:32:55Z</time>
      </trkpt>
      <trkpt lat="46.29991" lon="10.56821">
        <ele>2403.067</ele>
        <time>2018-08-10T18:33:15Z</time>
      </trkpt>
      <trkpt lat="46.29993" lon="10.56821">
        <ele>2402.834</ele>
        <time>2018-08-10T18:33:35Z</time>
      </trkpt>
      <trkpt lat="46.29995" lon="10.5682">
        <ele>2402.657</ele>
        <time>2018-08-10T18:33:55Z</time>
      </trkpt>
      <trkpt lat="46.29997" lon="10.56819">
        <ele>2402.333</ele>
        <time>2018-08-10T18:34:15Z</time>
      </trkpt>
      <trkpt lat="46.29999" lon="10.56817">
        <ele>2402.023</ele>
        <time>2018-08-10T18:34:35Z</time>
      </trkpt>
      <trkpt lat="46.30001" lon="10.56816">
        <ele>2401.815</ele>
        <time>2018-08-10T18:34:55Z</time>
      </trkpt>
      <trkpt lat="46.30003" lon="10.56815">
        <ele>2402.008</ele>
        <time>2018-08-10T18:35:15Z</time>
      </trkpt>
      <trkpt lat="46.30005" lon="10.56814">
        <ele>2402.235</ele>
        <time>2018-08-10T18:35:35Z</time>
      </trkpt>
      <trkpt lat="46.30007" lon="10.56813">
        <ele>2402.58</ele>
        <time>2018-08-10T18:35:55Z</time>
      </trkpt>
      <trkpt lat="46.3001" lon="10.56812">
        <ele>2403.046</ele>
        <time>2018-08-10T18:36:15Z</time>
      </trkpt>
      <trkpt lat="46.30012" lon="10.56811">
        <ele>2403.62</ele>
        <time>2018-08-10T18:36:35Z</time>
      </trkpt>
      <trkpt lat="46.30015" lon="10.56811">
        <ele>2404.435</ele>
        <time>2018-08-10T18:36:55Z</time>
      </trkpt>
      <trkpt lat="46.30017" lon="10.56811">
        <ele>2405.386</ele>
        <time>2018-08-10T18:37:15Z</time>
      </trkpt>
      <trkpt lat="46.3002" lon="10.56811">
        <ele>2406.393</ele>
        <time>2018-08-10T18:37:35Z</time>
      </trkpt>
      <trkpt lat="46.30022" lon="10.56812">
        <ele>2407.396</ele>
        <time>2018-08-10T18:37:55Z</time>
      </trkpt>
      <trkpt lat="46.30025" lon="10.56812">
        <ele>2408.383</ele>
        <time>2018-08-10T18:38:15Z</time>
      </trkpt>
      <trkpt lat="46.30027" lon="10.56813">
        <ele>2409.325</ele>
        <time>2018-08-10T18:38:35Z</time>
      </trkpt>
      <trkpt lat="46.3003" lon="10.56813">
        <ele>2409.917</ele>
        <time>2018-08-10T18:38:55Z</time>
      </trkpt>
      <trkpt lat="46.30032" lon="10.56814">
        <ele>2410.508</ele>
        <time>2018-08-10T18:39:15Z</time>
      </trkpt>
      <trkpt lat="46.30034" lon="10.56815">
        <ele>2411.27</ele>
        <time>2018-08-10T18:39:35Z</time>
      </trkpt>
      <trkpt lat="46.30037" lon="10.56817">
        <ele>2411.845</ele>
        <time>2018-08-10T18:39:55Z</time>
      </trkpt>
      <trkpt lat="46.30039" lon="10.56817">
        <ele>2412.361</ele>
        <time>2018-08-10T18:40:15Z</time>
      </trkpt>
      <trkpt lat="46.30042" lon="10.56818">
        <ele>2412.755</ele>
        <time>2018-08-10T18:40:35Z</time>
      </trkpt>
      <trkpt lat="46.30044" lon="10.56818">
        <ele>2412.91</ele>
        <time>2018-08-10T18:40:55Z</time>
      </trkpt>
      <trkpt lat="46.30047" lon="10.56818">
        <ele>2413.231</ele>
        <time>2018-08-10T18:41:15Z</time>
      </trkpt>
      <trkpt lat="46.30049" lon="10.56818">
        <ele>2413.598</ele>
        <time>2018-08-10T18:41:35Z</time>
      </trkpt>
      <trkpt lat="46.30051" lon="10.56819">
        <ele>2413.871</ele>
        <time>2018-08-10T18:41:55Z</time>
      </trkpt>
      <trkpt lat="46.30054" lon="10.56819">
        <ele>2414.226</ele>
        <time>2018-08-10T18:42:15Z</time>
      </trkpt>
      <trkpt lat="46.30056" lon="10.5682">
        <ele>2414.647</ele>
        <time>2018-08-10T18:42:35Z</time>
      </trkpt>
      <trkpt lat="46.30058" lon="10.56821">
        <ele>2415.011</ele>
        <time>2018-08-10T18:42:55Z</time>
      </trkpt>
      <trkpt lat="46.3006" lon="10.56822">
        <ele>2415.408</ele>
        <time>2018-08-10T18:43:15Z</time>
      </trkpt>
      <trkpt lat="46.30062" lon="10.56823">
        <ele>2415.994</ele>
        <time>2018-08-10T18:43:35Z</time>
      </trkpt>
      <trkpt lat="46.30065" lon="10.56825">
        <ele>2416.459</ele>
        <time>2018-08-10T18:43:55Z</time>
      </trkpt>
      <trkpt lat="46.30065" lon="10.56825">
        <ele>2416.425</ele>
        <time>2018-08-10T18:44:15Z</time>
      </trkpt>
      <trkpt lat="46.30086" lon="10.5682">
        <ele>2416.629</ele>
        <time>2018-08-10T18:44:35Z</time>
      </trkpt>
      <trkpt lat="46.30097" lon="10.5682">
        <ele>2417.084</ele>
        <time>2018-08-10T18:44:55Z</time>
      </trkpt>
      <trkpt lat="46.30121" lon="10.56823">
        <ele>2419.025</ele>
        <time>2018-08-10T18:45:15Z</time>
      </trkpt>
      <trkpt lat="46.30135" lon="10.5683">
        <ele>2421.292</ele>
        <time>2018-08-10T18:45:35Z</time>
      </trkpt>
      <trkpt lat="46.30149" lon="10.56834">
        <ele>2422.935</ele>
        <time>2018-08-10T18:45:55Z</time>
      </trkpt>
      <trkpt lat="46.30174" lon="10.56831">
        <ele>2424.317</ele>
        <time>2018-08-10T18:46:15Z</time>
      </trkpt>
      <trkpt lat="46.30203" lon="10.56816">
        <ele>2425.587</ele>
        <time>2018-08-10T18:46:35Z</time>
      </trkpt>
      <trkpt lat="46.30215" lon="10.56812">
        <ele>2425.915</ele>
        <time>2018-08-10T18:46:55Z</time>
      </trkpt>
      <trkpt lat="46.3023" lon="10.56813">
        <ele>2428.008</ele>
        <time>2018-08-10T18:47:15Z</time>
      </trkpt>
      <trkpt lat="46.3024" lon="10.56814">
        <ele>2429.463</ele>
        <time>2018-08-10T18:47:35Z</time>
      </trkpt>
      <trkpt lat="46.30255" lon="10.56806">
        <ele>2428.528</ele>
        <time>2018-08-10T18:47:55Z</time>
      </trkpt>
      <trkpt lat="46.30268" lon="10.56803">
        <ele>2432.554</ele>
        <time>2018-08-10T18:48:15Z</time>
      </trkpt>
      <trkpt lat="46.3028" lon="10.56797">
        <ele>2434.728</ele>
        <time>2018-08-10T18:48:35Z</time>
      </trkpt>
      <trkpt lat="46.30289" lon="10.56786">
        <ele>2434.753</ele>
        <time>2018-08-10T18:48:55Z</time>
      </trkpt>
      <trkpt lat="46.30296" lon="10.56762">
        <ele>2433.084</ele>
        <time>2018-08-10T18:49:15Z</time>
      </trkpt>
      <trkpt lat="46.30303" lon="10.5674">
        <ele>2433.761</ele>
        <time>2018-08-10T18:49:35Z</time>
      </trkpt>
      <trkpt lat="46.30312" lon="10.56724">
        <ele>2435.864</ele>
        <time>2018-08-10T18:49:55Z</time>
      </trkpt>
      <trkpt lat="46.30317" lon="10.56701">
        <ele>2436.657</ele>
        <time>2018-08-10T18:50:15Z</time>
      </trkpt>
      <trkpt lat="46.30327" lon="10.56689">
        <ele>2438.1</ele>
        <time>2018-08-10T18:50:35Z</time>
      </trkpt>
      <trkpt lat="46.30337" lon="10.5668">
        <ele>2439.62</ele>
        <time>2018-08-10T18:50:55Z</time>
      </trkpt>
      <trkpt lat="46.30347" lon="10.56668">
        <ele>2441.008</ele>
        <time>2018-08-10T18:51:15Z</time>
      </trkpt>
      <trkpt lat="46.30356" lon="10.56667">
        <ele>2442.267</ele>
        <time>2018-08-10T18:51:35Z</time>
      </trkpt>
      <trkpt lat="46.30356" lon="10.56682">
        <ele>2442.752</ele>
        <time>2018-08-10T18:51:55Z</time>
      </trkpt>
      <trkpt lat="46.30356" lon="10.56686">
        <ele>2442.898</ele>
        <time>2018-08-10T18:52:15Z</time>
      </trkpt>
      <trkpt lat="46.30366" lon="10.56717">
        <ele>2446.142</ele>
        <time>2018-08-10T18:52:35Z</time>
      </trkpt>
      <trkpt lat="46.30367" lon="10.56719">
        <ele>2446.447</ele>
        <time>2018-08-10T18:52:55Z</time>
      </trkpt>
      <trkpt lat="46.30368" lon="10.56722">
        <ele>2446.828</ele>
        <time>2018-08-10T18:53:15Z</time>
      </trkpt>
      <trkpt lat="46.30369" lon="10.56725">
        <ele>2447.335</ele>
        <time>2018-08-10T18:53:35Z</time>
      </trkpt>
      <trkpt lat="46.3037" lon="10.56727">
        <ele>2447.738</ele>
        <time>2018-08-10T18:53:55Z</time>
      </trkpt>
      <trkpt lat="46.30371" lon="10.56731">
        <ele>2448.111</ele>
        <time>2018-08-10T18:54:15Z</time>
      </trkpt>
      <trkpt lat="46.30372" lon="10.56734">
        <ele>2448.421</ele>
        <time>2018-08-10T18:54:35Z</time>
      </trkpt>
      <trkpt lat="46.30373" lon="10.56737">
        <ele>2448.803</ele>
        <time>2018-08-10T18:54:55Z</time>
      </trkpt>
      <trkpt lat="46.30374" lon="10.5674">
        <ele>2449.108</ele>
        <time>2018-08-10T18:55:15Z</time>
      </trkpt>
      <trkpt lat="46.30376" lon="10.56743">
        <ele>2449.533</ele>
        <time>2018-08-10T18:55:35Z</time>
      </trkpt>
      <trkpt lat="46.30377" lon="10.56746">
        <ele>2449.918</ele>
        <time>2018-08-10T18:55:55Z</time>
      </trkpt>
      <trkpt lat="46.30378" lon="10.56748">
        <ele>2450.254</ele>
        <time>2018-08-10T18:56:15Z</time>
      </trkpt>
      <trkpt lat="46.3038" lon="10.56751">
        <ele>2450.798</ele>
        <time>2018-08-10T18:56:35Z</time>
      </trkpt>
      <trkpt lat="46.30381" lon="10.56754">
        <ele>2451.373</ele>
        <time>2018-08-10T18:56:55Z</time>
      </trkpt>
      <trkpt lat="46.30382" lon="10.56757">
        <ele>2451.984</ele>
        <time>2018-08-10T18:57:15Z</time>
      </trkpt>
      <trkpt lat="46.30383" lon="10.56759">
        <ele>2452.681</ele>
        <time>2018-08-10T18:57:35Z</time>
      </trkpt>
      <trkpt lat="46.30385" lon="10.56761">
        <ele>2453.384</ele>
        <time>2018-08-10T18:57:55Z</time>
      </trkpt>
      <trkpt lat="46.30386" lon="10.56764">
        <ele>2454.091</ele>
        <time>2018-08-10T18:58:15Z</time>
      </trkpt>
      <trkpt lat="46.30387" lon="10.56766">
        <ele>2454.881</ele>
        <time>2018-08-10T18:58:35Z</time>
      </trkpt>
      <trkpt lat="46.30388" lon="10.56769">
        <ele>2455.519</ele>
        <time>2018-08-10T18:58:55Z</time>
      </trkpt>
      <trkpt lat="46.30389" lon="10.56772">
        <ele>2456.008</ele>
        <time>2018-08-10T18:59:15Z</time>
      </trkpt>
      <trkpt lat="46.30389" lon="10.56776">
        <ele>2456.741</ele>
        <time>2018-08-10T18:59:35Z</time>
      </trkpt>
      <trkpt lat="46.30388" lon="10.56779">
        <ele>2457.056</ele>
        <time>2018-08-10T18:59:55Z</time>
      </trkpt>
      <trkpt lat="46.30387" lon="10.56782">
        <ele>2457.142</ele>
        <time>2018-08-10T19:00:15Z</time>
      </trkpt>
      <trkpt lat="46.30387" lon="10.56785">
        <ele>2457.536</ele>
        <time>2018-08-10T19:00:35Z</time>
      </trkpt>
      <trkpt lat="46.30386" lon="10.56788">
        <ele>2457.561</ele>
        <time>2018-08-10T19:00:55Z</time>
      </trkpt>
      <trkpt lat="46.30384" lon="10.56791">
        <ele>2457.422</ele>
        <time>2018-08-10T19:01:15Z</time>
      </trkpt>
      <trkpt lat="46.30383" lon="10.56794">
        <ele>2457.479</ele>
        <time>2018-08-10T19:01:35Z</time>
      </trkpt>
      <trkpt lat="46.30382" lon="10.56797">
        <ele>2457.462</ele>
        <time>2018-08-10T19:01:55Z</time>
      </trkpt>
      <trkpt lat="46.30381" lon="10.568">
        <ele>2457.382</ele>
        <time>2018-08-10T19:02:15Z</time>
      </trkpt>
      <trkpt lat="46.3038" lon="10.56803">
        <ele>2457.143</ele>
        <time>2018-08-10T19:02:35Z</time>
      </trkpt>
      <trkpt lat="46.30379" lon="10.56806">
        <ele>2457.017</ele>
        <time>2018-08-10T19:02:55Z</time>
      </trkpt>
      <trkpt lat="46.30378" lon="10.56808">
        <ele>2456.608</ele>
        <time>2018-08-10T19:03:15Z</time>
      </trkpt>
      <trkpt lat="46.30376" lon="10.5681">
        <ele>2456.02</ele>
        <time>2018-08-10T19:03:35Z</time>
      </trkpt>
      <trkpt lat="46.30375" lon="10.56813">
        <ele>2455.985</ele>
        <time>2018-08-10T19:03:55Z</time>
      </trkpt>
      <trkpt lat="46.30373" lon="10.56816">
        <ele>2455.521</ele>
        <time>2018-08-10T19:04:15Z</time>
      </trkpt>
      <trkpt lat="46.30372" lon="10.56819">
        <ele>2455.165</ele>
        <time>2018-08-10T19:04:35Z</time>
      </trkpt>
      <trkpt lat="46.30371" lon="10.56821">
        <ele>2454.86</ele>
        <time>2018-08-10T19:04:55Z</time>
      </trkpt>
      <trkpt lat="46.3037" lon="10.56824">
        <ele>2454.591</ele>
        <time>2018-08-10T19:05:15Z</time>
      </trkpt>
      <trkpt lat="46.30369" lon="10.56827">
        <ele>2454.458</ele>
        <time>2018-08-10T19:05:35Z</time>
      </trkpt>
      <trkpt lat="46.30368" lon="10.56829">
        <ele>2453.941</ele>
        <time>2018-08-10T19:05:55Z</time>
      </trkpt>
      <trkpt lat="46.30367" lon="10.56832">
        <ele>2453.576</ele>
        <time>2018-08-10T19:06:15Z</time>
      </trkpt>
      <trkpt lat="46.30366" lon="10.56835">
        <ele>2453.49</ele>
        <time>2018-08-10T19:06:35Z</time>
      </trkpt>
      <trkpt lat="46.30365" lon="10.56837">
        <ele>2453.419</ele>
        <time>2018-08-10T19:06:55Z</time>
      </trkpt>
      <trkpt lat="46.30363" lon="10.5684">
        <ele>2453.508</ele>
        <time>2018-08-10T19:07:15Z</time>
      </trkpt>
      <trkpt lat="46.30362" lon="10.56843">
        <ele>2453.339</ele>
        <time>2018-08-10T19:07:35Z</time>
      </trkpt>
      <trkpt lat="46.3036" lon="10.56845">
        <ele>2453.624</ele>
        <time>2018-08-10T19:07:55Z</time>
      </trkpt>
      <trkpt lat="46.30359" lon="10.56848">
        <ele>2454.24</ele>
        <time>2018-08-10T19:08:15Z</time>
      </trkpt>
      <trkpt lat="46.30358" lon="10.56851">
        <ele>2454.884</ele>
        <time>2018-08-10T19:08:35Z</time>
      </trkpt>
      <trkpt lat="46.30357" lon="10.56853">
        <ele>2455.279</ele>
        <time>2018-08-10T19:08:55Z</time>
      </trkpt>
      <trkpt lat="46.30356" lon="10.56855">
        <ele>2455.66</ele>
        <time>2018-08-10T19:09:15Z</time>
      </trkpt>
      <trkpt lat="46.30354" lon="10.56857">
        <ele>2455.717</ele>
        <time>2018-08-10T19:09:35Z</time>
      </trkpt>
      <trkpt lat="46.30352" lon="10.56858">
        <ele>2455.44</ele>
        <time>2018-08-10T19:09:55Z</time>
      </trkpt>
      <trkpt lat="46.3035" lon="10.56859">
        <ele>2455.035</ele>
        <time>2018-08-10T19:10:15Z</time>
      </trkpt>
      <trkpt lat="46.30348" lon="10.5686">
        <ele>2454.686</ele>
        <time>2018-08-10T19:10:35Z</time>
      </trkpt>
      <trkpt lat="46.30346" lon="10.56861">
        <ele>2454.114</ele>
        <time>2018-08-10T19:10:55Z</time>
      </trkpt>
      <trkpt lat="46.30344" lon="10.56861">
        <ele>2453.508</ele>
        <time>2018-08-10T19:11:15Z</time>
      </trkpt>
      <trkpt lat="46.30343" lon="10.56862">
        <ele>2453.085</ele>
        <time>2018-08-10T19:11:35Z</time>
      </trkpt>
      <trkpt lat="46.3034" lon="10.56862">
        <ele>2452.47</ele>
        <time>2018-08-10T19:11:55Z</time>
      </trkpt>
      <trkpt lat="46.30338" lon="10.56862">
        <ele>2451.726</ele>
        <time>2018-08-10T19:12:15Z</time>
      </trkpt>
      <trkpt lat="46.30336" lon="10.56862">
        <ele>2451.09</ele>
        <time>2018-08-10T19:12:35Z</time>
      </trkpt>
      <trkpt lat="46.30334" lon="10.56862">
        <ele>2450.495</ele>
        <time>2018-08-10T19:12:55Z</time>
      </trkpt>
      <trkpt lat="46.30332" lon="10.56863">
        <ele>2450.016</ele>
        <time>2018-08-10T19:13:15Z</time>
      </trkpt>
      <trkpt lat="46.30329" lon="10.56863">
        <ele>2449.763</ele>
        <time>2018-08-10T19:13:35Z</time>
      </trkpt>
      <trkpt lat="46.30327" lon="10.56863">
        <ele>2449.496</ele>
        <time>2018-08-10T19:13:55Z</time>
      </trkpt>
      <trkpt lat="46.30325" lon="10.56863">
        <ele>2449.026</ele>
        <time>2018-08-10T19:14:15Z</time>
      </trkpt>
      <trkpt lat="46.30323" lon="10.56863">
        <ele>2448.747</ele>
        <time>2018-08-10T19:14:35Z</time>
      </trkpt>
      <trkpt lat="46.3032" lon="10.56863">
        <ele>2448.411</ele>
        <time>2018-08-10T19:14:55Z</time>
      </trkpt>
      <trkpt lat="46.30318" lon="10.56863">
        <ele>2448.008</ele>
        <time>2018-08-10T19:15:15Z</time>
      </trkpt>
      <trkpt lat="46.30316" lon="10.56862">
        <ele>2447.744</ele>
        <time>2018-08-10T19:15:35Z</time>
      </trkpt>
      <trkpt lat="46.30314" lon="10.56862">
        <ele>2447.379</ele>
        <time>2018-08-10T19:15:55Z</time>
      </trkpt>
      <trkpt lat="46.30311" lon="10.56862">
        <ele>2446.845</ele>
        <time>2018-08-10T19:16:15Z</time>
      </trkpt>
      <trkpt lat="46.30309" lon="10.56862">
        <ele>2446.589</ele>
        <time>2018-08-10T19:16:35Z</time>
      </trkpt>
      <trkpt lat="46.30307" lon="10.56862">
        <ele>2446.374</ele>
        <time>2018-08-10T19:16:55Z</time>
      </trkpt>
      <trkpt lat="46.30305" lon="10.56862">
        <ele>2446.035</ele>
        <time>2018-08-10T19:17:15Z</time>
      </trkpt>
      <trkpt lat="46.30303" lon="10.56863">
        <ele>2446.162</ele>
        <time>2018-08-10T19:17:35Z</time>
      </trkpt>
      <trkpt lat="46.30301" lon="10.56863">
        <ele>2446.135</ele>
        <time>2018-08-10T19:17:55Z</time>
      </trkpt>
      <trkpt lat="46.30299" lon="10.56863">
        <ele>2446.026</ele>
        <time>2018-08-10T19:18:15Z</time>
      </trkpt>
      <trkpt lat="46.30296" lon="10.56863">
        <ele>2445.947</ele>
        <time>2018-08-10T19:18:35Z</time>
      </trkpt>
      <trkpt lat="46.30294" lon="10.56863">
        <ele>2445.811</ele>
        <time>2018-08-10T19:18:55Z</time>
      </trkpt>
      <trkpt lat="46.30292" lon="10.56863">
        <ele>2445.808</ele>
        <time>2018-08-10T19:19:15Z</time>
      </trkpt>
      <trkpt lat="46.30291" lon="10.56868">
        <ele>2446.564</ele>
        <time>2018-08-10T19:19:35Z</time>
      </trkpt>
      <trkpt lat="46.3029" lon="10.5687">
        <ele>2446.959</ele>
        <time>2018-08-10T19:19:55Z</time>
      </trkpt>
      <trkpt lat="46.30289" lon="10.56874">
        <ele>2447.445</ele>
        <time>2018-08-10T19:20:15Z</time>
      </trkpt>
      <trkpt lat="46.30288" lon="10.56876">
        <ele>2447.889</ele>
        <time>2018-08-10T19:20:35Z</time>
      </trkpt>
      <trkpt lat="46.30286" lon="10.56878">
        <ele>2448.194</ele>
        <time>2018-08-10T19:20:55Z</time>
      </trkpt>
      <trkpt lat="46.30285" lon="10.56881">
        <ele>2448.685</ele>
        <time>2018-08-10T19:21:15Z</time>
      </trkpt>
      <trkpt lat="46.30285" lon="10.56884">
        <ele>2449.022</ele>
        <time>2018-08-10T19:21:35Z</time>
      </trkpt>
      <trkpt lat="46.30285" lon="10.56886">
        <ele>2449.575</ele>
        <time>2018-08-10T19:21:55Z</time>
      </trkpt>
      <trkpt lat="46.30284" lon="10.56889">
        <ele>2450.082</ele>
        <time>2018-08-10T19:22:15Z</time>
      </trkpt>
      <trkpt lat="46.30284" lon="10.56892">
        <ele>2450.243</ele>
        <time>2018-08-10T19:22:35Z</time>
      </trkpt>
      <trkpt lat="46.30284" lon="10.56895">
        <ele>2450.417</ele>
        <time>2018-08-10T19:22:55Z</time>
      </trkpt>
      <trkpt lat="46.30285" lon="10.56898">
        <ele>2450.708</ele>
        <time>2018-08-10T19:23:15Z</time>
      </trkpt>
      <trkpt lat="46.30286" lon="10.569">
        <ele>2450.99</ele>
        <time>2018-08-10T19:23:35Z</time>
      </trkpt>
      <trkpt lat="46.30287" lon="10.56903">
        <ele>2451.145</ele>
        <time>2018-08-10T19:23:55Z</time>
      </trkpt>
      <trkpt lat="46.30287" lon="10.56906">
        <ele>2451.471</ele>
        <time>2018-08-10T19:24:15Z</time>
      </trkpt>
      <trkpt lat="46.30287" lon="10.56909">
        <ele>2451.645</ele>
        <time>2018-08-10T19:24:35Z</time>
      </trkpt>
      <trkpt lat="46.30287" lon="10.56913">
        <ele>2451.99</ele>
        <time>2018-08-10T19:24:55Z</time>
      </trkpt>
      <trkpt lat="46.30288" lon="10.56916">
        <ele>2452.381</ele>
        <time>2018-08-10T19:25:15Z</time>
      </trkpt>
      <trkpt lat="46.30288" lon="10.56919">
        <ele>2452.548</ele>
        <time>2018-08-10T19:25:35Z</time>
      </trkpt>
      <trkpt lat="46.30289" lon="10.56921">
        <ele>2452.761</ele>
        <time>2018-08-10T19:25:55Z</time>
      </trkpt>
      <trkpt lat="46.30289" lon="10.56924">
        <ele>2453.044</ele>
        <time>2018-08-10T19:26:15Z</time>
      </trkpt>
      <trkpt lat="46.3029" lon="10.56926">
        <ele>2453.205</ele>
        <time>2018-08-10T19:26:35Z</time>
      </trkpt>
      <trkpt lat="46.3029" lon="10.56927">
        <ele>2453.315</ele>
        <time>2018-08-10T19:26:55Z</time>
      </trkpt>
      <trkpt lat="46.3029" lon="10.56927">
        <ele>2453.308</ele>
        <time>2018-08-10T19:27:15Z</time>
      </trkpt>
      <trkpt lat="46.303" lon="10.56935">
        <ele>2454.516</ele>
        <time>2018-08-10T19:27:35Z</time>
      </trkpt>
      <trkpt lat="46.30303" lon="10.56937">
        <ele>2454.971</ele>
        <time>2018-08-10T19:27:55Z</time>
      </trkpt>
      <trkpt lat="46.3032" lon="10.56949">
        <ele>2458.947</ele>
        <time>2018-08-10T19:28:15Z</time>
      </trkpt>
      <trkpt lat="46.30273" lon="10.56978">
        <ele>2456.741</ele>
        <time>2018-08-10T19:28:35Z</time>
      </trkpt>
      <trkpt lat="46.30253" lon="10.56993">
        <ele>2459.956</ele>
        <time>2018-08-10T19:28:55Z</time>
      </trkpt>
      <trkpt lat="46.30238" lon="10.57005">
        <ele>2462.797</ele>
        <time>2018-08-10T19:29:15Z</time>
      </trkpt>
      <trkpt lat="46.30235" lon="10.57006">
        <ele>2463.064</ele>
        <time>2018-08-10T19:29:35Z</time>
      </trkpt>
      <trkpt lat="46.30226" lon="10.5701">
        <ele>2464.397</ele>
        <time>2018-08-10T19:29:55Z</time>
      </trkpt>
      <trkpt lat="46.30219" lon="10.57013">
        <ele>2464.456</ele>
        <time>2018-08-10T19:30:15Z</time>
      </trkpt>
      <trkpt lat="46.30217" lon="10.57014">
        <ele>2464.159</ele>
        <time>2018-08-10T19:30:35Z</time>
      </trkpt>
      <trkpt lat="46.30215" lon="10.57016">
        <ele>2464.014</ele>
        <time>2018-08-10T19:30:55Z</time>
      </trkpt>
      <trkpt lat="46.3017" lon="10.57008">
        <ele>2458.108</ele>
        <time>2018-08-10T19:31:15Z</time>
      </trkpt>
      <trkpt lat="46.30136" lon="10.5701">
        <ele>2458.097</ele>
        <time>2018-08-10T19:31:35Z</time>
      </trkpt>
      <trkpt lat="46.30077" lon="10.57006">
        <ele>2455.432</ele>
        <time>2018-08-10T19:31:55Z</time>
      </trkpt>
      <trkpt lat="46.3006" lon="10.57006">
        <ele>2454.718</ele>
        <time>2018-08-10T19:32:15Z</time>
      </trkpt>
      <trkpt lat="46.30035" lon="10.57005">
        <ele>2453.092</ele>
        <time>2018-08-10T19:32:35Z</time>
      </trkpt>
      <trkpt lat="46.30033" lon="10.57005">
        <ele>2452.857</ele>
        <time>2018-08-10T19:32:55Z</time>
      </trkpt>
      <trkpt lat="46.30031" lon="10.57004">
        <ele>2452.638</ele>
        <time>2018-08-10T19:33:15Z</time>
      </trkpt>
      <trkpt lat="46.30028" lon="10.57004">
        <ele>2452.415</ele>
        <time>2018-08-10T19:33:35Z</time>
      </trkpt>
      <trkpt lat="46.30026" lon="10.57003">
        <ele>2451.748</ele>
        <time>2018-08-10T19:33:55Z</time>
      </trkpt>
      <trkpt lat="46.30024" lon="10.57002">
        <ele>2450.738</ele>
        <time>2018-08-10T19:34:15Z</time>
      </trkpt>
      <trkpt lat="46.30021" lon="10.57002">
        <ele>2449.87</ele>
        <time>2018-08-10T19:34:35Z</time>
      </trkpt>
      <trkpt lat="46.30019" lon="10.57002">
        <ele>2449.317</ele>
        <time>2018-08-10T19:34:55Z</time>
      </trkpt>
      <trkpt lat="46.30017" lon="10.57003">
        <ele>2448.808</ele>
        <time>2018-08-10T19:35:15Z</time>
      </trkpt>
      <trkpt lat="46.30014" lon="10.57004">
        <ele>2448.025</ele>
        <time>2018-08-10T19:35:35Z</time>
      </trkpt>
      <trkpt lat="46.30012" lon="10.57005">
        <ele>2447.52</ele>
        <time>2018-08-10T19:35:55Z</time>
      </trkpt>
      <trkpt lat="46.30011" lon="10.57006">
        <ele>2447.286</ele>
        <time>2018-08-10T19:36:15Z</time>
      </trkpt>
      <trkpt lat="46.30009" lon="10.57008">
        <ele>2447.04</ele>
        <time>2018-08-10T19:36:35Z</time>
      </trkpt>
      <trkpt lat="46.30007" lon="10.5701">
        <ele>2446.765</ele>
        <time>2018-08-10T19:36:55Z</time>
      </trkpt>
      <trkpt lat="46.30006" lon="10.57012">
        <ele>2446.486</ele>
        <time>2018-08-10T19:37:15Z</time>
      </trkpt>
      <trkpt lat="46.30004" lon="10.57015">
        <ele>2446.363</ele>
        <time>2018-08-10T19:37:35Z</time>
      </trkpt>
      <trkpt lat="46.30003" lon="10.57018">
        <ele>2446.466</ele>
        <time>2018-08-10T19:37:55Z</time>
      </trkpt>
      <trkpt lat="46.30001" lon="10.5702">
        <ele>2446.299</ele>
        <time>2018-08-10T19:38:15Z</time>
      </trkpt>
      <trkpt lat="46.29999" lon="10.57022">
        <ele>2446.007</ele>
        <time>2018-08-10T19:38:35Z</time>
      </trkpt>
      <trkpt lat="46.29997" lon="10.57022">
        <ele>2445.827</ele>
        <time>2018-08-10T19:38:55Z</time>
      </trkpt>
      <trkpt lat="46.29995" lon="10.57022">
        <ele>2445.608</ele>
        <time>2018-08-10T19:39:15Z</time>
      </trkpt>
      <trkpt lat="46.29992" lon="10.57023">
        <ele>2445.421</ele>
        <time>2018-08-10T19:39:35Z</time>
      </trkpt>
      <trkpt lat="46.2999" lon="10.57022">
        <ele>2445.146</ele>
        <time>2018-08-10T19:39:55Z</time>
      </trkpt>
      <trkpt lat="46.29988" lon="10.57021">
        <ele>2444.682</ele>
        <time>2018-08-10T19:40:15Z</time>
      </trkpt>
      <trkpt lat="46.29987" lon="10.57018">
        <ele>2444.156</ele>
        <time>2018-08-10T19:40:35Z</time>
      </trkpt>
      <trkpt lat="46.29985" lon="10.57015">
        <ele>2443.591</ele>
        <time>2018-08-10T19:40:55Z</time>
      </trkpt>
      <trkpt lat="46.29984" lon="10.57012">
        <ele>2443.092</ele>
        <time>2018-08-10T19:41:15Z</time>
      </trkpt>
      <trkpt lat="46.29983" lon="10.57009">
        <ele>2442.569</ele>
        <time>2018-08-10T19:41:35Z</time>
      </trkpt>
      <trkpt lat="46.29982" lon="10.57006">
        <ele>2441.972</ele>
        <time>2018-08-10T19:41:55Z</time>
      </trkpt>
      <trkpt lat="46.29981" lon="10.57004">
        <ele>2441.478</ele>
        <time>2018-08-10T19:42:15Z</time>
      </trkpt>
      <trkpt lat="46.2998" lon="10.57001">
        <ele>2440.933</ele>
        <time>2018-08-10T19:42:35Z</time>
      </trkpt>
      <trkpt lat="46.29979" lon="10.56999">
        <ele>2440.526</ele>
        <time>2018-08-10T19:42:55Z</time>
      </trkpt>
      <trkpt lat="46.29977" lon="10.56997">
        <ele>2440.108</ele>
        <time>2018-08-10T19:43:15Z</time>
      </trkpt>
      <trkpt lat="46.29976" lon="10.56995">
        <ele>2439.779</ele>
        <time>2018-08-10T19:43:35Z</time>
      </trkpt>
      <trkpt lat="46.29974" lon="10.56993">
        <ele>2439.464</ele>
        <time>2018-08-10T19:43:55Z</time>
      </trkpt>
      <trkpt lat="46.29973" lon="10.5699">
        <ele>2439.03</ele>
        <time>2018-08-10T19:44:15Z</time>
      </trkpt>
      <trkpt lat="46.29972" lon="10.56988">
        <ele>2438.674</ele>
        <time>2018-08-10T19:44:35Z</time>
      </trkpt>
      <trkpt lat="46.2997" lon="10.56985">
        <ele>2438.299</ele>
        <time>2018-08-10T19:44:55Z</time>
      </trkpt>
      <trkpt lat="46.29969" lon="10.56983">
        <ele>2437.84</ele>
        <time>2018-08-10T19:45:15Z</time>
      </trkpt>
      <trkpt lat="46.29967" lon="10.56983">
        <ele>2437.677</ele>
        <time>2018-08-10T19:45:35Z</time>
      </trkpt>
      <trkpt lat="46.29964" lon="10.56984">
        <ele>2437.56</ele>
        <time>2018-08-10T19:45:55Z</time>
      </trkpt>
      <trkpt lat="46.29963" lon="10.56986">
        <ele>2437.733</ele>
        <time>2018-08-10T19:46:15Z</time>
      </trkpt>
      <trkpt lat="46.29962" lon="10.56989">
        <ele>2437.923</ele>
        <time>2018-08-10T19:46:35Z</time>
      </trkpt>
      <trkpt lat="46.29961" lon="10.56992">
        <ele>2438.215</ele>
        <time>2018-08-10T19:46:55Z</time>
      </trkpt>
      <trkpt lat="46.29959" lon="10.56994">
        <ele>2438.308</ele>
        <time>2018-08-10T19:47:15Z</time>
      </trkpt>
      <trkpt lat="46.29957" lon="10.56995">
        <ele>2438.345</ele>
        <time>2018-08-10T19:47:35Z</time>
      </trkpt>
      <trkpt lat="46.29954" lon="10.56996">
        <ele>2438.21</ele>
        <time>2018-08-10T19:47:55Z</time>
      </trkpt>
      <trkpt lat="46.29952" lon="10.56997">
        <ele>2438.216</ele>
        <time>2018-08-10T19:48:15Z</time>
      </trkpt>
      <trkpt lat="46.2995" lon="10.56998">
        <ele>2438.02</ele>
        <time>2018-08-10T19:48:35Z</time>
      </trkpt>
      <trkpt lat="46.29948" lon="10.56997">
        <ele>2437.895</ele>
        <time>2018-08-10T19:48:55Z</time>
      </trkpt>
      <trkpt lat="46.29946" lon="10.56995">
        <ele>2437.426</ele>
        <time>2018-08-10T19:49:15Z</time>
      </trkpt>
      <trkpt lat="46.29944" lon="10.56994">
        <ele>2437.183</ele>
        <time>2018-08-10T19:49:35Z</time>
      </trkpt>
      <trkpt lat="46.29943" lon="10.56993">
        <ele>2436.896</ele>
        <time>2018-08-10T19:49:55Z</time>
      </trkpt>
      <trkpt lat="46.29941" lon="10.56991">
        <ele>2436.473</ele>
        <time>2018-08-10T19:50:15Z</time>
      </trkpt>
      <trkpt lat="46.29939" lon="10.5699">
        <ele>2436.185</ele>
        <time>2018-08-10T19:50:35Z</time>
      </trkpt>
      <trkpt lat="46.29937" lon="10.56988">
        <ele>2435.713</ele>
        <time>2018-08-10T19:50:55Z</time>
      </trkpt>
      <trkpt lat="46.29935" lon="10.56987">
        <ele>2435.408</ele>
        <time>2018-08-10T19:51:15Z</time>
      </trkpt>
      <trkpt lat="46.29934" lon="10.56985">
        <ele>2435.179</ele>
        <time>2018-08-10T19:51:35Z</time>
      </trkpt>
      <trkpt lat="46.29932" lon="10.56984">
        <ele>2434.844</ele>
        <time>2018-08-10T19:51:55Z</time>
      </trkpt>
      <trkpt lat="46.2993" lon="10.56983">
        <ele>2434.55</ele>
        <time>2018-08-10T19:52:15Z</time>
      </trkpt>
      <trkpt lat="46.29928" lon="10.56982">
        <ele>2434.134</ele>
        <time>2018-08-10T19:52:35Z</time>
      </trkpt>
      <trkpt lat="46.29926" lon="10.5698">
        <ele>2433.779</ele>
        <time>2018-08-10T19:52:55Z</time>
      </trkpt>
      <trkpt lat="46.29924" lon="10.56979">
        <ele>2433.43</ele>
        <time>2018-08-10T19:53:15Z</time>
      </trkpt>
      <trkpt lat="46.29921" lon="10.56978">
        <ele>2433.137</ele>
        <time>2018-08-10T19:53:35Z</time>
      </trkpt>
      <trkpt lat="46.29919" lon="10.56976">
        <ele>2432.72</ele>
        <time>2018-08-10T19:53:55Z</time>
      </trkpt>
      <trkpt lat="46.29918" lon="10.56973">
        <ele>2432.248</ele>
        <time>2018-08-10T19:54:15Z</time>
      </trkpt>
      <trkpt lat="46.29916" lon="10.56971">
        <ele>2431.561</ele>
        <time>2018-08-10T19:54:35Z</time>
      </trkpt>
      <trkpt lat="46.29914" lon="10.56969">
        <ele>2430.417</ele>
        <time>2018-08-10T19:54:55Z</time>
      </trkpt>
      <trkpt lat="46.29912" lon="10.56968">
        <ele>2429.508</ele>
        <time>2018-08-10T19:55:15Z</time>
      </trkpt>
      <trkpt lat="46.2991" lon="10.56967">
        <ele>2428.616</ele>
        <time>2018-08-10T19:55:35Z</time>
      </trkpt>
      <trkpt lat="46.29908" lon="10.56967">
        <ele>2427.871</ele>
        <time>2018-08-10T19:55:55Z</time>
      </trkpt>
      <trkpt lat="46.29906" lon="10.56967">
        <ele>2426.977</ele>
        <time>2018-08-10T19:56:15Z</time>
      </trkpt>
      <trkpt lat="46.29904" lon="10.56967">
        <ele>2425.921</ele>
        <time>2018-08-10T19:56:35Z</time>
      </trkpt>
      <trkpt lat="46.29901" lon="10.56966">
        <ele>2424.876</ele>
        <time>2018-08-10T19:56:55Z</time>
      </trkpt>
      <trkpt lat="46.29899" lon="10.56964">
        <ele>2423.647</ele>
        <time>2018-08-10T19:57:15Z</time>
      </trkpt>
      <trkpt lat="46.29897" lon="10.56964">
        <ele>2422.744</ele>
        <time>2018-08-10T19:57:35Z</time>
      </trkpt>
      <trkpt lat="46.29895" lon="10.56964">
        <ele>2422.057</ele>
        <time>2018-08-10T19:57:55Z</time>
      </trkpt>
      <trkpt lat="46.29893" lon="10.56965">
        <ele>2421.381</ele>
        <time>2018-08-10T19:58:15Z</time>
      </trkpt>
      <trkpt lat="46.29891" lon="10.56965">
        <ele>2420.661</ele>
        <time>2018-08-10T19:58:35Z</time>
      </trkpt>
      <trkpt lat="46.29888" lon="10.56965">
        <ele>2419.617</ele>
        <time>2018-08-10T19:58:55Z</time>
      </trkpt>
      <trkpt lat="46.29886" lon="10.56964">
        <ele>2419.208</ele>
        <time>2018-08-10T19:59:15Z</time>
      </trkpt>
      <trkpt lat="46.29885" lon="10.56963">
        <ele>2418.82</ele>
        <time>2018-08-10T19:59:35Z</time>
      </trkpt>
      <trkpt lat="46.29883" lon="10.56961">
        <ele>2418.375</ele>
        <time>2018-08-10T19:59:55Z</time>
      </trkpt>
      <trkpt lat="46.29881" lon="10.5696">
        <ele>2417.881</ele>
        <time>2018-08-10T20:00:15Z</time>
      </trkpt>
      <trkpt lat="46.29879" lon="10.56957">
        <ele>2417.165</ele>
        <time>2018-08-10T20:00:35Z</time>
      </trkpt>
      <trkpt lat="46.29877" lon="10.56956">
        <ele>2416.85</ele>
        <time>2018-08-10T20:00:55Z</time>
      </trkpt>
      <trkpt lat="46.29875" lon="10.56956">
        <ele>2416.551</ele>
        <time>2018-08-10T20:01:15Z</time>
      </trkpt>
      <trkpt lat="46.29873" lon="10.56956">
        <ele>2416.318</ele>
        <time>2018-08-10T20:01:35Z</time>
      </trkpt>
      <trkpt lat="46.29871" lon="10.56956">
        <ele>2416.111</ele>
        <time>2018-08-10T20:01:55Z</time>
      </trkpt>
      <trkpt lat="46.29869" lon="10.56955">
        <ele>2415.667</ele>
        <time>2018-08-10T20:02:15Z</time>
      </trkpt>
      <trkpt lat="46.29867" lon="10.56953">
        <ele>2415.181</ele>
        <time>2018-08-10T20:02:35Z</time>
      </trkpt>
      <trkpt lat="46.29866" lon="10.56951">
        <ele>2414.619</ele>
        <time>2018-08-10T20:02:55Z</time>
      </trkpt>
      <trkpt lat="46.29864" lon="10.56949">
        <ele>2414.108</ele>
        <time>2018-08-10T20:03:15Z</time>
      </trkpt>
      <trkpt lat="46.29863" lon="10.56946">
        <ele>2413.418</ele>
        <time>2018-08-10T20:03:35Z</time>
      </trkpt>
      <trkpt lat="46.29862" lon="10.56943">
        <ele>2412.863</ele>
        <time>2018-08-10T20:03:55Z</time>
      </trkpt>
      <trkpt lat="46.29861" lon="10.56941">
        <ele>2412.249</ele>
        <time>2018-08-10T20:04:15Z</time>
      </trkpt>
      <trkpt lat="46.29859" lon="10.5694">
        <ele>2411.923</ele>
        <time>2018-08-10T20:04:35Z</time>
      </trkpt>
      <trkpt lat="46.29857" lon="10.56939">
        <ele>2411.598</ele>
        <time>2018-08-10T20:04:55Z</time>
      </trkpt>
      <trkpt lat="46.29855" lon="10.56938">
        <ele>2411.049</ele>
        <time>2018-08-10T20:05:15Z</time>
      </trkpt>
      <trkpt lat="46.29853" lon="10.56937">
        <ele>2410.736</ele>
        <time>2018-08-10T20:05:35Z</time>
      </trkpt>
      <trkpt lat="46.29851" lon="10.56937">
        <ele>2410.469</ele>
        <time>2018-08-10T20:05:55Z</time>
      </trkpt>
      <trkpt lat="46.29849" lon="10.56935">
        <ele>2409.938</ele>
        <time>2018-08-10T20:06:15Z</time>
      </trkpt>
      <trkpt lat="46.29848" lon="10.56934">
        <ele>2409.57</ele>
        <time>2018-08-10T20:06:35Z</time>
      </trkpt>
      <trkpt lat="46.29846" lon="10.56934">
        <ele>2409.217</ele>
        <time>2018-08-10T20:06:55Z</time>
      </trkpt>
      <trkpt lat="46.29844" lon="10.56933">
        <ele>2408.808</ele>
        <time>2018-08-10T20:07:15Z</time>
      </trkpt>
      <trkpt lat="46.29842" lon="10.56933">
        <ele>2408.685</ele>
        <time>2018-08-10T20:07:35Z</time>
      </trkpt>
      <trkpt lat="46.29839" lon="10.56933">
        <ele>2408.11</ele>
        <time>2018-08-10T20:07:55Z</time>
      </trkpt>
      <trkpt lat="46.29837" lon="10.56934">
        <ele>2408.226</ele>
        <time>2018-08-10T20:08:15Z</time>
      </trkpt>
      <trkpt lat="46.29836" lon="10.56934">
        <ele>2408.02</ele>
        <time>2018-08-10T20:08:35Z</time>
      </trkpt>
      <trkpt lat="46.29834" lon="10.56935">
        <ele>2407.925</ele>
        <time>2018-08-10T20:08:55Z</time>
      </trkpt>
      <trkpt lat="46.29832" lon="10.56934">
        <ele>2407.776</ele>
        <time>2018-08-10T20:09:15Z</time>
      </trkpt>
      <trkpt lat="46.29829" lon="10.56934">
        <ele>2407.613</ele>
        <time>2018-08-10T20:09:35Z</time>
      </trkpt>
      <trkpt lat="46.29827" lon="10.56934">
        <ele>2407.566</ele>
        <time>2018-08-10T20:09:55Z</time>
      </trkpt>
      <trkpt lat="46.29825" lon="10.56933">
        <ele>2407.336</ele>
        <time>2018-08-10T20:10:15Z</time>
      </trkpt>
      <trkpt lat="46.29821" lon="10.56931">
        <ele>2406.817</ele>
        <time>2018-08-10T20:10:35Z</time>
      </trkpt>
      <trkpt lat="46.29817" lon="10.56929">
        <ele>2406.318</ele>
        <time>2018-08-10T20:10:55Z</time>
      </trkpt>
      <trkpt lat="46.29815" lon="10.56928">
        <ele>2406.008</ele>
        <time>2018-08-10T20:11:15Z</time>
      </trkpt>
      <trkpt lat="46.29812" lon="10.56926">
        <ele>2405.855</ele>
        <time>2018-08-10T20:11:35Z</time>
      </trkpt>
      <trkpt lat="46.2981" lon="10.56926">
        <ele>2405.67</ele>
        <time>2018-08-10T20:11:55Z</time>
      </trkpt>
      <trkpt lat="46.29808" lon="10.56925">
        <ele>2405.476</ele>
        <time>2018-08-10T20:12:15Z</time>
      </trkpt>
      <trkpt lat="46.29806" lon="10.56924">
        <ele>2405.36</ele>
        <time>2018-08-10T20:12:35Z</time>
      </trkpt>
      <trkpt lat="46.29804" lon="10.56923">
        <ele>2404.955</ele>
        <time>2018-08-10T20:12:55Z</time>
      </trkpt>
      <trkpt lat="46.29802" lon="10.56922">
        <ele>2404.326</ele>
        <time>2018-08-10T20:13:15Z</time>
      </trkpt>
      <trkpt lat="46.298" lon="10.56921">
        <ele>2403.933</ele>
        <time>2018-08-10T20:13:35Z</time>
      </trkpt>
      <trkpt lat="46.29797" lon="10.5692">
        <ele>2403.316</ele>
        <time>2018-08-10T20:13:55Z</time>
      </trkpt>
      <trkpt lat="46.29795" lon="10.56918">
        <ele>2402.746</ele>
        <time>2018-08-10T20:14:15Z</time>
      </trkpt>
      <trkpt lat="46.29794" lon="10.56915">
        <ele>2402.088</ele>
        <time>2018-08-10T20:14:35Z</time>
      </trkpt>
      <trkpt lat="46.29793" lon="10.56914">
        <ele>2401.616</ele>
        <time>2018-08-10T20:14:55Z</time>
      </trkpt>
      <trkpt lat="46.29791" lon="10.56912">
        <ele>2401.108</ele>
        <time>2018-08-10T20:15:15Z</time>
      </trkpt>
      <trkpt lat="46.29789" lon="10.56911">
        <ele>2400.636</ele>
        <time>2018-08-10T20:15:35Z</time>
      </trkpt>
      <trkpt lat="46.29787" lon="10.56909">
        <ele>2400.081</ele>
        <time>2018-08-10T20:15:55Z</time>
      </trkpt>
      <trkpt lat="46.29785" lon="10.56906">
        <ele>2399.497</ele>
        <time>2018-08-10T20:16:15Z</time>
      </trkpt>
      <trkpt lat="46.29784" lon="10.56904">
        <ele>2398.921</ele>
        <time>2018-08-10T20:16:35Z</time>
      </trkpt>
      <trkpt lat="46.29783" lon="10.56901">
        <ele>2398.346</ele>
        <time>2018-08-10T20:16:55Z</time>
      </trkpt>
      <trkpt lat="46.29781" lon="10.56899">
        <ele>2397.877</ele>
        <time>2018-08-10T20:17:15Z</time>
      </trkpt>
      <trkpt lat="46.29779" lon="10.56898">
        <ele>2397.484</ele>
        <time>2018-08-10T20:17:35Z</time>
      </trkpt>
      <trkpt lat="46.29778" lon="10.56896">
        <ele>2396.967</ele>
        <time>2018-08-10T20:17:55Z</time>
      </trkpt>
      <trkpt lat="46.29776" lon="10.56895">
        <ele>2396.543</ele>
        <time>2018-08-10T20:18:15Z</time>
      </trkpt>
      <trkpt lat="46.29774" lon="10.56894">
        <ele>2396.164</ele>
        <time>2018-08-10T20:18:35Z</time>
      </trkpt>
      <trkpt lat="46.29772" lon="10.56893">
        <ele>2395.71</ele>
        <time>2018-08-10T20:18:55Z</time>
      </trkpt>
      <trkpt lat="46.29771" lon="10.56891">
        <ele>2395.208</ele>
        <time>2018-08-10T20:19:15Z</time>
      </trkpt>
      <trkpt lat="46.29768" lon="10.5689">
        <ele>2394.716</ele>
        <time>2018-08-10T20:19:35Z</time>
      </trkpt>
      <trkpt lat="46.29767" lon="10.56888">
        <ele>2394.271</ele>
        <time>2018-08-10T20:19:55Z</time>
      </trkpt>
      <trkpt lat="46.29764" lon="10.56882">
        <ele>2393.287</ele>
        <time>2018-08-10T20:20:15Z</time>
      </trkpt>
      <trkpt lat="46.29762" lon="10.56874">
        <ele>2391.981</ele>
        <time>2018-08-10T20:20:35Z</time>
      </trkpt>
      <trkpt lat="46.29762" lon="10.56872">
        <ele>2391.536</ele>
        <time>2018-08-10T20:20:55Z</time>
      </trkpt>
      <trkpt lat="46.29762" lon="10.56869">
        <ele>2391.177</ele>
        <time>2018-08-10T20:21:15Z</time>
      </trkpt>
      <trkpt lat="46.29761" lon="10.56866">
        <ele>2390.734</ele>
        <time>2018-08-10T20:21:35Z</time>
      </trkpt>
      <trkpt lat="46.29762" lon="10.56863">
        <ele>2390.427</ele>
        <time>2018-08-10T20:21:55Z</time>
      </trkpt>
      <trkpt lat="46.29762" lon="10.5686">
        <ele>2390.067</ele>
        <time>2018-08-10T20:22:15Z</time>
      </trkpt>
      <trkpt lat="46.29762" lon="10.56856">
        <ele>2389.681</ele>
        <time>2018-08-10T20:22:35Z</time>
      </trkpt>
      <trkpt lat="46.29762" lon="10.56853">
        <ele>2389.219</ele>
        <time>2018-08-10T20:22:55Z</time>
      </trkpt>
      <trkpt lat="46.29762" lon="10.5685">
        <ele>2388.808</ele>
        <time>2018-08-10T20:23:15Z</time>
      </trkpt>
      <trkpt lat="46.29762" lon="10.56847">
        <ele>2388.498</ele>
        <time>2018-08-10T20:23:35Z</time>
      </trkpt>
      <trkpt lat="46.29762" lon="10.56843">
        <ele>2387.993</ele>
        <time>2018-08-10T20:23:55Z</time>
      </trkpt>
      <trkpt lat="46.29761" lon="10.5684">
        <ele>2387.579</ele>
        <time>2018-08-10T20:24:15Z</time>
      </trkpt>
      <trkpt lat="46.29762" lon="10.56837">
        <ele>2387.013</ele>
        <time>2018-08-10T20:24:35Z</time>
      </trkpt>
      <trkpt lat="46.29761" lon="10.56834">
        <ele>2386.658</ele>
        <time>2018-08-10T20:24:55Z</time>
      </trkpt>
      <trkpt lat="46.29761" lon="10.5683">
        <ele>2386.279</ele>
        <time>2018-08-10T20:25:15Z</time>
      </trkpt>
      <trkpt lat="46.29761" lon="10.56827">
        <ele>2385.886</ele>
        <time>2018-08-10T20:25:35Z</time>
      </trkpt>
      <trkpt lat="46.29761" lon="10.56824">
        <ele>2385.469</ele>
        <time>2018-08-10T20:25:55Z</time>
      </trkpt>
      <trkpt lat="46.29761" lon="10.56821">
        <ele>2385.119</ele>
        <time>2018-08-10T20:26:15Z</time>
      </trkpt>
      <trkpt lat="46.29761" lon="10.56818">
        <ele>2384.709</ele>
        <time>2018-08-10T20:26:35Z</time>
      </trkpt>
      <trkpt lat="46.29761" lon="10.56815">
        <ele>2384.319</ele>
        <time>2018-08-10T20:26:55Z</time>
      </trkpt>
      <trkpt lat="46.29761" lon="10.56812">
        <ele>2383.908</ele>
        <time>2018-08-10T20:27:15Z</time>
      </trkpt>
      <trkpt lat="46.29761" lon="10.56809">
        <ele>2383.563</ele>
        <time>2018-08-10T20:27:35Z</time>
      </trkpt>
      <trkpt lat="46.29761" lon="10.56806">
        <ele>2383.298</ele>
        <time>2018-08-10T20:27:55Z</time>
      </trkpt>
      <trkpt lat="46.29761" lon="10.56803">
        <ele>2382.824</ele>
        <time>2018-08-10T20:28:15Z</time>
      </trkpt>
      <trkpt lat="46.29761" lon="10.568">
        <ele>2382.538</ele>
        <time>2018-08-10T20:28:35Z</time>
      </trkpt>
      <trkpt lat="46.29761" lon="10.56796">
        <ele>2382.153</ele>
        <time>2018-08-10T20:28:55Z</time>
      </trkpt>
      <trkpt lat="46.29761" lon="10.56793">
        <ele>2381.874</ele>
        <time>2018-08-10T20:29:15Z</time>
      </trkpt>
      <trkpt lat="46.29761" lon="10.5679">
        <ele>2381.461</ele>
        <time>2018-08-10T20:29:35Z</time>
      </trkpt>
      <trkpt lat="46.2976" lon="10.56787">
        <ele>2381.064</ele>
        <time>2018-08-10T20:29:55Z</time>
      </trkpt>
      <trkpt lat="46.2976" lon="10.56784">
        <ele>2380.628</ele>
        <time>2018-08-10T20:30:15Z</time>
      </trkpt>
      <trkpt lat="46.29759" lon="10.56781">
        <ele>2380.389</ele>
        <time>2018-08-10T20:30:35Z</time>
      </trkpt>
      <trkpt lat="46.29759" lon="10.56778">
        <ele>2379.917</ele>
        <time>2018-08-10T20:30:55Z</time>
      </trkpt>
      <trkpt lat="46.29758" lon="10.56775">
        <ele>2379.408</ele>
        <time>2018-08-10T20:31:15Z</time>
      </trkpt>
      <trkpt lat="46.29757" lon="10.56772">
        <ele>2378.954</ele>
        <time>2018-08-10T20:31:35Z</time>
      </trkpt>
      <trkpt lat="46.29756" lon="10.5677">
        <ele>2378.489</ele>
        <time>2018-08-10T20:31:55Z</time>
      </trkpt>
      <trkpt lat="46.29755" lon="10.56767">
        <ele>2378.075</ele>
        <time>2018-08-10T20:32:15Z</time>
      </trkpt>
      <trkpt lat="46.29754" lon="10.56765">
        <ele>2377.519</ele>
        <time>2018-08-10T20:32:35Z</time>
      </trkpt>
      <trkpt lat="46.29753" lon="10.56762">
        <ele>2377.034</ele>
        <time>2018-08-10T20:32:55Z</time>
      </trkpt>
      <trkpt lat="46.29752" lon="10.5676">
        <ele>2376.585</ele>
        <time>2018-08-10T20:33:15Z</time>
      </trkpt>
      <trkpt lat="46.2975" lon="10.56757">
        <ele>2376.062</ele>
        <time>2018-08-10T20:33:35Z</time>
      </trkpt>
      <trkpt lat="46.29749" lon="10.56755">
        <ele>2375.535</ele>
        <time>2018-08-10T20:33:55Z</time>
      </trkpt>
      <trkpt lat="46.29747" lon="10.56754">
        <ele>2375.336</ele>
        <time>2018-08-10T20:34:15Z</time>
      </trkpt>
      <trkpt lat="46.29745" lon="10.56754">
        <ele>2375.117</ele>
        <time>2018-08-10T20:34:35Z</time>
      </trkpt>
      <trkpt lat="46.29743" lon="10.56753">
        <ele>2374.918</ele>
        <time>2018-08-10T20:34:55Z</time>
      </trkpt>
      <trkpt lat="46.29741" lon="10.56753">
        <ele>2374.708</ele>
        <time>2018-08-10T20:35:15Z</time>
      </trkpt>
      <trkpt lat="46.29739" lon="10.56754">
        <ele>2374.795</ele>
        <time>2018-08-10T20:35:35Z</time>
      </trkpt>
      <trkpt lat="46.29737" lon="10.56755">
        <ele>2374.76</ele>
        <time>2018-08-10T20:35:55Z</time>
      </trkpt>
      <trkpt lat="46.29735" lon="10.56757">
        <ele>2374.766</ele>
        <time>2018-08-10T20:36:15Z</time>
      </trkpt>
      <trkpt lat="46.29732" lon="10.56758">
        <ele>2374.77</ele>
        <time>2018-08-10T20:36:35Z</time>
      </trkpt>
      <trkpt lat="46.29731" lon="10.56759">
        <ele>2374.685</ele>
        <time>2018-08-10T20:36:55Z</time>
      </trkpt>
      <trkpt lat="46.29729" lon="10.5676">
        <ele>2374.676</ele>
        <time>2018-08-10T20:37:15Z</time>
      </trkpt>
      <trkpt lat="46.29727" lon="10.56761">
        <ele>2374.683</ele>
        <time>2018-08-10T20:37:35Z</time>
      </trkpt>
      <trkpt lat="46.29725" lon="10.56762">
        <ele>2374.596</ele>
        <time>2018-08-10T20:37:55Z</time>
      </trkpt>
      <trkpt lat="46.29723" lon="10.56763">
        <ele>2374.421</ele>
        <time>2018-08-10T20:38:15Z</time>
      </trkpt>
      <trkpt lat="46.29721" lon="10.56764">
        <ele>2374.141</ele>
        <time>2018-08-10T20:38:35Z</time>
      </trkpt>
      <trkpt lat="46.29719" lon="10.56765">
        <ele>2373.505</ele>
        <time>2018-08-10T20:38:55Z</time>
      </trkpt>
      <trkpt lat="46.29717" lon="10.56766">
        <ele>2373.008</ele>
        <time>2018-08-10T20:39:15Z</time>
      </trkpt>
      <trkpt lat="46.29715" lon="10.56767">
        <ele>2372.434</ele>
        <time>2018-08-10T20:39:35Z</time>
      </trkpt>
      <trkpt lat="46.29713" lon="10.56768">
        <ele>2371.729</ele>
        <time>2018-08-10T20:39:55Z</time>
      </trkpt>
      <trkpt lat="46.29711" lon="10.56767">
        <ele>2370.995</ele>
        <time>2018-08-10T20:40:15Z</time>
      </trkpt>
      <trkpt lat="46.29709" lon="10.56766">
        <ele>2370.059</ele>
        <time>2018-08-10T20:40:35Z</time>
      </trkpt>
      <trkpt lat="46.29707" lon="10.56765">
        <ele>2369.214</ele>
        <time>2018-08-10T20:40:55Z</time>
      </trkpt>
      <trkpt lat="46.29705" lon="10.56765">
        <ele>2368.495</ele>
        <time>2018-08-10T20:41:15Z</time>
      </trkpt>
      <trkpt lat="46.29703" lon="10.56764">
        <ele>2367.562</ele>
        <time>2018-08-10T20:41:35Z</time>
      </trkpt>
      <trkpt lat="46.29701" lon="10.56764">
        <ele>2366.765</ele>
        <time>2018-08-10T20:41:55Z</time>
      </trkpt>
      <trkpt lat="46.29698" lon="10.56764">
        <ele>2365.858</ele>
        <time>2018-08-10T20:42:15Z</time>
      </trkpt>
      <trkpt lat="46.29696" lon="10.56764">
        <ele>2365.252</ele>
        <time>2018-08-10T20:42:35Z</time>
      </trkpt>
      <trkpt lat="46.29694" lon="10.56764">
        <ele>2364.417</ele>
        <time>2018-08-10T20:42:55Z</time>
      </trkpt>
      <trkpt lat="46.29692" lon="10.56764">
        <ele>2364.108</ele>
        <time>2018-08-10T20:43:15Z</time>
      </trkpt>
      <trkpt lat="46.2969" lon="10.56764">
        <ele>2363.847</ele>
        <time>2018-08-10T20:43:35Z</time>
      </trkpt>
      <trkpt lat="46.29688" lon="10.56764">
        <ele>2363.572</ele>
        <time>2018-08-10T20:43:55Z</time>
      </trkpt>
      <trkpt lat="46.29686" lon="10.56763">
        <ele>2363.058</ele>
        <time>2018-08-10T20:44:15Z</time>
      </trkpt>
      <trkpt lat="46.29684" lon="10.56762">
        <ele>2362.592</ele>
        <time>2018-08-10T20:44:35Z</time>
      </trkpt>
      <trkpt lat="46.29682" lon="10.5676">
        <ele>2361.927</ele>
        <time>2018-08-10T20:44:55Z</time>
      </trkpt>
      <trkpt lat="46.2968" lon="10.56758">
        <ele>2361.438</ele>
        <time>2018-08-10T20:45:15Z</time>
      </trkpt>
      <trkpt lat="46.29679" lon="10.56756">
        <ele>2360.825</ele>
        <time>2018-08-10T20:45:35Z</time>
      </trkpt>
      <trkpt lat="46.29677" lon="10.56755">
        <ele>2360.478</ele>
        <time>2018-08-10T20:45:55Z</time>
      </trkpt>
      <trkpt lat="46.29675" lon="10.56755">
        <ele>2360.057</ele>
        <time>2018-08-10T20:46:15Z</time>
      </trkpt>
      <trkpt lat="46.29673" lon="10.56754">
        <ele>2359.6</ele>
        <time>2018-08-10T20:46:35Z</time>
      </trkpt>
      <trkpt lat="46.29671" lon="10.56753">
        <ele>2359.12</ele>
        <time>2018-08-10T20:46:55Z</time>
      </trkpt>
      <trkpt lat="46.29669" lon="10.56752">
        <ele>2358.608</ele>
        <time>2018-08-10T20:47:15Z</time>
      </trkpt>
      <trkpt lat="46.29667" lon="10.5675">
        <ele>2358.047</ele>
        <time>2018-08-10T20:47:35Z</time>
      </trkpt>
      <trkpt lat="46.29666" lon="10.56748">
        <ele>2357.612</ele>
        <time>2018-08-10T20:47:55Z</time>
      </trkpt>
      <trkpt lat="46.29664" lon="10.56745">
        <ele>2357.278</ele>
        <time>2018-08-10T20:48:15Z</time>
      </trkpt>
      <trkpt lat="46.29662" lon="10.56743">
        <ele>2356.922</ele>
        <time>2018-08-10T20:48:35Z</time>
      </trkpt>
      <trkpt lat="46.29661" lon="10.5674">
        <ele>2356.677</ele>
        <time>2018-08-10T20:48:55Z</time>
      </trkpt>
      <trkpt lat="46.29659" lon="10.56739">
        <ele>2356.378</ele>
        <time>2018-08-10T20:49:15Z</time>
      </trkpt>
      <trkpt lat="46.29658" lon="10.56737">
        <ele>2356.145</ele>
        <time>2018-08-10T20:49:35Z</time>
      </trkpt>
      <trkpt lat="46.29657" lon="10.56734">
        <ele>2355.748</ele>
        <time>2018-08-10T20:49:55Z</time>
      </trkpt>
      <trkpt lat="46.29655" lon="10.56732">
        <ele>2355.442</ele>
        <time>2018-08-10T20:50:15Z</time>
      </trkpt>
      <trkpt lat="46.29655" lon="10.56732">
        <ele>2355.322</ele>
        <time>2018-08-10T20:50:35Z</time>
      </trkpt>
      <trkpt lat="46.29646" lon="10.56715">
        <ele>2353.014</ele>
        <time>2018-08-10T20:50:55Z</time>
      </trkpt>
      <trkpt lat="46.29645" lon="10.56715">
        <ele>2352.908</ele>
        <time>2018-08-10T20:51:15Z</time>
      </trkpt>
      <trkpt lat="46.29643" lon="10.56713">
        <ele>2352.626</ele>
        <time>2018-08-10T20:51:35Z</time>
      </trkpt>
      <trkpt lat="46.29641" lon="10.56711">
        <ele>2352.471</ele>
        <time>2018-08-10T20:51:55Z</time>
      </trkpt>
      <trkpt lat="46.29639" lon="10.5671">
        <ele>2352.127</ele>
        <time>2018-08-10T20:52:15Z</time>
      </trkpt>
      <trkpt lat="46.29638" lon="10.56707">
        <ele>2351.541</ele>
        <time>2018-08-10T20:52:35Z</time>
      </trkpt>
      <trkpt lat="46.29636" lon="10.56705">
        <ele>2350.856</ele>
        <time>2018-08-10T20:52:55Z</time>
      </trkpt>
      <trkpt lat="46.29635" lon="10.56702">
        <ele>2350.157</ele>
        <time>2018-08-10T20:53:15Z</time>
      </trkpt>
      <trkpt lat="46.29634" lon="10.56699">
        <ele>2349.614</ele>
        <time>2018-08-10T20:53:35Z</time>
      </trkpt>
      <trkpt lat="46.29634" lon="10.56696">
        <ele>2349.157</ele>
        <time>2018-08-10T20:53:55Z</time>
      </trkpt>
      <trkpt lat="46.29634" lon="10.56693">
        <ele>2348.794</ele>
        <time>2018-08-10T20:54:15Z</time>
      </trkpt>
      <trkpt lat="46.29634" lon="10.5669">
        <ele>2348.357</ele>
        <time>2018-08-10T20:54:35Z</time>
      </trkpt>
      <trkpt lat="46.29634" lon="10.56687">
        <ele>2347.822</ele>
        <time>2018-08-10T20:54:55Z</time>
      </trkpt>
      <trkpt lat="46.29634" lon="10.56683">
        <ele>2347.308</ele>
        <time>2018-08-10T20:55:15Z</time>
      </trkpt>
      <trkpt lat="46.29634" lon="10.56679">
        <ele>2346.951</ele>
        <time>2018-08-10T20:55:35Z</time>
      </trkpt>
      <trkpt lat="46.29634" lon="10.56676">
        <ele>2346.456</ele>
        <time>2018-08-10T20:55:55Z</time>
      </trkpt>
      <trkpt lat="46.29634" lon="10.56672">
        <ele>2346.052</ele>
        <time>2018-08-10T20:56:15Z</time>
      </trkpt>
      <trkpt lat="46.29634" lon="10.56669">
        <ele>2345.566</ele>
        <time>2018-08-10T20:56:35Z</time>
      </trkpt>
      <trkpt lat="46.29634" lon="10.56666">
        <ele>2345.181</ele>
        <time>2018-08-10T20:56:55Z</time>
      </trkpt>
      <trkpt lat="46.29634" lon="10.56662">
        <ele>2344.632</ele>
        <time>2018-08-10T20:57:15Z</time>
      </trkpt>
      <trkpt lat="46.29634" lon="10.56659">
        <ele>2344.159</ele>
        <time>2018-08-10T20:57:35Z</time>
      </trkpt>
      <trkpt lat="46.29634" lon="10.56655">
        <ele>2343.652</ele>
        <time>2018-08-10T20:57:55Z</time>
      </trkpt>
      <trkpt lat="46.29633" lon="10.56652">
        <ele>2343.183</ele>
        <time>2018-08-10T20:58:15Z</time>
      </trkpt>
      <trkpt lat="46.29633" lon="10.56649">
        <ele>2342.625</ele>
        <time>2018-08-10T20:58:35Z</time>
      </trkpt>
      <trkpt lat="46.29633" lon="10.56645">
        <ele>2342.117</ele>
        <time>2018-08-10T20:58:55Z</time>
      </trkpt>
      <trkpt lat="46.29633" lon="10.56642">
        <ele>2341.608</ele>
        <time>2018-08-10T20:59:15Z</time>
      </trkpt>
      <trkpt lat="46.29632" lon="10.56638">
        <ele>2341.29</ele>
        <time>2018-08-10T20:59:35Z</time>
      </trkpt>
      <trkpt lat="46.29633" lon="10.56635">
        <ele>2340.875</ele>
        <time>2018-08-10T20:59:55Z</time>
      </trkpt>
      <trkpt lat="46.29633" lon="10.56631">
        <ele>2340.591</ele>
        <time>2018-08-10T21:00:15Z</time>
      </trkpt>
      <trkpt lat="46.29634" lon="10.56628">
        <ele>2340.255</ele>
        <time>2018-08-10T21:00:35Z</time>
      </trkpt>
      <trkpt lat="46.29634" lon="10.56625">
        <ele>2339.92</ele>
        <time>2018-08-10T21:00:55Z</time>
      </trkpt>
      <trkpt lat="46.29635" lon="10.56622">
        <ele>2339.751</ele>
        <time>2018-08-10T21:01:15Z</time>
      </trkpt>
      <trkpt lat="46.29635" lon="10.56619">
        <ele>2339.478</ele>
        <time>2018-08-10T21:01:35Z</time>
      </trkpt>
      <trkpt lat="46.29635" lon="10.56616">
        <ele>2339.031</ele>
        <time>2018-08-10T21:01:55Z</time>
      </trkpt>
      <trkpt lat="46.29635" lon="10.56613">
        <ele>2338.791</ele>
        <time>2018-08-10T21:02:15Z</time>
      </trkpt>
      <trkpt lat="46.29636" lon="10.5661">
        <ele>2338.481</ele>
        <time>2018-08-10T21:02:35Z</time>
      </trkpt>
      <trkpt lat="46.29637" lon="10.56606">
        <ele>2338.119</ele>
        <time>2018-08-10T21:02:55Z</time>
      </trkpt>
      <trkpt lat="46.29637" lon="10.56604">
        <ele>2337.708</ele>
        <time>2018-08-10T21:03:15Z</time>
      </trkpt>
      <trkpt lat="46.29638" lon="10.56601">
        <ele>2337.321</ele>
        <time>2018-08-10T21:03:35Z</time>
      </trkpt>
      <trkpt lat="46.29638" lon="10.56597">
        <ele>2336.996</ele>
        <time>2018-08-10T21:03:55Z</time>
      </trkpt>
      <trkpt lat="46.29639" lon="10.56594">
        <ele>2336.592</ele>
        <time>2018-08-10T21:04:15Z</time>
      </trkpt>
      <trkpt lat="46.29639" lon="10.56591">
        <ele>2336.086</ele>
        <time>2018-08-10T21:04:35Z</time>
      </trkpt>
      <trkpt lat="46.2964" lon="10.56587">
        <ele>2335.611</ele>
        <time>2018-08-10T21:04:55Z</time>
      </trkpt>
      <trkpt lat="46.2964" lon="10.56584">
        <ele>2335.162</ele>
        <time>2018-08-10T21:05:15Z</time>
      </trkpt>
      <trkpt lat="46.2964" lon="10.5658">
        <ele>2334.729</ele>
        <time>2018-08-10T21:05:35Z</time>
      </trkpt>
      <trkpt lat="46.2964" lon="10.56577">
        <ele>2334.462</ele>
        <time>2018-08-10T21:05:55Z</time>
      </trkpt>
      <trkpt lat="46.2964" lon="10.56574">
        <ele>2334.054</ele>
        <time>2018-08-10T21:06:15Z</time>
      </trkpt>
      <trkpt lat="46.29639" lon="10.56571">
        <ele>2333.656</ele>
        <time>2018-08-10T21:06:35Z</time>
      </trkpt>
      <trkpt lat="46.29637" lon="10.56568">
        <ele>2333.311</ele>
        <time>2018-08-10T21:06:55Z</time>
      </trkpt>
      <trkpt lat="46.29636" lon="10.56566">
        <ele>2332.908</ele>
        <time>2018-08-10T21:07:15Z</time>
      </trkpt>
      <trkpt lat="46.29634" lon="10.56563">
        <ele>2332.627</ele>
        <time>2018-08-10T21:07:35Z</time>
      </trkpt>
      <trkpt lat="46.29633" lon="10.56561">
        <ele>2332.362</ele>
        <time>2018-08-10T21:07:55Z</time>
      </trkpt>
      <trkpt lat="46.29631" lon="10.56558">
        <ele>2331.998</ele>
        <time>2018-08-10T21:08:15Z</time>
      </trkpt>
      <trkpt lat="46.2963" lon="10.56555">
        <ele>2331.662</ele>
        <time>2018-08-10T21:08:35Z</time>
      </trkpt>
      <trkpt lat="46.29629" lon="10.56553">
        <ele>2331.247</ele>
        <time>2018-08-10T21:08:55Z</time>
      </trkpt>
      <trkpt lat="46.29628" lon="10.5655">
        <ele>2330.958</ele>
        <time>2018-08-10T21:09:15Z</time>
      </trkpt>
      <trkpt lat="46.29626" lon="10.56548">
        <ele>2330.685</ele>
        <time>2018-08-10T21:09:35Z</time>
      </trkpt>
      <trkpt lat="46.29625" lon="10.56545">
        <ele>2330.398</ele>
        <time>2018-08-10T21:09:55Z</time>
      </trkpt>
      <trkpt lat="46.29623" lon="10.56542">
        <ele>2330.015</ele>
        <time>2018-08-10T21:10:15Z</time>
      </trkpt>
      <trkpt lat="46.29622" lon="10.5654">
        <ele>2329.765</ele>
        <time>2018-08-10T21:10:35Z</time>
      </trkpt>
      <trkpt lat="46.29621" lon="10.56537">
        <ele>2329.511</ele>
        <time>2018-08-10T21:10:55Z</time>
      </trkpt>
      <trkpt lat="46.29619" lon="10.56534">
        <ele>2329.208</ele>
        <time>2018-08-10T21:11:15Z</time>
      </trkpt>
      <trkpt lat="46.29618" lon="10.56531">
        <ele>2329.053</ele>
        <time>2018-08-10T21:11:35Z</time>
      </trkpt>
      <trkpt lat="46.29617" lon="10.56528">
        <ele>2328.778</ele>
        <time>2018-08-10T21:11:55Z</time>
      </trkpt>
      <trkpt lat="46.29616" lon="10.56525">
        <ele>2328.454</ele>
        <time>2018-08-10T21:12:15Z</time>
      </trkpt>
      <trkpt lat="46.29616" lon="10.56521">
        <ele>2328.138</ele>
        <time>2018-08-10T21:12:35Z</time>
      </trkpt>
      <trkpt lat="46.29616" lon="10.56518">
        <ele>2327.833</ele>
        <time>2018-08-10T21:12:55Z</time>
      </trkpt>
      <trkpt lat="46.29615" lon="10.56515">
        <ele>2327.434</ele>
        <time>2018-08-10T21:13:15Z</time>
      </trkpt>
      <trkpt lat="46.29616" lon="10.56512">
        <ele>2327.081</ele>
        <time>2018-08-10T21:13:35Z</time>
      </trkpt>
      <trkpt lat="46.29616" lon="10.56508">
        <ele>2326.754</ele>
        <time>2018-08-10T21:13:55Z</time>
      </trkpt>
      <trkpt lat="46.29615" lon="10.56505">
        <ele>2326.384</ele>
        <time>2018-08-10T21:14:15Z</time>
      </trkpt>
      <trkpt lat="46.29616" lon="10.56501">
        <ele>2325.907</ele>
        <time>2018-08-10T21:14:35Z</time>
      </trkpt>
      <trkpt lat="46.29616" lon="10.56498">
        <ele>2325.617</ele>
        <time>2018-08-10T21:14:55Z</time>
      </trkpt>
      <trkpt lat="46.29616" lon="10.56495">
        <ele>2325.208</ele>
        <time>2018-08-10T21:15:15Z</time>
      </trkpt>
      <trkpt lat="46.29598" lon="10.56423">
        <ele>2319.41</ele>
        <time>2018-08-10T21:15:35Z</time>
      </trkpt>
      <trkpt lat="46.29597" lon="10.56421">
        <ele>2319.215</ele>
        <time>2018-08-10T21:15:55Z</time>
      </trkpt>
      <trkpt lat="46.29596" lon="10.56418">
        <ele>2318.971</ele>
        <time>2018-08-10T21:16:15Z</time>
      </trkpt>
      <trkpt lat="46.29595" lon="10.56415">
        <ele>2318.795</ele>
        <time>2018-08-10T21:16:35Z</time>
      </trkpt>
      <trkpt lat="46.29594" lon="10.56412">
        <ele>2318.36</ele>
        <time>2018-08-10T21:16:55Z</time>
      </trkpt>
      <trkpt lat="46.29594" lon="10.56408">
        <ele>2317.921</ele>
        <time>2018-08-10T21:17:15Z</time>
      </trkpt>
      <trkpt lat="46.29593" lon="10.56405">
        <ele>2317.468</ele>
        <time>2018-08-10T21:17:35Z</time>
      </trkpt>
      <trkpt lat="46.29593" lon="10.56401">
        <ele>2316.911</ele>
        <time>2018-08-10T21:17:55Z</time>
      </trkpt>
      <trkpt lat="46.29593" lon="10.56397">
        <ele>2316.485</ele>
        <time>2018-08-10T21:18:15Z</time>
      </trkpt>
      <trkpt lat="46.29593" lon="10.56394">
        <ele>2315.989</ele>
        <time>2018-08-10T21:18:35Z</time>
      </trkpt>
      <trkpt lat="46.29593" lon="10.56391">
        <ele>2315.417</ele>
        <time>2018-08-10T21:18:55Z</time>
      </trkpt>
      <trkpt lat="46.29593" lon="10.56387">
        <ele>2314.908</ele>
        <time>2018-08-10T21:19:15Z</time>
      </trkpt>
      <trkpt lat="46.29594" lon="10.56384">
        <ele>2314.39</ele>
        <time>2018-08-10T21:19:35Z</time>
      </trkpt>
      <trkpt lat="46.29594" lon="10.5638">
        <ele>2313.835</ele>
        <time>2018-08-10T21:19:55Z</time>
      </trkpt>
      <trkpt lat="46.29594" lon="10.56377">
        <ele>2313.391</ele>
        <time>2018-08-10T21:20:15Z</time>
      </trkpt>
      <trkpt lat="46.29594" lon="10.56374">
        <ele>2312.835</ele>
        <time>2018-08-10T21:20:35Z</time>
      </trkpt>
      <trkpt lat="46.29594" lon="10.56371">
        <ele>2312.32</ele>
        <time>2018-08-10T21:20:55Z</time>
      </trkpt>
      <trkpt lat="46.29594" lon="10.56368">
        <ele>2311.981</ele>
        <time>2018-08-10T21:21:15Z</time>
      </trkpt>
      <trkpt lat="46.29593" lon="10.56364">
        <ele>2311.488</ele>
        <time>2018-08-10T21:21:35Z</time>
      </trkpt>
      <trkpt lat="46.29593" lon="10.56361">
        <ele>2310.951</ele>
        <time>2018-08-10T21:21:55Z</time>
      </trkpt>
      <trkpt lat="46.29593" lon="10.56358">
        <ele>2310.577</ele>
        <time>2018-08-10T21:22:15Z</time>
      </trkpt>
      <trkpt lat="46.29593" lon="10.56355">
        <ele>2310.161</ele>
        <time>2018-08-10T21:22:35Z</time>
      </trkpt>
      <trkpt lat="46.29593" lon="10.56353">
        <ele>2309.627</ele>
        <time>2018-08-10T21:22:55Z</time>
      </trkpt>
      <trkpt lat="46.29593" lon="10.56349">
        <ele>2309.108</ele>
        <time>2018-08-10T21:23:15Z</time>
      </trkpt>
      <trkpt lat="46.29592" lon="10.56345">
        <ele>2308.799</ele>
        <time>2018-08-10T21:23:35Z</time>
      </trkpt>
      <trkpt lat="46.29593" lon="10.56342">
        <ele>2308.344</ele>
        <time>2018-08-10T21:23:55Z</time>
      </trkpt>
      <trkpt lat="46.29593" lon="10.56339">
        <ele>2307.89</ele>
        <time>2018-08-10T21:24:15Z</time>
      </trkpt>
      <trkpt lat="46.29592" lon="10.56336">
        <ele>2307.414</ele>
        <time>2018-08-10T21:24:35Z</time>
      </trkpt>
      <trkpt lat="46.29592" lon="10.56334">
        <ele>2307.189</ele>
        <time>2018-08-10T21:24:55Z</time>
      </trkpt>
      <trkpt lat="46.29591" lon="10.56331">
        <ele>2306.72</ele>
        <time>2018-08-10T21:25:15Z</time>
      </trkpt>
      <trkpt lat="46.29591" lon="10.56328">
        <ele>2306.577</ele>
        <time>2018-08-10T21:25:35Z</time>
      </trkpt>
      <trkpt lat="46.2959" lon="10.56325">
        <ele>2306.17</ele>
        <time>2018-08-10T21:25:55Z</time>
      </trkpt>
      <trkpt lat="46.29589" lon="10.56322">
        <ele>2305.886</ele>
        <time>2018-08-10T21:26:15Z</time>
      </trkpt>
      <trkpt lat="46.29588" lon="10.56319">
        <ele>2305.56</ele>
        <time>2018-08-10T21:26:35Z</time>
      </trkpt>
      <trkpt lat="46.29587" lon="10.56317">
        <ele>2305.326</ele>
        <time>2018-08-10T21:26:55Z</time>
      </trkpt>
      <trkpt lat="46.29586" lon="10.56315">
        <ele>2305.108</ele>
        <time>2018-08-10T21:27:15Z</time>
      </trkpt>
      <trkpt lat="46.29585" lon="10.56312">
        <ele>2304.74</ele>
        <time>2018-08-10T21:27:35Z</time>
      </trkpt>
      <trkpt lat="46.29584" lon="10.56309">
        <ele>2304.485</ele>
        <time>2018-08-10T21:27:55Z</time>
      </trkpt>
      <trkpt lat="46.29583" lon="10.56306">
        <ele>2304.111</ele>
        <time>2018-08-10T21:28:15Z</time>
      </trkpt>
      <trkpt lat="46.29582" lon="10.56303">
        <ele>2303.915</ele>
        <time>2018-08-10T21:28:35Z</time>
      </trkpt>
      <trkpt lat="46.2958" lon="10.56301">
        <ele>2303.86</ele>
        <time>2018-08-10T21:28:55Z</time>
      </trkpt>
      <trkpt lat="46.29578" lon="10.56298">
        <ele>2303.751</ele>
        <time>2018-08-10T21:29:15Z</time>
      </trkpt>
      <trkpt lat="46.29576" lon="10.56295">
        <ele>2303.418</ele>
        <time>2018-08-10T21:29:35Z</time>
      </trkpt>
      <trkpt lat="46.29574" lon="10.56292">
        <ele>2303.011</ele>
        <time>2018-08-10T21:29:55Z</time>
      </trkpt>
      <trkpt lat="46.29573" lon="10.56289">
        <ele>2302.593</ele>
        <time>2018-08-10T21:30:15Z</time>
      </trkpt>
      <trkpt lat="46.29572" lon="10.56286">
        <ele>2301.965</ele>
        <time>2018-08-10T21:30:35Z</time>
      </trkpt>
      <trkpt lat="46.29571" lon="10.56282">
        <ele>2301.421</ele>
        <time>2018-08-10T21:30:55Z</time>
      </trkpt>
      <trkpt lat="46.29569" lon="10.56279">
        <ele>2300.808</ele>
        <time>2018-08-10T21:31:15Z</time>
      </trkpt>
      <trkpt lat="46.29568" lon="10.56277">
        <ele>2300.271</ele>
        <time>2018-08-10T21:31:35Z</time>
      </trkpt>
      <trkpt lat="46.29567" lon="10.56274">
        <ele>2299.766</ele>
        <time>2018-08-10T21:31:55Z</time>
      </trkpt>
      <trkpt lat="46.29565" lon="10.56272">
        <ele>2299.262</ele>
        <time>2018-08-10T21:32:15Z</time>
      </trkpt>
      <trkpt lat="46.29563" lon="10.5627">
        <ele>2298.966</ele>
        <time>2018-08-10T21:32:35Z</time>
      </trkpt>
      <trkpt lat="46.29561" lon="10.56268">
        <ele>2298.631</ele>
        <time>2018-08-10T21:32:55Z</time>
      </trkpt>
      <trkpt lat="46.29559" lon="10.56267">
        <ele>2298.562</ele>
        <time>2018-08-10T21:33:15Z</time>
      </trkpt>
      <trkpt lat="46.29484" lon="10.56226">
        <ele>2291.889</ele>
        <time>2018-08-10T21:33:35Z</time>
      </trkpt>
      <trkpt lat="46.29483" lon="10.56225">
        <ele>2291.722</ele>
        <time>2018-08-10T21:33:55Z</time>
      </trkpt>
      <trkpt lat="46.29481" lon="10.56223">
        <ele>2291.448</ele>
        <time>2018-08-10T21:34:15Z</time>
      </trkpt>
      <trkpt lat="46.29479" lon="10.56221">
        <ele>2291.261</ele>
        <time>2018-08-10T21:34:35Z</time>
      </trkpt>
      <trkpt lat="46.29477" lon="10.56218">
        <ele>2290.917</ele>
        <time>2018-08-10T21:34:55Z</time>
      </trkpt>
      <trkpt lat="46.29475" lon="10.56216">
        <ele>2290.708</ele>
        <time>2018-08-10T21:35:15Z</time>
      </trkpt>
      <trkpt lat="46.29472" lon="10.56214">
        <ele>2290.536</ele>
        <time>2018-08-10T21:35:35Z</time>
      </trkpt>
      <trkpt lat="46.2947" lon="10.56213">
        <ele>2290.361</ele>
        <time>2018-08-10T21:35:55Z</time>
      </trkpt>
      <trkpt lat="46.29468" lon="10.5621">
        <ele>2290.147</ele>
        <time>2018-08-10T21:36:15Z</time>
      </trkpt>
      <trkpt lat="46.29466" lon="10.56209">
        <ele>2289.861</ele>
        <time>2018-08-10T21:36:35Z</time>
      </trkpt>
      <trkpt lat="46.29464" lon="10.56207">
        <ele>2289.686</ele>
        <time>2018-08-10T21:36:55Z</time>
      </trkpt>
      <trkpt lat="46.29462" lon="10.56205">
        <ele>2289.377</ele>
        <time>2018-08-10T21:37:15Z</time>
      </trkpt>
      <trkpt lat="46.29426" lon="10.56174">
        <ele>2281.654</ele>
        <time>2018-08-10T21:37:35Z</time>
      </trkpt>
      <trkpt lat="46.29425" lon="10.56171">
        <ele>2280.957</ele>
        <time>2018-08-10T21:37:55Z</time>
      </trkpt>
      <trkpt lat="46.29423" lon="10.56168">
        <ele>2280.149</ele>
        <time>2018-08-10T21:38:15Z</time>
      </trkpt>
      <trkpt lat="46.29421" lon="10.56166">
        <ele>2279.302</ele>
        <time>2018-08-10T21:38:35Z</time>
      </trkpt>
      <trkpt lat="46.29419" lon="10.56164">
        <ele>2278.522</ele>
        <time>2018-08-10T21:38:55Z</time>
      </trkpt>
      <trkpt lat="46.29417" lon="10.56162">
        <ele>2277.808</ele>
        <time>2018-08-10T21:39:15Z</time>
      </trkpt>
      <trkpt lat="46.29415" lon="10.5616">
        <ele>2277.346</ele>
        <time>2018-08-10T21:39:35Z</time>
      </trkpt>
      <trkpt lat="46.29413" lon="10.56158">
        <ele>2276.851</ele>
        <time>2018-08-10T21:39:55Z</time>
      </trkpt>
      <trkpt lat="46.29411" lon="10.56156">
        <ele>2276.357</ele>
        <time>2018-08-10T21:40:15Z</time>
      </trkpt>
      <trkpt lat="46.2941" lon="10.56155">
        <ele>2276.151</ele>
        <time>2018-08-10T21:40:35Z</time>
      </trkpt>
      <trkpt lat="46.29408" lon="10.56154">
        <ele>2275.836</ele>
        <time>2018-08-10T21:40:55Z</time>
      </trkpt>
      <trkpt lat="46.29406" lon="10.56152">
        <ele>2275.427</ele>
        <time>2018-08-10T21:41:15Z</time>
      </trkpt>
      <trkpt lat="46.29405" lon="10.56151">
        <ele>2275.084</ele>
        <time>2018-08-10T21:41:35Z</time>
      </trkpt>
      <trkpt lat="46.29402" lon="10.5615">
        <ele>2274.877</ele>
        <time>2018-08-10T21:41:55Z</time>
      </trkpt>
      <trkpt lat="46.294" lon="10.56151">
        <ele>2275.052</ele>
        <time>2018-08-10T21:42:15Z</time>
      </trkpt>
      <trkpt lat="46.29398" lon="10.56152">
        <ele>2275.253</ele>
        <time>2018-08-10T21:42:35Z</time>
      </trkpt>
      <trkpt lat="46.29396" lon="10.56151">
        <ele>2275.108</ele>
        <time>2018-08-10T21:42:55Z</time>
      </trkpt>
      <trkpt lat="46.29393" lon="10.5615">
        <ele>2274.608</ele>
        <time>2018-08-10T21:43:15Z</time>
      </trkpt>
      <trkpt lat="46.29391" lon="10.56149">
        <ele>2274.547</ele>
        <time>2018-08-10T21:43:35Z</time>
      </trkpt>
      <trkpt lat="46.2939" lon="10.56148">
        <ele>2274.222</ele>
        <time>2018-08-10T21:43:55Z</time>
      </trkpt>
      <trkpt lat="46.29388" lon="10.56146">
        <ele>2273.918</ele>
        <time>2018-08-10T21:44:15Z</time>
      </trkpt>
      <trkpt lat="46.29386" lon="10.56145">
        <ele>2273.812</ele>
        <time>2018-08-10T21:44:35Z</time>
      </trkpt>
      <trkpt lat="46.29385" lon="10.56143">
        <ele>2273.717</ele>
        <time>2018-08-10T21:44:55Z</time>
      </trkpt>
      <trkpt lat="46.29383" lon="10.56141">
        <ele>2273.428</ele>
        <time>2018-08-10T21:45:15Z</time>
      </trkpt>
      <trkpt lat="46.29382" lon="10.5614">
        <ele>2273.175</ele>
        <time>2018-08-10T21:45:35Z</time>
      </trkpt>
      <trkpt lat="46.2938" lon="10.56137">
        <ele>2272.798</ele>
        <time>2018-08-10T21:45:55Z</time>
      </trkpt>
      <trkpt lat="46.29379" lon="10.56135">
        <ele>2272.218</ele>
        <time>2018-08-10T21:46:15Z</time>
      </trkpt>
      <trkpt lat="46.29377" lon="10.56132">
        <ele>2271.798</ele>
        <time>2018-08-10T21:46:35Z</time>
      </trkpt>
      <trkpt lat="46.29376" lon="10.5613">
        <ele>2271.417</ele>
        <time>2018-08-10T21:46:55Z</time>
      </trkpt>
      <trkpt lat="46.29374" lon="10.56128">
        <ele>2270.908</ele>
        <time>2018-08-10T21:47:15Z</time>
      </trkpt>
      <trkpt lat="46.29372" lon="10.56125">
        <ele>2270.593</ele>
        <time>2018-08-10T21:47:35Z</time>
      </trkpt>
      <trkpt lat="46.2937" lon="10.56124">
        <ele>2270.478</ele>
        <time>2018-08-10T21:47:55Z</time>
      </trkpt>
      <trkpt lat="46.29369" lon="10.56122">
        <ele>2270.094</ele>
        <time>2018-08-10T21:48:15Z</time>
      </trkpt>
      <trkpt lat="46.29367" lon="10.56119">
        <ele>2269.498</ele>
        <time>2018-08-10T21:48:35Z</time>
      </trkpt>
      <trkpt lat="46.29367" lon="10.56118">
        <ele>2269.283</ele>
        <time>2018-08-10T21:48:55Z</time>
      </trkpt>
      <trkpt lat="46.2933" lon="10.56066">
        <ele>2261.974</ele>
        <time>2018-08-10T21:49:15Z</time>
      </trkpt>
      <trkpt lat="46.29293" lon="10.56003">
        <ele>2249.261</ele>
        <time>2018-08-10T21:49:35Z</time>
      </trkpt>
      <trkpt lat="46.29291" lon="10.56">
        <ele>2248.514</ele>
        <time>2018-08-10T21:49:55Z</time>
      </trkpt>
      <trkpt lat="46.2929" lon="10.55998">
        <ele>2248.075</ele>
        <time>2018-08-10T21:50:15Z</time>
      </trkpt>
      <trkpt lat="46.29289" lon="10.55995">
        <ele>2247.428</ele>
        <time>2018-08-10T21:50:35Z</time>
      </trkpt>
      <trkpt lat="46.29287" lon="10.55992">
        <ele>2246.82</ele>
        <time>2018-08-10T21:50:55Z</time>
      </trkpt>
      <trkpt lat="46.29286" lon="10.5599">
        <ele>2246.308</ele>
        <time>2018-08-10T21:51:15Z</time>
      </trkpt>
      <trkpt lat="46.29284" lon="10.55989">
        <ele>2246.219</ele>
        <time>2018-08-10T21:51:35Z</time>
      </trkpt>
      <trkpt lat="46.29282" lon="10.55986">
        <ele>2245.844</ele>
        <time>2018-08-10T21:51:55Z</time>
      </trkpt>
      <trkpt lat="46.2928" lon="10.55984">
        <ele>2245.31</ele>
        <time>2018-08-10T21:52:15Z</time>
      </trkpt>
      <trkpt lat="46.29279" lon="10.55982">
        <ele>2244.884</ele>
        <time>2018-08-10T21:52:35Z</time>
      </trkpt>
      <trkpt lat="46.29278" lon="10.55979">
        <ele>2244.279</ele>
        <time>2018-08-10T21:52:55Z</time>
      </trkpt>
      <trkpt lat="46.29276" lon="10.55977">
        <ele>2243.66</ele>
        <time>2018-08-10T21:53:15Z</time>
      </trkpt>
      <trkpt lat="46.29274" lon="10.55975">
        <ele>2243.347</ele>
        <time>2018-08-10T21:53:35Z</time>
      </trkpt>
      <trkpt lat="46.29274" lon="10.55974">
        <ele>2243.01</ele>
        <time>2018-08-10T21:53:55Z</time>
      </trkpt>
      <trkpt lat="46.29233" lon="10.55912">
        <ele>2234.289</ele>
        <time>2018-08-10T21:54:15Z</time>
      </trkpt>
      <trkpt lat="46.29232" lon="10.5591">
        <ele>2234.106</ele>
        <time>2018-08-10T21:54:35Z</time>
      </trkpt>
      <trkpt lat="46.2923" lon="10.55908">
        <ele>2234.226</ele>
        <time>2018-08-10T21:54:55Z</time>
      </trkpt>
      <trkpt lat="46.29229" lon="10.55906">
        <ele>2234.008</ele>
        <time>2018-08-10T21:55:15Z</time>
      </trkpt>
      <trkpt lat="46.29227" lon="10.55903">
        <ele>2233.86</ele>
        <time>2018-08-10T21:55:35Z</time>
      </trkpt>
      <trkpt lat="46.29225" lon="10.55901">
        <ele>2233.725</ele>
        <time>2018-08-10T21:55:55Z</time>
      </trkpt>
      <trkpt lat="46.29224" lon="10.55898">
        <ele>2233.561</ele>
        <time>2018-08-10T21:56:15Z</time>
      </trkpt>
      <trkpt lat="46.29222" lon="10.55896">
        <ele>2233.595</ele>
        <time>2018-08-10T21:56:35Z</time>
      </trkpt>
      <trkpt lat="46.2922" lon="10.55894">
        <ele>2233.71</ele>
        <time>2018-08-10T21:56:55Z</time>
      </trkpt>
      <trkpt lat="46.29219" lon="10.55891">
        <ele>2233.591</ele>
        <time>2018-08-10T21:57:15Z</time>
      </trkpt>
      <trkpt lat="46.29217" lon="10.55889">
        <ele>2233.238</ele>
        <time>2018-08-10T21:57:35Z</time>
      </trkpt>
      <trkpt lat="46.29216" lon="10.55886">
        <ele>2233.071</ele>
        <time>2018-08-10T21:57:55Z</time>
      </trkpt>
      <trkpt lat="46.29215" lon="10.55883">
        <ele>2232.548</ele>
        <time>2018-08-10T21:58:15Z</time>
      </trkpt>
      <trkpt lat="46.29214" lon="10.5588">
        <ele>2231.961</ele>
        <time>2018-08-10T21:58:35Z</time>
      </trkpt>
      <trkpt lat="46.29213" lon="10.55876">
        <ele>2231.517</ele>
        <time>2018-08-10T21:58:55Z</time>
      </trkpt>
      <trkpt lat="46.29211" lon="10.55873">
        <ele>2231.208</ele>
        <time>2018-08-10T21:59:15Z</time>
      </trkpt>
      <trkpt lat="46.2921" lon="10.55871">
        <ele>2230.976</ele>
        <time>2018-08-10T21:59:35Z</time>
      </trkpt>
      <trkpt lat="46.29208" lon="10.55867">
        <ele>2230.511</ele>
        <time>2018-08-10T21:59:55Z</time>
      </trkpt>
      <trkpt lat="46.29207" lon="10.55865">
        <ele>2230.267</ele>
        <time>2018-08-10T22:00:15Z</time>
      </trkpt>
      <trkpt lat="46.29206" lon="10.55862">
        <ele>2229.891</ele>
        <time>2018-08-10T22:00:35Z</time>
      </trkpt>
      <trkpt lat="46.29204" lon="10.55859">
        <ele>2229.526</ele>
        <time>2018-08-10T22:00:55Z</time>
      </trkpt>
      <trkpt lat="46.29203" lon="10.55856">
        <ele>2229.077</ele>
        <time>2018-08-10T22:01:15Z</time>
      </trkpt>
      <trkpt lat="46.29202" lon="10.55853">
        <ele>2228.714</ele>
        <time>2018-08-10T22:01:35Z</time>
      </trkpt>
      <trkpt lat="46.29201" lon="10.5585">
        <ele>2228.387</ele>
        <time>2018-08-10T22:01:55Z</time>
      </trkpt>
      <trkpt lat="46.29199" lon="10.55848">
        <ele>2228.046</ele>
        <time>2018-08-10T22:02:15Z</time>
      </trkpt>
      <trkpt lat="46.29198" lon="10.55846">
        <ele>2227.988</ele>
        <time>2018-08-10T22:02:35Z</time>
      </trkpt>
      <trkpt lat="46.29196" lon="10.55844">
        <ele>2227.916</ele>
        <time>2018-08-10T22:02:55Z</time>
      </trkpt>
      <trkpt lat="46.29194" lon="10.55841">
        <ele>2227.608</ele>
        <time>2018-08-10T22:03:15Z</time>
      </trkpt>
      <trkpt lat="46.29193" lon="10.55838">
        <ele>2227.266</ele>
        <time>2018-08-10T22:03:35Z</time>
      </trkpt>
      <trkpt lat="46.29191" lon="10.55835">
        <ele>2226.771</ele>
        <time>2018-08-10T22:03:55Z</time>
      </trkpt>
      <trkpt lat="46.29184" lon="10.55823">
        <ele>2225.697</ele>
        <time>2018-08-10T22:04:15Z</time>
      </trkpt>
      <trkpt lat="46.29178" lon="10.55813">
        <ele>2224.751</ele>
        <time>2018-08-10T22:04:35Z</time>
      </trkpt>
      <trkpt lat="46.29173" lon="10.55805">
        <ele>2223.786</ele>
        <time>2018-08-10T22:04:55Z</time>
      </trkpt>
      <trkpt lat="46.29172" lon="10.55803">
        <ele>2223.637</ele>
        <time>2018-08-10T22:05:15Z</time>
      </trkpt>
      <trkpt lat="46.2917" lon="10.55801">
        <ele>2223.434</ele>
        <time>2018-08-10T22:05:35Z</time>
      </trkpt>
      <trkpt lat="46.29169" lon="10.55798">
        <ele>2223.277</ele>
        <time>2018-08-10T22:05:55Z</time>
      </trkpt>
      <trkpt lat="46.29167" lon="10.55796">
        <ele>2223.126</ele>
        <time>2018-08-10T22:06:15Z</time>
      </trkpt>
      <trkpt lat="46.29165" lon="10.55793">
        <ele>2222.847</ele>
        <time>2018-08-10T22:06:35Z</time>
      </trkpt>
      <trkpt lat="46.29164" lon="10.55791">
        <ele>2222.311</ele>
        <time>2018-08-10T22:06:55Z</time>
      </trkpt>
      <trkpt lat="46.29163" lon="10.55788">
        <ele>2222.008</ele>
        <time>2018-08-10T22:07:15Z</time>
      </trkpt>
      <trkpt lat="46.29161" lon="10.55786">
        <ele>2221.644</ele>
        <time>2018-08-10T22:07:35Z</time>
      </trkpt>
      <trkpt lat="46.2916" lon="10.55784">
        <ele>2221.349</ele>
        <time>2018-08-10T22:07:55Z</time>
      </trkpt>
      <trkpt lat="46.29159" lon="10.55781">
        <ele>2220.915</ele>
        <time>2018-08-10T22:08:15Z</time>
      </trkpt>
      <trkpt lat="46.29157" lon="10.55779">
        <ele>2220.769</ele>
        <time>2018-08-10T22:08:35Z</time>
      </trkpt>
      <trkpt lat="46.29155" lon="10.55776">
        <ele>2220.494</ele>
        <time>2018-08-10T22:08:55Z</time>
      </trkpt>
      <trkpt lat="46.29154" lon="10.55774">
        <ele>2220.025</ele>
        <time>2018-08-10T22:09:15Z</time>
      </trkpt>
      <trkpt lat="46.29153" lon="10.55771">
        <ele>2219.612</ele>
        <time>2018-08-10T22:09:35Z</time>
      </trkpt>
      <trkpt lat="46.29151" lon="10.55769">
        <ele>2219.245</ele>
        <time>2018-08-10T22:09:55Z</time>
      </trkpt>
      <trkpt lat="46.29149" lon="10.55767">
        <ele>2219.086</ele>
        <time>2018-08-10T22:10:15Z</time>
      </trkpt>
      <trkpt lat="46.29147" lon="10.55765">
        <ele>2218.96</ele>
        <time>2018-08-10T22:10:35Z</time>
      </trkpt>
      <trkpt lat="46.29146" lon="10.55763">
        <ele>2218.626</ele>
        <time>2018-08-10T22:10:55Z</time>
      </trkpt>
      <trkpt lat="46.29144" lon="10.55761">
        <ele>2218.208</ele>
        <time>2018-08-10T22:11:15Z</time>
      </trkpt>
      <trkpt lat="46.29142" lon="10.55759">
        <ele>2218.07</ele>
        <time>2018-08-10T22:11:35Z</time>
      </trkpt>
      <trkpt lat="46.29141" lon="10.55756">
        <ele>2217.755</ele>
        <time>2018-08-10T22:11:55Z</time>
      </trkpt>
      <trkpt lat="46.29139" lon="10.55754">
        <ele>2217.461</ele>
        <time>2018-08-10T22:12:15Z</time>
      </trkpt>
      <trkpt lat="46.29137" lon="10.55752">
        <ele>2217.045</ele>
        <time>2018-08-10T22:12:35Z</time>
      </trkpt>
      <trkpt lat="46.29135" lon="10.55749">
        <ele>2216.61</ele>
        <time>2018-08-10T22:12:55Z</time>
      </trkpt>
      <trkpt lat="46.29134" lon="10.55747">
        <ele>2216.231</ele>
        <time>2018-08-10T22:13:15Z</time>
      </trkpt>
      <trkpt lat="46.29132" lon="10.55745">
        <ele>2215.948</ele>
        <time>2018-08-10T22:13:35Z</time>
      </trkpt>
      <trkpt lat="46.2913" lon="10.55742">
        <ele>2215.621</ele>
        <time>2018-08-10T22:13:55Z</time>
      </trkpt>
      <trkpt lat="46.29129" lon="10.5574">
        <ele>2215.237</ele>
        <time>2018-08-10T22:14:15Z</time>
      </trkpt>
      <trkpt lat="46.29127" lon="10.55737">
        <ele>2214.849</ele>
        <time>2018-08-10T22:14:35Z</time>
      </trkpt>
      <trkpt lat="46.29125" lon="10.55735">
        <ele>2214.613</ele>
        <time>2018-08-10T22:14:55Z</time>
      </trkpt>
      <trkpt lat="46.29123" lon="10.55733">
        <ele>2214.308</ele>
        <time>2018-08-10T22:15:15Z</time>
      </trkpt>
      <trkpt lat="46.29121" lon="10.5573">
        <ele>2214.065</ele>
        <time>2018-08-10T22:15:35Z</time>
      </trkpt>
      <trkpt lat="46.29119" lon="10.55728">
        <ele>2213.97</ele>
        <time>2018-08-10T22:15:55Z</time>
      </trkpt>
      <trkpt lat="46.29117" lon="10.55726">
        <ele>2213.866</ele>
        <time>2018-08-10T22:16:15Z</time>
      </trkpt>
      <trkpt lat="46.29115" lon="10.55725">
        <ele>2213.77</ele>
        <time>2018-08-10T22:16:35Z</time>
      </trkpt>
      <trkpt lat="46.29113" lon="10.55723">
        <ele>2213.795</ele>
        <time>2018-08-10T22:16:55Z</time>
      </trkpt>
      <trkpt lat="46.29111" lon="10.55721">
        <ele>2213.786</ele>
        <time>2018-08-10T22:17:15Z</time>
      </trkpt>
      <trkpt lat="46.29109" lon="10.55719">
        <ele>2213.823</ele>
        <time>2018-08-10T22:17:35Z</time>
      </trkpt>
      <trkpt lat="46.29107" lon="10.55718">
        <ele>2214.046</ele>
        <time>2018-08-10T22:17:55Z</time>
      </trkpt>
      <trkpt lat="46.29104" lon="10.55716">
        <ele>2214.228</ele>
        <time>2018-08-10T22:18:15Z</time>
      </trkpt>
      <trkpt lat="46.29103" lon="10.55715">
        <ele>2214.289</ele>
        <time>2018-08-10T22:18:35Z</time>
      </trkpt>
      <trkpt lat="46.29101" lon="10.55713">
        <ele>2214.317</ele>
        <time>2018-08-10T22:18:55Z</time>
      </trkpt>
      <trkpt lat="46.29099" lon="10.55711">
        <ele>2214.308</ele>
        <time>2018-08-10T22:19:15Z</time>
      </trkpt>
      <trkpt lat="46.29097" lon="10.55709">
        <ele>2214.354</ele>
        <time>2018-08-10T22:19:35Z</time>
      </trkpt>
      <trkpt lat="46.29095" lon="10.55707">
        <ele>2214.369</ele>
        <time>2018-08-10T22:19:55Z</time>
      </trkpt>
      <trkpt lat="46.29094" lon="10.55704">
        <ele>2214.255</ele>
        <time>2018-08-10T22:20:15Z</time>
      </trkpt>
      <trkpt lat="46.29092" lon="10.55702">
        <ele>2214.219</ele>
        <time>2018-08-10T22:20:35Z</time>
      </trkpt>
      <trkpt lat="46.2909" lon="10.557">
        <ele>2214.234</ele>
        <time>2018-08-10T22:20:55Z</time>
      </trkpt>
      <trkpt lat="46.29088" lon="10.55698">
        <ele>2214.345</ele>
        <time>2018-08-10T22:21:15Z</time>
      </trkpt>
      <trkpt lat="46.29087" lon="10.55696">
        <ele>2214.362</ele>
        <time>2018-08-10T22:21:35Z</time>
      </trkpt>
      <trkpt lat="46.29085" lon="10.55694">
        <ele>2214.565</ele>
        <time>2018-08-10T22:21:55Z</time>
      </trkpt>
      <trkpt lat="46.29083" lon="10.55692">
        <ele>2214.747</ele>
        <time>2018-08-10T22:22:15Z</time>
      </trkpt>
      <trkpt lat="46.29081" lon="10.55689">
        <ele>2215.029</ele>
        <time>2018-08-10T22:22:35Z</time>
      </trkpt>
      <trkpt lat="46.29079" lon="10.55687">
        <ele>2215.321</ele>
        <time>2018-08-10T22:22:55Z</time>
      </trkpt>
      <trkpt lat="46.29077" lon="10.55685">
        <ele>2215.608</ele>
        <time>2018-08-10T22:23:15Z</time>
      </trkpt>
      <trkpt lat="46.29076" lon="10.55682">
        <ele>2215.776</ele>
        <time>2018-08-10T22:23:35Z</time>
      </trkpt>
      <trkpt lat="46.29075" lon="10.5568">
        <ele>2215.851</ele>
        <time>2018-08-10T22:23:55Z</time>
      </trkpt>
      <trkpt lat="46.29074" lon="10.55676">
        <ele>2215.737</ele>
        <time>2018-08-10T22:24:15Z</time>
      </trkpt>
      <trkpt lat="46.29073" lon="10.55673">
        <ele>2215.841</ele>
        <time>2018-08-10T22:24:35Z</time>
      </trkpt>
      <trkpt lat="46.29072" lon="10.5567">
        <ele>2215.516</ele>
        <time>2018-08-10T22:24:55Z</time>
      </trkpt>
      <trkpt lat="46.29072" lon="10.55667">
        <ele>2215.367</ele>
        <time>2018-08-10T22:25:15Z</time>
      </trkpt>
      <trkpt lat="46.29072" lon="10.55664">
        <ele>2215.324</ele>
        <time>2018-08-10T22:25:35Z</time>
      </trkpt>
      <trkpt lat="46.29072" lon="10.5566">
        <ele>2215.317</ele>
        <time>2018-08-10T22:25:55Z</time>
      </trkpt>
      <trkpt lat="46.29071" lon="10.55657">
        <ele>2215.471</ele>
        <time>2018-08-10T22:26:15Z</time>
      </trkpt>
      <trkpt lat="46.29071" lon="10.55653">
        <ele>2215.541</ele>
        <time>2018-08-10T22:26:35Z</time>
      </trkpt>
      <trkpt lat="46.29071" lon="10.55651">
        <ele>2215.515</ele>
        <time>2018-08-10T22:26:55Z</time>
      </trkpt>
      <trkpt lat="46.29071" lon="10.55647">
        <ele>2215.708</ele>
        <time>2018-08-10T22:27:15Z</time>
      </trkpt>
      <trkpt lat="46.2907" lon="10.55644">
        <ele>2215.969</ele>
        <time>2018-08-10T22:27:35Z</time>
      </trkpt>
      <trkpt lat="46.2907" lon="10.5564">
        <ele>2216.294</ele>
        <time>2018-08-10T22:27:55Z</time>
      </trkpt>
      <trkpt lat="46.2907" lon="10.55637">
        <ele>2216.41</ele>
        <time>2018-08-10T22:28:15Z</time>
      </trkpt>
      <trkpt lat="46.2907" lon="10.55633">
        <ele>2216.634</ele>
        <time>2018-08-10T22:28:35Z</time>
      </trkpt>
      <trkpt lat="46.29069" lon="10.55629">
        <ele>2216.979</ele>
        <time>2018-08-10T22:28:55Z</time>
      </trkpt>
      <trkpt lat="46.29069" lon="10.55625">
        <ele>2217.09</ele>
        <time>2018-08-10T22:29:15Z</time>
      </trkpt>
      <trkpt lat="46.2907" lon="10.55622">
        <ele>2217.077</ele>
        <time>2018-08-10T22:29:35Z</time>
      </trkpt>
      <trkpt lat="46.2907" lon="10.55618">
        <ele>2217.11</ele>
        <time>2018-08-10T22:29:55Z</time>
      </trkpt>
      <trkpt lat="46.29069" lon="10.55614">
        <ele>2217.447</ele>
        <time>2018-08-10T22:30:15Z</time>
      </trkpt>
      <trkpt lat="46.29069" lon="10.5561">
        <ele>2217.829</ele>
        <time>2018-08-10T22:30:35Z</time>
      </trkpt>
      <trkpt lat="46.29068" lon="10.55606">
        <ele>2218.121</ele>
        <time>2018-08-10T22:30:55Z</time>
      </trkpt>
      <trkpt lat="46.29067" lon="10.55603">
        <ele>2218.408</ele>
        <time>2018-08-10T22:31:15Z</time>
      </trkpt>
      <trkpt lat="46.29067" lon="10.55599">
        <ele>2218.326</ele>
        <time>2018-08-10T22:31:35Z</time>
      </trkpt>
      <trkpt lat="46.29067" lon="10.55596">
        <ele>2218.151</ele>
        <time>2018-08-10T22:31:55Z</time>
      </trkpt>
      <trkpt lat="46.29067" lon="10.55592">
        <ele>2217.717</ele>
        <time>2018-08-10T22:32:15Z</time>
      </trkpt>
      <trkpt lat="46.29067" lon="10.55588">
        <ele>2217.561</ele>
        <time>2018-08-10T22:32:35Z</time>
      </trkpt>
      <trkpt lat="46.29067" lon="10.55585">
        <ele>2217.166</ele>
        <time>2018-08-10T22:32:55Z</time>
      </trkpt>
      <trkpt lat="46.29067" lon="10.55581">
        <ele>2216.947</ele>
        <time>2018-08-10T22:33:15Z</time>
      </trkpt>
      <trkpt lat="46.29067" lon="10.55577">
        <ele>2216.584</ele>
        <time>2018-08-10T22:33:35Z</time>
      </trkpt>
      <trkpt lat="46.29067" lon="10.55573">
        <ele>2216.317</ele>
        <time>2018-08-10T22:33:55Z</time>
      </trkpt>
      <trkpt lat="46.29067" lon="10.55569">
        <ele>2216.184</ele>
        <time>2018-08-10T22:34:15Z</time>
      </trkpt>
      <trkpt lat="46.29067" lon="10.55566">
        <ele>2215.907</ele>
        <time>2018-08-10T22:34:35Z</time>
      </trkpt>
      <trkpt lat="46.29066" lon="10.55563">
        <ele>2215.817</ele>
        <time>2018-08-10T22:34:55Z</time>
      </trkpt>
      <trkpt lat="46.29066" lon="10.55559">
        <ele>2215.608</ele>
        <time>2018-08-10T22:35:15Z</time>
      </trkpt>
      <trkpt lat="46.29066" lon="10.55555">
        <ele>2215.26</ele>
        <time>2018-08-10T22:35:35Z</time>
      </trkpt>
      <trkpt lat="46.29066" lon="10.55551">
        <ele>2214.265</ele>
        <time>2018-08-10T22:35:55Z</time>
      </trkpt>
      <trkpt lat="46.29067" lon="10.55548">
        <ele>2213.191</ele>
        <time>2018-08-10T22:36:15Z</time>
      </trkpt>
      <trkpt lat="46.29068" lon="10.55545">
        <ele>2212.185</ele>
        <time>2018-08-10T22:36:35Z</time>
      </trkpt>
      <trkpt lat="46.29068" lon="10.55542">
        <ele>2211.49</ele>
        <time>2018-08-10T22:36:55Z</time>
      </trkpt>
      <trkpt lat="46.29068" lon="10.55539">
        <ele>2210.921</ele>
        <time>2018-08-10T22:37:15Z</time>
      </trkpt>
      <trkpt lat="46.29067" lon="10.55536">
        <ele>2210.798</ele>
        <time>2018-08-10T22:37:35Z</time>
      </trkpt>
      <trkpt lat="46.29065" lon="10.55533">
        <ele>2210.861</ele>
        <time>2018-08-10T22:37:55Z</time>
      </trkpt>
      <trkpt lat="46.29064" lon="10.5553">
        <ele>2210.533</ele>
        <time>2018-08-10T22:38:15Z</time>
      </trkpt>
      <trkpt lat="46.29063" lon="10.55526">
        <ele>2210.023</ele>
        <time>2018-08-10T22:38:35Z</time>
      </trkpt>
      <trkpt lat="46.29063" lon="10.55522">
        <ele>2209.015</ele>
        <time>2018-08-10T22:38:55Z</time>
      </trkpt>
      <trkpt lat="46.29063" lon="10.55519">
        <ele>2207.808</ele>
        <time>2018-08-10T22:39:15Z</time>
      </trkpt>
      <trkpt lat="46.29064" lon="10.55515">
        <ele>2206.675</ele>
        <time>2018-08-10T22:39:35Z</time>
      </trkpt>
      <trkpt lat="46.29064" lon="10.55511">
        <ele>2205.69</ele>
        <time>2018-08-10T22:39:55Z</time>
      </trkpt>
      <trkpt lat="46.29064" lon="10.55507">
        <ele>2204.516</ele>
        <time>2018-08-10T22:40:15Z</time>
      </trkpt>
      <trkpt lat="46.29063" lon="10.55504">
        <ele>2203.71</ele>
        <time>2018-08-10T22:40:35Z</time>
      </trkpt>
      <trkpt lat="46.29062" lon="10.55501">
        <ele>2203.245</ele>
        <time>2018-08-10T22:40:55Z</time>
      </trkpt>
      <trkpt lat="46.2906" lon="10.55498">
        <ele>2202.956</ele>
        <time>2018-08-10T22:41:15Z</time>
      </trkpt>
      <trkpt lat="46.29058" lon="10.55496">
        <ele>2202.743</ele>
        <time>2018-08-10T22:41:35Z</time>
      </trkpt>
      <trkpt lat="46.29056" lon="10.55494">
        <ele>2202.786</ele>
        <time>2018-08-10T22:41:55Z</time>
      </trkpt>
      <trkpt lat="46.29054" lon="10.55493">
        <ele>2202.081</ele>
        <time>2018-08-10T22:42:15Z</time>
      </trkpt>
      <trkpt lat="46.29051" lon="10.55491">
        <ele>2201.261</ele>
        <time>2018-08-10T22:42:35Z</time>
      </trkpt>
      <trkpt lat="46.29049" lon="10.5549">
        <ele>2200.417</ele>
        <time>2018-08-10T22:42:55Z</time>
      </trkpt>
      <trkpt lat="46.29046" lon="10.55488">
        <ele>2199.508</ele>
        <time>2018-08-10T22:43:15Z</time>
      </trkpt>
      <trkpt lat="46.29044" lon="10.55487">
        <ele>2198.86</ele>
        <time>2018-08-10T22:43:35Z</time>
      </trkpt>
      <trkpt lat="46.29041" lon="10.55486">
        <ele>2198.285</ele>
        <time>2018-08-10T22:43:55Z</time>
      </trkpt>
      <trkpt lat="46.29038" lon="10.55485">
        <ele>2197.611</ele>
        <time>2018-08-10T22:44:15Z</time>
      </trkpt>
      <trkpt lat="46.29036" lon="10.55484">
        <ele>2197.135</ele>
        <time>2018-08-10T22:44:35Z</time>
      </trkpt>
      <trkpt lat="46.29033" lon="10.55484">
        <ele>2196.75</ele>
        <time>2018-08-10T22:44:55Z</time>
      </trkpt>
      <trkpt lat="46.2903" lon="10.55484">
        <ele>2196.381</ele>
        <time>2018-08-10T22:45:15Z</time>
      </trkpt>
      <trkpt lat="46.29027" lon="10.55483">
        <ele>2195.888</ele>
        <time>2018-08-10T22:45:35Z</time>
      </trkpt>
      <trkpt lat="46.29025" lon="10.55483">
        <ele>2195.141</ele>
        <time>2018-08-10T22:45:55Z</time>
      </trkpt>
      <trkpt lat="46.29022" lon="10.55484">
        <ele>2194.445</ele>
        <time>2018-08-10T22:46:15Z</time>
      </trkpt>
      <trkpt lat="46.29019" lon="10.55484">
        <ele>2193.747</ele>
        <time>2018-08-10T22:46:35Z</time>
      </trkpt>
      <trkpt lat="46.29017" lon="10.55484">
        <ele>2192.911</ele>
        <time>2018-08-10T22:46:55Z</time>
      </trkpt>
      <trkpt lat="46.29014" lon="10.55484">
        <ele>2192.308</ele>
        <time>2018-08-10T22:47:15Z</time>
      </trkpt>
      <trkpt lat="46.29012" lon="10.55484">
        <ele>2191.666</ele>
        <time>2018-08-10T22:47:35Z</time>
      </trkpt>
      <trkpt lat="46.29009" lon="10.55485">
        <ele>2191.081</ele>
        <time>2018-08-10T22:47:55Z</time>
      </trkpt>
      <trkpt lat="46.29006" lon="10.55486">
        <ele>2190.547</ele>
        <time>2018-08-10T22:48:15Z</time>
      </trkpt>
      <trkpt lat="46.29003" lon="10.55486">
        <ele>2189.921</ele>
        <time>2018-08-10T22:48:35Z</time>
      </trkpt>
      <trkpt lat="46.29001" lon="10.55487">
        <ele>2189.376</ele>
        <time>2018-08-10T22:48:55Z</time>
      </trkpt>
      <trkpt lat="46.28998" lon="10.55487">
        <ele>2188.977</ele>
        <time>2018-08-10T22:49:15Z</time>
      </trkpt>
      <trkpt lat="46.28997" lon="10.55488">
        <ele>2188.644</ele>
        <time>2018-08-10T22:49:35Z</time>
      </trkpt>
      <trkpt lat="46.28994" lon="10.55488">
        <ele>2188.397</ele>
        <time>2018-08-10T22:49:55Z</time>
      </trkpt>
      <trkpt lat="46.28992" lon="10.55489">
        <ele>2187.829</ele>
        <time>2018-08-10T22:50:15Z</time>
      </trkpt>
      <trkpt lat="46.28989" lon="10.5549">
        <ele>2187.4</ele>
        <time>2018-08-10T22:50:35Z</time>
      </trkpt>
      <trkpt lat="46.28986" lon="10.55491">
        <ele>2187.02</ele>
        <time>2018-08-10T22:50:55Z</time>
      </trkpt>
      <trkpt lat="46.28984" lon="10.55492">
        <ele>2186.808</ele>
        <time>2018-08-10T22:51:15Z</time>
      </trkpt>
      <trkpt lat="46.28981" lon="10.55493">
        <ele>2186.634</ele>
        <time>2018-08-10T22:51:35Z</time>
      </trkpt>
      <trkpt lat="46.28979" lon="10.55495">
        <ele>2186.659</ele>
        <time>2018-08-10T22:51:55Z</time>
      </trkpt>
      <trkpt lat="46.28976" lon="10.55496">
        <ele>2186.665</ele>
        <time>2018-08-10T22:52:15Z</time>
      </trkpt>
      <trkpt lat="46.28974" lon="10.55498">
        <ele>2186.469</ele>
        <time>2018-08-10T22:52:35Z</time>
      </trkpt>
      <trkpt lat="46.28971" lon="10.55499">
        <ele>2186.524</ele>
        <time>2018-08-10T22:52:55Z</time>
      </trkpt>
      <trkpt lat="46.28969" lon="10.55501">
        <ele>2186.715</ele>
        <time>2018-08-10T22:53:15Z</time>
      </trkpt>
      <trkpt lat="46.28967" lon="10.55503">
        <ele>2187.242</ele>
        <time>2018-08-10T22:53:35Z</time>
      </trkpt>
      <trkpt lat="46.28965" lon="10.55506">
        <ele>2187.755</ele>
        <time>2018-08-10T22:53:55Z</time>
      </trkpt>
      <trkpt lat="46.28963" lon="10.55508">
        <ele>2188.377</ele>
        <time>2018-08-10T22:54:15Z</time>
      </trkpt>
      <trkpt lat="46.28961" lon="10.55511">
        <ele>2188.961</ele>
        <time>2018-08-10T22:54:35Z</time>
      </trkpt>
      <trkpt lat="46.28959" lon="10.55513">
        <ele>2189.327</ele>
        <time>2018-08-10T22:54:55Z</time>
      </trkpt>
      <trkpt lat="46.28957" lon="10.55515">
        <ele>2189.708</ele>
        <time>2018-08-10T22:55:15Z</time>
      </trkpt>
      <trkpt lat="46.28955" lon="10.55518">
        <ele>2190.139</ele>
        <time>2018-08-10T22:55:35Z</time>
      </trkpt>
      <trkpt lat="46.28952" lon="10.55519">
        <ele>2190.394</ele>
        <time>2018-08-10T22:55:55Z</time>
      </trkpt>
      <trkpt lat="46.2895" lon="10.55521">
        <ele>2190.68</ele>
        <time>2018-08-10T22:56:15Z</time>
      </trkpt>
      <trkpt lat="46.28949" lon="10.55522">
        <ele>2190.784</ele>
        <time>2018-08-10T22:56:35Z</time>
      </trkpt>
      <trkpt lat="46.28948" lon="10.55523">
        <ele>2191.029</ele>
        <time>2018-08-10T22:56:55Z</time>
      </trkpt>
      <trkpt lat="46.28946" lon="10.55525">
        <ele>2191.27</ele>
        <time>2018-08-10T22:57:15Z</time>
      </trkpt>
      <trkpt lat="46.28944" lon="10.55526">
        <ele>2191.317</ele>
        <time>2018-08-10T22:57:35Z</time>
      </trkpt>
      <trkpt lat="46.28942" lon="10.55527">
        <ele>2191.73</ele>
        <time>2018-08-10T22:57:55Z</time>
      </trkpt>
      <trkpt lat="46.2894" lon="10.55526">
        <ele>2191.821</ele>
        <time>2018-08-10T22:58:15Z</time>
      </trkpt>
      <trkpt lat="46.28937" lon="10.55526">
        <ele>2191.741</ele>
        <time>2018-08-10T22:58:35Z</time>
      </trkpt>
      <trkpt lat="46.28935" lon="10.55525">
        <ele>2191.805</ele>
        <time>2018-08-10T22:58:55Z</time>
      </trkpt>
      <trkpt lat="46.28932" lon="10.55525">
        <ele>2191.908</ele>
        <time>2018-08-10T22:59:15Z</time>
      </trkpt>
      <trkpt lat="46.28929" lon="10.55524">
        <ele>2191.874</ele>
        <time>2018-08-10T22:59:35Z</time>
      </trkpt>
      <trkpt lat="46.28927" lon="10.55523">
        <ele>2191.429</ele>
        <time>2018-08-10T22:59:55Z</time>
      </trkpt>
      <trkpt lat="46.28925" lon="10.55521">
        <ele>2190.825</ele>
        <time>2018-08-10T23:00:15Z</time>
      </trkpt>
      <trkpt lat="46.28922" lon="10.55518">
        <ele>2190.199</ele>
        <time>2018-08-10T23:00:35Z</time>
      </trkpt>
      <trkpt lat="46.2892" lon="10.55516">
        <ele>2189.464</ele>
        <time>2018-08-10T23:00:55Z</time>
      </trkpt>
      <trkpt lat="46.28918" lon="10.55514">
        <ele>2188.885</ele>
        <time>2018-08-10T23:01:15Z</time>
      </trkpt>
      <trkpt lat="46.28916" lon="10.55512">
        <ele>2188.432</ele>
        <time>2018-08-10T23:01:35Z</time>
      </trkpt>
      <trkpt lat="46.28913" lon="10.5551">
        <ele>2188.245</ele>
        <time>2018-08-10T23:01:55Z</time>
      </trkpt>
      <trkpt lat="46.28911" lon="10.55508">
        <ele>2188.037</ele>
        <time>2018-08-10T23:02:15Z</time>
      </trkpt>
      <trkpt lat="46.28909" lon="10.55506">
        <ele>2187.649</ele>
        <time>2018-08-10T23:02:35Z</time>
      </trkpt>
      <trkpt lat="46.28907" lon="10.55504">
        <ele>2187.313</ele>
        <time>2018-08-10T23:02:55Z</time>
      </trkpt>
      <trkpt lat="46.28905" lon="10.55502">
        <ele>2186.808</ele>
        <time>2018-08-10T23:03:15Z</time>
      </trkpt>
      <trkpt lat="46.28903" lon="10.555">
        <ele>2186.625</ele>
        <time>2018-08-10T23:03:35Z</time>
      </trkpt>
      <trkpt lat="46.28901" lon="10.55498">
        <ele>2186.11</ele>
        <time>2018-08-10T23:03:55Z</time>
      </trkpt>
      <trkpt lat="46.28899" lon="10.55495">
        <ele>2185.596</ele>
        <time>2018-08-10T23:04:15Z</time>
      </trkpt>
      <trkpt lat="46.28897" lon="10.55493">
        <ele>2185.23</ele>
        <time>2018-08-10T23:04:35Z</time>
      </trkpt>
      <trkpt lat="46.28895" lon="10.55492">
        <ele>2184.965</ele>
        <time>2018-08-10T23:04:55Z</time>
      </trkpt>
      <trkpt lat="46.28892" lon="10.5549">
        <ele>2184.776</ele>
        <time>2018-08-10T23:05:15Z</time>
      </trkpt>
      <trkpt lat="46.2889" lon="10.55488">
        <ele>2184.313</ele>
        <time>2018-08-10T23:05:35Z</time>
      </trkpt>
      <trkpt lat="46.28888" lon="10.55485">
        <ele>2183.916</ele>
        <time>2018-08-10T23:05:55Z</time>
      </trkpt>
      <trkpt lat="46.28886" lon="10.55483">
        <ele>2183.793</ele>
        <time>2018-08-10T23:06:15Z</time>
      </trkpt>
      <trkpt lat="46.28884" lon="10.55481">
        <ele>2183.565</ele>
        <time>2018-08-10T23:06:35Z</time>
      </trkpt>
      <trkpt lat="46.28882" lon="10.55478">
        <ele>2183.121</ele>
        <time>2018-08-10T23:06:55Z</time>
      </trkpt>
      <trkpt lat="46.2888" lon="10.55476">
        <ele>2182.808</ele>
        <time>2018-08-10T23:07:15Z</time>
      </trkpt>
      <trkpt lat="46.28878" lon="10.55474">
        <ele>2182.621</ele>
        <time>2018-08-10T23:07:35Z</time>
      </trkpt>
      <trkpt lat="46.28876" lon="10.55472">
        <ele>2182.666</ele>
        <time>2018-08-10T23:07:55Z</time>
      </trkpt>
      <trkpt lat="46.28874" lon="10.5547">
        <ele>2182.492</ele>
        <time>2018-08-10T23:08:15Z</time>
      </trkpt>
      <trkpt lat="46.28872" lon="10.55468">
        <ele>2182.336</ele>
        <time>2018-08-10T23:08:35Z</time>
      </trkpt>
      <trkpt lat="46.2887" lon="10.55466">
        <ele>2182.181</ele>
        <time>2018-08-10T23:08:55Z</time>
      </trkpt>
      <trkpt lat="46.28867" lon="10.55464">
        <ele>2182.172</ele>
        <time>2018-08-10T23:09:15Z</time>
      </trkpt>
      <trkpt lat="46.28865" lon="10.55462">
        <ele>2181.919</ele>
        <time>2018-08-10T23:09:35Z</time>
      </trkpt>
      <trkpt lat="46.28863" lon="10.55459">
        <ele>2181.672</ele>
        <time>2018-08-10T23:09:55Z</time>
      </trkpt>
      <trkpt lat="46.28861" lon="10.55457">
        <ele>2181.572</ele>
        <time>2018-08-10T23:10:15Z</time>
      </trkpt>
      <trkpt lat="46.2886" lon="10.55455">
        <ele>2181.113</ele>
        <time>2018-08-10T23:10:35Z</time>
      </trkpt>
      <trkpt lat="46.28858" lon="10.55452">
        <ele>2180.814</ele>
        <time>2018-08-10T23:10:55Z</time>
      </trkpt>
      <trkpt lat="46.28856" lon="10.5545">
        <ele>2180.508</ele>
        <time>2018-08-10T23:11:15Z</time>
      </trkpt>
      <trkpt lat="46.28854" lon="10.55448">
        <ele>2180.449</ele>
        <time>2018-08-10T23:11:35Z</time>
      </trkpt>
      <trkpt lat="46.28851" lon="10.55446">
        <ele>2180.444</ele>
        <time>2018-08-10T23:11:55Z</time>
      </trkpt>
      <trkpt lat="46.2885" lon="10.55445">
        <ele>2180.38</ele>
        <time>2018-08-10T23:12:15Z</time>
      </trkpt>
      <trkpt lat="46.28848" lon="10.55443">
        <ele>2180.044</ele>
        <time>2018-08-10T23:12:35Z</time>
      </trkpt>
      <trkpt lat="46.28846" lon="10.5544">
        <ele>2179.919</ele>
        <time>2018-08-10T23:12:55Z</time>
      </trkpt>
      <trkpt lat="46.28844" lon="10.55439">
        <ele>2180.06</ele>
        <time>2018-08-10T23:13:15Z</time>
      </trkpt>
      <trkpt lat="46.28842" lon="10.55437">
        <ele>2179.827</ele>
        <time>2018-08-10T23:13:35Z</time>
      </trkpt>
      <trkpt lat="46.2884" lon="10.55434">
        <ele>2179.53</ele>
        <time>2018-08-10T23:13:55Z</time>
      </trkpt>
      <trkpt lat="46.28838" lon="10.55433">
        <ele>2179.542</ele>
        <time>2018-08-10T23:14:15Z</time>
      </trkpt>
      <trkpt lat="46.28836" lon="10.55431">
        <ele>2179.322</ele>
        <time>2018-08-10T23:14:35Z</time>
      </trkpt>
      <trkpt lat="46.28834" lon="10.55429">
        <ele>2179.214</ele>
        <time>2018-08-10T23:14:55Z</time>
      </trkpt>
      <trkpt lat="46.28831" lon="10.55427">
        <ele>2179.008</ele>
        <time>2018-08-10T23:15:15Z</time>
      </trkpt>
      <trkpt lat="46.2883" lon="10.55425">
        <ele>2178.686</ele>
        <time>2018-08-10T23:15:35Z</time>
      </trkpt>
      <trkpt lat="46.28827" lon="10.55423">
        <ele>2178.441</ele>
        <time>2018-08-10T23:15:55Z</time>
      </trkpt>
      <trkpt lat="46.28825" lon="10.55421">
        <ele>2178.367</ele>
        <time>2018-08-10T23:16:15Z</time>
      </trkpt>
      <trkpt lat="46.28823" lon="10.55419">
        <ele>2178.151</ele>
        <time>2018-08-10T23:16:35Z</time>
      </trkpt>
      <trkpt lat="46.28821" lon="10.55417">
        <ele>2177.816</ele>
        <time>2018-08-10T23:16:55Z</time>
      </trkpt>
      <trkpt lat="46.28819" lon="10.55415">
        <ele>2177.477</ele>
        <time>2018-08-10T23:17:15Z</time>
      </trkpt>
      <trkpt lat="46.28817" lon="10.55412">
        <ele>2176.994</ele>
        <time>2018-08-10T23:17:35Z</time>
      </trkpt>
      <trkpt lat="46.28815" lon="10.5541">
        <ele>2176.627</ele>
        <time>2018-08-10T23:17:55Z</time>
      </trkpt>
      <trkpt lat="46.28813" lon="10.55408">
        <ele>2176.347</ele>
        <time>2018-08-10T23:18:15Z</time>
      </trkpt>
      <trkpt lat="46.2881" lon="10.55406">
        <ele>2176.029</ele>
        <time>2018-08-10T23:18:35Z</time>
      </trkpt>
      <trkpt lat="46.28808" lon="10.55405">
        <ele>2176.221</ele>
        <time>2018-08-10T23:18:55Z</time>
      </trkpt>
      <trkpt lat="46.28805" lon="10.55405">
        <ele>2176.908</ele>
        <time>2018-08-10T23:19:15Z</time>
      </trkpt>
      <trkpt lat="46.28803" lon="10.55404">
        <ele>2177.516</ele>
        <time>2018-08-10T23:19:35Z</time>
      </trkpt>
      <trkpt lat="46.288" lon="10.55403">
        <ele>2178.161</ele>
        <time>2018-08-10T23:19:55Z</time>
      </trkpt>
      <trkpt lat="46.28798" lon="10.55401">
        <ele>2178.497</ele>
        <time>2018-08-10T23:20:15Z</time>
      </trkpt>
      <trkpt lat="46.28796" lon="10.55399">
        <ele>2178.471</ele>
        <time>2018-08-10T23:20:35Z</time>
      </trkpt>
      <trkpt lat="46.28794" lon="10.55396">
        <ele>2177.846</ele>
        <time>2018-08-10T23:20:55Z</time>
      </trkpt>
      <trkpt lat="46.28793" lon="10.55392">
        <ele>2177.067</ele>
        <time>2018-08-10T23:21:15Z</time>
      </trkpt>
      <trkpt lat="46.28793" lon="10.55389">
        <ele>2176.124</ele>
        <time>2018-08-10T23:21:35Z</time>
      </trkpt>
      <trkpt lat="46.28792" lon="10.55385">
        <ele>2175.277</ele>
        <time>2018-08-10T23:21:55Z</time>
      </trkpt>
      <trkpt lat="46.28791" lon="10.55382">
        <ele>2174.646</ele>
        <time>2018-08-10T23:22:15Z</time>
      </trkpt>
      <trkpt lat="46.28789" lon="10.55379">
        <ele>2174.388</ele>
        <time>2018-08-10T23:22:35Z</time>
      </trkpt>
      <trkpt lat="46.28787" lon="10.55376">
        <ele>2174.316</ele>
        <time>2018-08-10T23:22:55Z</time>
      </trkpt>
      <trkpt lat="46.28785" lon="10.55374">
        <ele>2174.408</ele>
        <time>2018-08-10T23:23:15Z</time>
      </trkpt>
      <trkpt lat="46.28783" lon="10.55372">
        <ele>2174.436</ele>
        <time>2018-08-10T23:23:35Z</time>
      </trkpt>
      <trkpt lat="46.2878" lon="10.55369">
        <ele>2174.471</ele>
        <time>2018-08-10T23:23:55Z</time>
      </trkpt>
      <trkpt lat="46.28779" lon="10.55366">
        <ele>2174.197</ele>
        <time>2018-08-10T23:24:15Z</time>
      </trkpt>
      <trkpt lat="46.28777" lon="10.55363">
        <ele>2173.861</ele>
        <time>2018-08-10T23:24:35Z</time>
      </trkpt>
      <trkpt lat="46.28776" lon="10.5536">
        <ele>2173.626</ele>
        <time>2018-08-10T23:24:55Z</time>
      </trkpt>
      <trkpt lat="46.28774" lon="10.55357">
        <ele>2173.157</ele>
        <time>2018-08-10T23:25:15Z</time>
      </trkpt>
      <trkpt lat="46.28772" lon="10.55355">
        <ele>2172.824</ele>
        <time>2018-08-10T23:25:35Z</time>
      </trkpt>
      <trkpt lat="46.28771" lon="10.55352">
        <ele>2172.627</ele>
        <time>2018-08-10T23:25:55Z</time>
      </trkpt>
      <trkpt lat="46.28769" lon="10.55349">
        <ele>2172.372</ele>
        <time>2018-08-10T23:26:15Z</time>
      </trkpt>
      <trkpt lat="46.28768" lon="10.55347">
        <ele>2171.913</ele>
        <time>2018-08-10T23:26:35Z</time>
      </trkpt>
      <trkpt lat="46.28766" lon="10.55344">
        <ele>2171.414</ele>
        <time>2018-08-10T23:26:55Z</time>
      </trkpt>
      <trkpt lat="46.28765" lon="10.55341">
        <ele>2171.208</ele>
        <time>2018-08-10T23:27:15Z</time>
      </trkpt>
      <trkpt lat="46.28763" lon="10.55338">
        <ele>2170.959</ele>
        <time>2018-08-10T23:27:35Z</time>
      </trkpt>
      <trkpt lat="46.28761" lon="10.55335">
        <ele>2170.754</ele>
        <time>2018-08-10T23:27:55Z</time>
      </trkpt>
      <trkpt lat="46.2876" lon="10.55333">
        <ele>2170.73</ele>
        <time>2018-08-10T23:28:15Z</time>
      </trkpt>
      <trkpt lat="46.28758" lon="10.5533">
        <ele>2170.644</ele>
        <time>2018-08-10T23:28:35Z</time>
      </trkpt>
      <trkpt lat="46.28756" lon="10.55328">
        <ele>2170.539</ele>
        <time>2018-08-10T23:28:55Z</time>
      </trkpt>
      <trkpt lat="46.28754" lon="10.55326">
        <ele>2170.94</ele>
        <time>2018-08-10T23:29:15Z</time>
      </trkpt>
      <trkpt lat="46.28752" lon="10.55324">
        <ele>2171.127</ele>
        <time>2018-08-10T23:29:35Z</time>
      </trkpt>
      <trkpt lat="46.28751" lon="10.55321">
        <ele>2170.57</ele>
        <time>2018-08-10T23:29:55Z</time>
      </trkpt>
      <trkpt lat="46.2875" lon="10.55317">
        <ele>2169.583</ele>
        <time>2018-08-10T23:30:15Z</time>
      </trkpt>
      <trkpt lat="46.2875" lon="10.55314">
        <ele>2169.025</ele>
        <time>2018-08-10T23:30:35Z</time>
      </trkpt>
      <trkpt lat="46.28748" lon="10.55311">
        <ele>2168.617</ele>
        <time>2018-08-10T23:30:55Z</time>
      </trkpt>
      <trkpt lat="46.28747" lon="10.55309">
        <ele>2168.208</ele>
        <time>2018-08-10T23:31:15Z</time>
      </trkpt>
      <trkpt lat="46.28746" lon="10.55306">
        <ele>2167.94</ele>
        <time>2018-08-10T23:31:35Z</time>
      </trkpt>
      <trkpt lat="46.28744" lon="10.55303">
        <ele>2167.615</ele>
        <time>2018-08-10T23:31:55Z</time>
      </trkpt>
      <trkpt lat="46.28743" lon="10.553">
        <ele>2167.321</ele>
        <time>2018-08-10T23:32:15Z</time>
      </trkpt>
      <trkpt lat="46.28741" lon="10.55297">
        <ele>2167.375</ele>
        <time>2018-08-10T23:32:35Z</time>
      </trkpt>
      <trkpt lat="46.28739" lon="10.55295">
        <ele>2167.54</ele>
        <time>2018-08-10T23:32:55Z</time>
      </trkpt>
      <trkpt lat="46.28737" lon="10.55295">
        <ele>2168.371</ele>
        <time>2018-08-10T23:33:15Z</time>
      </trkpt>
      <trkpt lat="46.28734" lon="10.55293">
        <ele>2168.818</ele>
        <time>2018-08-10T23:33:35Z</time>
      </trkpt>
      <trkpt lat="46.28734" lon="10.5529">
        <ele>2168.371</ele>
        <time>2018-08-10T23:33:55Z</time>
      </trkpt>
      <trkpt lat="46.28733" lon="10.55286">
        <ele>2167.365</ele>
        <time>2018-08-10T23:34:15Z</time>
      </trkpt>
      <trkpt lat="46.28733" lon="10.55282">
        <ele>2166.468</ele>
        <time>2018-08-10T23:34:35Z</time>
      </trkpt>
      <trkpt lat="46.28732" lon="10.55279">
        <ele>2165.814</ele>
        <time>2018-08-10T23:34:55Z</time>
      </trkpt>
      <trkpt lat="46.28731" lon="10.55275">
        <ele>2165.308</ele>
        <time>2018-08-10T23:35:15Z</time>
      </trkpt>
      <trkpt lat="46.2873" lon="10.55272">
        <ele>2165.218</ele>
        <time>2018-08-10T23:35:35Z</time>
      </trkpt>
      <trkpt lat="46.28728" lon="10.55269">
        <ele>2165.143</ele>
        <time>2018-08-10T23:35:55Z</time>
      </trkpt>
      <trkpt lat="46.28727" lon="10.55266">
        <ele>2165.149</ele>
        <time>2018-08-10T23:36:15Z</time>
      </trkpt>
      <trkpt lat="46.28726" lon="10.55263">
        <ele>2164.983</ele>
        <time>2018-08-10T23:36:35Z</time>
      </trkpt>
      <trkpt lat="46.28724" lon="10.55259">
        <ele>2164.948</ele>
        <time>2018-08-10T23:36:55Z</time>
      </trkpt>
      <trkpt lat="46.28723" lon="10.55256">
        <ele>2164.999</ele>
        <time>2018-08-10T23:37:15Z</time>
      </trkpt>
      <trkpt lat="46.28722" lon="10.55253">
        <ele>2165.076</ele>
        <time>2018-08-10T23:37:35Z</time>
      </trkpt>
      <trkpt lat="46.2872" lon="10.5525">
        <ele>2165.419</ele>
        <time>2018-08-10T23:37:55Z</time>
      </trkpt>
      <trkpt lat="46.28719" lon="10.55247">
        <ele>2166.451</ele>
        <time>2018-08-10T23:38:15Z</time>
      </trkpt>
      <trkpt lat="46.28717" lon="10.55244">
        <ele>2167.401</ele>
        <time>2018-08-10T23:38:35Z</time>
      </trkpt>
      <trkpt lat="46.28715" lon="10.55241">
        <ele>2168.711</ele>
        <time>2018-08-10T23:38:55Z</time>
      </trkpt>
      <trkpt lat="46.28714" lon="10.55238">
        <ele>2169.808</ele>
        <time>2018-08-10T23:39:15Z</time>
      </trkpt>
      <trkpt lat="46.28713" lon="10.55234">
        <ele>2170.957</ele>
        <time>2018-08-10T23:39:35Z</time>
      </trkpt>
      <trkpt lat="46.28712" lon="10.55231">
        <ele>2172.082</ele>
        <time>2018-08-10T23:39:55Z</time>
      </trkpt>
      <trkpt lat="46.2871" lon="10.55228">
        <ele>2173.048</ele>
        <time>2018-08-10T23:40:15Z</time>
      </trkpt>
      <trkpt lat="46.28709" lon="10.55224">
        <ele>2174.232</ele>
        <time>2018-08-10T23:40:35Z</time>
      </trkpt>
      <trkpt lat="46.28708" lon="10.55221">
        <ele>2175.667</ele>
        <time>2018-08-10T23:40:55Z</time>
      </trkpt>
      <trkpt lat="46.28706" lon="10.55218">
        <ele>2176.918</ele>
        <time>2018-08-10T23:41:15Z</time>
      </trkpt>
      <trkpt lat="46.28705" lon="10.55215">
        <ele>2178.275</ele>
        <time>2018-08-10T23:41:35Z</time>
      </trkpt>
      <trkpt lat="46.28704" lon="10.55211">
        <ele>2179.578</ele>
        <time>2018-08-10T23:41:55Z</time>
      </trkpt>
      <trkpt lat="46.28704" lon="10.55207">
        <ele>2180.394</ele>
        <time>2018-08-10T23:42:15Z</time>
      </trkpt>
      <trkpt lat="46.28704" lon="10.55203">
        <ele>2180.957</ele>
        <time>2018-08-10T23:42:35Z</time>
      </trkpt>
      <trkpt lat="46.28703" lon="10.552">
        <ele>2181.522</ele>
        <time>2018-08-10T23:42:55Z</time>
      </trkpt>
      <trkpt lat="46.28704" lon="10.55196">
        <ele>2181.908</ele>
        <time>2018-08-10T23:43:15Z</time>
      </trkpt>
      <trkpt lat="46.28704" lon="10.55192">
        <ele>2182.161</ele>
        <time>2018-08-10T23:43:35Z</time>
      </trkpt>
      <trkpt lat="46.28705" lon="10.55188">
        <ele>2182.076</ele>
        <time>2018-08-10T23:43:55Z</time>
      </trkpt>
      <trkpt lat="46.28705" lon="10.55185">
        <ele>2182.192</ele>
        <time>2018-08-10T23:44:15Z</time>
      </trkpt>
      <trkpt lat="46.28706" lon="10.55181">
        <ele>2181.916</ele>
        <time>2018-08-10T23:44:35Z</time>
      </trkpt>
      <trkpt lat="46.28707" lon="10.55178">
        <ele>2181.821</ele>
        <time>2018-08-10T23:44:55Z</time>
      </trkpt>
      <trkpt lat="46.28709" lon="10.55175">
        <ele>2181.152</ele>
        <time>2018-08-10T23:45:15Z</time>
      </trkpt>
      <trkpt lat="46.2871" lon="10.55172">
        <ele>2180.459</ele>
        <time>2018-08-10T23:45:35Z</time>
      </trkpt>
      <trkpt lat="46.28712" lon="10.55169">
        <ele>2179.532</ele>
        <time>2018-08-10T23:45:55Z</time>
      </trkpt>
      <trkpt lat="46.28713" lon="10.55166">
        <ele>2178.858</ele>
        <time>2018-08-10T23:46:15Z</time>
      </trkpt>
      <trkpt lat="46.28715" lon="10.55163">
        <ele>2177.952</ele>
        <time>2018-08-10T23:46:35Z</time>
      </trkpt>
      <trkpt lat="46.28716" lon="10.5516">
        <ele>2177.217</ele>
        <time>2018-08-10T23:46:55Z</time>
      </trkpt>
      <trkpt lat="46.28717" lon="10.55156">
        <ele>2176.808</ele>
        <time>2018-08-10T23:47:15Z</time>
      </trkpt>
      <trkpt lat="46.28718" lon="10.55153">
        <ele>2176.497</ele>
        <time>2018-08-10T23:47:35Z</time>
      </trkpt>
      <trkpt lat="46.2872" lon="10.5515">
        <ele>2175.942</ele>
        <time>2018-08-10T23:47:55Z</time>
      </trkpt>
      <trkpt lat="46.28721" lon="10.55146">
        <ele>2175.368</ele>
        <time>2018-08-10T23:48:15Z</time>
      </trkpt>
      <trkpt lat="46.28723" lon="10.55144">
        <ele>2174.162</ele>
        <time>2018-08-10T23:48:35Z</time>
      </trkpt>
      <trkpt lat="46.28724" lon="10.55141">
        <ele>2173.147</ele>
        <time>2018-08-10T23:48:55Z</time>
      </trkpt>
      <trkpt lat="46.28726" lon="10.55138">
        <ele>2172.338</ele>
        <time>2018-08-10T23:49:15Z</time>
      </trkpt>
      <trkpt lat="46.28727" lon="10.55134">
        <ele>2171.875</ele>
        <time>2018-08-10T23:49:35Z</time>
      </trkpt>
      <trkpt lat="46.28729" lon="10.55131">
        <ele>2171.178</ele>
        <time>2018-08-10T23:49:55Z</time>
      </trkpt>
      <trkpt lat="46.2873" lon="10.55128">
        <ele>2170.754</ele>
        <time>2018-08-10T23:50:15Z</time>
      </trkpt>
      <trkpt lat="46.28731" lon="10.55124">
        <ele>2170.356</ele>
        <time>2018-08-10T23:50:35Z</time>
      </trkpt>
      <trkpt lat="46.28732" lon="10.5512">
        <ele>2170.111</ele>
        <time>2018-08-10T23:50:55Z</time>
      </trkpt>
      <trkpt lat="46.28733" lon="10.55117">
        <ele>2170.008</ele>
        <time>2018-08-10T23:51:15Z</time>
      </trkpt>
      <trkpt lat="46.28734" lon="10.55114">
        <ele>2169.997</ele>
        <time>2018-08-10T23:51:35Z</time>
      </trkpt>
      <trkpt lat="46.28737" lon="10.55104">
        <ele>2167.932</ele>
        <time>2018-08-10T23:51:55Z</time>
      </trkpt>
      <trkpt lat="46.28739" lon="10.55101">
        <ele>2166.848</ele>
        <time>2018-08-10T23:52:15Z</time>
      </trkpt>
      <trkpt lat="46.2874" lon="10.55098">
        <ele>2165.722</ele>
        <time>2018-08-10T23:52:35Z</time>
      </trkpt>
      <trkpt lat="46.28741" lon="10.55095">
        <ele>2164.957</ele>
        <time>2018-08-10T23:52:55Z</time>
      </trkpt>
      <trkpt lat="46.28742" lon="10.55091">
        <ele>2164.178</ele>
        <time>2018-08-10T23:53:15Z</time>
      </trkpt>
      <trkpt lat="46.28743" lon="10.55088">
        <ele>2163.385</ele>
        <time>2018-08-10T23:53:35Z</time>
      </trkpt>
      <trkpt lat="46.28744" lon="10.55084">
        <ele>2162.648</ele>
        <time>2018-08-10T23:53:55Z</time>
      </trkpt>
      <trkpt lat="46.28745" lon="10.55081">
        <ele>2161.775</ele>
        <time>2018-08-10T23:54:15Z</time>
      </trkpt>
      <trkpt lat="46.28746" lon="10.55077">
        <ele>2160.728</ele>
        <time>2018-08-10T23:54:35Z</time>
      </trkpt>
      <trkpt lat="46.28748" lon="10.55074">
        <ele>2159.62</ele>
        <time>2018-08-10T23:54:55Z</time>
      </trkpt>
      <trkpt lat="46.28748" lon="10.5507">
        <ele>2158.908</ele>
        <time>2018-08-10T23:55:15Z</time>
      </trkpt>
      <trkpt lat="46.28749" lon="10.55067">
        <ele>2158.169</ele>
        <time>2018-08-10T23:55:35Z</time>
      </trkpt>
      <trkpt lat="46.28749" lon="10.55063">
        <ele>2157.394</ele>
        <time>2018-08-10T23:55:55Z</time>
      </trkpt>
      <trkpt lat="46.2875" lon="10.55059">
        <ele>2156.59</ele>
        <time>2018-08-10T23:56:15Z</time>
      </trkpt>
      <trkpt lat="46.2875" lon="10.55055">
        <ele>2155.974</ele>
        <time>2018-08-10T23:56:35Z</time>
      </trkpt>
      <trkpt lat="46.2875" lon="10.55052">
        <ele>2155.579</ele>
        <time>2018-08-10T23:56:55Z</time>
      </trkpt>
      <trkpt lat="46.2875" lon="10.55048">
        <ele>2155.18</ele>
        <time>2018-08-10T23:57:15Z</time>
      </trkpt>
      <trkpt lat="46.28751" lon="10.55044">
        <ele>2154.867</ele>
        <time>2018-08-10T23:57:35Z</time>
      </trkpt>
      <trkpt lat="46.28751" lon="10.55041">
        <ele>2154.52</ele>
        <time>2018-08-10T23:57:55Z</time>
      </trkpt>
      <trkpt lat="46.28751" lon="10.55038">
        <ele>2154.484</ele>
        <time>2018-08-10T23:58:15Z</time>
      </trkpt>
      <trkpt lat="46.28751" lon="10.55034">
        <ele>2154.007</ele>
        <time>2018-08-10T23:58:35Z</time>
      </trkpt>
      <trkpt lat="46.28751" lon="10.55031">
        <ele>2153.717</ele>
        <time>2018-08-10T23:58:55Z</time>
      </trkpt>
      <trkpt lat="46.28751" lon="10.55027">
        <ele>2153.508</ele>
        <time>2018-08-10T23:59:15Z</time>
      </trkpt>
      <trkpt lat="46.2875" lon="10.55024">
        <ele>2153.34</ele>
        <time>2018-08-10T23:59:35Z</time>
      </trkpt>
      <trkpt lat="46.28751" lon="10.55021">
        <ele>2152.925</ele>
        <time>2018-08-10T23:59:55Z</time>
      </trkpt>
      <trkpt lat="46.28751" lon="10.55018">
        <ele>2152.531</ele>
        <time>2018-08-11T00:00:15Z</time>
      </trkpt>
      <trkpt lat="46.2875" lon="10.55015">
        <ele>2152.475</ele>
        <time>2018-08-11T00:00:35Z</time>
      </trkpt>
      <trkpt lat="46.2875" lon="10.55012">
        <ele>2152.11</ele>
        <time>2018-08-11T00:00:55Z</time>
      </trkpt>
      <trkpt lat="46.28751" lon="10.55009">
        <ele>2151.641</ele>
        <time>2018-08-11T00:01:15Z</time>
      </trkpt>
      <trkpt lat="46.2875" lon="10.55005">
        <ele>2151.358</ele>
        <time>2018-08-11T00:01:35Z</time>
      </trkpt>
      <trkpt lat="46.2875" lon="10.55002">
        <ele>2150.961</ele>
        <time>2018-08-11T00:01:55Z</time>
      </trkpt>
      <trkpt lat="46.2875" lon="10.54998">
        <ele>2150.532</ele>
        <time>2018-08-11T00:02:15Z</time>
      </trkpt>
      <trkpt lat="46.28751" lon="10.54995">
        <ele>2149.992</ele>
        <time>2018-08-11T00:02:35Z</time>
      </trkpt>
      <trkpt lat="46.2875" lon="10.54992">
        <ele>2149.511</ele>
        <time>2018-08-11T00:02:55Z</time>
      </trkpt>
      <trkpt lat="46.2875" lon="10.54988">
        <ele>2149.108</ele>
        <time>2018-08-11T00:03:15Z</time>
      </trkpt>
      <trkpt lat="46.2875" lon="10.54985">
        <ele>2148.825</ele>
        <time>2018-08-11T00:03:35Z</time>
      </trkpt>
      <trkpt lat="46.28749" lon="10.54982">
        <ele>2148.64</ele>
        <time>2018-08-11T00:03:55Z</time>
      </trkpt>
      <trkpt lat="46.28748" lon="10.54979">
        <ele>2148.466</ele>
        <time>2018-08-11T00:04:15Z</time>
      </trkpt>
      <trkpt lat="46.28747" lon="10.54976">
        <ele>2148.24</ele>
        <time>2018-08-11T00:04:35Z</time>
      </trkpt>
      <trkpt lat="46.28746" lon="10.54973">
        <ele>2147.865</ele>
        <time>2018-08-11T00:04:55Z</time>
      </trkpt>
      <trkpt lat="46.28746" lon="10.5497">
        <ele>2147.386</ele>
        <time>2018-08-11T00:05:15Z</time>
      </trkpt>
      <trkpt lat="46.28746" lon="10.54967">
        <ele>2146.723</ele>
        <time>2018-08-11T00:05:35Z</time>
      </trkpt>
      <trkpt lat="46.28746" lon="10.54963">
        <ele>2146.016</ele>
        <time>2018-08-11T00:05:55Z</time>
      </trkpt>
      <trkpt lat="46.28745" lon="10.5496">
        <ele>2145.548</ele>
        <time>2018-08-11T00:06:15Z</time>
      </trkpt>
      <trkpt lat="46.28744" lon="10.54957">
        <ele>2145.161</ele>
        <time>2018-08-11T00:06:35Z</time>
      </trkpt>
      <trkpt lat="46.28743" lon="10.54954">
        <ele>2144.617</ele>
        <time>2018-08-11T00:06:55Z</time>
      </trkpt>
      <trkpt lat="46.28742" lon="10.54951">
        <ele>2144.108</ele>
        <time>2018-08-11T00:07:15Z</time>
      </trkpt>
      <trkpt lat="46.28741" lon="10.54948">
        <ele>2143.626</ele>
        <time>2018-08-11T00:07:35Z</time>
      </trkpt>
      <trkpt lat="46.2874" lon="10.54945">
        <ele>2143.131</ele>
        <time>2018-08-11T00:07:55Z</time>
      </trkpt>
      <trkpt lat="46.28738" lon="10.54942">
        <ele>2142.617</ele>
        <time>2018-08-11T00:08:15Z</time>
      </trkpt>
      <trkpt lat="46.28737" lon="10.54939">
        <ele>2142.091</ele>
        <time>2018-08-11T00:08:35Z</time>
      </trkpt>
      <trkpt lat="46.28736" lon="10.54936">
        <ele>2141.516</ele>
        <time>2018-08-11T00:08:55Z</time>
      </trkpt>
      <trkpt lat="46.28734" lon="10.54934">
        <ele>2141.317</ele>
        <time>2018-08-11T00:09:15Z</time>
      </trkpt>
      <trkpt lat="46.28732" lon="10.54933">
        <ele>2141.194</ele>
        <time>2018-08-11T00:09:35Z</time>
      </trkpt>
      <trkpt lat="46.2873" lon="10.54932">
        <ele>2141.047</ele>
        <time>2018-08-11T00:09:55Z</time>
      </trkpt>
      <trkpt lat="46.28728" lon="10.54932">
        <ele>2141.287</ele>
        <time>2018-08-11T00:10:15Z</time>
      </trkpt>
      <trkpt lat="46.28715" lon="10.54942">
        <ele>2143.042</ele>
        <time>2018-08-11T00:10:35Z</time>
      </trkpt>
      <trkpt lat="46.28715" lon="10.54943">
        <ele>2143.126</ele>
        <time>2018-08-11T00:10:55Z</time>
      </trkpt>
      <trkpt lat="46.28697" lon="10.54968">
        <ele>2146.908</ele>
        <time>2018-08-11T00:11:15Z</time>
      </trkpt>
      <trkpt lat="46.28679" lon="10.54991">
        <ele>2146.92</ele>
        <time>2018-08-11T00:11:35Z</time>
      </trkpt>
      <trkpt lat="46.28641" lon="10.55033">
        <ele>2147.945</ele>
        <time>2018-08-11T00:11:55Z</time>
      </trkpt>
      <trkpt lat="46.28619" lon="10.55042">
        <ele>2147.381</ele>
        <time>2018-08-11T00:12:15Z</time>
      </trkpt>
      <trkpt lat="46.28592" lon="10.55036">
        <ele>2147.035</ele>
        <time>2018-08-11T00:12:35Z</time>
      </trkpt>
      <trkpt lat="46.28566" lon="10.55011">
        <ele>2148.69</ele>
        <time>2018-08-11T00:12:55Z</time>
      </trkpt>
      <trkpt lat="46.28538" lon="10.54977">
        <ele>2149.141</ele>
        <time>2018-08-11T00:13:15Z</time>
      </trkpt>
      <trkpt lat="46.28516" lon="10.54942">
        <ele>2148.788</ele>
        <time>2018-08-11T00:13:35Z</time>
      </trkpt>
      <trkpt lat="46.28515" lon="10.5494">
        <ele>2148.511</ele>
        <time>2018-08-11T00:13:55Z</time>
      </trkpt>
      <trkpt lat="46.28514" lon="10.54938">
        <ele>2148.421</ele>
        <time>2018-08-11T00:14:15Z</time>
      </trkpt>
      <trkpt lat="46.28513" lon="10.54935">
        <ele>2148.141</ele>
        <time>2018-08-11T00:14:35Z</time>
      </trkpt>
      <trkpt lat="46.28513" lon="10.54932">
        <ele>2147.805</ele>
        <time>2018-08-11T00:14:55Z</time>
      </trkpt>
      <trkpt lat="46.28511" lon="10.5493">
        <ele>2147.808</ele>
        <time>2018-08-11T00:15:15Z</time>
      </trkpt>
      <trkpt lat="46.2851" lon="10.54927">
        <ele>2148.064</ele>
        <time>2018-08-11T00:15:35Z</time>
      </trkpt>
      <trkpt lat="46.28508" lon="10.54925">
        <ele>2148.069</ele>
        <time>2018-08-11T00:15:55Z</time>
      </trkpt>
      <trkpt lat="46.28507" lon="10.54923">
        <ele>2148.095</ele>
        <time>2018-08-11T00:16:15Z</time>
      </trkpt>
      <trkpt lat="46.28505" lon="10.54921">
        <ele>2148.549</ele>
        <time>2018-08-11T00:16:35Z</time>
      </trkpt>
      <trkpt lat="46.28504" lon="10.54919">
        <ele>2148.834</ele>
        <time>2018-08-11T00:16:55Z</time>
      </trkpt>
      <trkpt lat="46.28502" lon="10.54917">
        <ele>2149.065</ele>
        <time>2018-08-11T00:17:15Z</time>
      </trkpt>
      <trkpt lat="46.28501" lon="10.54915">
        <ele>2149.432</ele>
        <time>2018-08-11T00:17:35Z</time>
      </trkpt>
      <trkpt lat="46.28499" lon="10.54914">
        <ele>2150.185</ele>
        <time>2018-08-11T00:17:55Z</time>
      </trkpt>
      <trkpt lat="46.28497" lon="10.54913">
        <ele>2151.089</ele>
        <time>2018-08-11T00:18:15Z</time>
      </trkpt>
      <trkpt lat="46.28495" lon="10.54912">
        <ele>2151.906</ele>
        <time>2018-08-11T00:18:35Z</time>
      </trkpt>
      <trkpt lat="46.28493" lon="10.5491">
        <ele>2152.926</ele>
        <time>2018-08-11T00:18:55Z</time>
      </trkpt>
      <trkpt lat="46.28491" lon="10.54909">
        <ele>2153.608</ele>
        <time>2018-08-11T00:19:15Z</time>
      </trkpt>
      <trkpt lat="46.2849" lon="10.54906">
        <ele>2153.99</ele>
        <time>2018-08-11T00:19:35Z</time>
      </trkpt>
      <trkpt lat="46.28489" lon="10.54903">
        <ele>2153.995</ele>
        <time>2018-08-11T00:19:55Z</time>
      </trkpt>
      <trkpt lat="46.28487" lon="10.54901">
        <ele>2154.341</ele>
        <time>2018-08-11T00:20:15Z</time>
      </trkpt>
      <trkpt lat="46.28486" lon="10.54899">
        <ele>2154.825</ele>
        <time>2018-08-11T00:20:35Z</time>
      </trkpt>
      <trkpt lat="46.28484" lon="10.54897">
        <ele>2155.44</ele>
        <time>2018-08-11T00:20:55Z</time>
      </trkpt>
      <trkpt lat="46.28483" lon="10.54895">
        <ele>2155.661</ele>
        <time>2018-08-11T00:21:15Z</time>
      </trkpt>
      <trkpt lat="46.28482" lon="10.54892">
        <ele>2155.758</ele>
        <time>2018-08-11T00:21:35Z</time>
      </trkpt>
      <trkpt lat="46.28484" lon="10.54876">
        <ele>2152.461</ele>
        <time>2018-08-11T00:21:55Z</time>
      </trkpt>
      <trkpt lat="46.2848" lon="10.54859">
        <ele>2151.134</ele>
        <time>2018-08-11T00:22:15Z</time>
      </trkpt>
      <trkpt lat="46.28477" lon="10.54834">
        <ele>2148.555</ele>
        <time>2018-08-11T00:22:35Z</time>
      </trkpt>
      <trkpt lat="46.2847" lon="10.54816">
        <ele>2149.51</ele>
        <time>2018-08-11T00:22:55Z</time>
      </trkpt>
      <trkpt lat="46.28462" lon="10.54797">
        <ele>2151.008</ele>
        <time>2018-08-11T00:23:15Z</time>
      </trkpt>
      <trkpt lat="46.28451" lon="10.54757">
        <ele>2151.345</ele>
        <time>2018-08-11T00:23:35Z</time>
      </trkpt>
      <trkpt lat="46.28442" lon="10.54721">
        <ele>2151.82</ele>
        <time>2018-08-11T00:23:55Z</time>
      </trkpt>
      <trkpt lat="46.28438" lon="10.54701">
        <ele>2160.296</ele>
        <time>2018-08-11T00:24:15Z</time>
      </trkpt>
      <trkpt lat="46.2844" lon="10.54676">
        <ele>2166.35</ele>
        <time>2018-08-11T00:24:35Z</time>
      </trkpt>
      <trkpt lat="46.2845" lon="10.54656">
        <ele>2166.515</ele>
        <time>2018-08-11T00:24:55Z</time>
      </trkpt>
      <trkpt lat="46.28471" lon="10.54613">
        <ele>2171.696</ele>
        <time>2018-08-11T00:25:15Z</time>
      </trkpt>
      <trkpt lat="46.28483" lon="10.54603">
        <ele>2162.693</ele>
        <time>2018-08-11T00:25:35Z</time>
      </trkpt>
      <trkpt lat="46.28484" lon="10.546">
        <ele>2161.536</ele>
        <time>2018-08-11T00:25:55Z</time>
      </trkpt>
      <trkpt lat="46.28485" lon="10.54597">
        <ele>2160.567</ele>
        <time>2018-08-11T00:26:15Z</time>
      </trkpt>
      <trkpt lat="46.28486" lon="10.54594">
        <ele>2159.781</ele>
        <time>2018-08-11T00:26:35Z</time>
      </trkpt>
      <trkpt lat="46.28487" lon="10.54591">
        <ele>2159.019</ele>
        <time>2018-08-11T00:26:55Z</time>
      </trkpt>
      <trkpt lat="46.28488" lon="10.54588">
        <ele>2158.208</ele>
        <time>2018-08-11T00:27:15Z</time>
      </trkpt>
      <trkpt lat="46.28489" lon="10.54585">
        <ele>2157.668</ele>
        <time>2018-08-11T00:27:35Z</time>
      </trkpt>
      <trkpt lat="46.2849" lon="10.54582">
        <ele>2156.923</ele>
        <time>2018-08-11T00:27:55Z</time>
      </trkpt>
      <trkpt lat="46.28491" lon="10.54579">
        <ele>2156.089</ele>
        <time>2018-08-11T00:28:15Z</time>
      </trkpt>
      <trkpt lat="46.28491" lon="10.54576">
        <ele>2155.163</ele>
        <time>2018-08-11T00:28:35Z</time>
      </trkpt>
      <trkpt lat="46.28492" lon="10.54572">
        <ele>2154.278</ele>
        <time>2018-08-11T00:28:55Z</time>
      </trkpt>
      <trkpt lat="46.28491" lon="10.54569">
        <ele>2153.769</ele>
        <time>2018-08-11T00:29:15Z</time>
      </trkpt>
      <trkpt lat="46.28492" lon="10.54566">
        <ele>2152.966</ele>
        <time>2018-08-11T00:29:35Z</time>
      </trkpt>
      <trkpt lat="46.28492" lon="10.54563">
        <ele>2152.279</ele>
        <time>2018-08-11T00:29:55Z</time>
      </trkpt>
      <trkpt lat="46.28493" lon="10.54559">
        <ele>2151.563</ele>
        <time>2018-08-11T00:30:15Z</time>
      </trkpt>
      <trkpt lat="46.28493" lon="10.54556">
        <ele>2150.744</ele>
        <time>2018-08-11T00:30:35Z</time>
      </trkpt>
      <trkpt lat="46.28494" lon="10.54553">
        <ele>2149.718</ele>
        <time>2018-08-11T00:30:55Z</time>
      </trkpt>
      <trkpt lat="46.28494" lon="10.54549">
        <ele>2148.608</ele>
        <time>2018-08-11T00:31:15Z</time>
      </trkpt>
      <trkpt lat="46.28494" lon="10.54546">
        <ele>2147.798</ele>
        <time>2018-08-11T00:31:35Z</time>
      </trkpt>
      <trkpt lat="46.28494" lon="10.54543">
        <ele>2146.783</ele>
        <time>2018-08-11T00:31:55Z</time>
      </trkpt>
      <trkpt lat="46.28493" lon="10.54539">
        <ele>2145.889</ele>
        <time>2018-08-11T00:32:15Z</time>
      </trkpt>
      <trkpt lat="46.28493" lon="10.54536">
        <ele>2144.973</ele>
        <time>2018-08-11T00:32:35Z</time>
      </trkpt>
      <trkpt lat="46.28493" lon="10.54533">
        <ele>2144.038</ele>
        <time>2018-08-11T00:32:55Z</time>
      </trkpt>
      <trkpt lat="46.28492" lon="10.54529">
        <ele>2143.239</ele>
        <time>2018-08-11T00:33:15Z</time>
      </trkpt>
      <trkpt lat="46.28492" lon="10.54526">
        <ele>2142.466</ele>
        <time>2018-08-11T00:33:35Z</time>
      </trkpt>
      <trkpt lat="46.28491" lon="10.54523">
        <ele>2141.479</ele>
        <time>2018-08-11T00:33:55Z</time>
      </trkpt>
      <trkpt lat="46.2849" lon="10.5452">
        <ele>2140.791</ele>
        <time>2018-08-11T00:34:15Z</time>
      </trkpt>
      <trkpt lat="46.28489" lon="10.54517">
        <ele>2140.181</ele>
        <time>2018-08-11T00:34:35Z</time>
      </trkpt>
      <trkpt lat="46.28487" lon="10.54515">
        <ele>2139.819</ele>
        <time>2018-08-11T00:34:55Z</time>
      </trkpt>
      <trkpt lat="46.28485" lon="10.54512">
        <ele>2139.108</ele>
        <time>2018-08-11T00:35:15Z</time>
      </trkpt>
      <trkpt lat="46.28484" lon="10.54509">
        <ele>2138.561</ele>
        <time>2018-08-11T00:35:35Z</time>
      </trkpt>
      <trkpt lat="46.28482" lon="10.54507">
        <ele>2138.226</ele>
        <time>2018-08-11T00:35:55Z</time>
      </trkpt>
      <trkpt lat="46.28474" lon="10.54501">
        <ele>2137.882</ele>
        <time>2018-08-11T00:36:15Z</time>
      </trkpt>
      <trkpt lat="46.28458" lon="10.54502">
        <ele>2135.986</ele>
        <time>2018-08-11T00:36:35Z</time>
      </trkpt>
      <trkpt lat="46.28444" lon="10.54509">
        <ele>2136.361</ele>
        <time>2018-08-11T00:36:55Z</time>
      </trkpt>
      <trkpt lat="46.28428" lon="10.5451">
        <ele>2136.092</ele>
        <time>2018-08-11T00:37:15Z</time>
      </trkpt>
      <trkpt lat="46.28397" lon="10.54508">
        <ele>2140.199</ele>
        <time>2018-08-11T00:37:35Z</time>
      </trkpt>
      <trkpt lat="46.28379" lon="10.54499">
        <ele>2144.882</ele>
        <time>2018-08-11T00:37:55Z</time>
      </trkpt>
      <trkpt lat="46.2836" lon="10.54482">
        <ele>2149.485</ele>
        <time>2018-08-11T00:38:15Z</time>
      </trkpt>
      <trkpt lat="46.28359" lon="10.54479">
        <ele>2149.689</ele>
        <time>2018-08-11T00:38:35Z</time>
      </trkpt>
      <trkpt lat="46.28357" lon="10.54476">
        <ele>2149.817</ele>
        <time>2018-08-11T00:38:55Z</time>
      </trkpt>
      <trkpt lat="46.28356" lon="10.54473">
        <ele>2149.908</ele>
        <time>2018-08-11T00:39:15Z</time>
      </trkpt>
      <trkpt lat="46.28355" lon="10.5447">
        <ele>2150.22</ele>
        <time>2018-08-11T00:39:35Z</time>
      </trkpt>
      <trkpt lat="46.28353" lon="10.54468">
        <ele>2151.085</ele>
        <time>2018-08-11T00:39:55Z</time>
      </trkpt>
      <trkpt lat="46.28352" lon="10.54465">
        <ele>2151.361</ele>
        <time>2018-08-11T00:40:15Z</time>
      </trkpt>
      <trkpt lat="46.28351" lon="10.54463">
        <ele>2151.385</ele>
        <time>2018-08-11T00:40:35Z</time>
      </trkpt>
      <trkpt lat="46.2835" lon="10.5446">
        <ele>2151.67</ele>
        <time>2018-08-11T00:40:55Z</time>
      </trkpt>
      <trkpt lat="46.28348" lon="10.54457">
        <ele>2152.211</ele>
        <time>2018-08-11T00:41:15Z</time>
      </trkpt>
      <trkpt lat="46.28346" lon="10.54455">
        <ele>2153.038</ele>
        <time>2018-08-11T00:41:35Z</time>
      </trkpt>
      <trkpt lat="46.28344" lon="10.54453">
        <ele>2154.011</ele>
        <time>2018-08-11T00:41:55Z</time>
      </trkpt>
      <trkpt lat="46.28342" lon="10.54451">
        <ele>2154.979</ele>
        <time>2018-08-11T00:42:15Z</time>
      </trkpt>
      <trkpt lat="46.28342" lon="10.5445">
        <ele>2155.005</ele>
        <time>2018-08-11T00:42:35Z</time>
      </trkpt>
      <trkpt lat="46.28336" lon="10.54443">
        <ele>2157.925</ele>
        <time>2018-08-11T00:42:55Z</time>
      </trkpt>
      <trkpt lat="46.28334" lon="10.54442">
        <ele>2159.108</ele>
        <time>2018-08-11T00:43:15Z</time>
      </trkpt>
      <trkpt lat="46.28332" lon="10.5444">
        <ele>2159.679</ele>
        <time>2018-08-11T00:43:35Z</time>
      </trkpt>
      <trkpt lat="46.2833" lon="10.54438">
        <ele>2159.714</ele>
        <time>2018-08-11T00:43:55Z</time>
      </trkpt>
      <trkpt lat="46.2833" lon="10.54435">
        <ele>2159.01</ele>
        <time>2018-08-11T00:44:15Z</time>
      </trkpt>
      <trkpt lat="46.2833" lon="10.54432">
        <ele>2158.444</ele>
        <time>2018-08-11T00:44:35Z</time>
      </trkpt>
      <trkpt lat="46.28328" lon="10.54429">
        <ele>2158.579</ele>
        <time>2018-08-11T00:44:55Z</time>
      </trkpt>
      <trkpt lat="46.28327" lon="10.54426">
        <ele>2158.62</ele>
        <time>2018-08-11T00:45:15Z</time>
      </trkpt>
      <trkpt lat="46.28326" lon="10.54424">
        <ele>2158.777</ele>
        <time>2018-08-11T00:45:35Z</time>
      </trkpt>
      <trkpt lat="46.28324" lon="10.54421">
        <ele>2159.04</ele>
        <time>2018-08-11T00:45:55Z</time>
      </trkpt>
      <trkpt lat="46.28323" lon="10.54418">
        <ele>2159.466</ele>
        <time>2018-08-11T00:46:15Z</time>
      </trkpt>
      <trkpt lat="46.28321" lon="10.54415">
        <ele>2160.229</ele>
        <time>2018-08-11T00:46:35Z</time>
      </trkpt>
      <trkpt lat="46.28319" lon="10.54413">
        <ele>2161.221</ele>
        <time>2018-08-11T00:46:55Z</time>
      </trkpt>
      <trkpt lat="46.28318" lon="10.54411">
        <ele>2162.108</ele>
        <time>2018-08-11T00:47:15Z</time>
      </trkpt>
      <trkpt lat="46.28316" lon="10.54408">
        <ele>2162.928</ele>
        <time>2018-08-11T00:47:35Z</time>
      </trkpt>
      <trkpt lat="46.28315" lon="10.54405">
        <ele>2163.453</ele>
        <time>2018-08-11T00:47:55Z</time>
      </trkpt>
      <trkpt lat="46.28314" lon="10.54403">
        <ele>2164.239</ele>
        <time>2018-08-11T00:48:15Z</time>
      </trkpt>
      <trkpt lat="46.28313" lon="10.544">
        <ele>2164.843</ele>
        <time>2018-08-11T00:48:35Z</time>
      </trkpt>
      <trkpt lat="46.28312" lon="10.54397">
        <ele>2165.088</ele>
        <time>2018-08-11T00:48:55Z</time>
      </trkpt>
      <trkpt lat="46.28312" lon="10.54393">
        <ele>2165.039</ele>
        <time>2018-08-11T00:49:15Z</time>
      </trkpt>
      <trkpt lat="46.28311" lon="10.5439">
        <ele>2165.256</ele>
        <time>2018-08-11T00:49:35Z</time>
      </trkpt>
      <trkpt lat="46.2831" lon="10.54386">
        <ele>2165.539</ele>
        <time>2018-08-11T00:49:55Z</time>
      </trkpt>
      <trkpt lat="46.28309" lon="10.54383">
        <ele>2165.858</ele>
        <time>2018-08-11T00:50:15Z</time>
      </trkpt>
      <trkpt lat="46.28309" lon="10.5438">
        <ele>2165.952</ele>
        <time>2018-08-11T00:50:35Z</time>
      </trkpt>
      <trkpt lat="46.28308" lon="10.54376">
        <ele>2166.217</ele>
        <time>2018-08-11T00:50:55Z</time>
      </trkpt>
      <trkpt lat="46.28307" lon="10.54373">
        <ele>2166.708</ele>
        <time>2018-08-11T00:51:15Z</time>
      </trkpt>
      <trkpt lat="46.28306" lon="10.5437">
        <ele>2166.997</ele>
        <time>2018-08-11T00:51:35Z</time>
      </trkpt>
      <trkpt lat="46.28306" lon="10.54366">
        <ele>2167.052</ele>
        <time>2018-08-11T00:51:55Z</time>
      </trkpt>
      <trkpt lat="46.28306" lon="10.54363">
        <ele>2166.738</ele>
        <time>2018-08-11T00:52:15Z</time>
      </trkpt>
      <trkpt lat="46.28306" lon="10.5436">
        <ele>2166.622</ele>
        <time>2018-08-11T00:52:35Z</time>
      </trkpt>
      <trkpt lat="46.28306" lon="10.54356">
        <ele>2166.427</ele>
        <time>2018-08-11T00:52:55Z</time>
      </trkpt>
      <trkpt lat="46.28306" lon="10.54353">
        <ele>2166.288</ele>
        <time>2018-08-11T00:53:15Z</time>
      </trkpt>
      <trkpt lat="46.28306" lon="10.54349">
        <ele>2166.135</ele>
        <time>2018-08-11T00:53:35Z</time>
      </trkpt>
      <trkpt lat="46.28305" lon="10.54345">
        <ele>2166.468</ele>
        <time>2018-08-11T00:53:55Z</time>
      </trkpt>
      <trkpt lat="46.28304" lon="10.54342">
        <ele>2167.015</ele>
        <time>2018-08-11T00:54:15Z</time>
      </trkpt>
      <trkpt lat="46.28303" lon="10.54339">
        <ele>2167.465</ele>
        <time>2018-08-11T00:54:35Z</time>
      </trkpt>
      <trkpt lat="46.28303" lon="10.54335">
        <ele>2167.911</ele>
        <time>2018-08-11T00:54:55Z</time>
      </trkpt>
      <trkpt lat="46.28303" lon="10.54332">
        <ele>2167.708</ele>
        <time>2018-08-11T00:55:15Z</time>
      </trkpt>
      <trkpt lat="46.28303" lon="10.54328">
        <ele>2167.013</ele>
        <time>2018-08-11T00:55:35Z</time>
      </trkpt>
      <trkpt lat="46.28304" lon="10.54325">
        <ele>2165.868</ele>
        <time>2018-08-11T00:55:55Z</time>
      </trkpt>
      <trkpt lat="46.28304" lon="10.54321">
        <ele>2165.014</ele>
        <time>2018-08-11T00:56:15Z</time>
      </trkpt>
      <trkpt lat="46.28304" lon="10.54317">
        <ele>2164.538</ele>
        <time>2018-08-11T00:56:35Z</time>
      </trkpt>
      <trkpt lat="46.28304" lon="10.54314">
        <ele>2164.053</ele>
        <time>2018-08-11T00:56:55Z</time>
      </trkpt>
      <trkpt lat="46.28304" lon="10.5431">
        <ele>2163.814</ele>
        <time>2018-08-11T00:57:15Z</time>
      </trkpt>
      <trkpt lat="46.28304" lon="10.54307">
        <ele>2163.831</ele>
        <time>2018-08-11T00:57:35Z</time>
      </trkpt>
      <trkpt lat="46.28304" lon="10.54303">
        <ele>2163.624</ele>
        <time>2018-08-11T00:57:55Z</time>
      </trkpt>
      <trkpt lat="46.28304" lon="10.543">
        <ele>2163.571</ele>
        <time>2018-08-11T00:58:15Z</time>
      </trkpt>
      <trkpt lat="46.28304" lon="10.54296">
        <ele>2162.941</ele>
        <time>2018-08-11T00:58:35Z</time>
      </trkpt>
      <trkpt lat="46.28304" lon="10.54293">
        <ele>2162.415</ele>
        <time>2018-08-11T00:58:55Z</time>
      </trkpt>
      <trkpt lat="46.28305" lon="10.54289">
        <ele>2161.608</ele>
        <time>2018-08-11T00:59:15Z</time>
      </trkpt>
      <trkpt lat="46.28305" lon="10.54285">
        <ele>2161.529</ele>
        <time>2018-08-11T00:59:35Z</time>
      </trkpt>
      <trkpt lat="46.28304" lon="10.54282">
        <ele>2161.544</ele>
        <time>2018-08-11T00:59:55Z</time>
      </trkpt>
      <trkpt lat="46.28304" lon="10.54279">
        <ele>2161.53</ele>
        <time>2018-08-11T01:00:15Z</time>
      </trkpt>
      <trkpt lat="46.28304" lon="10.54275">
        <ele>2161.574</ele>
        <time>2018-08-11T01:00:35Z</time>
      </trkpt>
      <trkpt lat="46.28304" lon="10.54272">
        <ele>2161.629</ele>
        <time>2018-08-11T01:00:55Z</time>
      </trkpt>
      <trkpt lat="46.28303" lon="10.54268">
        <ele>2161.54</ele>
        <time>2018-08-11T01:01:15Z</time>
      </trkpt>
      <trkpt lat="46.28303" lon="10.54265">
        <ele>2161.447</ele>
        <time>2018-08-11T01:01:35Z</time>
      </trkpt>
      <trkpt lat="46.28303" lon="10.54261">
        <ele>2161.04</ele>
        <time>2018-08-11T01:01:55Z</time>
      </trkpt>
      <trkpt lat="46.28303" lon="10.54258">
        <ele>2160.636</ele>
        <time>2018-08-11T01:02:15Z</time>
      </trkpt>
      <trkpt lat="46.28304" lon="10.54254">
        <ele>2160.117</ele>
        <time>2018-08-11T01:02:35Z</time>
      </trkpt>
      <trkpt lat="46.28304" lon="10.54251">
        <ele>2160.018</ele>
        <time>2018-08-11T01:02:55Z</time>
      </trkpt>
      <trkpt lat="46.28303" lon="10.54247">
        <ele>2160.108</ele>
        <time>2018-08-11T01:03:15Z</time>
      </trkpt>
      <trkpt lat="46.28303" lon="10.54244">
        <ele>2160.275</ele>
        <time>2018-08-11T01:03:35Z</time>
      </trkpt>
      <trkpt lat="46.28303" lon="10.5424">
        <ele>2159.88</ele>
        <time>2018-08-11T01:03:55Z</time>
      </trkpt>
      <trkpt lat="46.28303" lon="10.54237">
        <ele>2159.246</ele>
        <time>2018-08-11T01:04:15Z</time>
      </trkpt>
      <trkpt lat="46.28303" lon="10.54233">
        <ele>2159.09</ele>
        <time>2018-08-11T01:04:35Z</time>
      </trkpt>
      <trkpt lat="46.28302" lon="10.5423">
        <ele>2158.955</ele>
        <time>2018-08-11T01:04:55Z</time>
      </trkpt>
      <trkpt lat="46.28302" lon="10.54226">
        <ele>2158.666</ele>
        <time>2018-08-11T01:05:15Z</time>
      </trkpt>
      <trkpt lat="46.28303" lon="10.54223">
        <ele>2158.173</ele>
        <time>2018-08-11T01:05:35Z</time>
      </trkpt>
      <trkpt lat="46.28303" lon="10.54219">
        <ele>2157.746</ele>
        <time>2018-08-11T01:05:55Z</time>
      </trkpt>
      <trkpt lat="46.28302" lon="10.54216">
        <ele>2157.649</ele>
        <time>2018-08-11T01:06:15Z</time>
      </trkpt>
      <trkpt lat="46.28302" lon="10.54212">
        <ele>2157.802</ele>
        <time>2018-08-11T01:06:35Z</time>
      </trkpt>
      <trkpt lat="46.28302" lon="10.54209">
        <ele>2157.922</ele>
        <time>2018-08-11T01:06:55Z</time>
      </trkpt>
      <trkpt lat="46.28301" lon="10.54206">
        <ele>2158.008</ele>
        <time>2018-08-11T01:07:15Z</time>
      </trkpt>
      <trkpt lat="46.28301" lon="10.54203">
        <ele>2158.026</ele>
        <time>2018-08-11T01:07:35Z</time>
      </trkpt>
      <trkpt lat="46.28301" lon="10.54199">
        <ele>2158.061</ele>
        <time>2018-08-11T01:07:55Z</time>
      </trkpt>
      <trkpt lat="46.28301" lon="10.54196">
        <ele>2158.037</ele>
        <time>2018-08-11T01:08:15Z</time>
      </trkpt>
      <trkpt lat="46.283" lon="10.54192">
        <ele>2158.011</ele>
        <time>2018-08-11T01:08:35Z</time>
      </trkpt>
      <trkpt lat="46.283" lon="10.54189">
        <ele>2158.426</ele>
        <time>2018-08-11T01:08:55Z</time>
      </trkpt>
      <trkpt lat="46.28299" lon="10.54185">
        <ele>2158.957</ele>
        <time>2018-08-11T01:09:15Z</time>
      </trkpt>
      <trkpt lat="46.28298" lon="10.54182">
        <ele>2159.474</ele>
        <time>2018-08-11T01:09:35Z</time>
      </trkpt>
      <trkpt lat="46.28297" lon="10.54179">
        <ele>2159.937</ele>
        <time>2018-08-11T01:09:55Z</time>
      </trkpt>
      <trkpt lat="46.28297" lon="10.54176">
        <ele>2160.483</ele>
        <time>2018-08-11T01:10:15Z</time>
      </trkpt>
      <trkpt lat="46.28296" lon="10.54173">
        <ele>2161.025</ele>
        <time>2018-08-11T01:10:35Z</time>
      </trkpt>
      <trkpt lat="46.28295" lon="10.5417">
        <ele>2161.517</ele>
        <time>2018-08-11T01:10:55Z</time>
      </trkpt>
      <trkpt lat="46.28294" lon="10.54166">
        <ele>2162.308</ele>
        <time>2018-08-11T01:11:15Z</time>
      </trkpt>
      <trkpt lat="46.28293" lon="10.54163">
        <ele>2162.86</ele>
        <time>2018-08-11T01:11:35Z</time>
      </trkpt>
      <trkpt lat="46.28292" lon="10.5416">
        <ele>2163.485</ele>
        <time>2018-08-11T01:11:55Z</time>
      </trkpt>
      <trkpt lat="46.28291" lon="10.54156">
        <ele>2164.131</ele>
        <time>2018-08-11T01:12:15Z</time>
      </trkpt>
      <trkpt lat="46.2829" lon="10.54153">
        <ele>2164.845</ele>
        <time>2018-08-11T01:12:35Z</time>
      </trkpt>
      <trkpt lat="46.28288" lon="10.5415">
        <ele>2165.97</ele>
        <time>2018-08-11T01:12:55Z</time>
      </trkpt>
      <trkpt lat="46.28287" lon="10.54147">
        <ele>2167.441</ele>
        <time>2018-08-11T01:13:15Z</time>
      </trkpt>
      <trkpt lat="46.28285" lon="10.54144">
        <ele>2168.468</ele>
        <time>2018-08-11T01:13:35Z</time>
      </trkpt>
      <trkpt lat="46.28284" lon="10.54141">
        <ele>2168.831</ele>
        <time>2018-08-11T01:13:55Z</time>
      </trkpt>
      <trkpt lat="46.28284" lon="10.54138">
        <ele>2169.035</ele>
        <time>2018-08-11T01:14:15Z</time>
      </trkpt>
      <trkpt lat="46.28282" lon="10.54135">
        <ele>2168.886</ele>
        <time>2018-08-11T01:14:35Z</time>
      </trkpt>
      <trkpt lat="46.28282" lon="10.54132">
        <ele>2168.114</ele>
        <time>2018-08-11T01:14:55Z</time>
      </trkpt>
      <trkpt lat="46.28281" lon="10.54128">
        <ele>2167.408</ele>
        <time>2018-08-11T01:15:15Z</time>
      </trkpt>
      <trkpt lat="46.2828" lon="10.54125">
        <ele>2167.275</ele>
        <time>2018-08-11T01:15:35Z</time>
      </trkpt>
      <trkpt lat="46.28278" lon="10.54122">
        <ele>2167.27</ele>
        <time>2018-08-11T01:15:55Z</time>
      </trkpt>
      <trkpt lat="46.28276" lon="10.54119">
        <ele>2167.276</ele>
        <time>2018-08-11T01:16:15Z</time>
      </trkpt>
      <trkpt lat="46.28275" lon="10.54117">
        <ele>2167.29</ele>
        <time>2018-08-11T01:16:35Z</time>
      </trkpt>
      <trkpt lat="46.28273" lon="10.54114">
        <ele>2167.375</ele>
        <time>2018-08-11T01:16:55Z</time>
      </trkpt>
      <trkpt lat="46.28271" lon="10.54112">
        <ele>2167.476</ele>
        <time>2018-08-11T01:17:15Z</time>
      </trkpt>
      <trkpt lat="46.28269" lon="10.5411">
        <ele>2167.793</ele>
        <time>2018-08-11T01:17:35Z</time>
      </trkpt>
      <trkpt lat="46.2824" lon="10.54071">
        <ele>2174.466</ele>
        <time>2018-08-11T01:17:55Z</time>
      </trkpt>
      <trkpt lat="46.28239" lon="10.5407">
        <ele>2174.692</ele>
        <time>2018-08-11T01:18:15Z</time>
      </trkpt>
      <trkpt lat="46.28237" lon="10.54068">
        <ele>2174.973</ele>
        <time>2018-08-11T01:18:35Z</time>
      </trkpt>
      <trkpt lat="46.28235" lon="10.54066">
        <ele>2175.12</ele>
        <time>2018-08-11T01:18:55Z</time>
      </trkpt>
      <trkpt lat="46.28234" lon="10.54064">
        <ele>2175.208</ele>
        <time>2018-08-11T01:19:15Z</time>
      </trkpt>
      <trkpt lat="46.28232" lon="10.54061">
        <ele>2175.651</ele>
        <time>2018-08-11T01:19:35Z</time>
      </trkpt>
      <trkpt lat="46.2823" lon="10.54059">
        <ele>2175.746</ele>
        <time>2018-08-11T01:19:55Z</time>
      </trkpt>
      <trkpt lat="46.28229" lon="10.54056">
        <ele>2175.782</ele>
        <time>2018-08-11T01:20:15Z</time>
      </trkpt>
      <trkpt lat="46.28227" lon="10.54053">
        <ele>2175.756</ele>
        <time>2018-08-11T01:20:35Z</time>
      </trkpt>
      <trkpt lat="46.28226" lon="10.5405">
        <ele>2175.871</ele>
        <time>2018-08-11T01:20:55Z</time>
      </trkpt>
      <trkpt lat="46.28225" lon="10.54047">
        <ele>2175.962</ele>
        <time>2018-08-11T01:21:15Z</time>
      </trkpt>
      <trkpt lat="46.28224" lon="10.54044">
        <ele>2175.759</ele>
        <time>2018-08-11T01:21:35Z</time>
      </trkpt>
      <trkpt lat="46.28222" lon="10.54042">
        <ele>2175.842</ele>
        <time>2018-08-11T01:21:55Z</time>
      </trkpt>
      <trkpt lat="46.28221" lon="10.54039">
        <ele>2175.888</ele>
        <time>2018-08-11T01:22:15Z</time>
      </trkpt>
      <trkpt lat="46.28219" lon="10.54036">
        <ele>2175.524</ele>
        <time>2018-08-11T01:22:35Z</time>
      </trkpt>
      <trkpt lat="46.28218" lon="10.54033">
        <ele>2175.326</ele>
        <time>2018-08-11T01:22:55Z</time>
      </trkpt>
      <trkpt lat="46.28217" lon="10.5403">
        <ele>2175.208</ele>
        <time>2018-08-11T01:23:15Z</time>
      </trkpt>
      <trkpt lat="46.28215" lon="10.54027">
        <ele>2175.02</ele>
        <time>2018-08-11T01:23:35Z</time>
      </trkpt>
      <trkpt lat="46.28213" lon="10.54024">
        <ele>2174.765</ele>
        <time>2018-08-11T01:23:55Z</time>
      </trkpt>
      <trkpt lat="46.28212" lon="10.54022">
        <ele>2174.681</ele>
        <time>2018-08-11T01:24:15Z</time>
      </trkpt>
      <trkpt lat="46.2821" lon="10.54019">
        <ele>2174.655</ele>
        <time>2018-08-11T01:24:35Z</time>
      </trkpt>
      <trkpt lat="46.28208" lon="10.54017">
        <ele>2174.69</ele>
        <time>2018-08-11T01:24:55Z</time>
      </trkpt>
      <trkpt lat="46.28206" lon="10.54014">
        <ele>2174.741</ele>
        <time>2018-08-11T01:25:15Z</time>
      </trkpt>
      <trkpt lat="46.28205" lon="10.54012">
        <ele>2174.638</ele>
        <time>2018-08-11T01:25:35Z</time>
      </trkpt>
      <trkpt lat="46.28203" lon="10.54009">
        <ele>2174.741</ele>
        <time>2018-08-11T01:25:55Z</time>
      </trkpt>
      <trkpt lat="46.28201" lon="10.54007">
        <ele>2175.329</ele>
        <time>2018-08-11T01:26:15Z</time>
      </trkpt>
      <trkpt lat="46.28199" lon="10.54005">
        <ele>2175.5</ele>
        <time>2018-08-11T01:26:35Z</time>
      </trkpt>
      <trkpt lat="46.28197" lon="10.54003">
        <ele>2175.92</ele>
        <time>2018-08-11T01:26:55Z</time>
      </trkpt>
      <trkpt lat="46.28196" lon="10.54001">
        <ele>2176.508</ele>
        <time>2018-08-11T01:27:15Z</time>
      </trkpt>
      <trkpt lat="46.28194" lon="10.53998">
        <ele>2176.734</ele>
        <time>2018-08-11T01:27:35Z</time>
      </trkpt>
      <trkpt lat="46.28192" lon="10.53996">
        <ele>2176.829</ele>
        <time>2018-08-11T01:27:55Z</time>
      </trkpt>
      <trkpt lat="46.2819" lon="10.53994">
        <ele>2176.825</ele>
        <time>2018-08-11T01:28:15Z</time>
      </trkpt>
      <trkpt lat="46.28188" lon="10.53992">
        <ele>2176.859</ele>
        <time>2018-08-11T01:28:35Z</time>
      </trkpt>
      <trkpt lat="46.28186" lon="10.5399">
        <ele>2176.934</ele>
        <time>2018-08-11T01:28:55Z</time>
      </trkpt>
      <trkpt lat="46.28184" lon="10.53988">
        <ele>2176.725</ele>
        <time>2018-08-11T01:29:15Z</time>
      </trkpt>
      <trkpt lat="46.28183" lon="10.53985">
        <ele>2176.212</ele>
        <time>2018-08-11T01:29:35Z</time>
      </trkpt>
      <trkpt lat="46.28181" lon="10.53982">
        <ele>2175.815</ele>
        <time>2018-08-11T01:29:55Z</time>
      </trkpt>
      <trkpt lat="46.28179" lon="10.53979">
        <ele>2175.647</ele>
        <time>2018-08-11T01:30:15Z</time>
      </trkpt>
      <trkpt lat="46.28178" lon="10.53977">
        <ele>2175.429</ele>
        <time>2018-08-11T01:30:35Z</time>
      </trkpt>
      <trkpt lat="46.28176" lon="10.53975">
        <ele>2175.221</ele>
        <time>2018-08-11T01:30:55Z</time>
      </trkpt>
      <trkpt lat="46.28174" lon="10.53972">
        <ele>2175.208</ele>
        <time>2018-08-11T01:31:15Z</time>
      </trkpt>
      <trkpt lat="46.28172" lon="10.5397">
        <ele>2175.096</ele>
        <time>2018-08-11T01:31:35Z</time>
      </trkpt>
      <trkpt lat="46.2817" lon="10.53968">
        <ele>2174.891</ele>
        <time>2018-08-11T01:31:55Z</time>
      </trkpt>
      <trkpt lat="46.28168" lon="10.53966">
        <ele>2174.997</ele>
        <time>2018-08-11T01:32:15Z</time>
      </trkpt>
      <trkpt lat="46.28166" lon="10.53964">
        <ele>2175.231</ele>
        <time>2018-08-11T01:32:35Z</time>
      </trkpt>
      <trkpt lat="46.28164" lon="10.53963">
        <ele>2175.236</ele>
        <time>2018-08-11T01:32:55Z</time>
      </trkpt>
      <trkpt lat="46.28163" lon="10.53961">
        <ele>2174.927</ele>
        <time>2018-08-11T01:33:15Z</time>
      </trkpt>
      <trkpt lat="46.28161" lon="10.53959">
        <ele>2174.594</ele>
        <time>2018-08-11T01:33:35Z</time>
      </trkpt>
      <trkpt lat="46.28159" lon="10.53958">
        <ele>2174.417</ele>
        <time>2018-08-11T01:33:55Z</time>
      </trkpt>
      <trkpt lat="46.28157" lon="10.53955">
        <ele>2174.113</ele>
        <time>2018-08-11T01:34:15Z</time>
      </trkpt>
      <trkpt lat="46.28154" lon="10.53954">
        <ele>2174.243</ele>
        <time>2018-08-11T01:34:35Z</time>
      </trkpt>
      <trkpt lat="46.28152" lon="10.53953">
        <ele>2174.407</ele>
        <time>2018-08-11T01:34:55Z</time>
      </trkpt>
      <trkpt lat="46.2815" lon="10.53952">
        <ele>2174.408</ele>
        <time>2018-08-11T01:35:15Z</time>
      </trkpt>
      <trkpt lat="46.28148" lon="10.5395">
        <ele>2174.383</ele>
        <time>2018-08-11T01:35:35Z</time>
      </trkpt>
      <trkpt lat="46.28146" lon="10.53948">
        <ele>2174.468</ele>
        <time>2018-08-11T01:35:55Z</time>
      </trkpt>
      <trkpt lat="46.28143" lon="10.53948">
        <ele>2174.754</ele>
        <time>2018-08-11T01:36:15Z</time>
      </trkpt>
      <trkpt lat="46.28141" lon="10.53947">
        <ele>2175.078</ele>
        <time>2018-08-11T01:36:35Z</time>
      </trkpt>
      <trkpt lat="46.28139" lon="10.53946">
        <ele>2175.463</ele>
        <time>2018-08-11T01:36:55Z</time>
      </trkpt>
      <trkpt lat="46.28136" lon="10.53945">
        <ele>2175.064</ele>
        <time>2018-08-11T01:37:15Z</time>
      </trkpt>
      <trkpt lat="46.28134" lon="10.53945">
        <ele>2174.721</ele>
        <time>2018-08-11T01:37:35Z</time>
      </trkpt>
      <trkpt lat="46.28124" lon="10.53944">
        <ele>2173.594</ele>
        <time>2018-08-11T01:37:55Z</time>
      </trkpt>
      <trkpt lat="46.28121" lon="10.53943">
        <ele>2173.285</ele>
        <time>2018-08-11T01:38:15Z</time>
      </trkpt>
      <trkpt lat="46.2812" lon="10.53941">
        <ele>2172.289</ele>
        <time>2018-08-11T01:38:35Z</time>
      </trkpt>
      <trkpt lat="46.28118" lon="10.53939">
        <ele>2171.517</ele>
        <time>2018-08-11T01:38:55Z</time>
      </trkpt>
      <trkpt lat="46.28116" lon="10.53938">
        <ele>2170.908</ele>
        <time>2018-08-11T01:39:15Z</time>
      </trkpt>
      <trkpt lat="46.28113" lon="10.53937">
        <ele>2170.48</ele>
        <time>2018-08-11T01:39:35Z</time>
      </trkpt>
      <trkpt lat="46.28111" lon="10.53936">
        <ele>2170.045</ele>
        <time>2018-08-11T01:39:55Z</time>
      </trkpt>
      <trkpt lat="46.28078" lon="10.53974">
        <ele>2171.441</ele>
        <time>2018-08-11T01:40:15Z</time>
      </trkpt>
      <trkpt lat="46.28067" lon="10.5399">
        <ele>2172.045</ele>
        <time>2018-08-11T01:40:35Z</time>
      </trkpt>
      <trkpt lat="46.28067" lon="10.5399">
        <ele>2172.01</ele>
        <time>2018-08-11T01:40:55Z</time>
      </trkpt>
      <trkpt lat="46.28054" lon="10.54016">
        <ele>2173.211</ele>
        <time>2018-08-11T01:41:15Z</time>
      </trkpt>
      <trkpt lat="46.28047" lon="10.54032">
        <ele>2175.028</ele>
        <time>2018-08-11T01:41:35Z</time>
      </trkpt>
      <trkpt lat="46.28047" lon="10.54035">
        <ele>2175.561</ele>
        <time>2018-08-11T01:41:55Z</time>
      </trkpt>
      <trkpt lat="46.28045" lon="10.54038">
        <ele>2175.914</ele>
        <time>2018-08-11T01:42:15Z</time>
      </trkpt>
      <trkpt lat="46.28044" lon="10.54041">
        <ele>2176.554</ele>
        <time>2018-08-11T01:42:35Z</time>
      </trkpt>
      <trkpt lat="46.28043" lon="10.54044">
        <ele>2177.109</ele>
        <time>2018-08-11T01:42:55Z</time>
      </trkpt>
      <trkpt lat="46.28042" lon="10.54048">
        <ele>2177.408</ele>
        <time>2018-08-11T01:43:15Z</time>
      </trkpt>
      <trkpt lat="46.28041" lon="10.54051">
        <ele>2177.623</ele>
        <time>2018-08-11T01:43:35Z</time>
      </trkpt>
      <trkpt lat="46.2804" lon="10.54053">
        <ele>2177.668</ele>
        <time>2018-08-11T01:43:55Z</time>
      </trkpt>
      <trkpt lat="46.28038" lon="10.54056">
        <ele>2177.724</ele>
        <time>2018-08-11T01:44:15Z</time>
      </trkpt>
      <trkpt lat="46.28037" lon="10.54058">
        <ele>2177.868</ele>
        <time>2018-08-11T01:44:35Z</time>
      </trkpt>
      <trkpt lat="46.28035" lon="10.54063">
        <ele>2178.833</ele>
        <time>2018-08-11T01:44:55Z</time>
      </trkpt>
      <trkpt lat="46.28022" lon="10.54084">
        <ele>2182.064</ele>
        <time>2018-08-11T01:45:15Z</time>
      </trkpt>
      <trkpt lat="46.28022" lon="10.54084">
        <ele>2182.191</ele>
        <time>2018-08-11T01:45:35Z</time>
      </trkpt>
      <trkpt lat="46.28007" lon="10.54095">
        <ele>2182.344</ele>
        <time>2018-08-11T01:45:55Z</time>
      </trkpt>
      <trkpt lat="46.27989" lon="10.54104">
        <ele>2182.082</ele>
        <time>2018-08-11T01:46:15Z</time>
      </trkpt>
      <trkpt lat="46.27966" lon="10.54114">
        <ele>2179.443</ele>
        <time>2018-08-11T01:46:35Z</time>
      </trkpt>
      <trkpt lat="46.27949" lon="10.54135">
        <ele>2182.817</ele>
        <time>2018-08-11T01:46:55Z</time>
      </trkpt>
      <trkpt lat="46.27943" lon="10.54142">
        <ele>2183.808</ele>
        <time>2018-08-11T01:47:15Z</time>
      </trkpt>
      <trkpt lat="46.27932" lon="10.54162">
        <ele>2189.82</ele>
        <time>2018-08-11T01:47:35Z</time>
      </trkpt>
      <trkpt lat="46.27916" lon="10.54179">
        <ele>2194.965</ele>
        <time>2018-08-11T01:47:55Z</time>
      </trkpt>
      <trkpt lat="46.27902" lon="10.54186">
        <ele>2194.961</ele>
        <time>2018-08-11T01:48:15Z</time>
      </trkpt>
      <trkpt lat="46.27888" lon="10.54189">
        <ele>2192.815</ele>
        <time>2018-08-11T01:48:35Z</time>
      </trkpt>
      <trkpt lat="46.27866" lon="10.5419">
        <ele>2192.42</ele>
        <time>2018-08-11T01:48:55Z</time>
      </trkpt>
      <trkpt lat="46.27862" lon="10.54191">
        <ele>2192.861</ele>
        <time>2018-08-11T01:49:15Z</time>
      </trkpt>
      <trkpt lat="46.27848" lon="10.54196">
        <ele>2193.948</ele>
        <time>2018-08-11T01:49:35Z</time>
      </trkpt>
      <trkpt lat="46.27845" lon="10.54201">
        <ele>2195.161</ele>
        <time>2018-08-11T01:49:55Z</time>
      </trkpt>
      <trkpt lat="46.27822" lon="10.54242">
        <ele>2205.155</ele>
        <time>2018-08-11T01:50:15Z</time>
      </trkpt>
      <trkpt lat="46.27805" lon="10.54267">
        <ele>2212.207</ele>
        <time>2018-08-11T01:50:35Z</time>
      </trkpt>
      <trkpt lat="46.27791" lon="10.54273">
        <ele>2216.117</ele>
        <time>2018-08-11T01:50:55Z</time>
      </trkpt>
      <trkpt lat="46.2778" lon="10.54272">
        <ele>2217.508</ele>
        <time>2018-08-11T01:51:15Z</time>
      </trkpt>
      <trkpt lat="46.27764" lon="10.54262">
        <ele>2217.467</ele>
        <time>2018-08-11T01:51:35Z</time>
      </trkpt>
      <trkpt lat="46.27763" lon="10.54261">
        <ele>2217.462</ele>
        <time>2018-08-11T01:51:55Z</time>
      </trkpt>
      <trkpt lat="46.2776" lon="10.54242">
        <ele>2213.568</ele>
        <time>2018-08-11T01:52:15Z</time>
      </trkpt>
      <trkpt lat="46.2776" lon="10.54241">
        <ele>2213.392</ele>
        <time>2018-08-11T01:52:35Z</time>
      </trkpt>
      <trkpt lat="46.27759" lon="10.54238">
        <ele>2212.647</ele>
        <time>2018-08-11T01:52:55Z</time>
      </trkpt>
      <trkpt lat="46.27758" lon="10.54236">
        <ele>2212.218</ele>
        <time>2018-08-11T01:53:15Z</time>
      </trkpt>
      <trkpt lat="46.27755" lon="10.54225">
        <ele>2209.765</ele>
        <time>2018-08-11T01:53:35Z</time>
      </trkpt>
      <trkpt lat="46.27753" lon="10.54219">
        <ele>2208.288</ele>
        <time>2018-08-11T01:53:55Z</time>
      </trkpt>
      <trkpt lat="46.27745" lon="10.5421">
        <ele>2206.243</ele>
        <time>2018-08-11T01:54:15Z</time>
      </trkpt>
      <trkpt lat="46.27735" lon="10.54205">
        <ele>2205.464</ele>
        <time>2018-08-11T01:54:35Z</time>
      </trkpt>
      <trkpt lat="46.27733" lon="10.54204">
        <ele>2205.11</ele>
        <time>2018-08-11T01:54:55Z</time>
      </trkpt>
      <trkpt lat="46.27714" lon="10.54198">
        <ele>2204.208</ele>
        <time>2018-08-11T01:55:15Z</time>
      </trkpt>
      <trkpt lat="46.27696" lon="10.54199">
        <ele>2207.016</ele>
        <time>2018-08-11T01:55:35Z</time>
      </trkpt>
      <trkpt lat="46.27693" lon="10.542">
        <ele>2207.441</ele>
        <time>2018-08-11T01:55:55Z</time>
      </trkpt>
      <trkpt lat="46.27692" lon="10.542">
        <ele>2207.237</ele>
        <time>2018-08-11T01:56:15Z</time>
      </trkpt>
      <trkpt lat="46.2769" lon="10.542">
        <ele>2206.891</ele>
        <time>2018-08-11T01:56:35Z</time>
      </trkpt>
      <trkpt lat="46.27687" lon="10.542">
        <ele>2206.536</ele>
        <time>2018-08-11T01:56:55Z</time>
      </trkpt>
      <trkpt lat="46.27685" lon="10.542">
        <ele>2206.277</ele>
        <time>2018-08-11T01:57:15Z</time>
      </trkpt>
      <trkpt lat="46.27682" lon="10.542">
        <ele>2205.964</ele>
        <time>2018-08-11T01:57:35Z</time>
      </trkpt>
      <trkpt lat="46.2768" lon="10.542">
        <ele>2206.027</ele>
        <time>2018-08-11T01:57:55Z</time>
      </trkpt>
      <trkpt lat="46.27678" lon="10.54201">
        <ele>2206.287</ele>
        <time>2018-08-11T01:58:15Z</time>
      </trkpt>
      <trkpt lat="46.27676" lon="10.54203">
        <ele>2206.742</ele>
        <time>2018-08-11T01:58:35Z</time>
      </trkpt>
      <trkpt lat="46.27674" lon="10.54204">
        <ele>2207.126</ele>
        <time>2018-08-11T01:58:55Z</time>
      </trkpt>
      <trkpt lat="46.2761" lon="10.54255">
        <ele>2217.508</ele>
        <time>2018-08-11T01:59:15Z</time>
      </trkpt>
      <trkpt lat="46.27608" lon="10.54258">
        <ele>2217.79</ele>
        <time>2018-08-11T01:59:35Z</time>
      </trkpt>
      <trkpt lat="46.27605" lon="10.5426">
        <ele>2217.995</ele>
        <time>2018-08-11T01:59:55Z</time>
      </trkpt>
      <trkpt lat="46.27605" lon="10.5426">
        <ele>2217.811</ele>
        <time>2018-08-11T02:00:15Z</time>
      </trkpt>
      <trkpt lat="46.27603" lon="10.54261">
        <ele>2218.155</ele>
        <time>2018-08-11T02:00:35Z</time>
      </trkpt>
      <trkpt lat="46.27603" lon="10.54262">
        <ele>2218.11</ele>
        <time>2018-08-11T02:00:55Z</time>
      </trkpt>
      <trkpt lat="46.27591" lon="10.54273">
        <ele>2220.421</ele>
        <time>2018-08-11T02:01:15Z</time>
      </trkpt>
      <trkpt lat="46.27583" lon="10.54275">
        <ele>2219.198</ele>
        <time>2018-08-11T02:01:35Z</time>
      </trkpt>
      <trkpt lat="46.27571" lon="10.54276">
        <ele>2219.241</ele>
        <time>2018-08-11T02:01:55Z</time>
      </trkpt>
      <trkpt lat="46.27557" lon="10.54282">
        <ele>2222.691</ele>
        <time>2018-08-11T02:02:15Z</time>
      </trkpt>
      <trkpt lat="46.27544" lon="10.54289">
        <ele>2228.081</ele>
        <time>2018-08-11T02:02:35Z</time>
      </trkpt>
      <trkpt lat="46.27531" lon="10.54288">
        <ele>2229.319</ele>
        <time>2018-08-11T02:02:55Z</time>
      </trkpt>
      <trkpt lat="46.27517" lon="10.54286">
        <ele>2228.608</ele>
        <time>2018-08-11T02:03:15Z</time>
      </trkpt>
      <trkpt lat="46.27507" lon="10.54284">
        <ele>2228.281</ele>
        <time>2018-08-11T02:03:35Z</time>
      </trkpt>
      <trkpt lat="46.27496" lon="10.54286">
        <ele>2228.776</ele>
        <time>2018-08-11T02:03:55Z</time>
      </trkpt>
      <trkpt lat="46.27495" lon="10.54291">
        <ele>2230.372</ele>
        <time>2018-08-11T02:04:15Z</time>
      </trkpt>
      <trkpt lat="46.27495" lon="10.54291">
        <ele>2230.386</ele>
        <time>2018-08-11T02:04:35Z</time>
      </trkpt>
      <trkpt lat="46.27492" lon="10.5429">
        <ele>2229.871</ele>
        <time>2018-08-11T02:04:55Z</time>
      </trkpt>
      <trkpt lat="46.2749" lon="10.5429">
        <ele>2229.682</ele>
        <time>2018-08-11T02:05:15Z</time>
      </trkpt>
      <trkpt lat="46.27488" lon="10.54292">
        <ele>2229.979</ele>
        <time>2018-08-11T02:05:35Z</time>
      </trkpt>
      <trkpt lat="46.27487" lon="10.54294">
        <ele>2230.682</ele>
        <time>2018-08-11T02:05:55Z</time>
      </trkpt>
      <trkpt lat="46.27487" lon="10.54297">
        <ele>2231.229</ele>
        <time>2018-08-11T02:06:15Z</time>
      </trkpt>
      <trkpt lat="46.27486" lon="10.543">
        <ele>2231.8</ele>
        <time>2018-08-11T02:06:35Z</time>
      </trkpt>
      <trkpt lat="46.27486" lon="10.54303">
        <ele>2232.82</ele>
        <time>2018-08-11T02:06:55Z</time>
      </trkpt>
      <trkpt lat="46.27485" lon="10.54307">
        <ele>2233.508</ele>
        <time>2018-08-11T02:07:15Z</time>
      </trkpt>
      <trkpt lat="46.27485" lon="10.5431">
        <ele>2234.314</ele>
        <time>2018-08-11T02:07:35Z</time>
      </trkpt>
      <trkpt lat="46.27485" lon="10.54313">
        <ele>2235.299</ele>
        <time>2018-08-11T02:07:55Z</time>
      </trkpt>
      <trkpt lat="46.27485" lon="10.54316">
        <ele>2236.025</ele>
        <time>2018-08-11T02:08:15Z</time>
      </trkpt>
      <trkpt lat="46.27485" lon="10.5432">
        <ele>2237.039</ele>
        <time>2018-08-11T02:08:35Z</time>
      </trkpt>
      <trkpt lat="46.27486" lon="10.54323">
        <ele>2238.054</ele>
        <time>2018-08-11T02:08:55Z</time>
      </trkpt>
      <trkpt lat="46.27486" lon="10.54327">
        <ele>2239.075</ele>
        <time>2018-08-11T02:09:15Z</time>
      </trkpt>
      <trkpt lat="46.27486" lon="10.5433">
        <ele>2240.092</ele>
        <time>2018-08-11T02:09:35Z</time>
      </trkpt>
      <trkpt lat="46.27486" lon="10.54334">
        <ele>2241.175</ele>
        <time>2018-08-11T02:09:55Z</time>
      </trkpt>
      <trkpt lat="46.27486" lon="10.54337">
        <ele>2241.951</ele>
        <time>2018-08-11T02:10:15Z</time>
      </trkpt>
      <trkpt lat="46.27486" lon="10.54341">
        <ele>2242.801</ele>
        <time>2018-08-11T02:10:35Z</time>
      </trkpt>
      <trkpt lat="46.27486" lon="10.54344">
        <ele>2243.611</ele>
        <time>2018-08-11T02:10:55Z</time>
      </trkpt>
      <trkpt lat="46.27486" lon="10.54348">
        <ele>2244.408</ele>
        <time>2018-08-11T02:11:15Z</time>
      </trkpt>
      <trkpt lat="46.27486" lon="10.54351">
        <ele>2245.237</ele>
        <time>2018-08-11T02:11:35Z</time>
      </trkpt>
      <trkpt lat="46.27487" lon="10.54354">
        <ele>2246.032</ele>
        <time>2018-08-11T02:11:55Z</time>
      </trkpt>
      <trkpt lat="46.27487" lon="10.54357">
        <ele>2246.858</ele>
        <time>2018-08-11T02:12:15Z</time>
      </trkpt>
      <trkpt lat="46.27487" lon="10.54361">
        <ele>2247.672</ele>
        <time>2018-08-11T02:12:35Z</time>
      </trkpt>
      <trkpt lat="46.27487" lon="10.54364">
        <ele>2248.427</ele>
        <time>2018-08-11T02:12:55Z</time>
      </trkpt>
      <trkpt lat="46.27487" lon="10.54368">
        <ele>2249.238</ele>
        <time>2018-08-11T02:13:15Z</time>
      </trkpt>
      <trkpt lat="46.27487" lon="10.54372">
        <ele>2249.935</ele>
        <time>2018-08-11T02:13:35Z</time>
      </trkpt>
      <trkpt lat="46.27487" lon="10.54375">
        <ele>2250.758</ele>
        <time>2018-08-11T02:13:55Z</time>
      </trkpt>
      <trkpt lat="46.27487" lon="10.54378">
        <ele>2251.396</ele>
        <time>2018-08-11T02:14:15Z</time>
      </trkpt>
      <trkpt lat="46.27486" lon="10.54381">
        <ele>2251.931</ele>
        <time>2018-08-11T02:14:35Z</time>
      </trkpt>
      <trkpt lat="46.27486" lon="10.54384">
        <ele>2252.524</ele>
        <time>2018-08-11T02:14:55Z</time>
      </trkpt>
      <trkpt lat="46.27486" lon="10.54388">
        <ele>2253.308</ele>
        <time>2018-08-11T02:15:15Z</time>
      </trkpt>
      <trkpt lat="46.27486" lon="10.54392">
        <ele>2253.991</ele>
        <time>2018-08-11T02:15:35Z</time>
      </trkpt>
      <trkpt lat="46.27486" lon="10.54395">
        <ele>2254.556</ele>
        <time>2018-08-11T02:15:55Z</time>
      </trkpt>
      <trkpt lat="46.27486" lon="10.54398">
        <ele>2255.212</ele>
        <time>2018-08-11T02:16:15Z</time>
      </trkpt>
      <trkpt lat="46.27486" lon="10.54402">
        <ele>2255.966</ele>
        <time>2018-08-11T02:16:35Z</time>
      </trkpt>
      <trkpt lat="46.27486" lon="10.54405">
        <ele>2256.761</ele>
        <time>2018-08-11T02:16:55Z</time>
      </trkpt>
      <trkpt lat="46.27487" lon="10.54408">
        <ele>2257.492</ele>
        <time>2018-08-11T02:17:15Z</time>
      </trkpt>
      <trkpt lat="46.27487" lon="10.54411">
        <ele>2258.159</ele>
        <time>2018-08-11T02:17:35Z</time>
      </trkpt>
      <trkpt lat="46.27487" lon="10.54414">
        <ele>2258.832</ele>
        <time>2018-08-11T02:17:55Z</time>
      </trkpt>
      <trkpt lat="46.27488" lon="10.54417">
        <ele>2259.916</ele>
        <time>2018-08-11T02:18:15Z</time>
      </trkpt>
      <trkpt lat="46.27488" lon="10.5442">
        <ele>2261.076</ele>
        <time>2018-08-11T02:18:35Z</time>
      </trkpt>
      <trkpt lat="46.27487" lon="10.54425">
        <ele>2261.713</ele>
        <time>2018-08-11T02:18:55Z</time>
      </trkpt>
      <trkpt lat="46.27475" lon="10.54437">
        <ele>2259.808</ele>
        <time>2018-08-11T02:19:15Z</time>
      </trkpt>
      <trkpt lat="46.27457" lon="10.5445">
        <ele>2254.963</ele>
        <time>2018-08-11T02:19:35Z</time>
      </trkpt>
      <trkpt lat="46.27455" lon="10.54452">
        <ele>2254.898</ele>
        <time>2018-08-11T02:19:55Z</time>
      </trkpt>
      <trkpt lat="46.27455" lon="10.54453">
        <ele>2254.894</ele>
        <time>2018-08-11T02:20:15Z</time>
      </trkpt>
      <trkpt lat="46.27453" lon="10.54453">
        <ele>2254.038</ele>
        <time>2018-08-11T02:20:35Z</time>
      </trkpt>
      <trkpt lat="46.27451" lon="10.54454">
        <ele>2253.313</ele>
        <time>2018-08-11T02:20:55Z</time>
      </trkpt>
      <trkpt lat="46.27449" lon="10.54455">
        <ele>2252.874</ele>
        <time>2018-08-11T02:21:15Z</time>
      </trkpt>
      <trkpt lat="46.27448" lon="10.54457">
        <ele>2252.431</ele>
        <time>2018-08-11T02:21:35Z</time>
      </trkpt>
      <trkpt lat="46.27446" lon="10.54459">
        <ele>2252.264</ele>
        <time>2018-08-11T02:21:55Z</time>
      </trkpt>
      <trkpt lat="46.27444" lon="10.5446">
        <ele>2251.846</ele>
        <time>2018-08-11T02:22:15Z</time>
      </trkpt>
      <trkpt lat="46.27442" lon="10.54462">
        <ele>2251.888</ele>
        <time>2018-08-11T02:22:35Z</time>
      </trkpt>
      <trkpt lat="46.27441" lon="10.54465">
        <ele>2252.216</ele>
        <time>2018-08-11T02:22:55Z</time>
      </trkpt>
      <trkpt lat="46.2744" lon="10.54468">
        <ele>2252.708</ele>
        <time>2018-08-11T02:23:15Z</time>
      </trkpt>
      <trkpt lat="46.27438" lon="10.5447">
        <ele>2253.226</ele>
        <time>2018-08-11T02:23:35Z</time>
      </trkpt>
      <trkpt lat="46.27437" lon="10.54473">
        <ele>2253.811</ele>
        <time>2018-08-11T02:23:55Z</time>
      </trkpt>
      <trkpt lat="46.27435" lon="10.54476">
        <ele>2254.417</ele>
        <time>2018-08-11T02:24:15Z</time>
      </trkpt>
      <trkpt lat="46.27434" lon="10.54479">
        <ele>2254.951</ele>
        <time>2018-08-11T02:24:35Z</time>
      </trkpt>
      <trkpt lat="46.27434" lon="10.54482">
        <ele>2255.766</ele>
        <time>2018-08-11T02:24:55Z</time>
      </trkpt>
      <trkpt lat="46.27387" lon="10.5449">
        <ele>2255.367</ele>
        <time>2018-08-11T02:25:15Z</time>
      </trkpt>
      <trkpt lat="46.27369" lon="10.54484">
        <ele>2256.024</ele>
        <time>2018-08-11T02:25:35Z</time>
      </trkpt>
      <trkpt lat="46.27369" lon="10.54484">
        <ele>2256.187</ele>
        <time>2018-08-11T02:25:55Z</time>
      </trkpt>
      <trkpt lat="46.27331" lon="10.54482">
        <ele>2257.644</ele>
        <time>2018-08-11T02:26:15Z</time>
      </trkpt>
      <trkpt lat="46.27326" lon="10.54483">
        <ele>2258.405</ele>
        <time>2018-08-11T02:26:35Z</time>
      </trkpt>
      <trkpt lat="46.27307" lon="10.54482">
        <ele>2261.015</ele>
        <time>2018-08-11T02:26:55Z</time>
      </trkpt>
      <trkpt lat="46.27282" lon="10.54487">
        <ele>2261.408</ele>
        <time>2018-08-11T02:27:15Z</time>
      </trkpt>
      <trkpt lat="46.2727" lon="10.54488">
        <ele>2260.736</ele>
        <time>2018-08-11T02:27:35Z</time>
      </trkpt>
      <trkpt lat="46.27253" lon="10.54493">
        <ele>2261.281</ele>
        <time>2018-08-11T02:27:55Z</time>
      </trkpt>
      <trkpt lat="46.27226" lon="10.54505">
        <ele>2271.017</ele>
        <time>2018-08-11T02:28:15Z</time>
      </trkpt>
      <trkpt lat="46.27211" lon="10.54508">
        <ele>2274.861</ele>
        <time>2018-08-11T02:28:35Z</time>
      </trkpt>
      <trkpt lat="46.27196" lon="10.54505">
        <ele>2276.876</ele>
        <time>2018-08-11T02:28:55Z</time>
      </trkpt>
      <trkpt lat="46.27185" lon="10.54492">
        <ele>2277.067</ele>
        <time>2018-08-11T02:29:15Z</time>
      </trkpt>
      <trkpt lat="46.2718" lon="10.54483">
        <ele>2275.874</ele>
        <time>2018-08-11T02:29:35Z</time>
      </trkpt>
      <trkpt lat="46.27175" lon="10.54471">
        <ele>2273.287</ele>
        <time>2018-08-11T02:29:55Z</time>
      </trkpt>
      <trkpt lat="46.27164" lon="10.54453">
        <ele>2268.056</ele>
        <time>2018-08-11T02:30:15Z</time>
      </trkpt>
      <trkpt lat="46.27147" lon="10.54446">
        <ele>2268.759</ele>
        <time>2018-08-11T02:30:35Z</time>
      </trkpt>
      <trkpt lat="46.27127" lon="10.54444">
        <ele>2274.114</ele>
        <time>2018-08-11T02:30:55Z</time>
      </trkpt>
      <trkpt lat="46.27108" lon="10.54437">
        <ele>2276.908</ele>
        <time>2018-08-11T02:31:15Z</time>
      </trkpt>
      <trkpt lat="46.27088" lon="10.54421">
        <ele>2278.357</ele>
        <time>2018-08-11T02:31:35Z</time>
      </trkpt>
      <trkpt lat="46.27074" lon="10.54398">
        <ele>2275.842</ele>
        <time>2018-08-11T02:31:55Z</time>
      </trkpt>
      <trkpt lat="46.27045" lon="10.54361">
        <ele>2274.288</ele>
        <time>2018-08-11T02:32:15Z</time>
      </trkpt>
      <trkpt lat="46.27026" lon="10.54336">
        <ele>2270.652</ele>
        <time>2018-08-11T02:32:35Z</time>
      </trkpt>
      <trkpt lat="46.27002" lon="10.54316">
        <ele>2268.947</ele>
        <time>2018-08-11T02:32:55Z</time>
      </trkpt>
      <trkpt lat="46.26981" lon="10.54308">
        <ele>2270.778</ele>
        <time>2018-08-11T02:33:15Z</time>
      </trkpt>
      <trkpt lat="46.26962" lon="10.54293">
        <ele>2271.625</ele>
        <time>2018-08-11T02:33:35Z</time>
      </trkpt>
      <trkpt lat="46.26911" lon="10.54252">
        <ele>2270.438</ele>
        <time>2018-08-11T02:33:55Z</time>
      </trkpt>
      <trkpt lat="46.26909" lon="10.54252">
        <ele>2270.267</ele>
        <time>2018-08-11T02:34:15Z</time>
      </trkpt>
      <trkpt lat="46.26872" lon="10.54253">
        <ele>2270.581</ele>
        <time>2018-08-11T02:34:35Z</time>
      </trkpt>
      <trkpt lat="46.26827" lon="10.54256">
        <ele>2273.119</ele>
        <time>2018-08-11T02:34:55Z</time>
      </trkpt>
      <trkpt lat="46.26806" lon="10.54251">
        <ele>2275.108</ele>
        <time>2018-08-11T02:35:15Z</time>
      </trkpt>
      <trkpt lat="46.26771" lon="10.5424">
        <ele>2274.738</ele>
        <time>2018-08-11T02:35:35Z</time>
      </trkpt>
      <trkpt lat="46.2675" lon="10.54224">
        <ele>2272.453</ele>
        <time>2018-08-11T02:35:55Z</time>
      </trkpt>
      <trkpt lat="46.2675" lon="10.54224">
        <ele>2272.489</ele>
        <time>2018-08-11T02:36:15Z</time>
      </trkpt>
      <trkpt lat="46.26741" lon="10.54218">
        <ele>2271.123</ele>
        <time>2018-08-11T02:36:35Z</time>
      </trkpt>
      <trkpt lat="46.26726" lon="10.54212">
        <ele>2271.058</ele>
        <time>2018-08-11T02:36:55Z</time>
      </trkpt>
      <trkpt lat="46.26722" lon="10.5421">
        <ele>2271.049</ele>
        <time>2018-08-11T02:37:15Z</time>
      </trkpt>
      <trkpt lat="46.26707" lon="10.54208">
        <ele>2269.796</ele>
        <time>2018-08-11T02:37:35Z</time>
      </trkpt>
      <trkpt lat="46.26687" lon="10.54207">
        <ele>2268.329</ele>
        <time>2018-08-11T02:37:55Z</time>
      </trkpt>
      <trkpt lat="46.26662" lon="10.54212">
        <ele>2265.624</ele>
        <time>2018-08-11T02:38:15Z</time>
      </trkpt>
      <trkpt lat="46.26645" lon="10.54221">
        <ele>2261.704</ele>
        <time>2018-08-11T02:38:35Z</time>
      </trkpt>
      <trkpt lat="46.26623" lon="10.54241">
        <ele>2252.114</ele>
        <time>2018-08-11T02:38:55Z</time>
      </trkpt>
      <trkpt lat="46.26608" lon="10.54276">
        <ele>2246.108</ele>
        <time>2018-08-11T02:39:15Z</time>
      </trkpt>
      <trkpt lat="46.26585" lon="10.5432">
        <ele>2244.994</ele>
        <time>2018-08-11T02:39:35Z</time>
      </trkpt>
      <trkpt lat="46.26573" lon="10.54344">
        <ele>2241.059</ele>
        <time>2018-08-11T02:39:55Z</time>
      </trkpt>
      <trkpt lat="46.26558" lon="10.54363">
        <ele>2234.675</ele>
        <time>2018-08-11T02:40:15Z</time>
      </trkpt>
      <trkpt lat="46.26546" lon="10.54393">
        <ele>2232.689</ele>
        <time>2018-08-11T02:40:35Z</time>
      </trkpt>
      <trkpt lat="46.26532" lon="10.54434">
        <ele>2233.024</ele>
        <time>2018-08-11T02:40:55Z</time>
      </trkpt>
      <trkpt lat="46.26522" lon="10.54455">
        <ele>2231.985</ele>
        <time>2018-08-11T02:41:15Z</time>
      </trkpt>
      <trkpt lat="46.2652" lon="10.5444">
        <ele>2230.072</ele>
        <time>2018-08-11T02:41:35Z</time>
      </trkpt>
      <trkpt lat="46.26519" lon="10.54407">
        <ele>2225.675</ele>
        <time>2018-08-11T02:41:55Z</time>
      </trkpt>
      <trkpt lat="46.26519" lon="10.54404">
        <ele>2225.364</ele>
        <time>2018-08-11T02:42:15Z</time>
      </trkpt>
      <trkpt lat="46.26519" lon="10.54346">
        <ele>2219.306</ele>
        <time>2018-08-11T02:42:35Z</time>
      </trkpt>
      <trkpt lat="46.26519" lon="10.54319">
        <ele>2215.716</ele>
        <time>2018-08-11T02:42:55Z</time>
      </trkpt>
      <trkpt lat="46.26521" lon="10.54286">
        <ele>2212.408</ele>
        <time>2018-08-11T02:43:15Z</time>
      </trkpt>
      <trkpt lat="46.26518" lon="10.54262">
        <ele>2208.078</ele>
        <time>2018-08-11T02:43:35Z</time>
      </trkpt>
      <trkpt lat="46.265" lon="10.54269">
        <ele>2202.343</ele>
        <time>2018-08-11T02:43:55Z</time>
      </trkpt>
      <trkpt lat="46.26485" lon="10.54278">
        <ele>2191.889</ele>
        <time>2018-08-11T02:44:15Z</time>
      </trkpt>
      <trkpt lat="46.26462" lon="10.54304">
        <ele>2181.393</ele>
        <time>2018-08-11T02:44:35Z</time>
      </trkpt>
      <trkpt lat="46.26447" lon="10.54327">
        <ele>2176.258</ele>
        <time>2018-08-11T02:44:55Z</time>
      </trkpt>
      <trkpt lat="46.26442" lon="10.54344">
        <ele>2174.589</ele>
        <time>2018-08-11T02:45:15Z</time>
      </trkpt>
      <trkpt lat="46.26433" lon="10.54378">
        <ele>2172.136</ele>
        <time>2018-08-11T02:45:35Z</time>
      </trkpt>
      <trkpt lat="46.26428" lon="10.544">
        <ele>2171.119</ele>
        <time>2018-08-11T02:45:55Z</time>
      </trkpt>
      <trkpt lat="46.26421" lon="10.54427">
        <ele>2168.896</ele>
        <time>2018-08-11T02:46:15Z</time>
      </trkpt>
      <trkpt lat="46.26417" lon="10.54442">
        <ele>2167.931</ele>
        <time>2018-08-11T02:46:35Z</time>
      </trkpt>
      <trkpt lat="46.26409" lon="10.54446">
        <ele>2165.824</ele>
        <time>2018-08-11T02:46:55Z</time>
      </trkpt>
      <trkpt lat="46.26395" lon="10.5444">
        <ele>2161.308</ele>
        <time>2018-08-11T02:47:15Z</time>
      </trkpt>
      <trkpt lat="46.2638" lon="10.54402">
        <ele>2152.131</ele>
        <time>2018-08-11T02:47:35Z</time>
      </trkpt>
      <trkpt lat="46.26372" lon="10.54385">
        <ele>2146.226</ele>
        <time>2018-08-11T02:47:55Z</time>
      </trkpt>
      <trkpt lat="46.26354" lon="10.5437">
        <ele>2136.062</ele>
        <time>2018-08-11T02:48:15Z</time>
      </trkpt>
      <trkpt lat="46.26339" lon="10.54378">
        <ele>2132.116</ele>
        <time>2018-08-11T02:48:35Z</time>
      </trkpt>
      <trkpt lat="46.26321" lon="10.54413">
        <ele>2128.561</ele>
        <time>2018-08-11T02:48:55Z</time>
      </trkpt>
      <trkpt lat="46.26306" lon="10.54447">
        <ele>2122.892</ele>
        <time>2018-08-11T02:49:15Z</time>
      </trkpt>
      <trkpt lat="46.2628" lon="10.54495">
        <ele>2108.759</ele>
        <time>2018-08-11T02:49:35Z</time>
      </trkpt>
      <trkpt lat="46.26269" lon="10.54525">
        <ele>2102.142</ele>
        <time>2018-08-11T02:49:55Z</time>
      </trkpt>
      <trkpt lat="46.26262" lon="10.54572">
        <ele>2095.125</ele>
        <time>2018-08-11T02:50:15Z</time>
      </trkpt>
      <trkpt lat="46.26253" lon="10.54604">
        <ele>2089.026</ele>
        <time>2018-08-11T02:50:35Z</time>
      </trkpt>
      <trkpt lat="46.26246" lon="10.5464">
        <ele>2083.808</ele>
        <time>2018-08-11T02:50:55Z</time>
      </trkpt>
      <trkpt lat="46.26239" lon="10.54672">
        <ele>2080.108</ele>
        <time>2018-08-11T02:51:15Z</time>
      </trkpt>
      <trkpt lat="46.26233" lon="10.54699">
        <ele>2076.494</ele>
        <time>2018-08-11T02:51:35Z</time>
      </trkpt>
      <trkpt lat="46.26228" lon="10.54742">
        <ele>2070.589</ele>
        <time>2018-08-11T02:51:55Z</time>
      </trkpt>
      <trkpt lat="46.26223" lon="10.54815">
        <ele>2060.215</ele>
        <time>2018-08-11T02:52:15Z</time>
      </trkpt>
      <trkpt lat="46.26226" lon="10.54819">
        <ele>2060.499</ele>
        <time>2018-08-11T02:52:35Z</time>
      </trkpt>
      <trkpt lat="46.26242" lon="10.54851">
        <ele>2060.414</ele>
        <time>2018-08-11T02:52:55Z</time>
      </trkpt>
      <trkpt lat="46.26261" lon="10.54882">
        <ele>2064.625</ele>
        <time>2018-08-11T02:53:15Z</time>
      </trkpt>
      <trkpt lat="46.26268" lon="10.549">
        <ele>2066.112</ele>
        <time>2018-08-11T02:53:35Z</time>
      </trkpt>
      <trkpt lat="46.26273" lon="10.54921">
        <ele>2066.625</ele>
        <time>2018-08-11T02:53:55Z</time>
      </trkpt>
      <trkpt lat="46.26287" lon="10.54984">
        <ele>2067.336</ele>
        <time>2018-08-11T02:54:15Z</time>
      </trkpt>
      <trkpt lat="46.26305" lon="10.55045">
        <ele>2072.117</ele>
        <time>2018-08-11T02:54:35Z</time>
      </trkpt>
      <trkpt lat="46.26325" lon="10.55081">
        <ele>2076.818</ele>
        <time>2018-08-11T02:54:55Z</time>
      </trkpt>
      <trkpt lat="46.26331" lon="10.55114">
        <ele>2077.208</ele>
        <time>2018-08-11T02:55:15Z</time>
      </trkpt>
      <trkpt lat="46.26343" lon="10.55142">
        <ele>2080.625</ele>
        <time>2018-08-11T02:55:35Z</time>
      </trkpt>
      <trkpt lat="46.26365" lon="10.55179">
        <ele>2082.54</ele>
        <time>2018-08-11T02:55:55Z</time>
      </trkpt>
      <trkpt lat="46.26387" lon="10.55187">
        <ele>2087.956</ele>
        <time>2018-08-11T02:56:15Z</time>
      </trkpt>
      <trkpt lat="46.26426" lon="10.55222">
        <ele>2090.19</ele>
        <time>2018-08-11T02:56:35Z</time>
      </trkpt>
      <trkpt lat="46.2644" lon="10.55238">
        <ele>2091.855</ele>
        <time>2018-08-11T02:56:55Z</time>
      </trkpt>
      <trkpt lat="46.26456" lon="10.55251">
        <ele>2097.346</ele>
        <time>2018-08-11T02:57:15Z</time>
      </trkpt>
      <trkpt lat="46.26464" lon="10.5527">
        <ele>2097.573</ele>
        <time>2018-08-11T02:57:35Z</time>
      </trkpt>
      <trkpt lat="46.26478" lon="10.55304">
        <ele>2096.156</ele>
        <time>2018-08-11T02:57:55Z</time>
      </trkpt>
      <trkpt lat="46.2648" lon="10.55305">
        <ele>2096.562</ele>
        <time>2018-08-11T02:58:15Z</time>
      </trkpt>
      <trkpt lat="46.26502" lon="10.55319">
        <ele>2099.683</ele>
        <time>2018-08-11T02:58:35Z</time>
      </trkpt>
      <trkpt lat="46.26536" lon="10.55357">
        <ele>2099.111</ele>
        <time>2018-08-11T02:58:55Z</time>
      </trkpt>
      <trkpt lat="46.26542" lon="10.55365">
        <ele>2098.608</ele>
        <time>2018-08-11T02:59:15Z</time>
      </trkpt>
      <trkpt lat="46.26556" lon="10.55372">
        <ele>2100.768</ele>
        <time>2018-08-11T02:59:35Z</time>
      </trkpt>
      <trkpt lat="46.26574" lon="10.55373">
        <ele>2109.813</ele>
        <time>2018-08-11T02:59:55Z</time>
      </trkpt>
      <trkpt lat="46.26586" lon="10.55373">
        <ele>2115.839</ele>
        <time>2018-08-11T03:00:15Z</time>
      </trkpt>
      <trkpt lat="46.26596" lon="10.55381">
        <ele>2117.463</ele>
        <time>2018-08-11T03:00:35Z</time>
      </trkpt>
      <trkpt lat="46.26595" lon="10.55398">
        <ele>2111.588</ele>
        <time>2018-08-11T03:00:55Z</time>
      </trkpt>
      <trkpt lat="46.26589" lon="10.55412">
        <ele>2104.619</ele>
        <time>2018-08-11T03:01:15Z</time>
      </trkpt>
      <trkpt lat="46.26589" lon="10.55421">
        <ele>2103.156</ele>
        <time>2018-08-11T03:01:35Z</time>
      </trkpt>
      <trkpt lat="46.26592" lon="10.55435">
        <ele>2104.759</ele>
        <time>2018-08-11T03:01:55Z</time>
      </trkpt>
      <trkpt lat="46.26597" lon="10.55446">
        <ele>2107.473</ele>
        <time>2018-08-11T03:02:15Z</time>
      </trkpt>
      <trkpt lat="46.2659" lon="10.55458">
        <ele>2107.485</ele>
        <time>2018-08-11T03:02:35Z</time>
      </trkpt>
      <trkpt lat="46.26581" lon="10.5547">
        <ele>2107.413</ele>
        <time>2018-08-11T03:02:55Z</time>
      </trkpt>
      <trkpt lat="46.26577" lon="10.55483">
        <ele>2111.408</ele>
        <time>2018-08-11T03:03:15Z</time>
      </trkpt>
      <trkpt lat="46.26575" lon="10.55499">
        <ele>2116.859</ele>
        <time>2018-08-11T03:03:35Z</time>
      </trkpt>
      <trkpt lat="46.26565" lon="10.55511">
        <ele>2118.414</ele>
        <time>2018-08-11T03:03:55Z</time>
      </trkpt>
      <trkpt lat="46.2655" lon="10.5552">
        <ele>2117.66</ele>
        <time>2018-08-11T03:04:15Z</time>
      </trkpt>
      <trkpt lat="46.26537" lon="10.55528">
        <ele>2118.164</ele>
        <time>2018-08-11T03:04:35Z</time>
      </trkpt>
      <trkpt lat="46.26525" lon="10.5554">
        <ele>2117.539</ele>
        <time>2018-08-11T03:04:55Z</time>
      </trkpt>
      <trkpt lat="46.26513" lon="10.55549">
        <ele>2112.45</ele>
        <time>2018-08-11T03:05:15Z</time>
      </trkpt>
      <trkpt lat="46.26495" lon="10.55554">
        <ele>2105.167</ele>
        <time>2018-08-11T03:05:35Z</time>
      </trkpt>
      <trkpt lat="46.26475" lon="10.55561">
        <ele>2103.01</ele>
        <time>2018-08-11T03:05:55Z</time>
      </trkpt>
      <trkpt lat="46.26448" lon="10.55574">
        <ele>2103.042</ele>
        <time>2018-08-11T03:06:15Z</time>
      </trkpt>
      <trkpt lat="46.26422" lon="10.55589">
        <ele>2103.322</ele>
        <time>2018-08-11T03:06:35Z</time>
      </trkpt>
      <trkpt lat="46.26406" lon="10.55613">
        <ele>2102.114</ele>
        <time>2018-08-11T03:06:55Z</time>
      </trkpt>
      <trkpt lat="46.26394" lon="10.55638">
        <ele>2101.408</ele>
        <time>2018-08-11T03:07:15Z</time>
      </trkpt>
      <trkpt lat="46.2639" lon="10.55656">
        <ele>2102.046</ele>
        <time>2018-08-11T03:07:35Z</time>
      </trkpt>
      <trkpt lat="46.26383" lon="10.55679">
        <ele>2101.551</ele>
        <time>2018-08-11T03:07:55Z</time>
      </trkpt>
      <trkpt lat="46.26378" lon="10.55698">
        <ele>2099.597</ele>
        <time>2018-08-11T03:08:15Z</time>
      </trkpt>
      <trkpt lat="46.26377" lon="10.5573">
        <ele>2096.741</ele>
        <time>2018-08-11T03:08:35Z</time>
      </trkpt>
      <trkpt lat="46.26383" lon="10.5576">
        <ele>2097.756</ele>
        <time>2018-08-11T03:08:55Z</time>
      </trkpt>
      <trkpt lat="46.26389" lon="10.55786">
        <ele>2097.357</ele>
        <time>2018-08-11T03:09:15Z</time>
      </trkpt>
      <trkpt lat="46.26403" lon="10.5581">
        <ele>2097.054</ele>
        <time>2018-08-11T03:09:35Z</time>
      </trkpt>
      <trkpt lat="46.26425" lon="10.55832">
        <ele>2099.957</ele>
        <time>2018-08-11T03:09:55Z</time>
      </trkpt>
      <trkpt lat="46.2644" lon="10.55844">
        <ele>2101.959</ele>
        <time>2018-08-11T03:10:15Z</time>
      </trkpt>
      <trkpt lat="46.26454" lon="10.55851">
        <ele>2105.603</ele>
        <time>2018-08-11T03:10:35Z</time>
      </trkpt>
      <trkpt lat="46.26464" lon="10.55861">
        <ele>2107.423</ele>
        <time>2018-08-11T03:10:55Z</time>
      </trkpt>
      <trkpt lat="46.26464" lon="10.55888">
        <ele>2101.408</ele>
        <time>2018-08-11T03:11:15Z</time>
      </trkpt>
      <trkpt lat="46.26462" lon="10.55914">
        <ele>2097.117</ele>
        <time>2018-08-11T03:11:35Z</time>
      </trkpt>
      <trkpt lat="46.26474" lon="10.55968">
        <ele>2095.172</ele>
        <time>2018-08-11T03:11:55Z</time>
      </trkpt>
      <trkpt lat="46.26491" lon="10.56009">
        <ele>2096.968</ele>
        <time>2018-08-11T03:12:15Z</time>
      </trkpt>
      <trkpt lat="46.26498" lon="10.56044">
        <ele>2096.052</ele>
        <time>2018-08-11T03:12:35Z</time>
      </trkpt>
      <trkpt lat="46.26519" lon="10.56138">
        <ele>2089.187</ele>
        <time>2018-08-11T03:12:55Z</time>
      </trkpt>
      <trkpt lat="46.2653" lon="10.56187">
        <ele>2088.388</ele>
        <time>2018-08-11T03:13:15Z</time>
      </trkpt>
      <trkpt lat="46.26551" lon="10.56245">
        <ele>2089.835</ele>
        <time>2018-08-11T03:13:35Z</time>
      </trkpt>
      <trkpt lat="46.26559" lon="10.56302">
        <ele>2086.218</ele>
        <time>2018-08-11T03:13:55Z</time>
      </trkpt>
      <trkpt lat="46.26561" lon="10.56334">
        <ele>2083.167</ele>
        <time>2018-08-11T03:14:15Z</time>
      </trkpt>
      <trkpt lat="46.26568" lon="10.56361">
        <ele>2081.681</ele>
        <time>2018-08-11T03:14:35Z</time>
      </trkpt>
      <trkpt lat="46.26581" lon="10.56377">
        <ele>2082.619</ele>
        <time>2018-08-11T03:14:55Z</time>
      </trkpt>
      <trkpt lat="46.26584" lon="10.56411">
        <ele>2079.008</ele>
        <time>2018-08-11T03:15:15Z</time>
      </trkpt>
      <trkpt lat="46.26595" lon="10.56421">
        <ele>2080.248</ele>
        <time>2018-08-11T03:15:35Z</time>
      </trkpt>
      <trkpt lat="46.26614" lon="10.56439">
        <ele>2082.763</ele>
        <time>2018-08-11T03:15:55Z</time>
      </trkpt>
      <trkpt lat="46.26605" lon="10.56459">
        <ele>2079.479</ele>
        <time>2018-08-11T03:16:15Z</time>
      </trkpt>
      <trkpt lat="46.26586" lon="10.5647">
        <ele>2073.723</ele>
        <time>2018-08-11T03:16:35Z</time>
      </trkpt>
      <trkpt lat="46.26573" lon="10.56484">
        <ele>2072.148</ele>
        <time>2018-08-11T03:16:55Z</time>
      </trkpt>
      <trkpt lat="46.26565" lon="10.56511">
        <ele>2075.699</ele>
        <time>2018-08-11T03:17:15Z</time>
      </trkpt>
      <trkpt lat="46.26559" lon="10.56539">
        <ele>2079.256</ele>
        <time>2018-08-11T03:17:35Z</time>
      </trkpt>
      <trkpt lat="46.26555" lon="10.56557">
        <ele>2081.039</ele>
        <time>2018-08-11T03:17:55Z</time>
      </trkpt>
      <trkpt lat="46.26543" lon="10.56582">
        <ele>2080.696</ele>
        <time>2018-08-11T03:18:15Z</time>
      </trkpt>
      <trkpt lat="46.26489" lon="10.56617">
        <ele>2077.631</ele>
        <time>2018-08-11T03:18:35Z</time>
      </trkpt>
      <trkpt lat="46.26464" lon="10.56625">
        <ele>2076.124</ele>
        <time>2018-08-11T03:18:55Z</time>
      </trkpt>
      <trkpt lat="46.26442" lon="10.56648">
        <ele>2076.208</ele>
        <time>2018-08-11T03:19:15Z</time>
      </trkpt>
      <trkpt lat="46.26427" lon="10.56684">
        <ele>2076.911</ele>
        <time>2018-08-11T03:19:35Z</time>
      </trkpt>
      <trkpt lat="46.26421" lon="10.56711">
        <ele>2077.756</ele>
        <time>2018-08-11T03:19:55Z</time>
      </trkpt>
      <trkpt lat="46.26419" lon="10.56742">
        <ele>2079.072</ele>
        <time>2018-08-11T03:20:15Z</time>
      </trkpt>
      <trkpt lat="46.2642" lon="10.56774">
        <ele>2081.216</ele>
        <time>2018-08-11T03:20:35Z</time>
      </trkpt>
      <trkpt lat="46.26409" lon="10.56814">
        <ele>2081.361</ele>
        <time>2018-08-11T03:20:55Z</time>
      </trkpt>
      <trkpt lat="46.26391" lon="10.56866">
        <ele>2080.582</ele>
        <time>2018-08-11T03:21:15Z</time>
      </trkpt>
      <trkpt lat="46.26374" lon="10.5689">
        <ele>2077.819</ele>
        <time>2018-08-11T03:21:35Z</time>
      </trkpt>
      <trkpt lat="46.26356" lon="10.56909">
        <ele>2073.442</ele>
        <time>2018-08-11T03:21:55Z</time>
      </trkpt>
      <trkpt lat="46.26351" lon="10.56922">
        <ele>2071.149</ele>
        <time>2018-08-11T03:22:15Z</time>
      </trkpt>
      <trkpt lat="46.2634" lon="10.56924">
        <ele>2067.102</ele>
        <time>2018-08-11T03:22:35Z</time>
      </trkpt>
      <trkpt lat="46.26322" lon="10.56913">
        <ele>2061.722</ele>
        <time>2018-08-11T03:22:55Z</time>
      </trkpt>
      <trkpt lat="46.2631" lon="10.56903">
        <ele>2057.808</ele>
        <time>2018-08-11T03:23:15Z</time>
      </trkpt>
      <trkpt lat="46.263" lon="10.5692">
        <ele>2053.376</ele>
        <time>2018-08-11T03:23:35Z</time>
      </trkpt>
      <trkpt lat="46.26302" lon="10.56951">
        <ele>2051.321</ele>
        <time>2018-08-11T03:23:55Z</time>
      </trkpt>
      <trkpt lat="46.26302" lon="10.56961">
        <ele>2050.337</ele>
        <time>2018-08-11T03:24:15Z</time>
      </trkpt>
      <trkpt lat="46.26302" lon="10.56992">
        <ele>2048.391</ele>
        <time>2018-08-11T03:24:35Z</time>
      </trkpt>
      <trkpt lat="46.263" lon="10.5701">
        <ele>2046.866</ele>
        <time>2018-08-11T03:24:55Z</time>
      </trkpt>
      <trkpt lat="46.26298" lon="10.57032">
        <ele>2044.457</ele>
        <time>2018-08-11T03:25:15Z</time>
      </trkpt>
      <trkpt lat="46.26309" lon="10.57075">
        <ele>2043.224</ele>
        <time>2018-08-11T03:25:35Z</time>
      </trkpt>
      <trkpt lat="46.26335" lon="10.57162">
        <ele>2040.747</ele>
        <time>2018-08-11T03:25:55Z</time>
      </trkpt>
      <trkpt lat="46.26354" lon="10.5721">
        <ele>2040.545</ele>
        <time>2018-08-11T03:26:15Z</time>
      </trkpt>
      <trkpt lat="46.26361" lon="10.57237">
        <ele>2039.347</ele>
        <time>2018-08-11T03:26:35Z</time>
      </trkpt>
      <trkpt lat="46.26376" lon="10.57277">
        <ele>2037.811</ele>
        <time>2018-08-11T03:26:55Z</time>
      </trkpt>
      <trkpt lat="46.26398" lon="10.5734">
        <ele>2034.908</ele>
        <time>2018-08-11T03:27:15Z</time>
      </trkpt>
      <trkpt lat="46.26404" lon="10.5737">
        <ele>2032.826</ele>
        <time>2018-08-11T03:27:35Z</time>
      </trkpt>
      <trkpt lat="46.26409" lon="10.57396">
        <ele>2031.151</ele>
        <time>2018-08-11T03:27:55Z</time>
      </trkpt>
      <trkpt lat="46.26419" lon="10.57417">
        <ele>2031.727</ele>
        <time>2018-08-11T03:28:15Z</time>
      </trkpt>
      <trkpt lat="46.26428" lon="10.57427">
        <ele>2033.191</ele>
        <time>2018-08-11T03:28:35Z</time>
      </trkpt>
      <trkpt lat="46.26415" lon="10.5744">
        <ele>2027.876</ele>
        <time>2018-08-11T03:28:55Z</time>
      </trkpt>
      <trkpt lat="46.26397" lon="10.57435">
        <ele>2021.787</ele>
        <time>2018-08-11T03:29:15Z</time>
      </trkpt>
      <trkpt lat="46.26377" lon="10.57426">
        <ele>2017.944</ele>
        <time>2018-08-11T03:29:35Z</time>
      </trkpt>
      <trkpt lat="46.26355" lon="10.57423">
        <ele>2013.887</ele>
        <time>2018-08-11T03:29:55Z</time>
      </trkpt>
      <trkpt lat="46.26338" lon="10.57426">
        <ele>2009.783</ele>
        <time>2018-08-11T03:30:15Z</time>
      </trkpt>
      <trkpt lat="46.26335" lon="10.57458">
        <ele>2003.825</ele>
        <time>2018-08-11T03:30:35Z</time>
      </trkpt>
      <trkpt lat="46.26344" lon="10.57481">
        <ele>2002.117</ele>
        <time>2018-08-11T03:30:55Z</time>
      </trkpt>
      <trkpt lat="46.26353" lon="10.57509">
        <ele>1999.908</ele>
        <time>2018-08-11T03:31:15Z</time>
      </trkpt>
      <trkpt lat="46.26358" lon="10.57531">
        <ele>1997.96</ele>
        <time>2018-08-11T03:31:35Z</time>
      </trkpt>
      <trkpt lat="46.26354" lon="10.5756">
        <ele>1992.065</ele>
        <time>2018-08-11T03:31:55Z</time>
      </trkpt>
      <trkpt lat="46.26323" lon="10.57569">
        <ele>1984.881</ele>
        <time>2018-08-11T03:32:15Z</time>
      </trkpt>
      <trkpt lat="46.26305" lon="10.57581">
        <ele>1979.245</ele>
        <time>2018-08-11T03:32:35Z</time>
      </trkpt>
      <trkpt lat="46.26285" lon="10.5759">
        <ele>1975.64</ele>
        <time>2018-08-11T03:32:55Z</time>
      </trkpt>
      <trkpt lat="46.26247" lon="10.57612">
        <ele>1968.081</ele>
        <time>2018-08-11T03:33:15Z</time>
      </trkpt>
      <trkpt lat="46.26225" lon="10.57662">
        <ele>1954.648</ele>
        <time>2018-08-11T03:33:35Z</time>
      </trkpt>
      <trkpt lat="46.26195" lon="10.5768">
        <ele>1947.021</ele>
        <time>2018-08-11T03:33:55Z</time>
      </trkpt>
      <trkpt lat="46.26188" lon="10.57676">
        <ele>1946.487</ele>
        <time>2018-08-11T03:34:15Z</time>
      </trkpt>
      <trkpt lat="46.26169" lon="10.5768">
        <ele>1943.442</ele>
        <time>2018-08-11T03:34:35Z</time>
      </trkpt>
      <trkpt lat="46.26157" lon="10.57679">
        <ele>1940.526</ele>
        <time>2018-08-11T03:34:55Z</time>
      </trkpt>
      <trkpt lat="46.26144" lon="10.57687">
        <ele>1936.608</ele>
        <time>2018-08-11T03:35:15Z</time>
      </trkpt>
      <trkpt lat="46.26132" lon="10.57704">
        <ele>1931.44</ele>
        <time>2018-08-11T03:35:35Z</time>
      </trkpt>
      <trkpt lat="46.26123" lon="10.57728">
        <ele>1926.935</ele>
        <time>2018-08-11T03:35:55Z</time>
      </trkpt>
      <trkpt lat="46.26109" lon="10.57773">
        <ele>1920.811</ele>
        <time>2018-08-11T03:36:15Z</time>
      </trkpt>
      <trkpt lat="46.26105" lon="10.57796">
        <ele>1919.145</ele>
        <time>2018-08-11T03:36:35Z</time>
      </trkpt>
      <trkpt lat="46.26096" lon="10.57831">
        <ele>1916.39</ele>
        <time>2018-08-11T03:36:55Z</time>
      </trkpt>
      <trkpt lat="46.26095" lon="10.57868">
        <ele>1915.351</ele>
        <time>2018-08-11T03:37:15Z</time>
      </trkpt>
      <trkpt lat="46.2611" lon="10.57912">
        <ele>1917.058</ele>
        <time>2018-08-11T03:37:35Z</time>
      </trkpt>
      <trkpt lat="46.26121" lon="10.57939">
        <ele>1918.051</ele>
        <time>2018-08-11T03:37:55Z</time>
      </trkpt>
      <trkpt lat="46.26128" lon="10.57952">
        <ele>1918.558</ele>
        <time>2018-08-11T03:38:15Z</time>
      </trkpt>
      <trkpt lat="46.26137" lon="10.57969">
        <ele>1918.952</ele>
        <time>2018-08-11T03:38:35Z</time>
      </trkpt>
      <trkpt lat="46.26142" lon="10.57979">
        <ele>1919.117</ele>
        <time>2018-08-11T03:38:55Z</time>
      </trkpt>
      <trkpt lat="46.26147" lon="10.57987">
        <ele>1919.208</ele>
        <time>2018-08-11T03:39:15Z</time>
      </trkpt>
      <trkpt lat="46.26177" lon="10.5805">
        <ele>1919.557</ele>
        <time>2018-08-11T03:39:35Z</time>
      </trkpt>
      <trkpt lat="46.26197" lon="10.58088">
        <ele>1922.262</ele>
        <time>2018-08-11T03:39:55Z</time>
      </trkpt>
      <trkpt lat="46.26212" lon="10.58126">
        <ele>1923.698</ele>
        <time>2018-08-11T03:40:15Z</time>
      </trkpt>
      <trkpt lat="46.26226" lon="10.58165">
        <ele>1922.872</ele>
        <time>2018-08-11T03:40:35Z</time>
      </trkpt>
      <trkpt lat="46.26232" lon="10.58228">
        <ele>1922.447</ele>
        <time>2018-08-11T03:40:55Z</time>
      </trkpt>
      <trkpt lat="46.26246" lon="10.58278">
        <ele>1923.558</ele>
        <time>2018-08-11T03:41:15Z</time>
      </trkpt>
      <trkpt lat="46.26264" lon="10.5833">
        <ele>1925.065</ele>
        <time>2018-08-11T03:41:35Z</time>
      </trkpt>
      <trkpt lat="46.26285" lon="10.58374">
        <ele>1926.858</ele>
        <time>2018-08-11T03:41:55Z</time>
      </trkpt>
      <trkpt lat="46.26293" lon="10.58386">
        <ele>1927.683</ele>
        <time>2018-08-11T03:42:15Z</time>
      </trkpt>
      <trkpt lat="46.2631" lon="10.58424">
        <ele>1930.625</ele>
        <time>2018-08-11T03:42:35Z</time>
      </trkpt>
      <trkpt lat="46.26327" lon="10.58454">
        <ele>1933.017</ele>
        <time>2018-08-11T03:42:55Z</time>
      </trkpt>
      <trkpt lat="46.26349" lon="10.58491">
        <ele>1937.708</ele>
        <time>2018-08-11T03:43:15Z</time>
      </trkpt>
      <trkpt lat="46.26394" lon="10.58542">
        <ele>1943.72</ele>
        <time>2018-08-11T03:43:35Z</time>
      </trkpt>
      <trkpt lat="46.26414" lon="10.58574">
        <ele>1946.545</ele>
        <time>2018-08-11T03:43:55Z</time>
      </trkpt>
      <trkpt lat="46.26442" lon="10.58604">
        <ele>1951.591</ele>
        <time>2018-08-11T03:44:15Z</time>
      </trkpt>
      <trkpt lat="46.26478" lon="10.58625">
        <ele>1956.075</ele>
        <time>2018-08-11T03:44:35Z</time>
      </trkpt>
      <trkpt lat="46.265" lon="10.58649">
        <ele>1957.66</ele>
        <time>2018-08-11T03:44:55Z</time>
      </trkpt>
      <trkpt lat="46.26512" lon="10.58661">
        <ele>1958.481</ele>
        <time>2018-08-11T03:45:15Z</time>
      </trkpt>
      <trkpt lat="46.26544" lon="10.58685">
        <ele>1962.298</ele>
        <time>2018-08-11T03:45:35Z</time>
      </trkpt>
      <trkpt lat="46.26553" lon="10.58694">
        <ele>1963.541</ele>
        <time>2018-08-11T03:45:55Z</time>
      </trkpt>
      <trkpt lat="46.26564" lon="10.58706">
        <ele>1965.038</ele>
        <time>2018-08-11T03:46:15Z</time>
      </trkpt>
      <trkpt lat="46.26587" lon="10.58749">
        <ele>1966.47</ele>
        <time>2018-08-11T03:46:35Z</time>
      </trkpt>
      <trkpt lat="46.26617" lon="10.58792">
        <ele>1968.917</ele>
        <time>2018-08-11T03:46:55Z</time>
      </trkpt>
      <trkpt lat="46.26637" lon="10.58813">
        <ele>1971.408</ele>
        <time>2018-08-11T03:47:15Z</time>
      </trkpt>
      <trkpt lat="46.26652" lon="10.58835">
        <ele>1971.945</ele>
        <time>2018-08-11T03:47:35Z</time>
      </trkpt>
      <trkpt lat="46.26661" lon="10.58858">
        <ele>1970.73</ele>
        <time>2018-08-11T03:47:55Z</time>
      </trkpt>
      <trkpt lat="46.26669" lon="10.58867">
        <ele>1971.746</ele>
        <time>2018-08-11T03:48:15Z</time>
      </trkpt>
      <trkpt lat="46.26679" lon="10.58877">
        <ele>1971.75</ele>
        <time>2018-08-11T03:48:35Z</time>
      </trkpt>
      <trkpt lat="46.26706" lon="10.58897">
        <ele>1970.995</ele>
        <time>2018-08-11T03:48:55Z</time>
      </trkpt>
      <trkpt lat="46.26711" lon="10.58904">
        <ele>1970.126</ele>
        <time>2018-08-11T03:49:15Z</time>
      </trkpt>
      <trkpt lat="46.26715" lon="10.58906">
        <ele>1969.983</ele>
        <time>2018-08-11T03:49:35Z</time>
      </trkpt>
      <trkpt lat="46.26721" lon="10.58914">
        <ele>1969.236</ele>
        <time>2018-08-11T03:49:55Z</time>
      </trkpt>
      <trkpt lat="46.26722" lon="10.58923">
        <ele>1968.527</ele>
        <time>2018-08-11T03:50:15Z</time>
      </trkpt>
      <trkpt lat="46.26725" lon="10.58944">
        <ele>1968.168</ele>
        <time>2018-08-11T03:50:35Z</time>
      </trkpt>
      <trkpt lat="46.26724" lon="10.58983">
        <ele>1967.114</ele>
        <time>2018-08-11T03:50:55Z</time>
      </trkpt>
      <trkpt lat="46.26722" lon="10.59006">
        <ele>1967.108</ele>
        <time>2018-08-11T03:51:15Z</time>
      </trkpt>
      <trkpt lat="46.26723" lon="10.59017">
        <ele>1967.974</ele>
        <time>2018-08-11T03:51:35Z</time>
      </trkpt>
      <trkpt lat="46.26726" lon="10.59038">
        <ele>1969.379</ele>
        <time>2018-08-11T03:51:55Z</time>
      </trkpt>
      <trkpt lat="46.26732" lon="10.59058">
        <ele>1970.935</ele>
        <time>2018-08-11T03:52:15Z</time>
      </trkpt>
      <trkpt lat="46.26763" lon="10.59048">
        <ele>1980.599</ele>
        <time>2018-08-11T03:52:35Z</time>
      </trkpt>
      <trkpt lat="46.26768" lon="10.59053">
        <ele>1981.714</ele>
        <time>2018-08-11T03:52:55Z</time>
      </trkpt>
      <trkpt lat="46.26776" lon="10.59054">
        <ele>1983.535</ele>
        <time>2018-08-11T03:53:15Z</time>
      </trkpt>
      <trkpt lat="46.26778" lon="10.59049">
        <ele>1984.562</ele>
        <time>2018-08-11T03:53:35Z</time>
      </trkpt>
      <trkpt lat="46.26783" lon="10.59036">
        <ele>1986.565</ele>
        <time>2018-08-11T03:53:55Z</time>
      </trkpt>
      <trkpt lat="46.26792" lon="10.59028">
        <ele>1989.041</ele>
        <time>2018-08-11T03:54:15Z</time>
      </trkpt>
      <trkpt lat="46.26802" lon="10.59015">
        <ele>1991.181</ele>
        <time>2018-08-11T03:54:35Z</time>
      </trkpt>
      <trkpt lat="46.26807" lon="10.59009">
        <ele>1992.309</ele>
        <time>2018-08-11T03:54:55Z</time>
      </trkpt>
      <trkpt lat="46.26815" lon="10.59006">
        <ele>1994.008</ele>
        <time>2018-08-11T03:55:15Z</time>
      </trkpt>
      <trkpt lat="46.2683" lon="10.5901">
        <ele>1997.526</ele>
        <time>2018-08-11T03:55:35Z</time>
      </trkpt>
      <trkpt lat="46.2684" lon="10.59012">
        <ele>1999.861</ele>
        <time>2018-08-11T03:55:55Z</time>
      </trkpt>
      <trkpt lat="46.26849" lon="10.59007">
        <ele>2001.717</ele>
        <time>2018-08-11T03:56:15Z</time>
      </trkpt>
      <trkpt lat="46.26858" lon="10.58999">
        <ele>2003.361</ele>
        <time>2018-08-11T03:56:35Z</time>
      </trkpt>
      <trkpt lat="46.26869" lon="10.58997">
        <ele>2005.446</ele>
        <time>2018-08-11T03:56:55Z</time>
      </trkpt>
      <trkpt lat="46.26885" lon="10.58991">
        <ele>2008.387</ele>
        <time>2018-08-11T03:57:15Z</time>
      </trkpt>
      <trkpt lat="46.26905" lon="10.58979">
        <ele>2012.294</ele>
        <time>2018-08-11T03:57:35Z</time>
      </trkpt>
      <trkpt lat="46.26917" lon="10.58973">
        <ele>2015.117</ele>
        <time>2018-08-11T03:57:55Z</time>
      </trkpt>
      <trkpt lat="46.26931" lon="10.58971">
        <ele>2018.149</ele>
        <time>2018-08-11T03:58:15Z</time>
      </trkpt>
      <trkpt lat="46.26951" lon="10.58963">
        <ele>2023.502</ele>
        <time>2018-08-11T03:58:35Z</time>
      </trkpt>
      <trkpt lat="46.26966" lon="10.5896">
        <ele>2027.722</ele>
        <time>2018-08-11T03:58:55Z</time>
      </trkpt>
      <trkpt lat="46.26977" lon="10.58955">
        <ele>2030.908</ele>
        <time>2018-08-11T03:59:15Z</time>
      </trkpt>
      <trkpt lat="46.26987" lon="10.58948">
        <ele>2034.196</ele>
        <time>2018-08-11T03:59:35Z</time>
      </trkpt>
      <trkpt lat="46.26998" lon="10.58937">
        <ele>2037.931</ele>
        <time>2018-08-11T03:59:55Z</time>
      </trkpt>
      <trkpt lat="46.27007" lon="10.58927">
        <ele>2040.467</ele>
        <time>2018-08-11T04:00:15Z</time>
      </trkpt>
      <trkpt lat="46.27011" lon="10.58914">
        <ele>2041.551</ele>
        <time>2018-08-11T04:00:35Z</time>
      </trkpt>
      <trkpt lat="46.27018" lon="10.58899">
        <ele>2042.556</ele>
        <time>2018-08-11T04:00:55Z</time>
      </trkpt>
      <trkpt lat="46.27024" lon="10.58888">
        <ele>2043.487</ele>
        <time>2018-08-11T04:01:15Z</time>
      </trkpt>
      <trkpt lat="46.27031" lon="10.58882">
        <ele>2044.324</ele>
        <time>2018-08-11T04:01:35Z</time>
      </trkpt>
      <trkpt lat="46.27042" lon="10.5888">
        <ele>2045.547</ele>
        <time>2018-08-11T04:01:55Z</time>
      </trkpt>
      <trkpt lat="46.27052" lon="10.58885">
        <ele>2046.684</ele>
        <time>2018-08-11T04:02:15Z</time>
      </trkpt>
      <trkpt lat="46.27059" lon="10.58898">
        <ele>2047.607</ele>
        <time>2018-08-11T04:02:35Z</time>
      </trkpt>
      <trkpt lat="46.27063" lon="10.58922">
        <ele>2048.817</ele>
        <time>2018-08-11T04:02:55Z</time>
      </trkpt>
      <trkpt lat="46.27067" lon="10.58937">
        <ele>2049.408</ele>
        <time>2018-08-11T04:03:15Z</time>
      </trkpt>
      <trkpt lat="46.27075" lon="10.58945">
        <ele>2050.75</ele>
        <time>2018-08-11T04:03:35Z</time>
      </trkpt>
      <trkpt lat="46.27089" lon="10.58941">
        <ele>2052.635</ele>
        <time>2018-08-11T04:03:55Z</time>
      </trkpt>
      <trkpt lat="46.27099" lon="10.58936">
        <ele>2053.931</ele>
        <time>2018-08-11T04:04:15Z</time>
      </trkpt>
      <trkpt lat="46.27109" lon="10.58929">
        <ele>2055.145</ele>
        <time>2018-08-11T04:04:35Z</time>
      </trkpt>
      <trkpt lat="46.2713" lon="10.5894">
        <ele>2059.17</ele>
        <time>2018-08-11T04:04:55Z</time>
      </trkpt>
      <trkpt lat="46.27142" lon="10.58949">
        <ele>2061.461</ele>
        <time>2018-08-11T04:05:15Z</time>
      </trkpt>
      <trkpt lat="46.2715" lon="10.58953">
        <ele>2062.598</ele>
        <time>2018-08-11T04:05:35Z</time>
      </trkpt>
      <trkpt lat="46.27163" lon="10.58952">
        <ele>2064.591</ele>
        <time>2018-08-11T04:05:55Z</time>
      </trkpt>
      <trkpt lat="46.27178" lon="10.58947">
        <ele>2065.966</ele>
        <time>2018-08-11T04:06:15Z</time>
      </trkpt>
      <trkpt lat="46.27189" lon="10.58949">
        <ele>2066.829</ele>
        <time>2018-08-11T04:06:35Z</time>
      </trkpt>
      <trkpt lat="46.27215" lon="10.58957">
        <ele>2069.021</ele>
        <time>2018-08-11T04:06:55Z</time>
      </trkpt>
      <trkpt lat="46.27231" lon="10.58959">
        <ele>2070.108</ele>
        <time>2018-08-11T04:07:15Z</time>
      </trkpt>
      <trkpt lat="46.27252" lon="10.58954">
        <ele>2071.598</ele>
        <time>2018-08-11T04:07:35Z</time>
      </trkpt>
      <trkpt lat="46.27265" lon="10.58952">
        <ele>2073.093</ele>
        <time>2018-08-11T04:07:55Z</time>
      </trkpt>
      <trkpt lat="46.27289" lon="10.58954">
        <ele>2076.619</ele>
        <time>2018-08-11T04:08:15Z</time>
      </trkpt>
      <trkpt lat="46.27312" lon="10.58946">
        <ele>2079.833</ele>
        <time>2018-08-11T04:08:35Z</time>
      </trkpt>
      <trkpt lat="46.27328" lon="10.58942">
        <ele>2081.218</ele>
        <time>2018-08-11T04:08:55Z</time>
      </trkpt>
      <trkpt lat="46.27364" lon="10.58942">
        <ele>2087.269</ele>
        <time>2018-08-11T04:09:15Z</time>
      </trkpt>
      <trkpt lat="46.27375" lon="10.5894">
        <ele>2089.256</ele>
        <time>2018-08-11T04:09:35Z</time>
      </trkpt>
      <trkpt lat="46.27394" lon="10.58932">
        <ele>2092.359</ele>
        <time>2018-08-11T04:09:55Z</time>
      </trkpt>
      <trkpt lat="46.27413" lon="10.58932">
        <ele>2095.383</ele>
        <time>2018-08-11T04:10:15Z</time>
      </trkpt>
      <trkpt lat="46.27436" lon="10.58935">
        <ele>2098.425</ele>
        <time>2018-08-11T04:10:35Z</time>
      </trkpt>
      <trkpt lat="46.27455" lon="10.58942">
        <ele>2100.617</ele>
        <time>2018-08-11T04:10:55Z</time>
      </trkpt>
      <trkpt lat="46.27463" lon="10.58943">
        <ele>2101.208</ele>
        <time>2018-08-11T04:11:15Z</time>
      </trkpt>
      <trkpt lat="46.27473" lon="10.5895">
        <ele>2102.72</ele>
        <time>2018-08-11T04:11:35Z</time>
      </trkpt>
      <trkpt lat="46.27488" lon="10.58952">
        <ele>2105.245</ele>
        <time>2018-08-11T04:11:55Z</time>
      </trkpt>
      <trkpt lat="46.27519" lon="10.58949">
        <ele>2109.961</ele>
        <time>2018-08-11T04:12:15Z</time>
      </trkpt>
      <trkpt lat="46.27533" lon="10.58943">
        <ele>2111.695</ele>
        <time>2018-08-11T04:12:35Z</time>
      </trkpt>
      <trkpt lat="46.27545" lon="10.58935">
        <ele>2113.47</ele>
        <time>2018-08-11T04:12:55Z</time>
      </trkpt>
      <trkpt lat="46.27564" lon="10.58927">
        <ele>2117.361</ele>
        <time>2018-08-11T04:13:15Z</time>
      </trkpt>
      <trkpt lat="46.27584" lon="10.58925">
        <ele>2121.478</ele>
        <time>2018-08-11T04:13:35Z</time>
      </trkpt>
      <trkpt lat="46.27615" lon="10.58927">
        <ele>2127.891</ele>
        <time>2018-08-11T04:13:55Z</time>
      </trkpt>
      <trkpt lat="46.27646" lon="10.58928">
        <ele>2133.038</ele>
        <time>2018-08-11T04:14:15Z</time>
      </trkpt>
      <trkpt lat="46.27664" lon="10.58921">
        <ele>2136.57</ele>
        <time>2018-08-11T04:14:35Z</time>
      </trkpt>
      <trkpt lat="46.27682" lon="10.58906">
        <ele>2140.917</ele>
        <time>2018-08-11T04:14:55Z</time>
      </trkpt>
      <trkpt lat="46.27698" lon="10.58894">
        <ele>2144.608</ele>
        <time>2018-08-11T04:15:15Z</time>
      </trkpt>
      <trkpt lat="46.27709" lon="10.58884">
        <ele>2147.495</ele>
        <time>2018-08-11T04:15:35Z</time>
      </trkpt>
      <trkpt lat="46.27721" lon="10.58873">
        <ele>2150.84</ele>
        <time>2018-08-11T04:15:55Z</time>
      </trkpt>
      <trkpt lat="46.27739" lon="10.58865">
        <ele>2154.916</ele>
        <time>2018-08-11T04:16:15Z</time>
      </trkpt>
      <trkpt lat="46.27752" lon="10.58858">
        <ele>2157.48</ele>
        <time>2018-08-11T04:16:35Z</time>
      </trkpt>
      <trkpt lat="46.2776" lon="10.58852">
        <ele>2158.795</ele>
        <time>2018-08-11T04:16:55Z</time>
      </trkpt>
      <trkpt lat="46.27797" lon="10.58889">
        <ele>2168.066</ele>
        <time>2018-08-11T04:17:15Z</time>
      </trkpt>
      <trkpt lat="46.27801" lon="10.58911">
        <ele>2172.223</ele>
        <time>2018-08-11T04:17:35Z</time>
      </trkpt>
      <trkpt lat="46.27787" lon="10.58942">
        <ele>2174.636</ele>
        <time>2018-08-11T04:17:55Z</time>
      </trkpt>
      <trkpt lat="46.27784" lon="10.5899">
        <ele>2184.453</ele>
        <time>2018-08-11T04:18:15Z</time>
      </trkpt>
      <trkpt lat="46.27774" lon="10.59029">
        <ele>2190.004</ele>
        <time>2018-08-11T04:18:35Z</time>
      </trkpt>
      <trkpt lat="46.27766" lon="10.59065">
        <ele>2195.914</ele>
        <time>2018-08-11T04:18:55Z</time>
      </trkpt>
      <trkpt lat="46.27751" lon="10.59107">
        <ele>2201.308</ele>
        <time>2018-08-11T04:19:15Z</time>
      </trkpt>
      <trkpt lat="46.27725" lon="10.59151">
        <ele>2209.227</ele>
        <time>2018-08-11T04:19:35Z</time>
      </trkpt>
      <trkpt lat="46.27711" lon="10.59175">
        <ele>2212.262</ele>
        <time>2018-08-11T04:19:55Z</time>
      </trkpt>
      <trkpt lat="46.277" lon="10.59199">
        <ele>2217.318</ele>
        <time>2018-08-11T04:20:15Z</time>
      </trkpt>
      <trkpt lat="46.2769" lon="10.59222">
        <ele>2222.632</ele>
        <time>2018-08-11T04:20:35Z</time>
      </trkpt>
      <trkpt lat="46.27679" lon="10.59242">
        <ele>2225.527</ele>
        <time>2018-08-11T04:20:55Z</time>
      </trkpt>
      <trkpt lat="46.27675" lon="10.59259">
        <ele>2229.798</ele>
        <time>2018-08-11T04:21:15Z</time>
      </trkpt>
      <trkpt lat="46.27713" lon="10.59238">
        <ele>2238.695</ele>
        <time>2018-08-11T04:21:35Z</time>
      </trkpt>
      <trkpt lat="46.27742" lon="10.59223">
        <ele>2247.528</ele>
        <time>2018-08-11T04:21:55Z</time>
      </trkpt>
      <trkpt lat="46.27761" lon="10.59207">
        <ele>2249.186</ele>
        <time>2018-08-11T04:22:15Z</time>
      </trkpt>
      <trkpt lat="46.27778" lon="10.59197">
        <ele>2251.16</ele>
        <time>2018-08-11T04:22:35Z</time>
      </trkpt>
      <trkpt lat="46.27815" lon="10.5919">
        <ele>2261.626</ele>
        <time>2018-08-11T04:22:55Z</time>
      </trkpt>
      <trkpt lat="46.27826" lon="10.5919">
        <ele>2266.108</ele>
        <time>2018-08-11T04:23:15Z</time>
      </trkpt>
      <trkpt lat="46.27832" lon="10.5919">
        <ele>2268.44</ele>
        <time>2018-08-11T04:23:35Z</time>
      </trkpt>
      <trkpt lat="46.2782" lon="10.59211">
        <ele>2273.115</ele>
        <time>2018-08-11T04:23:55Z</time>
      </trkpt>
      <trkpt lat="46.27809" lon="10.59232">
        <ele>2280.471</ele>
        <time>2018-08-11T04:24:15Z</time>
      </trkpt>
      <trkpt lat="46.27829" lon="10.59229">
        <ele>2285.435</ele>
        <time>2018-08-11T04:24:35Z</time>
      </trkpt>
      <trkpt lat="46.27841" lon="10.59226">
        <ele>2286.76</ele>
        <time>2018-08-11T04:24:55Z</time>
      </trkpt>
      <trkpt lat="46.27836" lon="10.59239">
        <ele>2292.081</ele>
        <time>2018-08-11T04:25:15Z</time>
      </trkpt>
      <trkpt lat="46.2783" lon="10.59247">
        <ele>2294.428</ele>
        <time>2018-08-11T04:25:35Z</time>
      </trkpt>
      <trkpt lat="46.27824" lon="10.59256">
        <ele>2296.351</ele>
        <time>2018-08-11T04:25:55Z</time>
      </trkpt>
      <trkpt lat="46.27817" lon="10.59267">
        <ele>2298.258</ele>
        <time>2018-08-11T04:26:15Z</time>
      </trkpt>
      <trkpt lat="46.27814" lon="10.59277">
        <ele>2301.552</ele>
        <time>2018-08-11T04:26:35Z</time>
      </trkpt>
      <trkpt lat="46.27844" lon="10.59276">
        <ele>2309.617</ele>
        <time>2018-08-11T04:26:55Z</time>
      </trkpt>
      <trkpt lat="46.2786" lon="10.59276">
        <ele>2313.808</ele>
        <time>2018-08-11T04:27:15Z</time>
      </trkpt>
      <trkpt lat="46.27874" lon="10.59276">
        <ele>2318.697</ele>
        <time>2018-08-11T04:27:35Z</time>
      </trkpt>
      <trkpt lat="46.27884" lon="10.5928">
        <ele>2322.942</ele>
        <time>2018-08-11T04:27:55Z</time>
      </trkpt>
      <trkpt lat="46.27868" lon="10.59297">
        <ele>2326.348</ele>
        <time>2018-08-11T04:28:15Z</time>
      </trkpt>
      <trkpt lat="46.2786" lon="10.59309">
        <ele>2329.742</ele>
        <time>2018-08-11T04:28:35Z</time>
      </trkpt>
      <trkpt lat="46.27855" lon="10.5932">
        <ele>2331.517</ele>
        <time>2018-08-11T04:28:55Z</time>
      </trkpt>
      <trkpt lat="46.27856" lon="10.59332">
        <ele>2335.438</ele>
        <time>2018-08-11T04:29:15Z</time>
      </trkpt>
      <trkpt lat="46.27856" lon="10.59342">
        <ele>2338.465</ele>
        <time>2018-08-11T04:29:35Z</time>
      </trkpt>
      <trkpt lat="46.27852" lon="10.59353">
        <ele>2340.578</ele>
        <time>2018-08-11T04:29:55Z</time>
      </trkpt>
      <trkpt lat="46.27846" lon="10.59371">
        <ele>2343.378</ele>
        <time>2018-08-11T04:30:15Z</time>
      </trkpt>
      <trkpt lat="46.27845" lon="10.59387">
        <ele>2346.733</ele>
        <time>2018-08-11T04:30:35Z</time>
      </trkpt>
      <trkpt lat="46.27846" lon="10.594">
        <ele>2348.626</ele>
        <time>2018-08-11T04:30:55Z</time>
      </trkpt>
      <trkpt lat="46.27849" lon="10.59408">
        <ele>2351.308</ele>
        <time>2018-08-11T04:31:15Z</time>
      </trkpt>
      <trkpt lat="46.27854" lon="10.59413">
        <ele>2354.119</ele>
        <time>2018-08-11T04:31:35Z</time>
      </trkpt>
      <trkpt lat="46.2786" lon="10.59409">
        <ele>2356.524</ele>
        <time>2018-08-11T04:31:55Z</time>
      </trkpt>
      <trkpt lat="46.27866" lon="10.59418">
        <ele>2359.72</ele>
        <time>2018-08-11T04:32:15Z</time>
      </trkpt>
      <trkpt lat="46.27869" lon="10.5943">
        <ele>2359.634</ele>
        <time>2018-08-11T04:32:35Z</time>
      </trkpt>
      <trkpt lat="46.27896" lon="10.59463">
        <ele>2364.929</ele>
        <time>2018-08-11T04:32:55Z</time>
      </trkpt>
      <trkpt lat="46.27906" lon="10.59473">
        <ele>2366.73</ele>
        <time>2018-08-11T04:33:15Z</time>
      </trkpt>
      <trkpt lat="46.27918" lon="10.59486">
        <ele>2368.367</ele>
        <time>2018-08-11T04:33:35Z</time>
      </trkpt>
      <trkpt lat="46.27927" lon="10.59493">
        <ele>2370.57</ele>
        <time>2018-08-11T04:33:55Z</time>
      </trkpt>
      <trkpt lat="46.27958" lon="10.59503">
        <ele>2381.369</ele>
        <time>2018-08-11T04:34:15Z</time>
      </trkpt>
      <trkpt lat="46.2798" lon="10.59512">
        <ele>2387.504</ele>
        <time>2018-08-11T04:34:35Z</time>
      </trkpt>
      <trkpt lat="46.27995" lon="10.59517">
        <ele>2391.824</ele>
        <time>2018-08-11T04:34:55Z</time>
      </trkpt>
      <trkpt lat="46.28016" lon="10.59529">
        <ele>2395.708</ele>
        <time>2018-08-11T04:35:15Z</time>
      </trkpt>
      <trkpt lat="46.28027" lon="10.59537">
        <ele>2397.588</ele>
        <time>2018-08-11T04:35:35Z</time>
      </trkpt>
      <trkpt lat="46.28044" lon="10.59547">
        <ele>2402.393</ele>
        <time>2018-08-11T04:35:55Z</time>
      </trkpt>
      <trkpt lat="46.28053" lon="10.59554">
        <ele>2404.729</ele>
        <time>2018-08-11T04:36:15Z</time>
      </trkpt>
      <trkpt lat="46.28059" lon="10.59563">
        <ele>2407.313</ele>
        <time>2018-08-11T04:36:35Z</time>
      </trkpt>
      <trkpt lat="46.28063" lon="10.59572">
        <ele>2408.758</ele>
        <time>2018-08-11T04:36:55Z</time>
      </trkpt>
      <trkpt lat="46.28064" lon="10.59588">
        <ele>2410.369</ele>
        <time>2018-08-11T04:37:15Z</time>
      </trkpt>
      <trkpt lat="46.28064" lon="10.59607">
        <ele>2414.446</ele>
        <time>2018-08-11T04:37:35Z</time>
      </trkpt>
      <trkpt lat="46.2806" lon="10.59625">
        <ele>2415.829</ele>
        <time>2018-08-11T04:37:55Z</time>
      </trkpt>
      <trkpt lat="46.28059" lon="10.5964">
        <ele>2417.668</ele>
        <time>2018-08-11T04:38:15Z</time>
      </trkpt>
      <trkpt lat="46.28066" lon="10.59652">
        <ele>2422.942</ele>
        <time>2018-08-11T04:38:35Z</time>
      </trkpt>
      <trkpt lat="46.28069" lon="10.59676">
        <ele>2427.226</ele>
        <time>2018-08-11T04:38:55Z</time>
      </trkpt>
      <trkpt lat="46.28072" lon="10.5971">
        <ele>2432.608</ele>
        <time>2018-08-11T04:39:15Z</time>
      </trkpt>
      <trkpt lat="46.28077" lon="10.59749">
        <ele>2439.628</ele>
        <time>2018-08-11T04:39:35Z</time>
      </trkpt>
      <trkpt lat="46.2808" lon="10.59758">
        <ele>2442.893</ele>
        <time>2018-08-11T04:39:55Z</time>
      </trkpt>
      <trkpt lat="46.28081" lon="10.59776">
        <ele>2446.369</ele>
        <time>2018-08-11T04:40:15Z</time>
      </trkpt>
      <trkpt lat="46.28079" lon="10.59791">
        <ele>2448.483</ele>
        <time>2018-08-11T04:40:35Z</time>
      </trkpt>
      <trkpt lat="46.28079" lon="10.59809">
        <ele>2451.428</ele>
        <time>2018-08-11T04:40:55Z</time>
      </trkpt>
      <trkpt lat="46.28079" lon="10.5982">
        <ele>2452.489</ele>
        <time>2018-08-11T04:41:15Z</time>
      </trkpt>
      <trkpt lat="46.28085" lon="10.5983">
        <ele>2455.156</ele>
        <time>2018-08-11T04:41:35Z</time>
      </trkpt>
      <trkpt lat="46.28091" lon="10.59819">
        <ele>2456.819</ele>
        <time>2018-08-11T04:41:55Z</time>
      </trkpt>
      <trkpt lat="46.28094" lon="10.59813">
        <ele>2458.568</ele>
        <time>2018-08-11T04:42:15Z</time>
      </trkpt>
      <trkpt lat="46.28103" lon="10.59812">
        <ele>2461.942</ele>
        <time>2018-08-11T04:42:35Z</time>
      </trkpt>
      <trkpt lat="46.28114" lon="10.59818">
        <ele>2465.126</ele>
        <time>2018-08-11T04:42:55Z</time>
      </trkpt>
      <trkpt lat="46.28127" lon="10.59819">
        <ele>2470.308</ele>
        <time>2018-08-11T04:43:15Z</time>
      </trkpt>
      <trkpt lat="46.28158" lon="10.59822">
        <ele>2479.358</ele>
        <time>2018-08-11T04:43:35Z</time>
      </trkpt>
      <trkpt lat="46.28171" lon="10.59821">
        <ele>2484.363</ele>
        <time>2018-08-11T04:43:55Z</time>
      </trkpt>
      <trkpt lat="46.28173" lon="10.59817">
        <ele>2487.739</ele>
        <time>2018-08-11T04:44:15Z</time>
      </trkpt>
      <trkpt lat="46.28198" lon="10.59796">
        <ele>2508.753</ele>
        <time>2018-08-11T04:44:35Z</time>
      </trkpt>
      <trkpt lat="46.28189" lon="10.59788">
        <ele>2507.998</ele>
        <time>2018-08-11T04:44:55Z</time>
      </trkpt>
      <trkpt lat="46.28186" lon="10.59779">
        <ele>2509.839</ele>
        <time>2018-08-11T04:45:15Z</time>
      </trkpt>
      <trkpt lat="46.28191" lon="10.59773">
        <ele>2513.036</ele>
        <time>2018-08-11T04:45:35Z</time>
      </trkpt>
      <trkpt lat="46.28197" lon="10.59774">
        <ele>2515.719</ele>
        <time>2018-08-11T04:45:55Z</time>
      </trkpt>
      <trkpt lat="46.28204" lon="10.59768">
        <ele>2518.956</ele>
        <time>2018-08-11T04:46:15Z</time>
      </trkpt>
      <trkpt lat="46.28218" lon="10.59758">
        <ele>2526.559</ele>
        <time>2018-08-11T04:46:35Z</time>
      </trkpt>
      <trkpt lat="46.28222" lon="10.59752">
        <ele>2529.514</ele>
        <time>2018-08-11T04:46:55Z</time>
      </trkpt>
      <trkpt lat="46.28228" lon="10.59744">
        <ele>2531.208</ele>
        <time>2018-08-11T04:47:15Z</time>
      </trkpt>
      <trkpt lat="46.28235" lon="10.5974">
        <ele>2533.417</ele>
        <time>2018-08-11T04:47:35Z</time>
      </trkpt>
      <trkpt lat="46.28239" lon="10.59743">
        <ele>2535.332</ele>
        <time>2018-08-11T04:47:55Z</time>
      </trkpt>
      <trkpt lat="46.28247" lon="10.59748">
        <ele>2538.988</ele>
        <time>2018-08-11T04:48:15Z</time>
      </trkpt>
      <trkpt lat="46.28254" lon="10.59751">
        <ele>2542.272</ele>
        <time>2018-08-11T04:48:35Z</time>
      </trkpt>
      <trkpt lat="46.28257" lon="10.59761">
        <ele>2541.267</ele>
        <time>2018-08-11T04:48:55Z</time>
      </trkpt>
      <trkpt lat="46.28265" lon="10.5976">
        <ele>2546.248</ele>
        <time>2018-08-11T04:49:15Z</time>
      </trkpt>
      <trkpt lat="46.28275" lon="10.59761">
        <ele>2551.225</ele>
        <time>2018-08-11T04:49:35Z</time>
      </trkpt>
      <trkpt lat="46.28296" lon="10.59772">
        <ele>2556.548</ele>
        <time>2018-08-11T04:49:55Z</time>
      </trkpt>
      <trkpt lat="46.28306" lon="10.59776">
        <ele>2559.233</ele>
        <time>2018-08-11T04:50:15Z</time>
      </trkpt>
      <trkpt lat="46.28315" lon="10.59777">
        <ele>2562.523</ele>
        <time>2018-08-11T04:50:35Z</time>
      </trkpt>
      <trkpt lat="46.28327" lon="10.59788">
        <ele>2561.315</ele>
        <time>2018-08-11T04:50:55Z</time>
      </trkpt>
      <trkpt lat="46.28339" lon="10.59794">
        <ele>2563.608</ele>
        <time>2018-08-11T04:51:15Z</time>
      </trkpt>
      <trkpt lat="46.28346" lon="10.59794">
        <ele>2567.765</ele>
        <time>2018-08-11T04:51:35Z</time>
      </trkpt>
      <trkpt lat="46.28352" lon="10.59801">
        <ele>2567.27</ele>
        <time>2018-08-11T04:51:55Z</time>
      </trkpt>
      <trkpt lat="46.28359" lon="10.59803">
        <ele>2570.656</ele>
        <time>2018-08-11T04:52:15Z</time>
      </trkpt>
      <trkpt lat="46.28371" lon="10.59814">
        <ele>2571.76</ele>
        <time>2018-08-11T04:52:35Z</time>
      </trkpt>
      <trkpt lat="46.28376" lon="10.59826">
        <ele>2568.665</ele>
        <time>2018-08-11T04:52:55Z</time>
      </trkpt>
      <trkpt lat="46.28383" lon="10.59842">
        <ele>2565.526</ele>
        <time>2018-08-11T04:53:15Z</time>
      </trkpt>
      <trkpt lat="46.28405" lon="10.5987">
        <ele>2571.063</ele>
        <time>2018-08-11T04:53:35Z</time>
      </trkpt>
      <trkpt lat="46.28411" lon="10.59877">
        <ele>2572.156</ele>
        <time>2018-08-11T04:53:55Z</time>
      </trkpt>
      <trkpt lat="46.28418" lon="10.59886">
        <ele>2573.646</ele>
        <time>2018-08-11T04:54:15Z</time>
      </trkpt>
      <trkpt lat="46.28425" lon="10.59897">
        <ele>2572.688</ele>
        <time>2018-08-11T04:54:35Z</time>
      </trkpt>
      <trkpt lat="46.28429" lon="10.59903">
        <ele>2572.516</ele>
        <time>2018-08-11T04:54:55Z</time>
      </trkpt>
      <trkpt lat="46.28432" lon="10.59905">
        <ele>2573.308</ele>
        <time>2018-08-11T04:55:15Z</time>
      </trkpt>
      <trkpt lat="46.28436" lon="10.59905">
        <ele>2574.626</ele>
        <time>2018-08-11T04:55:35Z</time>
      </trkpt>
      <trkpt lat="46.28442" lon="10.59904">
        <ele>2577.221</ele>
        <time>2018-08-11T04:55:55Z</time>
      </trkpt>
      <trkpt lat="46.28468" lon="10.59991">
        <ele>2555.217</ele>
        <time>2018-08-11T04:56:15Z</time>
      </trkpt>
      <trkpt lat="46.28469" lon="10.59998">
        <ele>2553.821</ele>
        <time>2018-08-11T04:56:35Z</time>
      </trkpt>
      <trkpt lat="46.28469" lon="10.59999">
        <ele>2553.686</ele>
        <time>2018-08-11T04:56:55Z</time>
      </trkpt>
      <trkpt lat="46.28469" lon="10.60001">
        <ele>2553.467</ele>
        <time>2018-08-11T04:57:15Z</time>
      </trkpt>
      <trkpt lat="46.28471" lon="10.60013">
        <ele>2551.154</ele>
        <time>2018-08-11T04:57:35Z</time>
      </trkpt>
      <trkpt lat="46.28472" lon="10.60024">
        <ele>2549.437</ele>
        <time>2018-08-11T04:57:55Z</time>
      </trkpt>
      <trkpt lat="46.28473" lon="10.60031">
        <ele>2547.886</ele>
        <time>2018-08-11T04:58:15Z</time>
      </trkpt>
      <trkpt lat="46.28473" lon="10.60032">
        <ele>2547.76</ele>
        <time>2018-08-11T04:58:35Z</time>
      </trkpt>
      <trkpt lat="46.28473" lon="10.60043">
        <ele>2546.726</ele>
        <time>2018-08-11T04:58:55Z</time>
      </trkpt>
      <trkpt lat="46.28477" lon="10.6003">
        <ele>2545.108</ele>
        <time>2018-08-11T04:59:15Z</time>
      </trkpt>
      <trkpt lat="46.28478" lon="10.60022">
        <ele>2545.36</ele>
        <time>2018-08-11T04:59:35Z</time>
      </trkpt>
      <trkpt lat="46.28479" lon="10.60014">
        <ele>2545.485</ele>
        <time>2018-08-11T04:59:55Z</time>
      </trkpt>
      <trkpt lat="46.2848" lon="10.60012">
        <ele>2545.071</ele>
        <time>2018-08-11T05:00:15Z</time>
      </trkpt>
      <trkpt lat="46.28483" lon="10.60003">
        <ele>2543.465</ele>
        <time>2018-08-11T05:00:35Z</time>
      </trkpt>
      <trkpt lat="46.28493" lon="10.59988">
        <ele>2537.28</ele>
        <time>2018-08-11T05:00:55Z</time>
      </trkpt>
      <trkpt lat="46.28498" lon="10.5998">
        <ele>2533.921</ele>
        <time>2018-08-11T05:01:15Z</time>
      </trkpt>
      <trkpt lat="46.28506" lon="10.59969">
        <ele>2530.498</ele>
        <time>2018-08-11T05:01:35Z</time>
      </trkpt>
      <trkpt lat="46.28512" lon="10.59977">
        <ele>2527.411</ele>
        <time>2018-08-11T05:01:55Z</time>
      </trkpt>
      <trkpt lat="46.2852" lon="10.59991">
        <ele>2523.162</ele>
        <time>2018-08-11T05:02:15Z</time>
      </trkpt>
      <trkpt lat="46.28522" lon="10.60002">
        <ele>2521.483</ele>
        <time>2018-08-11T05:02:35Z</time>
      </trkpt>
      <trkpt lat="46.28522" lon="10.60011">
        <ele>2519.411</ele>
        <time>2018-08-11T05:02:55Z</time>
      </trkpt>
      <trkpt lat="46.28562" lon="10.60016">
        <ele>2509.008</ele>
        <time>2018-08-11T05:03:15Z</time>
      </trkpt>
      <trkpt lat="46.28567" lon="10.60038">
        <ele>2505.198</ele>
        <time>2018-08-11T05:03:35Z</time>
      </trkpt>
      <trkpt lat="46.2857" lon="10.60045">
        <ele>2503.923</ele>
        <time>2018-08-11T05:03:55Z</time>
      </trkpt>
      <trkpt lat="46.28572" lon="10.60049">
        <ele>2503.239</ele>
        <time>2018-08-11T05:04:15Z</time>
      </trkpt>
      <trkpt lat="46.28569" lon="10.60069">
        <ele>2500.523</ele>
        <time>2018-08-11T05:04:35Z</time>
      </trkpt>
      <trkpt lat="46.28572" lon="10.60085">
        <ele>2498.788</ele>
        <time>2018-08-11T05:04:55Z</time>
      </trkpt>
      <trkpt lat="46.2858" lon="10.60115">
        <ele>2493.779</ele>
        <time>2018-08-11T05:05:15Z</time>
      </trkpt>
      <trkpt lat="46.28576" lon="10.60125">
        <ele>2490.946</ele>
        <time>2018-08-11T05:05:35Z</time>
      </trkpt>
      <trkpt lat="46.28567" lon="10.60127">
        <ele>2490.299</ele>
        <time>2018-08-11T05:05:55Z</time>
      </trkpt>
      <trkpt lat="46.28554" lon="10.6013">
        <ele>2489.591</ele>
        <time>2018-08-11T05:06:15Z</time>
      </trkpt>
      <trkpt lat="46.2855" lon="10.6014">
        <ele>2488.181</ele>
        <time>2018-08-11T05:06:35Z</time>
      </trkpt>
      <trkpt lat="46.28562" lon="10.60141">
        <ele>2486.519</ele>
        <time>2018-08-11T05:06:55Z</time>
      </trkpt>
      <trkpt lat="46.2857" lon="10.60157">
        <ele>2482.408</ele>
        <time>2018-08-11T05:07:15Z</time>
      </trkpt>
      <trkpt lat="46.28575" lon="10.60163">
        <ele>2480.531</ele>
        <time>2018-08-11T05:07:35Z</time>
      </trkpt>
      <trkpt lat="46.28575" lon="10.60175">
        <ele>2478.216</ele>
        <time>2018-08-11T05:07:55Z</time>
      </trkpt>
      <trkpt lat="46.28569" lon="10.60181">
        <ele>2477.912</ele>
        <time>2018-08-11T05:08:15Z</time>
      </trkpt>
      <trkpt lat="46.28565" lon="10.60194">
        <ele>2476.746</ele>
        <time>2018-08-11T05:08:35Z</time>
      </trkpt>
      <trkpt lat="46.28568" lon="10.60201">
        <ele>2476.071</ele>
        <time>2018-08-11T05:08:55Z</time>
      </trkpt>
      <trkpt lat="46.28577" lon="10.60211">
        <ele>2473.332</ele>
        <time>2018-08-11T05:09:15Z</time>
      </trkpt>
      <trkpt lat="46.28588" lon="10.60215">
        <ele>2470.259</ele>
        <time>2018-08-11T05:09:35Z</time>
      </trkpt>
      <trkpt lat="46.286" lon="10.60212">
        <ele>2468.462</ele>
        <time>2018-08-11T05:09:55Z</time>
      </trkpt>
      <trkpt lat="46.28614" lon="10.60215">
        <ele>2465.238</ele>
        <time>2018-08-11T05:10:15Z</time>
      </trkpt>
      <trkpt lat="46.28624" lon="10.60217">
        <ele>2461.37</ele>
        <time>2018-08-11T05:10:35Z</time>
      </trkpt>
      <trkpt lat="46.28634" lon="10.60225">
        <ele>2457.317</ele>
        <time>2018-08-11T05:10:55Z</time>
      </trkpt>
      <trkpt lat="46.28655" lon="10.60234">
        <ele>2449.308</ele>
        <time>2018-08-11T05:11:15Z</time>
      </trkpt>
      <trkpt lat="46.28664" lon="10.60243">
        <ele>2446.475</ele>
        <time>2018-08-11T05:11:35Z</time>
      </trkpt>
      <trkpt lat="46.28672" lon="10.60246">
        <ele>2444.18</ele>
        <time>2018-08-11T05:11:55Z</time>
      </trkpt>
      <trkpt lat="46.2868" lon="10.60251">
        <ele>2441.726</ele>
        <time>2018-08-11T05:12:15Z</time>
      </trkpt>
      <trkpt lat="46.28686" lon="10.60237">
        <ele>2438.59</ele>
        <time>2018-08-11T05:12:35Z</time>
      </trkpt>
      <trkpt lat="46.28685" lon="10.6022">
        <ele>2437.275</ele>
        <time>2018-08-11T05:12:55Z</time>
      </trkpt>
      <trkpt lat="46.28697" lon="10.60217">
        <ele>2432.616</ele>
        <time>2018-08-11T05:13:15Z</time>
      </trkpt>
      <trkpt lat="46.28709" lon="10.60222">
        <ele>2429.153</ele>
        <time>2018-08-11T05:13:35Z</time>
      </trkpt>
      <trkpt lat="46.2874" lon="10.60235">
        <ele>2421.866</ele>
        <time>2018-08-11T05:13:55Z</time>
      </trkpt>
      <trkpt lat="46.28751" lon="10.6024">
        <ele>2419.672</ele>
        <time>2018-08-11T05:14:15Z</time>
      </trkpt>
      <trkpt lat="46.28768" lon="10.6025">
        <ele>2418.613</ele>
        <time>2018-08-11T05:14:35Z</time>
      </trkpt>
      <trkpt lat="46.28773" lon="10.60259">
        <ele>2417.214</ele>
        <time>2018-08-11T05:14:55Z</time>
      </trkpt>
      <trkpt lat="46.28774" lon="10.60271">
        <ele>2415.608</ele>
        <time>2018-08-11T05:15:15Z</time>
      </trkpt>
      <trkpt lat="46.28772" lon="10.60282">
        <ele>2414.619</ele>
        <time>2018-08-11T05:15:35Z</time>
      </trkpt>
      <trkpt lat="46.2877" lon="10.60291">
        <ele>2413.854</ele>
        <time>2018-08-11T05:15:55Z</time>
      </trkpt>
      <trkpt lat="46.28779" lon="10.60287">
        <ele>2412.57</ele>
        <time>2018-08-11T05:16:15Z</time>
      </trkpt>
      <trkpt lat="46.2878" lon="10.60302">
        <ele>2410.024</ele>
        <time>2018-08-11T05:16:35Z</time>
      </trkpt>
      <trkpt lat="46.2878" lon="10.60314">
        <ele>2408.469</ele>
        <time>2018-08-11T05:16:55Z</time>
      </trkpt>
      <trkpt lat="46.28783" lon="10.6033">
        <ele>2405.31</ele>
        <time>2018-08-11T05:17:15Z</time>
      </trkpt>
      <trkpt lat="46.28789" lon="10.60333">
        <ele>2402.197</ele>
        <time>2018-08-11T05:17:35Z</time>
      </trkpt>
      <trkpt lat="46.28796" lon="10.60324">
        <ele>2401.12</ele>
        <time>2018-08-11T05:17:55Z</time>
      </trkpt>
      <trkpt lat="46.28803" lon="10.60316">
        <ele>2400.767</ele>
        <time>2018-08-11T05:18:15Z</time>
      </trkpt>
      <trkpt lat="46.28807" lon="10.60331">
        <ele>2395.081</ele>
        <time>2018-08-11T05:18:35Z</time>
      </trkpt>
      <trkpt lat="46.28811" lon="10.60341">
        <ele>2390.719</ele>
        <time>2018-08-11T05:18:55Z</time>
      </trkpt>
      <trkpt lat="46.28813" lon="10.60348">
        <ele>2388.108</ele>
        <time>2018-08-11T05:19:15Z</time>
      </trkpt>
      <trkpt lat="46.28823" lon="10.6034">
        <ele>2384.228</ele>
        <time>2018-08-11T05:19:35Z</time>
      </trkpt>
      <trkpt lat="46.28831" lon="10.60333">
        <ele>2380.693</ele>
        <time>2018-08-11T05:19:55Z</time>
      </trkpt>
      <trkpt lat="46.28835" lon="10.60339">
        <ele>2377.729</ele>
        <time>2018-08-11T05:20:15Z</time>
      </trkpt>
      <trkpt lat="46.2884" lon="10.6035">
        <ele>2374.483</ele>
        <time>2018-08-11T05:20:35Z</time>
      </trkpt>
      <trkpt lat="46.28857" lon="10.60349">
        <ele>2368.848</ele>
        <time>2018-08-11T05:20:55Z</time>
      </trkpt>
      <trkpt lat="46.28875" lon="10.60371">
        <ele>2362.849</ele>
        <time>2018-08-11T05:21:15Z</time>
      </trkpt>
      <trkpt lat="46.28888" lon="10.6038">
        <ele>2359.896</ele>
        <time>2018-08-11T05:21:35Z</time>
      </trkpt>
      <trkpt lat="46.28902" lon="10.60388">
        <ele>2356.479</ele>
        <time>2018-08-11T05:21:55Z</time>
      </trkpt>
      <trkpt lat="46.28903" lon="10.60388">
        <ele>2356.171</ele>
        <time>2018-08-11T05:22:15Z</time>
      </trkpt>
      <trkpt lat="46.28912" lon="10.60392">
        <ele>2354.041</ele>
        <time>2018-08-11T05:22:35Z</time>
      </trkpt>
      <trkpt lat="46.28914" lon="10.60393">
        <ele>2353.515</ele>
        <time>2018-08-11T05:22:55Z</time>
      </trkpt>
      <trkpt lat="46.28923" lon="10.60406">
        <ele>2349.608</ele>
        <time>2018-08-11T05:23:15Z</time>
      </trkpt>
      <trkpt lat="46.28931" lon="10.6042">
        <ele>2345.329</ele>
        <time>2018-08-11T05:23:35Z</time>
      </trkpt>
      <trkpt lat="46.28936" lon="10.60439">
        <ele>2339.854</ele>
        <time>2018-08-11T05:23:55Z</time>
      </trkpt>
      <trkpt lat="46.28943" lon="10.6045">
        <ele>2335.94</ele>
        <time>2018-08-11T05:24:15Z</time>
      </trkpt>
      <trkpt lat="46.28949" lon="10.60454">
        <ele>2334.414</ele>
        <time>2018-08-11T05:24:35Z</time>
      </trkpt>
      <trkpt lat="46.28948" lon="10.60467">
        <ele>2331.479</ele>
        <time>2018-08-11T05:24:55Z</time>
      </trkpt>
      <trkpt lat="46.28943" lon="10.6048">
        <ele>2329.65</ele>
        <time>2018-08-11T05:25:15Z</time>
      </trkpt>
      <trkpt lat="46.28942" lon="10.60493">
        <ele>2327.027</ele>
        <time>2018-08-11T05:25:35Z</time>
      </trkpt>
      <trkpt lat="46.28944" lon="10.60509">
        <ele>2323.47</ele>
        <time>2018-08-11T05:25:55Z</time>
      </trkpt>
      <trkpt lat="46.28949" lon="10.6052">
        <ele>2320.495</ele>
        <time>2018-08-11T05:26:15Z</time>
      </trkpt>
      <trkpt lat="46.28952" lon="10.60533">
        <ele>2317.249</ele>
        <time>2018-08-11T05:26:35Z</time>
      </trkpt>
      <trkpt lat="46.28958" lon="10.60541">
        <ele>2314.323</ele>
        <time>2018-08-11T05:26:55Z</time>
      </trkpt>
      <trkpt lat="46.28969" lon="10.6054">
        <ele>2311.808</ele>
        <time>2018-08-11T05:27:15Z</time>
      </trkpt>
      <trkpt lat="46.28978" lon="10.60529">
        <ele>2312.111</ele>
        <time>2018-08-11T05:27:35Z</time>
      </trkpt>
      <trkpt lat="46.28987" lon="10.60522">
        <ele>2311.716</ele>
        <time>2018-08-11T05:27:55Z</time>
      </trkpt>
      <trkpt lat="46.28999" lon="10.60519">
        <ele>2309.722</ele>
        <time>2018-08-11T05:28:15Z</time>
      </trkpt>
      <trkpt lat="46.29009" lon="10.60528">
        <ele>2308.676</ele>
        <time>2018-08-11T05:28:35Z</time>
      </trkpt>
      <trkpt lat="46.29039" lon="10.60542">
        <ele>2305.071</ele>
        <time>2018-08-11T05:28:55Z</time>
      </trkpt>
      <trkpt lat="46.29049" lon="10.60549">
        <ele>2301.532</ele>
        <time>2018-08-11T05:29:15Z</time>
      </trkpt>
      <trkpt lat="46.29063" lon="10.6055">
        <ele>2300.439</ele>
        <time>2018-08-11T05:29:35Z</time>
      </trkpt>
      <trkpt lat="46.29075" lon="10.60554">
        <ele>2295.932</ele>
        <time>2018-08-11T05:29:55Z</time>
      </trkpt>
      <trkpt lat="46.29082" lon="10.60554">
        <ele>2294.748</ele>
        <time>2018-08-11T05:30:15Z</time>
      </trkpt>
      <trkpt lat="46.29077" lon="10.60566">
        <ele>2291.261</ele>
        <time>2018-08-11T05:30:35Z</time>
      </trkpt>
      <trkpt lat="46.29056" lon="10.60563">
        <ele>2294.417</ele>
        <time>2018-08-11T05:30:55Z</time>
      </trkpt>
      <trkpt lat="46.2904" lon="10.60566">
        <ele>2291.308</ele>
        <time>2018-08-11T05:31:15Z</time>
      </trkpt>
      <trkpt lat="46.29029" lon="10.60571">
        <ele>2287.756</ele>
        <time>2018-08-11T05:31:35Z</time>
      </trkpt>
      <trkpt lat="46.29018" lon="10.60582">
        <ele>2285.051</ele>
        <time>2018-08-11T05:31:55Z</time>
      </trkpt>
      <trkpt lat="46.29011" lon="10.60594">
        <ele>2282.027</ele>
        <time>2018-08-11T05:32:15Z</time>
      </trkpt>
      <trkpt lat="46.29007" lon="10.60602">
        <ele>2279.891</ele>
        <time>2018-08-11T05:32:35Z</time>
      </trkpt>
      <trkpt lat="46.29006" lon="10.6061">
        <ele>2276.746</ele>
        <time>2018-08-11T05:32:55Z</time>
      </trkpt>
      <trkpt lat="46.29023" lon="10.60612">
        <ele>2271.887</ele>
        <time>2018-08-11T05:33:15Z</time>
      </trkpt>
      <trkpt lat="46.29034" lon="10.60615">
        <ele>2269.684</ele>
        <time>2018-08-11T05:33:35Z</time>
      </trkpt>
      <trkpt lat="46.29041" lon="10.60622">
        <ele>2266.717</ele>
        <time>2018-08-11T05:33:55Z</time>
      </trkpt>
      <trkpt lat="46.29052" lon="10.60627">
        <ele>2264.412</ele>
        <time>2018-08-11T05:34:15Z</time>
      </trkpt>
      <trkpt lat="46.2906" lon="10.60638">
        <ele>2259.232</ele>
        <time>2018-08-11T05:34:35Z</time>
      </trkpt>
      <trkpt lat="46.2907" lon="10.60646">
        <ele>2256.405</ele>
        <time>2018-08-11T05:34:55Z</time>
      </trkpt>
      <trkpt lat="46.29079" lon="10.60661">
        <ele>2251.108</ele>
        <time>2018-08-11T05:35:15Z</time>
      </trkpt>
      <trkpt lat="46.29082" lon="10.60668">
        <ele>2248.723</ele>
        <time>2018-08-11T05:35:35Z</time>
      </trkpt>
      <trkpt lat="46.29083" lon="10.60691">
        <ele>2243.898</ele>
        <time>2018-08-11T05:35:55Z</time>
      </trkpt>
      <trkpt lat="46.2909" lon="10.60709">
        <ele>2239.164</ele>
        <time>2018-08-11T05:36:15Z</time>
      </trkpt>
      <trkpt lat="46.29097" lon="10.60718">
        <ele>2235.928</ele>
        <time>2018-08-11T05:36:35Z</time>
      </trkpt>
      <trkpt lat="46.29103" lon="10.60725">
        <ele>2233.663</ele>
        <time>2018-08-11T05:36:55Z</time>
      </trkpt>
      <trkpt lat="46.29112" lon="10.60723">
        <ele>2231.584</ele>
        <time>2018-08-11T05:37:15Z</time>
      </trkpt>
      <trkpt lat="46.29115" lon="10.60709">
        <ele>2233.381</ele>
        <time>2018-08-11T05:37:35Z</time>
      </trkpt>
      <trkpt lat="46.29125" lon="10.60697">
        <ele>2232.394</ele>
        <time>2018-08-11T05:37:55Z</time>
      </trkpt>
      <trkpt lat="46.29141" lon="10.6069">
        <ele>2228.333</ele>
        <time>2018-08-11T05:38:15Z</time>
      </trkpt>
      <trkpt lat="46.29151" lon="10.60684">
        <ele>2223.523</ele>
        <time>2018-08-11T05:38:35Z</time>
      </trkpt>
      <trkpt lat="46.29162" lon="10.60677">
        <ele>2217.815</ele>
        <time>2018-08-11T05:38:55Z</time>
      </trkpt>
      <trkpt lat="46.29169" lon="10.60666">
        <ele>2216.208</ele>
        <time>2018-08-11T05:39:15Z</time>
      </trkpt>
      <trkpt lat="46.29169" lon="10.60645">
        <ele>2221.125</ele>
        <time>2018-08-11T05:39:35Z</time>
      </trkpt>
      <trkpt lat="46.29186" lon="10.60621">
        <ele>2218.91</ele>
        <time>2018-08-11T05:39:55Z</time>
      </trkpt>
      <trkpt lat="46.29195" lon="10.60616">
        <ele>2216.116</ele>
        <time>2018-08-11T05:40:15Z</time>
      </trkpt>
      <trkpt lat="46.29203" lon="10.60615">
        <ele>2215.31</ele>
        <time>2018-08-11T05:40:35Z</time>
      </trkpt>
      <trkpt lat="46.29212" lon="10.60626">
        <ele>2210.015</ele>
        <time>2018-08-11T05:40:55Z</time>
      </trkpt>
      <trkpt lat="46.29214" lon="10.60639">
        <ele>2205.166</ele>
        <time>2018-08-11T05:41:15Z</time>
      </trkpt>
      <trkpt lat="46.29214" lon="10.60671">
        <ele>2198.963</ele>
        <time>2018-08-11T05:41:35Z</time>
      </trkpt>
      <trkpt lat="46.29219" lon="10.60701">
        <ele>2194.136</ele>
        <time>2018-08-11T05:41:55Z</time>
      </trkpt>
      <trkpt lat="46.29225" lon="10.60707">
        <ele>2193.356</ele>
        <time>2018-08-11T05:42:15Z</time>
      </trkpt>
      <trkpt lat="46.29231" lon="10.60717">
        <ele>2192.259</ele>
        <time>2018-08-11T05:42:35Z</time>
      </trkpt>
      <trkpt lat="46.29233" lon="10.60729">
        <ele>2190.214</ele>
        <time>2018-08-11T05:42:55Z</time>
      </trkpt>
      <trkpt lat="46.29236" lon="10.60746">
        <ele>2187.308</ele>
        <time>2018-08-11T05:43:15Z</time>
      </trkpt>
      <trkpt lat="46.29239" lon="10.60754">
        <ele>2185.517</ele>
        <time>2018-08-11T05:43:35Z</time>
      </trkpt>
      <trkpt lat="46.29238" lon="10.60769">
        <ele>2182.722</ele>
        <time>2018-08-11T05:43:55Z</time>
      </trkpt>
      <trkpt lat="46.29239" lon="10.60784">
        <ele>2179.698</ele>
        <time>2018-08-11T05:44:15Z</time>
      </trkpt>
      <trkpt lat="46.29242" lon="10.60796">
        <ele>2177.272</ele>
        <time>2018-08-11T05:44:35Z</time>
      </trkpt>
      <trkpt lat="46.2924" lon="10.60812">
        <ele>2174.057</ele>
        <time>2018-08-11T05:44:55Z</time>
      </trkpt>
      <trkpt lat="46.29247" lon="10.60819">
        <ele>2171.738</ele>
        <time>2018-08-11T05:45:15Z</time>
      </trkpt>
      <trkpt lat="46.2926" lon="10.60818">
        <ele>2171.245</ele>
        <time>2018-08-11T05:45:35Z</time>
      </trkpt>
      <trkpt lat="46.29264" lon="10.60826">
        <ele>2169.038</ele>
        <time>2018-08-11T05:45:55Z</time>
      </trkpt>
      <trkpt lat="46.29256" lon="10.60836">
        <ele>2166.655</ele>
        <time>2018-08-11T05:46:15Z</time>
      </trkpt>
      <trkpt lat="46.29252" lon="10.60846">
        <ele>2164.207</ele>
        <time>2018-08-11T05:46:35Z</time>
      </trkpt>
      <trkpt lat="46.29258" lon="10.60854">
        <ele>2160.817</ele>
        <time>2018-08-11T05:46:55Z</time>
      </trkpt>
      <trkpt lat="46.29265" lon="10.60865">
        <ele>2156.408</ele>
        <time>2018-08-11T05:47:15Z</time>
      </trkpt>
      <trkpt lat="46.29258" lon="10.6088">
        <ele>2152.327</ele>
        <time>2018-08-11T05:47:35Z</time>
      </trkpt>
      <trkpt lat="46.29249" lon="10.60889">
        <ele>2149.952</ele>
        <time>2018-08-11T05:47:55Z</time>
      </trkpt>
      <trkpt lat="46.29246" lon="10.60905">
        <ele>2145.038</ele>
        <time>2018-08-11T05:48:15Z</time>
      </trkpt>
      <trkpt lat="46.29255" lon="10.60922">
        <ele>2140.062</ele>
        <time>2018-08-11T05:48:35Z</time>
      </trkpt>
      <trkpt lat="46.29276" lon="10.60945">
        <ele>2131.817</ele>
        <time>2018-08-11T05:48:55Z</time>
      </trkpt>
      <trkpt lat="46.29285" lon="10.60962">
        <ele>2126.988</ele>
        <time>2018-08-11T05:49:15Z</time>
      </trkpt>
      <trkpt lat="46.29297" lon="10.60971">
        <ele>2125.435</ele>
        <time>2018-08-11T05:49:35Z</time>
      </trkpt>
      <trkpt lat="46.29312" lon="10.60971">
        <ele>2126.488</ele>
        <time>2018-08-11T05:49:55Z</time>
      </trkpt>
      <trkpt lat="46.29323" lon="10.60969">
        <ele>2127.333</ele>
        <time>2018-08-11T05:50:15Z</time>
      </trkpt>
      <trkpt lat="46.29334" lon="10.60974">
        <ele>2126.123</ele>
        <time>2018-08-11T05:50:35Z</time>
      </trkpt>
      <trkpt lat="46.29342" lon="10.60975">
        <ele>2124.115</ele>
        <time>2018-08-11T05:50:55Z</time>
      </trkpt>
      <trkpt lat="46.29346" lon="10.60986">
        <ele>2119.208</ele>
        <time>2018-08-11T05:51:15Z</time>
      </trkpt>
      <trkpt lat="46.29334" lon="10.60992">
        <ele>2120.395</ele>
        <time>2018-08-11T05:51:35Z</time>
      </trkpt>
      <trkpt lat="46.29324" lon="10.61015">
        <ele>2112.19</ele>
        <time>2018-08-11T05:51:55Z</time>
      </trkpt>
      <trkpt lat="46.29314" lon="10.61025">
        <ele>2107.936</ele>
        <time>2018-08-11T05:52:15Z</time>
      </trkpt>
      <trkpt lat="46.29301" lon="10.6103">
        <ele>2105.52</ele>
        <time>2018-08-11T05:52:35Z</time>
      </trkpt>
      <trkpt lat="46.29287" lon="10.61037">
        <ele>2101.295</ele>
        <time>2018-08-11T05:52:55Z</time>
      </trkpt>
      <trkpt lat="46.29274" lon="10.61048">
        <ele>2095.556</ele>
        <time>2018-08-11T05:53:15Z</time>
      </trkpt>
      <trkpt lat="46.29263" lon="10.61061">
        <ele>2090.113</ele>
        <time>2018-08-11T05:53:35Z</time>
      </trkpt>
      <trkpt lat="46.29244" lon="10.61074">
        <ele>2081.746</ele>
        <time>2018-08-11T05:53:55Z</time>
      </trkpt>
      <trkpt lat="46.29236" lon="10.61077">
        <ele>2077.451</ele>
        <time>2018-08-11T05:54:15Z</time>
      </trkpt>
      <trkpt lat="46.29221" lon="10.61076">
        <ele>2072.701</ele>
        <time>2018-08-11T05:54:35Z</time>
      </trkpt>
      <trkpt lat="46.29211" lon="10.61074">
        <ele>2073.211</ele>
        <time>2018-08-11T05:54:55Z</time>
      </trkpt>
      <trkpt lat="46.292" lon="10.61075">
        <ele>2072.408</ele>
        <time>2018-08-11T05:55:15Z</time>
      </trkpt>
      <trkpt lat="46.29193" lon="10.61087">
        <ele>2067.687</ele>
        <time>2018-08-11T05:55:35Z</time>
      </trkpt>
      <trkpt lat="46.29191" lon="10.61107">
        <ele>2059.592</ele>
        <time>2018-08-11T05:55:55Z</time>
      </trkpt>
      <trkpt lat="46.29193" lon="10.61121">
        <ele>2054.178</ele>
        <time>2018-08-11T05:56:15Z</time>
      </trkpt>
      <trkpt lat="46.29195" lon="10.61126">
        <ele>2052.352</ele>
        <time>2018-08-11T05:56:35Z</time>
      </trkpt>
      <trkpt lat="46.29186" lon="10.61132">
        <ele>2050.747</ele>
        <time>2018-08-11T05:56:55Z</time>
      </trkpt>
      <trkpt lat="46.29179" lon="10.61144">
        <ele>2047.258</ele>
        <time>2018-08-11T05:57:15Z</time>
      </trkpt>
      <trkpt lat="46.29173" lon="10.61157">
        <ele>2043.965</ele>
        <time>2018-08-11T05:57:35Z</time>
      </trkpt>
      <trkpt lat="46.29172" lon="10.61166">
        <ele>2041.738</ele>
        <time>2018-08-11T05:57:55Z</time>
      </trkpt>
      <trkpt lat="46.29164" lon="10.61174">
        <ele>2040.056</ele>
        <time>2018-08-11T05:58:15Z</time>
      </trkpt>
      <trkpt lat="46.29155" lon="10.61181">
        <ele>2038.259</ele>
        <time>2018-08-11T05:58:35Z</time>
      </trkpt>
      <trkpt lat="46.29145" lon="10.61188">
        <ele>2036.114</ele>
        <time>2018-08-11T05:58:55Z</time>
      </trkpt>
      <trkpt lat="46.29133" lon="10.61197">
        <ele>2033.608</ele>
        <time>2018-08-11T05:59:15Z</time>
      </trkpt>
      <trkpt lat="46.29124" lon="10.6121">
        <ele>2030.617</ele>
        <time>2018-08-11T05:59:35Z</time>
      </trkpt>
      <trkpt lat="46.29115" lon="10.61227">
        <ele>2026.332</ele>
        <time>2018-08-11T05:59:55Z</time>
      </trkpt>
      <trkpt lat="46.29106" lon="10.61251">
        <ele>2021.538</ele>
        <time>2018-08-11T06:00:15Z</time>
      </trkpt>
      <trkpt lat="46.29101" lon="10.61268">
        <ele>2019.172</ele>
        <time>2018-08-11T06:00:35Z</time>
      </trkpt>
      <trkpt lat="46.29093" lon="10.61285">
        <ele>2017.357</ele>
        <time>2018-08-11T06:00:55Z</time>
      </trkpt>
      <trkpt lat="46.29087" lon="10.61306">
        <ele>2013.878</ele>
        <time>2018-08-11T06:01:15Z</time>
      </trkpt>
      <trkpt lat="46.29074" lon="10.61334">
        <ele>2009.275</ele>
        <time>2018-08-11T06:01:35Z</time>
      </trkpt>
      <trkpt lat="46.29069" lon="10.6135">
        <ele>2006.238</ele>
        <time>2018-08-11T06:01:55Z</time>
      </trkpt>
      <trkpt lat="46.29067" lon="10.61368">
        <ele>2001.868</ele>
        <time>2018-08-11T06:02:15Z</time>
      </trkpt>
      <trkpt lat="46.29066" lon="10.61381">
        <ele>1999.042</ele>
        <time>2018-08-11T06:02:35Z</time>
      </trkpt>
      <trkpt lat="46.29062" lon="10.61402">
        <ele>1995.426</ele>
        <time>2018-08-11T06:02:55Z</time>
      </trkpt>
      <trkpt lat="46.2905" lon="10.61431">
        <ele>1992.008</ele>
        <time>2018-08-11T06:03:15Z</time>
      </trkpt>
      <trkpt lat="46.2904" lon="10.61454">
        <ele>1988.998</ele>
        <time>2018-08-11T06:03:35Z</time>
      </trkpt>
      <trkpt lat="46.29031" lon="10.61474">
        <ele>1987.363</ele>
        <time>2018-08-11T06:03:55Z</time>
      </trkpt>
      <trkpt lat="46.29024" lon="10.61487">
        <ele>1986.359</ele>
        <time>2018-08-11T06:04:15Z</time>
      </trkpt>
      <trkpt lat="46.2902" lon="10.61502">
        <ele>1984.763</ele>
        <time>2018-08-11T06:04:35Z</time>
      </trkpt>
      <trkpt lat="46.29012" lon="10.61534">
        <ele>1980.478</ele>
        <time>2018-08-11T06:04:55Z</time>
      </trkpt>
      <trkpt lat="46.29003" lon="10.61563">
        <ele>1978.579</ele>
        <time>2018-08-11T06:05:15Z</time>
      </trkpt>
      <trkpt lat="46.28996" lon="10.61596">
        <ele>1976.166</ele>
        <time>2018-08-11T06:05:35Z</time>
      </trkpt>
      <trkpt lat="46.2899" lon="10.61622">
        <ele>1973.259</ele>
        <time>2018-08-11T06:05:55Z</time>
      </trkpt>
      <trkpt lat="46.28981" lon="10.61641">
        <ele>1970.696</ele>
        <time>2018-08-11T06:06:15Z</time>
      </trkpt>
      <trkpt lat="46.28964" lon="10.6168">
        <ele>1965.331</ele>
        <time>2018-08-11T06:06:35Z</time>
      </trkpt>
      <trkpt lat="46.28959" lon="10.61693">
        <ele>1963.224</ele>
        <time>2018-08-11T06:06:55Z</time>
      </trkpt>
      <trkpt lat="46.28956" lon="10.61704">
        <ele>1960.408</ele>
        <time>2018-08-11T06:07:15Z</time>
      </trkpt>
      <trkpt lat="46.2895" lon="10.61718">
        <ele>1956.891</ele>
        <time>2018-08-11T06:07:35Z</time>
      </trkpt>
      <trkpt lat="46.28944" lon="10.61733">
        <ele>1953.326</ele>
        <time>2018-08-11T06:07:55Z</time>
      </trkpt>
      <trkpt lat="46.28933" lon="10.61752">
        <ele>1948.882</ele>
        <time>2018-08-11T06:08:15Z</time>
      </trkpt>
      <trkpt lat="46.28903" lon="10.61745">
        <ele>1952.336</ele>
        <time>2018-08-11T06:08:35Z</time>
      </trkpt>
      <trkpt lat="46.28889" lon="10.61741">
        <ele>1954.251</ele>
        <time>2018-08-11T06:08:55Z</time>
      </trkpt>
      <trkpt lat="46.28861" lon="10.61756">
        <ele>1952.252</ele>
        <time>2018-08-11T06:09:15Z</time>
      </trkpt>
      <trkpt lat="46.28844" lon="10.61764">
        <ele>1949.159</ele>
        <time>2018-08-11T06:09:35Z</time>
      </trkpt>
      <trkpt lat="46.28824" lon="10.61785">
        <ele>1945.192</ele>
        <time>2018-08-11T06:09:55Z</time>
      </trkpt>
      <trkpt lat="46.28805" lon="10.61797">
        <ele>1944.675</ele>
        <time>2018-08-11T06:10:15Z</time>
      </trkpt>
      <trkpt lat="46.28748" lon="10.61819">
        <ele>1952.328</ele>
        <time>2018-08-11T06:10:35Z</time>
      </trkpt>
      <trkpt lat="46.28692" lon="10.61854">
        <ele>1965.52</ele>
        <time>2018-08-11T06:10:55Z</time>
      </trkpt>
      <trkpt lat="46.28667" lon="10.61863">
        <ele>1971.508</ele>
        <time>2018-08-11T06:11:15Z</time>
      </trkpt>
      <trkpt lat="46.28648" lon="10.61853">
        <ele>1982.039</ele>
        <time>2018-08-11T06:11:35Z</time>
      </trkpt>
      <trkpt lat="46.28655" lon="10.6182">
        <ele>1989.814</ele>
        <time>2018-08-11T06:11:55Z</time>
      </trkpt>
      <trkpt lat="46.28661" lon="10.6178">
        <ele>1996.92</ele>
        <time>2018-08-11T06:12:15Z</time>
      </trkpt>
      <trkpt lat="46.28679" lon="10.61729">
        <ele>2002.684</ele>
        <time>2018-08-11T06:12:35Z</time>
      </trkpt>
      <trkpt lat="46.28658" lon="10.61728">
        <ele>2012.579</ele>
        <time>2018-08-11T06:12:55Z</time>
      </trkpt>
      <trkpt lat="46.28647" lon="10.61737">
        <ele>2015.06</ele>
        <time>2018-08-11T06:13:15Z</time>
      </trkpt>
      <trkpt lat="46.2863" lon="10.61737">
        <ele>2023.427</ele>
        <time>2018-08-11T06:13:35Z</time>
      </trkpt>
      <trkpt lat="46.28615" lon="10.61745">
        <ele>2027.57</ele>
        <time>2018-08-11T06:13:55Z</time>
      </trkpt>
      <trkpt lat="46.28588" lon="10.61757">
        <ele>2039.445</ele>
        <time>2018-08-11T06:14:15Z</time>
      </trkpt>
      <trkpt lat="46.28566" lon="10.61774">
        <ele>2046.847</ele>
        <time>2018-08-11T06:14:35Z</time>
      </trkpt>
      <trkpt lat="46.28547" lon="10.61795">
        <ele>2051.511</ele>
        <time>2018-08-11T06:14:55Z</time>
      </trkpt>
      <trkpt lat="46.28523" lon="10.6181">
        <ele>2060.908</ele>
        <time>2018-08-11T06:15:15Z</time>
      </trkpt>
      <trkpt lat="46.28504" lon="10.61837">
        <ele>2064.876</ele>
        <time>2018-08-11T06:15:35Z</time>
      </trkpt>
      <trkpt lat="46.28493" lon="10.6187">
        <ele>2061.751</ele>
        <time>2018-08-11T06:15:55Z</time>
      </trkpt>
      <trkpt lat="46.28482" lon="10.61894">
        <ele>2070.827</ele>
        <time>2018-08-11T06:16:15Z</time>
      </trkpt>
      <trkpt lat="46.28462" lon="10.6193">
        <ele>2089.421</ele>
        <time>2018-08-11T06:16:35Z</time>
      </trkpt>
      <trkpt lat="46.28443" lon="10.61969">
        <ele>2102.566</ele>
        <time>2018-08-11T06:16:55Z</time>
      </trkpt>
      <trkpt lat="46.28419" lon="10.62014">
        <ele>2098.127</ele>
        <time>2018-08-11T06:17:15Z</time>
      </trkpt>
      <trkpt lat="46.28389" lon="10.62038">
        <ele>2097.484</ele>
        <time>2018-08-11T06:17:35Z</time>
      </trkpt>
      <trkpt lat="46.28357" lon="10.62064">
        <ele>2097.257</ele>
        <time>2018-08-11T06:17:55Z</time>
      </trkpt>
      <trkpt lat="46.28325" lon="10.62088">
        <ele>2100.972</ele>
        <time>2018-08-11T06:18:15Z</time>
      </trkpt>
      <trkpt lat="46.28293" lon="10.62108">
        <ele>2104.113</ele>
        <time>2018-08-11T06:18:35Z</time>
      </trkpt>
      <trkpt lat="46.28267" lon="10.62129">
        <ele>2107.514</ele>
        <time>2018-08-11T06:18:55Z</time>
      </trkpt>
      <trkpt lat="46.28245" lon="10.62165">
        <ele>2100.108</ele>
        <time>2018-08-11T06:19:15Z</time>
      </trkpt>
      <trkpt lat="46.28226" lon="10.62201">
        <ele>2091.329</ele>
        <time>2018-08-11T06:19:35Z</time>
      </trkpt>
      <trkpt lat="46.28189" lon="10.62246">
        <ele>2087.214</ele>
        <time>2018-08-11T06:19:55Z</time>
      </trkpt>
      <trkpt lat="46.28157" lon="10.62275">
        <ele>2082.15</ele>
        <time>2018-08-11T06:20:15Z</time>
      </trkpt>
      <trkpt lat="46.28129" lon="10.62302">
        <ele>2080.694</ele>
        <time>2018-08-11T06:20:35Z</time>
      </trkpt>
      <trkpt lat="46.28101" lon="10.62323">
        <ele>2083.829</ele>
        <time>2018-08-11T06:20:55Z</time>
      </trkpt>
      <trkpt lat="46.28069" lon="10.62349">
        <ele>2091.16</ele>
        <time>2018-08-11T06:21:15Z</time>
      </trkpt>
      <trkpt lat="46.28041" lon="10.62386">
        <ele>2088.257</ele>
        <time>2018-08-11T06:21:35Z</time>
      </trkpt>
      <trkpt lat="46.2803" lon="10.62404">
        <ele>2083.51</ele>
        <time>2018-08-11T06:21:55Z</time>
      </trkpt>
      <trkpt lat="46.2798" lon="10.62407">
        <ele>2066.942</ele>
        <time>2018-08-11T06:22:15Z</time>
      </trkpt>
      <trkpt lat="46.27976" lon="10.62406">
        <ele>2065.322</ele>
        <time>2018-08-11T06:22:35Z</time>
      </trkpt>
      <trkpt lat="46.27961" lon="10.62387">
        <ele>2059.814</ele>
        <time>2018-08-11T06:22:55Z</time>
      </trkpt>
      <trkpt lat="46.27935" lon="10.62362">
        <ele>2047.008</ele>
        <time>2018-08-11T06:23:15Z</time>
      </trkpt>
      <trkpt lat="46.27916" lon="10.62342">
        <ele>2039.456</ele>
        <time>2018-08-11T06:23:35Z</time>
      </trkpt>
      <trkpt lat="46.27893" lon="10.62323">
        <ele>2030.211</ele>
        <time>2018-08-11T06:23:55Z</time>
      </trkpt>
      <trkpt lat="46.27883" lon="10.62298">
        <ele>2029.517</ele>
        <time>2018-08-11T06:24:15Z</time>
      </trkpt>
      <trkpt lat="46.27876" lon="10.62284">
        <ele>2029.471</ele>
        <time>2018-08-11T06:24:35Z</time>
      </trkpt>
      <trkpt lat="46.27869" lon="10.62272">
        <ele>2028.376</ele>
        <time>2018-08-11T06:24:55Z</time>
      </trkpt>
      <trkpt lat="46.27861" lon="10.6226">
        <ele>2026.967</ele>
        <time>2018-08-11T06:25:15Z</time>
      </trkpt>
      <trkpt lat="46.27845" lon="10.62241">
        <ele>2024.724</ele>
        <time>2018-08-11T06:25:35Z</time>
      </trkpt>
      <trkpt lat="46.27834" lon="10.62213">
        <ele>2024.877</ele>
        <time>2018-08-11T06:25:55Z</time>
      </trkpt>
      <trkpt lat="46.27826" lon="10.62197">
        <ele>2023.261</ele>
        <time>2018-08-11T06:26:15Z</time>
      </trkpt>
      <trkpt lat="46.27814" lon="10.62162">
        <ele>2020.121</ele>
        <time>2018-08-11T06:26:35Z</time>
      </trkpt>
      <trkpt lat="46.27803" lon="10.6214">
        <ele>2016.813</ele>
        <time>2018-08-11T06:26:55Z</time>
      </trkpt>
      <trkpt lat="46.27794" lon="10.62108">
        <ele>2017.708</ele>
        <time>2018-08-11T06:27:15Z</time>
      </trkpt>
      <trkpt lat="46.27789" lon="10.62075">
        <ele>2021.618</ele>
        <time>2018-08-11T06:27:35Z</time>
      </trkpt>
      <trkpt lat="46.27783" lon="10.62051">
        <ele>2022.073</ele>
        <time>2018-08-11T06:27:55Z</time>
      </trkpt>
      <trkpt lat="46.27772" lon="10.62037">
        <ele>2017.329</ele>
        <time>2018-08-11T06:28:15Z</time>
      </trkpt>
      <trkpt lat="46.27765" lon="10.61993">
        <ele>2016.253</ele>
        <time>2018-08-11T06:28:35Z</time>
      </trkpt>
      <trkpt lat="46.27755" lon="10.6196">
        <ele>2015.918</ele>
        <time>2018-08-11T06:28:55Z</time>
      </trkpt>
      <trkpt lat="46.27714" lon="10.61862">
        <ele>2013.759</ele>
        <time>2018-08-11T06:29:15Z</time>
      </trkpt>
      <trkpt lat="46.2771" lon="10.61843">
        <ele>2012.266</ele>
        <time>2018-08-11T06:29:35Z</time>
      </trkpt>
      <trkpt lat="46.27673" lon="10.61713">
        <ele>2007.569</ele>
        <time>2018-08-11T06:29:55Z</time>
      </trkpt>
      <trkpt lat="46.27667" lon="10.61692">
        <ele>2008.115</ele>
        <time>2018-08-11T06:30:15Z</time>
      </trkpt>
      <trkpt lat="46.27656" lon="10.6166">
        <ele>2004.465</ele>
        <time>2018-08-11T06:30:35Z</time>
      </trkpt>
      <trkpt lat="46.27637" lon="10.61601">
        <ele>2001.911</ele>
        <time>2018-08-11T06:30:55Z</time>
      </trkpt>
      <trkpt lat="46.27628" lon="10.61575">
        <ele>2003.108</ele>
        <time>2018-08-11T06:31:15Z</time>
      </trkpt>
      <trkpt lat="46.27601" lon="10.61492">
        <ele>2002.543</ele>
        <time>2018-08-11T06:31:35Z</time>
      </trkpt>
      <trkpt lat="46.27581" lon="10.61437">
        <ele>2004.078</ele>
        <time>2018-08-11T06:31:55Z</time>
      </trkpt>
      <trkpt lat="46.2754" lon="10.61357">
        <ele>2000.754</ele>
        <time>2018-08-11T06:32:15Z</time>
      </trkpt>
      <trkpt lat="46.27519" lon="10.61305">
        <ele>2002.058</ele>
        <time>2018-08-11T06:32:35Z</time>
      </trkpt>
      <trkpt lat="46.27475" lon="10.61196">
        <ele>1999.813</ele>
        <time>2018-08-11T06:32:55Z</time>
      </trkpt>
      <trkpt lat="46.27468" lon="10.61176">
        <ele>2000.894</ele>
        <time>2018-08-11T06:33:15Z</time>
      </trkpt>
      <trkpt lat="46.27457" lon="10.61145">
        <ele>2002.151</ele>
        <time>2018-08-11T06:33:35Z</time>
      </trkpt>
      <trkpt lat="46.27457" lon="10.61144">
        <ele>2002.124</ele>
        <time>2018-08-11T06:33:55Z</time>
      </trkpt>
      <trkpt lat="46.27457" lon="10.61144">
        <ele>2002.163</ele>
        <time>2018-08-11T06:34:15Z</time>
      </trkpt>
      <trkpt lat="46.27419" lon="10.6106">
        <ele>1997.444</ele>
        <time>2018-08-11T06:34:35Z</time>
      </trkpt>
      <trkpt lat="46.27404" lon="10.61031">
        <ele>1995.618</ele>
        <time>2018-08-11T06:34:55Z</time>
      </trkpt>
      <trkpt lat="46.2739" lon="10.60973">
        <ele>1998.308</ele>
        <time>2018-08-11T06:35:15Z</time>
      </trkpt>
      <trkpt lat="46.27393" lon="10.60926">
        <ele>2002.738</ele>
        <time>2018-08-11T06:35:35Z</time>
      </trkpt>
      <trkpt lat="46.27393" lon="10.60879">
        <ele>2005.553</ele>
        <time>2018-08-11T06:35:55Z</time>
      </trkpt>
      <trkpt lat="46.2737" lon="10.60839">
        <ele>2004.129</ele>
        <time>2018-08-11T06:36:15Z</time>
      </trkpt>
      <trkpt lat="46.27345" lon="10.60866">
        <ele>1995.033</ele>
        <time>2018-08-11T06:36:35Z</time>
      </trkpt>
      <trkpt lat="46.27333" lon="10.60876">
        <ele>1990.878</ele>
        <time>2018-08-11T06:36:55Z</time>
      </trkpt>
      <trkpt lat="46.27315" lon="10.60895">
        <ele>1983.869</ele>
        <time>2018-08-11T06:37:15Z</time>
      </trkpt>
      <trkpt lat="46.27287" lon="10.60909">
        <ele>1975.246</ele>
        <time>2018-08-11T06:37:35Z</time>
      </trkpt>
      <trkpt lat="46.2727" lon="10.60926">
        <ele>1969.689</ele>
        <time>2018-08-11T06:37:55Z</time>
      </trkpt>
      <trkpt lat="46.27248" lon="10.6095">
        <ele>1962.656</ele>
        <time>2018-08-11T06:38:15Z</time>
      </trkpt>
      <trkpt lat="46.27234" lon="10.60964">
        <ele>1956.459</ele>
        <time>2018-08-11T06:38:35Z</time>
      </trkpt>
      <trkpt lat="46.27215" lon="10.60983">
        <ele>1949.014</ele>
        <time>2018-08-11T06:38:55Z</time>
      </trkpt>
      <trkpt lat="46.27199" lon="10.60996">
        <ele>1943.508</ele>
        <time>2018-08-11T06:39:15Z</time>
      </trkpt>
      <trkpt lat="46.27187" lon="10.61002">
        <ele>1940.637</ele>
        <time>2018-08-11T06:39:35Z</time>
      </trkpt>
      <trkpt lat="46.27176" lon="10.6101">
        <ele>1938.162</ele>
        <time>2018-08-11T06:39:55Z</time>
      </trkpt>
      <trkpt lat="46.27155" lon="10.61036">
        <ele>1932.158</ele>
        <time>2018-08-11T06:40:15Z</time>
      </trkpt>
      <trkpt lat="46.27146" lon="10.61009">
        <ele>1932.292</ele>
        <time>2018-08-11T06:40:35Z</time>
      </trkpt>
      <trkpt lat="46.27143" lon="10.60998">
        <ele>1932.137</ele>
        <time>2018-08-11T06:40:55Z</time>
      </trkpt>
      <trkpt lat="46.27143" lon="10.60984">
        <ele>1933.238</ele>
        <time>2018-08-11T06:41:15Z</time>
      </trkpt>
      <trkpt lat="46.27136" lon="10.60967">
        <ele>1933.635</ele>
        <time>2018-08-11T06:41:35Z</time>
      </trkpt>
      <trkpt lat="46.27129" lon="10.60954">
        <ele>1934.638</ele>
        <time>2018-08-11T06:41:55Z</time>
      </trkpt>
      <trkpt lat="46.27125" lon="10.6093">
        <ele>1937.052</ele>
        <time>2018-08-11T06:42:15Z</time>
      </trkpt>
      <trkpt lat="46.27117" lon="10.60933">
        <ele>1935.253</ele>
        <time>2018-08-11T06:42:35Z</time>
      </trkpt>
      <trkpt lat="46.27117" lon="10.60933">
        <ele>1935.208</ele>
        <time>2018-08-11T06:42:55Z</time>
      </trkpt>
      <trkpt lat="46.27109" lon="10.60939">
        <ele>1933.208</ele>
        <time>2018-08-11T06:43:15Z</time>
      </trkpt>
      <trkpt lat="46.2707" lon="10.6097">
        <ele>1925.797</ele>
        <time>2018-08-11T06:43:35Z</time>
      </trkpt>
      <trkpt lat="46.27058" lon="10.60977">
        <ele>1924.052</ele>
        <time>2018-08-11T06:43:55Z</time>
      </trkpt>
      <trkpt lat="46.27036" lon="10.60986">
        <ele>1921.058</ele>
        <time>2018-08-11T06:44:15Z</time>
      </trkpt>
      <trkpt lat="46.27014" lon="10.60999">
        <ele>1917.042</ele>
        <time>2018-08-11T06:44:35Z</time>
      </trkpt>
      <trkpt lat="46.27006" lon="10.61018">
        <ele>1914.687</ele>
        <time>2018-08-11T06:44:55Z</time>
      </trkpt>
      <trkpt lat="46.26989" lon="10.61046">
        <ele>1910.478</ele>
        <time>2018-08-11T06:45:15Z</time>
      </trkpt>
      <trkpt lat="46.26976" lon="10.61065">
        <ele>1907.355</ele>
        <time>2018-08-11T06:45:35Z</time>
      </trkpt>
      <trkpt lat="46.2694" lon="10.61098">
        <ele>1900.568</ele>
        <time>2018-08-11T06:45:55Z</time>
      </trkpt>
      <trkpt lat="46.26923" lon="10.61114">
        <ele>1897.997</ele>
        <time>2018-08-11T06:46:15Z</time>
      </trkpt>
      <trkpt lat="46.26909" lon="10.61126">
        <ele>1895.623</ele>
        <time>2018-08-11T06:46:35Z</time>
      </trkpt>
      <trkpt lat="46.26897" lon="10.6113">
        <ele>1894.325</ele>
        <time>2018-08-11T06:46:55Z</time>
      </trkpt>
      <trkpt lat="46.26884" lon="10.61142">
        <ele>1891.808</ele>
        <time>2018-08-11T06:47:15Z</time>
      </trkpt>
      <trkpt lat="46.26863" lon="10.61151">
        <ele>1888.851</ele>
        <time>2018-08-11T06:47:35Z</time>
      </trkpt>
      <trkpt lat="46.26845" lon="10.61142">
        <ele>1887.316</ele>
        <time>2018-08-11T06:47:55Z</time>
      </trkpt>
      <trkpt lat="46.2683" lon="10.61131">
        <ele>1886.212</ele>
        <time>2018-08-11T06:48:15Z</time>
      </trkpt>
      <trkpt lat="46.26815" lon="10.61125">
        <ele>1884.266</ele>
        <time>2018-08-11T06:48:35Z</time>
      </trkpt>
      <trkpt lat="46.26803" lon="10.61114">
        <ele>1883.051</ele>
        <time>2018-08-11T06:48:55Z</time>
      </trkpt>
      <trkpt lat="46.26794" lon="10.61102">
        <ele>1881.712</ele>
        <time>2018-08-11T06:49:15Z</time>
      </trkpt>
      <trkpt lat="46.26775" lon="10.61087">
        <ele>1877.999</ele>
        <time>2018-08-11T06:49:35Z</time>
      </trkpt>
      <trkpt lat="46.26762" lon="10.61071">
        <ele>1875.562</ele>
        <time>2018-08-11T06:49:55Z</time>
      </trkpt>
      <trkpt lat="46.26748" lon="10.61069">
        <ele>1872.055</ele>
        <time>2018-08-11T06:50:15Z</time>
      </trkpt>
      <trkpt lat="46.2674" lon="10.61061">
        <ele>1870.207</ele>
        <time>2018-08-11T06:50:35Z</time>
      </trkpt>
      <trkpt lat="46.26717" lon="10.61045">
        <ele>1865.317</ele>
        <time>2018-08-11T06:50:55Z</time>
      </trkpt>
      <trkpt lat="46.26702" lon="10.61028">
        <ele>1862.608</ele>
        <time>2018-08-11T06:51:15Z</time>
      </trkpt>
      <trkpt lat="46.26687" lon="10.61014">
        <ele>1860.027</ele>
        <time>2018-08-11T06:51:35Z</time>
      </trkpt>
      <trkpt lat="46.26672" lon="10.61">
        <ele>1857.132</ele>
        <time>2018-08-11T06:51:55Z</time>
      </trkpt>
      <trkpt lat="46.26664" lon="10.60987">
        <ele>1855.798</ele>
        <time>2018-08-11T06:52:15Z</time>
      </trkpt>
      <trkpt lat="46.26655" lon="10.60967">
        <ele>1854.012</ele>
        <time>2018-08-11T06:52:35Z</time>
      </trkpt>
      <trkpt lat="46.26651" lon="10.60951">
        <ele>1852.637</ele>
        <time>2018-08-11T06:52:55Z</time>
      </trkpt>
      <trkpt lat="46.26646" lon="10.60939">
        <ele>1851.798</ele>
        <time>2018-08-11T06:53:15Z</time>
      </trkpt>
      <trkpt lat="46.26646" lon="10.60918">
        <ele>1852.355</ele>
        <time>2018-08-11T06:53:35Z</time>
      </trkpt>
      <trkpt lat="46.26645" lon="10.60891">
        <ele>1853.938</ele>
        <time>2018-08-11T06:53:55Z</time>
      </trkpt>
      <trkpt lat="46.26648" lon="10.60852">
        <ele>1857.359</ele>
        <time>2018-08-11T06:54:15Z</time>
      </trkpt>
      <trkpt lat="46.26651" lon="10.60811">
        <ele>1859.903</ele>
        <time>2018-08-11T06:54:35Z</time>
      </trkpt>
      <trkpt lat="46.26645" lon="10.60733">
        <ele>1862.523</ele>
        <time>2018-08-11T06:54:55Z</time>
      </trkpt>
      <trkpt lat="46.26638" lon="10.60675">
        <ele>1864.208</ele>
        <time>2018-08-11T06:55:15Z</time>
      </trkpt>
      <trkpt lat="46.26527" lon="10.60125">
        <ele>1892.487</ele>
        <time>2018-08-11T06:55:35Z</time>
      </trkpt>
      <trkpt lat="46.26513" lon="10.60044">
        <ele>1893.642</ele>
        <time>2018-08-11T06:55:55Z</time>
      </trkpt>
      <trkpt lat="46.26466" lon="10.60006">
        <ele>1892.148</ele>
        <time>2018-08-11T06:56:15Z</time>
      </trkpt>
      <trkpt lat="46.26372" lon="10.6007">
        <ele>1878.022</ele>
        <time>2018-08-11T06:56:35Z</time>
      </trkpt>
      <trkpt lat="46.26349" lon="10.60061">
        <ele>1875.067</ele>
        <time>2018-08-11T06:56:55Z</time>
      </trkpt>
      <trkpt lat="46.26326" lon="10.60061">
        <ele>1871.938</ele>
        <time>2018-08-11T06:57:15Z</time>
      </trkpt>
      <trkpt lat="46.26324" lon="10.60066">
        <ele>1871.475</ele>
        <time>2018-08-11T06:57:35Z</time>
      </trkpt>
      <trkpt lat="46.2631" lon="10.60099">
        <ele>1868.768</ele>
        <time>2018-08-11T06:57:55Z</time>
      </trkpt>
      <trkpt lat="46.26308" lon="10.60104">
        <ele>1868.453</ele>
        <time>2018-08-11T06:58:15Z</time>
      </trkpt>
      <trkpt lat="46.26297" lon="10.60144">
        <ele>1867.304</ele>
        <time>2018-08-11T06:58:35Z</time>
      </trkpt>
      <trkpt lat="46.26296" lon="10.60149">
        <ele>1867.214</ele>
        <time>2018-08-11T06:58:55Z</time>
      </trkpt>
      <trkpt lat="46.26283" lon="10.60205">
        <ele>1864.108</ele>
        <time>2018-08-11T06:59:15Z</time>
      </trkpt>
      <trkpt lat="46.26281" lon="10.60214">
        <ele>1863.637</ele>
        <time>2018-08-11T06:59:35Z</time>
      </trkpt>
      <trkpt lat="46.26273" lon="10.60258">
        <ele>1861.342</ele>
        <time>2018-08-11T06:59:55Z</time>
      </trkpt>
      <trkpt lat="46.26271" lon="10.60282">
        <ele>1860.018</ele>
        <time>2018-08-11T07:00:15Z</time>
      </trkpt>
      <trkpt lat="46.26271" lon="10.60295">
        <ele>1860.012</ele>
        <time>2018-08-11T07:00:35Z</time>
      </trkpt>
      <trkpt lat="46.26269" lon="10.60312">
        <ele>1860.027</ele>
        <time>2018-08-11T07:00:55Z</time>
      </trkpt>
      <trkpt lat="46.26268" lon="10.60331">
        <ele>1860.088</ele>
        <time>2018-08-11T07:01:15Z</time>
      </trkpt>
      <trkpt lat="46.2627" lon="10.60351">
        <ele>1860.465</ele>
        <time>2018-08-11T07:01:35Z</time>
      </trkpt>
      <trkpt lat="46.26273" lon="10.60375">
        <ele>1860.318</ele>
        <time>2018-08-11T07:01:55Z</time>
      </trkpt>
      <trkpt lat="46.26277" lon="10.60402">
        <ele>1859.991</ele>
        <time>2018-08-11T07:02:15Z</time>
      </trkpt>
      <trkpt lat="46.26277" lon="10.60436">
        <ele>1859.081</ele>
        <time>2018-08-11T07:02:35Z</time>
      </trkpt>
      <trkpt lat="46.26278" lon="10.60465">
        <ele>1858.119</ele>
        <time>2018-08-11T07:02:55Z</time>
      </trkpt>
      <trkpt lat="46.26275" lon="10.60486">
        <ele>1856.408</ele>
        <time>2018-08-11T07:03:15Z</time>
      </trkpt>
      <trkpt lat="46.2627" lon="10.60516">
        <ele>1853.261</ele>
        <time>2018-08-11T07:03:35Z</time>
      </trkpt>
      <trkpt lat="46.26265" lon="10.60542">
        <ele>1851.316</ele>
        <time>2018-08-11T07:03:55Z</time>
      </trkpt>
      <trkpt lat="46.26249" lon="10.6061">
        <ele>1849.872</ele>
        <time>2018-08-11T07:04:15Z</time>
      </trkpt>
      <trkpt lat="46.26237" lon="10.60643">
        <ele>1848.476</ele>
        <time>2018-08-11T07:04:35Z</time>
      </trkpt>
      <trkpt lat="46.26231" lon="10.60654">
        <ele>1847.751</ele>
        <time>2018-08-11T07:04:55Z</time>
      </trkpt>
      <trkpt lat="46.26227" lon="10.60677">
        <ele>1846.632</ele>
        <time>2018-08-11T07:05:15Z</time>
      </trkpt>
      <trkpt lat="46.26223" lon="10.60705">
        <ele>1844.359</ele>
        <time>2018-08-11T07:05:35Z</time>
      </trkpt>
      <trkpt lat="46.26215" lon="10.60745">
        <ele>1840.212</ele>
        <time>2018-08-11T07:05:55Z</time>
      </trkpt>
      <trkpt lat="46.26205" lon="10.60778">
        <ele>1836.119</ele>
        <time>2018-08-11T07:06:15Z</time>
      </trkpt>
      <trkpt lat="46.26195" lon="10.60801">
        <ele>1833.209</ele>
        <time>2018-08-11T07:06:35Z</time>
      </trkpt>
      <trkpt lat="46.26189" lon="10.60814">
        <ele>1830.619</ele>
        <time>2018-08-11T07:06:55Z</time>
      </trkpt>
      <trkpt lat="46.26179" lon="10.60827">
        <ele>1827.508</ele>
        <time>2018-08-11T07:07:15Z</time>
      </trkpt>
      <trkpt lat="46.26169" lon="10.60827">
        <ele>1825.313</ele>
        <time>2018-08-11T07:07:35Z</time>
      </trkpt>
      <trkpt lat="46.26151" lon="10.60834">
        <ele>1821.528</ele>
        <time>2018-08-11T07:07:55Z</time>
      </trkpt>
      <trkpt lat="46.26143" lon="10.60839">
        <ele>1819.744</ele>
        <time>2018-08-11T07:08:15Z</time>
      </trkpt>
      <trkpt lat="46.2612" lon="10.60849">
        <ele>1812.818</ele>
        <time>2018-08-11T07:08:35Z</time>
      </trkpt>
      <trkpt lat="46.26115" lon="10.60856">
        <ele>1810.053</ele>
        <time>2018-08-11T07:08:55Z</time>
      </trkpt>
      <trkpt lat="46.26109" lon="10.60861">
        <ele>1807.574</ele>
        <time>2018-08-11T07:09:15Z</time>
      </trkpt>
      <trkpt lat="46.26098" lon="10.6085">
        <ele>1807.081</ele>
        <time>2018-08-11T07:09:35Z</time>
      </trkpt>
      <trkpt lat="46.26093" lon="10.60844">
        <ele>1806.934</ele>
        <time>2018-08-11T07:09:55Z</time>
      </trkpt>
      <trkpt lat="46.26087" lon="10.60835">
        <ele>1807.447</ele>
        <time>2018-08-11T07:10:15Z</time>
      </trkpt>
      <trkpt lat="46.26082" lon="10.60827">
        <ele>1807.929</ele>
        <time>2018-08-11T07:10:35Z</time>
      </trkpt>
      <trkpt lat="46.26076" lon="10.6082">
        <ele>1807.821</ele>
        <time>2018-08-11T07:10:55Z</time>
      </trkpt>
      <trkpt lat="46.26069" lon="10.60818">
        <ele>1807.008</ele>
        <time>2018-08-11T07:11:15Z</time>
      </trkpt>
      <trkpt lat="46.26062" lon="10.60814">
        <ele>1806.156</ele>
        <time>2018-08-11T07:11:35Z</time>
      </trkpt>
      <trkpt lat="46.26055" lon="10.60809">
        <ele>1805.371</ele>
        <time>2018-08-11T07:11:55Z</time>
      </trkpt>
      <trkpt lat="46.26041" lon="10.60786">
        <ele>1803.287</ele>
        <time>2018-08-11T07:12:15Z</time>
      </trkpt>
      <trkpt lat="46.26029" lon="10.6075">
        <ele>1803.441</ele>
        <time>2018-08-11T07:12:35Z</time>
      </trkpt>
      <trkpt lat="46.26021" lon="10.60715">
        <ele>1802.456</ele>
        <time>2018-08-11T07:12:55Z</time>
      </trkpt>
      <trkpt lat="46.26015" lon="10.60694">
        <ele>1801.577</ele>
        <time>2018-08-11T07:13:15Z</time>
      </trkpt>
      <trkpt lat="46.26005" lon="10.60638">
        <ele>1800.634</ele>
        <time>2018-08-11T07:13:35Z</time>
      </trkpt>
      <trkpt lat="46.26" lon="10.60589">
        <ele>1799.797</ele>
        <time>2018-08-11T07:13:55Z</time>
      </trkpt>
      <trkpt lat="46.25996" lon="10.60545">
        <ele>1798.767</ele>
        <time>2018-08-11T07:14:15Z</time>
      </trkpt>
      <trkpt lat="46.25989" lon="10.60509">
        <ele>1797.781</ele>
        <time>2018-08-11T07:14:35Z</time>
      </trkpt>
      <trkpt lat="46.25982" lon="10.60475">
        <ele>1796.919</ele>
        <time>2018-08-11T07:14:55Z</time>
      </trkpt>
      <trkpt lat="46.25973" lon="10.60464">
        <ele>1795.108</ele>
        <time>2018-08-11T07:15:15Z</time>
      </trkpt>
      <trkpt lat="46.25968" lon="10.60458">
        <ele>1795.018</ele>
        <time>2018-08-11T07:15:35Z</time>
      </trkpt>
      <trkpt lat="46.2596" lon="10.60457">
        <ele>1795.023</ele>
        <time>2018-08-11T07:15:55Z</time>
      </trkpt>
      <trkpt lat="46.25945" lon="10.60461">
        <ele>1795.029</ele>
        <time>2018-08-11T07:16:15Z</time>
      </trkpt>
      <trkpt lat="46.25933" lon="10.6047">
        <ele>1796.633</ele>
        <time>2018-08-11T07:16:35Z</time>
      </trkpt>
      <trkpt lat="46.25928" lon="10.60482">
        <ele>1797.298</ele>
        <time>2018-08-11T07:16:55Z</time>
      </trkpt>
      <trkpt lat="46.25924" lon="10.60501">
        <ele>1798.259</ele>
        <time>2018-08-11T07:17:15Z</time>
      </trkpt>
      <trkpt lat="46.25918" lon="10.60531">
        <ele>1800.746</ele>
        <time>2018-08-11T07:17:35Z</time>
      </trkpt>
      <trkpt lat="46.25916" lon="10.60549">
        <ele>1801.899</ele>
        <time>2018-08-11T07:17:55Z</time>
      </trkpt>
      <trkpt lat="46.25919" lon="10.60573">
        <ele>1801.036</ele>
        <time>2018-08-11T07:18:15Z</time>
      </trkpt>
      <trkpt lat="46.25916" lon="10.60592">
        <ele>1802.217</ele>
        <time>2018-08-11T07:18:35Z</time>
      </trkpt>
      <trkpt lat="46.25912" lon="10.60602">
        <ele>1803.318</ele>
        <time>2018-08-11T07:18:55Z</time>
      </trkpt>
      <trkpt lat="46.25898" lon="10.60606">
        <ele>1806.808</ele>
        <time>2018-08-11T07:19:15Z</time>
      </trkpt>
      <trkpt lat="46.25893" lon="10.606">
        <ele>1808.385</ele>
        <time>2018-08-11T07:19:35Z</time>
      </trkpt>
      <trkpt lat="46.25892" lon="10.60599">
        <ele>1808.58</ele>
        <time>2018-08-11T07:19:55Z</time>
      </trkpt>
      <trkpt lat="46.25883" lon="10.60587">
        <ele>1810.926</ele>
        <time>2018-08-11T07:20:15Z</time>
      </trkpt>
      <trkpt lat="46.25872" lon="10.60568">
        <ele>1812.81</ele>
        <time>2018-08-11T07:20:35Z</time>
      </trkpt>
      <trkpt lat="46.25868" lon="10.60559">
        <ele>1813.535</ele>
        <time>2018-08-11T07:20:55Z</time>
      </trkpt>
      <trkpt lat="46.25843" lon="10.60534">
        <ele>1817.536</ele>
        <time>2018-08-11T07:21:15Z</time>
      </trkpt>
      <trkpt lat="46.2584" lon="10.6053">
        <ele>1817.913</ele>
        <time>2018-08-11T07:21:35Z</time>
      </trkpt>
      <trkpt lat="46.25818" lon="10.60502">
        <ele>1821.876</ele>
        <time>2018-08-11T07:21:55Z</time>
      </trkpt>
      <trkpt lat="46.25796" lon="10.60465">
        <ele>1827.362</ele>
        <time>2018-08-11T07:22:15Z</time>
      </trkpt>
      <trkpt lat="46.25791" lon="10.60451">
        <ele>1828.783</ele>
        <time>2018-08-11T07:22:35Z</time>
      </trkpt>
      <trkpt lat="46.25785" lon="10.60438">
        <ele>1830.011</ele>
        <time>2018-08-11T07:22:55Z</time>
      </trkpt>
      <trkpt lat="46.25784" lon="10.60435">
        <ele>1830.008</ele>
        <time>2018-08-11T07:23:15Z</time>
      </trkpt>
      <trkpt lat="46.2578" lon="10.60427">
        <ele>1830.958</ele>
        <time>2018-08-11T07:23:35Z</time>
      </trkpt>
      <trkpt lat="46.25773" lon="10.60421">
        <ele>1833.163</ele>
        <time>2018-08-11T07:23:55Z</time>
      </trkpt>
      <trkpt lat="46.25771" lon="10.6041">
        <ele>1833.759</ele>
        <time>2018-08-11T07:24:15Z</time>
      </trkpt>
      <trkpt lat="46.25765" lon="10.60391">
        <ele>1836.693</ele>
        <time>2018-08-11T07:24:35Z</time>
      </trkpt>
      <trkpt lat="46.25763" lon="10.60359">
        <ele>1832.498</ele>
        <time>2018-08-11T07:24:55Z</time>
      </trkpt>
      <trkpt lat="46.25762" lon="10.6033">
        <ele>1829.289</ele>
        <time>2018-08-11T07:25:15Z</time>
      </trkpt>
      <trkpt lat="46.25751" lon="10.60266">
        <ele>1832.236</ele>
        <time>2018-08-11T07:25:35Z</time>
      </trkpt>
      <trkpt lat="46.25743" lon="10.60194">
        <ele>1835.139</ele>
        <time>2018-08-11T07:25:55Z</time>
      </trkpt>
      <trkpt lat="46.25714" lon="10.60036">
        <ele>1842.137</ele>
        <time>2018-08-11T07:26:15Z</time>
      </trkpt>
      <trkpt lat="46.25699" lon="10.59946">
        <ele>1845.049</ele>
        <time>2018-08-11T07:26:35Z</time>
      </trkpt>
      <trkpt lat="46.25691" lon="10.59878">
        <ele>1845.613</ele>
        <time>2018-08-11T07:26:55Z</time>
      </trkpt>
      <trkpt lat="46.25683" lon="10.59834">
        <ele>1848.308</ele>
        <time>2018-08-11T07:27:15Z</time>
      </trkpt>
      <trkpt lat="46.25676" lon="10.59792">
        <ele>1849.645</ele>
        <time>2018-08-11T07:27:35Z</time>
      </trkpt>
      <trkpt lat="46.25671" lon="10.59757">
        <ele>1851.18</ele>
        <time>2018-08-11T07:27:55Z</time>
      </trkpt>
      <trkpt lat="46.25665" lon="10.59711">
        <ele>1852.736</ele>
        <time>2018-08-11T07:28:15Z</time>
      </trkpt>
      <trkpt lat="46.25662" lon="10.59656">
        <ele>1853.45</ele>
        <time>2018-08-11T07:28:35Z</time>
      </trkpt>
      <trkpt lat="46.25651" lon="10.59616">
        <ele>1857.155</ele>
        <time>2018-08-11T07:28:55Z</time>
      </trkpt>
      <trkpt lat="46.25651" lon="10.59528">
        <ele>1859.416</ele>
        <time>2018-08-11T07:29:15Z</time>
      </trkpt>
      <trkpt lat="46.25665" lon="10.59475">
        <ele>1859.223</ele>
        <time>2018-08-11T07:29:35Z</time>
      </trkpt>
      <trkpt lat="46.2567" lon="10.59415">
        <ele>1864.476</ele>
        <time>2018-08-11T07:29:55Z</time>
      </trkpt>
      <trkpt lat="46.25682" lon="10.59381">
        <ele>1864.831</ele>
        <time>2018-08-11T07:30:15Z</time>
      </trkpt>
      <trkpt lat="46.2569" lon="10.59349">
        <ele>1864.361</ele>
        <time>2018-08-11T07:30:35Z</time>
      </trkpt>
      <trkpt lat="46.25682" lon="10.59314">
        <ele>1867.907</ele>
        <time>2018-08-11T07:30:55Z</time>
      </trkpt>
      <trkpt lat="46.25681" lon="10.59286">
        <ele>1868.808</ele>
        <time>2018-08-11T07:31:15Z</time>
      </trkpt>
      <trkpt lat="46.25676" lon="10.59253">
        <ele>1869.615</ele>
        <time>2018-08-11T07:31:35Z</time>
      </trkpt>
      <trkpt lat="46.25668" lon="10.59219">
        <ele>1871.18</ele>
        <time>2018-08-11T07:31:55Z</time>
      </trkpt>
      <trkpt lat="46.25648" lon="10.59113">
        <ele>1869.436</ele>
        <time>2018-08-11T07:32:15Z</time>
      </trkpt>
      <trkpt lat="46.25644" lon="10.59091">
        <ele>1870.63</ele>
        <time>2018-08-11T07:32:35Z</time>
      </trkpt>
      <trkpt lat="46.25642" lon="10.59082">
        <ele>1871.185</ele>
        <time>2018-08-11T07:32:55Z</time>
      </trkpt>
      <trkpt lat="46.25642" lon="10.59009">
        <ele>1869.476</ele>
        <time>2018-08-11T07:33:15Z</time>
      </trkpt>
      <trkpt lat="46.25636" lon="10.5898">
        <ele>1869.993</ele>
        <time>2018-08-11T07:33:35Z</time>
      </trkpt>
      <trkpt lat="46.25619" lon="10.58954">
        <ele>1872.796</ele>
        <time>2018-08-11T07:33:55Z</time>
      </trkpt>
      <trkpt lat="46.25616" lon="10.58934">
        <ele>1872.972</ele>
        <time>2018-08-11T07:34:15Z</time>
      </trkpt>
      <trkpt lat="46.25615" lon="10.58913">
        <ele>1873.813</ele>
        <time>2018-08-11T07:34:35Z</time>
      </trkpt>
      <trkpt lat="46.25629" lon="10.58782">
        <ele>1877.514</ele>
        <time>2018-08-11T07:34:55Z</time>
      </trkpt>
      <trkpt lat="46.25631" lon="10.58772">
        <ele>1877.708</ele>
        <time>2018-08-11T07:35:15Z</time>
      </trkpt>
      <trkpt lat="46.25642" lon="10.58699">
        <ele>1880.099</ele>
        <time>2018-08-11T07:35:35Z</time>
      </trkpt>
      <trkpt lat="46.25645" lon="10.58655">
        <ele>1881.274</ele>
        <time>2018-08-11T07:35:55Z</time>
      </trkpt>
      <trkpt lat="46.25646" lon="10.58603">
        <ele>1883.38</ele>
        <time>2018-08-11T07:36:15Z</time>
      </trkpt>
      <trkpt lat="46.25649" lon="10.58586">
        <ele>1884.354</ele>
        <time>2018-08-11T07:36:35Z</time>
      </trkpt>
      <trkpt lat="46.2565" lon="10.58576">
        <ele>1884.739</ele>
        <time>2018-08-11T07:36:55Z</time>
      </trkpt>
      <trkpt lat="46.25646" lon="10.58435">
        <ele>1889.51</ele>
        <time>2018-08-11T07:37:15Z</time>
      </trkpt>
      <trkpt lat="46.2565" lon="10.58289">
        <ele>1890.177</ele>
        <time>2018-08-11T07:37:35Z</time>
      </trkpt>
      <trkpt lat="46.25663" lon="10.58254">
        <ele>1888.46</ele>
        <time>2018-08-11T07:37:55Z</time>
      </trkpt>
      <trkpt lat="46.25684" lon="10.58238">
        <ele>1886.722</ele>
        <time>2018-08-11T07:38:15Z</time>
      </trkpt>
      <trkpt lat="46.257" lon="10.58212">
        <ele>1885.562</ele>
        <time>2018-08-11T07:38:35Z</time>
      </trkpt>
      <trkpt lat="46.25698" lon="10.58194">
        <ele>1885.708</ele>
        <time>2018-08-11T07:38:55Z</time>
      </trkpt>
      <trkpt lat="46.25696" lon="10.58167">
        <ele>1885.808</ele>
        <time>2018-08-11T07:39:15Z</time>
      </trkpt>
      <trkpt lat="46.25694" lon="10.58136">
        <ele>1884.944</ele>
        <time>2018-08-11T07:39:35Z</time>
      </trkpt>
      <trkpt lat="46.25691" lon="10.58115">
        <ele>1884.289</ele>
        <time>2018-08-11T07:39:55Z</time>
      </trkpt>
      <trkpt lat="46.25685" lon="10.58083">
        <ele>1884.085</ele>
        <time>2018-08-11T07:40:15Z</time>
      </trkpt>
      <trkpt lat="46.25684" lon="10.58066">
        <ele>1883.629</ele>
        <time>2018-08-11T07:40:35Z</time>
      </trkpt>
      <trkpt lat="46.2568" lon="10.58049">
        <ele>1883.264</ele>
        <time>2018-08-11T07:40:55Z</time>
      </trkpt>
      <trkpt lat="46.2568" lon="10.58023">
        <ele>1882.365</ele>
        <time>2018-08-11T07:41:15Z</time>
      </trkpt>
      <trkpt lat="46.25679" lon="10.57984">
        <ele>1880.912</ele>
        <time>2018-08-11T07:41:35Z</time>
      </trkpt>
      <trkpt lat="46.25678" lon="10.5796">
        <ele>1880.525</ele>
        <time>2018-08-11T07:41:55Z</time>
      </trkpt>
      <trkpt lat="46.25675" lon="10.57916">
        <ele>1876.626</ele>
        <time>2018-08-11T07:42:15Z</time>
      </trkpt>
      <trkpt lat="46.25676" lon="10.57883">
        <ele>1876.447</ele>
        <time>2018-08-11T07:42:35Z</time>
      </trkpt>
      <trkpt lat="46.2568" lon="10.57849">
        <ele>1875.511</ele>
        <time>2018-08-11T07:42:55Z</time>
      </trkpt>
      <trkpt lat="46.25677" lon="10.57817">
        <ele>1875.208</ele>
        <time>2018-08-11T07:43:15Z</time>
      </trkpt>
      <trkpt lat="46.25679" lon="10.57788">
        <ele>1875.074</ele>
        <time>2018-08-11T07:43:35Z</time>
      </trkpt>
      <trkpt lat="46.2568" lon="10.57775">
        <ele>1874.729</ele>
        <time>2018-08-11T07:43:55Z</time>
      </trkpt>
      <trkpt lat="46.25674" lon="10.57724">
        <ele>1872.035</ele>
        <time>2018-08-11T07:44:15Z</time>
      </trkpt>
      <trkpt lat="46.25673" lon="10.57721">
        <ele>1871.859</ele>
        <time>2018-08-11T07:44:35Z</time>
      </trkpt>
      <trkpt lat="46.25654" lon="10.57665">
        <ele>1869.334</ele>
        <time>2018-08-11T07:44:55Z</time>
      </trkpt>
      <trkpt lat="46.25647" lon="10.57635">
        <ele>1867.485</ele>
        <time>2018-08-11T07:45:15Z</time>
      </trkpt>
      <trkpt lat="46.25642" lon="10.57612">
        <ele>1866.082</ele>
        <time>2018-08-11T07:45:35Z</time>
      </trkpt>
      <trkpt lat="46.25635" lon="10.57588">
        <ele>1864.775</ele>
        <time>2018-08-11T07:45:55Z</time>
      </trkpt>
      <trkpt lat="46.25622" lon="10.57563">
        <ele>1863.976</ele>
        <time>2018-08-11T07:46:15Z</time>
      </trkpt>
      <trkpt lat="46.25605" lon="10.5755">
        <ele>1864.29</ele>
        <time>2018-08-11T07:46:35Z</time>
      </trkpt>
      <trkpt lat="46.25594" lon="10.57525">
        <ele>1862.519</ele>
        <time>2018-08-11T07:46:55Z</time>
      </trkpt>
      <trkpt lat="46.25581" lon="10.57504">
        <ele>1861.708</ele>
        <time>2018-08-11T07:47:15Z</time>
      </trkpt>
      <trkpt lat="46.25497" lon="10.57419">
        <ele>1867.989</ele>
        <time>2018-08-11T07:47:35Z</time>
      </trkpt>
      <trkpt lat="46.25485" lon="10.57388">
        <ele>1870.484</ele>
        <time>2018-08-11T07:47:55Z</time>
      </trkpt>
      <trkpt lat="46.25466" lon="10.57344">
        <ele>1871.89</ele>
        <time>2018-08-11T07:48:15Z</time>
      </trkpt>
      <trkpt lat="46.25458" lon="10.57313">
        <ele>1871.014</ele>
        <time>2018-08-11T07:48:35Z</time>
      </trkpt>
      <trkpt lat="46.25446" lon="10.57249">
        <ele>1870.679</ele>
        <time>2018-08-11T07:48:55Z</time>
      </trkpt>
      <trkpt lat="46.25437" lon="10.57216">
        <ele>1873.27</ele>
        <time>2018-08-11T07:49:15Z</time>
      </trkpt>
      <trkpt lat="46.2542" lon="10.57185">
        <ele>1875.037</ele>
        <time>2018-08-11T07:49:35Z</time>
      </trkpt>
      <trkpt lat="46.25375" lon="10.57077">
        <ele>1869.31</ele>
        <time>2018-08-11T07:49:55Z</time>
      </trkpt>
      <trkpt lat="46.25371" lon="10.57053">
        <ele>1866.634</ele>
        <time>2018-08-11T07:50:15Z</time>
      </trkpt>
      <trkpt lat="46.25368" lon="10.57022">
        <ele>1863.355</ele>
        <time>2018-08-11T07:50:35Z</time>
      </trkpt>
      <trkpt lat="46.2537" lon="10.5699">
        <ele>1860.01</ele>
        <time>2018-08-11T07:50:55Z</time>
      </trkpt>
      <trkpt lat="46.25382" lon="10.56966">
        <ele>1858.808</ele>
        <time>2018-08-11T07:51:15Z</time>
      </trkpt>
      <trkpt lat="46.25386" lon="10.5693">
        <ele>1854.865</ele>
        <time>2018-08-11T07:51:35Z</time>
      </trkpt>
      <trkpt lat="46.25379" lon="10.56908">
        <ele>1852.18</ele>
        <time>2018-08-11T07:51:55Z</time>
      </trkpt>
      <trkpt lat="46.25368" lon="10.56892">
        <ele>1850.926</ele>
        <time>2018-08-11T07:52:15Z</time>
      </trkpt>
      <trkpt lat="46.25341" lon="10.56872">
        <ele>1848.14</ele>
        <time>2018-08-11T07:52:35Z</time>
      </trkpt>
      <trkpt lat="46.25324" lon="10.56863">
        <ele>1847.675</ele>
        <time>2018-08-11T07:52:55Z</time>
      </trkpt>
      <trkpt lat="46.25313" lon="10.56852">
        <ele>1846.226</ele>
        <time>2018-08-11T07:53:15Z</time>
      </trkpt>
      <trkpt lat="46.25315" lon="10.56827">
        <ele>1838.383</ele>
        <time>2018-08-11T07:53:35Z</time>
      </trkpt>
      <trkpt lat="46.25335" lon="10.5681">
        <ele>1833.496</ele>
        <time>2018-08-11T07:53:55Z</time>
      </trkpt>
      <trkpt lat="46.25351" lon="10.56795">
        <ele>1832.389</ele>
        <time>2018-08-11T07:54:15Z</time>
      </trkpt>
      <trkpt lat="46.25394" lon="10.56716">
        <ele>1816.806</ele>
        <time>2018-08-11T07:54:35Z</time>
      </trkpt>
      <trkpt lat="46.25417" lon="10.5667">
        <ele>1806.526</ele>
        <time>2018-08-11T07:54:55Z</time>
      </trkpt>
      <trkpt lat="46.25437" lon="10.56597">
        <ele>1795.208</ele>
        <time>2018-08-11T07:55:15Z</time>
      </trkpt>
      <trkpt lat="46.25455" lon="10.56453">
        <ele>1779.98</ele>
        <time>2018-08-11T07:55:35Z</time>
      </trkpt>
      <trkpt lat="46.25489" lon="10.56113">
        <ele>1755.735</ele>
        <time>2018-08-11T07:55:55Z</time>
      </trkpt>
      <trkpt lat="46.25495" lon="10.56036">
        <ele>1750.091</ele>
        <time>2018-08-11T07:56:15Z</time>
      </trkpt>
      <trkpt lat="46.25501" lon="10.55956">
        <ele>1740.145</ele>
        <time>2018-08-11T07:56:35Z</time>
      </trkpt>
      <trkpt lat="46.25504" lon="10.55892">
        <ele>1731.14</ele>
        <time>2018-08-11T07:56:55Z</time>
      </trkpt>
      <trkpt lat="46.2553" lon="10.558">
        <ele>1725.231</ele>
        <time>2018-08-11T07:57:15Z</time>
      </trkpt>
      <trkpt lat="46.2553" lon="10.55797">
        <ele>1725.298</ele>
        <time>2018-08-11T07:57:35Z</time>
      </trkpt>
      <trkpt lat="46.25524" lon="10.55776">
        <ele>1724.751</ele>
        <time>2018-08-11T07:57:55Z</time>
      </trkpt>
      <trkpt lat="46.25514" lon="10.5574">
        <ele>1723.177</ele>
        <time>2018-08-11T07:58:15Z</time>
      </trkpt>
      <trkpt lat="46.25506" lon="10.55711">
        <ele>1721.261</ele>
        <time>2018-08-11T07:58:35Z</time>
      </trkpt>
      <trkpt lat="46.25488" lon="10.55651">
        <ele>1717.727</ele>
        <time>2018-08-11T07:58:55Z</time>
      </trkpt>
      <trkpt lat="46.25471" lon="10.55596">
        <ele>1713.808</ele>
        <time>2018-08-11T07:59:15Z</time>
      </trkpt>
      <trkpt lat="46.25457" lon="10.55553">
        <ele>1713.979</ele>
        <time>2018-08-11T07:59:35Z</time>
      </trkpt>
      <trkpt lat="46.25441" lon="10.55505">
        <ele>1713.214</ele>
        <time>2018-08-11T07:59:55Z</time>
      </trkpt>
      <trkpt lat="46.25441" lon="10.55503">
        <ele>1713.22</ele>
        <time>2018-08-11T08:00:15Z</time>
      </trkpt>
      <trkpt lat="46.25431" lon="10.55459">
        <ele>1714.034</ele>
        <time>2018-08-11T08:00:35Z</time>
      </trkpt>
      <trkpt lat="46.2543" lon="10.55457">
        <ele>1713.969</ele>
        <time>2018-08-11T08:00:55Z</time>
      </trkpt>
      <trkpt lat="46.25414" lon="10.55416">
        <ele>1713.38</ele>
        <time>2018-08-11T08:01:15Z</time>
      </trkpt>
      <trkpt lat="46.25381" lon="10.55363">
        <ele>1708.227</ele>
        <time>2018-08-11T08:01:35Z</time>
      </trkpt>
      <trkpt lat="46.25371" lon="10.55331">
        <ele>1704.03</ele>
        <time>2018-08-11T08:01:55Z</time>
      </trkpt>
      <trkpt lat="46.25372" lon="10.55326">
        <ele>1704.059</ele>
        <time>2018-08-11T08:02:15Z</time>
      </trkpt>
      <trkpt lat="46.25369" lon="10.55314">
        <ele>1702.503</ele>
        <time>2018-08-11T08:02:35Z</time>
      </trkpt>
      <trkpt lat="46.25364" lon="10.5529">
        <ele>1700.223</ele>
        <time>2018-08-11T08:02:55Z</time>
      </trkpt>
      <trkpt lat="46.25364" lon="10.55289">
        <ele>1700.108</ele>
        <time>2018-08-11T08:03:15Z</time>
      </trkpt>
      <trkpt lat="46.25354" lon="10.55264">
        <ele>1698.597</ele>
        <time>2018-08-11T08:03:35Z</time>
      </trkpt>
      <trkpt lat="46.25349" lon="10.5524">
        <ele>1698.252</ele>
        <time>2018-08-11T08:03:55Z</time>
      </trkpt>
      <trkpt lat="46.25347" lon="10.55232">
        <ele>1697.918</ele>
        <time>2018-08-11T08:04:15Z</time>
      </trkpt>
      <trkpt lat="46.25344" lon="10.55201">
        <ele>1697.442</ele>
        <time>2018-08-11T08:04:35Z</time>
      </trkpt>
      <trkpt lat="46.25341" lon="10.55189">
        <ele>1696.917</ele>
        <time>2018-08-11T08:04:55Z</time>
      </trkpt>
      <trkpt lat="46.2534" lon="10.55177">
        <ele>1696.398</ele>
        <time>2018-08-11T08:05:15Z</time>
      </trkpt>
      <trkpt lat="46.2534" lon="10.55177">
        <ele>1696.355</ele>
        <time>2018-08-11T08:05:35Z</time>
      </trkpt>
      <trkpt lat="46.2534" lon="10.55166">
        <ele>1695.938</ele>
        <time>2018-08-11T08:05:55Z</time>
      </trkpt>
      <trkpt lat="46.25338" lon="10.55135">
        <ele>1693.482</ele>
        <time>2018-08-11T08:06:15Z</time>
      </trkpt>
      <trkpt lat="46.25336" lon="10.55047">
        <ele>1688.643</ele>
        <time>2018-08-11T08:06:35Z</time>
      </trkpt>
      <trkpt lat="46.25331" lon="10.54903">
        <ele>1680.317</ele>
        <time>2018-08-11T08:06:55Z</time>
      </trkpt>
      <trkpt lat="46.2533" lon="10.54899">
        <ele>1679.808</ele>
        <time>2018-08-11T08:07:15Z</time>
      </trkpt>
      <trkpt lat="46.2533" lon="10.54882">
        <ele>1678.83</ele>
        <time>2018-08-11T08:07:35Z</time>
      </trkpt>
      <trkpt lat="46.25325" lon="10.54794">
        <ele>1673.385</ele>
        <time>2018-08-11T08:07:55Z</time>
      </trkpt>
      <trkpt lat="46.25325" lon="10.54717">
        <ele>1666.131</ele>
        <time>2018-08-11T08:08:15Z</time>
      </trkpt>
      <trkpt lat="46.25356" lon="10.54682">
        <ele>1667.335</ele>
        <time>2018-08-11T08:08:35Z</time>
      </trkpt>
      <trkpt lat="46.25371" lon="10.54666">
        <ele>1667.92</ele>
        <time>2018-08-11T08:08:55Z</time>
      </trkpt>
      <trkpt lat="46.25377" lon="10.54652">
        <ele>1667.711</ele>
        <time>2018-08-11T08:09:15Z</time>
      </trkpt>
      <trkpt lat="46.25389" lon="10.54632">
        <ele>1668.648</ele>
        <time>2018-08-11T08:09:35Z</time>
      </trkpt>
      <trkpt lat="46.25393" lon="10.5462">
        <ele>1668.651</ele>
        <time>2018-08-11T08:09:55Z</time>
      </trkpt>
      <trkpt lat="46.25401" lon="10.54603">
        <ele>1669.826</ele>
        <time>2018-08-11T08:10:15Z</time>
      </trkpt>
      <trkpt lat="46.25407" lon="10.54595">
        <ele>1671.447</ele>
        <time>2018-08-11T08:10:35Z</time>
      </trkpt>
      <trkpt lat="46.25409" lon="10.54593">
        <ele>1671.711</ele>
        <time>2018-08-11T08:10:55Z</time>
      </trkpt>
      <trkpt lat="46.25415" lon="10.54568">
        <ele>1674.608</ele>
        <time>2018-08-11T08:11:15Z</time>
      </trkpt>
      <trkpt lat="46.25419" lon="10.54555">
        <ele>1676.564</ele>
        <time>2018-08-11T08:11:35Z</time>
      </trkpt>
      <trkpt lat="46.25419" lon="10.54549">
        <ele>1676.659</ele>
        <time>2018-08-11T08:11:55Z</time>
      </trkpt>
      <trkpt lat="46.25419" lon="10.54549">
        <ele>1676.675</ele>
        <time>2018-08-11T08:12:15Z</time>
      </trkpt>
      <trkpt lat="46.25423" lon="10.54538">
        <ele>1677.919</ele>
        <time>2018-08-11T08:12:35Z</time>
      </trkpt>
      <trkpt lat="46.25433" lon="10.54498">
        <ele>1682.444</ele>
        <time>2018-08-11T08:12:55Z</time>
      </trkpt>
      <trkpt lat="46.25434" lon="10.54495">
        <ele>1682.775</ele>
        <time>2018-08-11T08:13:15Z</time>
      </trkpt>
      <trkpt lat="46.25436" lon="10.54448">
        <ele>1684.982</ele>
        <time>2018-08-11T08:13:35Z</time>
      </trkpt>
      <trkpt lat="46.25439" lon="10.54394">
        <ele>1688.455</ele>
        <time>2018-08-11T08:13:55Z</time>
      </trkpt>
      <trkpt lat="46.25439" lon="10.54378">
        <ele>1688.973</ele>
        <time>2018-08-11T08:14:15Z</time>
      </trkpt>
      <trkpt lat="46.25438" lon="10.54352">
        <ele>1688.985</ele>
        <time>2018-08-11T08:14:35Z</time>
      </trkpt>
      <trkpt lat="46.25438" lon="10.5433">
        <ele>1690.013</ele>
        <time>2018-08-11T08:14:55Z</time>
      </trkpt>
      <trkpt lat="46.25439" lon="10.54318">
        <ele>1690.908</ele>
        <time>2018-08-11T08:15:15Z</time>
      </trkpt>
      <trkpt lat="46.25442" lon="10.54281">
        <ele>1693.939</ele>
        <time>2018-08-11T08:15:35Z</time>
      </trkpt>
      <trkpt lat="46.25442" lon="10.54276">
        <ele>1694.044</ele>
        <time>2018-08-11T08:15:55Z</time>
      </trkpt>
      <trkpt lat="46.25441" lon="10.54253">
        <ele>1695.49</ele>
        <time>2018-08-11T08:16:15Z</time>
      </trkpt>
      <trkpt lat="46.25437" lon="10.54236">
        <ele>1693.864</ele>
        <time>2018-08-11T08:16:35Z</time>
      </trkpt>
      <trkpt lat="46.25429" lon="10.54211">
        <ele>1690.149</ele>
        <time>2018-08-11T08:16:55Z</time>
      </trkpt>
      <trkpt lat="46.25424" lon="10.54199">
        <ele>1687.28</ele>
        <time>2018-08-11T08:17:15Z</time>
      </trkpt>
      <trkpt lat="46.25424" lon="10.54194">
        <ele>1687.287</ele>
        <time>2018-08-11T08:17:35Z</time>
      </trkpt>
      <trkpt lat="46.25424" lon="10.54194">
        <ele>1687.11</ele>
        <time>2018-08-11T08:17:55Z</time>
      </trkpt>
      <trkpt lat="46.25423" lon="10.54162">
        <ele>1688.989</ele>
        <time>2018-08-11T08:18:15Z</time>
      </trkpt>
      <trkpt lat="46.25423" lon="10.54158">
        <ele>1689.106</ele>
        <time>2018-08-11T08:18:35Z</time>
      </trkpt>
      <trkpt lat="46.25421" lon="10.54114">
        <ele>1691.726</ele>
        <time>2018-08-11T08:18:55Z</time>
      </trkpt>
      <trkpt lat="46.2542" lon="10.54063">
        <ele>1694.208</ele>
        <time>2018-08-11T08:19:15Z</time>
      </trkpt>
      <trkpt lat="46.25419" lon="10.53987">
        <ele>1693.16</ele>
        <time>2018-08-11T08:19:35Z</time>
      </trkpt>
      <trkpt lat="46.2542" lon="10.53941">
        <ele>1691.945</ele>
        <time>2018-08-11T08:19:55Z</time>
      </trkpt>
      <trkpt lat="46.25421" lon="10.53878">
        <ele>1691.541</ele>
        <time>2018-08-11T08:20:15Z</time>
      </trkpt>
      <trkpt lat="46.25422" lon="10.53851">
        <ele>1691.915</ele>
        <time>2018-08-11T08:20:35Z</time>
      </trkpt>
      <trkpt lat="46.25422" lon="10.53827">
        <ele>1692.56</ele>
        <time>2018-08-11T08:20:55Z</time>
      </trkpt>
      <trkpt lat="46.25422" lon="10.53827">
        <ele>1692.571</ele>
        <time>2018-08-11T08:21:15Z</time>
      </trkpt>
      <trkpt lat="46.25418" lon="10.53808">
        <ele>1691.578</ele>
        <time>2018-08-11T08:21:35Z</time>
      </trkpt>
      <trkpt lat="46.2542" lon="10.53797">
        <ele>1692.161</ele>
        <time>2018-08-11T08:21:55Z</time>
      </trkpt>
      <trkpt lat="46.25424" lon="10.53779">
        <ele>1693.686</ele>
        <time>2018-08-11T08:22:15Z</time>
      </trkpt>
      <trkpt lat="46.25429" lon="10.53767">
        <ele>1695.56</ele>
        <time>2018-08-11T08:22:35Z</time>
      </trkpt>
      <trkpt lat="46.25429" lon="10.53767">
        <ele>1695.626</ele>
        <time>2018-08-11T08:22:55Z</time>
      </trkpt>
      <trkpt lat="46.25435" lon="10.53752">
        <ele>1698.008</ele>
        <time>2018-08-11T08:23:15Z</time>
      </trkpt>
      <trkpt lat="46.25441" lon="10.53734">
        <ele>1701.72</ele>
        <time>2018-08-11T08:23:35Z</time>
      </trkpt>
      <trkpt lat="46.25445" lon="10.53717">
        <ele>1704.695</ele>
        <time>2018-08-11T08:23:55Z</time>
      </trkpt>
      <trkpt lat="46.25449" lon="10.53703">
        <ele>1706.661</ele>
        <time>2018-08-11T08:24:15Z</time>
      </trkpt>
      <trkpt lat="46.25453" lon="10.53694">
        <ele>1708.495</ele>
        <time>2018-08-11T08:24:35Z</time>
      </trkpt>
      <trkpt lat="46.2546" lon="10.53675">
        <ele>1706.47</ele>
        <time>2018-08-11T08:24:55Z</time>
      </trkpt>
      <trkpt lat="46.25467" lon="10.53665">
        <ele>1706.031</ele>
        <time>2018-08-11T08:25:15Z</time>
      </trkpt>
      <trkpt lat="46.25479" lon="10.53657">
        <ele>1706.368</ele>
        <time>2018-08-11T08:25:35Z</time>
      </trkpt>
      <trkpt lat="46.25492" lon="10.53651">
        <ele>1705.981</ele>
        <time>2018-08-11T08:25:55Z</time>
      </trkpt>
      <trkpt lat="46.25503" lon="10.53642">
        <ele>1704.744</ele>
        <time>2018-08-11T08:26:15Z</time>
      </trkpt>
      <trkpt lat="46.25516" lon="10.53636">
        <ele>1707.905</ele>
        <time>2018-08-11T08:26:35Z</time>
      </trkpt>
      <trkpt lat="46.25529" lon="10.53634">
        <ele>1712.915</ele>
        <time>2018-08-11T08:26:55Z</time>
      </trkpt>
      <trkpt lat="46.25535" lon="10.53629">
        <ele>1713.208</ele>
        <time>2018-08-11T08:27:15Z</time>
      </trkpt>
      <trkpt lat="46.2554" lon="10.53621">
        <ele>1712.486</ele>
        <time>2018-08-11T08:27:35Z</time>
      </trkpt>
      <trkpt lat="46.25545" lon="10.53614">
        <ele>1712.351</ele>
        <time>2018-08-11T08:27:55Z</time>
      </trkpt>
      <trkpt lat="46.25546" lon="10.5361">
        <ele>1711.927</ele>
        <time>2018-08-11T08:28:15Z</time>
      </trkpt>
      <trkpt lat="46.25555" lon="10.53601">
        <ele>1713.621</ele>
        <time>2018-08-11T08:28:35Z</time>
      </trkpt>
      <trkpt lat="46.25563" lon="10.53587">
        <ele>1712.626</ele>
        <time>2018-08-11T08:28:55Z</time>
      </trkpt>
      <trkpt lat="46.25568" lon="10.53575">
        <ele>1711.727</ele>
        <time>2018-08-11T08:29:15Z</time>
      </trkpt>
      <trkpt lat="46.2557" lon="10.5357">
        <ele>1711.354</ele>
        <time>2018-08-11T08:29:35Z</time>
      </trkpt>
      <trkpt lat="46.25588" lon="10.53574">
        <ele>1712.417</ele>
        <time>2018-08-11T08:29:55Z</time>
      </trkpt>
      <trkpt lat="46.25591" lon="10.53574">
        <ele>1712.665</ele>
        <time>2018-08-11T08:30:15Z</time>
      </trkpt>
      <trkpt lat="46.25596" lon="10.53574">
        <ele>1712.768</ele>
        <time>2018-08-11T08:30:35Z</time>
      </trkpt>
      <trkpt lat="46.256" lon="10.53574">
        <ele>1712.914</ele>
        <time>2018-08-11T08:30:55Z</time>
      </trkpt>
      <trkpt lat="46.256" lon="10.53574">
        <ele>1712.908</ele>
        <time>2018-08-11T08:31:15Z</time>
      </trkpt>
      <trkpt lat="46.25614" lon="10.53573">
        <ele>1713.498</ele>
        <time>2018-08-11T08:31:35Z</time>
      </trkpt>
      <trkpt lat="46.25619" lon="10.53572">
        <ele>1713.873</ele>
        <time>2018-08-11T08:31:55Z</time>
      </trkpt>
      <trkpt lat="46.25624" lon="10.53569">
        <ele>1714.079</ele>
        <time>2018-08-11T08:32:15Z</time>
      </trkpt>
      <trkpt lat="46.25631" lon="10.53564">
        <ele>1714.213</ele>
        <time>2018-08-11T08:32:35Z</time>
      </trkpt>
      <trkpt lat="46.25638" lon="10.53551">
        <ele>1713.438</ele>
        <time>2018-08-11T08:32:55Z</time>
      </trkpt>
      <trkpt lat="46.25653" lon="10.53527">
        <ele>1711.469</ele>
        <time>2018-08-11T08:33:15Z</time>
      </trkpt>
      <trkpt lat="46.2566" lon="10.53517">
        <ele>1710.256</ele>
        <time>2018-08-11T08:33:35Z</time>
      </trkpt>
      <trkpt lat="46.25671" lon="10.53507">
        <ele>1709.499</ele>
        <time>2018-08-11T08:33:55Z</time>
      </trkpt>
      <trkpt lat="46.25683" lon="10.53493">
        <ele>1708.532</ele>
        <time>2018-08-11T08:34:15Z</time>
      </trkpt>
      <trkpt lat="46.2569" lon="10.53483">
        <ele>1707.592</ele>
        <time>2018-08-11T08:34:35Z</time>
      </trkpt>
      <trkpt lat="46.257" lon="10.53473">
        <ele>1707.711</ele>
        <time>2018-08-11T08:34:55Z</time>
      </trkpt>
      <trkpt lat="46.25707" lon="10.53458">
        <ele>1707.008</ele>
        <time>2018-08-11T08:35:15Z</time>
      </trkpt>
      <trkpt lat="46.25712" lon="10.53438">
        <ele>1705.035</ele>
        <time>2018-08-11T08:35:35Z</time>
      </trkpt>
      <trkpt lat="46.25718" lon="10.53422">
        <ele>1704.54</ele>
        <time>2018-08-11T08:35:55Z</time>
      </trkpt>
      <trkpt lat="46.25729" lon="10.53405">
        <ele>1704.216</ele>
        <time>2018-08-11T08:36:15Z</time>
      </trkpt>
      <trkpt lat="46.25738" lon="10.53397">
        <ele>1704.32</ele>
        <time>2018-08-11T08:36:35Z</time>
      </trkpt>
      <trkpt lat="46.25752" lon="10.5339">
        <ele>1705.225</ele>
        <time>2018-08-11T08:36:55Z</time>
      </trkpt>
      <trkpt lat="46.25765" lon="10.53385">
        <ele>1703.956</ele>
        <time>2018-08-11T08:37:15Z</time>
      </trkpt>
      <trkpt lat="46.25779" lon="10.53379">
        <ele>1702.983</ele>
        <time>2018-08-11T08:37:35Z</time>
      </trkpt>
      <trkpt lat="46.25789" lon="10.53377">
        <ele>1705.536</ele>
        <time>2018-08-11T08:37:55Z</time>
      </trkpt>
      <trkpt lat="46.25798" lon="10.53368">
        <ele>1706.871</ele>
        <time>2018-08-11T08:38:15Z</time>
      </trkpt>
      <trkpt lat="46.25804" lon="10.53358">
        <ele>1706.741</ele>
        <time>2018-08-11T08:38:35Z</time>
      </trkpt>
      <trkpt lat="46.25809" lon="10.53345">
        <ele>1706.215</ele>
        <time>2018-08-11T08:38:55Z</time>
      </trkpt>
      <trkpt lat="46.25818" lon="10.5333">
        <ele>1707.008</ele>
        <time>2018-08-11T08:39:15Z</time>
      </trkpt>
      <trkpt lat="46.25819" lon="10.53328">
        <ele>1707.259</ele>
        <time>2018-08-11T08:39:35Z</time>
      </trkpt>
      <trkpt lat="46.25825" lon="10.53314">
        <ele>1707.394</ele>
        <time>2018-08-11T08:39:55Z</time>
      </trkpt>
      <trkpt lat="46.25838" lon="10.53297">
        <ele>1706.75</ele>
        <time>2018-08-11T08:40:15Z</time>
      </trkpt>
      <trkpt lat="46.25846" lon="10.5329">
        <ele>1705.664</ele>
        <time>2018-08-11T08:40:35Z</time>
      </trkpt>
      <trkpt lat="46.25859" lon="10.5329">
        <ele>1706.429</ele>
        <time>2018-08-11T08:40:55Z</time>
      </trkpt>
      <trkpt lat="46.2588" lon="10.53292">
        <ele>1704.45</ele>
        <time>2018-08-11T08:41:15Z</time>
      </trkpt>
      <trkpt lat="46.25889" lon="10.53292">
        <ele>1703.287</ele>
        <time>2018-08-11T08:41:35Z</time>
      </trkpt>
      <trkpt lat="46.25899" lon="10.53293">
        <ele>1701.62</ele>
        <time>2018-08-11T08:41:55Z</time>
      </trkpt>
      <trkpt lat="46.25912" lon="10.53293">
        <ele>1699.656</ele>
        <time>2018-08-11T08:42:15Z</time>
      </trkpt>
      <trkpt lat="46.25918" lon="10.53293">
        <ele>1698.859</ele>
        <time>2018-08-11T08:42:35Z</time>
      </trkpt>
      <trkpt lat="46.25932" lon="10.53294">
        <ele>1697.914</ele>
        <time>2018-08-11T08:42:55Z</time>
      </trkpt>
      <trkpt lat="46.25941" lon="10.53288">
        <ele>1695.508</ele>
        <time>2018-08-11T08:43:15Z</time>
      </trkpt>
      <trkpt lat="46.25952" lon="10.53287">
        <ele>1693.857</ele>
        <time>2018-08-11T08:43:35Z</time>
      </trkpt>
      <trkpt lat="46.25963" lon="10.53287">
        <ele>1692.672</ele>
        <time>2018-08-11T08:43:55Z</time>
      </trkpt>
      <trkpt lat="46.2597" lon="10.53287">
        <ele>1691.738</ele>
        <time>2018-08-11T08:44:15Z</time>
      </trkpt>
      <trkpt lat="46.25972" lon="10.53287">
        <ele>1691.532</ele>
        <time>2018-08-11T08:44:35Z</time>
      </trkpt>
      <trkpt lat="46.25973" lon="10.53287">
        <ele>1690.797</ele>
        <time>2018-08-11T08:44:55Z</time>
      </trkpt>
      <trkpt lat="46.25983" lon="10.53282">
        <ele>1685.648</ele>
        <time>2018-08-11T08:45:15Z</time>
      </trkpt>
      <trkpt lat="46.25997" lon="10.53281">
        <ele>1680.115</ele>
        <time>2018-08-11T08:45:35Z</time>
      </trkpt>
      <trkpt lat="46.26002" lon="10.53281">
        <ele>1679.748</ele>
        <time>2018-08-11T08:45:55Z</time>
      </trkpt>
      <trkpt lat="46.26016" lon="10.5325">
        <ele>1678.764</ele>
        <time>2018-08-11T08:46:15Z</time>
      </trkpt>
      <trkpt lat="46.26025" lon="10.5323">
        <ele>1679.006</ele>
        <time>2018-08-11T08:46:35Z</time>
      </trkpt>
      <trkpt lat="46.26033" lon="10.53211">
        <ele>1683.416</ele>
        <time>2018-08-11T08:46:55Z</time>
      </trkpt>
      <trkpt lat="46.26033" lon="10.5321">
        <ele>1683.308</ele>
        <time>2018-08-11T08:47:15Z</time>
      </trkpt>
      <trkpt lat="46.26033" lon="10.53207">
        <ele>1683.018</ele>
        <time>2018-08-11T08:47:35Z</time>
      </trkpt>
      <trkpt lat="46.26033" lon="10.53199">
        <ele>1682.193</ele>
        <time>2018-08-11T08:47:55Z</time>
      </trkpt>
      <trkpt lat="46.26033" lon="10.53194">
        <ele>1681.829</ele>
        <time>2018-08-11T08:48:15Z</time>
      </trkpt>
      <trkpt lat="46.26033" lon="10.53191">
        <ele>1681.843</ele>
        <time>2018-08-11T08:48:35Z</time>
      </trkpt>
      <trkpt lat="46.26033" lon="10.53189">
        <ele>1681.898</ele>
        <time>2018-08-11T08:48:55Z</time>
      </trkpt>
      <trkpt lat="46.26033" lon="10.53187">
        <ele>1681.719</ele>
        <time>2018-08-11T08:49:15Z</time>
      </trkpt>
      <trkpt lat="46.26033" lon="10.53182">
        <ele>1681.296</ele>
        <time>2018-08-11T08:49:35Z</time>
      </trkpt>
      <trkpt lat="46.26032" lon="10.53176">
        <ele>1680.519</ele>
        <time>2018-08-11T08:49:55Z</time>
      </trkpt>
      <trkpt lat="46.26032" lon="10.5317">
        <ele>1679.978</ele>
        <time>2018-08-11T08:50:15Z</time>
      </trkpt>
      <trkpt lat="46.26032" lon="10.53166">
        <ele>1679.633</ele>
        <time>2018-08-11T08:50:35Z</time>
      </trkpt>
      <trkpt lat="46.26031" lon="10.5316">
        <ele>1678.826</ele>
        <time>2018-08-11T08:50:55Z</time>
      </trkpt>
      <trkpt lat="46.2603" lon="10.53154">
        <ele>1677.908</ele>
        <time>2018-08-11T08:51:15Z</time>
      </trkpt>
      <trkpt lat="46.2603" lon="10.53147">
        <ele>1677.029</ele>
        <time>2018-08-11T08:51:35Z</time>
      </trkpt>
      <trkpt lat="46.26029" lon="10.53145">
        <ele>1676.854</ele>
        <time>2018-08-11T08:51:55Z</time>
      </trkpt>
      <trkpt lat="46.26029" lon="10.53138">
        <ele>1676.53</ele>
        <time>2018-08-11T08:52:15Z</time>
      </trkpt>
      <trkpt lat="46.26029" lon="10.53132">
        <ele>1676.654</ele>
        <time>2018-08-11T08:52:35Z</time>
      </trkpt>
      <trkpt lat="46.2603" lon="10.53123">
        <ele>1676.939</ele>
        <time>2018-08-11T08:52:55Z</time>
      </trkpt>
      <trkpt lat="46.2603" lon="10.53119">
        <ele>1677.21</ele>
        <time>2018-08-11T08:53:15Z</time>
      </trkpt>
      <trkpt lat="46.2603" lon="10.53115">
        <ele>1677.347</ele>
        <time>2018-08-11T08:53:35Z</time>
      </trkpt>
      <trkpt lat="46.2603" lon="10.53107">
        <ele>1677.62</ele>
        <time>2018-08-11T08:53:55Z</time>
      </trkpt>
      <trkpt lat="46.26031" lon="10.53102">
        <ele>1677.712</ele>
        <time>2018-08-11T08:54:15Z</time>
      </trkpt>
      <trkpt lat="46.26031" lon="10.53096">
        <ele>1678.232</ele>
        <time>2018-08-11T08:54:35Z</time>
      </trkpt>
      <trkpt lat="46.26032" lon="10.53091">
        <ele>1678.605</ele>
        <time>2018-08-11T08:54:55Z</time>
      </trkpt>
      <trkpt lat="46.26032" lon="10.53083">
        <ele>1679.408</ele>
        <time>2018-08-11T08:55:15Z</time>
      </trkpt>
      <trkpt lat="46.26033" lon="10.53076">
        <ele>1680.123</ele>
        <time>2018-08-11T08:55:35Z</time>
      </trkpt>
      <trkpt lat="46.26034" lon="10.5307">
        <ele>1680.518</ele>
        <time>2018-08-11T08:55:55Z</time>
      </trkpt>
      <trkpt lat="46.26035" lon="10.53063">
        <ele>1681.274</ele>
        <time>2018-08-11T08:56:15Z</time>
      </trkpt>
      <trkpt lat="46.26035" lon="10.53059">
        <ele>1681.598</ele>
        <time>2018-08-11T08:56:35Z</time>
      </trkpt>
      <trkpt lat="46.26035" lon="10.53056">
        <ele>1681.883</ele>
        <time>2018-08-11T08:56:55Z</time>
      </trkpt>
      <trkpt lat="46.26035" lon="10.53053">
        <ele>1681.984</ele>
        <time>2018-08-11T08:57:15Z</time>
      </trkpt>
      <trkpt lat="46.26035" lon="10.5305">
        <ele>1682.071</ele>
        <time>2018-08-11T08:57:35Z</time>
      </trkpt>
      <trkpt lat="46.26036" lon="10.53046">
        <ele>1682.974</ele>
        <time>2018-08-11T08:57:55Z</time>
      </trkpt>
      <trkpt lat="46.26037" lon="10.53023">
        <ele>1683.544</ele>
        <time>2018-08-11T08:58:15Z</time>
      </trkpt>
      <trkpt lat="46.26037" lon="10.53017">
        <ele>1683.205</ele>
        <time>2018-08-11T08:58:35Z</time>
      </trkpt>
      <trkpt lat="46.26037" lon="10.53011">
        <ele>1682.815</ele>
        <time>2018-08-11T08:58:55Z</time>
      </trkpt>
      <trkpt lat="46.26039" lon="10.5299">
        <ele>1683.808</ele>
        <time>2018-08-11T08:59:15Z</time>
      </trkpt>
      <trkpt lat="46.26043" lon="10.5298">
        <ele>1686.566</ele>
        <time>2018-08-11T08:59:35Z</time>
      </trkpt>
      <trkpt lat="46.26045" lon="10.52968">
        <ele>1687.461</ele>
        <time>2018-08-11T08:59:55Z</time>
      </trkpt>
      <trkpt lat="46.26046" lon="10.52962">
        <ele>1687.797</ele>
        <time>2018-08-11T09:00:15Z</time>
      </trkpt>
      <trkpt lat="46.26047" lon="10.52959">
        <ele>1687.731</ele>
        <time>2018-08-11T09:00:35Z</time>
      </trkpt>
      <trkpt lat="46.26048" lon="10.52945">
        <ele>1687.416</ele>
        <time>2018-08-11T09:00:55Z</time>
      </trkpt>
      <trkpt lat="46.26048" lon="10.52925">
        <ele>1685.447</ele>
        <time>2018-08-11T09:01:15Z</time>
      </trkpt>
      <trkpt lat="46.26047" lon="10.52903">
        <ele>1683.084</ele>
        <time>2018-08-11T09:01:35Z</time>
      </trkpt>
      <trkpt lat="46.2605" lon="10.5289">
        <ele>1683.947</ele>
        <time>2018-08-11T09:01:55Z</time>
      </trkpt>
      <trkpt lat="46.26052" lon="10.52874">
        <ele>1682.953</ele>
        <time>2018-08-11T09:02:15Z</time>
      </trkpt>
      <trkpt lat="46.26052" lon="10.52858">
        <ele>1681.404</ele>
        <time>2018-08-11T09:02:35Z</time>
      </trkpt>
      <trkpt lat="46.26051" lon="10.52838">
        <ele>1679.414</ele>
        <time>2018-08-11T09:02:55Z</time>
      </trkpt>
      <trkpt lat="46.26052" lon="10.52816">
        <ele>1678.508</ele>
        <time>2018-08-11T09:03:15Z</time>
      </trkpt>
      <trkpt lat="46.26056" lon="10.5279">
        <ele>1678.427</ele>
        <time>2018-08-11T09:03:35Z</time>
      </trkpt>
      <trkpt lat="46.26061" lon="10.52761">
        <ele>1680.012</ele>
        <time>2018-08-11T09:03:55Z</time>
      </trkpt>
      <trkpt lat="46.26062" lon="10.52759">
        <ele>1680.398</ele>
        <time>2018-08-11T09:04:15Z</time>
      </trkpt>
      <trkpt lat="46.26066" lon="10.52745">
        <ele>1682.192</ele>
        <time>2018-08-11T09:04:35Z</time>
      </trkpt>
      <trkpt lat="46.26071" lon="10.52732">
        <ele>1683.157</ele>
        <time>2018-08-11T09:04:55Z</time>
      </trkpt>
      <trkpt lat="46.26073" lon="10.52716">
        <ele>1681.818</ele>
        <time>2018-08-11T09:05:15Z</time>
      </trkpt>
      <trkpt lat="46.26075" lon="10.52695">
        <ele>1679.365</ele>
        <time>2018-08-11T09:05:35Z</time>
      </trkpt>
      <trkpt lat="46.2608" lon="10.52677">
        <ele>1678.618</ele>
        <time>2018-08-11T09:05:55Z</time>
      </trkpt>
      <trkpt lat="46.26087" lon="10.52665">
        <ele>1679.522</ele>
        <time>2018-08-11T09:06:15Z</time>
      </trkpt>
      <trkpt lat="46.26093" lon="10.52652">
        <ele>1680.962</ele>
        <time>2018-08-11T09:06:35Z</time>
      </trkpt>
      <trkpt lat="46.26098" lon="10.52636">
        <ele>1681.408</ele>
        <time>2018-08-11T09:06:55Z</time>
      </trkpt>
      <trkpt lat="46.26105" lon="10.52619">
        <ele>1683.308</ele>
        <time>2018-08-11T09:07:15Z</time>
      </trkpt>
      <trkpt lat="46.26114" lon="10.52606">
        <ele>1685.884</ele>
        <time>2018-08-11T09:07:35Z</time>
      </trkpt>
      <trkpt lat="46.26122" lon="10.52589">
        <ele>1685.499</ele>
        <time>2018-08-11T09:07:55Z</time>
      </trkpt>
      <trkpt lat="46.26127" lon="10.52571">
        <ele>1684.245</ele>
        <time>2018-08-11T09:08:15Z</time>
      </trkpt>
      <trkpt lat="46.26135" lon="10.52556">
        <ele>1684.199</ele>
        <time>2018-08-11T09:08:35Z</time>
      </trkpt>
      <trkpt lat="46.26143" lon="10.52536">
        <ele>1683.274</ele>
        <time>2018-08-11T09:08:55Z</time>
      </trkpt>
      <trkpt lat="46.26149" lon="10.52523">
        <ele>1683.185</ele>
        <time>2018-08-11T09:09:15Z</time>
      </trkpt>
      <trkpt lat="46.26156" lon="10.52514">
        <ele>1683.542</ele>
        <time>2018-08-11T09:09:35Z</time>
      </trkpt>
      <trkpt lat="46.26167" lon="10.52493">
        <ele>1681.835</ele>
        <time>2018-08-11T09:09:55Z</time>
      </trkpt>
      <trkpt lat="46.26178" lon="10.5249">
        <ele>1684.364</ele>
        <time>2018-08-11T09:10:15Z</time>
      </trkpt>
      <trkpt lat="46.26185" lon="10.52487">
        <ele>1685.106</ele>
        <time>2018-08-11T09:10:35Z</time>
      </trkpt>
      <trkpt lat="46.26201" lon="10.52481">
        <ele>1684.116</ele>
        <time>2018-08-11T09:10:55Z</time>
      </trkpt>
      <trkpt lat="46.26211" lon="10.52479">
        <ele>1682.808</ele>
        <time>2018-08-11T09:11:15Z</time>
      </trkpt>
      <trkpt lat="46.26218" lon="10.5248">
        <ele>1682.718</ele>
        <time>2018-08-11T09:11:35Z</time>
      </trkpt>
      <trkpt lat="46.26223" lon="10.52482">
        <ele>1683.323</ele>
        <time>2018-08-11T09:11:55Z</time>
      </trkpt>
      <trkpt lat="46.26236" lon="10.52489">
        <ele>1683.779</ele>
        <time>2018-08-11T09:12:15Z</time>
      </trkpt>
      <trkpt lat="46.2624" lon="10.5249">
        <ele>1683.513</ele>
        <time>2018-08-11T09:12:35Z</time>
      </trkpt>
      <trkpt lat="46.26245" lon="10.5249">
        <ele>1682.448</ele>
        <time>2018-08-11T09:12:55Z</time>
      </trkpt>
      <trkpt lat="46.26245" lon="10.5249">
        <ele>1682.489</ele>
        <time>2018-08-11T09:13:15Z</time>
      </trkpt>
      <trkpt lat="46.26253" lon="10.52495">
        <ele>1682.816</ele>
        <time>2018-08-11T09:13:35Z</time>
      </trkpt>
      <trkpt lat="46.26264" lon="10.52499">
        <ele>1681.549</ele>
        <time>2018-08-11T09:13:55Z</time>
      </trkpt>
      <trkpt lat="46.26277" lon="10.52508">
        <ele>1681.242</ele>
        <time>2018-08-11T09:14:15Z</time>
      </trkpt>
      <trkpt lat="46.2629" lon="10.52522">
        <ele>1681.422</ele>
        <time>2018-08-11T09:14:35Z</time>
      </trkpt>
      <trkpt lat="46.26297" lon="10.52529">
        <ele>1681.714</ele>
        <time>2018-08-11T09:14:55Z</time>
      </trkpt>
      <trkpt lat="46.26306" lon="10.52545">
        <ele>1683.608</ele>
        <time>2018-08-11T09:15:15Z</time>
      </trkpt>
      <trkpt lat="46.26308" lon="10.52548">
        <ele>1684.056</ele>
        <time>2018-08-11T09:15:35Z</time>
      </trkpt>
      <trkpt lat="46.26314" lon="10.52558">
        <ele>1685.741</ele>
        <time>2018-08-11T09:15:55Z</time>
      </trkpt>
      <trkpt lat="46.26348" lon="10.52585">
        <ele>1684.477</ele>
        <time>2018-08-11T09:16:15Z</time>
      </trkpt>
      <trkpt lat="46.26349" lon="10.52585">
        <ele>1684.311</ele>
        <time>2018-08-11T09:16:35Z</time>
      </trkpt>
      <trkpt lat="46.26351" lon="10.52586">
        <ele>1684.096</ele>
        <time>2018-08-11T09:16:55Z</time>
      </trkpt>
      <trkpt lat="46.26359" lon="10.52588">
        <ele>1683.237</ele>
        <time>2018-08-11T09:17:15Z</time>
      </trkpt>
      <trkpt lat="46.26367" lon="10.5259">
        <ele>1682.464</ele>
        <time>2018-08-11T09:17:35Z</time>
      </trkpt>
      <trkpt lat="46.26383" lon="10.52596">
        <ele>1683.387</ele>
        <time>2018-08-11T09:17:55Z</time>
      </trkpt>
      <trkpt lat="46.26385" lon="10.52596">
        <ele>1683.323</ele>
        <time>2018-08-11T09:18:15Z</time>
      </trkpt>
      <trkpt lat="46.26412" lon="10.52597">
        <ele>1679.683</ele>
        <time>2018-08-11T09:18:35Z</time>
      </trkpt>
      <trkpt lat="46.26415" lon="10.52598">
        <ele>1679.511</ele>
        <time>2018-08-11T09:18:55Z</time>
      </trkpt>
      <trkpt lat="46.26421" lon="10.52599">
        <ele>1678.108</ele>
        <time>2018-08-11T09:19:15Z</time>
      </trkpt>
      <trkpt lat="46.26429" lon="10.52601">
        <ele>1675.024</ele>
        <time>2018-08-11T09:19:35Z</time>
      </trkpt>
      <trkpt lat="46.26451" lon="10.52606">
        <ele>1666.359</ele>
        <time>2018-08-11T09:19:55Z</time>
      </trkpt>
      <trkpt lat="46.26458" lon="10.52614">
        <ele>1665.035</ele>
        <time>2018-08-11T09:20:15Z</time>
      </trkpt>
      <trkpt lat="46.26482" lon="10.52639">
        <ele>1658.259</ele>
        <time>2018-08-11T09:20:35Z</time>
      </trkpt>
      <trkpt lat="46.26488" lon="10.52647">
        <ele>1655.864</ele>
        <time>2018-08-11T09:20:55Z</time>
      </trkpt>
      <trkpt lat="46.26492" lon="10.52652">
        <ele>1654.295</ele>
        <time>2018-08-11T09:21:15Z</time>
      </trkpt>
      <trkpt lat="46.26505" lon="10.52669">
        <ele>1650.562</ele>
        <time>2018-08-11T09:21:35Z</time>
      </trkpt>
      <trkpt lat="46.2651" lon="10.52683">
        <ele>1653.855</ele>
        <time>2018-08-11T09:21:55Z</time>
      </trkpt>
      <trkpt lat="46.26519" lon="10.52691">
        <ele>1651.182</ele>
        <time>2018-08-11T09:22:15Z</time>
      </trkpt>
      <trkpt lat="46.26524" lon="10.52696">
        <ele>1649.343</ele>
        <time>2018-08-11T09:22:35Z</time>
      </trkpt>
      <trkpt lat="46.26534" lon="10.52708">
        <ele>1646.417</ele>
        <time>2018-08-11T09:22:55Z</time>
      </trkpt>
      <trkpt lat="46.26535" lon="10.5271">
        <ele>1646.108</ele>
        <time>2018-08-11T09:23:15Z</time>
      </trkpt>
      <trkpt lat="46.26544" lon="10.52717">
        <ele>1642.58</ele>
        <time>2018-08-11T09:23:35Z</time>
      </trkpt>
      <trkpt lat="46.26546" lon="10.52718">
        <ele>1641.655</ele>
        <time>2018-08-11T09:23:55Z</time>
      </trkpt>
      <trkpt lat="46.26555" lon="10.52716">
        <ele>1634.071</ele>
        <time>2018-08-11T09:24:15Z</time>
      </trkpt>
      <trkpt lat="46.26558" lon="10.52717">
        <ele>1633.875</ele>
        <time>2018-08-11T09:24:35Z</time>
      </trkpt>
      <trkpt lat="46.26567" lon="10.52714">
        <ele>1632.09</ele>
        <time>2018-08-11T09:24:55Z</time>
      </trkpt>
      <trkpt lat="46.26567" lon="10.52714">
        <ele>1632.071</ele>
        <time>2018-08-11T09:25:15Z</time>
      </trkpt>
      <trkpt lat="46.26568" lon="10.52714">
        <ele>1631.848</ele>
        <time>2018-08-11T09:25:35Z</time>
      </trkpt>
      <trkpt lat="46.26588" lon="10.52656">
        <ele>1608.021</ele>
        <time>2018-08-11T09:25:55Z</time>
      </trkpt>
      <trkpt lat="46.26589" lon="10.52655">
        <ele>1608.056</ele>
        <time>2018-08-11T09:26:15Z</time>
      </trkpt>
      <trkpt lat="46.26595" lon="10.52651">
        <ele>1608.959</ele>
        <time>2018-08-11T09:26:35Z</time>
      </trkpt>
      <trkpt lat="46.26607" lon="10.52637">
        <ele>1609.214</ele>
        <time>2018-08-11T09:26:55Z</time>
      </trkpt>
      <trkpt lat="46.26621" lon="10.52629">
        <ele>1612.708</ele>
        <time>2018-08-11T09:27:15Z</time>
      </trkpt>
      <trkpt lat="46.26631" lon="10.52622">
        <ele>1614.387</ele>
        <time>2018-08-11T09:27:35Z</time>
      </trkpt>
      <trkpt lat="46.26641" lon="10.52615">
        <ele>1614.892</ele>
        <time>2018-08-11T09:27:55Z</time>
      </trkpt>
      <trkpt lat="46.26645" lon="10.52611">
        <ele>1614.218</ele>
        <time>2018-08-11T09:28:15Z</time>
      </trkpt>
      <trkpt lat="46.26651" lon="10.52606">
        <ele>1613.362</ele>
        <time>2018-08-11T09:28:35Z</time>
      </trkpt>
      <trkpt lat="46.26668" lon="10.52597">
        <ele>1612.087</ele>
        <time>2018-08-11T09:28:55Z</time>
      </trkpt>
      <trkpt lat="46.267" lon="10.52587">
        <ele>1607.418</ele>
        <time>2018-08-11T09:29:15Z</time>
      </trkpt>
      <trkpt lat="46.26704" lon="10.52587">
        <ele>1607.135</ele>
        <time>2018-08-11T09:29:35Z</time>
      </trkpt>
      <trkpt lat="46.26719" lon="10.52585">
        <ele>1604.188</ele>
        <time>2018-08-11T09:29:55Z</time>
      </trkpt>
      <trkpt lat="46.26725" lon="10.52584">
        <ele>1602.585</ele>
        <time>2018-08-11T09:30:15Z</time>
      </trkpt>
      <trkpt lat="46.26741" lon="10.52581">
        <ele>1596.989</ele>
        <time>2018-08-11T09:30:35Z</time>
      </trkpt>
      <trkpt lat="46.26753" lon="10.52579">
        <ele>1592.917</ele>
        <time>2018-08-11T09:30:55Z</time>
      </trkpt>
      <trkpt lat="46.26772" lon="10.52587">
        <ele>1594.908</ele>
        <time>2018-08-11T09:31:15Z</time>
      </trkpt>
      <trkpt lat="46.26774" lon="10.52588">
        <ele>1595.05</ele>
        <time>2018-08-11T09:31:35Z</time>
      </trkpt>
      <trkpt lat="46.26774" lon="10.52588">
        <ele>1595.085</ele>
        <time>2018-08-11T09:31:55Z</time>
      </trkpt>
      <trkpt lat="46.26817" lon="10.52621">
        <ele>1593.091</ele>
        <time>2018-08-11T09:32:15Z</time>
      </trkpt>
      <trkpt lat="46.26829" lon="10.5263">
        <ele>1588.175</ele>
        <time>2018-08-11T09:32:35Z</time>
      </trkpt>
      <trkpt lat="46.26841" lon="10.52641">
        <ele>1582.24</ele>
        <time>2018-08-11T09:32:55Z</time>
      </trkpt>
      <trkpt lat="46.26849" lon="10.52652">
        <ele>1577.721</ele>
        <time>2018-08-11T09:33:15Z</time>
      </trkpt>
      <trkpt lat="46.26852" lon="10.52656">
        <ele>1575.968</ele>
        <time>2018-08-11T09:33:35Z</time>
      </trkpt>
      <trkpt lat="46.2686" lon="10.52671">
        <ele>1571.811</ele>
        <time>2018-08-11T09:33:55Z</time>
      </trkpt>
      <trkpt lat="46.26882" lon="10.52714">
        <ele>1564.133</ele>
        <time>2018-08-11T09:34:15Z</time>
      </trkpt>
      <trkpt lat="46.26883" lon="10.52705">
        <ele>1560.823</ele>
        <time>2018-08-11T09:34:35Z</time>
      </trkpt>
      <trkpt lat="46.26888" lon="10.52715">
        <ele>1560.915</ele>
        <time>2018-08-11T09:34:55Z</time>
      </trkpt>
      <trkpt lat="46.2689" lon="10.52703">
        <ele>1556.108</ele>
        <time>2018-08-11T09:35:15Z</time>
      </trkpt>
      <trkpt lat="46.2689" lon="10.52703">
        <ele>1556.165</ele>
        <time>2018-08-11T09:35:35Z</time>
      </trkpt>
      <trkpt lat="46.26897" lon="10.52689">
        <ele>1552.52</ele>
        <time>2018-08-11T09:35:55Z</time>
      </trkpt>
      <trkpt lat="46.269" lon="10.52684">
        <ele>1551.656</ele>
        <time>2018-08-11T09:36:15Z</time>
      </trkpt>
      <trkpt lat="46.26902" lon="10.52676">
        <ele>1548.88</ele>
        <time>2018-08-11T09:36:35Z</time>
      </trkpt>
      <trkpt lat="46.26902" lon="10.5267">
        <ele>1547.015</ele>
        <time>2018-08-11T09:36:55Z</time>
      </trkpt>
      <trkpt lat="46.26909" lon="10.52657">
        <ele>1543.216</ele>
        <time>2018-08-11T09:37:15Z</time>
      </trkpt>
      <trkpt lat="46.26912" lon="10.52652">
        <ele>1541.743</ele>
        <time>2018-08-11T09:37:35Z</time>
      </trkpt>
      <trkpt lat="46.2692" lon="10.52646">
        <ele>1541.876</ele>
        <time>2018-08-11T09:37:55Z</time>
      </trkpt>
      <trkpt lat="46.26943" lon="10.52607">
        <ele>1541.867</ele>
        <time>2018-08-11T09:38:15Z</time>
      </trkpt>
      <trkpt lat="46.26955" lon="10.52592">
        <ele>1542.781</ele>
        <time>2018-08-11T09:38:35Z</time>
      </trkpt>
      <trkpt lat="46.26962" lon="10.52584">
        <ele>1543.119</ele>
        <time>2018-08-11T09:38:55Z</time>
      </trkpt>
      <trkpt lat="46.26964" lon="10.52582">
        <ele>1543.908</ele>
        <time>2018-08-11T09:39:15Z</time>
      </trkpt>
      <trkpt lat="46.26974" lon="10.52578">
        <ele>1547.828</ele>
        <time>2018-08-11T09:39:35Z</time>
      </trkpt>
      <trkpt lat="46.2701" lon="10.52561">
        <ele>1548.523</ele>
        <time>2018-08-11T09:39:55Z</time>
      </trkpt>
      <trkpt lat="46.27043" lon="10.52551">
        <ele>1546.949</ele>
        <time>2018-08-11T09:40:15Z</time>
      </trkpt>
      <trkpt lat="46.27051" lon="10.52543">
        <ele>1544.543</ele>
        <time>2018-08-11T09:40:35Z</time>
      </trkpt>
      <trkpt lat="46.27068" lon="10.52525">
        <ele>1538.038</ele>
        <time>2018-08-11T09:40:55Z</time>
      </trkpt>
      <trkpt lat="46.27068" lon="10.52525">
        <ele>1537.829</ele>
        <time>2018-08-11T09:41:15Z</time>
      </trkpt>
      <trkpt lat="46.27073" lon="10.52516">
        <ele>1534.916</ele>
        <time>2018-08-11T09:41:35Z</time>
      </trkpt>
      <trkpt lat="46.27083" lon="10.52502">
        <ele>1529.799</ele>
        <time>2018-08-11T09:41:55Z</time>
      </trkpt>
      <trkpt lat="46.27093" lon="10.52497">
        <ele>1527.581</ele>
        <time>2018-08-11T09:42:15Z</time>
      </trkpt>
      <trkpt lat="46.27099" lon="10.52488">
        <ele>1524.861</ele>
        <time>2018-08-11T09:42:35Z</time>
      </trkpt>
      <trkpt lat="46.27107" lon="10.52472">
        <ele>1520.017</ele>
        <time>2018-08-11T09:42:55Z</time>
      </trkpt>
      <trkpt lat="46.27108" lon="10.52468">
        <ele>1518.808</ele>
        <time>2018-08-11T09:43:15Z</time>
      </trkpt>
      <trkpt lat="46.27113" lon="10.52452">
        <ele>1514.71</ele>
        <time>2018-08-11T09:43:35Z</time>
      </trkpt>
      <trkpt lat="46.27118" lon="10.52429">
        <ele>1508.675</ele>
        <time>2018-08-11T09:43:55Z</time>
      </trkpt>
      <trkpt lat="46.27122" lon="10.52405">
        <ele>1503.141</ele>
        <time>2018-08-11T09:44:15Z</time>
      </trkpt>
      <trkpt lat="46.27122" lon="10.52405">
        <ele>1503.165</ele>
        <time>2018-08-11T09:44:35Z</time>
      </trkpt>
      <trkpt lat="46.27123" lon="10.52401">
        <ele>1502.58</ele>
        <time>2018-08-11T09:44:55Z</time>
      </trkpt>
      <trkpt lat="46.27135" lon="10.52382">
        <ele>1498.531</ele>
        <time>2018-08-11T09:45:15Z</time>
      </trkpt>
      <trkpt lat="46.27135" lon="10.52379">
        <ele>1497.838</ele>
        <time>2018-08-11T09:45:35Z</time>
      </trkpt>
      <trkpt lat="46.27136" lon="10.52375">
        <ele>1497.051</ele>
        <time>2018-08-11T09:45:55Z</time>
      </trkpt>
      <trkpt lat="46.27136" lon="10.52373">
        <ele>1496.635</ele>
        <time>2018-08-11T09:46:15Z</time>
      </trkpt>
      <trkpt lat="46.27136" lon="10.52372">
        <ele>1496.386</ele>
        <time>2018-08-11T09:46:35Z</time>
      </trkpt>
      <trkpt lat="46.27141" lon="10.52365">
        <ele>1494.014</ele>
        <time>2018-08-11T09:46:55Z</time>
      </trkpt>
      <trkpt lat="46.27152" lon="10.52341">
        <ele>1486.408</ele>
        <time>2018-08-11T09:47:15Z</time>
      </trkpt>
      <trkpt lat="46.27151" lon="10.52331">
        <ele>1485.075</ele>
        <time>2018-08-11T09:47:35Z</time>
      </trkpt>
      <trkpt lat="46.27147" lon="10.52325">
        <ele>1485.05</ele>
        <time>2018-08-11T09:47:55Z</time>
      </trkpt>
      <trkpt lat="46.27142" lon="10.52321">
        <ele>1485.496</ele>
        <time>2018-08-11T09:48:15Z</time>
      </trkpt>
      <trkpt lat="46.2714" lon="10.52319">
        <ele>1485.66</ele>
        <time>2018-08-11T09:48:35Z</time>
      </trkpt>
      <trkpt lat="46.27132" lon="10.52323">
        <ele>1486.615</ele>
        <time>2018-08-11T09:48:55Z</time>
      </trkpt>
      <trkpt lat="46.27123" lon="10.52331">
        <ele>1488.586</ele>
        <time>2018-08-11T09:49:15Z</time>
      </trkpt>
      <trkpt lat="46.27113" lon="10.52336">
        <ele>1489.413</ele>
        <time>2018-08-11T09:49:35Z</time>
      </trkpt>
      <trkpt lat="46.27113" lon="10.52336">
        <ele>1489.446</ele>
        <time>2018-08-11T09:49:55Z</time>
      </trkpt>
      <trkpt lat="46.27111" lon="10.52333">
        <ele>1488.947</ele>
        <time>2018-08-11T09:50:15Z</time>
      </trkpt>
      <trkpt lat="46.27101" lon="10.52319">
        <ele>1484.629</ele>
        <time>2018-08-11T09:50:35Z</time>
      </trkpt>
      <trkpt lat="46.27093" lon="10.52307">
        <ele>1481.321</ele>
        <time>2018-08-11T09:50:55Z</time>
      </trkpt>
      <trkpt lat="46.27091" lon="10.52304">
        <ele>1480.408</ele>
        <time>2018-08-11T09:51:15Z</time>
      </trkpt>
      <trkpt lat="46.2709" lon="10.52301">
        <ele>1479.836</ele>
        <time>2018-08-11T09:51:35Z</time>
      </trkpt>
      <trkpt lat="46.27088" lon="10.52299">
        <ele>1479.281</ele>
        <time>2018-08-11T09:51:55Z</time>
      </trkpt>
      <trkpt lat="46.27087" lon="10.52295">
        <ele>1478.557</ele>
        <time>2018-08-11T09:52:15Z</time>
      </trkpt>
      <trkpt lat="46.27085" lon="10.52293">
        <ele>1477.941</ele>
        <time>2018-08-11T09:52:35Z</time>
      </trkpt>
      <trkpt lat="46.27084" lon="10.52292">
        <ele>1477.666</ele>
        <time>2018-08-11T09:52:55Z</time>
      </trkpt>
      <trkpt lat="46.27082" lon="10.5229">
        <ele>1476.617</ele>
        <time>2018-08-11T09:53:15Z</time>
      </trkpt>
      <trkpt lat="46.2708" lon="10.52289">
        <ele>1475.984</ele>
        <time>2018-08-11T09:53:35Z</time>
      </trkpt>
      <trkpt lat="46.27073" lon="10.52288">
        <ele>1473.217</ele>
        <time>2018-08-11T09:53:55Z</time>
      </trkpt>
      <trkpt lat="46.27072" lon="10.52288">
        <ele>1472.869</ele>
        <time>2018-08-11T09:54:15Z</time>
      </trkpt>
      <trkpt lat="46.27062" lon="10.52288">
        <ele>1469.604</ele>
        <time>2018-08-11T09:54:35Z</time>
      </trkpt>
      <trkpt lat="46.27062" lon="10.52287">
        <ele>1469.324</ele>
        <time>2018-08-11T09:54:55Z</time>
      </trkpt>
      <trkpt lat="46.27056" lon="10.52287">
        <ele>1467.308</ele>
        <time>2018-08-11T09:55:15Z</time>
      </trkpt>
      <trkpt lat="46.27055" lon="10.52284">
        <ele>1465.878</ele>
        <time>2018-08-11T09:55:35Z</time>
      </trkpt>
      <trkpt lat="46.27053" lon="10.52277">
        <ele>1462.973</ele>
        <time>2018-08-11T09:55:55Z</time>
      </trkpt>
      <trkpt lat="46.27051" lon="10.52267">
        <ele>1459.149</ele>
        <time>2018-08-11T09:56:15Z</time>
      </trkpt>
      <trkpt lat="46.27058" lon="10.52245">
        <ele>1454.253</ele>
        <time>2018-08-11T09:56:35Z</time>
      </trkpt>
      <trkpt lat="46.27113" lon="10.52218">
        <ele>1453.358</ele>
        <time>2018-08-11T09:56:55Z</time>
      </trkpt>
      <trkpt lat="46.27141" lon="10.52206">
        <ele>1449.259</ele>
        <time>2018-08-11T09:57:15Z</time>
      </trkpt>
      <trkpt lat="46.27165" lon="10.5219">
        <ele>1443.826</ele>
        <time>2018-08-11T09:57:35Z</time>
      </trkpt>
      <trkpt lat="46.27182" lon="10.52172">
        <ele>1438.659</ele>
        <time>2018-08-11T09:57:55Z</time>
      </trkpt>
      <trkpt lat="46.27169" lon="10.52153">
        <ele>1434.446</ele>
        <time>2018-08-11T09:58:15Z</time>
      </trkpt>
      <trkpt lat="46.27166" lon="10.52147">
        <ele>1433.088</ele>
        <time>2018-08-11T09:58:35Z</time>
      </trkpt>
      <trkpt lat="46.27158" lon="10.52145">
        <ele>1431.616</ele>
        <time>2018-08-11T09:58:55Z</time>
      </trkpt>
      <trkpt lat="46.27144" lon="10.5214">
        <ele>1428.808</ele>
        <time>2018-08-11T09:59:15Z</time>
      </trkpt>
      <trkpt lat="46.27124" lon="10.52128">
        <ele>1423.466</ele>
        <time>2018-08-11T09:59:35Z</time>
      </trkpt>
      <trkpt lat="46.27102" lon="10.52109">
        <ele>1416.681</ele>
        <time>2018-08-11T09:59:55Z</time>
      </trkpt>
      <trkpt lat="46.2709" lon="10.52088">
        <ele>1410.317</ele>
        <time>2018-08-11T10:00:15Z</time>
      </trkpt>
      <trkpt lat="46.27083" lon="10.52077">
        <ele>1407.341</ele>
        <time>2018-08-11T10:00:35Z</time>
      </trkpt>
      <trkpt lat="46.27072" lon="10.52063">
        <ele>1402.146</ele>
        <time>2018-08-11T10:00:55Z</time>
      </trkpt>
      <trkpt lat="46.2707" lon="10.52055">
        <ele>1399.317</ele>
        <time>2018-08-11T10:01:15Z</time>
      </trkpt>
      <trkpt lat="46.2707" lon="10.52055">
        <ele>1399.244</ele>
        <time>2018-08-11T10:01:35Z</time>
      </trkpt>
      <trkpt lat="46.27068" lon="10.52052">
        <ele>1397.557</ele>
        <time>2018-08-11T10:01:55Z</time>
      </trkpt>
      <trkpt lat="46.27068" lon="10.52051">
        <ele>1396.924</ele>
        <time>2018-08-11T10:02:15Z</time>
      </trkpt>
      <trkpt lat="46.27067" lon="10.5205">
        <ele>1396.104</ele>
        <time>2018-08-11T10:02:35Z</time>
      </trkpt>
      <trkpt lat="46.27067" lon="10.52048">
        <ele>1395.114</ele>
        <time>2018-08-11T10:02:55Z</time>
      </trkpt>
      <trkpt lat="46.27068" lon="10.52046">
        <ele>1394.308</ele>
        <time>2018-08-11T10:03:15Z</time>
      </trkpt>
      <trkpt lat="46.2707" lon="10.52044">
        <ele>1393.574</ele>
        <time>2018-08-11T10:03:35Z</time>
      </trkpt>
      <trkpt lat="46.27073" lon="10.52041">
        <ele>1392.579</ele>
        <time>2018-08-11T10:03:55Z</time>
      </trkpt>
      <trkpt lat="46.27075" lon="10.5204">
        <ele>1392.135</ele>
        <time>2018-08-11T10:04:15Z</time>
      </trkpt>
      <trkpt lat="46.27077" lon="10.52039">
        <ele>1391.819</ele>
        <time>2018-08-11T10:04:35Z</time>
      </trkpt>
      <trkpt lat="46.27082" lon="10.52037">
        <ele>1391.794</ele>
        <time>2018-08-11T10:04:55Z</time>
      </trkpt>
      <trkpt lat="46.27084" lon="10.52037">
        <ele>1391.745</ele>
        <time>2018-08-11T10:05:15Z</time>
      </trkpt>
      <trkpt lat="46.27086" lon="10.52037">
        <ele>1391.572</ele>
        <time>2018-08-11T10:05:35Z</time>
      </trkpt>
      <trkpt lat="46.27096" lon="10.52037">
        <ele>1391.175</ele>
        <time>2018-08-11T10:05:55Z</time>
      </trkpt>
      <trkpt lat="46.27108" lon="10.52037">
        <ele>1390.435</ele>
        <time>2018-08-11T10:06:15Z</time>
      </trkpt>
      <trkpt lat="46.27118" lon="10.52035">
        <ele>1389.086</ele>
        <time>2018-08-11T10:06:35Z</time>
      </trkpt>
      <trkpt lat="46.2712" lon="10.52036">
        <ele>1389.214</ele>
        <time>2018-08-11T10:06:55Z</time>
      </trkpt>
      <trkpt lat="46.27122" lon="10.52036">
        <ele>1389.408</ele>
        <time>2018-08-11T10:07:15Z</time>
      </trkpt>
      <trkpt lat="46.27127" lon="10.52037">
        <ele>1389.655</ele>
        <time>2018-08-11T10:07:35Z</time>
      </trkpt>
      <trkpt lat="46.27133" lon="10.52037">
        <ele>1389.44</ele>
        <time>2018-08-11T10:07:55Z</time>
      </trkpt>
      <trkpt lat="46.27137" lon="10.52037">
        <ele>1389.256</ele>
        <time>2018-08-11T10:08:15Z</time>
      </trkpt>
      <trkpt lat="46.27139" lon="10.52036">
        <ele>1388.73</ele>
        <time>2018-08-11T10:08:35Z</time>
      </trkpt>
      <trkpt lat="46.27141" lon="10.52035">
        <ele>1388.135</ele>
        <time>2018-08-11T10:08:55Z</time>
      </trkpt>
      <trkpt lat="46.27143" lon="10.52034">
        <ele>1387.416</ele>
        <time>2018-08-11T10:09:15Z</time>
      </trkpt>
      <trkpt lat="46.27145" lon="10.52032">
        <ele>1386.413</ele>
        <time>2018-08-11T10:09:35Z</time>
      </trkpt>
      <trkpt lat="46.27148" lon="10.52029">
        <ele>1384.786</ele>
        <time>2018-08-11T10:09:55Z</time>
      </trkpt>
      <trkpt lat="46.27151" lon="10.52026">
        <ele>1383.411</ele>
        <time>2018-08-11T10:10:15Z</time>
      </trkpt>
      <trkpt lat="46.27153" lon="10.52024">
        <ele>1382.921</ele>
        <time>2018-08-11T10:10:35Z</time>
      </trkpt>
      <trkpt lat="46.27156" lon="10.52023">
        <ele>1382.203</ele>
        <time>2018-08-11T10:10:55Z</time>
      </trkpt>
      <trkpt lat="46.27159" lon="10.52021">
        <ele>1381.608</ele>
        <time>2018-08-11T10:11:15Z</time>
      </trkpt>
      <trkpt lat="46.27166" lon="10.52016">
        <ele>1379.993</ele>
        <time>2018-08-11T10:11:35Z</time>
      </trkpt>
      <trkpt lat="46.27169" lon="10.52014">
        <ele>1379.148</ele>
        <time>2018-08-11T10:11:55Z</time>
      </trkpt>
      <trkpt lat="46.27171" lon="10.52012">
        <ele>1378.444</ele>
        <time>2018-08-11T10:12:15Z</time>
      </trkpt>
      <trkpt lat="46.27176" lon="10.52008">
        <ele>1376.818</ele>
        <time>2018-08-11T10:12:35Z</time>
      </trkpt>
      <trkpt lat="46.27179" lon="10.52005">
        <ele>1376.093</ele>
        <time>2018-08-11T10:12:55Z</time>
      </trkpt>
      <trkpt lat="46.27184" lon="10.52">
        <ele>1374.354</ele>
        <time>2018-08-11T10:13:15Z</time>
      </trkpt>
      <trkpt lat="46.27187" lon="10.51999">
        <ele>1373.951</ele>
        <time>2018-08-11T10:13:35Z</time>
      </trkpt>
      <trkpt lat="46.27189" lon="10.51997">
        <ele>1373.734</ele>
        <time>2018-08-11T10:13:55Z</time>
      </trkpt>
      <trkpt lat="46.27192" lon="10.51995">
        <ele>1373.391</ele>
        <time>2018-08-11T10:14:15Z</time>
      </trkpt>
      <trkpt lat="46.27194" lon="10.51994">
        <ele>1373.081</ele>
        <time>2018-08-11T10:14:35Z</time>
      </trkpt>
      <trkpt lat="46.27198" lon="10.51991">
        <ele>1372.219</ele>
        <time>2018-08-11T10:14:55Z</time>
      </trkpt>
      <trkpt lat="46.27201" lon="10.51989">
        <ele>1371.708</ele>
        <time>2018-08-11T10:15:15Z</time>
      </trkpt>
      <trkpt lat="46.27205" lon="10.51987">
        <ele>1371.291</ele>
        <time>2018-08-11T10:15:35Z</time>
      </trkpt>
      <trkpt lat="46.27214" lon="10.51984">
        <ele>1370.416</ele>
        <time>2018-08-11T10:15:55Z</time>
      </trkpt>
      <trkpt lat="46.2722" lon="10.51982">
        <ele>1369.952</ele>
        <time>2018-08-11T10:16:15Z</time>
      </trkpt>
      <trkpt lat="46.27228" lon="10.5198">
        <ele>1368.676</ele>
        <time>2018-08-11T10:16:35Z</time>
      </trkpt>
      <trkpt lat="46.27234" lon="10.51979">
        <ele>1367.461</ele>
        <time>2018-08-11T10:16:55Z</time>
      </trkpt>
      <trkpt lat="46.2724" lon="10.51978">
        <ele>1366.532</ele>
        <time>2018-08-11T10:17:15Z</time>
      </trkpt>
      <trkpt lat="46.27241" lon="10.51978">
        <ele>1366.369</ele>
        <time>2018-08-11T10:17:35Z</time>
      </trkpt>
      <trkpt lat="46.27245" lon="10.51976">
        <ele>1364.872</ele>
        <time>2018-08-11T10:17:55Z</time>
      </trkpt>
      <trkpt lat="46.27245" lon="10.51972">
        <ele>1363.756</ele>
        <time>2018-08-11T10:18:15Z</time>
      </trkpt>
      <trkpt lat="46.27211" lon="10.51945">
        <ele>1357.559</ele>
        <time>2018-08-11T10:18:35Z</time>
      </trkpt>
      <trkpt lat="46.27188" lon="10.51934">
        <ele>1354.614</ele>
        <time>2018-08-11T10:18:55Z</time>
      </trkpt>
      <trkpt lat="46.27157" lon="10.51926">
        <ele>1349.308</ele>
        <time>2018-08-11T10:19:15Z</time>
      </trkpt>
      <trkpt lat="46.27114" lon="10.51906">
        <ele>1332.427</ele>
        <time>2018-08-11T10:19:35Z</time>
      </trkpt>
      <trkpt lat="46.27085" lon="10.51895">
        <ele>1326.172</ele>
        <time>2018-08-11T10:19:55Z</time>
      </trkpt>
      <trkpt lat="46.27069" lon="10.51875">
        <ele>1325.098</ele>
        <time>2018-08-11T10:20:15Z</time>
      </trkpt>
      <trkpt lat="46.27062" lon="10.51868">
        <ele>1325.092</ele>
        <time>2018-08-11T10:20:35Z</time>
      </trkpt>
      <trkpt lat="46.2706" lon="10.51865">
        <ele>1325.097</ele>
        <time>2018-08-11T10:20:55Z</time>
      </trkpt>
      <trkpt lat="46.27053" lon="10.51852">
        <ele>1325.068</ele>
        <time>2018-08-11T10:21:15Z</time>
      </trkpt>
      <trkpt lat="46.27044" lon="10.51843">
        <ele>1325.065</ele>
        <time>2018-08-11T10:21:35Z</time>
      </trkpt>
      <trkpt lat="46.2704" lon="10.51838">
        <ele>1325.018</ele>
        <time>2018-08-11T10:21:55Z</time>
      </trkpt>
      <trkpt lat="46.27025" lon="10.51828">
        <ele>1325.037</ele>
        <time>2018-08-11T10:22:15Z</time>
      </trkpt>
      <trkpt lat="46.27011" lon="10.51819">
        <ele>1325.049</ele>
        <time>2018-08-11T10:22:35Z</time>
      </trkpt>
      <trkpt lat="46.27011" lon="10.51818">
        <ele>1325.013</ele>
        <time>2018-08-11T10:22:55Z</time>
      </trkpt>
      <trkpt lat="46.27009" lon="10.51818">
        <ele>1325.008</ele>
        <time>2018-08-11T10:23:15Z</time>
      </trkpt>
      <trkpt lat="46.26991" lon="10.51806">
        <ele>1325.045</ele>
        <time>2018-08-11T10:23:35Z</time>
      </trkpt>
      <trkpt lat="46.26949" lon="10.51788">
        <ele>1325.07</ele>
        <time>2018-08-11T10:23:55Z</time>
      </trkpt>
      <trkpt lat="46.26929" lon="10.51781">
        <ele>1322.216</ele>
        <time>2018-08-11T10:24:15Z</time>
      </trkpt>
      <trkpt lat="46.26922" lon="10.51779">
        <ele>1320.98</ele>
        <time>2018-08-11T10:24:35Z</time>
      </trkpt>
      <trkpt lat="46.26901" lon="10.51775">
        <ele>1319.075</ele>
        <time>2018-08-11T10:24:55Z</time>
      </trkpt>
      <trkpt lat="46.26897" lon="10.51774">
        <ele>1318.886</ele>
        <time>2018-08-11T10:25:15Z</time>
      </trkpt>
      <trkpt lat="46.26854" lon="10.51797">
        <ele>1307.123</ele>
        <time>2018-08-11T10:25:35Z</time>
      </trkpt>
      <trkpt lat="46.26832" lon="10.51813">
        <ele>1300.026</ele>
        <time>2018-08-11T10:25:55Z</time>
      </trkpt>
      <trkpt lat="46.26798" lon="10.51817">
        <ele>1300.066</ele>
        <time>2018-08-11T10:26:15Z</time>
      </trkpt>
      <trkpt lat="46.26795" lon="10.51816">
        <ele>1300.029</ele>
        <time>2018-08-11T10:26:35Z</time>
      </trkpt>
      <trkpt lat="46.26769" lon="10.51806">
        <ele>1300.021</ele>
        <time>2018-08-11T10:26:55Z</time>
      </trkpt>
      <trkpt lat="46.26729" lon="10.51782">
        <ele>1300.008</ele>
        <time>2018-08-11T10:27:15Z</time>
      </trkpt>
      <trkpt lat="46.2671" lon="10.51765">
        <ele>1300.088</ele>
        <time>2018-08-11T10:27:35Z</time>
      </trkpt>
      <trkpt lat="46.26698" lon="10.51747">
        <ele>1300.233</ele>
        <time>2018-08-11T10:27:55Z</time>
      </trkpt>
      <trkpt lat="46.26706" lon="10.51721">
        <ele>1304.079</ele>
        <time>2018-08-11T10:28:15Z</time>
      </trkpt>
      <trkpt lat="46.26671" lon="10.51683">
        <ele>1307.413</ele>
        <time>2018-08-11T10:28:35Z</time>
      </trkpt>
      <trkpt lat="46.26664" lon="10.51675">
        <ele>1307.878</ele>
        <time>2018-08-11T10:28:55Z</time>
      </trkpt>
      <trkpt lat="46.26652" lon="10.51661">
        <ele>1307.969</ele>
        <time>2018-08-11T10:29:15Z</time>
      </trkpt>
      <trkpt lat="46.26612" lon="10.51656">
        <ele>1300.976</ele>
        <time>2018-08-11T10:29:35Z</time>
      </trkpt>
      <trkpt lat="46.26611" lon="10.51655">
        <ele>1300.819</ele>
        <time>2018-08-11T10:29:55Z</time>
      </trkpt>
      <trkpt lat="46.26569" lon="10.51653">
        <ele>1300.027</ele>
        <time>2018-08-11T10:30:15Z</time>
      </trkpt>
      <trkpt lat="46.26568" lon="10.51653">
        <ele>1300.068</ele>
        <time>2018-08-11T10:30:35Z</time>
      </trkpt>
      <trkpt lat="46.26563" lon="10.51652">
        <ele>1300.014</ele>
        <time>2018-08-11T10:30:55Z</time>
      </trkpt>
      <trkpt lat="46.26547" lon="10.51647">
        <ele>1299.708</ele>
        <time>2018-08-11T10:31:15Z</time>
      </trkpt>
      <trkpt lat="46.26525" lon="10.51639">
        <ele>1298.634</ele>
        <time>2018-08-11T10:31:35Z</time>
      </trkpt>
      <trkpt lat="46.26495" lon="10.51621">
        <ele>1295.569</ele>
        <time>2018-08-11T10:31:55Z</time>
      </trkpt>
      <trkpt lat="46.26481" lon="10.51613">
        <ele>1294.095</ele>
        <time>2018-08-11T10:32:15Z</time>
      </trkpt>
      <trkpt lat="46.26425" lon="10.51566">
        <ele>1285.099</ele>
        <time>2018-08-11T10:32:35Z</time>
      </trkpt>
      <trkpt lat="46.26401" lon="10.5154">
        <ele>1284.664</ele>
        <time>2018-08-11T10:32:55Z</time>
      </trkpt>
      <trkpt lat="46.26369" lon="10.51504">
        <ele>1284.975</ele>
        <time>2018-08-11T10:33:15Z</time>
      </trkpt>
      <trkpt lat="46.26332" lon="10.51469">
        <ele>1282.122</ele>
        <time>2018-08-11T10:33:35Z</time>
      </trkpt>
      <trkpt lat="46.26327" lon="10.51463">
        <ele>1281.885</ele>
        <time>2018-08-11T10:33:55Z</time>
      </trkpt>
      <trkpt lat="46.26323" lon="10.5146">
        <ele>1281.773</ele>
        <time>2018-08-11T10:34:15Z</time>
      </trkpt>
      <trkpt lat="46.26313" lon="10.51448">
        <ele>1281.585</ele>
        <time>2018-08-11T10:34:35Z</time>
      </trkpt>
      <trkpt lat="46.26294" lon="10.51436">
        <ele>1279.513</ele>
        <time>2018-08-11T10:34:55Z</time>
      </trkpt>
      <trkpt lat="46.26287" lon="10.51428">
        <ele>1279.108</ele>
        <time>2018-08-11T10:35:15Z</time>
      </trkpt>
      <trkpt lat="46.26271" lon="10.51409">
        <ele>1278.689</ele>
        <time>2018-08-11T10:35:35Z</time>
      </trkpt>
      <trkpt lat="46.26266" lon="10.51401">
        <ele>1278.324</ele>
        <time>2018-08-11T10:35:55Z</time>
      </trkpt>
      <trkpt lat="46.26261" lon="10.51386">
        <ele>1277.83</ele>
        <time>2018-08-11T10:36:15Z</time>
      </trkpt>
      <trkpt lat="46.26254" lon="10.51365">
        <ele>1276.214</ele>
        <time>2018-08-11T10:36:35Z</time>
      </trkpt>
      <trkpt lat="46.26245" lon="10.51343">
        <ele>1275.019</ele>
        <time>2018-08-11T10:36:55Z</time>
      </trkpt>
      <trkpt lat="46.2624" lon="10.51324">
        <ele>1275.64</ele>
        <time>2018-08-11T10:37:15Z</time>
      </trkpt>
      <trkpt lat="46.26228" lon="10.51303">
        <ele>1275.667</ele>
        <time>2018-08-11T10:37:35Z</time>
      </trkpt>
      <trkpt lat="46.26218" lon="10.51288">
        <ele>1274.79</ele>
        <time>2018-08-11T10:37:55Z</time>
      </trkpt>
      <trkpt lat="46.26207" lon="10.51265">
        <ele>1273.991</ele>
        <time>2018-08-11T10:38:15Z</time>
      </trkpt>
      <trkpt lat="46.26201" lon="10.51248">
        <ele>1273.581</ele>
        <time>2018-08-11T10:38:35Z</time>
      </trkpt>
      <trkpt lat="46.26189" lon="10.51193">
        <ele>1273.319</ele>
        <time>2018-08-11T10:38:55Z</time>
      </trkpt>
      <trkpt lat="46.26187" lon="10.51175">
        <ele>1273.108</ele>
        <time>2018-08-11T10:39:15Z</time>
      </trkpt>
      <trkpt lat="46.26179" lon="10.51149">
        <ele>1272.311</ele>
        <time>2018-08-11T10:39:35Z</time>
      </trkpt>
      <trkpt lat="46.26176" lon="10.51129">
        <ele>1272.056</ele>
        <time>2018-08-11T10:39:55Z</time>
      </trkpt>
      <trkpt lat="46.2616" lon="10.51099">
        <ele>1270.432</ele>
        <time>2018-08-11T10:40:15Z</time>
      </trkpt>
      <trkpt lat="46.26146" lon="10.51072">
        <ele>1269.996</ele>
        <time>2018-08-11T10:40:35Z</time>
      </trkpt>
      <trkpt lat="46.26132" lon="10.51052">
        <ele>1269.371</ele>
        <time>2018-08-11T10:40:55Z</time>
      </trkpt>
      <trkpt lat="46.26117" lon="10.51032">
        <ele>1267.792</ele>
        <time>2018-08-11T10:41:15Z</time>
      </trkpt>
      <trkpt lat="46.26106" lon="10.51013">
        <ele>1266.129</ele>
        <time>2018-08-11T10:41:35Z</time>
      </trkpt>
      <trkpt lat="46.26091" lon="10.51004">
        <ele>1262.242</ele>
        <time>2018-08-11T10:41:55Z</time>
      </trkpt>
      <trkpt lat="46.26078" lon="10.50994">
        <ele>1258.033</ele>
        <time>2018-08-11T10:42:15Z</time>
      </trkpt>
      <trkpt lat="46.26067" lon="10.50986">
        <ele>1254.623</ele>
        <time>2018-08-11T10:42:35Z</time>
      </trkpt>
      <trkpt lat="46.2606" lon="10.50977">
        <ele>1251.615</ele>
        <time>2018-08-11T10:42:55Z</time>
      </trkpt>
      <trkpt lat="46.26055" lon="10.50975">
        <ele>1250.108</ele>
        <time>2018-08-11T10:43:15Z</time>
      </trkpt>
      <trkpt lat="46.26053" lon="10.50972">
        <ele>1250.035</ele>
        <time>2018-08-11T10:43:35Z</time>
      </trkpt>
      <trkpt lat="46.26045" lon="10.50964">
        <ele>1250.07</ele>
        <time>2018-08-11T10:43:55Z</time>
      </trkpt>
      <trkpt lat="46.26038" lon="10.50986">
        <ele>1250.346</ele>
        <time>2018-08-11T10:44:15Z</time>
      </trkpt>
      <trkpt lat="46.26036" lon="10.50989">
        <ele>1250.33</ele>
        <time>2018-08-11T10:44:35Z</time>
      </trkpt>
      <trkpt lat="46.26031" lon="10.51">
        <ele>1250.255</ele>
        <time>2018-08-11T10:44:55Z</time>
      </trkpt>
      <trkpt lat="46.26022" lon="10.51005">
        <ele>1250.426</ele>
        <time>2018-08-11T10:45:15Z</time>
      </trkpt>
      <trkpt lat="46.26015" lon="10.51011">
        <ele>1250.713</ele>
        <time>2018-08-11T10:45:35Z</time>
      </trkpt>
      <trkpt lat="46.26003" lon="10.51025">
        <ele>1251.156</ele>
        <time>2018-08-11T10:45:55Z</time>
      </trkpt>
      <trkpt lat="46.25998" lon="10.51036">
        <ele>1251.422</ele>
        <time>2018-08-11T10:46:15Z</time>
      </trkpt>
      <trkpt lat="46.25996" lon="10.51047">
        <ele>1252.062</ele>
        <time>2018-08-11T10:46:35Z</time>
      </trkpt>
      <trkpt lat="46.25994" lon="10.51058">
        <ele>1252.408</ele>
        <time>2018-08-11T10:46:55Z</time>
      </trkpt>
      <trkpt lat="46.25984" lon="10.51096">
        <ele>1252.308</ele>
        <time>2018-08-11T10:47:15Z</time>
      </trkpt>
      <trkpt lat="46.25971" lon="10.51183">
        <ele>1250.064</ele>
        <time>2018-08-11T10:47:35Z</time>
      </trkpt>
      <trkpt lat="46.2597" lon="10.51208">
        <ele>1250.099</ele>
        <time>2018-08-11T10:47:55Z</time>
      </trkpt>
      <trkpt lat="46.25931" lon="10.51332">
        <ele>1250.085</ele>
        <time>2018-08-11T10:48:15Z</time>
      </trkpt>
      <trkpt lat="46.25922" lon="10.51369">
        <ele>1250.179</ele>
        <time>2018-08-11T10:48:35Z</time>
      </trkpt>
      <trkpt lat="46.25915" lon="10.51399">
        <ele>1251.334</ele>
        <time>2018-08-11T10:48:55Z</time>
      </trkpt>
      <trkpt lat="46.25908" lon="10.51418">
        <ele>1253.825</ele>
        <time>2018-08-11T10:49:15Z</time>
      </trkpt>
      <trkpt lat="46.25892" lon="10.51437">
        <ele>1255.292</ele>
        <time>2018-08-11T10:49:35Z</time>
      </trkpt>
      <trkpt lat="46.25866" lon="10.51481">
        <ele>1258.155</ele>
        <time>2018-08-11T10:49:55Z</time>
      </trkpt>
      <trkpt lat="46.25851" lon="10.51503">
        <ele>1259.821</ele>
        <time>2018-08-11T10:50:15Z</time>
      </trkpt>
      <trkpt lat="46.25824" lon="10.51546">
        <ele>1261.741</ele>
        <time>2018-08-11T10:50:35Z</time>
      </trkpt>
      <trkpt lat="46.25804" lon="10.51577">
        <ele>1262.405</ele>
        <time>2018-08-11T10:50:55Z</time>
      </trkpt>
      <trkpt lat="46.25755" lon="10.51626">
        <ele>1262.808</ele>
        <time>2018-08-11T10:51:15Z</time>
      </trkpt>
      <trkpt lat="46.25737" lon="10.51641">
        <ele>1263.124</ele>
        <time>2018-08-11T10:51:35Z</time>
      </trkpt>
      <trkpt lat="46.2572" lon="10.51655">
        <ele>1263.579</ele>
        <time>2018-08-11T10:51:55Z</time>
      </trkpt>
      <trkpt lat="46.25711" lon="10.51676">
        <ele>1263.915</ele>
        <time>2018-08-11T10:52:15Z</time>
      </trkpt>
      <trkpt lat="46.25709" lon="10.51681">
        <ele>1264.039</ele>
        <time>2018-08-11T10:52:35Z</time>
      </trkpt>
      <trkpt lat="46.25638" lon="10.51626">
        <ele>1262.584</ele>
        <time>2018-08-11T10:52:55Z</time>
      </trkpt>
      <trkpt lat="46.25607" lon="10.51633">
        <ele>1264.085</ele>
        <time>2018-08-11T10:53:15Z</time>
      </trkpt>
      <trkpt lat="46.25607" lon="10.51633">
        <ele>1264.172</ele>
        <time>2018-08-11T10:53:35Z</time>
      </trkpt>
      <trkpt lat="46.25574" lon="10.51688">
        <ele>1267.195</ele>
        <time>2018-08-11T10:53:55Z</time>
      </trkpt>
      <trkpt lat="46.2557" lon="10.51694">
        <ele>1267.423</ele>
        <time>2018-08-11T10:54:15Z</time>
      </trkpt>
      <trkpt lat="46.25542" lon="10.51668">
        <ele>1267.583</ele>
        <time>2018-08-11T10:54:35Z</time>
      </trkpt>
      <trkpt lat="46.25502" lon="10.51632">
        <ele>1268.911</ele>
        <time>2018-08-11T10:54:55Z</time>
      </trkpt>
      <trkpt lat="46.25492" lon="10.51631">
        <ele>1269.308</ele>
        <time>2018-08-11T10:55:15Z</time>
      </trkpt>
      <trkpt lat="46.25486" lon="10.51629">
        <ele>1269.414</ele>
        <time>2018-08-11T10:55:35Z</time>
      </trkpt>
      <trkpt lat="46.25479" lon="10.51625">
        <ele>1269.759</ele>
        <time>2018-08-11T10:55:55Z</time>
      </trkpt>
      <trkpt lat="46.25478" lon="10.51625">
        <ele>1269.715</ele>
        <time>2018-08-11T10:56:15Z</time>
      </trkpt>
      <trkpt lat="46.25451" lon="10.51661">
        <ele>1271.599</ele>
        <time>2018-08-11T10:56:35Z</time>
      </trkpt>
      <trkpt lat="46.25447" lon="10.51668">
        <ele>1271.754</ele>
        <time>2018-08-11T10:56:55Z</time>
      </trkpt>
      <trkpt lat="46.25437" lon="10.51689">
        <ele>1272.235</ele>
        <time>2018-08-11T10:57:15Z</time>
      </trkpt>
      <trkpt lat="46.25435" lon="10.51692">
        <ele>1272.352</ele>
        <time>2018-08-11T10:57:35Z</time>
      </trkpt>
      <trkpt lat="46.25374" lon="10.51815">
        <ele>1274.055</ele>
        <time>2018-08-11T10:57:55Z</time>
      </trkpt>
      <trkpt lat="46.25357" lon="10.51853">
        <ele>1274.189</ele>
        <time>2018-08-11T10:58:15Z</time>
      </trkpt>
      <trkpt lat="46.25336" lon="10.51908">
        <ele>1274.006</ele>
        <time>2018-08-11T10:58:35Z</time>
      </trkpt>
      <trkpt lat="46.25292" lon="10.51998">
        <ele>1275.626</ele>
        <time>2018-08-11T10:58:55Z</time>
      </trkpt>
      <trkpt lat="46.25249" lon="10.5207">
        <ele>1287.108</ele>
        <time>2018-08-11T10:59:15Z</time>
      </trkpt>
      <trkpt lat="46.25243" lon="10.52079">
        <ele>1288.85</ele>
        <time>2018-08-11T10:59:35Z</time>
      </trkpt>
      <trkpt lat="46.2523" lon="10.52095">
        <ele>1294.395</ele>
        <time>2018-08-11T10:59:55Z</time>
      </trkpt>
      <trkpt lat="46.25237" lon="10.52026">
        <ele>1302.761</ele>
        <time>2018-08-11T11:00:15Z</time>
      </trkpt>
      <trkpt lat="46.25203" lon="10.52078">
        <ele>1312.455</ele>
        <time>2018-08-11T11:00:35Z</time>
      </trkpt>
      <trkpt lat="46.25209" lon="10.52035">
        <ele>1319.75</ele>
        <time>2018-08-11T11:00:55Z</time>
      </trkpt>
      <trkpt lat="46.25194" lon="10.52051">
        <ele>1326.911</ele>
        <time>2018-08-11T11:01:15Z</time>
      </trkpt>
      <trkpt lat="46.25168" lon="10.52072">
        <ele>1330.418</ele>
        <time>2018-08-11T11:01:35Z</time>
      </trkpt>
      <trkpt lat="46.25143" lon="10.52085">
        <ele>1336.181</ele>
        <time>2018-08-11T11:01:55Z</time>
      </trkpt>
      <trkpt lat="46.25137" lon="10.5209">
        <ele>1337.261</ele>
        <time>2018-08-11T11:02:15Z</time>
      </trkpt>
      <trkpt lat="46.25147" lon="10.52062">
        <ele>1339.321</ele>
        <time>2018-08-11T11:02:35Z</time>
      </trkpt>
      <trkpt lat="46.25162" lon="10.52024">
        <ele>1341.913</ele>
        <time>2018-08-11T11:02:55Z</time>
      </trkpt>
      <trkpt lat="46.25162" lon="10.52023">
        <ele>1342.008</ele>
        <time>2018-08-11T11:03:15Z</time>
      </trkpt>
      <trkpt lat="46.2515" lon="10.5203">
        <ele>1344.518</ele>
        <time>2018-08-11T11:03:35Z</time>
      </trkpt>
      <trkpt lat="46.25155" lon="10.52025">
        <ele>1343.993</ele>
        <time>2018-08-11T11:03:55Z</time>
      </trkpt>
      <trkpt lat="46.25163" lon="10.52018">
        <ele>1342.959</ele>
        <time>2018-08-11T11:04:15Z</time>
      </trkpt>
      <trkpt lat="46.25163" lon="10.52009">
        <ele>1344.453</ele>
        <time>2018-08-11T11:04:35Z</time>
      </trkpt>
      <trkpt lat="46.25149" lon="10.52021">
        <ele>1346.298</ele>
        <time>2018-08-11T11:04:55Z</time>
      </trkpt>
      <trkpt lat="46.25148" lon="10.5199">
        <ele>1351.999</ele>
        <time>2018-08-11T11:05:15Z</time>
      </trkpt>
      <trkpt lat="46.25153" lon="10.51968">
        <ele>1353.866</ele>
        <time>2018-08-11T11:05:35Z</time>
      </trkpt>
      <trkpt lat="46.25152" lon="10.51947">
        <ele>1357.049</ele>
        <time>2018-08-11T11:05:55Z</time>
      </trkpt>
      <trkpt lat="46.25149" lon="10.51904">
        <ele>1364.082</ele>
        <time>2018-08-11T11:06:15Z</time>
      </trkpt>
      <trkpt lat="46.25139" lon="10.51884">
        <ele>1370.143</ele>
        <time>2018-08-11T11:06:35Z</time>
      </trkpt>
      <trkpt lat="46.25131" lon="10.51872">
        <ele>1374.517</ele>
        <time>2018-08-11T11:06:55Z</time>
      </trkpt>
      <trkpt lat="46.25128" lon="10.51846">
        <ele>1377.808</ele>
        <time>2018-08-11T11:07:15Z</time>
      </trkpt>
      <trkpt lat="46.251" lon="10.51835">
        <ele>1390.36</ele>
        <time>2018-08-11T11:07:35Z</time>
      </trkpt>
      <trkpt lat="46.25095" lon="10.51842">
        <ele>1390.275</ele>
        <time>2018-08-11T11:07:55Z</time>
      </trkpt>
      <trkpt lat="46.2509" lon="10.51818">
        <ele>1393.781</ele>
        <time>2018-08-11T11:08:15Z</time>
      </trkpt>
      <trkpt lat="46.25082" lon="10.5184">
        <ele>1393.525</ele>
        <time>2018-08-11T11:08:35Z</time>
      </trkpt>
      <trkpt lat="46.25072" lon="10.51818">
        <ele>1402.16</ele>
        <time>2018-08-11T11:08:55Z</time>
      </trkpt>
      <trkpt lat="46.25065" lon="10.51839">
        <ele>1406.681</ele>
        <time>2018-08-11T11:09:15Z</time>
      </trkpt>
      <trkpt lat="46.25054" lon="10.51827">
        <ele>1416.558</ele>
        <time>2018-08-11T11:09:35Z</time>
      </trkpt>
      <trkpt lat="46.25042" lon="10.51843">
        <ele>1430.411</ele>
        <time>2018-08-11T11:09:55Z</time>
      </trkpt>
      <trkpt lat="46.25036" lon="10.51829">
        <ele>1440.131</ele>
        <time>2018-08-11T11:10:15Z</time>
      </trkpt>
      <trkpt lat="46.25024" lon="10.51828">
        <ele>1452.461</ele>
        <time>2018-08-11T11:10:35Z</time>
      </trkpt>
      <trkpt lat="46.25005" lon="10.51847">
        <ele>1460.007</ele>
        <time>2018-08-11T11:10:55Z</time>
      </trkpt>
      <trkpt lat="46.25004" lon="10.51823">
        <ele>1465.108</ele>
        <time>2018-08-11T11:11:15Z</time>
      </trkpt>
      <trkpt lat="46.24994" lon="10.5183">
        <ele>1470.585</ele>
        <time>2018-08-11T11:11:35Z</time>
      </trkpt>
      <trkpt lat="46.24987" lon="10.51823">
        <ele>1474.52</ele>
        <time>2018-08-11T11:11:55Z</time>
      </trkpt>
      <trkpt lat="46.24974" lon="10.51813">
        <ele>1482.336</ele>
        <time>2018-08-11T11:12:15Z</time>
      </trkpt>
      <trkpt lat="46.24961" lon="10.51788">
        <ele>1490.82</ele>
        <time>2018-08-11T11:12:35Z</time>
      </trkpt>
      <trkpt lat="46.24948" lon="10.51788">
        <ele>1500.085</ele>
        <time>2018-08-11T11:12:55Z</time>
      </trkpt>
      <trkpt lat="46.24936" lon="10.51785">
        <ele>1505.836</ele>
        <time>2018-08-11T11:13:15Z</time>
      </trkpt>
      <trkpt lat="46.24928" lon="10.51773">
        <ele>1510.423</ele>
        <time>2018-08-11T11:13:35Z</time>
      </trkpt>
      <trkpt lat="46.24936" lon="10.5173">
        <ele>1513.876</ele>
        <time>2018-08-11T11:13:55Z</time>
      </trkpt>
      <trkpt lat="46.24943" lon="10.51678">
        <ele>1518.996</ele>
        <time>2018-08-11T11:14:15Z</time>
      </trkpt>
      <trkpt lat="46.24958" lon="10.51654">
        <ele>1510.031</ele>
        <time>2018-08-11T11:14:35Z</time>
      </trkpt>
      <trkpt lat="46.24977" lon="10.51643">
        <ele>1502.324</ele>
        <time>2018-08-11T11:14:55Z</time>
      </trkpt>
      <trkpt lat="46.24995" lon="10.51629">
        <ele>1508.808</ele>
        <time>2018-08-11T11:15:15Z</time>
      </trkpt>
      <trkpt lat="46.25015" lon="10.51613">
        <ele>1513.831</ele>
        <time>2018-08-11T11:15:35Z</time>
      </trkpt>
      <trkpt lat="46.2502" lon="10.51601">
        <ele>1517.956</ele>
        <time>2018-08-11T11:15:55Z</time>
      </trkpt>
      <trkpt lat="46.25028" lon="10.51572">
        <ele>1526.272</ele>
        <time>2018-08-11T11:16:15Z</time>
      </trkpt>
      <trkpt lat="46.25029" lon="10.51569">
        <ele>1526.216</ele>
        <time>2018-08-11T11:16:35Z</time>
      </trkpt>
      <trkpt lat="46.25034" lon="10.51544">
        <ele>1527.791</ele>
        <time>2018-08-11T11:16:55Z</time>
      </trkpt>
      <trkpt lat="46.25038" lon="10.51503">
        <ele>1524.582</ele>
        <time>2018-08-11T11:17:15Z</time>
      </trkpt>
      <trkpt lat="46.2504" lon="10.51463">
        <ele>1518.529</ele>
        <time>2018-08-11T11:17:35Z</time>
      </trkpt>
      <trkpt lat="46.25041" lon="10.51435">
        <ele>1515.812</ele>
        <time>2018-08-11T11:17:55Z</time>
      </trkpt>
      <trkpt lat="46.25041" lon="10.51408">
        <ele>1513.289</ele>
        <time>2018-08-11T11:18:15Z</time>
      </trkpt>
      <trkpt lat="46.25041" lon="10.51372">
        <ele>1510.206</ele>
        <time>2018-08-11T11:18:35Z</time>
      </trkpt>
      <trkpt lat="46.25041" lon="10.51358">
        <ele>1508.926</ele>
        <time>2018-08-11T11:18:55Z</time>
      </trkpt>
      <trkpt lat="46.25042" lon="10.51344">
        <ele>1508.108</ele>
        <time>2018-08-11T11:19:15Z</time>
      </trkpt>
      <trkpt lat="46.25041" lon="10.51322">
        <ele>1506.93</ele>
        <time>2018-08-11T11:19:35Z</time>
      </trkpt>
      <trkpt lat="46.25039" lon="10.51309">
        <ele>1506.725</ele>
        <time>2018-08-11T11:19:55Z</time>
      </trkpt>
      <trkpt lat="46.25036" lon="10.51295">
        <ele>1506.921</ele>
        <time>2018-08-11T11:20:15Z</time>
      </trkpt>
      <trkpt lat="46.25034" lon="10.51283">
        <ele>1506.735</ele>
        <time>2018-08-11T11:20:35Z</time>
      </trkpt>
      <trkpt lat="46.25028" lon="10.5126">
        <ele>1506.12</ele>
        <time>2018-08-11T11:20:55Z</time>
      </trkpt>
      <trkpt lat="46.25028" lon="10.51244">
        <ele>1504.551</ele>
        <time>2018-08-11T11:21:15Z</time>
      </trkpt>
      <trkpt lat="46.25029" lon="10.51231">
        <ele>1503.188</ele>
        <time>2018-08-11T11:21:35Z</time>
      </trkpt>
      <trkpt lat="46.25027" lon="10.51225">
        <ele>1503.371</ele>
        <time>2018-08-11T11:21:55Z</time>
      </trkpt>
      <trkpt lat="46.25026" lon="10.5121">
        <ele>1502.899</ele>
        <time>2018-08-11T11:22:15Z</time>
      </trkpt>
      <trkpt lat="46.25023" lon="10.51198">
        <ele>1502.907</ele>
        <time>2018-08-11T11:22:35Z</time>
      </trkpt>
      <trkpt lat="46.25019" lon="10.51186">
        <ele>1503.927</ele>
        <time>2018-08-11T11:22:55Z</time>
      </trkpt>
      <trkpt lat="46.25018" lon="10.51174">
        <ele>1502.908</ele>
        <time>2018-08-11T11:23:15Z</time>
      </trkpt>
      <trkpt lat="46.25014" lon="10.51151">
        <ele>1501.681</ele>
        <time>2018-08-11T11:23:35Z</time>
      </trkpt>
      <trkpt lat="46.25013" lon="10.51146">
        <ele>1501.536</ele>
        <time>2018-08-11T11:23:55Z</time>
      </trkpt>
      <trkpt lat="46.24972" lon="10.51088">
        <ele>1508.032</ele>
        <time>2018-08-11T11:24:15Z</time>
      </trkpt>
      <trkpt lat="46.24966" lon="10.51076">
        <ele>1508.786</ele>
        <time>2018-08-11T11:24:35Z</time>
      </trkpt>
      <trkpt lat="46.24958" lon="10.51055">
        <ele>1508.821</ele>
        <time>2018-08-11T11:24:55Z</time>
      </trkpt>
      <trkpt lat="46.24957" lon="10.51054">
        <ele>1508.842</ele>
        <time>2018-08-11T11:25:15Z</time>
      </trkpt>
      <trkpt lat="46.24949" lon="10.51023">
        <ele>1508.889</ele>
        <time>2018-08-11T11:25:35Z</time>
      </trkpt>
      <trkpt lat="46.24949" lon="10.51012">
        <ele>1506.742</ele>
        <time>2018-08-11T11:25:55Z</time>
      </trkpt>
      <trkpt lat="46.24951" lon="10.51007">
        <ele>1505.022</ele>
        <time>2018-08-11T11:26:15Z</time>
      </trkpt>
      <trkpt lat="46.24953" lon="10.50995">
        <ele>1501.362</ele>
        <time>2018-08-11T11:26:35Z</time>
      </trkpt>
      <trkpt lat="46.24951" lon="10.50983">
        <ele>1500.408</ele>
        <time>2018-08-11T11:26:55Z</time>
      </trkpt>
      <trkpt lat="46.2495" lon="10.50971">
        <ele>1499.308</ele>
        <time>2018-08-11T11:27:15Z</time>
      </trkpt>
      <trkpt lat="46.24947" lon="10.50965">
        <ele>1499.814</ele>
        <time>2018-08-11T11:27:35Z</time>
      </trkpt>
      <trkpt lat="46.24936" lon="10.50958">
        <ele>1500.439</ele>
        <time>2018-08-11T11:27:55Z</time>
      </trkpt>
      <trkpt lat="46.24928" lon="10.50958">
        <ele>1501.185</ele>
        <time>2018-08-11T11:28:15Z</time>
      </trkpt>
      <trkpt lat="46.24916" lon="10.50959">
        <ele>1502.899</ele>
        <time>2018-08-11T11:28:35Z</time>
      </trkpt>
      <trkpt lat="46.24905" lon="10.50959">
        <ele>1505.994</ele>
        <time>2018-08-11T11:28:55Z</time>
      </trkpt>
      <trkpt lat="46.24895" lon="10.50956">
        <ele>1508.285</ele>
        <time>2018-08-11T11:29:15Z</time>
      </trkpt>
      <trkpt lat="46.24883" lon="10.50947">
        <ele>1510.222</ele>
        <time>2018-08-11T11:29:35Z</time>
      </trkpt>
      <trkpt lat="46.24876" lon="10.50935">
        <ele>1510.885</ele>
        <time>2018-08-11T11:29:55Z</time>
      </trkpt>
      <trkpt lat="46.2487" lon="10.50924">
        <ele>1511.327</ele>
        <time>2018-08-11T11:30:15Z</time>
      </trkpt>
      <trkpt lat="46.24857" lon="10.50913">
        <ele>1513.668</ele>
        <time>2018-08-11T11:30:35Z</time>
      </trkpt>
      <trkpt lat="46.24851" lon="10.50902">
        <ele>1512.214</ele>
        <time>2018-08-11T11:30:55Z</time>
      </trkpt>
      <trkpt lat="46.24851" lon="10.50889">
        <ele>1509.408</ele>
        <time>2018-08-11T11:31:15Z</time>
      </trkpt>
      <trkpt lat="46.2485" lon="10.50881">
        <ele>1508.154</ele>
        <time>2018-08-11T11:31:35Z</time>
      </trkpt>
      <trkpt lat="46.24844" lon="10.50878">
        <ele>1508.339</ele>
        <time>2018-08-11T11:31:55Z</time>
      </trkpt>
      <trkpt lat="46.24839" lon="10.50875">
        <ele>1508.735</ele>
        <time>2018-08-11T11:32:15Z</time>
      </trkpt>
      <trkpt lat="46.24832" lon="10.50876">
        <ele>1509.829</ele>
        <time>2018-08-11T11:32:35Z</time>
      </trkpt>
      <trkpt lat="46.24824" lon="10.50875">
        <ele>1510.434</ele>
        <time>2018-08-11T11:32:55Z</time>
      </trkpt>
      <trkpt lat="46.24818" lon="10.50872">
        <ele>1510.635</ele>
        <time>2018-08-11T11:33:15Z</time>
      </trkpt>
      <trkpt lat="46.24811" lon="10.50861">
        <ele>1509.312</ele>
        <time>2018-08-11T11:33:35Z</time>
      </trkpt>
      <trkpt lat="46.24807" lon="10.50849">
        <ele>1509.765</ele>
        <time>2018-08-11T11:33:55Z</time>
      </trkpt>
      <trkpt lat="46.24803" lon="10.50826">
        <ele>1510.351</ele>
        <time>2018-08-11T11:34:15Z</time>
      </trkpt>
      <trkpt lat="46.24803" lon="10.50822">
        <ele>1510.401</ele>
        <time>2018-08-11T11:34:35Z</time>
      </trkpt>
      <trkpt lat="46.248" lon="10.50808">
        <ele>1510.711</ele>
        <time>2018-08-11T11:34:55Z</time>
      </trkpt>
      <trkpt lat="46.24803" lon="10.50802">
        <ele>1510.308</ele>
        <time>2018-08-11T11:35:15Z</time>
      </trkpt>
      <trkpt lat="46.24803" lon="10.508">
        <ele>1510.387</ele>
        <time>2018-08-11T11:35:35Z</time>
      </trkpt>
      <trkpt lat="46.24804" lon="10.50794">
        <ele>1510.212</ele>
        <time>2018-08-11T11:35:55Z</time>
      </trkpt>
      <trkpt lat="46.24804" lon="10.50791">
        <ele>1510.168</ele>
        <time>2018-08-11T11:36:15Z</time>
      </trkpt>
      <trkpt lat="46.24796" lon="10.50785">
        <ele>1511.322</ele>
        <time>2018-08-11T11:36:35Z</time>
      </trkpt>
      <trkpt lat="46.24796" lon="10.50785">
        <ele>1511.487</ele>
        <time>2018-08-11T11:36:55Z</time>
      </trkpt>
      <trkpt lat="46.24791" lon="10.50782">
        <ele>1512.058</ele>
        <time>2018-08-11T11:37:15Z</time>
      </trkpt>
      <trkpt lat="46.2479" lon="10.50781">
        <ele>1512.285</ele>
        <time>2018-08-11T11:37:35Z</time>
      </trkpt>
      <trkpt lat="46.24786" lon="10.50779">
        <ele>1512.788</ele>
        <time>2018-08-11T11:37:55Z</time>
      </trkpt>
      <trkpt lat="46.24779" lon="10.5078">
        <ele>1513.854</ele>
        <time>2018-08-11T11:38:15Z</time>
      </trkpt>
      <trkpt lat="46.24767" lon="10.50784">
        <ele>1515.656</ele>
        <time>2018-08-11T11:38:35Z</time>
      </trkpt>
      <trkpt lat="46.24755" lon="10.50786">
        <ele>1517.511</ele>
        <time>2018-08-11T11:38:55Z</time>
      </trkpt>
      <trkpt lat="46.2474" lon="10.50779">
        <ele>1519.808</ele>
        <time>2018-08-11T11:39:15Z</time>
      </trkpt>
      <trkpt lat="46.24722" lon="10.5077">
        <ele>1522.927</ele>
        <time>2018-08-11T11:39:35Z</time>
      </trkpt>
      <trkpt lat="46.24707" lon="10.50755">
        <ele>1523.552</ele>
        <time>2018-08-11T11:39:55Z</time>
      </trkpt>
      <trkpt lat="46.24705" lon="10.50752">
        <ele>1523.628</ele>
        <time>2018-08-11T11:40:15Z</time>
      </trkpt>
      <trkpt lat="46.24693" lon="10.50736">
        <ele>1524.052</ele>
        <time>2018-08-11T11:40:35Z</time>
      </trkpt>
      <trkpt lat="46.24681" lon="10.5072">
        <ele>1524.047</ele>
        <time>2018-08-11T11:40:55Z</time>
      </trkpt>
      <trkpt lat="46.24679" lon="10.50717">
        <ele>1524.028</ele>
        <time>2018-08-11T11:41:15Z</time>
      </trkpt>
      <trkpt lat="46.24665" lon="10.50698">
        <ele>1524.085</ele>
        <time>2018-08-11T11:41:35Z</time>
      </trkpt>
      <trkpt lat="46.24641" lon="10.50673">
        <ele>1524.088</ele>
        <time>2018-08-11T11:41:55Z</time>
      </trkpt>
      <trkpt lat="46.24618" lon="10.50649">
        <ele>1524.016</ele>
        <time>2018-08-11T11:42:15Z</time>
      </trkpt>
      <trkpt lat="46.24562" lon="10.50636">
        <ele>1524.076</ele>
        <time>2018-08-11T11:42:35Z</time>
      </trkpt>
      <trkpt lat="46.24555" lon="10.50623">
        <ele>1524.013</ele>
        <time>2018-08-11T11:42:55Z</time>
      </trkpt>
      <trkpt lat="46.24545" lon="10.50604">
        <ele>1524.008</ele>
        <time>2018-08-11T11:43:15Z</time>
      </trkpt>
      <trkpt lat="46.24453" lon="10.50615">
        <ele>1524.033</ele>
        <time>2018-08-11T11:43:35Z</time>
      </trkpt>
      <trkpt lat="46.24436" lon="10.50624">
        <ele>1524.078</ele>
        <time>2018-08-11T11:43:55Z</time>
      </trkpt>
      <trkpt lat="46.2441" lon="10.50628">
        <ele>1525.114</ele>
        <time>2018-08-11T11:44:15Z</time>
      </trkpt>
      <trkpt lat="46.24402" lon="10.50631">
        <ele>1526.048</ele>
        <time>2018-08-11T11:44:35Z</time>
      </trkpt>
      <trkpt lat="46.24385" lon="10.50634">
        <ele>1528.373</ele>
        <time>2018-08-11T11:44:55Z</time>
      </trkpt>
      <trkpt lat="46.2438" lon="10.50639">
        <ele>1528.834</ele>
        <time>2018-08-11T11:45:15Z</time>
      </trkpt>
      <trkpt lat="46.24374" lon="10.50644">
        <ele>1530.771</ele>
        <time>2018-08-11T11:45:35Z</time>
      </trkpt>
      <trkpt lat="46.24367" lon="10.50653">
        <ele>1531.884</ele>
        <time>2018-08-11T11:45:55Z</time>
      </trkpt>
      <trkpt lat="46.24353" lon="10.50667">
        <ele>1532.111</ele>
        <time>2018-08-11T11:46:15Z</time>
      </trkpt>
      <trkpt lat="46.24343" lon="10.50669">
        <ele>1534.621</ele>
        <time>2018-08-11T11:46:35Z</time>
      </trkpt>
      <trkpt lat="46.24337" lon="10.50673">
        <ele>1536.303</ele>
        <time>2018-08-11T11:46:55Z</time>
      </trkpt>
      <trkpt lat="46.2432" lon="10.50676">
        <ele>1539.908</ele>
        <time>2018-08-11T11:47:15Z</time>
      </trkpt>
      <trkpt lat="46.24304" lon="10.50681">
        <ele>1543.223</ele>
        <time>2018-08-11T11:47:35Z</time>
      </trkpt>
      <trkpt lat="46.24303" lon="10.50682">
        <ele>1543.528</ele>
        <time>2018-08-11T11:47:55Z</time>
      </trkpt>
      <trkpt lat="46.243" lon="10.50687">
        <ele>1544.294</ele>
        <time>2018-08-11T11:48:15Z</time>
      </trkpt>
      <trkpt lat="46.24292" lon="10.50702">
        <ele>1545.968</ele>
        <time>2018-08-11T11:48:35Z</time>
      </trkpt>
      <trkpt lat="46.24283" lon="10.50718">
        <ele>1548.183</ele>
        <time>2018-08-11T11:48:55Z</time>
      </trkpt>
      <trkpt lat="46.24264" lon="10.50742">
        <ele>1549.024</ele>
        <time>2018-08-11T11:49:15Z</time>
      </trkpt>
      <trkpt lat="46.24248" lon="10.50753">
        <ele>1549.061</ele>
        <time>2018-08-11T11:49:35Z</time>
      </trkpt>
      <trkpt lat="46.24231" lon="10.50762">
        <ele>1549.064</ele>
        <time>2018-08-11T11:49:55Z</time>
      </trkpt>
      <trkpt lat="46.24222" lon="10.50759">
        <ele>1549.024</ele>
        <time>2018-08-11T11:50:15Z</time>
      </trkpt>
      <trkpt lat="46.24203" lon="10.50761">
        <ele>1549.004</ele>
        <time>2018-08-11T11:50:35Z</time>
      </trkpt>
      <trkpt lat="46.24181" lon="10.50769">
        <ele>1549.014</ele>
        <time>2018-08-11T11:50:55Z</time>
      </trkpt>
      <trkpt lat="46.24162" lon="10.50786">
        <ele>1549.008</ele>
        <time>2018-08-11T11:51:15Z</time>
      </trkpt>
      <trkpt lat="46.24148" lon="10.50797">
        <ele>1549.054</ele>
        <time>2018-08-11T11:51:35Z</time>
      </trkpt>
      <trkpt lat="46.24147" lon="10.50797">
        <ele>1549.039</ele>
        <time>2018-08-11T11:51:55Z</time>
      </trkpt>
      <trkpt lat="46.24143" lon="10.508">
        <ele>1549.095</ele>
        <time>2018-08-11T11:52:15Z</time>
      </trkpt>
      <trkpt lat="46.24138" lon="10.50802">
        <ele>1549.139</ele>
        <time>2018-08-11T11:52:35Z</time>
      </trkpt>
      <trkpt lat="46.24133" lon="10.50803">
        <ele>1549.424</ele>
        <time>2018-08-11T11:52:55Z</time>
      </trkpt>
      <trkpt lat="46.24131" lon="10.50804">
        <ele>1549.425</ele>
        <time>2018-08-11T11:53:15Z</time>
      </trkpt>
      <trkpt lat="46.24128" lon="10.50805">
        <ele>1549.452</ele>
        <time>2018-08-11T11:53:35Z</time>
      </trkpt>
      <trkpt lat="46.24107" lon="10.5081">
        <ele>1552.675</ele>
        <time>2018-08-11T11:53:55Z</time>
      </trkpt>
      <trkpt lat="46.24107" lon="10.5081">
        <ele>1552.794</ele>
        <time>2018-08-11T11:54:15Z</time>
      </trkpt>
      <trkpt lat="46.24104" lon="10.50812">
        <ele>1554.557</ele>
        <time>2018-08-11T11:54:35Z</time>
      </trkpt>
      <trkpt lat="46.241" lon="10.50814">
        <ele>1557.122</ele>
        <time>2018-08-11T11:54:55Z</time>
      </trkpt>
      <trkpt lat="46.24084" lon="10.50826">
        <ele>1565.808</ele>
        <time>2018-08-11T11:55:15Z</time>
      </trkpt>
      <trkpt lat="46.24073" lon="10.50834">
        <ele>1566.741</ele>
        <time>2018-08-11T11:55:35Z</time>
      </trkpt>
      <trkpt lat="46.2406" lon="10.50843">
        <ele>1567.946</ele>
        <time>2018-08-11T11:55:55Z</time>
      </trkpt>
      <trkpt lat="46.24058" lon="10.50844">
        <ele>1567.912</ele>
        <time>2018-08-11T11:56:15Z</time>
      </trkpt>
      <trkpt lat="46.24055" lon="10.50848">
        <ele>1568.266</ele>
        <time>2018-08-11T11:56:35Z</time>
      </trkpt>
      <trkpt lat="46.24054" lon="10.50849">
        <ele>1568.371</ele>
        <time>2018-08-11T11:56:55Z</time>
      </trkpt>
      <trkpt lat="46.24053" lon="10.50851">
        <ele>1568.382</ele>
        <time>2018-08-11T11:57:15Z</time>
      </trkpt>
      <trkpt lat="46.24051" lon="10.50854">
        <ele>1568.379</ele>
        <time>2018-08-11T11:57:35Z</time>
      </trkpt>
      <trkpt lat="46.2405" lon="10.50855">
        <ele>1568.412</ele>
        <time>2018-08-11T11:57:55Z</time>
      </trkpt>
      <trkpt lat="46.24048" lon="10.50857">
        <ele>1568.648</ele>
        <time>2018-08-11T11:58:15Z</time>
      </trkpt>
      <trkpt lat="46.24043" lon="10.50863">
        <ele>1569.561</ele>
        <time>2018-08-11T11:58:35Z</time>
      </trkpt>
      <trkpt lat="46.2403" lon="10.50875">
        <ele>1571.417</ele>
        <time>2018-08-11T11:58:55Z</time>
      </trkpt>
      <trkpt lat="46.24021" lon="10.50884">
        <ele>1572.108</ele>
        <time>2018-08-11T11:59:15Z</time>
      </trkpt>
      <trkpt lat="46.24017" lon="10.50887">
        <ele>1572.226</ele>
        <time>2018-08-11T11:59:35Z</time>
      </trkpt>
      <trkpt lat="46.24015" lon="10.5089">
        <ele>1572.261</ele>
        <time>2018-08-11T11:59:55Z</time>
      </trkpt>
      <trkpt lat="46.24013" lon="10.50893">
        <ele>1572.367</ele>
        <time>2018-08-11T12:00:15Z</time>
      </trkpt>
      <trkpt lat="46.24013" lon="10.50893">
        <ele>1572.321</ele>
        <time>2018-08-11T12:00:35Z</time>
      </trkpt>
      <trkpt lat="46.24013" lon="10.50897">
        <ele>1571.996</ele>
        <time>2018-08-11T12:00:55Z</time>
      </trkpt>
      <trkpt lat="46.24005" lon="10.50908">
        <ele>1572.767</ele>
        <time>2018-08-11T12:01:15Z</time>
      </trkpt>
      <trkpt lat="46.23992" lon="10.50925">
        <ele>1574.834</ele>
        <time>2018-08-11T12:01:35Z</time>
      </trkpt>
      <trkpt lat="46.23979" lon="10.5095">
        <ele>1575.337</ele>
        <time>2018-08-11T12:01:55Z</time>
      </trkpt>
      <trkpt lat="46.23978" lon="10.50952">
        <ele>1575.317</ele>
        <time>2018-08-11T12:02:15Z</time>
      </trkpt>
      <trkpt lat="46.23965" lon="10.50977">
        <ele>1576.187</ele>
        <time>2018-08-11T12:02:35Z</time>
      </trkpt>
      <trkpt lat="46.23962" lon="10.50983">
        <ele>1576.615</ele>
        <time>2018-08-11T12:02:55Z</time>
      </trkpt>
      <trkpt lat="46.23952" lon="10.51">
        <ele>1577.108</ele>
        <time>2018-08-11T12:03:15Z</time>
      </trkpt>
      <trkpt lat="46.23948" lon="10.51006">
        <ele>1577.153</ele>
        <time>2018-08-11T12:03:35Z</time>
      </trkpt>
      <trkpt lat="46.23939" lon="10.51019">
        <ele>1577.078</ele>
        <time>2018-08-11T12:03:55Z</time>
      </trkpt>
      <trkpt lat="46.23938" lon="10.51021">
        <ele>1576.864</ele>
        <time>2018-08-11T12:04:15Z</time>
      </trkpt>
      <trkpt lat="46.23933" lon="10.51027">
        <ele>1577.118</ele>
        <time>2018-08-11T12:04:35Z</time>
      </trkpt>
      <trkpt lat="46.23921" lon="10.5104">
        <ele>1578.093</ele>
        <time>2018-08-11T12:04:55Z</time>
      </trkpt>
      <trkpt lat="46.23918" lon="10.51042">
        <ele>1578.184</ele>
        <time>2018-08-11T12:05:15Z</time>
      </trkpt>
      <trkpt lat="46.2391" lon="10.51045">
        <ele>1579.371</ele>
        <time>2018-08-11T12:05:35Z</time>
      </trkpt>
      <trkpt lat="46.23894" lon="10.51056">
        <ele>1580.964</ele>
        <time>2018-08-11T12:05:55Z</time>
      </trkpt>
      <trkpt lat="46.23879" lon="10.51065">
        <ele>1582.518</ele>
        <time>2018-08-11T12:06:15Z</time>
      </trkpt>
      <trkpt lat="46.23868" lon="10.51081">
        <ele>1581.998</ele>
        <time>2018-08-11T12:06:35Z</time>
      </trkpt>
      <trkpt lat="46.23854" lon="10.51105">
        <ele>1581.417</ele>
        <time>2018-08-11T12:06:55Z</time>
      </trkpt>
      <trkpt lat="46.23844" lon="10.51116">
        <ele>1582.708</ele>
        <time>2018-08-11T12:07:15Z</time>
      </trkpt>
      <trkpt lat="46.23828" lon="10.51126">
        <ele>1586.053</ele>
        <time>2018-08-11T12:07:35Z</time>
      </trkpt>
      <trkpt lat="46.23812" lon="10.51138">
        <ele>1587.778</ele>
        <time>2018-08-11T12:07:55Z</time>
      </trkpt>
      <trkpt lat="46.23799" lon="10.51149">
        <ele>1588.714</ele>
        <time>2018-08-11T12:08:15Z</time>
      </trkpt>
      <trkpt lat="46.23784" lon="10.51163">
        <ele>1589.548</ele>
        <time>2018-08-11T12:08:35Z</time>
      </trkpt>
      <trkpt lat="46.23752" lon="10.51198">
        <ele>1591.773</ele>
        <time>2018-08-11T12:08:55Z</time>
      </trkpt>
      <trkpt lat="46.23734" lon="10.5123">
        <ele>1595.574</ele>
        <time>2018-08-11T12:09:15Z</time>
      </trkpt>
      <trkpt lat="46.23724" lon="10.51251">
        <ele>1597.731</ele>
        <time>2018-08-11T12:09:35Z</time>
      </trkpt>
      <trkpt lat="46.23714" lon="10.51279">
        <ele>1599.574</ele>
        <time>2018-08-11T12:09:55Z</time>
      </trkpt>
      <trkpt lat="46.23708" lon="10.51293">
        <ele>1599.651</ele>
        <time>2018-08-11T12:10:15Z</time>
      </trkpt>
      <trkpt lat="46.23697" lon="10.51304">
        <ele>1599.901</ele>
        <time>2018-08-11T12:10:35Z</time>
      </trkpt>
      <trkpt lat="46.23691" lon="10.51313">
        <ele>1600.911</ele>
        <time>2018-08-11T12:10:55Z</time>
      </trkpt>
      <trkpt lat="46.23682" lon="10.51321">
        <ele>1603.308</ele>
        <time>2018-08-11T12:11:15Z</time>
      </trkpt>
      <trkpt lat="46.23673" lon="10.51328">
        <ele>1605.757</ele>
        <time>2018-08-11T12:11:35Z</time>
      </trkpt>
      <trkpt lat="46.23653" lon="10.51343">
        <ele>1607.992</ele>
        <time>2018-08-11T12:11:55Z</time>
      </trkpt>
      <trkpt lat="46.23642" lon="10.51348">
        <ele>1608.928</ele>
        <time>2018-08-11T12:12:15Z</time>
      </trkpt>
      <trkpt lat="46.2364" lon="10.5135">
        <ele>1609.072</ele>
        <time>2018-08-11T12:12:35Z</time>
      </trkpt>
      <trkpt lat="46.23635" lon="10.51355">
        <ele>1609.317</ele>
        <time>2018-08-11T12:12:55Z</time>
      </trkpt>
      <trkpt lat="46.23621" lon="10.51359">
        <ele>1610.998</ele>
        <time>2018-08-11T12:13:15Z</time>
      </trkpt>
      <trkpt lat="46.23612" lon="10.5136">
        <ele>1612.085</ele>
        <time>2018-08-11T12:13:35Z</time>
      </trkpt>
      <trkpt lat="46.2361" lon="10.5136">
        <ele>1612.338</ele>
        <time>2018-08-11T12:13:55Z</time>
      </trkpt>
      <trkpt lat="46.23589" lon="10.51363">
        <ele>1615.985</ele>
        <time>2018-08-11T12:14:15Z</time>
      </trkpt>
      <trkpt lat="46.23582" lon="10.51363">
        <ele>1617.289</ele>
        <time>2018-08-11T12:14:35Z</time>
      </trkpt>
      <trkpt lat="46.23568" lon="10.51365">
        <ele>1619.617</ele>
        <time>2018-08-11T12:14:55Z</time>
      </trkpt>
      <trkpt lat="46.23551" lon="10.51366">
        <ele>1622.108</ele>
        <time>2018-08-11T12:15:15Z</time>
      </trkpt>
      <trkpt lat="46.2355" lon="10.51366">
        <ele>1622.36</ele>
        <time>2018-08-11T12:15:35Z</time>
      </trkpt>
      <trkpt lat="46.23532" lon="10.51365">
        <ele>1624.485</ele>
        <time>2018-08-11T12:15:55Z</time>
      </trkpt>
      <trkpt lat="46.23523" lon="10.51365">
        <ele>1625.961</ele>
        <time>2018-08-11T12:16:15Z</time>
      </trkpt>
      <trkpt lat="46.23515" lon="10.51366">
        <ele>1627.755</ele>
        <time>2018-08-11T12:16:35Z</time>
      </trkpt>
      <trkpt lat="46.23503" lon="10.51369">
        <ele>1629.98</ele>
        <time>2018-08-11T12:16:55Z</time>
      </trkpt>
      <trkpt lat="46.23496" lon="10.51373">
        <ele>1631.291</ele>
        <time>2018-08-11T12:17:15Z</time>
      </trkpt>
      <trkpt lat="46.23474" lon="10.51385">
        <ele>1637.068</ele>
        <time>2018-08-11T12:17:35Z</time>
      </trkpt>
      <trkpt lat="46.23461" lon="10.51392">
        <ele>1638.911</ele>
        <time>2018-08-11T12:17:55Z</time>
      </trkpt>
      <trkpt lat="46.23455" lon="10.51399">
        <ele>1639.247</ele>
        <time>2018-08-11T12:18:15Z</time>
      </trkpt>
      <trkpt lat="46.23442" lon="10.51411">
        <ele>1639.729</ele>
        <time>2018-08-11T12:18:35Z</time>
      </trkpt>
      <trkpt lat="46.23439" lon="10.51413">
        <ele>1640.221</ele>
        <time>2018-08-11T12:18:55Z</time>
      </trkpt>
      <trkpt lat="46.23429" lon="10.51416">
        <ele>1642.208</ele>
        <time>2018-08-11T12:19:15Z</time>
      </trkpt>
      <trkpt lat="46.23422" lon="10.51418">
        <ele>1643.626</ele>
        <time>2018-08-11T12:19:35Z</time>
      </trkpt>
      <trkpt lat="46.23413" lon="10.51424">
        <ele>1645.711</ele>
        <time>2018-08-11T12:19:55Z</time>
      </trkpt>
      <trkpt lat="46.23402" lon="10.5143">
        <ele>1647.647</ele>
        <time>2018-08-11T12:20:15Z</time>
      </trkpt>
      <trkpt lat="46.2338" lon="10.5144">
        <ele>1652.931</ele>
        <time>2018-08-11T12:20:35Z</time>
      </trkpt>
      <trkpt lat="46.23357" lon="10.51426">
        <ele>1665.296</ele>
        <time>2018-08-11T12:20:55Z</time>
      </trkpt>
      <trkpt lat="46.23351" lon="10.51431">
        <ele>1666.057</ele>
        <time>2018-08-11T12:21:15Z</time>
      </trkpt>
      <trkpt lat="46.23333" lon="10.51448">
        <ele>1668.844</ele>
        <time>2018-08-11T12:21:35Z</time>
      </trkpt>
      <trkpt lat="46.23325" lon="10.51456">
        <ele>1670.677</ele>
        <time>2018-08-11T12:21:55Z</time>
      </trkpt>
      <trkpt lat="46.23314" lon="10.51475">
        <ele>1672.278</ele>
        <time>2018-08-11T12:22:15Z</time>
      </trkpt>
      <trkpt lat="46.23296" lon="10.51501">
        <ele>1677.933</ele>
        <time>2018-08-11T12:22:35Z</time>
      </trkpt>
      <trkpt lat="46.23294" lon="10.51503">
        <ele>1678.426</ele>
        <time>2018-08-11T12:22:55Z</time>
      </trkpt>
      <trkpt lat="46.2327" lon="10.51537">
        <ele>1685.008</ele>
        <time>2018-08-11T12:23:15Z</time>
      </trkpt>
      <trkpt lat="46.23261" lon="10.5155">
        <ele>1688.669</ele>
        <time>2018-08-11T12:23:35Z</time>
      </trkpt>
      <trkpt lat="46.2326" lon="10.51556">
        <ele>1688.354</ele>
        <time>2018-08-11T12:23:55Z</time>
      </trkpt>
      <trkpt lat="46.23258" lon="10.51585">
        <ele>1691.63</ele>
        <time>2018-08-11T12:24:15Z</time>
      </trkpt>
      <trkpt lat="46.23258" lon="10.51598">
        <ele>1693.884</ele>
        <time>2018-08-11T12:24:35Z</time>
      </trkpt>
      <trkpt lat="46.23257" lon="10.51614">
        <ele>1696.999</ele>
        <time>2018-08-11T12:24:55Z</time>
      </trkpt>
      <trkpt lat="46.23257" lon="10.51617">
        <ele>1697.79</ele>
        <time>2018-08-11T12:25:15Z</time>
      </trkpt>
      <trkpt lat="46.23257" lon="10.51622">
        <ele>1698.587</ele>
        <time>2018-08-11T12:25:35Z</time>
      </trkpt>
      <trkpt lat="46.23265" lon="10.51648">
        <ele>1703.38</ele>
        <time>2018-08-11T12:25:55Z</time>
      </trkpt>
      <trkpt lat="46.23275" lon="10.51685">
        <ele>1713.486</ele>
        <time>2018-08-11T12:26:15Z</time>
      </trkpt>
      <trkpt lat="46.2328" lon="10.51702">
        <ele>1717.96</ele>
        <time>2018-08-11T12:26:35Z</time>
      </trkpt>
      <trkpt lat="46.23284" lon="10.51712">
        <ele>1720.426</ele>
        <time>2018-08-11T12:26:55Z</time>
      </trkpt>
      <trkpt lat="46.23287" lon="10.51717">
        <ele>1721.908</ele>
        <time>2018-08-11T12:27:15Z</time>
      </trkpt>
      <trkpt lat="46.23291" lon="10.51721">
        <ele>1723.16</ele>
        <time>2018-08-11T12:27:35Z</time>
      </trkpt>
      <trkpt lat="46.23305" lon="10.51733">
        <ele>1726.245</ele>
        <time>2018-08-11T12:27:55Z</time>
      </trkpt>
      <trkpt lat="46.23318" lon="10.51745">
        <ele>1729.891</ele>
        <time>2018-08-11T12:28:15Z</time>
      </trkpt>
      <trkpt lat="46.23323" lon="10.5175">
        <ele>1731.555</ele>
        <time>2018-08-11T12:28:35Z</time>
      </trkpt>
      <trkpt lat="46.23333" lon="10.51758">
        <ele>1734.47</ele>
        <time>2018-08-11T12:28:55Z</time>
      </trkpt>
      <trkpt lat="46.23328" lon="10.51761">
        <ele>1736.081</ele>
        <time>2018-08-11T12:29:15Z</time>
      </trkpt>
      <trkpt lat="46.23287" lon="10.51795">
        <ele>1751.648</ele>
        <time>2018-08-11T12:29:35Z</time>
      </trkpt>
      <trkpt lat="46.2328" lon="10.51802">
        <ele>1755.211</ele>
        <time>2018-08-11T12:29:55Z</time>
      </trkpt>
      <trkpt lat="46.23268" lon="10.51816">
        <ele>1762.079</ele>
        <time>2018-08-11T12:30:15Z</time>
      </trkpt>
      <trkpt lat="46.2325" lon="10.51839">
        <ele>1772.805</ele>
        <time>2018-08-11T12:30:35Z</time>
      </trkpt>
      <trkpt lat="46.23243" lon="10.51849">
        <ele>1778.825</ele>
        <time>2018-08-11T12:30:55Z</time>
      </trkpt>
      <trkpt lat="46.2323" lon="10.51858">
        <ele>1786.108</ele>
        <time>2018-08-11T12:31:15Z</time>
      </trkpt>
      <trkpt lat="46.23218" lon="10.51861">
        <ele>1791.199</ele>
        <time>2018-08-11T12:31:35Z</time>
      </trkpt>
      <trkpt lat="46.23207" lon="10.51859">
        <ele>1793.994</ele>
        <time>2018-08-11T12:31:55Z</time>
      </trkpt>
      <trkpt lat="46.232" lon="10.51855">
        <ele>1793.94</ele>
        <time>2018-08-11T12:32:15Z</time>
      </trkpt>
      <trkpt lat="46.23182" lon="10.51847">
        <ele>1797.334</ele>
        <time>2018-08-11T12:32:35Z</time>
      </trkpt>
      <trkpt lat="46.23178" lon="10.51845">
        <ele>1798.399</ele>
        <time>2018-08-11T12:32:55Z</time>
      </trkpt>
      <trkpt lat="46.23174" lon="10.51843">
        <ele>1799.33</ele>
        <time>2018-08-11T12:33:15Z</time>
      </trkpt>
      <trkpt lat="46.23161" lon="10.51831">
        <ele>1801.177</ele>
        <time>2018-08-11T12:33:35Z</time>
      </trkpt>
      <trkpt lat="46.23157" lon="10.51829">
        <ele>1801.76</ele>
        <time>2018-08-11T12:33:55Z</time>
      </trkpt>
      <trkpt lat="46.23139" lon="10.51822">
        <ele>1805.516</ele>
        <time>2018-08-11T12:34:15Z</time>
      </trkpt>
      <trkpt lat="46.23134" lon="10.51819">
        <ele>1806.476</ele>
        <time>2018-08-11T12:34:35Z</time>
      </trkpt>
      <trkpt lat="46.23127" lon="10.51815">
        <ele>1807.013</ele>
        <time>2018-08-11T12:34:55Z</time>
      </trkpt>
      <trkpt lat="46.23112" lon="10.51806">
        <ele>1807.008</ele>
        <time>2018-08-11T12:35:15Z</time>
      </trkpt>
      <trkpt lat="46.23111" lon="10.51805">
        <ele>1807.073</ele>
        <time>2018-08-11T12:35:35Z</time>
      </trkpt>
      <trkpt lat="46.23084" lon="10.51806">
        <ele>1815.868</ele>
        <time>2018-08-11T12:35:55Z</time>
      </trkpt>
      <trkpt lat="46.23077" lon="10.51806">
        <ele>1817.534</ele>
        <time>2018-08-11T12:36:15Z</time>
      </trkpt>
      <trkpt lat="46.23059" lon="10.51821">
        <ele>1827.168</ele>
        <time>2018-08-11T12:36:35Z</time>
      </trkpt>
      <trkpt lat="46.23054" lon="10.51825">
        <ele>1829.943</ele>
        <time>2018-08-11T12:36:55Z</time>
      </trkpt>
      <trkpt lat="46.23026" lon="10.51848">
        <ele>1841.514</ele>
        <time>2018-08-11T12:37:15Z</time>
      </trkpt>
      <trkpt lat="46.22961" lon="10.51903">
        <ele>1872.561</ele>
        <time>2018-08-11T12:37:35Z</time>
      </trkpt>
      <trkpt lat="46.22927" lon="10.51932">
        <ele>1882.734</ele>
        <time>2018-08-11T12:37:55Z</time>
      </trkpt>
      <trkpt lat="46.22927" lon="10.51942">
        <ele>1886.336</ele>
        <time>2018-08-11T12:38:15Z</time>
      </trkpt>
      <trkpt lat="46.22936" lon="10.51946">
        <ele>1888.617</ele>
        <time>2018-08-11T12:38:35Z</time>
      </trkpt>
      <trkpt lat="46.22948" lon="10.51951">
        <ele>1892.318</ele>
        <time>2018-08-11T12:38:55Z</time>
      </trkpt>
      <trkpt lat="46.22955" lon="10.51954">
        <ele>1894.808</ele>
        <time>2018-08-11T12:39:15Z</time>
      </trkpt>
      <trkpt lat="46.22959" lon="10.51957">
        <ele>1897.035</ele>
        <time>2018-08-11T12:39:35Z</time>
      </trkpt>
      <trkpt lat="46.22965" lon="10.51961">
        <ele>1900.15</ele>
        <time>2018-08-11T12:39:55Z</time>
      </trkpt>
      <trkpt lat="46.22983" lon="10.51972">
        <ele>1906.986</ele>
        <time>2018-08-11T12:40:15Z</time>
      </trkpt>
      <trkpt lat="46.22998" lon="10.51983">
        <ele>1911.87</ele>
        <time>2018-08-11T12:40:35Z</time>
      </trkpt>
      <trkpt lat="46.23002" lon="10.51984">
        <ele>1912.195</ele>
        <time>2018-08-11T12:40:55Z</time>
      </trkpt>
      <trkpt lat="46.23009" lon="10.51986">
        <ele>1910.956</ele>
        <time>2018-08-11T12:41:15Z</time>
      </trkpt>
      <trkpt lat="46.23015" lon="10.5199">
        <ele>1910.513</ele>
        <time>2018-08-11T12:41:35Z</time>
      </trkpt>
      <trkpt lat="46.23018" lon="10.51991">
        <ele>1910.346</ele>
        <time>2018-08-11T12:41:55Z</time>
      </trkpt>
      <trkpt lat="46.22995" lon="10.52006">
        <ele>1922.531</ele>
        <time>2018-08-11T12:42:15Z</time>
      </trkpt>
      <trkpt lat="46.22973" lon="10.52022">
        <ele>1929.561</ele>
        <time>2018-08-11T12:42:35Z</time>
      </trkpt>
      <trkpt lat="46.22964" lon="10.5203">
        <ele>1931.107</ele>
        <time>2018-08-11T12:42:55Z</time>
      </trkpt>
      <trkpt lat="46.22959" lon="10.52036">
        <ele>1933.408</ele>
        <time>2018-08-11T12:43:15Z</time>
      </trkpt>
      <trkpt lat="46.22956" lon="10.52041">
        <ele>1935.855</ele>
        <time>2018-08-11T12:43:35Z</time>
      </trkpt>
      <trkpt lat="46.2295" lon="10.52051">
        <ele>1941.73</ele>
        <time>2018-08-11T12:43:55Z</time>
      </trkpt>
      <trkpt lat="46.22947" lon="10.52056">
        <ele>1945.346</ele>
        <time>2018-08-11T12:44:15Z</time>
      </trkpt>
      <trkpt lat="46.22933" lon="10.52057">
        <ele>1948.57</ele>
        <time>2018-08-11T12:44:35Z</time>
      </trkpt>
      <trkpt lat="46.2293" lon="10.52055">
        <ele>1948.425</ele>
        <time>2018-08-11T12:44:55Z</time>
      </trkpt>
      <trkpt lat="46.22919" lon="10.52056">
        <ele>1951.536</ele>
        <time>2018-08-11T12:45:15Z</time>
      </trkpt>
      <trkpt lat="46.2291" lon="10.52056">
        <ele>1955.323</ele>
        <time>2018-08-11T12:45:35Z</time>
      </trkpt>
      <trkpt lat="46.229" lon="10.52046">
        <ele>1954.326</ele>
        <time>2018-08-11T12:45:55Z</time>
      </trkpt>
      <trkpt lat="46.22895" lon="10.52031">
        <ele>1950.996</ele>
        <time>2018-08-11T12:46:15Z</time>
      </trkpt>
      <trkpt lat="46.22886" lon="10.52016">
        <ele>1948.431</ele>
        <time>2018-08-11T12:46:35Z</time>
      </trkpt>
      <trkpt lat="46.22876" lon="10.5201">
        <ele>1951.924</ele>
        <time>2018-08-11T12:46:55Z</time>
      </trkpt>
      <trkpt lat="46.22868" lon="10.52006">
        <ele>1955.508</ele>
        <time>2018-08-11T12:47:15Z</time>
      </trkpt>
      <trkpt lat="46.2286" lon="10.51996">
        <ele>1957.051</ele>
        <time>2018-08-11T12:47:35Z</time>
      </trkpt>
      <trkpt lat="46.22855" lon="10.51981">
        <ele>1954.426</ele>
        <time>2018-08-11T12:47:55Z</time>
      </trkpt>
      <trkpt lat="46.22848" lon="10.51961">
        <ele>1948.772</ele>
        <time>2018-08-11T12:48:15Z</time>
      </trkpt>
      <trkpt lat="46.22835" lon="10.5195">
        <ele>1952.416</ele>
        <time>2018-08-11T12:48:35Z</time>
      </trkpt>
      <trkpt lat="46.2281" lon="10.51934">
        <ele>1955.981</ele>
        <time>2018-08-11T12:48:55Z</time>
      </trkpt>
      <trkpt lat="46.22805" lon="10.51934">
        <ele>1957.422</ele>
        <time>2018-08-11T12:49:15Z</time>
      </trkpt>
      <trkpt lat="46.22803" lon="10.51937">
        <ele>1961.039</ele>
        <time>2018-08-11T12:49:35Z</time>
      </trkpt>
      <trkpt lat="46.22803" lon="10.51942">
        <ele>1964.162</ele>
        <time>2018-08-11T12:49:55Z</time>
      </trkpt>
      <trkpt lat="46.22807" lon="10.51947">
        <ele>1964.856</ele>
        <time>2018-08-11T12:50:15Z</time>
      </trkpt>
      <trkpt lat="46.22805" lon="10.51953">
        <ele>1968.759</ele>
        <time>2018-08-11T12:50:35Z</time>
      </trkpt>
      <trkpt lat="46.228" lon="10.51951">
        <ele>1970.714</ele>
        <time>2018-08-11T12:50:55Z</time>
      </trkpt>
      <trkpt lat="46.22799" lon="10.51956">
        <ele>1974.108</ele>
        <time>2018-08-11T12:51:15Z</time>
      </trkpt>
      <trkpt lat="46.22799" lon="10.51957">
        <ele>1974.427</ele>
        <time>2018-08-11T12:51:35Z</time>
      </trkpt>
      <trkpt lat="46.22799" lon="10.51959">
        <ele>1975.122</ele>
        <time>2018-08-11T12:51:55Z</time>
      </trkpt>
      <trkpt lat="46.22801" lon="10.51962">
        <ele>1976.078</ele>
        <time>2018-08-11T12:52:15Z</time>
      </trkpt>
      <trkpt lat="46.22795" lon="10.51966">
        <ele>1980.842</ele>
        <time>2018-08-11T12:52:35Z</time>
      </trkpt>
      <trkpt lat="46.22788" lon="10.51961">
        <ele>1982.947</ele>
        <time>2018-08-11T12:52:55Z</time>
      </trkpt>
      <trkpt lat="46.2278" lon="10.51961">
        <ele>1986.918</ele>
        <time>2018-08-11T12:53:15Z</time>
      </trkpt>
      <trkpt lat="46.22773" lon="10.51968">
        <ele>1993.415</ele>
        <time>2018-08-11T12:53:35Z</time>
      </trkpt>
      <trkpt lat="46.22772" lon="10.51978">
        <ele>1997.248</ele>
        <time>2018-08-11T12:53:55Z</time>
      </trkpt>
      <trkpt lat="46.22774" lon="10.51989">
        <ele>2000.212</ele>
        <time>2018-08-11T12:54:15Z</time>
      </trkpt>
      <trkpt lat="46.22771" lon="10.51995">
        <ele>2003.432</ele>
        <time>2018-08-11T12:54:35Z</time>
      </trkpt>
      <trkpt lat="46.2277" lon="10.51999">
        <ele>2005.005</ele>
        <time>2018-08-11T12:54:55Z</time>
      </trkpt>
      <trkpt lat="46.22761" lon="10.52002">
        <ele>2008.308</ele>
        <time>2018-08-11T12:55:15Z</time>
      </trkpt>
      <trkpt lat="46.22761" lon="10.52002">
        <ele>2008.563</ele>
        <time>2018-08-11T12:55:35Z</time>
      </trkpt>
      <trkpt lat="46.22752" lon="10.52006">
        <ele>2011.818</ele>
        <time>2018-08-11T12:55:55Z</time>
      </trkpt>
      <trkpt lat="46.22743" lon="10.52006">
        <ele>2012.924</ele>
        <time>2018-08-11T12:56:15Z</time>
      </trkpt>
      <trkpt lat="46.22737" lon="10.52006">
        <ele>2013.558</ele>
        <time>2018-08-11T12:56:35Z</time>
      </trkpt>
      <trkpt lat="46.22727" lon="10.52003">
        <ele>2014.073</ele>
        <time>2018-08-11T12:56:55Z</time>
      </trkpt>
      <trkpt lat="46.2272" lon="10.51998">
        <ele>2013.814</ele>
        <time>2018-08-11T12:57:15Z</time>
      </trkpt>
      <trkpt lat="46.2272" lon="10.51996">
        <ele>2013.431</ele>
        <time>2018-08-11T12:57:35Z</time>
      </trkpt>
      <trkpt lat="46.2272" lon="10.51992">
        <ele>2012.684</ele>
        <time>2018-08-11T12:57:55Z</time>
      </trkpt>
      <trkpt lat="46.2272" lon="10.51983">
        <ele>2010.784</ele>
        <time>2018-08-11T12:58:15Z</time>
      </trkpt>
      <trkpt lat="46.22725" lon="10.51971">
        <ele>2008.507</ele>
        <time>2018-08-11T12:58:35Z</time>
      </trkpt>
      <trkpt lat="46.2273" lon="10.51962">
        <ele>2011.317</ele>
        <time>2018-08-11T12:58:55Z</time>
      </trkpt>
      <trkpt lat="46.22728" lon="10.51955">
        <ele>2015.508</ele>
        <time>2018-08-11T12:59:15Z</time>
      </trkpt>
      <trkpt lat="46.22722" lon="10.51932">
        <ele>2025.09</ele>
        <time>2018-08-11T12:59:35Z</time>
      </trkpt>
      <trkpt lat="46.22719" lon="10.51902">
        <ele>2022.165</ele>
        <time>2018-08-11T12:59:55Z</time>
      </trkpt>
      <trkpt lat="46.22719" lon="10.519">
        <ele>2021.821</ele>
        <time>2018-08-11T13:00:15Z</time>
      </trkpt>
      <trkpt lat="46.22715" lon="10.51879">
        <ele>2018.355</ele>
        <time>2018-08-11T13:00:35Z</time>
      </trkpt>
      <trkpt lat="46.22713" lon="10.51872">
        <ele>2017.08</ele>
        <time>2018-08-11T13:00:55Z</time>
      </trkpt>
      <trkpt lat="46.22713" lon="10.51866">
        <ele>2016.211</ele>
        <time>2018-08-11T13:01:15Z</time>
      </trkpt>
      <trkpt lat="46.2271" lon="10.51853">
        <ele>2015.128</ele>
        <time>2018-08-11T13:01:35Z</time>
      </trkpt>
      <trkpt lat="46.22703" lon="10.51836">
        <ele>2018.111</ele>
        <time>2018-08-11T13:01:55Z</time>
      </trkpt>
      <trkpt lat="46.22695" lon="10.5181">
        <ele>2023.947</ele>
        <time>2018-08-11T13:02:15Z</time>
      </trkpt>
      <trkpt lat="46.22693" lon="10.51804">
        <ele>2024.929</ele>
        <time>2018-08-11T13:02:35Z</time>
      </trkpt>
      <trkpt lat="46.22684" lon="10.51792">
        <ele>2024.321</ele>
        <time>2018-08-11T13:02:55Z</time>
      </trkpt>
      <trkpt lat="46.22681" lon="10.51768">
        <ele>2022.608</ele>
        <time>2018-08-11T13:03:15Z</time>
      </trkpt>
      <trkpt lat="46.22679" lon="10.51745">
        <ele>2020.366</ele>
        <time>2018-08-11T13:03:35Z</time>
      </trkpt>
      <trkpt lat="46.22671" lon="10.51721">
        <ele>2022.061</ele>
        <time>2018-08-11T13:03:55Z</time>
      </trkpt>
      <trkpt lat="46.22667" lon="10.51711">
        <ele>2021.947</ele>
        <time>2018-08-11T13:04:15Z</time>
      </trkpt>
      <trkpt lat="46.22661" lon="10.51693">
        <ele>2019.461</ele>
        <time>2018-08-11T13:04:35Z</time>
      </trkpt>
      <trkpt lat="46.22646" lon="10.51671">
        <ele>2022.016</ele>
        <time>2018-08-11T13:04:55Z</time>
      </trkpt>
      <trkpt lat="46.22645" lon="10.51669">
        <ele>2022.287</ele>
        <time>2018-08-11T13:05:15Z</time>
      </trkpt>
      <trkpt lat="46.22643" lon="10.51666">
        <ele>2022.994</ele>
        <time>2018-08-11T13:05:35Z</time>
      </trkpt>
      <trkpt lat="46.22637" lon="10.5165">
        <ele>2024.787</ele>
        <time>2018-08-11T13:05:55Z</time>
      </trkpt>
      <trkpt lat="46.22634" lon="10.51645">
        <ele>2025.625</ele>
        <time>2018-08-11T13:06:15Z</time>
      </trkpt>
      <trkpt lat="46.22629" lon="10.5162">
        <ele>2028.426</ele>
        <time>2018-08-11T13:06:35Z</time>
      </trkpt>
      <trkpt lat="46.22626" lon="10.51613">
        <ele>2030.008</ele>
        <time>2018-08-11T13:06:55Z</time>
      </trkpt>
      <trkpt lat="46.22617" lon="10.51596">
        <ele>2035.108</ele>
        <time>2018-08-11T13:07:15Z</time>
      </trkpt>
      <trkpt lat="46.22608" lon="10.51581">
        <ele>2040.754</ele>
        <time>2018-08-11T13:07:35Z</time>
      </trkpt>
      <trkpt lat="46.22609" lon="10.51562">
        <ele>2041.319</ele>
        <time>2018-08-11T13:07:55Z</time>
      </trkpt>
      <trkpt lat="46.22606" lon="10.51562">
        <ele>2042.615</ele>
        <time>2018-08-11T13:08:15Z</time>
      </trkpt>
      <trkpt lat="46.22598" lon="10.51565">
        <ele>2047.119</ele>
        <time>2018-08-11T13:08:35Z</time>
      </trkpt>
      <trkpt lat="46.22596" lon="10.51567">
        <ele>2048.174</ele>
        <time>2018-08-11T13:08:55Z</time>
      </trkpt>
      <trkpt lat="46.22591" lon="10.51572">
        <ele>2050.465</ele>
        <time>2018-08-11T13:09:15Z</time>
      </trkpt>
      <trkpt lat="46.22591" lon="10.51558">
        <ele>2052.812</ele>
        <time>2018-08-11T13:09:35Z</time>
      </trkpt>
      <trkpt lat="46.22597" lon="10.51531">
        <ele>2055.165</ele>
        <time>2018-08-11T13:09:55Z</time>
      </trkpt>
      <trkpt lat="46.226" lon="10.51509">
        <ele>2057.682</ele>
        <time>2018-08-11T13:10:15Z</time>
      </trkpt>
      <trkpt lat="46.22599" lon="10.51504">
        <ele>2059.843</ele>
        <time>2018-08-11T13:10:35Z</time>
      </trkpt>
      <trkpt lat="46.22594" lon="10.51502">
        <ele>2062.917</ele>
        <time>2018-08-11T13:10:55Z</time>
      </trkpt>
      <trkpt lat="46.22594" lon="10.51502">
        <ele>2063.208</ele>
        <time>2018-08-11T13:11:15Z</time>
      </trkpt>
      <trkpt lat="46.22593" lon="10.51502">
        <ele>2063.45</ele>
        <time>2018-08-11T13:11:35Z</time>
      </trkpt>
      <trkpt lat="46.2259" lon="10.51506">
        <ele>2064.795</ele>
        <time>2018-08-11T13:11:55Z</time>
      </trkpt>
      <trkpt lat="46.22575" lon="10.51513">
        <ele>2070.621</ele>
        <time>2018-08-11T13:12:15Z</time>
      </trkpt>
      <trkpt lat="46.22569" lon="10.51517">
        <ele>2072.125</ele>
        <time>2018-08-11T13:12:35Z</time>
      </trkpt>
      <trkpt lat="46.22568" lon="10.51511">
        <ele>2074.35</ele>
        <time>2018-08-11T13:12:55Z</time>
      </trkpt>
      <trkpt lat="46.22568" lon="10.51509">
        <ele>2075.091</ele>
        <time>2018-08-11T13:13:15Z</time>
      </trkpt>
      <trkpt lat="46.22569" lon="10.51507">
        <ele>2074.988</ele>
        <time>2018-08-11T13:13:35Z</time>
      </trkpt>
      <trkpt lat="46.22571" lon="10.51501">
        <ele>2075.971</ele>
        <time>2018-08-11T13:13:55Z</time>
      </trkpt>
      <trkpt lat="46.22578" lon="10.51486">
        <ele>2077.561</ele>
        <time>2018-08-11T13:14:15Z</time>
      </trkpt>
      <trkpt lat="46.22578" lon="10.51471">
        <ele>2082.721</ele>
        <time>2018-08-11T13:14:35Z</time>
      </trkpt>
      <trkpt lat="46.22563" lon="10.51484">
        <ele>2087.613</ele>
        <time>2018-08-11T13:14:55Z</time>
      </trkpt>
      <trkpt lat="46.22546" lon="10.5149">
        <ele>2093.408</ele>
        <time>2018-08-11T13:15:15Z</time>
      </trkpt>
      <trkpt lat="46.22538" lon="10.51485">
        <ele>2099.458</ele>
        <time>2018-08-11T13:15:35Z</time>
      </trkpt>
      <trkpt lat="46.22539" lon="10.51483">
        <ele>2099.623</ele>
        <time>2018-08-11T13:15:55Z</time>
      </trkpt>
      <trkpt lat="46.22541" lon="10.51481">
        <ele>2099.989</ele>
        <time>2018-08-11T13:16:15Z</time>
      </trkpt>
      <trkpt lat="46.2255" lon="10.51467">
        <ele>2102.033</ele>
        <time>2018-08-11T13:16:35Z</time>
      </trkpt>
      <trkpt lat="46.22554" lon="10.51465">
        <ele>2101.138</ele>
        <time>2018-08-11T13:16:55Z</time>
      </trkpt>
      <trkpt lat="46.22558" lon="10.51459">
        <ele>2100.829</ele>
        <time>2018-08-11T13:17:15Z</time>
      </trkpt>
      <trkpt lat="46.22552" lon="10.5145">
        <ele>2107.076</ele>
        <time>2018-08-11T13:17:35Z</time>
      </trkpt>
      <trkpt lat="46.2255" lon="10.51447">
        <ele>2109.199</ele>
        <time>2018-08-11T13:17:55Z</time>
      </trkpt>
      <trkpt lat="46.22537" lon="10.51448">
        <ele>2113.487</ele>
        <time>2018-08-11T13:18:15Z</time>
      </trkpt>
      <trkpt lat="46.22532" lon="10.51452">
        <ele>2113.942</ele>
        <time>2018-08-11T13:18:35Z</time>
      </trkpt>
      <trkpt lat="46.22522" lon="10.51452">
        <ele>2117.326</ele>
        <time>2018-08-11T13:18:55Z</time>
      </trkpt>
      <trkpt lat="46.22522" lon="10.51451">
        <ele>2117.608</ele>
        <time>2018-08-11T13:19:15Z</time>
      </trkpt>
      <trkpt lat="46.22525" lon="10.51444">
        <ele>2118.82</ele>
        <time>2018-08-11T13:19:35Z</time>
      </trkpt>
      <trkpt lat="46.22539" lon="10.51425">
        <ele>2121.495</ele>
        <time>2018-08-11T13:19:55Z</time>
      </trkpt>
      <trkpt lat="46.22543" lon="10.51417">
        <ele>2122.341</ele>
        <time>2018-08-11T13:20:15Z</time>
      </trkpt>
      <trkpt lat="46.22544" lon="10.514">
        <ele>2131.665</ele>
        <time>2018-08-11T13:20:35Z</time>
      </trkpt>
      <trkpt lat="46.22544" lon="10.51399">
        <ele>2132.59</ele>
        <time>2018-08-11T13:20:55Z</time>
      </trkpt>
      <trkpt lat="46.2254" lon="10.51395">
        <ele>2137.221</ele>
        <time>2018-08-11T13:21:15Z</time>
      </trkpt>
      <trkpt lat="46.22528" lon="10.51401">
        <ele>2140.518</ele>
        <time>2018-08-11T13:21:35Z</time>
      </trkpt>
      <trkpt lat="46.22517" lon="10.51408">
        <ele>2139.011</ele>
        <time>2018-08-11T13:21:55Z</time>
      </trkpt>
      <trkpt lat="46.22513" lon="10.51407">
        <ele>2140.487</ele>
        <time>2018-08-11T13:22:15Z</time>
      </trkpt>
      <trkpt lat="46.22508" lon="10.51406">
        <ele>2142.642</ele>
        <time>2018-08-11T13:22:35Z</time>
      </trkpt>
      <trkpt lat="46.22522" lon="10.51396">
        <ele>2145.726</ele>
        <time>2018-08-11T13:22:55Z</time>
      </trkpt>
      <trkpt lat="46.2253" lon="10.5138">
        <ele>2154.208</ele>
        <time>2018-08-11T13:23:15Z</time>
      </trkpt>
      <trkpt lat="46.22531" lon="10.51378">
        <ele>2155.07</ele>
        <time>2018-08-11T13:23:35Z</time>
      </trkpt>
      <trkpt lat="46.22536" lon="10.51367">
        <ele>2159.715</ele>
        <time>2018-08-11T13:23:55Z</time>
      </trkpt>
      <trkpt lat="46.22523" lon="10.51378">
        <ele>2157.671</ele>
        <time>2018-08-11T13:24:15Z</time>
      </trkpt>
      <trkpt lat="46.22508" lon="10.51376">
        <ele>2160.145</ele>
        <time>2018-08-11T13:24:35Z</time>
      </trkpt>
      <trkpt lat="46.22503" lon="10.51373">
        <ele>2162.52</ele>
        <time>2018-08-11T13:24:55Z</time>
      </trkpt>
      <trkpt lat="46.22482" lon="10.51352">
        <ele>2175.961</ele>
        <time>2018-08-11T13:25:15Z</time>
      </trkpt>
      <trkpt lat="46.22476" lon="10.51344">
        <ele>2180.118</ele>
        <time>2018-08-11T13:25:35Z</time>
      </trkpt>
      <trkpt lat="46.22469" lon="10.51346">
        <ele>2180.261</ele>
        <time>2018-08-11T13:25:55Z</time>
      </trkpt>
      <trkpt lat="46.22463" lon="10.51352">
        <ele>2178.774</ele>
        <time>2018-08-11T13:26:15Z</time>
      </trkpt>
      <trkpt lat="46.22449" lon="10.51365">
        <ele>2176.256</ele>
        <time>2018-08-11T13:26:35Z</time>
      </trkpt>
      <trkpt lat="46.22449" lon="10.51365">
        <ele>2176.221</ele>
        <time>2018-08-11T13:26:55Z</time>
      </trkpt>
      <trkpt lat="46.22444" lon="10.51368">
        <ele>2176.008</ele>
        <time>2018-08-11T13:27:15Z</time>
      </trkpt>
      <trkpt lat="46.22445" lon="10.51364">
        <ele>2177.619</ele>
        <time>2018-08-11T13:27:35Z</time>
      </trkpt>
      <trkpt lat="46.22446" lon="10.5136">
        <ele>2179.184</ele>
        <time>2018-08-11T13:27:55Z</time>
      </trkpt>
      <trkpt lat="46.22447" lon="10.51354">
        <ele>2180.99</ele>
        <time>2018-08-11T13:28:15Z</time>
      </trkpt>
      <trkpt lat="46.22452" lon="10.51336">
        <ele>2186.894</ele>
        <time>2018-08-11T13:28:35Z</time>
      </trkpt>
      <trkpt lat="46.22454" lon="10.51333">
        <ele>2187.669</ele>
        <time>2018-08-11T13:28:55Z</time>
      </trkpt>
      <trkpt lat="46.22447" lon="10.51333">
        <ele>2188.82</ele>
        <time>2018-08-11T13:29:15Z</time>
      </trkpt>
      <trkpt lat="46.22438" lon="10.51332">
        <ele>2190.117</ele>
        <time>2018-08-11T13:29:35Z</time>
      </trkpt>
      <trkpt lat="46.22417" lon="10.51327">
        <ele>2193.38</ele>
        <time>2018-08-11T13:29:55Z</time>
      </trkpt>
      <trkpt lat="46.22419" lon="10.51313">
        <ele>2196.431</ele>
        <time>2018-08-11T13:30:15Z</time>
      </trkpt>
      <trkpt lat="46.22428" lon="10.51305">
        <ele>2198.461</ele>
        <time>2018-08-11T13:30:35Z</time>
      </trkpt>
      <trkpt lat="46.22431" lon="10.51305">
        <ele>2198.707</ele>
        <time>2018-08-11T13:30:55Z</time>
      </trkpt>
      <trkpt lat="46.22443" lon="10.51303">
        <ele>2200.308</ele>
        <time>2018-08-11T13:31:15Z</time>
      </trkpt>
      <trkpt lat="46.22455" lon="10.51302">
        <ele>2200.095</ele>
        <time>2018-08-11T13:31:35Z</time>
      </trkpt>
      <trkpt lat="46.22465" lon="10.513">
        <ele>2199.99</ele>
        <time>2018-08-11T13:31:55Z</time>
      </trkpt>
      <trkpt lat="46.22443" lon="10.51287">
        <ele>2208.186</ele>
        <time>2018-08-11T13:32:15Z</time>
      </trkpt>
      <trkpt lat="46.2245" lon="10.51285">
        <ele>2209.03</ele>
        <time>2018-08-11T13:32:35Z</time>
      </trkpt>
      <trkpt lat="46.2246" lon="10.51279">
        <ele>2212.335</ele>
        <time>2018-08-11T13:32:55Z</time>
      </trkpt>
      <trkpt lat="46.22457" lon="10.51273">
        <ele>2216.026</ele>
        <time>2018-08-11T13:33:15Z</time>
      </trkpt>
      <trkpt lat="46.22454" lon="10.51269">
        <ele>2218.383</ele>
        <time>2018-08-11T13:33:35Z</time>
      </trkpt>
      <trkpt lat="46.22447" lon="10.51259">
        <ele>2223.816</ele>
        <time>2018-08-11T13:33:55Z</time>
      </trkpt>
      <trkpt lat="46.22437" lon="10.51254">
        <ele>2225.251</ele>
        <time>2018-08-11T13:34:15Z</time>
      </trkpt>
      <trkpt lat="46.22426" lon="10.51249">
        <ele>2225.701</ele>
        <time>2018-08-11T13:34:35Z</time>
      </trkpt>
      <trkpt lat="46.22395" lon="10.51237">
        <ele>2232.311</ele>
        <time>2018-08-11T13:34:55Z</time>
      </trkpt>
      <trkpt lat="46.22386" lon="10.51234">
        <ele>2234.308</ele>
        <time>2018-08-11T13:35:15Z</time>
      </trkpt>
      <trkpt lat="46.22373" lon="10.51224">
        <ele>2238.477</ele>
        <time>2018-08-11T13:35:35Z</time>
      </trkpt>
      <trkpt lat="46.2237" lon="10.51221">
        <ele>2239.552</ele>
        <time>2018-08-11T13:35:55Z</time>
      </trkpt>
      <trkpt lat="46.22362" lon="10.51213">
        <ele>2242.718</ele>
        <time>2018-08-11T13:36:15Z</time>
      </trkpt>
      <trkpt lat="46.2236" lon="10.51211">
        <ele>2243.442</ele>
        <time>2018-08-11T13:36:35Z</time>
      </trkpt>
      <trkpt lat="46.22356" lon="10.51207">
        <ele>2244.737</ele>
        <time>2018-08-11T13:36:55Z</time>
      </trkpt>
      <trkpt lat="46.22352" lon="10.51206">
        <ele>2245.268</ele>
        <time>2018-08-11T13:37:15Z</time>
      </trkpt>
      <trkpt lat="46.22331" lon="10.51209">
        <ele>2243.565</ele>
        <time>2018-08-11T13:37:35Z</time>
      </trkpt>
      <trkpt lat="46.22334" lon="10.51205">
        <ele>2245.448</ele>
        <time>2018-08-11T13:37:55Z</time>
      </trkpt>
      <trkpt lat="46.22353" lon="10.51194">
        <ele>2250.383</ele>
        <time>2018-08-11T13:38:15Z</time>
      </trkpt>
      <trkpt lat="46.22383" lon="10.51197">
        <ele>2249.125</ele>
        <time>2018-08-11T13:38:35Z</time>
      </trkpt>
      <trkpt lat="46.22397" lon="10.51194">
        <ele>2250.917</ele>
        <time>2018-08-11T13:38:55Z</time>
      </trkpt>
      <trkpt lat="46.224" lon="10.51193">
        <ele>2251.908</ele>
        <time>2018-08-11T13:39:15Z</time>
      </trkpt>
      <trkpt lat="46.22399" lon="10.51188">
        <ele>2253.91</ele>
        <time>2018-08-11T13:39:35Z</time>
      </trkpt>
      <trkpt lat="46.22376" lon="10.51182">
        <ele>2255.835</ele>
        <time>2018-08-11T13:39:55Z</time>
      </trkpt>
      <trkpt lat="46.22353" lon="10.51169">
        <ele>2260.881</ele>
        <time>2018-08-11T13:40:15Z</time>
      </trkpt>
      <trkpt lat="46.22343" lon="10.51159">
        <ele>2264.285</ele>
        <time>2018-08-11T13:40:35Z</time>
      </trkpt>
      <trkpt lat="46.22341" lon="10.51144">
        <ele>2269.84</ele>
        <time>2018-08-11T13:40:55Z</time>
      </trkpt>
      <trkpt lat="46.22342" lon="10.51142">
        <ele>2270.381</ele>
        <time>2018-08-11T13:41:15Z</time>
      </trkpt>
      <trkpt lat="46.2233" lon="10.51134">
        <ele>2272.718</ele>
        <time>2018-08-11T13:41:35Z</time>
      </trkpt>
      <trkpt lat="46.22321" lon="10.51132">
        <ele>2272.141</ele>
        <time>2018-08-11T13:41:55Z</time>
      </trkpt>
      <trkpt lat="46.22335" lon="10.51122">
        <ele>2278.912</ele>
        <time>2018-08-11T13:42:15Z</time>
      </trkpt>
      <trkpt lat="46.22352" lon="10.51123">
        <ele>2279.532</ele>
        <time>2018-08-11T13:42:35Z</time>
      </trkpt>
      <trkpt lat="46.22354" lon="10.51123">
        <ele>2279.605</ele>
        <time>2018-08-11T13:42:55Z</time>
      </trkpt>
      <trkpt lat="46.22373" lon="10.51124">
        <ele>2280.908</ele>
        <time>2018-08-11T13:43:15Z</time>
      </trkpt>
      <trkpt lat="46.22374" lon="10.51124">
        <ele>2281.013</ele>
        <time>2018-08-11T13:43:35Z</time>
      </trkpt>
      <trkpt lat="46.22391" lon="10.5112">
        <ele>2285.368</ele>
        <time>2018-08-11T13:43:55Z</time>
      </trkpt>
      <trkpt lat="46.22406" lon="10.51122">
        <ele>2288.554</ele>
        <time>2018-08-11T13:44:15Z</time>
      </trkpt>
      <trkpt lat="46.22411" lon="10.5112">
        <ele>2290.858</ele>
        <time>2018-08-11T13:44:35Z</time>
      </trkpt>
      <trkpt lat="46.2242" lon="10.51116">
        <ele>2295.653</ele>
        <time>2018-08-11T13:44:55Z</time>
      </trkpt>
      <trkpt lat="46.22413" lon="10.51109">
        <ele>2296.884</ele>
        <time>2018-08-11T13:45:15Z</time>
      </trkpt>
      <trkpt lat="46.22403" lon="10.51099">
        <ele>2299.331</ele>
        <time>2018-08-11T13:45:35Z</time>
      </trkpt>
      <trkpt lat="46.22386" lon="10.51087">
        <ele>2301.374</ele>
        <time>2018-08-11T13:45:55Z</time>
      </trkpt>
      <trkpt lat="46.22375" lon="10.51079">
        <ele>2302.877</ele>
        <time>2018-08-11T13:46:15Z</time>
      </trkpt>
      <trkpt lat="46.22365" lon="10.51074">
        <ele>2302.961</ele>
        <time>2018-08-11T13:46:35Z</time>
      </trkpt>
      <trkpt lat="46.22351" lon="10.51066">
        <ele>2307.427</ele>
        <time>2018-08-11T13:46:55Z</time>
      </trkpt>
      <trkpt lat="46.22349" lon="10.5106">
        <ele>2311.208</ele>
        <time>2018-08-11T13:47:15Z</time>
      </trkpt>
      <trkpt lat="46.22361" lon="10.51058">
        <ele>2313.579</ele>
        <time>2018-08-11T13:47:35Z</time>
      </trkpt>
      <trkpt lat="46.22367" lon="10.51055">
        <ele>2316.444</ele>
        <time>2018-08-11T13:47:55Z</time>
      </trkpt>
      <trkpt lat="46.2238" lon="10.51054">
        <ele>2318.72</ele>
        <time>2018-08-11T13:48:15Z</time>
      </trkpt>
      <trkpt lat="46.22399" lon="10.51047">
        <ele>2325.934</ele>
        <time>2018-08-11T13:48:35Z</time>
      </trkpt>
      <trkpt lat="46.22414" lon="10.51043">
        <ele>2331.789</ele>
        <time>2018-08-11T13:48:55Z</time>
      </trkpt>
      <trkpt lat="46.22426" lon="10.51045">
        <ele>2336.64</ele>
        <time>2018-08-11T13:49:15Z</time>
      </trkpt>
      <trkpt lat="46.22427" lon="10.51045">
        <ele>2337.267</ele>
        <time>2018-08-11T13:49:35Z</time>
      </trkpt>
      <trkpt lat="46.22434" lon="10.51043">
        <ele>2342.51</ele>
        <time>2018-08-11T13:49:55Z</time>
      </trkpt>
      <trkpt lat="46.22424" lon="10.51033">
        <ele>2342.173</ele>
        <time>2018-08-11T13:50:15Z</time>
      </trkpt>
      <trkpt lat="46.22418" lon="10.51028">
        <ele>2341.885</ele>
        <time>2018-08-11T13:50:35Z</time>
      </trkpt>
      <trkpt lat="46.22415" lon="10.51015">
        <ele>2348.113</ele>
        <time>2018-08-11T13:50:55Z</time>
      </trkpt>
      <trkpt lat="46.22415" lon="10.51015">
        <ele>2348.108</ele>
        <time>2018-08-11T13:51:15Z</time>
      </trkpt>
      <trkpt lat="46.22422" lon="10.51014">
        <ele>2351.999</ele>
        <time>2018-08-11T13:51:35Z</time>
      </trkpt>
      <trkpt lat="46.22431" lon="10.51019">
        <ele>2353.564</ele>
        <time>2018-08-11T13:51:55Z</time>
      </trkpt>
      <trkpt lat="46.22445" lon="10.51023">
        <ele>2359.02</ele>
        <time>2018-08-11T13:52:15Z</time>
      </trkpt>
      <trkpt lat="46.22451" lon="10.51035">
        <ele>2355.624</ele>
        <time>2018-08-11T13:52:35Z</time>
      </trkpt>
      <trkpt lat="46.22452" lon="10.51036">
        <ele>2355.829</ele>
        <time>2018-08-11T13:52:55Z</time>
      </trkpt>
      <trkpt lat="46.22457" lon="10.5104">
        <ele>2356.12</ele>
        <time>2018-08-11T13:53:15Z</time>
      </trkpt>
      <trkpt lat="46.22461" lon="10.5104">
        <ele>2358.467</ele>
        <time>2018-08-11T13:53:35Z</time>
      </trkpt>
      <trkpt lat="46.2246" lon="10.51024">
        <ele>2365.55</ele>
        <time>2018-08-11T13:53:55Z</time>
      </trkpt>
      <trkpt lat="46.22454" lon="10.51006">
        <ele>2370.826</ele>
        <time>2018-08-11T13:54:15Z</time>
      </trkpt>
      <trkpt lat="46.22441" lon="10.50991">
        <ele>2373.147</ele>
        <time>2018-08-11T13:54:35Z</time>
      </trkpt>
      <trkpt lat="46.22433" lon="10.50982">
        <ele>2375.111</ele>
        <time>2018-08-11T13:54:55Z</time>
      </trkpt>
      <trkpt lat="46.22432" lon="10.50982">
        <ele>2375.208</ele>
        <time>2018-08-11T13:55:15Z</time>
      </trkpt>
      <trkpt lat="46.22441" lon="10.50981">
        <ele>2378.634</ele>
        <time>2018-08-11T13:55:35Z</time>
      </trkpt>
      <trkpt lat="46.22451" lon="10.50985">
        <ele>2380.379</ele>
        <time>2018-08-11T13:55:55Z</time>
      </trkpt>
      <trkpt lat="46.22462" lon="10.5099">
        <ele>2382.155</ele>
        <time>2018-08-11T13:56:15Z</time>
      </trkpt>
      <trkpt lat="46.22465" lon="10.50992">
        <ele>2381.919</ele>
        <time>2018-08-11T13:56:35Z</time>
      </trkpt>
      <trkpt lat="46.22473" lon="10.50999">
        <ele>2381.714</ele>
        <time>2018-08-11T13:56:55Z</time>
      </trkpt>
      <trkpt lat="46.22467" lon="10.50986">
        <ele>2385.515</ele>
        <time>2018-08-11T13:57:15Z</time>
      </trkpt>
      <trkpt lat="46.22459" lon="10.50969">
        <ele>2391.072</ele>
        <time>2018-08-11T13:57:35Z</time>
      </trkpt>
      <trkpt lat="46.22457" lon="10.50965">
        <ele>2391.735</ele>
        <time>2018-08-11T13:57:55Z</time>
      </trkpt>
      <trkpt lat="46.22455" lon="10.50959">
        <ele>2394.079</ele>
        <time>2018-08-11T13:58:15Z</time>
      </trkpt>
      <trkpt lat="46.2245" lon="10.50944">
        <ele>2400.005</ele>
        <time>2018-08-11T13:58:35Z</time>
      </trkpt>
      <trkpt lat="46.22472" lon="10.5096">
        <ele>2396.525</ele>
        <time>2018-08-11T13:58:55Z</time>
      </trkpt>
      <trkpt lat="46.22484" lon="10.50974">
        <ele>2392.608</ele>
        <time>2018-08-11T13:59:15Z</time>
      </trkpt>
      <trkpt lat="46.22491" lon="10.50978">
        <ele>2391.599</ele>
        <time>2018-08-11T13:59:35Z</time>
      </trkpt>
      <trkpt lat="46.22497" lon="10.5098">
        <ele>2391.574</ele>
        <time>2018-08-11T13:59:55Z</time>
      </trkpt>
      <trkpt lat="46.22502" lon="10.50976">
        <ele>2391.31</ele>
        <time>2018-08-11T14:00:15Z</time>
      </trkpt>
      <trkpt lat="46.22509" lon="10.50981">
        <ele>2390.124</ele>
        <time>2018-08-11T14:00:35Z</time>
      </trkpt>
      <trkpt lat="46.22516" lon="10.50985">
        <ele>2390.589</ele>
        <time>2018-08-11T14:00:55Z</time>
      </trkpt>
      <trkpt lat="46.22515" lon="10.50982">
        <ele>2389.57</ele>
        <time>2018-08-11T14:01:15Z</time>
      </trkpt>
      <trkpt lat="46.22521" lon="10.50974">
        <ele>2384.397</ele>
        <time>2018-08-11T14:01:35Z</time>
      </trkpt>
      <trkpt lat="46.22524" lon="10.50972">
        <ele>2382.21</ele>
        <time>2018-08-11T14:01:55Z</time>
      </trkpt>
      <trkpt lat="46.22518" lon="10.50962">
        <ele>2379.626</ele>
        <time>2018-08-11T14:02:15Z</time>
      </trkpt>
      <trkpt lat="46.22522" lon="10.50963">
        <ele>2377.347</ele>
        <time>2018-08-11T14:02:35Z</time>
      </trkpt>
      <trkpt lat="46.22536" lon="10.50966">
        <ele>2372.811</ele>
        <time>2018-08-11T14:02:55Z</time>
      </trkpt>
      <trkpt lat="46.22532" lon="10.50957">
        <ele>2367.008</ele>
        <time>2018-08-11T14:03:15Z</time>
      </trkpt>
      <trkpt lat="46.22527" lon="10.50944">
        <ele>2361.034</ele>
        <time>2018-08-11T14:03:35Z</time>
      </trkpt>
      <trkpt lat="46.22536" lon="10.50945">
        <ele>2356.469</ele>
        <time>2018-08-11T14:03:55Z</time>
      </trkpt>
      <trkpt lat="46.22544" lon="10.5095">
        <ele>2356.295</ele>
        <time>2018-08-11T14:04:15Z</time>
      </trkpt>
      <trkpt lat="46.22548" lon="10.50943">
        <ele>2347.779</ele>
        <time>2018-08-11T14:04:35Z</time>
      </trkpt>
      <trkpt lat="46.22546" lon="10.50927">
        <ele>2338.874</ele>
        <time>2018-08-11T14:04:55Z</time>
      </trkpt>
      <trkpt lat="46.22545" lon="10.50923">
        <ele>2336.565</ele>
        <time>2018-08-11T14:05:15Z</time>
      </trkpt>
      <trkpt lat="46.22543" lon="10.50914">
        <ele>2333.112</ele>
        <time>2018-08-11T14:05:35Z</time>
      </trkpt>
      <trkpt lat="46.22542" lon="10.50903">
        <ele>2329.015</ele>
        <time>2018-08-11T14:05:55Z</time>
      </trkpt>
      <trkpt lat="46.2255" lon="10.50909">
        <ele>2325.938</ele>
        <time>2018-08-11T14:06:15Z</time>
      </trkpt>
      <trkpt lat="46.22562" lon="10.50911">
        <ele>2320.67</ele>
        <time>2018-08-11T14:06:35Z</time>
      </trkpt>
      <trkpt lat="46.22574" lon="10.50911">
        <ele>2316.117</ele>
        <time>2018-08-11T14:06:55Z</time>
      </trkpt>
      <trkpt lat="46.22587" lon="10.50913">
        <ele>2311.708</ele>
        <time>2018-08-11T14:07:15Z</time>
      </trkpt>
      <trkpt lat="46.22604" lon="10.50921">
        <ele>2306.995</ele>
        <time>2018-08-11T14:07:35Z</time>
      </trkpt>
      <trkpt lat="46.22617" lon="10.5092">
        <ele>2301.25</ele>
        <time>2018-08-11T14:07:55Z</time>
      </trkpt>
      <trkpt lat="46.2262" lon="10.5092">
        <ele>2300.646</ele>
        <time>2018-08-11T14:08:15Z</time>
      </trkpt>
      <trkpt lat="46.22621" lon="10.5092">
        <ele>2299.77</ele>
        <time>2018-08-11T14:08:35Z</time>
      </trkpt>
      <trkpt lat="46.22667" lon="10.50914">
        <ele>2288.745</ele>
        <time>2018-08-11T14:08:55Z</time>
      </trkpt>
      <trkpt lat="46.22672" lon="10.50913">
        <ele>2287.886</ele>
        <time>2018-08-11T14:09:15Z</time>
      </trkpt>
      <trkpt lat="46.22681" lon="10.5091">
        <ele>2285.763</ele>
        <time>2018-08-11T14:09:35Z</time>
      </trkpt>
      <trkpt lat="46.22692" lon="10.50912">
        <ele>2287.356</ele>
        <time>2018-08-11T14:09:55Z</time>
      </trkpt>
      <trkpt lat="46.22705" lon="10.50908">
        <ele>2281.641</ele>
        <time>2018-08-11T14:10:15Z</time>
      </trkpt>
      <trkpt lat="46.22715" lon="10.50902">
        <ele>2275.281</ele>
        <time>2018-08-11T14:10:35Z</time>
      </trkpt>
      <trkpt lat="46.22724" lon="10.50895">
        <ele>2269.609</ele>
        <time>2018-08-11T14:10:55Z</time>
      </trkpt>
      <trkpt lat="46.22733" lon="10.50893">
        <ele>2266.408</ele>
        <time>2018-08-11T14:11:15Z</time>
      </trkpt>
      <trkpt lat="46.22747" lon="10.5088">
        <ele>2257.046</ele>
        <time>2018-08-11T14:11:35Z</time>
      </trkpt>
      <trkpt lat="46.22758" lon="10.50868">
        <ele>2249.991</ele>
        <time>2018-08-11T14:11:55Z</time>
      </trkpt>
      <trkpt lat="46.22767" lon="10.5086">
        <ele>2247.647</ele>
        <time>2018-08-11T14:12:15Z</time>
      </trkpt>
      <trkpt lat="46.22772" lon="10.50855">
        <ele>2245.551</ele>
        <time>2018-08-11T14:12:35Z</time>
      </trkpt>
      <trkpt lat="46.22784" lon="10.50848">
        <ele>2243.426</ele>
        <time>2018-08-11T14:12:55Z</time>
      </trkpt>
      <trkpt lat="46.22791" lon="10.50844">
        <ele>2242.117</ele>
        <time>2018-08-11T14:13:15Z</time>
      </trkpt>
      <trkpt lat="46.22799" lon="10.50838">
        <ele>2240.254</ele>
        <time>2018-08-11T14:13:35Z</time>
      </trkpt>
      <trkpt lat="46.22812" lon="10.50835">
        <ele>2237.257</ele>
        <time>2018-08-11T14:13:55Z</time>
      </trkpt>
      <trkpt lat="46.22818" lon="10.50832">
        <ele>2233.035</ele>
        <time>2018-08-11T14:14:15Z</time>
      </trkpt>
      <trkpt lat="46.22825" lon="10.50826">
        <ele>2225.386</ele>
        <time>2018-08-11T14:14:35Z</time>
      </trkpt>
      <trkpt lat="46.22832" lon="10.50826">
        <ele>2222.314</ele>
        <time>2018-08-11T14:14:55Z</time>
      </trkpt>
      <trkpt lat="46.22845" lon="10.50833">
        <ele>2224.408</ele>
        <time>2018-08-11T14:15:15Z</time>
      </trkpt>
      <trkpt lat="46.22855" lon="10.50828">
        <ele>2217.155</ele>
        <time>2018-08-11T14:15:35Z</time>
      </trkpt>
      <trkpt lat="46.22867" lon="10.5082">
        <ele>2206.98</ele>
        <time>2018-08-11T14:15:55Z</time>
      </trkpt>
      <trkpt lat="46.22877" lon="10.50824">
        <ele>2207.336</ele>
        <time>2018-08-11T14:16:15Z</time>
      </trkpt>
      <trkpt lat="46.2288" lon="10.50824">
        <ele>2206.46</ele>
        <time>2018-08-11T14:16:35Z</time>
      </trkpt>
      <trkpt lat="46.22889" lon="10.5082">
        <ele>2200.795</ele>
        <time>2018-08-11T14:16:55Z</time>
      </trkpt>
      <trkpt lat="46.22919" lon="10.50837">
        <ele>2189.376</ele>
        <time>2018-08-11T14:17:15Z</time>
      </trkpt>
      <trkpt lat="46.22936" lon="10.50853">
        <ele>2188.823</ele>
        <time>2018-08-11T14:17:35Z</time>
      </trkpt>
      <trkpt lat="46.22951" lon="10.50855">
        <ele>2183.426</ele>
        <time>2018-08-11T14:17:55Z</time>
      </trkpt>
      <trkpt lat="46.22964" lon="10.50866">
        <ele>2180.856</ele>
        <time>2018-08-11T14:18:15Z</time>
      </trkpt>
      <trkpt lat="46.2298" lon="10.50879">
        <ele>2177.859</ele>
        <time>2018-08-11T14:18:35Z</time>
      </trkpt>
      <trkpt lat="46.2299" lon="10.50887">
        <ele>2178.314</ele>
        <time>2018-08-11T14:18:55Z</time>
      </trkpt>
      <trkpt lat="46.23003" lon="10.50881">
        <ele>2175.808</ele>
        <time>2018-08-11T14:19:15Z</time>
      </trkpt>
      <trkpt lat="46.23003" lon="10.50878">
        <ele>2174.917</ele>
        <time>2018-08-11T14:19:35Z</time>
      </trkpt>
      <trkpt lat="46.23006" lon="10.50879">
        <ele>2175.122</ele>
        <time>2018-08-11T14:19:55Z</time>
      </trkpt>
      <trkpt lat="46.2301" lon="10.50878">
        <ele>2175.048</ele>
        <time>2018-08-11T14:20:15Z</time>
      </trkpt>
      <trkpt lat="46.23012" lon="10.50875">
        <ele>2174.772</ele>
        <time>2018-08-11T14:20:35Z</time>
      </trkpt>
      <trkpt lat="46.23011" lon="10.50868">
        <ele>2173.287</ele>
        <time>2018-08-11T14:20:55Z</time>
      </trkpt>
      <trkpt lat="46.2301" lon="10.50866">
        <ele>2172.668</ele>
        <time>2018-08-11T14:21:15Z</time>
      </trkpt>
      <trkpt lat="46.23004" lon="10.5086">
        <ele>2169.645</ele>
        <time>2018-08-11T14:21:35Z</time>
      </trkpt>
      <trkpt lat="46.23001" lon="10.50851">
        <ele>2162.338</ele>
        <time>2018-08-11T14:21:55Z</time>
      </trkpt>
      <trkpt lat="46.2299" lon="10.50835">
        <ele>2155.391</ele>
        <time>2018-08-11T14:22:15Z</time>
      </trkpt>
      <trkpt lat="46.22988" lon="10.50831">
        <ele>2153.581</ele>
        <time>2018-08-11T14:22:35Z</time>
      </trkpt>
      <trkpt lat="46.22983" lon="10.50825">
        <ele>2151.319</ele>
        <time>2018-08-11T14:22:55Z</time>
      </trkpt>
      <trkpt lat="46.22978" lon="10.50819">
        <ele>2150.108</ele>
        <time>2018-08-11T14:23:15Z</time>
      </trkpt>
      <trkpt lat="46.22972" lon="10.50807">
        <ele>2145.941</ele>
        <time>2018-08-11T14:23:35Z</time>
      </trkpt>
      <trkpt lat="46.22967" lon="10.50802">
        <ele>2144.776</ele>
        <time>2018-08-11T14:23:55Z</time>
      </trkpt>
      <trkpt lat="46.2296" lon="10.50796">
        <ele>2144.752</ele>
        <time>2018-08-11T14:24:15Z</time>
      </trkpt>
      <trkpt lat="46.22954" lon="10.50791">
        <ele>2144.266</ele>
        <time>2018-08-11T14:24:35Z</time>
      </trkpt>
      <trkpt lat="46.22951" lon="10.50784">
        <ele>2142.231</ele>
        <time>2018-08-11T14:24:55Z</time>
      </trkpt>
      <trkpt lat="46.22947" lon="10.50777">
        <ele>2139.612</ele>
        <time>2018-08-11T14:25:15Z</time>
      </trkpt>
      <trkpt lat="46.22942" lon="10.5077">
        <ele>2138.469</ele>
        <time>2018-08-11T14:25:35Z</time>
      </trkpt>
      <trkpt lat="46.22936" lon="10.50763">
        <ele>2137.132</ele>
        <time>2018-08-11T14:25:55Z</time>
      </trkpt>
      <trkpt lat="46.2293" lon="10.50754">
        <ele>2136.022</ele>
        <time>2018-08-11T14:26:15Z</time>
      </trkpt>
      <trkpt lat="46.22918" lon="10.50734">
        <ele>2136.862</ele>
        <time>2018-08-11T14:26:35Z</time>
      </trkpt>
      <trkpt lat="46.22916" lon="10.50728">
        <ele>2135.908</ele>
        <time>2018-08-11T14:26:55Z</time>
      </trkpt>
      <trkpt lat="46.22917" lon="10.50721">
        <ele>2133.508</ele>
        <time>2018-08-11T14:27:15Z</time>
      </trkpt>
      <trkpt lat="46.22918" lon="10.50713">
        <ele>2130.854</ele>
        <time>2018-08-11T14:27:35Z</time>
      </trkpt>
      <trkpt lat="46.22919" lon="10.50708">
        <ele>2129.279</ele>
        <time>2018-08-11T14:27:55Z</time>
      </trkpt>
      <trkpt lat="46.22918" lon="10.50701">
        <ele>2127.935</ele>
        <time>2018-08-11T14:28:15Z</time>
      </trkpt>
      <trkpt lat="46.22918" lon="10.50694">
        <ele>2126.299</ele>
        <time>2018-08-11T14:28:35Z</time>
      </trkpt>
      <trkpt lat="46.22918" lon="10.50694">
        <ele>2126.254</ele>
        <time>2018-08-11T14:28:55Z</time>
      </trkpt>
      <trkpt lat="46.22919" lon="10.50687">
        <ele>2126.055</ele>
        <time>2018-08-11T14:29:15Z</time>
      </trkpt>
      <trkpt lat="46.22923" lon="10.50682">
        <ele>2123.312</ele>
        <time>2018-08-11T14:29:35Z</time>
      </trkpt>
      <trkpt lat="46.22929" lon="10.50673">
        <ele>2119.145</ele>
        <time>2018-08-11T14:29:55Z</time>
      </trkpt>
      <trkpt lat="46.22929" lon="10.50666">
        <ele>2119.075</ele>
        <time>2018-08-11T14:30:15Z</time>
      </trkpt>
      <trkpt lat="46.22927" lon="10.50658">
        <ele>2120.828</ele>
        <time>2018-08-11T14:30:35Z</time>
      </trkpt>
      <trkpt lat="46.22927" lon="10.50649">
        <ele>2121.92</ele>
        <time>2018-08-11T14:30:55Z</time>
      </trkpt>
      <trkpt lat="46.22928" lon="10.50645">
        <ele>2121.208</ele>
        <time>2018-08-11T14:31:15Z</time>
      </trkpt>
      <trkpt lat="46.22932" lon="10.50642">
        <ele>2118.279</ele>
        <time>2018-08-11T14:31:35Z</time>
      </trkpt>
      <trkpt lat="46.22934" lon="10.50645">
        <ele>2116.264</ele>
        <time>2018-08-11T14:31:55Z</time>
      </trkpt>
      <trkpt lat="46.22935" lon="10.50627">
        <ele>2116.49</ele>
        <time>2018-08-11T14:32:15Z</time>
      </trkpt>
      <trkpt lat="46.22938" lon="10.50622">
        <ele>2114.374</ele>
        <time>2018-08-11T14:32:35Z</time>
      </trkpt>
      <trkpt lat="46.22941" lon="10.50622">
        <ele>2112.199</ele>
        <time>2018-08-11T14:32:55Z</time>
      </trkpt>
      <trkpt lat="46.22945" lon="10.50632">
        <ele>2108.88</ele>
        <time>2018-08-11T14:33:15Z</time>
      </trkpt>
      <trkpt lat="46.22946" lon="10.50655">
        <ele>2107.417</ele>
        <time>2018-08-11T14:33:35Z</time>
      </trkpt>
      <trkpt lat="46.22949" lon="10.50667">
        <ele>2105.99</ele>
        <time>2018-08-11T14:33:55Z</time>
      </trkpt>
      <trkpt lat="46.22953" lon="10.50682">
        <ele>2105.741</ele>
        <time>2018-08-11T14:34:15Z</time>
      </trkpt>
      <trkpt lat="46.22944" lon="10.50702">
        <ele>2113.881</ele>
        <time>2018-08-11T14:34:35Z</time>
      </trkpt>
      <trkpt lat="46.22945" lon="10.50714">
        <ele>2115.709</ele>
        <time>2018-08-11T14:34:55Z</time>
      </trkpt>
      <trkpt lat="46.22952" lon="10.50723">
        <ele>2113.408</ele>
        <time>2018-08-11T14:35:15Z</time>
      </trkpt>
      <trkpt lat="46.22965" lon="10.50737">
        <ele>2109.486</ele>
        <time>2018-08-11T14:35:35Z</time>
      </trkpt>
      <trkpt lat="46.22973" lon="10.50745">
        <ele>2108.281</ele>
        <time>2018-08-11T14:35:55Z</time>
      </trkpt>
      <trkpt lat="46.22994" lon="10.50757">
        <ele>2105.657</ele>
        <time>2018-08-11T14:36:15Z</time>
      </trkpt>
      <trkpt lat="46.22999" lon="10.50759">
        <ele>2104.661</ele>
        <time>2018-08-11T14:36:35Z</time>
      </trkpt>
      <trkpt lat="46.23" lon="10.50759">
        <ele>2104.236</ele>
        <time>2018-08-11T14:36:55Z</time>
      </trkpt>
      <trkpt lat="46.23001" lon="10.5076">
        <ele>2104.257</ele>
        <time>2018-08-11T14:37:15Z</time>
      </trkpt>
      <trkpt lat="46.23029" lon="10.50761">
        <ele>2096.124</ele>
        <time>2018-08-11T14:37:35Z</time>
      </trkpt>
      <trkpt lat="46.23046" lon="10.50751">
        <ele>2090.787</ele>
        <time>2018-08-11T14:37:55Z</time>
      </trkpt>
      <trkpt lat="46.23068" lon="10.50742">
        <ele>2087.093</ele>
        <time>2018-08-11T14:38:15Z</time>
      </trkpt>
      <trkpt lat="46.23069" lon="10.50742">
        <ele>2086.965</ele>
        <time>2018-08-11T14:38:35Z</time>
      </trkpt>
      <trkpt lat="46.23075" lon="10.50738">
        <ele>2085.621</ele>
        <time>2018-08-11T14:38:55Z</time>
      </trkpt>
      <trkpt lat="46.23137" lon="10.50698">
        <ele>2070.608</ele>
        <time>2018-08-11T14:39:15Z</time>
      </trkpt>
      <trkpt lat="46.23147" lon="10.50689">
        <ele>2066.751</ele>
        <time>2018-08-11T14:39:35Z</time>
      </trkpt>
      <trkpt lat="46.23158" lon="10.50682">
        <ele>2064.976</ele>
        <time>2018-08-11T14:39:55Z</time>
      </trkpt>
      <trkpt lat="46.23174" lon="10.5067">
        <ele>2062.182</ele>
        <time>2018-08-11T14:40:15Z</time>
      </trkpt>
      <trkpt lat="46.23181" lon="10.50664">
        <ele>2061.236</ele>
        <time>2018-08-11T14:40:35Z</time>
      </trkpt>
      <trkpt lat="46.23192" lon="10.50654">
        <ele>2060.081</ele>
        <time>2018-08-11T14:40:55Z</time>
      </trkpt>
      <trkpt lat="46.23195" lon="10.50651">
        <ele>2059.732</ele>
        <time>2018-08-11T14:41:15Z</time>
      </trkpt>
      <trkpt lat="46.23208" lon="10.50638">
        <ele>2057.519</ele>
        <time>2018-08-11T14:41:35Z</time>
      </trkpt>
      <trkpt lat="46.23227" lon="10.50614">
        <ele>2051.212</ele>
        <time>2018-08-11T14:41:55Z</time>
      </trkpt>
      <trkpt lat="46.23248" lon="10.50583">
        <ele>2044.457</ele>
        <time>2018-08-11T14:42:15Z</time>
      </trkpt>
      <trkpt lat="46.23266" lon="10.50561">
        <ele>2039.7</ele>
        <time>2018-08-11T14:42:35Z</time>
      </trkpt>
      <trkpt lat="46.2328" lon="10.50545">
        <ele>2035.22</ele>
        <time>2018-08-11T14:42:55Z</time>
      </trkpt>
      <trkpt lat="46.23296" lon="10.5053">
        <ele>2031.608</ele>
        <time>2018-08-11T14:43:15Z</time>
      </trkpt>
      <trkpt lat="46.23313" lon="10.50518">
        <ele>2029.477</ele>
        <time>2018-08-11T14:43:35Z</time>
      </trkpt>
      <trkpt lat="46.23337" lon="10.50508">
        <ele>2028.022</ele>
        <time>2018-08-11T14:43:55Z</time>
      </trkpt>
      <trkpt lat="46.23372" lon="10.50496">
        <ele>2021.878</ele>
        <time>2018-08-11T14:44:15Z</time>
      </trkpt>
      <trkpt lat="46.23374" lon="10.50495">
        <ele>2021.122</ele>
        <time>2018-08-11T14:44:35Z</time>
      </trkpt>
      <trkpt lat="46.23427" lon="10.50467">
        <ele>2009.187</ele>
        <time>2018-08-11T14:44:55Z</time>
      </trkpt>
      <trkpt lat="46.23443" lon="10.50457">
        <ele>2006.458</ele>
        <time>2018-08-11T14:45:15Z</time>
      </trkpt>
      <trkpt lat="46.23457" lon="10.50449">
        <ele>2005.375</ele>
        <time>2018-08-11T14:45:35Z</time>
      </trkpt>
      <trkpt lat="46.23485" lon="10.50429">
        <ele>1999.398</ele>
        <time>2018-08-11T14:45:55Z</time>
      </trkpt>
      <trkpt lat="46.23496" lon="10.50421">
        <ele>1995.926</ele>
        <time>2018-08-11T14:46:15Z</time>
      </trkpt>
      <trkpt lat="46.23504" lon="10.50417">
        <ele>1994.747</ele>
        <time>2018-08-11T14:46:35Z</time>
      </trkpt>
      <trkpt lat="46.2353" lon="10.50404">
        <ele>1990.711</ele>
        <time>2018-08-11T14:46:55Z</time>
      </trkpt>
      <trkpt lat="46.23548" lon="10.50397">
        <ele>1987.208</ele>
        <time>2018-08-11T14:47:15Z</time>
      </trkpt>
      <trkpt lat="46.23568" lon="10.5039">
        <ele>1981.544</ele>
        <time>2018-08-11T14:47:35Z</time>
      </trkpt>
      <trkpt lat="46.23592" lon="10.50378">
        <ele>1974.519</ele>
        <time>2018-08-11T14:47:55Z</time>
      </trkpt>
      <trkpt lat="46.23611" lon="10.50366">
        <ele>1969.845</ele>
        <time>2018-08-11T14:48:15Z</time>
      </trkpt>
      <trkpt lat="46.23626" lon="10.50361">
        <ele>1970.139</ele>
        <time>2018-08-11T14:48:35Z</time>
      </trkpt>
      <trkpt lat="46.23634" lon="10.50361">
        <ele>1970.924</ele>
        <time>2018-08-11T14:48:55Z</time>
      </trkpt>
      <trkpt lat="46.23649" lon="10.5036">
        <ele>1971.415</ele>
        <time>2018-08-11T14:49:15Z</time>
      </trkpt>
      <trkpt lat="46.23654" lon="10.50357">
        <ele>1970.182</ele>
        <time>2018-08-11T14:49:35Z</time>
      </trkpt>
      <trkpt lat="46.23662" lon="10.50347">
        <ele>1965.715</ele>
        <time>2018-08-11T14:49:55Z</time>
      </trkpt>
      <trkpt lat="46.23674" lon="10.5034">
        <ele>1962.983</ele>
        <time>2018-08-11T14:50:15Z</time>
      </trkpt>
      <trkpt lat="46.23703" lon="10.50321">
        <ele>1955.925</ele>
        <time>2018-08-11T14:50:35Z</time>
      </trkpt>
      <trkpt lat="46.23719" lon="10.50315">
        <ele>1953.317</ele>
        <time>2018-08-11T14:50:55Z</time>
      </trkpt>
      <trkpt lat="46.23731" lon="10.50316">
        <ele>1952.808</ele>
        <time>2018-08-11T14:51:15Z</time>
      </trkpt>
      <trkpt lat="46.23746" lon="10.5032">
        <ele>1951.58</ele>
        <time>2018-08-11T14:51:35Z</time>
      </trkpt>
      <trkpt lat="46.23748" lon="10.5032">
        <ele>1951.255</ele>
        <time>2018-08-11T14:51:55Z</time>
      </trkpt>
      <trkpt lat="46.23751" lon="10.5032">
        <ele>1950.821</ele>
        <time>2018-08-11T14:52:15Z</time>
      </trkpt>
      <trkpt lat="46.23763" lon="10.50319">
        <ele>1949.075</ele>
        <time>2018-08-11T14:52:35Z</time>
      </trkpt>
      <trkpt lat="46.23784" lon="10.50319">
        <ele>1945.45</ele>
        <time>2018-08-11T14:52:55Z</time>
      </trkpt>
      <trkpt lat="46.23798" lon="10.5032">
        <ele>1942.771</ele>
        <time>2018-08-11T14:53:15Z</time>
      </trkpt>
      <trkpt lat="46.23802" lon="10.5032">
        <ele>1942.028</ele>
        <time>2018-08-11T14:53:35Z</time>
      </trkpt>
      <trkpt lat="46.23799" lon="10.50311">
        <ele>1939.151</ele>
        <time>2018-08-11T14:53:55Z</time>
      </trkpt>
      <trkpt lat="46.23797" lon="10.50308">
        <ele>1938.972</ele>
        <time>2018-08-11T14:54:15Z</time>
      </trkpt>
      <trkpt lat="46.2378" lon="10.503">
        <ele>1940.313</ele>
        <time>2018-08-11T14:54:35Z</time>
      </trkpt>
      <trkpt lat="46.23768" lon="10.50295">
        <ele>1940.714</ele>
        <time>2018-08-11T14:54:55Z</time>
      </trkpt>
      <trkpt lat="46.23753" lon="10.50287">
        <ele>1938.908</ele>
        <time>2018-08-11T14:55:15Z</time>
      </trkpt>
      <trkpt lat="46.23741" lon="10.50276">
        <ele>1933.439</ele>
        <time>2018-08-11T14:55:35Z</time>
      </trkpt>
      <trkpt lat="46.23732" lon="10.5026">
        <ele>1924.954</ele>
        <time>2018-08-11T14:55:55Z</time>
      </trkpt>
      <trkpt lat="46.23728" lon="10.50255">
        <ele>1922.81</ele>
        <time>2018-08-11T14:56:15Z</time>
      </trkpt>
      <trkpt lat="46.23704" lon="10.50244">
        <ele>1918.894</ele>
        <time>2018-08-11T14:56:35Z</time>
      </trkpt>
      <trkpt lat="46.23678" lon="10.50237">
        <ele>1914.799</ele>
        <time>2018-08-11T14:56:55Z</time>
      </trkpt>
      <trkpt lat="46.23627" lon="10.50227">
        <ele>1905.84</ele>
        <time>2018-08-11T14:57:15Z</time>
      </trkpt>
      <trkpt lat="46.23614" lon="10.50223">
        <ele>1904.247</ele>
        <time>2018-08-11T14:57:35Z</time>
      </trkpt>
      <trkpt lat="46.23607" lon="10.50223">
        <ele>1904.32</ele>
        <time>2018-08-11T14:57:55Z</time>
      </trkpt>
      <trkpt lat="46.23598" lon="10.50219">
        <ele>1903.414</ele>
        <time>2018-08-11T14:58:15Z</time>
      </trkpt>
      <trkpt lat="46.23584" lon="10.50213">
        <ele>1902.154</ele>
        <time>2018-08-11T14:58:35Z</time>
      </trkpt>
      <trkpt lat="46.23574" lon="10.50206">
        <ele>1899.809</ele>
        <time>2018-08-11T14:58:55Z</time>
      </trkpt>
      <trkpt lat="46.23565" lon="10.50196">
        <ele>1896.608</ele>
        <time>2018-08-11T14:59:15Z</time>
      </trkpt>
      <trkpt lat="46.23559" lon="10.50189">
        <ele>1894.493</ele>
        <time>2018-08-11T14:59:35Z</time>
      </trkpt>
      <trkpt lat="46.23552" lon="10.50172">
        <ele>1890.728</ele>
        <time>2018-08-11T14:59:55Z</time>
      </trkpt>
      <trkpt lat="46.23544" lon="10.5016">
        <ele>1887.744</ele>
        <time>2018-08-11T15:00:15Z</time>
      </trkpt>
      <trkpt lat="46.23531" lon="10.50151">
        <ele>1885.648</ele>
        <time>2018-08-11T15:00:35Z</time>
      </trkpt>
      <trkpt lat="46.23511" lon="10.50141">
        <ele>1882.653</ele>
        <time>2018-08-11T15:00:55Z</time>
      </trkpt>
      <trkpt lat="46.23486" lon="10.50138">
        <ele>1882.184</ele>
        <time>2018-08-11T15:01:15Z</time>
      </trkpt>
      <trkpt lat="46.23455" lon="10.50121">
        <ele>1877.261</ele>
        <time>2018-08-11T15:01:35Z</time>
      </trkpt>
      <trkpt lat="46.23495" lon="10.50107">
        <ele>1870.054</ele>
        <time>2018-08-11T15:01:55Z</time>
      </trkpt>
      <trkpt lat="46.2353" lon="10.5007">
        <ele>1857.312</ele>
        <time>2018-08-11T15:02:15Z</time>
      </trkpt>
      <trkpt lat="46.23553" lon="10.50052">
        <ele>1850.932</ele>
        <time>2018-08-11T15:02:35Z</time>
      </trkpt>
      <trkpt lat="46.23568" lon="10.50058">
        <ele>1851.005</ele>
        <time>2018-08-11T15:02:55Z</time>
      </trkpt>
      <trkpt lat="46.23577" lon="10.50054">
        <ele>1848.408</ele>
        <time>2018-08-11T15:03:15Z</time>
      </trkpt>
      <trkpt lat="46.2363" lon="10.50025">
        <ele>1837.373</ele>
        <time>2018-08-11T15:03:35Z</time>
      </trkpt>
      <trkpt lat="46.23695" lon="10.50013">
        <ele>1826.068</ele>
        <time>2018-08-11T15:03:55Z</time>
      </trkpt>
      <trkpt lat="46.2371" lon="10.50015">
        <ele>1822.674</ele>
        <time>2018-08-11T15:04:15Z</time>
      </trkpt>
      <trkpt lat="46.23716" lon="10.50016">
        <ele>1821.178</ele>
        <time>2018-08-11T15:04:35Z</time>
      </trkpt>
      <trkpt lat="46.23733" lon="10.50018">
        <ele>1818.273</ele>
        <time>2018-08-11T15:04:55Z</time>
      </trkpt>
      <trkpt lat="46.23734" lon="10.50018">
        <ele>1818.074</ele>
        <time>2018-08-11T15:05:15Z</time>
      </trkpt>
      <trkpt lat="46.23757" lon="10.50027">
        <ele>1816.241</ele>
        <time>2018-08-11T15:05:35Z</time>
      </trkpt>
      <trkpt lat="46.23808" lon="10.50029">
        <ele>1806.934</ele>
        <time>2018-08-11T15:05:55Z</time>
      </trkpt>
      <trkpt lat="46.2381" lon="10.50029">
        <ele>1806.355</ele>
        <time>2018-08-11T15:06:15Z</time>
      </trkpt>
      <trkpt lat="46.23836" lon="10.50044">
        <ele>1805.407</ele>
        <time>2018-08-11T15:06:35Z</time>
      </trkpt>
      <trkpt lat="46.23857" lon="10.50054">
        <ele>1801.417</ele>
        <time>2018-08-11T15:06:55Z</time>
      </trkpt>
      <trkpt lat="46.23869" lon="10.50055">
        <ele>1797.808</ele>
        <time>2018-08-11T15:07:15Z</time>
      </trkpt>
      <trkpt lat="46.23881" lon="10.50055">
        <ele>1794.637</ele>
        <time>2018-08-11T15:07:35Z</time>
      </trkpt>
      <trkpt lat="46.23904" lon="10.50039">
        <ele>1785.572</ele>
        <time>2018-08-11T15:07:55Z</time>
      </trkpt>
      <trkpt lat="46.23902" lon="10.5001">
        <ele>1778.198</ele>
        <time>2018-08-11T15:08:15Z</time>
      </trkpt>
      <trkpt lat="46.23904" lon="10.49975">
        <ele>1770.322</ele>
        <time>2018-08-11T15:08:35Z</time>
      </trkpt>
      <trkpt lat="46.23851" lon="10.49972">
        <ele>1779.527</ele>
        <time>2018-08-11T15:08:55Z</time>
      </trkpt>
      <trkpt lat="46.23823" lon="10.49958">
        <ele>1782.188</ele>
        <time>2018-08-11T15:09:15Z</time>
      </trkpt>
      <trkpt lat="46.23817" lon="10.49956">
        <ele>1782.595</ele>
        <time>2018-08-11T15:09:35Z</time>
      </trkpt>
      <trkpt lat="46.2381" lon="10.49953">
        <ele>1782.988</ele>
        <time>2018-08-11T15:09:55Z</time>
      </trkpt>
      <trkpt lat="46.2381" lon="10.49953">
        <ele>1782.961</ele>
        <time>2018-08-11T15:10:15Z</time>
      </trkpt>
      <trkpt lat="46.23792" lon="10.49946">
        <ele>1783.321</ele>
        <time>2018-08-11T15:10:35Z</time>
      </trkpt>
      <trkpt lat="46.23779" lon="10.49943">
        <ele>1784.213</ele>
        <time>2018-08-11T15:10:55Z</time>
      </trkpt>
      <trkpt lat="46.23763" lon="10.49933">
        <ele>1784.408</ele>
        <time>2018-08-11T15:11:15Z</time>
      </trkpt>
      <trkpt lat="46.23751" lon="10.49929">
        <ele>1785.178</ele>
        <time>2018-08-11T15:11:35Z</time>
      </trkpt>
      <trkpt lat="46.23741" lon="10.49925">
        <ele>1785.773</ele>
        <time>2018-08-11T15:11:55Z</time>
      </trkpt>
      <trkpt lat="46.23728" lon="10.49924">
        <ele>1787.949</ele>
        <time>2018-08-11T15:12:15Z</time>
      </trkpt>
      <trkpt lat="46.2372" lon="10.4992">
        <ele>1787.713</ele>
        <time>2018-08-11T15:12:35Z</time>
      </trkpt>
      <trkpt lat="46.23717" lon="10.49918">
        <ele>1787.748</ele>
        <time>2018-08-11T15:12:55Z</time>
      </trkpt>
      <trkpt lat="46.23705" lon="10.49912">
        <ele>1788.359</ele>
        <time>2018-08-11T15:13:15Z</time>
      </trkpt>
      <trkpt lat="46.2369" lon="10.49905">
        <ele>1788.846</ele>
        <time>2018-08-11T15:13:35Z</time>
      </trkpt>
      <trkpt lat="46.23684" lon="10.49902">
        <ele>1788.859</ele>
        <time>2018-08-11T15:13:55Z</time>
      </trkpt>
      <trkpt lat="46.23671" lon="10.49895">
        <ele>1789.282</ele>
        <time>2018-08-11T15:14:15Z</time>
      </trkpt>
      <trkpt lat="46.23659" lon="10.4988">
        <ele>1790.243</ele>
        <time>2018-08-11T15:14:35Z</time>
      </trkpt>
      <trkpt lat="46.23659" lon="10.49878">
        <ele>1790.217</ele>
        <time>2018-08-11T15:14:55Z</time>
      </trkpt>
      <trkpt lat="46.23657" lon="10.49878">
        <ele>1790.608</ele>
        <time>2018-08-11T15:15:15Z</time>
      </trkpt>
      <trkpt lat="46.23658" lon="10.49875">
        <ele>1790.77</ele>
        <time>2018-08-11T15:15:35Z</time>
      </trkpt>
      <trkpt lat="46.23657" lon="10.49865">
        <ele>1791.795</ele>
        <time>2018-08-11T15:15:55Z</time>
      </trkpt>
      <trkpt lat="46.23657" lon="10.49849">
        <ele>1795.811</ele>
        <time>2018-08-11T15:16:15Z</time>
      </trkpt>
      <trkpt lat="46.23654" lon="10.49833">
        <ele>1800.845</ele>
        <time>2018-08-11T15:16:35Z</time>
      </trkpt>
      <trkpt lat="46.23654" lon="10.49821">
        <ele>1804.37</ele>
        <time>2018-08-11T15:16:55Z</time>
      </trkpt>
      <trkpt lat="46.23659" lon="10.4981">
        <ele>1806.941</ele>
        <time>2018-08-11T15:17:15Z</time>
      </trkpt>
      <trkpt lat="46.23648" lon="10.49813">
        <ele>1807.568</ele>
        <time>2018-08-11T15:17:35Z</time>
      </trkpt>
      <trkpt lat="46.23639" lon="10.49815">
        <ele>1808.351</ele>
        <time>2018-08-11T15:17:55Z</time>
      </trkpt>
      <trkpt lat="46.23632" lon="10.49821">
        <ele>1807.983</ele>
        <time>2018-08-11T15:18:15Z</time>
      </trkpt>
      <trkpt lat="46.23625" lon="10.49831">
        <ele>1806.325</ele>
        <time>2018-08-11T15:18:35Z</time>
      </trkpt>
      <trkpt lat="46.2362" lon="10.49823">
        <ele>1809.317</ele>
        <time>2018-08-11T15:18:55Z</time>
      </trkpt>
      <trkpt lat="46.2362" lon="10.49822">
        <ele>1809.508</ele>
        <time>2018-08-11T15:19:15Z</time>
      </trkpt>
      <trkpt lat="46.2362" lon="10.49822">
        <ele>1809.66</ele>
        <time>2018-08-11T15:19:35Z</time>
      </trkpt>
      <trkpt lat="46.23622" lon="10.49809">
        <ele>1813.185</ele>
        <time>2018-08-11T15:19:55Z</time>
      </trkpt>
      <trkpt lat="46.23626" lon="10.49801">
        <ele>1814.371</ele>
        <time>2018-08-11T15:20:15Z</time>
      </trkpt>
      <trkpt lat="46.23634" lon="10.49791">
        <ele>1815.785</ele>
        <time>2018-08-11T15:20:35Z</time>
      </trkpt>
      <trkpt lat="46.2364" lon="10.49776">
        <ele>1818.26</ele>
        <time>2018-08-11T15:20:55Z</time>
      </trkpt>
      <trkpt lat="46.23647" lon="10.49764">
        <ele>1820.881</ele>
        <time>2018-08-11T15:21:15Z</time>
      </trkpt>
      <trkpt lat="46.23654" lon="10.49756">
        <ele>1822.768</ele>
        <time>2018-08-11T15:21:35Z</time>
      </trkpt>
      <trkpt lat="46.23659" lon="10.49749">
        <ele>1824.761</ele>
        <time>2018-08-11T15:21:55Z</time>
      </trkpt>
      <trkpt lat="46.23664" lon="10.49748">
        <ele>1824.882</ele>
        <time>2018-08-11T15:22:15Z</time>
      </trkpt>
      <trkpt lat="46.23671" lon="10.49743">
        <ele>1825.943</ele>
        <time>2018-08-11T15:22:35Z</time>
      </trkpt>
      <trkpt lat="46.23674" lon="10.49741">
        <ele>1826.317</ele>
        <time>2018-08-11T15:22:55Z</time>
      </trkpt>
      <trkpt lat="46.23678" lon="10.49734">
        <ele>1828.308</ele>
        <time>2018-08-11T15:23:15Z</time>
      </trkpt>
      <trkpt lat="46.23683" lon="10.49732">
        <ele>1827.96</ele>
        <time>2018-08-11T15:23:35Z</time>
      </trkpt>
      <trkpt lat="46.23689" lon="10.49728">
        <ele>1827.665</ele>
        <time>2018-08-11T15:23:55Z</time>
      </trkpt>
      <trkpt lat="46.23691" lon="10.49718">
        <ele>1830.171</ele>
        <time>2018-08-11T15:24:15Z</time>
      </trkpt>
      <trkpt lat="46.2369" lon="10.49696">
        <ele>1835.395</ele>
        <time>2018-08-11T15:24:35Z</time>
      </trkpt>
      <trkpt lat="46.23689" lon="10.49683">
        <ele>1838.31</ele>
        <time>2018-08-11T15:24:55Z</time>
      </trkpt>
      <trkpt lat="46.23692" lon="10.4967">
        <ele>1839.111</ele>
        <time>2018-08-11T15:25:15Z</time>
      </trkpt>
      <trkpt lat="46.23688" lon="10.49645">
        <ele>1845.738</ele>
        <time>2018-08-11T15:25:35Z</time>
      </trkpt>
      <trkpt lat="46.23676" lon="10.49621">
        <ele>1854.141</ele>
        <time>2018-08-11T15:25:55Z</time>
      </trkpt>
      <trkpt lat="46.23649" lon="10.496">
        <ele>1862.644</ele>
        <time>2018-08-11T15:26:15Z</time>
      </trkpt>
      <trkpt lat="46.23628" lon="10.49579">
        <ele>1867.405</ele>
        <time>2018-08-11T15:26:35Z</time>
      </trkpt>
      <trkpt lat="46.23613" lon="10.4956">
        <ele>1869.815</ele>
        <time>2018-08-11T15:26:55Z</time>
      </trkpt>
      <trkpt lat="46.23593" lon="10.49531">
        <ele>1870.808</ele>
        <time>2018-08-11T15:27:15Z</time>
      </trkpt>
      <trkpt lat="46.23575" lon="10.49513">
        <ele>1872.086</ele>
        <time>2018-08-11T15:27:35Z</time>
      </trkpt>
      <trkpt lat="46.23534" lon="10.49516">
        <ele>1879.181</ele>
        <time>2018-08-11T15:27:55Z</time>
      </trkpt>
      <trkpt lat="46.23495" lon="10.49531">
        <ele>1878.777</ele>
        <time>2018-08-11T15:28:15Z</time>
      </trkpt>
      <trkpt lat="46.23482" lon="10.4954">
        <ele>1878.681</ele>
        <time>2018-08-11T15:28:35Z</time>
      </trkpt>
      <trkpt lat="46.23468" lon="10.49551">
        <ele>1879.286</ele>
        <time>2018-08-11T15:28:55Z</time>
      </trkpt>
      <trkpt lat="46.23456" lon="10.49562">
        <ele>1881.147</ele>
        <time>2018-08-11T15:29:15Z</time>
      </trkpt>
      <trkpt lat="46.2343" lon="10.49584">
        <ele>1886.764</ele>
        <time>2018-08-11T15:29:35Z</time>
      </trkpt>
      <trkpt lat="46.23395" lon="10.49583">
        <ele>1881.837</ele>
        <time>2018-08-11T15:29:55Z</time>
      </trkpt>
      <trkpt lat="46.2337" lon="10.49575">
        <ele>1876.728</ele>
        <time>2018-08-11T15:30:15Z</time>
      </trkpt>
      <trkpt lat="46.23355" lon="10.49571">
        <ele>1876.389</ele>
        <time>2018-08-11T15:30:35Z</time>
      </trkpt>
      <trkpt lat="46.23343" lon="10.49552">
        <ele>1871.017</ele>
        <time>2018-08-11T15:30:55Z</time>
      </trkpt>
      <trkpt lat="46.23315" lon="10.49539">
        <ele>1874.608</ele>
        <time>2018-08-11T15:31:15Z</time>
      </trkpt>
      <trkpt lat="46.23306" lon="10.49524">
        <ele>1873.454</ele>
        <time>2018-08-11T15:31:35Z</time>
      </trkpt>
      <trkpt lat="46.23292" lon="10.49521">
        <ele>1874.649</ele>
        <time>2018-08-11T15:31:55Z</time>
      </trkpt>
      <trkpt lat="46.23277" lon="10.49514">
        <ele>1875.125</ele>
        <time>2018-08-11T15:32:15Z</time>
      </trkpt>
      <trkpt lat="46.23263" lon="10.49511">
        <ele>1875.649</ele>
        <time>2018-08-11T15:32:35Z</time>
      </trkpt>
      <trkpt lat="46.23255" lon="10.49477">
        <ele>1867.724</ele>
        <time>2018-08-11T15:32:55Z</time>
      </trkpt>
      <trkpt lat="46.23229" lon="10.49471">
        <ele>1866.035</ele>
        <time>2018-08-11T15:33:15Z</time>
      </trkpt>
      <trkpt lat="46.23222" lon="10.49473">
        <ele>1866.192</ele>
        <time>2018-08-11T15:33:35Z</time>
      </trkpt>
      <trkpt lat="46.23212" lon="10.49468">
        <ele>1864.165</ele>
        <time>2018-08-11T15:33:55Z</time>
      </trkpt>
      <trkpt lat="46.23217" lon="10.49451">
        <ele>1861.086</ele>
        <time>2018-08-11T15:34:15Z</time>
      </trkpt>
      <trkpt lat="46.2322" lon="10.49448">
        <ele>1860.56</ele>
        <time>2018-08-11T15:34:35Z</time>
      </trkpt>
      <trkpt lat="46.23242" lon="10.4943">
        <ele>1855.326</ele>
        <time>2018-08-11T15:34:55Z</time>
      </trkpt>
      <trkpt lat="46.23249" lon="10.49427">
        <ele>1854.108</ele>
        <time>2018-08-11T15:35:15Z</time>
      </trkpt>
      <trkpt lat="46.23255" lon="10.49425">
        <ele>1852.48</ele>
        <time>2018-08-11T15:35:35Z</time>
      </trkpt>
      <trkpt lat="46.23256" lon="10.49424">
        <ele>1852.145</ele>
        <time>2018-08-11T15:35:55Z</time>
      </trkpt>
      <trkpt lat="46.23265" lon="10.49416">
        <ele>1847.931</ele>
        <time>2018-08-11T15:36:15Z</time>
      </trkpt>
      <trkpt lat="46.23271" lon="10.49414">
        <ele>1846.135</ele>
        <time>2018-08-11T15:36:35Z</time>
      </trkpt>
      <trkpt lat="46.2328" lon="10.49418">
        <ele>1845.22</ele>
        <time>2018-08-11T15:36:55Z</time>
      </trkpt>
      <trkpt lat="46.23297" lon="10.49439">
        <ele>1844.741</ele>
        <time>2018-08-11T15:37:15Z</time>
      </trkpt>
      <trkpt lat="46.23316" lon="10.49453">
        <ele>1841.548</ele>
        <time>2018-08-11T15:37:35Z</time>
      </trkpt>
      <trkpt lat="46.23333" lon="10.49468">
        <ele>1838.561</ele>
        <time>2018-08-11T15:37:55Z</time>
      </trkpt>
      <trkpt lat="46.23339" lon="10.49471">
        <ele>1839.028</ele>
        <time>2018-08-11T15:38:15Z</time>
      </trkpt>
      <trkpt lat="46.23371" lon="10.49449">
        <ele>1831.489</ele>
        <time>2018-08-11T15:38:35Z</time>
      </trkpt>
      <trkpt lat="46.23372" lon="10.49443">
        <ele>1829.617</ele>
        <time>2018-08-11T15:38:55Z</time>
      </trkpt>
      <trkpt lat="46.23382" lon="10.49431">
        <ele>1826.208</ele>
        <time>2018-08-11T15:39:15Z</time>
      </trkpt>
      <trkpt lat="46.23394" lon="10.49421">
        <ele>1823.124</ele>
        <time>2018-08-11T15:39:35Z</time>
      </trkpt>
      <trkpt lat="46.23398" lon="10.49408">
        <ele>1819.669</ele>
        <time>2018-08-11T15:39:55Z</time>
      </trkpt>
      <trkpt lat="46.23405" lon="10.49389">
        <ele>1814.555</ele>
        <time>2018-08-11T15:40:15Z</time>
      </trkpt>
      <trkpt lat="46.23412" lon="10.49382">
        <ele>1812.479</ele>
        <time>2018-08-11T15:40:35Z</time>
      </trkpt>
      <trkpt lat="46.2342" lon="10.49377">
        <ele>1810.674</ele>
        <time>2018-08-11T15:40:55Z</time>
      </trkpt>
      <trkpt lat="46.23437" lon="10.49387">
        <ele>1811.935</ele>
        <time>2018-08-11T15:41:15Z</time>
      </trkpt>
      <trkpt lat="46.23443" lon="10.49376">
        <ele>1808.392</ele>
        <time>2018-08-11T15:41:35Z</time>
      </trkpt>
      <trkpt lat="46.23443" lon="10.49371">
        <ele>1807.075</ele>
        <time>2018-08-11T15:41:55Z</time>
      </trkpt>
      <trkpt lat="46.2344" lon="10.49362">
        <ele>1804.787</ele>
        <time>2018-08-11T15:42:15Z</time>
      </trkpt>
      <trkpt lat="46.23435" lon="10.49355">
        <ele>1803.342</ele>
        <time>2018-08-11T15:42:35Z</time>
      </trkpt>
      <trkpt lat="46.23429" lon="10.4935">
        <ele>1802.526</ele>
        <time>2018-08-11T15:42:55Z</time>
      </trkpt>
      <trkpt lat="46.23424" lon="10.49344">
        <ele>1801.608</ele>
        <time>2018-08-11T15:43:15Z</time>
      </trkpt>
      <trkpt lat="46.23421" lon="10.49337">
        <ele>1800.12</ele>
        <time>2018-08-11T15:43:35Z</time>
      </trkpt>
      <trkpt lat="46.23423" lon="10.49328">
        <ele>1796.655</ele>
        <time>2018-08-11T15:43:55Z</time>
      </trkpt>
      <trkpt lat="46.23434" lon="10.49315">
        <ele>1789.661</ele>
        <time>2018-08-11T15:44:15Z</time>
      </trkpt>
      <trkpt lat="46.23449" lon="10.49302">
        <ele>1783.575</ele>
        <time>2018-08-11T15:44:35Z</time>
      </trkpt>
      <trkpt lat="46.23458" lon="10.493">
        <ele>1782.13</ele>
        <time>2018-08-11T15:44:55Z</time>
      </trkpt>
      <trkpt lat="46.23459" lon="10.49294">
        <ele>1779.651</ele>
        <time>2018-08-11T15:45:15Z</time>
      </trkpt>
      <trkpt lat="46.23458" lon="10.4929">
        <ele>1778.488</ele>
        <time>2018-08-11T15:45:35Z</time>
      </trkpt>
      <trkpt lat="46.23447" lon="10.49281">
        <ele>1776.111</ele>
        <time>2018-08-11T15:45:55Z</time>
      </trkpt>
      <trkpt lat="46.23439" lon="10.49274">
        <ele>1773.745</ele>
        <time>2018-08-11T15:46:15Z</time>
      </trkpt>
      <trkpt lat="46.23437" lon="10.49268">
        <ele>1771.847</ele>
        <time>2018-08-11T15:46:35Z</time>
      </trkpt>
      <trkpt lat="46.23446" lon="10.49257">
        <ele>1768.011</ele>
        <time>2018-08-11T15:46:55Z</time>
      </trkpt>
      <trkpt lat="46.23429" lon="10.49243">
        <ele>1763.908</ele>
        <time>2018-08-11T15:47:15Z</time>
      </trkpt>
      <trkpt lat="46.23416" lon="10.49236">
        <ele>1761.946</ele>
        <time>2018-08-11T15:47:35Z</time>
      </trkpt>
      <trkpt lat="46.23406" lon="10.49222">
        <ele>1757.191</ele>
        <time>2018-08-11T15:47:55Z</time>
      </trkpt>
      <trkpt lat="46.23396" lon="10.49215">
        <ele>1754.447</ele>
        <time>2018-08-11T15:48:15Z</time>
      </trkpt>
      <trkpt lat="46.2339" lon="10.49208">
        <ele>1752.171</ele>
        <time>2018-08-11T15:48:35Z</time>
      </trkpt>
      <trkpt lat="46.2339" lon="10.49204">
        <ele>1750.856</ele>
        <time>2018-08-11T15:48:55Z</time>
      </trkpt>
      <trkpt lat="46.2339" lon="10.4919">
        <ele>1747.027</ele>
        <time>2018-08-11T15:49:15Z</time>
      </trkpt>
      <trkpt lat="46.23392" lon="10.49181">
        <ele>1745.174</ele>
        <time>2018-08-11T15:49:35Z</time>
      </trkpt>
      <trkpt lat="46.23381" lon="10.49176">
        <ele>1742.817</ele>
        <time>2018-08-11T15:49:55Z</time>
      </trkpt>
      <trkpt lat="46.2337" lon="10.49168">
        <ele>1739.648</ele>
        <time>2018-08-11T15:50:15Z</time>
      </trkpt>
      <trkpt lat="46.23366" lon="10.49157">
        <ele>1736.561</ele>
        <time>2018-08-11T15:50:35Z</time>
      </trkpt>
      <trkpt lat="46.23362" lon="10.49135">
        <ele>1731.317</ele>
        <time>2018-08-11T15:50:55Z</time>
      </trkpt>
      <trkpt lat="46.23357" lon="10.49128">
        <ele>1728.508</ele>
        <time>2018-08-11T15:51:15Z</time>
      </trkpt>
      <trkpt lat="46.23349" lon="10.49122">
        <ele>1724.616</ele>
        <time>2018-08-11T15:51:35Z</time>
      </trkpt>
      <trkpt lat="46.23336" lon="10.49106">
        <ele>1716.831</ele>
        <time>2018-08-11T15:51:55Z</time>
      </trkpt>
      <trkpt lat="46.23326" lon="10.49089">
        <ele>1711.767</ele>
        <time>2018-08-11T15:52:15Z</time>
      </trkpt>
      <trkpt lat="46.2331" lon="10.49082">
        <ele>1707.571</ele>
        <time>2018-08-11T15:52:35Z</time>
      </trkpt>
      <trkpt lat="46.23302" lon="10.49066">
        <ele>1703.226</ele>
        <time>2018-08-11T15:52:55Z</time>
      </trkpt>
      <trkpt lat="46.23288" lon="10.49057">
        <ele>1700.637</ele>
        <time>2018-08-11T15:53:15Z</time>
      </trkpt>
      <trkpt lat="46.23285" lon="10.49048">
        <ele>1698.624</ele>
        <time>2018-08-11T15:53:35Z</time>
      </trkpt>
      <trkpt lat="46.23286" lon="10.49048">
        <ele>1698.757</ele>
        <time>2018-08-11T15:53:55Z</time>
      </trkpt>
      <trkpt lat="46.23281" lon="10.49039">
        <ele>1696.419</ele>
        <time>2018-08-11T15:54:15Z</time>
      </trkpt>
      <trkpt lat="46.23274" lon="10.49033">
        <ele>1695.909</ele>
        <time>2018-08-11T15:54:35Z</time>
      </trkpt>
      <trkpt lat="46.23265" lon="10.49019">
        <ele>1694.619</ele>
        <time>2018-08-11T15:54:55Z</time>
      </trkpt>
      <trkpt lat="46.23259" lon="10.49003">
        <ele>1691.808</ele>
        <time>2018-08-11T15:55:15Z</time>
      </trkpt>
      <trkpt lat="46.23255" lon="10.48998">
        <ele>1691.053</ele>
        <time>2018-08-11T15:55:35Z</time>
      </trkpt>
      <trkpt lat="46.23252" lon="10.48998">
        <ele>1691.378</ele>
        <time>2018-08-11T15:55:55Z</time>
      </trkpt>
      <trkpt lat="46.23247" lon="10.48998">
        <ele>1691.694</ele>
        <time>2018-08-11T15:56:15Z</time>
      </trkpt>
      <trkpt lat="46.23244" lon="10.48999">
        <ele>1692.128</ele>
        <time>2018-08-11T15:56:35Z</time>
      </trkpt>
      <trkpt lat="46.23236" lon="10.49003">
        <ele>1694.173</ele>
        <time>2018-08-11T15:56:55Z</time>
      </trkpt>
      <trkpt lat="46.23228" lon="10.49002">
        <ele>1694.074</ele>
        <time>2018-08-11T15:57:15Z</time>
      </trkpt>
      <trkpt lat="46.23224" lon="10.48992">
        <ele>1690.991</ele>
        <time>2018-08-11T15:57:35Z</time>
      </trkpt>
      <trkpt lat="46.23225" lon="10.48983">
        <ele>1687.724</ele>
        <time>2018-08-11T15:57:55Z</time>
      </trkpt>
      <trkpt lat="46.23226" lon="10.48982">
        <ele>1687.355</ele>
        <time>2018-08-11T15:58:15Z</time>
      </trkpt>
      <trkpt lat="46.23227" lon="10.48979">
        <ele>1686.607</ele>
        <time>2018-08-11T15:58:35Z</time>
      </trkpt>
      <trkpt lat="46.23229" lon="10.48977">
        <ele>1685.917</ele>
        <time>2018-08-11T15:58:55Z</time>
      </trkpt>
      <trkpt lat="46.23234" lon="10.48972">
        <ele>1684.208</ele>
        <time>2018-08-11T15:59:15Z</time>
      </trkpt>
      <trkpt lat="46.23234" lon="10.48971">
        <ele>1684.187</ele>
        <time>2018-08-11T15:59:35Z</time>
      </trkpt>
      <trkpt lat="46.23235" lon="10.4897">
        <ele>1683.772</ele>
        <time>2018-08-11T15:59:55Z</time>
      </trkpt>
      <trkpt lat="46.23244" lon="10.48959">
        <ele>1680.898</ele>
        <time>2018-08-11T16:00:15Z</time>
      </trkpt>
      <trkpt lat="46.23248" lon="10.48952">
        <ele>1679.062</ele>
        <time>2018-08-11T16:00:35Z</time>
      </trkpt>
      <trkpt lat="46.23251" lon="10.48944">
        <ele>1676.857</ele>
        <time>2018-08-11T16:00:55Z</time>
      </trkpt>
      <trkpt lat="46.23262" lon="10.48926">
        <ele>1673.328</ele>
        <time>2018-08-11T16:01:15Z</time>
      </trkpt>
      <trkpt lat="46.23272" lon="10.48918">
        <ele>1672.085</ele>
        <time>2018-08-11T16:01:35Z</time>
      </trkpt>
      <trkpt lat="46.23277" lon="10.48916">
        <ele>1671.778</ele>
        <time>2018-08-11T16:01:55Z</time>
      </trkpt>
      <trkpt lat="46.2329" lon="10.48909">
        <ele>1671.549</ele>
        <time>2018-08-11T16:02:15Z</time>
      </trkpt>
      <trkpt lat="46.23295" lon="10.48905">
        <ele>1671.102</ele>
        <time>2018-08-11T16:02:35Z</time>
      </trkpt>
      <trkpt lat="46.23314" lon="10.48886">
        <ele>1668.622</ele>
        <time>2018-08-11T16:02:55Z</time>
      </trkpt>
      <trkpt lat="46.23321" lon="10.48875">
        <ele>1667.008</ele>
        <time>2018-08-11T16:03:15Z</time>
      </trkpt>
      <trkpt lat="46.23324" lon="10.48871">
        <ele>1666.386</ele>
        <time>2018-08-11T16:03:35Z</time>
      </trkpt>
      <trkpt lat="46.23331" lon="10.48858">
        <ele>1664.241</ele>
        <time>2018-08-11T16:03:55Z</time>
      </trkpt>
      <trkpt lat="46.23335" lon="10.48853">
        <ele>1663.297</ele>
        <time>2018-08-11T16:04:15Z</time>
      </trkpt>
      <trkpt lat="46.23341" lon="10.48844">
        <ele>1661.261</ele>
        <time>2018-08-11T16:04:35Z</time>
      </trkpt>
      <trkpt lat="46.23346" lon="10.48837">
        <ele>1659.786</ele>
        <time>2018-08-11T16:04:55Z</time>
      </trkpt>
      <trkpt lat="46.2335" lon="10.48817">
        <ele>1655.527</ele>
        <time>2018-08-11T16:05:15Z</time>
      </trkpt>
      <trkpt lat="46.23353" lon="10.48805">
        <ele>1653.274</ele>
        <time>2018-08-11T16:05:35Z</time>
      </trkpt>
      <trkpt lat="46.23354" lon="10.48804">
        <ele>1652.867</ele>
        <time>2018-08-11T16:05:55Z</time>
      </trkpt>
      <trkpt lat="46.23357" lon="10.48801">
        <ele>1651.979</ele>
        <time>2018-08-11T16:06:15Z</time>
      </trkpt>
      <trkpt lat="46.2336" lon="10.48799">
        <ele>1651.205</ele>
        <time>2018-08-11T16:06:35Z</time>
      </trkpt>
      <trkpt lat="46.23367" lon="10.48794">
        <ele>1649.425</ele>
        <time>2018-08-11T16:06:55Z</time>
      </trkpt>
      <trkpt lat="46.23371" lon="10.48792">
        <ele>1648.008</ele>
        <time>2018-08-11T16:07:15Z</time>
      </trkpt>
      <trkpt lat="46.23376" lon="10.4879">
        <ele>1646.989</ele>
        <time>2018-08-11T16:07:35Z</time>
      </trkpt>
      <trkpt lat="46.23386" lon="10.48787">
        <ele>1644.564</ele>
        <time>2018-08-11T16:07:55Z</time>
      </trkpt>
      <trkpt lat="46.23405" lon="10.48782">
        <ele>1641.76</ele>
        <time>2018-08-11T16:08:15Z</time>
      </trkpt>
      <trkpt lat="46.23408" lon="10.48781">
        <ele>1641.394</ele>
        <time>2018-08-11T16:08:35Z</time>
      </trkpt>
      <trkpt lat="46.23414" lon="10.48781">
        <ele>1640.819</ele>
        <time>2018-08-11T16:08:55Z</time>
      </trkpt>
      <trkpt lat="46.23419" lon="10.4878">
        <ele>1640.25</ele>
        <time>2018-08-11T16:09:15Z</time>
      </trkpt>
      <trkpt lat="46.23425" lon="10.48776">
        <ele>1638.687</ele>
        <time>2018-08-11T16:09:35Z</time>
      </trkpt>
      <trkpt lat="46.2346" lon="10.48766">
        <ele>1630.73</ele>
        <time>2018-08-11T16:09:55Z</time>
      </trkpt>
      <trkpt lat="46.23463" lon="10.48765">
        <ele>1630.033</ele>
        <time>2018-08-11T16:10:15Z</time>
      </trkpt>
      <trkpt lat="46.23478" lon="10.48763">
        <ele>1627.123</ele>
        <time>2018-08-11T16:10:35Z</time>
      </trkpt>
      <trkpt lat="46.23483" lon="10.48763">
        <ele>1626.315</ele>
        <time>2018-08-11T16:10:55Z</time>
      </trkpt>
      <trkpt lat="46.23487" lon="10.4876">
        <ele>1624.708</ele>
        <time>2018-08-11T16:11:15Z</time>
      </trkpt>
      <trkpt lat="46.23503" lon="10.48754">
        <ele>1620.845</ele>
        <time>2018-08-11T16:11:35Z</time>
      </trkpt>
      <trkpt lat="46.23503" lon="10.48753">
        <ele>1620.76</ele>
        <time>2018-08-11T16:11:55Z</time>
      </trkpt>
      <trkpt lat="46.23514" lon="10.48749">
        <ele>1619.136</ele>
        <time>2018-08-11T16:12:15Z</time>
      </trkpt>
      <trkpt lat="46.23522" lon="10.48747">
        <ele>1618.22</ele>
        <time>2018-08-11T16:12:35Z</time>
      </trkpt>
      <trkpt lat="46.23529" lon="10.48745">
        <ele>1617.325</ele>
        <time>2018-08-11T16:12:55Z</time>
      </trkpt>
      <trkpt lat="46.23532" lon="10.48742">
        <ele>1616.296</ele>
        <time>2018-08-11T16:13:15Z</time>
      </trkpt>
      <trkpt lat="46.23536" lon="10.48738">
        <ele>1615.053</ele>
        <time>2018-08-11T16:13:35Z</time>
      </trkpt>
      <trkpt lat="46.2354" lon="10.48733">
        <ele>1613.236</ele>
        <time>2018-08-11T16:13:55Z</time>
      </trkpt>
      <trkpt lat="46.23543" lon="10.48722">
        <ele>1610.482</ele>
        <time>2018-08-11T16:14:15Z</time>
      </trkpt>
      <trkpt lat="46.2356" lon="10.48695">
        <ele>1603.043</ele>
        <time>2018-08-11T16:14:35Z</time>
      </trkpt>
      <trkpt lat="46.23567" lon="10.48677">
        <ele>1599.117</ele>
        <time>2018-08-11T16:14:55Z</time>
      </trkpt>
      <trkpt lat="46.2357" lon="10.48671">
        <ele>1597.908</ele>
        <time>2018-08-11T16:15:15Z</time>
      </trkpt>
      <trkpt lat="46.23572" lon="10.48664">
        <ele>1596.43</ele>
        <time>2018-08-11T16:15:35Z</time>
      </trkpt>
      <trkpt lat="46.23573" lon="10.48662">
        <ele>1596.145</ele>
        <time>2018-08-11T16:15:55Z</time>
      </trkpt>
      <trkpt lat="46.23574" lon="10.4866">
        <ele>1595.871</ele>
        <time>2018-08-11T16:16:15Z</time>
      </trkpt>
      <trkpt lat="46.23576" lon="10.48657">
        <ele>1595.395</ele>
        <time>2018-08-11T16:16:35Z</time>
      </trkpt>
      <trkpt lat="46.23587" lon="10.48643">
        <ele>1592.72</ele>
        <time>2018-08-11T16:16:55Z</time>
      </trkpt>
      <trkpt lat="46.23593" lon="10.48633">
        <ele>1590.731</ele>
        <time>2018-08-11T16:17:15Z</time>
      </trkpt>
      <trkpt lat="46.23595" lon="10.4863">
        <ele>1590.178</ele>
        <time>2018-08-11T16:17:35Z</time>
      </trkpt>
      <trkpt lat="46.23597" lon="10.48628">
        <ele>1589.641</ele>
        <time>2018-08-11T16:17:55Z</time>
      </trkpt>
      <trkpt lat="46.23598" lon="10.48627">
        <ele>1589.346</ele>
        <time>2018-08-11T16:18:15Z</time>
      </trkpt>
      <trkpt lat="46.236" lon="10.48621">
        <ele>1588.088</ele>
        <time>2018-08-11T16:18:35Z</time>
      </trkpt>
      <trkpt lat="46.23603" lon="10.48598">
        <ele>1583.216</ele>
        <time>2018-08-11T16:18:55Z</time>
      </trkpt>
      <trkpt lat="46.23609" lon="10.4857">
        <ele>1577.608</ele>
        <time>2018-08-11T16:19:15Z</time>
      </trkpt>
      <trkpt lat="46.23606" lon="10.48551">
        <ele>1573.826</ele>
        <time>2018-08-11T16:19:35Z</time>
      </trkpt>
      <trkpt lat="46.23605" lon="10.48549">
        <ele>1573.451</ele>
        <time>2018-08-11T16:19:55Z</time>
      </trkpt>
      <trkpt lat="46.23605" lon="10.48549">
        <ele>1573.267</ele>
        <time>2018-08-11T16:20:15Z</time>
      </trkpt>
      <trkpt lat="46.23608" lon="10.48542">
        <ele>1571.111</ele>
        <time>2018-08-11T16:20:35Z</time>
      </trkpt>
      <trkpt lat="46.23623" lon="10.48534">
        <ele>1566.546</ele>
        <time>2018-08-11T16:20:55Z</time>
      </trkpt>
      <trkpt lat="46.23637" lon="10.48533">
        <ele>1563.797</ele>
        <time>2018-08-11T16:21:15Z</time>
      </trkpt>
      <trkpt lat="46.23647" lon="10.48533">
        <ele>1563.024</ele>
        <time>2018-08-11T16:21:35Z</time>
      </trkpt>
      <trkpt lat="46.23651" lon="10.48534">
        <ele>1562.957</ele>
        <time>2018-08-11T16:21:55Z</time>
      </trkpt>
      <trkpt lat="46.23665" lon="10.4853">
        <ele>1560.815</ele>
        <time>2018-08-11T16:22:15Z</time>
      </trkpt>
      <trkpt lat="46.23673" lon="10.48531">
        <ele>1559.765</ele>
        <time>2018-08-11T16:22:35Z</time>
      </trkpt>
      <trkpt lat="46.23689" lon="10.48535">
        <ele>1558.911</ele>
        <time>2018-08-11T16:22:55Z</time>
      </trkpt>
      <trkpt lat="46.23695" lon="10.48537">
        <ele>1559.008</ele>
        <time>2018-08-11T16:23:15Z</time>
      </trkpt>
      <trkpt lat="46.23704" lon="10.4854">
        <ele>1561.113</ele>
        <time>2018-08-11T16:23:35Z</time>
      </trkpt>
      <trkpt lat="46.23711" lon="10.48543">
        <ele>1562.938</ele>
        <time>2018-08-11T16:23:55Z</time>
      </trkpt>
      <trkpt lat="46.23715" lon="10.48539">
        <ele>1561.694</ele>
        <time>2018-08-11T16:24:15Z</time>
      </trkpt>
      <trkpt lat="46.23725" lon="10.48535">
        <ele>1560.528</ele>
        <time>2018-08-11T16:24:35Z</time>
      </trkpt>
      <trkpt lat="46.2373" lon="10.48531">
        <ele>1560.253</ele>
        <time>2018-08-11T16:24:55Z</time>
      </trkpt>
      <trkpt lat="46.23736" lon="10.48522">
        <ele>1557.764</ele>
        <time>2018-08-11T16:25:15Z</time>
      </trkpt>
      <trkpt lat="46.23738" lon="10.48517">
        <ele>1555.981</ele>
        <time>2018-08-11T16:25:35Z</time>
      </trkpt>
      <trkpt lat="46.23745" lon="10.48491">
        <ele>1545.694</ele>
        <time>2018-08-11T16:25:55Z</time>
      </trkpt>
      <trkpt lat="46.2375" lon="10.48479">
        <ele>1541.815</ele>
        <time>2018-08-11T16:26:15Z</time>
      </trkpt>
      <trkpt lat="46.23756" lon="10.4847">
        <ele>1539.765</ele>
        <time>2018-08-11T16:26:35Z</time>
      </trkpt>
      <trkpt lat="46.23757" lon="10.48468">
        <ele>1539.311</ele>
        <time>2018-08-11T16:26:55Z</time>
      </trkpt>
      <trkpt lat="46.23758" lon="10.48467">
        <ele>1539.108</ele>
        <time>2018-08-11T16:27:15Z</time>
      </trkpt>
      <trkpt lat="46.23761" lon="10.48463">
        <ele>1538.713</ele>
        <time>2018-08-11T16:27:35Z</time>
      </trkpt>
      <trkpt lat="46.23766" lon="10.48459">
        <ele>1538.388</ele>
        <time>2018-08-11T16:27:55Z</time>
      </trkpt>
      <trkpt lat="46.2377" lon="10.48454">
        <ele>1537.814</ele>
        <time>2018-08-11T16:28:15Z</time>
      </trkpt>
      <trkpt lat="46.23776" lon="10.48444">
        <ele>1536.468</ele>
        <time>2018-08-11T16:28:35Z</time>
      </trkpt>
      <trkpt lat="46.23794" lon="10.48406">
        <ele>1533.253</ele>
        <time>2018-08-11T16:28:55Z</time>
      </trkpt>
      <trkpt lat="46.23795" lon="10.48401">
        <ele>1532.764</ele>
        <time>2018-08-11T16:29:15Z</time>
      </trkpt>
      <trkpt lat="46.23799" lon="10.48389">
        <ele>1531.611</ele>
        <time>2018-08-11T16:29:35Z</time>
      </trkpt>
      <trkpt lat="46.23805" lon="10.48381">
        <ele>1531.894</ele>
        <time>2018-08-11T16:29:55Z</time>
      </trkpt>
      <trkpt lat="46.23814" lon="10.48367">
        <ele>1529.885</ele>
        <time>2018-08-11T16:30:15Z</time>
      </trkpt>
      <trkpt lat="46.23819" lon="10.48362">
        <ele>1529.189</ele>
        <time>2018-08-11T16:30:35Z</time>
      </trkpt>
      <trkpt lat="46.23822" lon="10.48359">
        <ele>1528.817</ele>
        <time>2018-08-11T16:30:55Z</time>
      </trkpt>
      <trkpt lat="46.23835" lon="10.48355">
        <ele>1530.208</ele>
        <time>2018-08-11T16:31:15Z</time>
      </trkpt>
      <trkpt lat="46.23857" lon="10.48334">
        <ele>1526.36</ele>
        <time>2018-08-11T16:31:35Z</time>
      </trkpt>
      <trkpt lat="46.23863" lon="10.4833">
        <ele>1526.285</ele>
        <time>2018-08-11T16:31:55Z</time>
      </trkpt>
      <trkpt lat="46.23868" lon="10.48319">
        <ele>1522.951</ele>
        <time>2018-08-11T16:32:15Z</time>
      </trkpt>
      <trkpt lat="46.2387" lon="10.48313">
        <ele>1520.895</ele>
        <time>2018-08-11T16:32:35Z</time>
      </trkpt>
      <trkpt lat="46.23872" lon="10.48306">
        <ele>1518.03</ele>
        <time>2018-08-11T16:32:55Z</time>
      </trkpt>
      <trkpt lat="46.23876" lon="10.48295">
        <ele>1515.351</ele>
        <time>2018-08-11T16:33:15Z</time>
      </trkpt>
      <trkpt lat="46.23884" lon="10.48284">
        <ele>1514.768</ele>
        <time>2018-08-11T16:33:35Z</time>
      </trkpt>
      <trkpt lat="46.23892" lon="10.48272">
        <ele>1514.291</ele>
        <time>2018-08-11T16:33:55Z</time>
      </trkpt>
      <trkpt lat="46.239" lon="10.48261">
        <ele>1513.084</ele>
        <time>2018-08-11T16:34:15Z</time>
      </trkpt>
      <trkpt lat="46.23903" lon="10.48257">
        <ele>1512.507</ele>
        <time>2018-08-11T16:34:35Z</time>
      </trkpt>
      <trkpt lat="46.23917" lon="10.4824">
        <ele>1510.617</ele>
        <time>2018-08-11T16:34:55Z</time>
      </trkpt>
      <trkpt lat="46.23925" lon="10.48234">
        <ele>1509.608</ele>
        <time>2018-08-11T16:35:15Z</time>
      </trkpt>
      <trkpt lat="46.23936" lon="10.48222">
        <ele>1506.85</ele>
        <time>2018-08-11T16:35:35Z</time>
      </trkpt>
      <trkpt lat="46.23945" lon="10.48217">
        <ele>1505.555</ele>
        <time>2018-08-11T16:35:55Z</time>
      </trkpt>
      <trkpt lat="46.23955" lon="10.48213">
        <ele>1503.461</ele>
        <time>2018-08-11T16:36:15Z</time>
      </trkpt>
      <trkpt lat="46.2396" lon="10.48212">
        <ele>1503.325</ele>
        <time>2018-08-11T16:36:35Z</time>
      </trkpt>
      <trkpt lat="46.2397" lon="10.48213">
        <ele>1503.64</ele>
        <time>2018-08-11T16:36:55Z</time>
      </trkpt>
      <trkpt lat="46.23979" lon="10.48213">
        <ele>1502.851</ele>
        <time>2018-08-11T16:37:15Z</time>
      </trkpt>
      <trkpt lat="46.23987" lon="10.48212">
        <ele>1501.648</ele>
        <time>2018-08-11T16:37:35Z</time>
      </trkpt>
      <trkpt lat="46.23992" lon="10.48211">
        <ele>1500.591</ele>
        <time>2018-08-11T16:37:55Z</time>
      </trkpt>
      <trkpt lat="46.23998" lon="10.48211">
        <ele>1499.957</ele>
        <time>2018-08-11T16:38:15Z</time>
      </trkpt>
      <trkpt lat="46.24006" lon="10.48215">
        <ele>1501.2</ele>
        <time>2018-08-11T16:38:35Z</time>
      </trkpt>
      <trkpt lat="46.24013" lon="10.48214">
        <ele>1499.72</ele>
        <time>2018-08-11T16:38:55Z</time>
      </trkpt>
      <trkpt lat="46.24019" lon="10.48212">
        <ele>1497.508</ele>
        <time>2018-08-11T16:39:15Z</time>
      </trkpt>
      <trkpt lat="46.24029" lon="10.48211">
        <ele>1495.937</ele>
        <time>2018-08-11T16:39:35Z</time>
      </trkpt>
      <trkpt lat="46.24036" lon="10.48204">
        <ele>1492.562</ele>
        <time>2018-08-11T16:39:55Z</time>
      </trkpt>
      <trkpt lat="46.2404" lon="10.48202">
        <ele>1491.658</ele>
        <time>2018-08-11T16:40:15Z</time>
      </trkpt>
      <trkpt lat="46.24045" lon="10.48199">
        <ele>1490.712</ele>
        <time>2018-08-11T16:40:35Z</time>
      </trkpt>
      <trkpt lat="46.24052" lon="10.48194">
        <ele>1489.097</ele>
        <time>2018-08-11T16:40:55Z</time>
      </trkpt>
      <trkpt lat="46.24059" lon="10.48192">
        <ele>1488.078</ele>
        <time>2018-08-11T16:41:15Z</time>
      </trkpt>
      <trkpt lat="46.24069" lon="10.48191">
        <ele>1486.745</ele>
        <time>2018-08-11T16:41:35Z</time>
      </trkpt>
      <trkpt lat="46.24073" lon="10.48192">
        <ele>1486.538</ele>
        <time>2018-08-11T16:41:55Z</time>
      </trkpt>
      <trkpt lat="46.24076" lon="10.48193">
        <ele>1486.931</ele>
        <time>2018-08-11T16:42:15Z</time>
      </trkpt>
      <trkpt lat="46.24079" lon="10.48195">
        <ele>1487.761</ele>
        <time>2018-08-11T16:42:35Z</time>
      </trkpt>
      <trkpt lat="46.24083" lon="10.48199">
        <ele>1489.307</ele>
        <time>2018-08-11T16:42:55Z</time>
      </trkpt>
      <trkpt lat="46.24088" lon="10.48202">
        <ele>1490.408</ele>
        <time>2018-08-11T16:43:15Z</time>
      </trkpt>
      <trkpt lat="46.24093" lon="10.48204">
        <ele>1490.985</ele>
        <time>2018-08-11T16:43:35Z</time>
      </trkpt>
      <trkpt lat="46.24096" lon="10.48203">
        <ele>1490.53</ele>
        <time>2018-08-11T16:43:55Z</time>
      </trkpt>
      <trkpt lat="46.24114" lon="10.48196">
        <ele>1484.766</ele>
        <time>2018-08-11T16:44:15Z</time>
      </trkpt>
      <trkpt lat="46.24123" lon="10.48191">
        <ele>1482.38</ele>
        <time>2018-08-11T16:44:35Z</time>
      </trkpt>
      <trkpt lat="46.24125" lon="10.48189">
        <ele>1481.545</ele>
        <time>2018-08-11T16:44:55Z</time>
      </trkpt>
      <trkpt lat="46.24129" lon="10.48188">
        <ele>1481.056</ele>
        <time>2018-08-11T16:45:15Z</time>
      </trkpt>
      <trkpt lat="46.24151" lon="10.48172">
        <ele>1477.073</ele>
        <time>2018-08-11T16:45:35Z</time>
      </trkpt>
      <trkpt lat="46.24155" lon="10.48166">
        <ele>1475.366</ele>
        <time>2018-08-11T16:45:55Z</time>
      </trkpt>
      <trkpt lat="46.24167" lon="10.48156">
        <ele>1474.867</ele>
        <time>2018-08-11T16:46:15Z</time>
      </trkpt>
      <trkpt lat="46.24176" lon="10.48148">
        <ele>1473.781</ele>
        <time>2018-08-11T16:46:35Z</time>
      </trkpt>
      <trkpt lat="46.24208" lon="10.48095">
        <ele>1460.819</ele>
        <time>2018-08-11T16:46:55Z</time>
      </trkpt>
      <trkpt lat="46.24212" lon="10.48078">
        <ele>1455.608</ele>
        <time>2018-08-11T16:47:15Z</time>
      </trkpt>
      <trkpt lat="46.24215" lon="10.48064">
        <ele>1451.528</ele>
        <time>2018-08-11T16:47:35Z</time>
      </trkpt>
      <trkpt lat="46.24217" lon="10.48049">
        <ele>1446.043</ele>
        <time>2018-08-11T16:47:55Z</time>
      </trkpt>
      <trkpt lat="46.2422" lon="10.48039">
        <ele>1443.489</ele>
        <time>2018-08-11T16:48:15Z</time>
      </trkpt>
      <trkpt lat="46.24235" lon="10.48022">
        <ele>1440.473</ele>
        <time>2018-08-11T16:48:35Z</time>
      </trkpt>
      <trkpt lat="46.24247" lon="10.48013">
        <ele>1438.728</ele>
        <time>2018-08-11T16:48:55Z</time>
      </trkpt>
      <trkpt lat="46.24255" lon="10.48005">
        <ele>1436.189</ele>
        <time>2018-08-11T16:49:15Z</time>
      </trkpt>
      <trkpt lat="46.2428" lon="10.47992">
        <ele>1433.556</ele>
        <time>2018-08-11T16:49:35Z</time>
      </trkpt>
      <trkpt lat="46.24287" lon="10.47987">
        <ele>1431.689</ele>
        <time>2018-08-11T16:49:55Z</time>
      </trkpt>
      <trkpt lat="46.24292" lon="10.47986">
        <ele>1431.426</ele>
        <time>2018-08-11T16:50:15Z</time>
      </trkpt>
      <trkpt lat="46.243" lon="10.47982">
        <ele>1430.447</ele>
        <time>2018-08-11T16:50:35Z</time>
      </trkpt>
      <trkpt lat="46.24304" lon="10.47978">
        <ele>1429.511</ele>
        <time>2018-08-11T16:50:55Z</time>
      </trkpt>
      <trkpt lat="46.24311" lon="10.47966">
        <ele>1424.808</ele>
        <time>2018-08-11T16:51:15Z</time>
      </trkpt>
      <trkpt lat="46.24323" lon="10.47964">
        <ele>1423.354</ele>
        <time>2018-08-11T16:51:35Z</time>
      </trkpt>
      <trkpt lat="46.24329" lon="10.47965">
        <ele>1423.249</ele>
        <time>2018-08-11T16:51:55Z</time>
      </trkpt>
      <trkpt lat="46.24339" lon="10.47965">
        <ele>1421.665</ele>
        <time>2018-08-11T16:52:15Z</time>
      </trkpt>
      <trkpt lat="46.24339" lon="10.47965">
        <ele>1421.549</ele>
        <time>2018-08-11T16:52:35Z</time>
      </trkpt>
      <trkpt lat="46.24347" lon="10.47965">
        <ele>1419.224</ele>
        <time>2018-08-11T16:52:55Z</time>
      </trkpt>
      <trkpt lat="46.24351" lon="10.47967">
        <ele>1418.925</ele>
        <time>2018-08-11T16:53:15Z</time>
      </trkpt>
      <trkpt lat="46.24362" lon="10.47968">
        <ele>1415.832</ele>
        <time>2018-08-11T16:53:35Z</time>
      </trkpt>
      <trkpt lat="46.24367" lon="10.47964">
        <ele>1411.825</ele>
        <time>2018-08-11T16:53:55Z</time>
      </trkpt>
      <trkpt lat="46.24372" lon="10.47965">
        <ele>1409.491</ele>
        <time>2018-08-11T16:54:15Z</time>
      </trkpt>
      <trkpt lat="46.24377" lon="10.47966">
        <ele>1407.881</ele>
        <time>2018-08-11T16:54:35Z</time>
      </trkpt>
      <trkpt lat="46.24382" lon="10.47971">
        <ele>1407.019</ele>
        <time>2018-08-11T16:54:55Z</time>
      </trkpt>
      <trkpt lat="46.24393" lon="10.47987">
        <ele>1407.508</ele>
        <time>2018-08-11T16:55:15Z</time>
      </trkpt>
      <trkpt lat="46.24401" lon="10.47994">
        <ele>1406.721</ele>
        <time>2018-08-11T16:55:35Z</time>
      </trkpt>
      <trkpt lat="46.24407" lon="10.48001">
        <ele>1407.536</ele>
        <time>2018-08-11T16:55:55Z</time>
      </trkpt>
      <trkpt lat="46.24419" lon="10.48014">
        <ele>1406.282</ele>
        <time>2018-08-11T16:56:15Z</time>
      </trkpt>
      <trkpt lat="46.24431" lon="10.48019">
        <ele>1401.346</ele>
        <time>2018-08-11T16:56:35Z</time>
      </trkpt>
      <trkpt lat="46.24436" lon="10.48022">
        <ele>1400.791</ele>
        <time>2018-08-11T16:56:55Z</time>
      </trkpt>
      <trkpt lat="46.24441" lon="10.48023">
        <ele>1399.172</ele>
        <time>2018-08-11T16:57:15Z</time>
      </trkpt>
      <trkpt lat="46.24443" lon="10.48018">
        <ele>1394.679</ele>
        <time>2018-08-11T16:57:35Z</time>
      </trkpt>
      <trkpt lat="46.2444" lon="10.48001">
        <ele>1384.432</ele>
        <time>2018-08-11T16:57:55Z</time>
      </trkpt>
      <trkpt lat="46.24437" lon="10.47987">
        <ele>1380.837</ele>
        <time>2018-08-11T16:58:15Z</time>
      </trkpt>
      <trkpt lat="46.24434" lon="10.47976">
        <ele>1378.049</ele>
        <time>2018-08-11T16:58:35Z</time>
      </trkpt>
      <trkpt lat="46.2443" lon="10.47962">
        <ele>1374.913</ele>
        <time>2018-08-11T16:58:55Z</time>
      </trkpt>
      <trkpt lat="46.24424" lon="10.47952">
        <ele>1373.808</ele>
        <time>2018-08-11T16:59:15Z</time>
      </trkpt>
      <trkpt lat="46.24421" lon="10.4794">
        <ele>1369.645</ele>
        <time>2018-08-11T16:59:35Z</time>
      </trkpt>
      <trkpt lat="46.24419" lon="10.47922">
        <ele>1365.35</ele>
        <time>2018-08-11T16:59:55Z</time>
      </trkpt>
      <trkpt lat="46.24414" lon="10.47912">
        <ele>1364.886</ele>
        <time>2018-08-11T17:00:15Z</time>
      </trkpt>
      <trkpt lat="46.24413" lon="10.47901">
        <ele>1361.54</ele>
        <time>2018-08-11T17:00:35Z</time>
      </trkpt>
      <trkpt lat="46.24414" lon="10.47896">
        <ele>1359.215</ele>
        <time>2018-08-11T17:00:55Z</time>
      </trkpt>
      <trkpt lat="46.24428" lon="10.47896">
        <ele>1354.156</ele>
        <time>2018-08-11T17:01:15Z</time>
      </trkpt>
      <trkpt lat="46.24443" lon="10.47903">
        <ele>1350.563</ele>
        <time>2018-08-11T17:01:35Z</time>
      </trkpt>
      <trkpt lat="46.24459" lon="10.47905">
        <ele>1342.416</ele>
        <time>2018-08-11T17:01:55Z</time>
      </trkpt>
      <trkpt lat="46.24467" lon="10.47906">
        <ele>1338.452</ele>
        <time>2018-08-11T17:02:15Z</time>
      </trkpt>
      <trkpt lat="46.24467" lon="10.47906">
        <ele>1338.453</ele>
        <time>2018-08-11T17:02:35Z</time>
      </trkpt>
      <trkpt lat="46.24473" lon="10.47906">
        <ele>1335.108</ele>
        <time>2018-08-11T17:02:55Z</time>
      </trkpt>
      <trkpt lat="46.24474" lon="10.47906">
        <ele>1333.508</ele>
        <time>2018-08-11T17:03:15Z</time>
      </trkpt>
      <trkpt lat="46.24479" lon="10.4791">
        <ele>1330.837</ele>
        <time>2018-08-11T17:03:35Z</time>
      </trkpt>
      <trkpt lat="46.24483" lon="10.47917">
        <ele>1329.072</ele>
        <time>2018-08-11T17:03:55Z</time>
      </trkpt>
      <trkpt lat="46.24484" lon="10.47926">
        <ele>1330.348</ele>
        <time>2018-08-11T17:04:15Z</time>
      </trkpt>
      <trkpt lat="46.24486" lon="10.47931">
        <ele>1329.582</ele>
        <time>2018-08-11T17:04:35Z</time>
      </trkpt>
      <trkpt lat="46.24499" lon="10.47954">
        <ele>1323.167</ele>
        <time>2018-08-11T17:04:55Z</time>
      </trkpt>
      <trkpt lat="46.24511" lon="10.47976">
        <ele>1320.928</ele>
        <time>2018-08-11T17:05:15Z</time>
      </trkpt>
      <trkpt lat="46.24517" lon="10.47996">
        <ele>1327.065</ele>
        <time>2018-08-11T17:05:35Z</time>
      </trkpt>
      <trkpt lat="46.24519" lon="10.48008">
        <ele>1328.898</ele>
        <time>2018-08-11T17:05:55Z</time>
      </trkpt>
      <trkpt lat="46.24522" lon="10.48014">
        <ele>1327.799</ele>
        <time>2018-08-11T17:06:15Z</time>
      </trkpt>
      <trkpt lat="46.2453" lon="10.48029">
        <ele>1324.007</ele>
        <time>2018-08-11T17:06:35Z</time>
      </trkpt>
      <trkpt lat="46.24532" lon="10.48035">
        <ele>1323.827</ele>
        <time>2018-08-11T17:06:55Z</time>
      </trkpt>
      <trkpt lat="46.24534" lon="10.48036">
        <ele>1322.108</ele>
        <time>2018-08-11T17:07:15Z</time>
      </trkpt>
      <trkpt lat="46.24539" lon="10.48047">
        <ele>1320.561</ele>
        <time>2018-08-11T17:07:35Z</time>
      </trkpt>
      <trkpt lat="46.24545" lon="10.48062">
        <ele>1318.766</ele>
        <time>2018-08-11T17:07:55Z</time>
      </trkpt>
      <trkpt lat="46.24553" lon="10.48082">
        <ele>1313.482</ele>
        <time>2018-08-11T17:08:15Z</time>
      </trkpt>
      <trkpt lat="46.24564" lon="10.48123">
        <ele>1312.856</ele>
        <time>2018-08-11T17:08:35Z</time>
      </trkpt>
      <trkpt lat="46.24565" lon="10.48126">
        <ele>1312.491</ele>
        <time>2018-08-11T17:08:55Z</time>
      </trkpt>
      <trkpt lat="46.24569" lon="10.48131">
        <ele>1310.912</ele>
        <time>2018-08-11T17:09:15Z</time>
      </trkpt>
      <trkpt lat="46.24579" lon="10.48138">
        <ele>1305.369</ele>
        <time>2018-08-11T17:09:35Z</time>
      </trkpt>
      <trkpt lat="46.24587" lon="10.48146">
        <ele>1301.532</ele>
        <time>2018-08-11T17:09:55Z</time>
      </trkpt>
      <trkpt lat="46.24596" lon="10.48159">
        <ele>1298.417</ele>
        <time>2018-08-11T17:10:15Z</time>
      </trkpt>
      <trkpt lat="46.24604" lon="10.48171">
        <ele>1295.287</ele>
        <time>2018-08-11T17:10:35Z</time>
      </trkpt>
      <trkpt lat="46.24613" lon="10.48186">
        <ele>1291.815</ele>
        <time>2018-08-11T17:10:55Z</time>
      </trkpt>
      <trkpt lat="46.24623" lon="10.48205">
        <ele>1290.908</ele>
        <time>2018-08-11T17:11:15Z</time>
      </trkpt>
      <trkpt lat="46.2463" lon="10.48221">
        <ele>1290.683</ele>
        <time>2018-08-11T17:11:35Z</time>
      </trkpt>
      <trkpt lat="46.24639" lon="10.48236">
        <ele>1289.238</ele>
        <time>2018-08-11T17:11:55Z</time>
      </trkpt>
      <trkpt lat="46.24644" lon="10.48242">
        <ele>1288.424</ele>
        <time>2018-08-11T17:12:15Z</time>
      </trkpt>
      <trkpt lat="46.24652" lon="10.48249">
        <ele>1286.088</ele>
        <time>2018-08-11T17:12:35Z</time>
      </trkpt>
      <trkpt lat="46.24659" lon="10.48258">
        <ele>1284.573</ele>
        <time>2018-08-11T17:12:55Z</time>
      </trkpt>
      <trkpt lat="46.24663" lon="10.48266">
        <ele>1283.914</ele>
        <time>2018-08-11T17:13:15Z</time>
      </trkpt>
      <trkpt lat="46.24666" lon="10.48272">
        <ele>1283.341</ele>
        <time>2018-08-11T17:13:35Z</time>
      </trkpt>
      <trkpt lat="46.2469" lon="10.48301">
        <ele>1276.064</ele>
        <time>2018-08-11T17:13:55Z</time>
      </trkpt>
      <trkpt lat="46.24697" lon="10.4831">
        <ele>1273.523</ele>
        <time>2018-08-11T17:14:15Z</time>
      </trkpt>
      <trkpt lat="46.24706" lon="10.48317">
        <ele>1267.283</ele>
        <time>2018-08-11T17:14:35Z</time>
      </trkpt>
      <trkpt lat="46.24712" lon="10.48325">
        <ele>1263.711</ele>
        <time>2018-08-11T17:14:55Z</time>
      </trkpt>
      <trkpt lat="46.24714" lon="10.48328">
        <ele>1262.908</ele>
        <time>2018-08-11T17:15:15Z</time>
      </trkpt>
      <trkpt lat="46.24737" lon="10.4836">
        <ele>1254.684</ele>
        <time>2018-08-11T17:15:35Z</time>
      </trkpt>
      <trkpt lat="46.2474" lon="10.48362">
        <ele>1253.799</ele>
        <time>2018-08-11T17:15:55Z</time>
      </trkpt>
      <trkpt lat="46.24756" lon="10.4838">
        <ele>1248.415</ele>
        <time>2018-08-11T17:16:15Z</time>
      </trkpt>
      <trkpt lat="46.2476" lon="10.48385">
        <ele>1246.989</ele>
        <time>2018-08-11T17:16:35Z</time>
      </trkpt>
      <trkpt lat="46.24768" lon="10.48393">
        <ele>1243.714</ele>
        <time>2018-08-11T17:16:55Z</time>
      </trkpt>
      <trkpt lat="46.24773" lon="10.48396">
        <ele>1241.545</ele>
        <time>2018-08-11T17:17:15Z</time>
      </trkpt>
      <trkpt lat="46.24777" lon="10.48399">
        <ele>1239.352</ele>
        <time>2018-08-11T17:17:35Z</time>
      </trkpt>
      <trkpt lat="46.24785" lon="10.48413">
        <ele>1238.985</ele>
        <time>2018-08-11T17:17:55Z</time>
      </trkpt>
      <trkpt lat="46.24801" lon="10.48431">
        <ele>1237.587</ele>
        <time>2018-08-11T17:18:15Z</time>
      </trkpt>
      <trkpt lat="46.24812" lon="10.48443">
        <ele>1236.042</ele>
        <time>2018-08-11T17:18:35Z</time>
      </trkpt>
      <trkpt lat="46.24819" lon="10.48449">
        <ele>1234.726</ele>
        <time>2018-08-11T17:18:55Z</time>
      </trkpt>
      <trkpt lat="46.24835" lon="10.48452">
        <ele>1229.008</ele>
        <time>2018-08-11T17:19:15Z</time>
      </trkpt>
      <trkpt lat="46.24838" lon="10.48389">
        <ele>1218.95</ele>
        <time>2018-08-11T17:19:35Z</time>
      </trkpt>
      <trkpt lat="46.2484" lon="10.4837">
        <ele>1215.875</ele>
        <time>2018-08-11T17:19:55Z</time>
      </trkpt>
      <trkpt lat="46.24841" lon="10.48354">
        <ele>1213.931</ele>
        <time>2018-08-11T17:20:15Z</time>
      </trkpt>
      <trkpt lat="46.24835" lon="10.48328">
        <ele>1211.925</ele>
        <time>2018-08-11T17:20:35Z</time>
      </trkpt>
      <trkpt lat="46.24824" lon="10.48313">
        <ele>1211.65</ele>
        <time>2018-08-11T17:20:55Z</time>
      </trkpt>
      <trkpt lat="46.24813" lon="10.483">
        <ele>1211.811</ele>
        <time>2018-08-11T17:21:15Z</time>
      </trkpt>
      <trkpt lat="46.24814" lon="10.48298">
        <ele>1211.528</ele>
        <time>2018-08-11T17:21:35Z</time>
      </trkpt>
      <trkpt lat="46.2482" lon="10.48271">
        <ele>1207.121</ele>
        <time>2018-08-11T17:21:55Z</time>
      </trkpt>
      <trkpt lat="46.24824" lon="10.48246">
        <ele>1203.596</ele>
        <time>2018-08-11T17:22:15Z</time>
      </trkpt>
      <trkpt lat="46.24825" lon="10.48239">
        <ele>1202.631</ele>
        <time>2018-08-11T17:22:35Z</time>
      </trkpt>
      <trkpt lat="46.24832" lon="10.48219">
        <ele>1199.324</ele>
        <time>2018-08-11T17:22:55Z</time>
      </trkpt>
      <trkpt lat="46.24834" lon="10.48217">
        <ele>1198.608</ele>
        <time>2018-08-11T17:23:15Z</time>
      </trkpt>
      <trkpt lat="46.24836" lon="10.48207">
        <ele>1195.681</ele>
        <time>2018-08-11T17:23:35Z</time>
      </trkpt>
      <trkpt lat="46.24838" lon="10.48201">
        <ele>1193.786</ele>
        <time>2018-08-11T17:23:55Z</time>
      </trkpt>
      <trkpt lat="46.24839" lon="10.48195">
        <ele>1192.172</ele>
        <time>2018-08-11T17:24:15Z</time>
      </trkpt>
      <trkpt lat="46.24843" lon="10.48187">
        <ele>1189.646</ele>
        <time>2018-08-11T17:24:35Z</time>
      </trkpt>
      <trkpt lat="46.24846" lon="10.48178">
        <ele>1187.011</ele>
        <time>2018-08-11T17:24:55Z</time>
      </trkpt>
      <trkpt lat="46.24854" lon="10.48169">
        <ele>1183.872</ele>
        <time>2018-08-11T17:25:15Z</time>
      </trkpt>
      <trkpt lat="46.24864" lon="10.48163">
        <ele>1180.879</ele>
        <time>2018-08-11T17:25:35Z</time>
      </trkpt>
      <trkpt lat="46.24867" lon="10.4816">
        <ele>1180.022</ele>
        <time>2018-08-11T17:25:55Z</time>
      </trkpt>
      <trkpt lat="46.24874" lon="10.48158">
        <ele>1178.874</ele>
        <time>2018-08-11T17:26:15Z</time>
      </trkpt>
      <trkpt lat="46.24883" lon="10.48157">
        <ele>1177.756</ele>
        <time>2018-08-11T17:26:35Z</time>
      </trkpt>
      <trkpt lat="46.24885" lon="10.48156">
        <ele>1177.521</ele>
        <time>2018-08-11T17:26:55Z</time>
      </trkpt>
      <trkpt lat="46.24899" lon="10.48156">
        <ele>1176.408</ele>
        <time>2018-08-11T17:27:15Z</time>
      </trkpt>
      <trkpt lat="46.24902" lon="10.48156">
        <ele>1176.289</ele>
        <time>2018-08-11T17:27:35Z</time>
      </trkpt>
      <trkpt lat="46.2491" lon="10.48155">
        <ele>1175.784</ele>
        <time>2018-08-11T17:27:55Z</time>
      </trkpt>
      <trkpt lat="46.24917" lon="10.48156">
        <ele>1175.41</ele>
        <time>2018-08-11T17:28:15Z</time>
      </trkpt>
      <trkpt lat="46.2492" lon="10.48156">
        <ele>1175.254</ele>
        <time>2018-08-11T17:28:35Z</time>
      </trkpt>
      <trkpt lat="46.24927" lon="10.48154">
        <ele>1174.699</ele>
        <time>2018-08-11T17:28:55Z</time>
      </trkpt>
      <trkpt lat="46.24935" lon="10.4815">
        <ele>1173.67</ele>
        <time>2018-08-11T17:29:15Z</time>
      </trkpt>
      <trkpt lat="46.24939" lon="10.48148">
        <ele>1173.167</ele>
        <time>2018-08-11T17:29:35Z</time>
      </trkpt>
      <trkpt lat="46.24939" lon="10.48148">
        <ele>1173.18</ele>
        <time>2018-08-11T17:29:55Z</time>
      </trkpt>
      <trkpt lat="46.24946" lon="10.48145">
        <ele>1172.332</ele>
        <time>2018-08-11T17:30:15Z</time>
      </trkpt>
      <trkpt lat="46.2495" lon="10.48144">
        <ele>1171.692</ele>
        <time>2018-08-11T17:30:35Z</time>
      </trkpt>
      <trkpt lat="46.24954" lon="10.48144">
        <ele>1170.911</ele>
        <time>2018-08-11T17:30:55Z</time>
      </trkpt>
      <trkpt lat="46.24972" lon="10.48154">
        <ele>1169.008</ele>
        <time>2018-08-11T17:31:15Z</time>
      </trkpt>
      <trkpt lat="46.24988" lon="10.4816">
        <ele>1165.595</ele>
        <time>2018-08-11T17:31:35Z</time>
      </trkpt>
      <trkpt lat="46.24993" lon="10.48159">
        <ele>1164.14</ele>
        <time>2018-08-11T17:31:55Z</time>
      </trkpt>
      <trkpt lat="46.25003" lon="10.48156">
        <ele>1161.216</ele>
        <time>2018-08-11T17:32:15Z</time>
      </trkpt>
      <trkpt lat="46.25008" lon="10.48151">
        <ele>1159.55</ele>
        <time>2018-08-11T17:32:35Z</time>
      </trkpt>
      <trkpt lat="46.25018" lon="10.48144">
        <ele>1156.595</ele>
        <time>2018-08-11T17:32:55Z</time>
      </trkpt>
      <trkpt lat="46.25026" lon="10.48141">
        <ele>1154.646</ele>
        <time>2018-08-11T17:33:15Z</time>
      </trkpt>
      <trkpt lat="46.25034" lon="10.48137">
        <ele>1153.383</ele>
        <time>2018-08-11T17:33:35Z</time>
      </trkpt>
      <trkpt lat="46.25045" lon="10.48132">
        <ele>1152.276</ele>
        <time>2018-08-11T17:33:55Z</time>
      </trkpt>
      <trkpt lat="46.25048" lon="10.48131">
        <ele>1151.854</ele>
        <time>2018-08-11T17:34:15Z</time>
      </trkpt>
      <trkpt lat="46.25051" lon="10.48129">
        <ele>1151.556</ele>
        <time>2018-08-11T17:34:35Z</time>
      </trkpt>
      <trkpt lat="46.25054" lon="10.48125">
        <ele>1151.011</ele>
        <time>2018-08-11T17:34:55Z</time>
      </trkpt>
      <trkpt lat="46.25055" lon="10.48124">
        <ele>1151.008</ele>
        <time>2018-08-11T17:35:15Z</time>
      </trkpt>
      <trkpt lat="46.25045" lon="10.48067">
        <ele>1150.047</ele>
        <time>2018-08-11T17:35:35Z</time>
      </trkpt>
      <trkpt lat="46.25036" lon="10.48041">
        <ele>1150.022</ele>
        <time>2018-08-11T17:35:55Z</time>
      </trkpt>
      <trkpt lat="46.25003" lon="10.47949">
        <ele>1144.778</ele>
        <time>2018-08-11T17:36:15Z</time>
      </trkpt>
      <trkpt lat="46.24997" lon="10.47914">
        <ele>1142.122</ele>
        <time>2018-08-11T17:36:35Z</time>
      </trkpt>
      <trkpt lat="46.24993" lon="10.4789">
        <ele>1141.537</ele>
        <time>2018-08-11T17:36:55Z</time>
      </trkpt>
      <trkpt lat="46.24989" lon="10.47866">
        <ele>1140.148</ele>
        <time>2018-08-11T17:37:15Z</time>
      </trkpt>
      <trkpt lat="46.24976" lon="10.47801">
        <ele>1137.335</ele>
        <time>2018-08-11T17:37:35Z</time>
      </trkpt>
      <trkpt lat="46.24967" lon="10.47781">
        <ele>1136.668</ele>
        <time>2018-08-11T17:37:55Z</time>
      </trkpt>
      <trkpt lat="46.24948" lon="10.47743">
        <ele>1135.216</ele>
        <time>2018-08-11T17:38:15Z</time>
      </trkpt>
      <trkpt lat="46.24914" lon="10.47695">
        <ele>1132.076</ele>
        <time>2018-08-11T17:38:35Z</time>
      </trkpt>
      <trkpt lat="46.24891" lon="10.47671">
        <ele>1130.313</ele>
        <time>2018-08-11T17:38:55Z</time>
      </trkpt>
      <trkpt lat="46.24876" lon="10.47658">
        <ele>1128.908</ele>
        <time>2018-08-11T17:39:15Z</time>
      </trkpt>
      <trkpt lat="46.24858" lon="10.47627">
        <ele>1126.013</ele>
        <time>2018-08-11T17:39:35Z</time>
      </trkpt>
      <trkpt lat="46.24849" lon="10.4761">
        <ele>1125.028</ele>
        <time>2018-08-11T17:39:55Z</time>
      </trkpt>
      <trkpt lat="46.2483" lon="10.47576">
        <ele>1125.024</ele>
        <time>2018-08-11T17:40:15Z</time>
      </trkpt>
      <trkpt lat="46.24816" lon="10.47562">
        <ele>1125.048</ele>
        <time>2018-08-11T17:40:35Z</time>
      </trkpt>
      <trkpt lat="46.24794" lon="10.47527">
        <ele>1125.083</ele>
        <time>2018-08-11T17:40:55Z</time>
      </trkpt>
      <trkpt lat="46.24788" lon="10.47516">
        <ele>1125.044</ele>
        <time>2018-08-11T17:41:15Z</time>
      </trkpt>
      <trkpt lat="46.24772" lon="10.47495">
        <ele>1125.091</ele>
        <time>2018-08-11T17:41:35Z</time>
      </trkpt>
      <trkpt lat="46.2477" lon="10.47493">
        <ele>1125.044</ele>
        <time>2018-08-11T17:41:55Z</time>
      </trkpt>
      <trkpt lat="46.24754" lon="10.47468">
        <ele>1125.054</ele>
        <time>2018-08-11T17:42:15Z</time>
      </trkpt>
      <trkpt lat="46.24734" lon="10.4745">
        <ele>1125.056</ele>
        <time>2018-08-11T17:42:35Z</time>
      </trkpt>
      <trkpt lat="46.24704" lon="10.47413">
        <ele>1123.911</ele>
        <time>2018-08-11T17:42:55Z</time>
      </trkpt>
      <trkpt lat="46.24692" lon="10.47387">
        <ele>1123.108</ele>
        <time>2018-08-11T17:43:15Z</time>
      </trkpt>
      <trkpt lat="46.24674" lon="10.47338">
        <ele>1122.917</ele>
        <time>2018-08-11T17:43:35Z</time>
      </trkpt>
      <trkpt lat="46.24662" lon="10.47302">
        <ele>1123.072</ele>
        <time>2018-08-11T17:43:55Z</time>
      </trkpt>
      <trkpt lat="46.24658" lon="10.47312">
        <ele>1123.458</ele>
        <time>2018-08-11T17:44:15Z</time>
      </trkpt>
      <trkpt lat="46.2465" lon="10.47322">
        <ele>1123.982</ele>
        <time>2018-08-11T17:44:35Z</time>
      </trkpt>
      <trkpt lat="46.24643" lon="10.47332">
        <ele>1124.617</ele>
        <time>2018-08-11T17:44:55Z</time>
      </trkpt>
      <trkpt lat="46.24633" lon="10.47345">
        <ele>1128.198</ele>
        <time>2018-08-11T17:45:15Z</time>
      </trkpt>
      <trkpt lat="46.24625" lon="10.47356">
        <ele>1131.655</ele>
        <time>2018-08-11T17:45:35Z</time>
      </trkpt>
      <trkpt lat="46.24623" lon="10.47358">
        <ele>1132.458</ele>
        <time>2018-08-11T17:45:55Z</time>
      </trkpt>
      <trkpt lat="46.24614" lon="10.47357">
        <ele>1134.818</ele>
        <time>2018-08-11T17:46:15Z</time>
      </trkpt>
      <trkpt lat="46.24606" lon="10.47355">
        <ele>1136.598</ele>
        <time>2018-08-11T17:46:35Z</time>
      </trkpt>
      <trkpt lat="46.24598" lon="10.47354">
        <ele>1138.217</ele>
        <time>2018-08-11T17:46:55Z</time>
      </trkpt>
      <trkpt lat="46.24588" lon="10.47349">
        <ele>1140.008</ele>
        <time>2018-08-11T17:47:15Z</time>
      </trkpt>
      <trkpt lat="46.24582" lon="10.47344">
        <ele>1141.063</ele>
        <time>2018-08-11T17:47:35Z</time>
      </trkpt>
      <trkpt lat="46.24569" lon="10.47349">
        <ele>1142.928</ele>
        <time>2018-08-11T17:47:55Z</time>
      </trkpt>
      <trkpt lat="46.24557" lon="10.47355">
        <ele>1144.644</ele>
        <time>2018-08-11T17:48:15Z</time>
      </trkpt>
      <trkpt lat="46.24542" lon="10.47375">
        <ele>1147.758</ele>
        <time>2018-08-11T17:48:35Z</time>
      </trkpt>
      <trkpt lat="46.24531" lon="10.47393">
        <ele>1151.493</ele>
        <time>2018-08-11T17:48:55Z</time>
      </trkpt>
      <trkpt lat="46.24531" lon="10.47407">
        <ele>1154.894</ele>
        <time>2018-08-11T17:49:15Z</time>
      </trkpt>
      <trkpt lat="46.24518" lon="10.47385">
        <ele>1155.231</ele>
        <time>2018-08-11T17:49:35Z</time>
      </trkpt>
      <trkpt lat="46.24491" lon="10.47374">
        <ele>1163.394</ele>
        <time>2018-08-11T17:49:55Z</time>
      </trkpt>
      <trkpt lat="46.24423" lon="10.47373">
        <ele>1168.829</ele>
        <time>2018-08-11T17:50:15Z</time>
      </trkpt>
      <trkpt lat="46.24401" lon="10.47362">
        <ele>1169.2</ele>
        <time>2018-08-11T17:50:35Z</time>
      </trkpt>
      <trkpt lat="46.24381" lon="10.4733">
        <ele>1166.52</ele>
        <time>2018-08-11T17:50:55Z</time>
      </trkpt>
      <trkpt lat="46.24362" lon="10.47316">
        <ele>1165.108</ele>
        <time>2018-08-11T17:51:15Z</time>
      </trkpt>
      <trkpt lat="46.24344" lon="10.473">
        <ele>1162.064</ele>
        <time>2018-08-11T17:51:35Z</time>
      </trkpt>
      <trkpt lat="46.24356" lon="10.47283">
        <ele>1161.029</ele>
        <time>2018-08-11T17:51:55Z</time>
      </trkpt>
      <trkpt lat="46.24375" lon="10.47258">
        <ele>1158.885</ele>
        <time>2018-08-11T17:52:15Z</time>
      </trkpt>
      <trkpt lat="46.24377" lon="10.47229">
        <ele>1155.729</ele>
        <time>2018-08-11T17:52:35Z</time>
      </trkpt>
      <trkpt lat="46.24376" lon="10.47221">
        <ele>1154.854</ele>
        <time>2018-08-11T17:52:55Z</time>
      </trkpt>
      <trkpt lat="46.24378" lon="10.4721">
        <ele>1153.425</ele>
        <time>2018-08-11T17:53:15Z</time>
      </trkpt>
      <trkpt lat="46.2438" lon="10.47199">
        <ele>1152.222</ele>
        <time>2018-08-11T17:53:35Z</time>
      </trkpt>
      <trkpt lat="46.24382" lon="10.47188">
        <ele>1151.085</ele>
        <time>2018-08-11T17:53:55Z</time>
      </trkpt>
      <trkpt lat="46.24387" lon="10.47171">
        <ele>1149.474</ele>
        <time>2018-08-11T17:54:15Z</time>
      </trkpt>
      <trkpt lat="46.24392" lon="10.47164">
        <ele>1148.656</ele>
        <time>2018-08-11T17:54:35Z</time>
      </trkpt>
      <trkpt lat="46.24396" lon="10.47155">
        <ele>1147.221</ele>
        <time>2018-08-11T17:54:55Z</time>
      </trkpt>
      <trkpt lat="46.244" lon="10.47146">
        <ele>1146.008</ele>
        <time>2018-08-11T17:55:15Z</time>
      </trkpt>
      <trkpt lat="46.244" lon="10.47137">
        <ele>1144.719</ele>
        <time>2018-08-11T17:55:35Z</time>
      </trkpt>
      <trkpt lat="46.24402" lon="10.47132">
        <ele>1144.214</ele>
        <time>2018-08-11T17:55:55Z</time>
      </trkpt>
      <trkpt lat="46.24402" lon="10.47126">
        <ele>1143.65</ele>
        <time>2018-08-11T17:56:15Z</time>
      </trkpt>
      <trkpt lat="46.24401" lon="10.47117">
        <ele>1142.644</ele>
        <time>2018-08-11T17:56:35Z</time>
      </trkpt>
      <trkpt lat="46.24397" lon="10.47106">
        <ele>1141.429</ele>
        <time>2018-08-11T17:56:55Z</time>
      </trkpt>
      <trkpt lat="46.24395" lon="10.47104">
        <ele>1141.13</ele>
        <time>2018-08-11T17:57:15Z</time>
      </trkpt>
      <trkpt lat="46.24394" lon="10.47101">
        <ele>1140.887</ele>
        <time>2018-08-11T17:57:35Z</time>
      </trkpt>
      <trkpt lat="46.24394" lon="10.47099">
        <ele>1140.57</ele>
        <time>2018-08-11T17:57:55Z</time>
      </trkpt>
      <trkpt lat="46.24395" lon="10.47092">
        <ele>1139.854</ele>
        <time>2018-08-11T17:58:15Z</time>
      </trkpt>
      <trkpt lat="46.24397" lon="10.47084">
        <ele>1138.756</ele>
        <time>2018-08-11T17:58:35Z</time>
      </trkpt>
      <trkpt lat="46.24397" lon="10.47079">
        <ele>1138.111</ele>
        <time>2018-08-11T17:58:55Z</time>
      </trkpt>
      <trkpt lat="46.24396" lon="10.47073">
        <ele>1137.208</ele>
        <time>2018-08-11T17:59:15Z</time>
      </trkpt>
      <trkpt lat="46.24393" lon="10.47069">
        <ele>1136.817</ele>
        <time>2018-08-11T17:59:35Z</time>
      </trkpt>
      <trkpt lat="46.24388" lon="10.47067">
        <ele>1136.682</ele>
        <time>2018-08-11T17:59:55Z</time>
      </trkpt>
      <trkpt lat="46.24384" lon="10.47063">
        <ele>1135.858</ele>
        <time>2018-08-11T18:00:15Z</time>
      </trkpt>
      <trkpt lat="46.24375" lon="10.47052">
        <ele>1134.112</ele>
        <time>2018-08-11T18:00:35Z</time>
      </trkpt>
      <trkpt lat="46.24368" lon="10.47038">
        <ele>1132.367</ele>
        <time>2018-08-11T18:00:55Z</time>
      </trkpt>
      <trkpt lat="46.24367" lon="10.47036">
        <ele>1132.168</ele>
        <time>2018-08-11T18:01:15Z</time>
      </trkpt>
      <trkpt lat="46.24362" lon="10.47034">
        <ele>1131.765</ele>
        <time>2018-08-11T18:01:35Z</time>
      </trkpt>
      <trkpt lat="46.24359" lon="10.47029">
        <ele>1131.058</ele>
        <time>2018-08-11T18:01:55Z</time>
      </trkpt>
      <trkpt lat="46.24354" lon="10.47025">
        <ele>1130.325</ele>
        <time>2018-08-11T18:02:15Z</time>
      </trkpt>
      <trkpt lat="46.24349" lon="10.47019">
        <ele>1129.326</ele>
        <time>2018-08-11T18:02:35Z</time>
      </trkpt>
      <trkpt lat="46.24344" lon="10.47013">
        <ele>1128.208</ele>
        <time>2018-08-11T18:02:55Z</time>
      </trkpt>
      <trkpt lat="46.24339" lon="10.47011">
        <ele>1127.708</ele>
        <time>2018-08-11T18:03:15Z</time>
      </trkpt>
      <trkpt lat="46.24337" lon="10.47004">
        <ele>1126.774</ele>
        <time>2018-08-11T18:03:35Z</time>
      </trkpt>
      <trkpt lat="46.24331" lon="10.47001">
        <ele>1126.039</ele>
        <time>2018-08-11T18:03:55Z</time>
      </trkpt>
      <trkpt lat="46.24325" lon="10.46976">
        <ele>1124.235</ele>
        <time>2018-08-11T18:04:15Z</time>
      </trkpt>
      <trkpt lat="46.24322" lon="10.46965">
        <ele>1124.069</ele>
        <time>2018-08-11T18:04:35Z</time>
      </trkpt>
      <trkpt lat="46.24315" lon="10.46948">
        <ele>1124.074</ele>
        <time>2018-08-11T18:04:55Z</time>
      </trkpt>
      <trkpt lat="46.24304" lon="10.46931">
        <ele>1124.085</ele>
        <time>2018-08-11T18:05:15Z</time>
      </trkpt>
      <trkpt lat="46.24297" lon="10.46915">
        <ele>1124.042</ele>
        <time>2018-08-11T18:05:35Z</time>
      </trkpt>
      <trkpt lat="46.24295" lon="10.46898">
        <ele>1124.255</ele>
        <time>2018-08-11T18:05:55Z</time>
      </trkpt>
      <trkpt lat="46.24289" lon="10.46885">
        <ele>1124.715</ele>
        <time>2018-08-11T18:06:15Z</time>
      </trkpt>
      <trkpt lat="46.24285" lon="10.46884">
        <ele>1125.065</ele>
        <time>2018-08-11T18:06:35Z</time>
      </trkpt>
      <trkpt lat="46.24281" lon="10.46866">
        <ele>1126.311</ele>
        <time>2018-08-11T18:06:55Z</time>
      </trkpt>
      <trkpt lat="46.24258" lon="10.46851">
        <ele>1133.508</ele>
        <time>2018-08-11T18:07:15Z</time>
      </trkpt>
      <trkpt lat="46.24225" lon="10.46825">
        <ele>1146.963</ele>
        <time>2018-08-11T18:07:35Z</time>
      </trkpt>
      <trkpt lat="46.24198" lon="10.46819">
        <ele>1149.858</ele>
        <time>2018-08-11T18:07:55Z</time>
      </trkpt>
      <trkpt lat="46.24173" lon="10.46794">
        <ele>1150.084</ele>
        <time>2018-08-11T18:08:15Z</time>
      </trkpt>
      <trkpt lat="46.24169" lon="10.46789">
        <ele>1150.088</ele>
        <time>2018-08-11T18:08:35Z</time>
      </trkpt>
      <trkpt lat="46.24155" lon="10.46772">
        <ele>1150.533</ele>
        <time>2018-08-11T18:08:55Z</time>
      </trkpt>
      <trkpt lat="46.24149" lon="10.46766">
        <ele>1150.924</ele>
        <time>2018-08-11T18:09:15Z</time>
      </trkpt>
      <trkpt lat="46.24127" lon="10.4675">
        <ele>1152.451</ele>
        <time>2018-08-11T18:09:35Z</time>
      </trkpt>
      <trkpt lat="46.24103" lon="10.46738">
        <ele>1153.874</ele>
        <time>2018-08-11T18:09:55Z</time>
      </trkpt>
      <trkpt lat="46.24093" lon="10.46708">
        <ele>1158.245</ele>
        <time>2018-08-11T18:10:15Z</time>
      </trkpt>
      <trkpt lat="46.24093" lon="10.46688">
        <ele>1161.247</ele>
        <time>2018-08-11T18:10:35Z</time>
      </trkpt>
      <trkpt lat="46.24088" lon="10.4663">
        <ele>1171.711</ele>
        <time>2018-08-11T18:10:55Z</time>
      </trkpt>
      <trkpt lat="46.24051" lon="10.46668">
        <ele>1175.008</ele>
        <time>2018-08-11T18:11:15Z</time>
      </trkpt>
      <trkpt lat="46.24009" lon="10.46693">
        <ele>1181.486</ele>
        <time>2018-08-11T18:11:35Z</time>
      </trkpt>
      <trkpt lat="46.23968" lon="10.4671">
        <ele>1186.851</ele>
        <time>2018-08-11T18:11:55Z</time>
      </trkpt>
      <trkpt lat="46.23927" lon="10.46719">
        <ele>1200.497</ele>
        <time>2018-08-11T18:12:15Z</time>
      </trkpt>
      <trkpt lat="46.23904" lon="10.4672">
        <ele>1210.441</ele>
        <time>2018-08-11T18:12:35Z</time>
      </trkpt>
      <trkpt lat="46.23883" lon="10.46721">
        <ele>1219.146</ele>
        <time>2018-08-11T18:12:55Z</time>
      </trkpt>
      <trkpt lat="46.23861" lon="10.46732">
        <ele>1220.477</ele>
        <time>2018-08-11T18:13:15Z</time>
      </trkpt>
      <trkpt lat="46.23834" lon="10.46735">
        <ele>1229.364</ele>
        <time>2018-08-11T18:13:35Z</time>
      </trkpt>
      <trkpt lat="46.23806" lon="10.46738">
        <ele>1232.817</ele>
        <time>2018-08-11T18:13:55Z</time>
      </trkpt>
      <trkpt lat="46.23778" lon="10.46737">
        <ele>1238.562</ele>
        <time>2018-08-11T18:14:15Z</time>
      </trkpt>
      <trkpt lat="46.2375" lon="10.46749">
        <ele>1239.383</ele>
        <time>2018-08-11T18:14:35Z</time>
      </trkpt>
      <trkpt lat="46.23738" lon="10.46766">
        <ele>1235.111</ele>
        <time>2018-08-11T18:14:55Z</time>
      </trkpt>
      <trkpt lat="46.23713" lon="10.46773">
        <ele>1238.008</ele>
        <time>2018-08-11T18:15:15Z</time>
      </trkpt>
      <trkpt lat="46.23696" lon="10.46791">
        <ele>1235.878</ele>
        <time>2018-08-11T18:15:35Z</time>
      </trkpt>
      <trkpt lat="46.23674" lon="10.46814">
        <ele>1232.853</ele>
        <time>2018-08-11T18:15:55Z</time>
      </trkpt>
      <trkpt lat="46.23661" lon="10.46844">
        <ele>1227.699</ele>
        <time>2018-08-11T18:16:15Z</time>
      </trkpt>
      <trkpt lat="46.23636" lon="10.46866">
        <ele>1228.423</ele>
        <time>2018-08-11T18:16:35Z</time>
      </trkpt>
      <trkpt lat="46.23593" lon="10.46881">
        <ele>1233.758</ele>
        <time>2018-08-11T18:16:55Z</time>
      </trkpt>
      <trkpt lat="46.2355" lon="10.46873">
        <ele>1243.419</ele>
        <time>2018-08-11T18:17:15Z</time>
      </trkpt>
      <trkpt lat="46.23501" lon="10.46855">
        <ele>1253.316</ele>
        <time>2018-08-11T18:17:35Z</time>
      </trkpt>
      <trkpt lat="46.23473" lon="10.46843">
        <ele>1261.299</ele>
        <time>2018-08-11T18:17:55Z</time>
      </trkpt>
      <trkpt lat="46.23454" lon="10.46823">
        <ele>1267.739</ele>
        <time>2018-08-11T18:18:15Z</time>
      </trkpt>
      <trkpt lat="46.23523" lon="10.46818">
        <ele>1270.101</ele>
        <time>2018-08-11T18:18:35Z</time>
      </trkpt>
      <trkpt lat="46.23553" lon="10.46796">
        <ele>1277.321</ele>
        <time>2018-08-11T18:18:55Z</time>
      </trkpt>
      <trkpt lat="46.23564" lon="10.46782">
        <ele>1280.208</ele>
        <time>2018-08-11T18:19:15Z</time>
      </trkpt>
      <trkpt lat="46.23537" lon="10.46785">
        <ele>1285.345</ele>
        <time>2018-08-11T18:19:35Z</time>
      </trkpt>
      <trkpt lat="46.23525" lon="10.46762">
        <ele>1299.89</ele>
        <time>2018-08-11T18:19:55Z</time>
      </trkpt>
      <trkpt lat="46.23552" lon="10.46742">
        <ele>1303.116</ele>
        <time>2018-08-11T18:20:15Z</time>
      </trkpt>
      <trkpt lat="46.23572" lon="10.46702">
        <ele>1311.69</ele>
        <time>2018-08-11T18:20:35Z</time>
      </trkpt>
      <trkpt lat="46.23585" lon="10.46663">
        <ele>1315.585</ele>
        <time>2018-08-11T18:20:55Z</time>
      </trkpt>
      <trkpt lat="46.23597" lon="10.4663">
        <ele>1324.716</ele>
        <time>2018-08-11T18:21:15Z</time>
      </trkpt>
      <trkpt lat="46.23552" lon="10.46628">
        <ele>1341.243</ele>
        <time>2018-08-11T18:21:35Z</time>
      </trkpt>
      <trkpt lat="46.23507" lon="10.46649">
        <ele>1344.586</ele>
        <time>2018-08-11T18:21:55Z</time>
      </trkpt>
      <trkpt lat="46.23487" lon="10.46657">
        <ele>1345.674</ele>
        <time>2018-08-11T18:22:15Z</time>
      </trkpt>
      <trkpt lat="46.23489" lon="10.46629">
        <ele>1354.156</ele>
        <time>2018-08-11T18:22:35Z</time>
      </trkpt>
      <trkpt lat="46.23521" lon="10.46583">
        <ele>1360.621</ele>
        <time>2018-08-11T18:22:55Z</time>
      </trkpt>
      <trkpt lat="46.23552" lon="10.46539">
        <ele>1368.908</ele>
        <time>2018-08-11T18:23:15Z</time>
      </trkpt>
      <trkpt lat="46.23609" lon="10.46511">
        <ele>1385.059</ele>
        <time>2018-08-11T18:23:35Z</time>
      </trkpt>
      <trkpt lat="46.23634" lon="10.46504">
        <ele>1390.674</ele>
        <time>2018-08-11T18:23:55Z</time>
      </trkpt>
      <trkpt lat="46.23664" lon="10.46479">
        <ele>1397.11</ele>
        <time>2018-08-11T18:24:15Z</time>
      </trkpt>
      <trkpt lat="46.237" lon="10.46426">
        <ele>1407.944</ele>
        <time>2018-08-11T18:24:35Z</time>
      </trkpt>
      <trkpt lat="46.23734" lon="10.46385">
        <ele>1414.919</ele>
        <time>2018-08-11T18:24:55Z</time>
      </trkpt>
      <trkpt lat="46.23747" lon="10.46363">
        <ele>1421.46</ele>
        <time>2018-08-11T18:25:15Z</time>
      </trkpt>
      <trkpt lat="46.23753" lon="10.46334">
        <ele>1428.357</ele>
        <time>2018-08-11T18:25:35Z</time>
      </trkpt>
      <trkpt lat="46.23762" lon="10.46302">
        <ele>1429.95</ele>
        <time>2018-08-11T18:25:55Z</time>
      </trkpt>
      <trkpt lat="46.23756" lon="10.46284">
        <ele>1438.721</ele>
        <time>2018-08-11T18:26:15Z</time>
      </trkpt>
      <trkpt lat="46.23734" lon="10.46294">
        <ele>1447.041</ele>
        <time>2018-08-11T18:26:35Z</time>
      </trkpt>
      <trkpt lat="46.23701" lon="10.46304">
        <ele>1454.805</ele>
        <time>2018-08-11T18:26:55Z</time>
      </trkpt>
      <trkpt lat="46.23659" lon="10.46311">
        <ele>1462.708</ele>
        <time>2018-08-11T18:27:15Z</time>
      </trkpt>
      <trkpt lat="46.23672" lon="10.46291">
        <ele>1466.084</ele>
        <time>2018-08-11T18:27:35Z</time>
      </trkpt>
      <trkpt lat="46.23675" lon="10.46261">
        <ele>1472.829</ele>
        <time>2018-08-11T18:27:55Z</time>
      </trkpt>
      <trkpt lat="46.23679" lon="10.46227">
        <ele>1477.855</ele>
        <time>2018-08-11T18:28:15Z</time>
      </trkpt>
      <trkpt lat="46.23683" lon="10.46167">
        <ele>1483.679</ele>
        <time>2018-08-11T18:28:35Z</time>
      </trkpt>
      <trkpt lat="46.23682" lon="10.46119">
        <ele>1488.914</ele>
        <time>2018-08-11T18:28:55Z</time>
      </trkpt>
      <trkpt lat="46.23682" lon="10.46106">
        <ele>1490.295</ele>
        <time>2018-08-11T18:29:15Z</time>
      </trkpt>
      <trkpt lat="46.23682" lon="10.46082">
        <ele>1492.832</ele>
        <time>2018-08-11T18:29:35Z</time>
      </trkpt>
      <trkpt lat="46.23689" lon="10.46038">
        <ele>1495.615</ele>
        <time>2018-08-11T18:29:55Z</time>
      </trkpt>
      <trkpt lat="46.23689" lon="10.4601">
        <ele>1498.475</ele>
        <time>2018-08-11T18:30:15Z</time>
      </trkpt>
      <trkpt lat="46.23682" lon="10.45972">
        <ele>1505.328</ele>
        <time>2018-08-11T18:30:35Z</time>
      </trkpt>
      <trkpt lat="46.23653" lon="10.45936">
        <ele>1521.42</ele>
        <time>2018-08-11T18:30:55Z</time>
      </trkpt>
      <trkpt lat="46.23647" lon="10.45906">
        <ele>1525.508</ele>
        <time>2018-08-11T18:31:15Z</time>
      </trkpt>
      <trkpt lat="46.23638" lon="10.45882">
        <ele>1528.479</ele>
        <time>2018-08-11T18:31:35Z</time>
      </trkpt>
      <trkpt lat="46.23626" lon="10.45896">
        <ele>1528.784</ele>
        <time>2018-08-11T18:31:55Z</time>
      </trkpt>
      <trkpt lat="46.23613" lon="10.45848">
        <ele>1532.24</ele>
        <time>2018-08-11T18:32:15Z</time>
      </trkpt>
      <trkpt lat="46.23614" lon="10.45833">
        <ele>1531.514</ele>
        <time>2018-08-11T18:32:35Z</time>
      </trkpt>
      <trkpt lat="46.2361" lon="10.45785">
        <ele>1529.769</ele>
        <time>2018-08-11T18:32:55Z</time>
      </trkpt>
      <trkpt lat="46.23572" lon="10.45732">
        <ele>1536.82</ele>
        <time>2018-08-11T18:33:15Z</time>
      </trkpt>
      <trkpt lat="46.23557" lon="10.4573">
        <ele>1540.537</ele>
        <time>2018-08-11T18:33:35Z</time>
      </trkpt>
      <trkpt lat="46.23513" lon="10.45737">
        <ele>1551.69</ele>
        <time>2018-08-11T18:33:55Z</time>
      </trkpt>
      <trkpt lat="46.23495" lon="10.45751">
        <ele>1557.444</ele>
        <time>2018-08-11T18:34:15Z</time>
      </trkpt>
      <trkpt lat="46.23485" lon="10.45752">
        <ele>1560.405</ele>
        <time>2018-08-11T18:34:35Z</time>
      </trkpt>
      <trkpt lat="46.2348" lon="10.45748">
        <ele>1561.715</ele>
        <time>2018-08-11T18:34:55Z</time>
      </trkpt>
      <trkpt lat="46.23461" lon="10.45752">
        <ele>1566.908</ele>
        <time>2018-08-11T18:35:15Z</time>
      </trkpt>
      <trkpt lat="46.23443" lon="10.45754">
        <ele>1571.976</ele>
        <time>2018-08-11T18:35:35Z</time>
      </trkpt>
      <trkpt lat="46.23432" lon="10.45758">
        <ele>1577.691</ele>
        <time>2018-08-11T18:35:55Z</time>
      </trkpt>
      <trkpt lat="46.23419" lon="10.45755">
        <ele>1583.357</ele>
        <time>2018-08-11T18:36:15Z</time>
      </trkpt>
      <trkpt lat="46.23407" lon="10.45752">
        <ele>1588.011</ele>
        <time>2018-08-11T18:36:35Z</time>
      </trkpt>
      <trkpt lat="46.23403" lon="10.45747">
        <ele>1589.916</ele>
        <time>2018-08-11T18:36:55Z</time>
      </trkpt>
      <trkpt lat="46.23393" lon="10.45731">
        <ele>1592.737</ele>
        <time>2018-08-11T18:37:15Z</time>
      </trkpt>
      <trkpt lat="46.23386" lon="10.45719">
        <ele>1594.954</ele>
        <time>2018-08-11T18:37:35Z</time>
      </trkpt>
      <trkpt lat="46.23382" lon="10.45717">
        <ele>1596.747</ele>
        <time>2018-08-11T18:37:55Z</time>
      </trkpt>
      <trkpt lat="46.23371" lon="10.4572">
        <ele>1602.219</ele>
        <time>2018-08-11T18:38:15Z</time>
      </trkpt>
      <trkpt lat="46.2337" lon="10.45722">
        <ele>1603.009</ele>
        <time>2018-08-11T18:38:35Z</time>
      </trkpt>
      <trkpt lat="46.23369" lon="10.45736">
        <ele>1604.419</ele>
        <time>2018-08-11T18:38:55Z</time>
      </trkpt>
      <trkpt lat="46.23361" lon="10.45753">
        <ele>1609.208</ele>
        <time>2018-08-11T18:39:15Z</time>
      </trkpt>
      <trkpt lat="46.23349" lon="10.45752">
        <ele>1615.913</ele>
        <time>2018-08-11T18:39:35Z</time>
      </trkpt>
      <trkpt lat="46.23333" lon="10.45739">
        <ele>1623.218</ele>
        <time>2018-08-11T18:39:55Z</time>
      </trkpt>
      <trkpt lat="46.23331" lon="10.4574">
        <ele>1624.124</ele>
        <time>2018-08-11T18:40:15Z</time>
      </trkpt>
      <trkpt lat="46.23331" lon="10.4574">
        <ele>1624.468</ele>
        <time>2018-08-11T18:40:35Z</time>
      </trkpt>
      <trkpt lat="46.23326" lon="10.45746">
        <ele>1626.843</ele>
        <time>2018-08-11T18:40:55Z</time>
      </trkpt>
      <trkpt lat="46.23315" lon="10.4577">
        <ele>1634.674</ele>
        <time>2018-08-11T18:41:15Z</time>
      </trkpt>
      <trkpt lat="46.2331" lon="10.45775">
        <ele>1637.791</ele>
        <time>2018-08-11T18:41:35Z</time>
      </trkpt>
      <trkpt lat="46.23308" lon="10.45776">
        <ele>1638.874</ele>
        <time>2018-08-11T18:41:55Z</time>
      </trkpt>
      <trkpt lat="46.23305" lon="10.45776">
        <ele>1640.063</ele>
        <time>2018-08-11T18:42:15Z</time>
      </trkpt>
      <trkpt lat="46.23304" lon="10.45773">
        <ele>1640.144</ele>
        <time>2018-08-11T18:42:35Z</time>
      </trkpt>
      <trkpt lat="46.23299" lon="10.45763">
        <ele>1642.518</ele>
        <time>2018-08-11T18:42:55Z</time>
      </trkpt>
      <trkpt lat="46.23295" lon="10.4575">
        <ele>1643.208</ele>
        <time>2018-08-11T18:43:15Z</time>
      </trkpt>
      <trkpt lat="46.23282" lon="10.45781">
        <ele>1656.278</ele>
        <time>2018-08-11T18:43:35Z</time>
      </trkpt>
      <trkpt lat="46.23277" lon="10.45786">
        <ele>1660.323</ele>
        <time>2018-08-11T18:43:55Z</time>
      </trkpt>
      <trkpt lat="46.23275" lon="10.45785">
        <ele>1661.449</ele>
        <time>2018-08-11T18:44:15Z</time>
      </trkpt>
      <trkpt lat="46.23272" lon="10.45783">
        <ele>1662.263</ele>
        <time>2018-08-11T18:44:35Z</time>
      </trkpt>
      <trkpt lat="46.2327" lon="10.45776">
        <ele>1662.058</ele>
        <time>2018-08-11T18:44:55Z</time>
      </trkpt>
      <trkpt lat="46.23256" lon="10.45743">
        <ele>1663.349</ele>
        <time>2018-08-11T18:45:15Z</time>
      </trkpt>
      <trkpt lat="46.23242" lon="10.45734">
        <ele>1669.516</ele>
        <time>2018-08-11T18:45:35Z</time>
      </trkpt>
      <trkpt lat="46.23238" lon="10.45734">
        <ele>1672.419</ele>
        <time>2018-08-11T18:45:55Z</time>
      </trkpt>
      <trkpt lat="46.23233" lon="10.45752">
        <ele>1678.473</ele>
        <time>2018-08-11T18:46:15Z</time>
      </trkpt>
      <trkpt lat="46.23228" lon="10.45758">
        <ele>1682.185</ele>
        <time>2018-08-11T18:46:35Z</time>
      </trkpt>
      <trkpt lat="46.23224" lon="10.45761">
        <ele>1685.713</ele>
        <time>2018-08-11T18:46:55Z</time>
      </trkpt>
      <trkpt lat="46.23215" lon="10.4576">
        <ele>1689.708</ele>
        <time>2018-08-11T18:47:15Z</time>
      </trkpt>
      <trkpt lat="46.23211" lon="10.45758">
        <ele>1691.169</ele>
        <time>2018-08-11T18:47:35Z</time>
      </trkpt>
      <trkpt lat="46.23207" lon="10.4575">
        <ele>1692.334</ele>
        <time>2018-08-11T18:47:55Z</time>
      </trkpt>
      <trkpt lat="46.2319" lon="10.45713">
        <ele>1700.84</ele>
        <time>2018-08-11T18:48:15Z</time>
      </trkpt>
      <trkpt lat="46.23182" lon="10.457">
        <ele>1702.664</ele>
        <time>2018-08-11T18:48:35Z</time>
      </trkpt>
      <trkpt lat="46.23176" lon="10.45715">
        <ele>1706.429</ele>
        <time>2018-08-11T18:48:55Z</time>
      </trkpt>
      <trkpt lat="46.23173" lon="10.45739">
        <ele>1709.52</ele>
        <time>2018-08-11T18:49:15Z</time>
      </trkpt>
      <trkpt lat="46.23169" lon="10.45753">
        <ele>1712.717</ele>
        <time>2018-08-11T18:49:35Z</time>
      </trkpt>
      <trkpt lat="46.23163" lon="10.4577">
        <ele>1717.88</ele>
        <time>2018-08-11T18:49:55Z</time>
      </trkpt>
      <trkpt lat="46.23157" lon="10.45768">
        <ele>1720.127</ele>
        <time>2018-08-11T18:50:15Z</time>
      </trkpt>
      <trkpt lat="46.23151" lon="10.4576">
        <ele>1721.568</ele>
        <time>2018-08-11T18:50:35Z</time>
      </trkpt>
      <trkpt lat="46.23144" lon="10.45745">
        <ele>1722.414</ele>
        <time>2018-08-11T18:50:55Z</time>
      </trkpt>
      <trkpt lat="46.23141" lon="10.45747">
        <ele>1723.608</ele>
        <time>2018-08-11T18:51:15Z</time>
      </trkpt>
      <trkpt lat="46.2313" lon="10.45762">
        <ele>1730.584</ele>
        <time>2018-08-11T18:51:35Z</time>
      </trkpt>
      <trkpt lat="46.23128" lon="10.45762">
        <ele>1731.699</ele>
        <time>2018-08-11T18:51:55Z</time>
      </trkpt>
      <trkpt lat="46.23125" lon="10.45761">
        <ele>1732.165</ele>
        <time>2018-08-11T18:52:15Z</time>
      </trkpt>
      <trkpt lat="46.23124" lon="10.45755">
        <ele>1731.529</ele>
        <time>2018-08-11T18:52:35Z</time>
      </trkpt>
      <trkpt lat="46.23119" lon="10.45732">
        <ele>1728.374</ele>
        <time>2018-08-11T18:52:55Z</time>
      </trkpt>
      <trkpt lat="46.23102" lon="10.45704">
        <ele>1732.785</ele>
        <time>2018-08-11T18:53:15Z</time>
      </trkpt>
      <trkpt lat="46.231" lon="10.45707">
        <ele>1735.012</ele>
        <time>2018-08-11T18:53:35Z</time>
      </trkpt>
      <trkpt lat="46.23089" lon="10.45731">
        <ele>1747.665</ele>
        <time>2018-08-11T18:53:55Z</time>
      </trkpt>
      <trkpt lat="46.23082" lon="10.45736">
        <ele>1753.955</ele>
        <time>2018-08-11T18:54:15Z</time>
      </trkpt>
      <trkpt lat="46.23074" lon="10.45739">
        <ele>1756.907</ele>
        <time>2018-08-11T18:54:35Z</time>
      </trkpt>
      <trkpt lat="46.23071" lon="10.45738">
        <ele>1757.517</ele>
        <time>2018-08-11T18:54:55Z</time>
      </trkpt>
      <trkpt lat="46.23064" lon="10.45718">
        <ele>1756.708</ele>
        <time>2018-08-11T18:55:15Z</time>
      </trkpt>
      <trkpt lat="46.23047" lon="10.4568">
        <ele>1757.527</ele>
        <time>2018-08-11T18:55:35Z</time>
      </trkpt>
      <trkpt lat="46.23013" lon="10.45653">
        <ele>1767.482</ele>
        <time>2018-08-11T18:55:55Z</time>
      </trkpt>
      <trkpt lat="46.23007" lon="10.45646">
        <ele>1769.968</ele>
        <time>2018-08-11T18:56:15Z</time>
      </trkpt>
      <trkpt lat="46.22988" lon="10.45619">
        <ele>1778.742</ele>
        <time>2018-08-11T18:56:35Z</time>
      </trkpt>
      <trkpt lat="46.22977" lon="10.45601">
        <ele>1783.867</ele>
        <time>2018-08-11T18:56:55Z</time>
      </trkpt>
      <trkpt lat="46.22972" lon="10.45589">
        <ele>1785.968</ele>
        <time>2018-08-11T18:57:15Z</time>
      </trkpt>
      <trkpt lat="46.22953" lon="10.45564">
        <ele>1789.475</ele>
        <time>2018-08-11T18:57:35Z</time>
      </trkpt>
      <trkpt lat="46.22938" lon="10.4555">
        <ele>1794.618</ele>
        <time>2018-08-11T18:57:55Z</time>
      </trkpt>
      <trkpt lat="46.22932" lon="10.45552">
        <ele>1797.441</ele>
        <time>2018-08-11T18:58:15Z</time>
      </trkpt>
      <trkpt lat="46.2292" lon="10.45559">
        <ele>1803.981</ele>
        <time>2018-08-11T18:58:35Z</time>
      </trkpt>
      <trkpt lat="46.22914" lon="10.45558">
        <ele>1807.209</ele>
        <time>2018-08-11T18:58:55Z</time>
      </trkpt>
      <trkpt lat="46.22906" lon="10.45545">
        <ele>1810.608</ele>
        <time>2018-08-11T18:59:15Z</time>
      </trkpt>
      <trkpt lat="46.229" lon="10.4554">
        <ele>1813.716</ele>
        <time>2018-08-11T18:59:35Z</time>
      </trkpt>
      <trkpt lat="46.22894" lon="10.45524">
        <ele>1816.841</ele>
        <time>2018-08-11T18:59:55Z</time>
      </trkpt>
      <trkpt lat="46.22886" lon="10.45536">
        <ele>1822.967</ele>
        <time>2018-08-11T19:00:15Z</time>
      </trkpt>
      <trkpt lat="46.22886" lon="10.45537">
        <ele>1823.231</ele>
        <time>2018-08-11T19:00:35Z</time>
      </trkpt>
      <trkpt lat="46.22879" lon="10.45549">
        <ele>1829.566</ele>
        <time>2018-08-11T19:00:55Z</time>
      </trkpt>
      <trkpt lat="46.22872" lon="10.4553">
        <ele>1833.857</ele>
        <time>2018-08-11T19:01:15Z</time>
      </trkpt>
      <trkpt lat="46.2287" lon="10.45525">
        <ele>1834.764</ele>
        <time>2018-08-11T19:01:35Z</time>
      </trkpt>
      <trkpt lat="46.22869" lon="10.45491">
        <ele>1834.567</ele>
        <time>2018-08-11T19:01:55Z</time>
      </trkpt>
      <trkpt lat="46.22862" lon="10.4546">
        <ele>1838.335</ele>
        <time>2018-08-11T19:02:15Z</time>
      </trkpt>
      <trkpt lat="46.22844" lon="10.45434">
        <ele>1852.886</ele>
        <time>2018-08-11T19:02:35Z</time>
      </trkpt>
      <trkpt lat="46.22831" lon="10.45436">
        <ele>1863.114</ele>
        <time>2018-08-11T19:02:55Z</time>
      </trkpt>
      <trkpt lat="46.2283" lon="10.45465">
        <ele>1868.108</ele>
        <time>2018-08-11T19:03:15Z</time>
      </trkpt>
      <trkpt lat="46.22821" lon="10.45494">
        <ele>1873.695</ele>
        <time>2018-08-11T19:03:35Z</time>
      </trkpt>
      <trkpt lat="46.22791" lon="10.45548">
        <ele>1886.49</ele>
        <time>2018-08-11T19:03:55Z</time>
      </trkpt>
      <trkpt lat="46.22767" lon="10.45566">
        <ele>1901.396</ele>
        <time>2018-08-11T19:04:15Z</time>
      </trkpt>
      <trkpt lat="46.22756" lon="10.45582">
        <ele>1907.46</ele>
        <time>2018-08-11T19:04:35Z</time>
      </trkpt>
      <trkpt lat="46.22739" lon="10.45638">
        <ele>1926.335</ele>
        <time>2018-08-11T19:04:55Z</time>
      </trkpt>
      <trkpt lat="46.22728" lon="10.45671">
        <ele>1935.176</ele>
        <time>2018-08-11T19:05:15Z</time>
      </trkpt>
      <trkpt lat="46.22704" lon="10.45722">
        <ele>1946.683</ele>
        <time>2018-08-11T19:05:35Z</time>
      </trkpt>
      <trkpt lat="46.2265" lon="10.45813">
        <ele>1961.396</ele>
        <time>2018-08-11T19:05:55Z</time>
      </trkpt>
      <trkpt lat="46.22613" lon="10.45878">
        <ele>1961.792</ele>
        <time>2018-08-11T19:06:15Z</time>
      </trkpt>
      <trkpt lat="46.22614" lon="10.45875">
        <ele>1962.073</ele>
        <time>2018-08-11T19:06:35Z</time>
      </trkpt>
      <trkpt lat="46.22594" lon="10.45831">
        <ele>1974.72</ele>
        <time>2018-08-11T19:06:55Z</time>
      </trkpt>
      <trkpt lat="46.22592" lon="10.45827">
        <ele>1976.008</ele>
        <time>2018-08-11T19:07:15Z</time>
      </trkpt>
      <trkpt lat="46.22572" lon="10.45792">
        <ele>1987.751</ele>
        <time>2018-08-11T19:07:35Z</time>
      </trkpt>
      <trkpt lat="46.22559" lon="10.45765">
        <ele>1997.776</ele>
        <time>2018-08-11T19:07:55Z</time>
      </trkpt>
      <trkpt lat="46.22576" lon="10.45686">
        <ele>2004.372</ele>
        <time>2018-08-11T19:08:15Z</time>
      </trkpt>
      <trkpt lat="46.22577" lon="10.45677">
        <ele>2004.416</ele>
        <time>2018-08-11T19:08:35Z</time>
      </trkpt>
      <trkpt lat="46.22585" lon="10.45662">
        <ele>2002.851</ele>
        <time>2018-08-11T19:08:55Z</time>
      </trkpt>
      <trkpt lat="46.22589" lon="10.45646">
        <ele>2002.552</ele>
        <time>2018-08-11T19:09:15Z</time>
      </trkpt>
      <trkpt lat="46.22593" lon="10.45623">
        <ele>2003.189</ele>
        <time>2018-08-11T19:09:35Z</time>
      </trkpt>
      <trkpt lat="46.22595" lon="10.45607">
        <ele>2003.832</ele>
        <time>2018-08-11T19:09:55Z</time>
      </trkpt>
      <trkpt lat="46.22598" lon="10.45582">
        <ele>2004.896</ele>
        <time>2018-08-11T19:10:15Z</time>
      </trkpt>
      <trkpt lat="46.22601" lon="10.45549">
        <ele>2005.531</ele>
        <time>2018-08-11T19:10:35Z</time>
      </trkpt>
      <trkpt lat="46.22604" lon="10.45528">
        <ele>2005.724</ele>
        <time>2018-08-11T19:10:55Z</time>
      </trkpt>
      <trkpt lat="46.22605" lon="10.45504">
        <ele>2006.108</ele>
        <time>2018-08-11T19:11:15Z</time>
      </trkpt>
      <trkpt lat="46.22607" lon="10.45481">
        <ele>2006.971</ele>
        <time>2018-08-11T19:11:35Z</time>
      </trkpt>
      <trkpt lat="46.22608" lon="10.45456">
        <ele>2007.826</ele>
        <time>2018-08-11T19:11:55Z</time>
      </trkpt>
      <trkpt lat="46.22609" lon="10.45425">
        <ele>2007.162</ele>
        <time>2018-08-11T19:12:15Z</time>
      </trkpt>
      <trkpt lat="46.22607" lon="10.4539">
        <ele>2007.796</ele>
        <time>2018-08-11T19:12:35Z</time>
      </trkpt>
      <trkpt lat="46.22603" lon="10.45359">
        <ele>2008.141</ele>
        <time>2018-08-11T19:12:55Z</time>
      </trkpt>
      <trkpt lat="46.22598" lon="10.45336">
        <ele>2008.812</ele>
        <time>2018-08-11T19:13:15Z</time>
      </trkpt>
      <trkpt lat="46.22589" lon="10.45306">
        <ele>2010.239</ele>
        <time>2018-08-11T19:13:35Z</time>
      </trkpt>
      <trkpt lat="46.2258" lon="10.45301">
        <ele>2011.952</ele>
        <time>2018-08-11T19:13:55Z</time>
      </trkpt>
      <trkpt lat="46.22564" lon="10.45299">
        <ele>2013.952</ele>
        <time>2018-08-11T19:14:15Z</time>
      </trkpt>
      <trkpt lat="46.22538" lon="10.45284">
        <ele>2015.753</ele>
        <time>2018-08-11T19:14:35Z</time>
      </trkpt>
      <trkpt lat="46.225" lon="10.45269">
        <ele>2015.708</ele>
        <time>2018-08-11T19:14:55Z</time>
      </trkpt>
      <trkpt lat="46.22546" lon="10.45265">
        <ele>2012.108</ele>
        <time>2018-08-11T19:15:15Z</time>
      </trkpt>
      <trkpt lat="46.22583" lon="10.45249">
        <ele>2004.887</ele>
        <time>2018-08-11T19:15:35Z</time>
      </trkpt>
      <trkpt lat="46.22611" lon="10.45232">
        <ele>1997.882</ele>
        <time>2018-08-11T19:15:55Z</time>
      </trkpt>
      <trkpt lat="46.22638" lon="10.45226">
        <ele>1988.928</ele>
        <time>2018-08-11T19:16:15Z</time>
      </trkpt>
      <trkpt lat="46.2264" lon="10.452">
        <ele>1983.472</ele>
        <time>2018-08-11T19:16:35Z</time>
      </trkpt>
      <trkpt lat="46.22641" lon="10.45192">
        <ele>1981.857</ele>
        <time>2018-08-11T19:16:55Z</time>
      </trkpt>
      <trkpt lat="46.22646" lon="10.45152">
        <ele>1976.088</ele>
        <time>2018-08-11T19:17:15Z</time>
      </trkpt>
      <trkpt lat="46.22643" lon="10.45115">
        <ele>1975.665</ele>
        <time>2018-08-11T19:17:35Z</time>
      </trkpt>
      <trkpt lat="46.22637" lon="10.45095">
        <ele>1975.698</ele>
        <time>2018-08-11T19:17:55Z</time>
      </trkpt>
      <trkpt lat="46.22631" lon="10.45082">
        <ele>1975.852</ele>
        <time>2018-08-11T19:18:15Z</time>
      </trkpt>
      <trkpt lat="46.22622" lon="10.45067">
        <ele>1976.153</ele>
        <time>2018-08-11T19:18:35Z</time>
      </trkpt>
      <trkpt lat="46.22611" lon="10.4505">
        <ele>1974.708</ele>
        <time>2018-08-11T19:18:55Z</time>
      </trkpt>
      <trkpt lat="46.22598" lon="10.45035">
        <ele>1971.808</ele>
        <time>2018-08-11T19:19:15Z</time>
      </trkpt>
      <trkpt lat="46.22572" lon="10.45013">
        <ele>1966.747</ele>
        <time>2018-08-11T19:19:35Z</time>
      </trkpt>
      <trkpt lat="46.2256" lon="10.45">
        <ele>1962.912</ele>
        <time>2018-08-11T19:19:55Z</time>
      </trkpt>
      <trkpt lat="46.22547" lon="10.45004">
        <ele>1962.618</ele>
        <time>2018-08-11T19:20:15Z</time>
      </trkpt>
      <trkpt lat="46.22535" lon="10.45016">
        <ele>1963.972</ele>
        <time>2018-08-11T19:20:35Z</time>
      </trkpt>
      <trkpt lat="46.22516" lon="10.45021">
        <ele>1960.857</ele>
        <time>2018-08-11T19:20:55Z</time>
      </trkpt>
      <trkpt lat="46.22484" lon="10.45032">
        <ele>1957.938</ele>
        <time>2018-08-11T19:21:15Z</time>
      </trkpt>
      <trkpt lat="46.22463" lon="10.45043">
        <ele>1959.575</ele>
        <time>2018-08-11T19:21:35Z</time>
      </trkpt>
      <trkpt lat="46.22442" lon="10.45024">
        <ele>1952.028</ele>
        <time>2018-08-11T19:21:55Z</time>
      </trkpt>
      <trkpt lat="46.22446" lon="10.45005">
        <ele>1945.899</ele>
        <time>2018-08-11T19:22:15Z</time>
      </trkpt>
      <trkpt lat="46.22462" lon="10.44987">
        <ele>1940.507</ele>
        <time>2018-08-11T19:22:35Z</time>
      </trkpt>
      <trkpt lat="46.22466" lon="10.44995">
        <ele>1943.727</ele>
        <time>2018-08-11T19:22:55Z</time>
      </trkpt>
      <trkpt lat="46.22477" lon="10.44985">
        <ele>1941.608</ele>
        <time>2018-08-11T19:23:15Z</time>
      </trkpt>
      <trkpt lat="46.2249" lon="10.44963">
        <ele>1936.711</ele>
        <time>2018-08-11T19:23:35Z</time>
      </trkpt>
      <trkpt lat="46.22521" lon="10.44912">
        <ele>1929.616</ele>
        <time>2018-08-11T19:23:55Z</time>
      </trkpt>
      <trkpt lat="46.22535" lon="10.44893">
        <ele>1925.162</ele>
        <time>2018-08-11T19:24:15Z</time>
      </trkpt>
      <trkpt lat="46.22551" lon="10.44884">
        <ele>1920.186</ele>
        <time>2018-08-11T19:24:35Z</time>
      </trkpt>
      <trkpt lat="46.22572" lon="10.44885">
        <ele>1918.941</ele>
        <time>2018-08-11T19:24:55Z</time>
      </trkpt>
      <trkpt lat="46.22591" lon="10.44887">
        <ele>1917.222</ele>
        <time>2018-08-11T19:25:15Z</time>
      </trkpt>
      <trkpt lat="46.22608" lon="10.44898">
        <ele>1916.189</ele>
        <time>2018-08-11T19:25:35Z</time>
      </trkpt>
      <trkpt lat="46.22627" lon="10.44915">
        <ele>1914.692</ele>
        <time>2018-08-11T19:25:55Z</time>
      </trkpt>
      <trkpt lat="46.22672" lon="10.44952">
        <ele>1913.618</ele>
        <time>2018-08-11T19:26:15Z</time>
      </trkpt>
      <trkpt lat="46.2269" lon="10.44962">
        <ele>1915.298</ele>
        <time>2018-08-11T19:26:35Z</time>
      </trkpt>
      <trkpt lat="46.22724" lon="10.44974">
        <ele>1903.217</ele>
        <time>2018-08-11T19:26:55Z</time>
      </trkpt>
      <trkpt lat="46.22752" lon="10.44984">
        <ele>1889.808</ele>
        <time>2018-08-11T19:27:15Z</time>
      </trkpt>
      <trkpt lat="46.22788" lon="10.4501">
        <ele>1875.013</ele>
        <time>2018-08-11T19:27:35Z</time>
      </trkpt>
      <trkpt lat="46.22803" lon="10.45027">
        <ele>1871.788</ele>
        <time>2018-08-11T19:27:55Z</time>
      </trkpt>
      <trkpt lat="46.2282" lon="10.45041">
        <ele>1863.094</ele>
        <time>2018-08-11T19:28:15Z</time>
      </trkpt>
      <trkpt lat="46.2283" lon="10.45065">
        <ele>1858.628</ele>
        <time>2018-08-11T19:28:35Z</time>
      </trkpt>
      <trkpt lat="46.22844" lon="10.45109">
        <ele>1852.433</ele>
        <time>2018-08-11T19:28:55Z</time>
      </trkpt>
      <trkpt lat="46.22858" lon="10.45166">
        <ele>1847.724</ele>
        <time>2018-08-11T19:29:15Z</time>
      </trkpt>
      <trkpt lat="46.22865" lon="10.45184">
        <ele>1845.411</ele>
        <time>2018-08-11T19:29:35Z</time>
      </trkpt>
      <trkpt lat="46.22875" lon="10.45208">
        <ele>1841.444</ele>
        <time>2018-08-11T19:29:55Z</time>
      </trkpt>
      <trkpt lat="46.22882" lon="10.45235">
        <ele>1838.218</ele>
        <time>2018-08-11T19:30:15Z</time>
      </trkpt>
      <trkpt lat="46.22891" lon="10.4527">
        <ele>1831.398</ele>
        <time>2018-08-11T19:30:35Z</time>
      </trkpt>
      <trkpt lat="46.22893" lon="10.45289">
        <ele>1828.717</ele>
        <time>2018-08-11T19:30:55Z</time>
      </trkpt>
      <trkpt lat="46.22894" lon="10.45313">
        <ele>1826.508</ele>
        <time>2018-08-11T19:31:15Z</time>
      </trkpt>
      <trkpt lat="46.22901" lon="10.45328">
        <ele>1821.533</ele>
        <time>2018-08-11T19:31:35Z</time>
      </trkpt>
      <trkpt lat="46.22907" lon="10.45361">
        <ele>1816.058</ele>
        <time>2018-08-11T19:31:55Z</time>
      </trkpt>
      <trkpt lat="46.22909" lon="10.45388">
        <ele>1812.654</ele>
        <time>2018-08-11T19:32:15Z</time>
      </trkpt>
      <trkpt lat="46.22918" lon="10.45368">
        <ele>1809.568</ele>
        <time>2018-08-11T19:32:35Z</time>
      </trkpt>
      <trkpt lat="46.22927" lon="10.45345">
        <ele>1806.233</ele>
        <time>2018-08-11T19:32:55Z</time>
      </trkpt>
      <trkpt lat="46.22944" lon="10.45299">
        <ele>1800.074</ele>
        <time>2018-08-11T19:33:15Z</time>
      </trkpt>
      <trkpt lat="46.22955" lon="10.4525">
        <ele>1791.551</ele>
        <time>2018-08-11T19:33:35Z</time>
      </trkpt>
      <trkpt lat="46.22956" lon="10.45227">
        <ele>1790.094</ele>
        <time>2018-08-11T19:33:55Z</time>
      </trkpt>
      <trkpt lat="46.22957" lon="10.45187">
        <ele>1787.796</ele>
        <time>2018-08-11T19:34:15Z</time>
      </trkpt>
      <trkpt lat="46.22954" lon="10.45152">
        <ele>1785.131</ele>
        <time>2018-08-11T19:34:35Z</time>
      </trkpt>
      <trkpt lat="46.22957" lon="10.45135">
        <ele>1782.324</ele>
        <time>2018-08-11T19:34:55Z</time>
      </trkpt>
      <trkpt lat="46.22961" lon="10.45128">
        <ele>1780.208</ele>
        <time>2018-08-11T19:35:15Z</time>
      </trkpt>
      <trkpt lat="46.22964" lon="10.45113">
        <ele>1778.531</ele>
        <time>2018-08-11T19:35:35Z</time>
      </trkpt>
      <trkpt lat="46.22969" lon="10.45076">
        <ele>1773.626</ele>
        <time>2018-08-11T19:35:55Z</time>
      </trkpt>
      <trkpt lat="46.22975" lon="10.45038">
        <ele>1766.182</ele>
        <time>2018-08-11T19:36:15Z</time>
      </trkpt>
      <trkpt lat="46.22976" lon="10.4501">
        <ele>1761.676</ele>
        <time>2018-08-11T19:36:35Z</time>
      </trkpt>
      <trkpt lat="46.22988" lon="10.45008">
        <ele>1756.331</ele>
        <time>2018-08-11T19:36:55Z</time>
      </trkpt>
      <trkpt lat="46.22995" lon="10.45019">
        <ele>1754.532</ele>
        <time>2018-08-11T19:37:15Z</time>
      </trkpt>
      <trkpt lat="46.23002" lon="10.45038">
        <ele>1753.729</ele>
        <time>2018-08-11T19:37:35Z</time>
      </trkpt>
      <trkpt lat="46.23013" lon="10.45059">
        <ele>1753.932</ele>
        <time>2018-08-11T19:37:55Z</time>
      </trkpt>
      <trkpt lat="46.23025" lon="10.45092">
        <ele>1751.974</ele>
        <time>2018-08-11T19:38:15Z</time>
      </trkpt>
      <trkpt lat="46.23026" lon="10.45094">
        <ele>1751.756</ele>
        <time>2018-08-11T19:38:35Z</time>
      </trkpt>
      <trkpt lat="46.2303" lon="10.45103">
        <ele>1749.921</ele>
        <time>2018-08-11T19:38:55Z</time>
      </trkpt>
      <trkpt lat="46.23034" lon="10.4511">
        <ele>1748.408</ele>
        <time>2018-08-11T19:39:15Z</time>
      </trkpt>
      <trkpt lat="46.23039" lon="10.45099">
        <ele>1746.779</ele>
        <time>2018-08-11T19:39:35Z</time>
      </trkpt>
      <trkpt lat="46.23045" lon="10.45081">
        <ele>1744.184</ele>
        <time>2018-08-11T19:39:55Z</time>
      </trkpt>
      <trkpt lat="46.23046" lon="10.45077">
        <ele>1743.04</ele>
        <time>2018-08-11T19:40:15Z</time>
      </trkpt>
      <trkpt lat="46.23054" lon="10.45052">
        <ele>1735.224</ele>
        <time>2018-08-11T19:40:35Z</time>
      </trkpt>
      <trkpt lat="46.23052" lon="10.45038">
        <ele>1732.999</ele>
        <time>2018-08-11T19:40:55Z</time>
      </trkpt>
      <trkpt lat="46.23042" lon="10.45018">
        <ele>1733.77</ele>
        <time>2018-08-11T19:41:15Z</time>
      </trkpt>
      <trkpt lat="46.23015" lon="10.44972">
        <ele>1735.717</ele>
        <time>2018-08-11T19:41:35Z</time>
      </trkpt>
      <trkpt lat="46.23" lon="10.44946">
        <ele>1735.89</ele>
        <time>2018-08-11T19:41:55Z</time>
      </trkpt>
      <trkpt lat="46.22994" lon="10.44937">
        <ele>1737.878</ele>
        <time>2018-08-11T19:42:15Z</time>
      </trkpt>
      <trkpt lat="46.22993" lon="10.44935">
        <ele>1737.833</ele>
        <time>2018-08-11T19:42:35Z</time>
      </trkpt>
      <trkpt lat="46.22992" lon="10.44933">
        <ele>1738.026</ele>
        <time>2018-08-11T19:42:55Z</time>
      </trkpt>
      <trkpt lat="46.22994" lon="10.4492">
        <ele>1734.108</ele>
        <time>2018-08-11T19:43:15Z</time>
      </trkpt>
      <trkpt lat="46.22995" lon="10.4492">
        <ele>1733.149</ele>
        <time>2018-08-11T19:43:35Z</time>
      </trkpt>
      <trkpt lat="46.23001" lon="10.44922">
        <ele>1728.984</ele>
        <time>2018-08-11T19:43:55Z</time>
      </trkpt>
      <trkpt lat="46.23005" lon="10.44929">
        <ele>1728.59</ele>
        <time>2018-08-11T19:44:15Z</time>
      </trkpt>
      <trkpt lat="46.23021" lon="10.44943">
        <ele>1724.714</ele>
        <time>2018-08-11T19:44:35Z</time>
      </trkpt>
      <trkpt lat="46.23029" lon="10.44954">
        <ele>1723.729</ele>
        <time>2018-08-11T19:44:55Z</time>
      </trkpt>
      <trkpt lat="46.2303" lon="10.44955">
        <ele>1723.63</ele>
        <time>2018-08-11T19:45:15Z</time>
      </trkpt>
      <trkpt lat="46.23047" lon="10.44979">
        <ele>1721.077</ele>
        <time>2018-08-11T19:45:35Z</time>
      </trkpt>
      <trkpt lat="46.23061" lon="10.44991">
        <ele>1717.56</ele>
        <time>2018-08-11T19:45:55Z</time>
      </trkpt>
      <trkpt lat="46.23064" lon="10.44994">
        <ele>1717.388</ele>
        <time>2018-08-11T19:46:15Z</time>
      </trkpt>
      <trkpt lat="46.23069" lon="10.45">
        <ele>1717.124</ele>
        <time>2018-08-11T19:46:35Z</time>
      </trkpt>
      <trkpt lat="46.23083" lon="10.45016">
        <ele>1716.926</ele>
        <time>2018-08-11T19:46:55Z</time>
      </trkpt>
      <trkpt lat="46.23095" lon="10.4503">
        <ele>1712.608</ele>
        <time>2018-08-11T19:47:15Z</time>
      </trkpt>
      <trkpt lat="46.23096" lon="10.4503">
        <ele>1712.26</ele>
        <time>2018-08-11T19:47:35Z</time>
      </trkpt>
      <trkpt lat="46.23097" lon="10.45029">
        <ele>1711.525</ele>
        <time>2018-08-11T19:47:55Z</time>
      </trkpt>
      <trkpt lat="46.231" lon="10.45028">
        <ele>1709.171</ele>
        <time>2018-08-11T19:48:15Z</time>
      </trkpt>
      <trkpt lat="46.231" lon="10.45026">
        <ele>1708.455</ele>
        <time>2018-08-11T19:48:35Z</time>
      </trkpt>
      <trkpt lat="46.23101" lon="10.45025">
        <ele>1707.76</ele>
        <time>2018-08-11T19:48:55Z</time>
      </trkpt>
      <trkpt lat="46.23098" lon="10.45013">
        <ele>1707.031</ele>
        <time>2018-08-11T19:49:15Z</time>
      </trkpt>
      <trkpt lat="46.23092" lon="10.45007">
        <ele>1708.958</ele>
        <time>2018-08-11T19:49:35Z</time>
      </trkpt>
      <trkpt lat="46.23082" lon="10.44997">
        <ele>1710.351</ele>
        <time>2018-08-11T19:49:55Z</time>
      </trkpt>
      <trkpt lat="46.23082" lon="10.44995">
        <ele>1710.122</ele>
        <time>2018-08-11T19:50:15Z</time>
      </trkpt>
      <trkpt lat="46.23079" lon="10.4499">
        <ele>1709.562</ele>
        <time>2018-08-11T19:50:35Z</time>
      </trkpt>
      <trkpt lat="46.23074" lon="10.44981">
        <ele>1708.208</ele>
        <time>2018-08-11T19:50:55Z</time>
      </trkpt>
      <trkpt lat="46.23071" lon="10.44972">
        <ele>1707.008</ele>
        <time>2018-08-11T19:51:15Z</time>
      </trkpt>
      <trkpt lat="46.23066" lon="10.44964">
        <ele>1706.634</ele>
        <time>2018-08-11T19:51:35Z</time>
      </trkpt>
      <trkpt lat="46.23066" lon="10.44964">
        <ele>1706.569</ele>
        <time>2018-08-11T19:51:55Z</time>
      </trkpt>
      <trkpt lat="46.23066" lon="10.44956">
        <ele>1704.095</ele>
        <time>2018-08-11T19:52:15Z</time>
      </trkpt>
      <trkpt lat="46.23067" lon="10.44956">
        <ele>1703.669</ele>
        <time>2018-08-11T19:52:35Z</time>
      </trkpt>
      <trkpt lat="46.23076" lon="10.44959">
        <ele>1700.134</ele>
        <time>2018-08-11T19:52:55Z</time>
      </trkpt>
      <trkpt lat="46.23082" lon="10.44965">
        <ele>1699.395</ele>
        <time>2018-08-11T19:53:15Z</time>
      </trkpt>
      <trkpt lat="46.23097" lon="10.44979">
        <ele>1697.722</ele>
        <time>2018-08-11T19:53:35Z</time>
      </trkpt>
      <trkpt lat="46.23101" lon="10.44982">
        <ele>1697.325</ele>
        <time>2018-08-11T19:53:55Z</time>
      </trkpt>
      <trkpt lat="46.23117" lon="10.44998">
        <ele>1693.644</ele>
        <time>2018-08-11T19:54:15Z</time>
      </trkpt>
      <trkpt lat="46.23125" lon="10.45006">
        <ele>1689.805</ele>
        <time>2018-08-11T19:54:35Z</time>
      </trkpt>
      <trkpt lat="46.23127" lon="10.45007">
        <ele>1688.815</ele>
        <time>2018-08-11T19:54:55Z</time>
      </trkpt>
      <trkpt lat="46.23147" lon="10.45034">
        <ele>1681.508</ele>
        <time>2018-08-11T19:55:15Z</time>
      </trkpt>
      <trkpt lat="46.2315" lon="10.45042">
        <ele>1681.296</ele>
        <time>2018-08-11T19:55:35Z</time>
      </trkpt>
      <trkpt lat="46.23161" lon="10.45067">
        <ele>1679.621</ele>
        <time>2018-08-11T19:55:55Z</time>
      </trkpt>
      <trkpt lat="46.23198" lon="10.45122">
        <ele>1664.817</ele>
        <time>2018-08-11T19:56:15Z</time>
      </trkpt>
      <trkpt lat="46.23215" lon="10.45147">
        <ele>1659.331</ele>
        <time>2018-08-11T19:56:35Z</time>
      </trkpt>
      <trkpt lat="46.23228" lon="10.45184">
        <ele>1653.736</ele>
        <time>2018-08-11T19:56:55Z</time>
      </trkpt>
      <trkpt lat="46.23232" lon="10.45221">
        <ele>1648.357</ele>
        <time>2018-08-11T19:57:15Z</time>
      </trkpt>
      <trkpt lat="46.23235" lon="10.45251">
        <ele>1643.414</ele>
        <time>2018-08-11T19:57:35Z</time>
      </trkpt>
      <trkpt lat="46.23243" lon="10.45261">
        <ele>1636.727</ele>
        <time>2018-08-11T19:57:55Z</time>
      </trkpt>
      <trkpt lat="46.23249" lon="10.45246">
        <ele>1634.187</ele>
        <time>2018-08-11T19:58:15Z</time>
      </trkpt>
      <trkpt lat="46.23255" lon="10.4523">
        <ele>1633.842</ele>
        <time>2018-08-11T19:58:35Z</time>
      </trkpt>
      <trkpt lat="46.23264" lon="10.45226">
        <ele>1631.526</ele>
        <time>2018-08-11T19:58:55Z</time>
      </trkpt>
      <trkpt lat="46.23277" lon="10.45213">
        <ele>1628.708</ele>
        <time>2018-08-11T19:59:15Z</time>
      </trkpt>
      <trkpt lat="46.23282" lon="10.45195">
        <ele>1626.57</ele>
        <time>2018-08-11T19:59:35Z</time>
      </trkpt>
      <trkpt lat="46.23284" lon="10.45167">
        <ele>1627.685</ele>
        <time>2018-08-11T19:59:55Z</time>
      </trkpt>
      <trkpt lat="46.23282" lon="10.45127">
        <ele>1628.461</ele>
        <time>2018-08-11T20:00:15Z</time>
      </trkpt>
      <trkpt lat="46.23284" lon="10.45093">
        <ele>1624.135</ele>
        <time>2018-08-11T20:00:35Z</time>
      </trkpt>
      <trkpt lat="46.23298" lon="10.45125">
        <ele>1620.58</ele>
        <time>2018-08-11T20:00:55Z</time>
      </trkpt>
      <trkpt lat="46.23304" lon="10.45137">
        <ele>1618.521</ele>
        <time>2018-08-11T20:01:15Z</time>
      </trkpt>
      <trkpt lat="46.23304" lon="10.45125">
        <ele>1617.588</ele>
        <time>2018-08-11T20:01:35Z</time>
      </trkpt>
      <trkpt lat="46.2329" lon="10.45093">
        <ele>1621.391</ele>
        <time>2018-08-11T20:01:55Z</time>
      </trkpt>
      <trkpt lat="46.23304" lon="10.45063">
        <ele>1612.318</ele>
        <time>2018-08-11T20:02:15Z</time>
      </trkpt>
      <trkpt lat="46.23282" lon="10.45011">
        <ele>1615.198</ele>
        <time>2018-08-11T20:02:35Z</time>
      </trkpt>
      <trkpt lat="46.23234" lon="10.44868">
        <ele>1606.517</ele>
        <time>2018-08-11T20:02:55Z</time>
      </trkpt>
      <trkpt lat="46.23227" lon="10.44845">
        <ele>1601.908</ele>
        <time>2018-08-11T20:03:15Z</time>
      </trkpt>
      <trkpt lat="46.23223" lon="10.44834">
        <ele>1599.983</ele>
        <time>2018-08-11T20:03:35Z</time>
      </trkpt>
      <trkpt lat="46.23172" lon="10.44752">
        <ele>1593.928</ele>
        <time>2018-08-11T20:03:55Z</time>
      </trkpt>
      <trkpt lat="46.2315" lon="10.44748">
        <ele>1599.394</ele>
        <time>2018-08-11T20:04:15Z</time>
      </trkpt>
      <trkpt lat="46.23124" lon="10.447">
        <ele>1589.528</ele>
        <time>2018-08-11T20:04:35Z</time>
      </trkpt>
      <trkpt lat="46.23103" lon="10.44653">
        <ele>1584.053</ele>
        <time>2018-08-11T20:04:55Z</time>
      </trkpt>
      <trkpt lat="46.23085" lon="10.44634">
        <ele>1585.714</ele>
        <time>2018-08-11T20:05:15Z</time>
      </trkpt>
      <trkpt lat="46.23049" lon="10.44514">
        <ele>1569.311</ele>
        <time>2018-08-11T20:05:35Z</time>
      </trkpt>
      <trkpt lat="46.23029" lon="10.44498">
        <ele>1571.284</ele>
        <time>2018-08-11T20:05:55Z</time>
      </trkpt>
      <trkpt lat="46.22982" lon="10.44466">
        <ele>1578.187</ele>
        <time>2018-08-11T20:06:15Z</time>
      </trkpt>
      <trkpt lat="46.22967" lon="10.44422">
        <ele>1576.242</ele>
        <time>2018-08-11T20:06:35Z</time>
      </trkpt>
      <trkpt lat="46.2295" lon="10.44383">
        <ele>1575.926</ele>
        <time>2018-08-11T20:06:55Z</time>
      </trkpt>
      <trkpt lat="46.22927" lon="10.44368">
        <ele>1580.508</ele>
        <time>2018-08-11T20:07:15Z</time>
      </trkpt>
      <trkpt lat="46.22919" lon="10.44349">
        <ele>1577.02</ele>
        <time>2018-08-11T20:07:35Z</time>
      </trkpt>
      <trkpt lat="46.229" lon="10.44343">
        <ele>1582.955</ele>
        <time>2018-08-11T20:07:55Z</time>
      </trkpt>
      <trkpt lat="46.22888" lon="10.44317">
        <ele>1580.261</ele>
        <time>2018-08-11T20:08:15Z</time>
      </trkpt>
      <trkpt lat="46.22897" lon="10.44239">
        <ele>1574.035</ele>
        <time>2018-08-11T20:08:35Z</time>
      </trkpt>
      <trkpt lat="46.22909" lon="10.44214">
        <ele>1570.43</ele>
        <time>2018-08-11T20:08:55Z</time>
      </trkpt>
      <trkpt lat="46.22864" lon="10.44169">
        <ele>1566.191</ele>
        <time>2018-08-11T20:09:15Z</time>
      </trkpt>
      <trkpt lat="46.2284" lon="10.44123">
        <ele>1558.988</ele>
        <time>2018-08-11T20:09:35Z</time>
      </trkpt>
      <trkpt lat="46.22815" lon="10.44089">
        <ele>1554.581</ele>
        <time>2018-08-11T20:09:55Z</time>
      </trkpt>
      <trkpt lat="46.22783" lon="10.44077">
        <ele>1557.585</ele>
        <time>2018-08-11T20:10:15Z</time>
      </trkpt>
      <trkpt lat="46.22711" lon="10.44053">
        <ele>1554.189</ele>
        <time>2018-08-11T20:10:35Z</time>
      </trkpt>
      <trkpt lat="46.22665" lon="10.44056">
        <ele>1557.517</ele>
        <time>2018-08-11T20:10:55Z</time>
      </trkpt>
      <trkpt lat="46.22631" lon="10.44053">
        <ele>1561.008</ele>
        <time>2018-08-11T20:11:15Z</time>
      </trkpt>
      <trkpt lat="46.22604" lon="10.44051">
        <ele>1561.15</ele>
        <time>2018-08-11T20:11:35Z</time>
      </trkpt>
      <trkpt lat="46.22578" lon="10.44048">
        <ele>1559.435</ele>
        <time>2018-08-11T20:11:55Z</time>
      </trkpt>
      <trkpt lat="46.22553" lon="10.44036">
        <ele>1547.281</ele>
        <time>2018-08-11T20:12:15Z</time>
      </trkpt>
      <trkpt lat="46.22518" lon="10.44018">
        <ele>1537.565</ele>
        <time>2018-08-11T20:12:35Z</time>
      </trkpt>
      <trkpt lat="46.22496" lon="10.44004">
        <ele>1534.23</ele>
        <time>2018-08-11T20:12:55Z</time>
      </trkpt>
      <trkpt lat="46.22469" lon="10.43996">
        <ele>1532.831</ele>
        <time>2018-08-11T20:13:15Z</time>
      </trkpt>
      <trkpt lat="46.22446" lon="10.43996">
        <ele>1534.148</ele>
        <time>2018-08-11T20:13:35Z</time>
      </trkpt>
      <trkpt lat="46.2243" lon="10.43965">
        <ele>1526.661</ele>
        <time>2018-08-11T20:13:55Z</time>
      </trkpt>
      <trkpt lat="46.22417" lon="10.43933">
        <ele>1523.551</ele>
        <time>2018-08-11T20:14:15Z</time>
      </trkpt>
      <trkpt lat="46.22407" lon="10.43892">
        <ele>1523.201</ele>
        <time>2018-08-11T20:14:35Z</time>
      </trkpt>
      <trkpt lat="46.2241" lon="10.43851">
        <ele>1522.711</ele>
        <time>2018-08-11T20:14:55Z</time>
      </trkpt>
      <trkpt lat="46.22369" lon="10.43842">
        <ele>1534.508</ele>
        <time>2018-08-11T20:15:15Z</time>
      </trkpt>
      <trkpt lat="46.22364" lon="10.43843">
        <ele>1535.677</ele>
        <time>2018-08-11T20:15:35Z</time>
      </trkpt>
      <trkpt lat="46.22344" lon="10.43845">
        <ele>1539.882</ele>
        <time>2018-08-11T20:15:55Z</time>
      </trkpt>
      <trkpt lat="46.22293" lon="10.4386">
        <ele>1545.468</ele>
        <time>2018-08-11T20:16:15Z</time>
      </trkpt>
      <trkpt lat="46.22255" lon="10.43872">
        <ele>1550.242</ele>
        <time>2018-08-11T20:16:35Z</time>
      </trkpt>
      <trkpt lat="46.22252" lon="10.43873">
        <ele>1550.877</ele>
        <time>2018-08-11T20:16:55Z</time>
      </trkpt>
      <trkpt lat="46.22246" lon="10.43875">
        <ele>1552.558</ele>
        <time>2018-08-11T20:17:15Z</time>
      </trkpt>
      <trkpt lat="46.22233" lon="10.4388">
        <ele>1556.275</ele>
        <time>2018-08-11T20:17:35Z</time>
      </trkpt>
      <trkpt lat="46.22218" lon="10.43885">
        <ele>1559.758</ele>
        <time>2018-08-11T20:17:55Z</time>
      </trkpt>
      <trkpt lat="46.22199" lon="10.43895">
        <ele>1563.493</ele>
        <time>2018-08-11T20:18:15Z</time>
      </trkpt>
      <trkpt lat="46.22181" lon="10.43905">
        <ele>1567.865</ele>
        <time>2018-08-11T20:18:35Z</time>
      </trkpt>
      <trkpt lat="46.22171" lon="10.43915">
        <ele>1570.021</ele>
        <time>2018-08-11T20:18:55Z</time>
      </trkpt>
      <trkpt lat="46.22155" lon="10.43931">
        <ele>1574.508</ele>
        <time>2018-08-11T20:19:15Z</time>
      </trkpt>
      <trkpt lat="46.22154" lon="10.43932">
        <ele>1574.841</ele>
        <time>2018-08-11T20:19:35Z</time>
      </trkpt>
      <trkpt lat="46.22144" lon="10.43943">
        <ele>1577.556</ele>
        <time>2018-08-11T20:19:55Z</time>
      </trkpt>
      <trkpt lat="46.22133" lon="10.43956">
        <ele>1581.022</ele>
        <time>2018-08-11T20:20:15Z</time>
      </trkpt>
      <trkpt lat="46.22127" lon="10.4396">
        <ele>1582.996</ele>
        <time>2018-08-11T20:20:35Z</time>
      </trkpt>
      <trkpt lat="46.2212" lon="10.43965">
        <ele>1585.181</ele>
        <time>2018-08-11T20:20:55Z</time>
      </trkpt>
      <trkpt lat="46.22118" lon="10.43968">
        <ele>1585.742</ele>
        <time>2018-08-11T20:21:15Z</time>
      </trkpt>
      <trkpt lat="46.22114" lon="10.43972">
        <ele>1587.269</ele>
        <time>2018-08-11T20:21:35Z</time>
      </trkpt>
      <trkpt lat="46.22107" lon="10.43974">
        <ele>1588.822</ele>
        <time>2018-08-11T20:21:55Z</time>
      </trkpt>
      <trkpt lat="46.22095" lon="10.43975">
        <ele>1592.071</ele>
        <time>2018-08-11T20:22:15Z</time>
      </trkpt>
      <trkpt lat="46.22081" lon="10.43978">
        <ele>1595.841</ele>
        <time>2018-08-11T20:22:35Z</time>
      </trkpt>
      <trkpt lat="46.22063" lon="10.43984">
        <ele>1602.915</ele>
        <time>2018-08-11T20:22:55Z</time>
      </trkpt>
      <trkpt lat="46.22025" lon="10.43997">
        <ele>1613.708</ele>
        <time>2018-08-11T20:23:15Z</time>
      </trkpt>
      <trkpt lat="46.22017" lon="10.43999">
        <ele>1614.679</ele>
        <time>2018-08-11T20:23:35Z</time>
      </trkpt>
      <trkpt lat="46.22" lon="10.44">
        <ele>1616.964</ele>
        <time>2018-08-11T20:23:55Z</time>
      </trkpt>
      <trkpt lat="46.21992" lon="10.43998">
        <ele>1618.57</ele>
        <time>2018-08-11T20:24:15Z</time>
      </trkpt>
      <trkpt lat="46.21981" lon="10.43999">
        <ele>1620.574</ele>
        <time>2018-08-11T20:24:35Z</time>
      </trkpt>
      <trkpt lat="46.21968" lon="10.44003">
        <ele>1622.539</ele>
        <time>2018-08-11T20:24:55Z</time>
      </trkpt>
      <trkpt lat="46.21959" lon="10.44">
        <ele>1624.43</ele>
        <time>2018-08-11T20:25:15Z</time>
      </trkpt>
      <trkpt lat="46.21951" lon="10.43999">
        <ele>1626.137</ele>
        <time>2018-08-11T20:25:35Z</time>
      </trkpt>
      <trkpt lat="46.21944" lon="10.44002">
        <ele>1627.02</ele>
        <time>2018-08-11T20:25:55Z</time>
      </trkpt>
      <trkpt lat="46.21936" lon="10.44001">
        <ele>1631.263</ele>
        <time>2018-08-11T20:26:15Z</time>
      </trkpt>
      <trkpt lat="46.2193" lon="10.44">
        <ele>1634.344</ele>
        <time>2018-08-11T20:26:35Z</time>
      </trkpt>
      <trkpt lat="46.21925" lon="10.44002">
        <ele>1636.318</ele>
        <time>2018-08-11T20:26:55Z</time>
      </trkpt>
      <trkpt lat="46.21917" lon="10.44011">
        <ele>1638.108</ele>
        <time>2018-08-11T20:27:15Z</time>
      </trkpt>
      <trkpt lat="46.21907" lon="10.4402">
        <ele>1638.768</ele>
        <time>2018-08-11T20:27:35Z</time>
      </trkpt>
      <trkpt lat="46.21897" lon="10.44032">
        <ele>1638.483</ele>
        <time>2018-08-11T20:27:55Z</time>
      </trkpt>
      <trkpt lat="46.21897" lon="10.44032">
        <ele>1638.569</ele>
        <time>2018-08-11T20:28:15Z</time>
      </trkpt>
      <trkpt lat="46.21888" lon="10.44037">
        <ele>1639.623</ele>
        <time>2018-08-11T20:28:35Z</time>
      </trkpt>
      <trkpt lat="46.21881" lon="10.44041">
        <ele>1640.298</ele>
        <time>2018-08-11T20:28:55Z</time>
      </trkpt>
      <trkpt lat="46.21875" lon="10.44044">
        <ele>1641.019</ele>
        <time>2018-08-11T20:29:15Z</time>
      </trkpt>
      <trkpt lat="46.21865" lon="10.44057">
        <ele>1640.896</ele>
        <time>2018-08-11T20:29:35Z</time>
      </trkpt>
      <trkpt lat="46.21862" lon="10.44063">
        <ele>1641.599</ele>
        <time>2018-08-11T20:29:55Z</time>
      </trkpt>
      <trkpt lat="46.21855" lon="10.44069">
        <ele>1643.376</ele>
        <time>2018-08-11T20:30:15Z</time>
      </trkpt>
      <trkpt lat="46.21832" lon="10.44092">
        <ele>1648.69</ele>
        <time>2018-08-11T20:30:35Z</time>
      </trkpt>
      <trkpt lat="46.21826" lon="10.44098">
        <ele>1649.819</ele>
        <time>2018-08-11T20:30:55Z</time>
      </trkpt>
      <trkpt lat="46.21821" lon="10.44098">
        <ele>1650.908</ele>
        <time>2018-08-11T20:31:15Z</time>
      </trkpt>
      <trkpt lat="46.21805" lon="10.44095">
        <ele>1655.569</ele>
        <time>2018-08-11T20:31:35Z</time>
      </trkpt>
      <trkpt lat="46.21798" lon="10.44092">
        <ele>1657.614</ele>
        <time>2018-08-11T20:31:55Z</time>
      </trkpt>
      <trkpt lat="46.21789" lon="10.44093">
        <ele>1659.69</ele>
        <time>2018-08-11T20:32:15Z</time>
      </trkpt>
      <trkpt lat="46.21778" lon="10.44099">
        <ele>1661.664</ele>
        <time>2018-08-11T20:32:35Z</time>
      </trkpt>
      <trkpt lat="46.21762" lon="10.44101">
        <ele>1665.399</ele>
        <time>2018-08-11T20:32:55Z</time>
      </trkpt>
      <trkpt lat="46.2175" lon="10.44092">
        <ele>1669.18</ele>
        <time>2018-08-11T20:33:15Z</time>
      </trkpt>
      <trkpt lat="46.21739" lon="10.44089">
        <ele>1673.797</ele>
        <time>2018-08-11T20:33:35Z</time>
      </trkpt>
      <trkpt lat="46.21725" lon="10.44089">
        <ele>1679.42</ele>
        <time>2018-08-11T20:33:55Z</time>
      </trkpt>
      <trkpt lat="46.21718" lon="10.44089">
        <ele>1682.271</ele>
        <time>2018-08-11T20:34:15Z</time>
      </trkpt>
      <trkpt lat="46.2171" lon="10.44096">
        <ele>1683.741</ele>
        <time>2018-08-11T20:34:35Z</time>
      </trkpt>
      <trkpt lat="46.21705" lon="10.44104">
        <ele>1684.315</ele>
        <time>2018-08-11T20:34:55Z</time>
      </trkpt>
      <trkpt lat="46.217" lon="10.44109">
        <ele>1685.608</ele>
        <time>2018-08-11T20:35:15Z</time>
      </trkpt>
      <trkpt lat="46.21679" lon="10.44108">
        <ele>1691.169</ele>
        <time>2018-08-11T20:35:35Z</time>
      </trkpt>
      <trkpt lat="46.21669" lon="10.44104">
        <ele>1693.394</ele>
        <time>2018-08-11T20:35:55Z</time>
      </trkpt>
      <trkpt lat="46.21661" lon="10.44097">
        <ele>1696.16</ele>
        <time>2018-08-11T20:36:15Z</time>
      </trkpt>
      <trkpt lat="46.21648" lon="10.44088">
        <ele>1700.534</ele>
        <time>2018-08-11T20:36:35Z</time>
      </trkpt>
      <trkpt lat="46.21639" lon="10.44082">
        <ele>1704.349</ele>
        <time>2018-08-11T20:36:55Z</time>
      </trkpt>
      <trkpt lat="46.21632" lon="10.44069">
        <ele>1710.59</ele>
        <time>2018-08-11T20:37:15Z</time>
      </trkpt>
      <trkpt lat="46.21627" lon="10.44063">
        <ele>1713.467</ele>
        <time>2018-08-11T20:37:35Z</time>
      </trkpt>
      <trkpt lat="46.2162" lon="10.44053">
        <ele>1717.72</ele>
        <time>2018-08-11T20:37:55Z</time>
      </trkpt>
      <trkpt lat="46.21618" lon="10.44048">
        <ele>1719.763</ele>
        <time>2018-08-11T20:38:15Z</time>
      </trkpt>
      <trkpt lat="46.21615" lon="10.44038">
        <ele>1722.344</ele>
        <time>2018-08-11T20:38:35Z</time>
      </trkpt>
      <trkpt lat="46.21615" lon="10.44038">
        <ele>1722.318</ele>
        <time>2018-08-11T20:38:55Z</time>
      </trkpt>
      <trkpt lat="46.21611" lon="10.44026">
        <ele>1725.408</ele>
        <time>2018-08-11T20:39:15Z</time>
      </trkpt>
      <trkpt lat="46.21611" lon="10.44024">
        <ele>1725.958</ele>
        <time>2018-08-11T20:39:35Z</time>
      </trkpt>
      <trkpt lat="46.21606" lon="10.4402">
        <ele>1727.773</ele>
        <time>2018-08-11T20:39:55Z</time>
      </trkpt>
      <trkpt lat="46.21601" lon="10.44016">
        <ele>1729.369</ele>
        <time>2018-08-11T20:40:15Z</time>
      </trkpt>
      <trkpt lat="46.216" lon="10.4401">
        <ele>1731.293</ele>
        <time>2018-08-11T20:40:35Z</time>
      </trkpt>
      <trkpt lat="46.21603" lon="10.43999">
        <ele>1733.538</ele>
        <time>2018-08-11T20:40:55Z</time>
      </trkpt>
      <trkpt lat="46.21604" lon="10.43997">
        <ele>1733.729</ele>
        <time>2018-08-11T20:41:15Z</time>
      </trkpt>
      <trkpt lat="46.21613" lon="10.43992">
        <ele>1733.876</ele>
        <time>2018-08-11T20:41:35Z</time>
      </trkpt>
      <trkpt lat="46.21618" lon="10.4399">
        <ele>1733.729</ele>
        <time>2018-08-11T20:41:55Z</time>
      </trkpt>
      <trkpt lat="46.21619" lon="10.4399">
        <ele>1733.525</ele>
        <time>2018-08-11T20:42:15Z</time>
      </trkpt>
      <trkpt lat="46.21631" lon="10.43992">
        <ele>1731.426</ele>
        <time>2018-08-11T20:42:35Z</time>
      </trkpt>
      <trkpt lat="46.21639" lon="10.43978">
        <ele>1734.108</ele>
        <time>2018-08-11T20:42:55Z</time>
      </trkpt>
      <trkpt lat="46.21643" lon="10.43969">
        <ele>1736.108</ele>
        <time>2018-08-11T20:43:15Z</time>
      </trkpt>
      <trkpt lat="46.21634" lon="10.43962">
        <ele>1739.024</ele>
        <time>2018-08-11T20:43:35Z</time>
      </trkpt>
      <trkpt lat="46.21634" lon="10.43954">
        <ele>1741.259</ele>
        <time>2018-08-11T20:43:55Z</time>
      </trkpt>
      <trkpt lat="46.21643" lon="10.43931">
        <ele>1746.265</ele>
        <time>2018-08-11T20:44:15Z</time>
      </trkpt>
      <trkpt lat="46.21644" lon="10.43925">
        <ele>1747.899</ele>
        <time>2018-08-11T20:44:35Z</time>
      </trkpt>
      <trkpt lat="46.21635" lon="10.43919">
        <ele>1749.974</ele>
        <time>2018-08-11T20:44:55Z</time>
      </trkpt>
      <trkpt lat="46.21631" lon="10.43915">
        <ele>1751.455</ele>
        <time>2018-08-11T20:45:15Z</time>
      </trkpt>
      <trkpt lat="46.2163" lon="10.43912">
        <ele>1752.522</ele>
        <time>2018-08-11T20:45:35Z</time>
      </trkpt>
      <trkpt lat="46.21638" lon="10.43903">
        <ele>1755.125</ele>
        <time>2018-08-11T20:45:55Z</time>
      </trkpt>
      <trkpt lat="46.2163" lon="10.43893">
        <ele>1758.516</ele>
        <time>2018-08-11T20:46:15Z</time>
      </trkpt>
      <trkpt lat="46.21638" lon="10.43882">
        <ele>1762.376</ele>
        <time>2018-08-11T20:46:35Z</time>
      </trkpt>
      <trkpt lat="46.21645" lon="10.43882">
        <ele>1763.313</ele>
        <time>2018-08-11T20:46:55Z</time>
      </trkpt>
      <trkpt lat="46.21653" lon="10.43882">
        <ele>1764.208</ele>
        <time>2018-08-11T20:47:15Z</time>
      </trkpt>
      <trkpt lat="46.21666" lon="10.43889">
        <ele>1762.663</ele>
        <time>2018-08-11T20:47:35Z</time>
      </trkpt>
      <trkpt lat="46.21675" lon="10.43889">
        <ele>1761.858</ele>
        <time>2018-08-11T20:47:55Z</time>
      </trkpt>
      <trkpt lat="46.21673" lon="10.43883">
        <ele>1764.654</ele>
        <time>2018-08-11T20:48:15Z</time>
      </trkpt>
      <trkpt lat="46.21667" lon="10.43875">
        <ele>1769.018</ele>
        <time>2018-08-11T20:48:35Z</time>
      </trkpt>
      <trkpt lat="46.2168" lon="10.43876">
        <ele>1766.953</ele>
        <time>2018-08-11T20:48:55Z</time>
      </trkpt>
      <trkpt lat="46.21677" lon="10.43866">
        <ele>1772.294</ele>
        <time>2018-08-11T20:49:15Z</time>
      </trkpt>
      <trkpt lat="46.21681" lon="10.43862">
        <ele>1773.721</ele>
        <time>2018-08-11T20:49:35Z</time>
      </trkpt>
      <trkpt lat="46.21676" lon="10.4385">
        <ele>1779.144</ele>
        <time>2018-08-11T20:49:55Z</time>
      </trkpt>
      <trkpt lat="46.21685" lon="10.43835">
        <ele>1785.064</ele>
        <time>2018-08-11T20:50:15Z</time>
      </trkpt>
      <trkpt lat="46.21695" lon="10.43817">
        <ele>1792.406</ele>
        <time>2018-08-11T20:50:35Z</time>
      </trkpt>
      <trkpt lat="46.21713" lon="10.43781">
        <ele>1807.116</ele>
        <time>2018-08-11T20:50:55Z</time>
      </trkpt>
      <trkpt lat="46.21719" lon="10.43772">
        <ele>1810.908</ele>
        <time>2018-08-11T20:51:15Z</time>
      </trkpt>
      <trkpt lat="46.21728" lon="10.43773">
        <ele>1808.618</ele>
        <time>2018-08-11T20:51:35Z</time>
      </trkpt>
      <trkpt lat="46.21737" lon="10.43772">
        <ele>1806.453</ele>
        <time>2018-08-11T20:51:55Z</time>
      </trkpt>
      <trkpt lat="46.21743" lon="10.43768">
        <ele>1806.899</ele>
        <time>2018-08-11T20:52:15Z</time>
      </trkpt>
      <trkpt lat="46.21744" lon="10.43765">
        <ele>1807.763</ele>
        <time>2018-08-11T20:52:35Z</time>
      </trkpt>
      <trkpt lat="46.2175" lon="10.4375">
        <ele>1813.848</ele>
        <time>2018-08-11T20:52:55Z</time>
      </trkpt>
      <trkpt lat="46.21758" lon="10.43754">
        <ele>1807.929</ele>
        <time>2018-08-11T20:53:15Z</time>
      </trkpt>
      <trkpt lat="46.21764" lon="10.43748">
        <ele>1807.886</ele>
        <time>2018-08-11T20:53:35Z</time>
      </trkpt>
      <trkpt lat="46.21766" lon="10.43734">
        <ele>1814.539</ele>
        <time>2018-08-11T20:53:55Z</time>
      </trkpt>
      <trkpt lat="46.21771" lon="10.4372">
        <ele>1819.613</ele>
        <time>2018-08-11T20:54:15Z</time>
      </trkpt>
      <trkpt lat="46.21777" lon="10.43712">
        <ele>1821.543</ele>
        <time>2018-08-11T20:54:35Z</time>
      </trkpt>
      <trkpt lat="46.21787" lon="10.43702">
        <ele>1824.107</ele>
        <time>2018-08-11T20:54:55Z</time>
      </trkpt>
      <trkpt lat="46.218" lon="10.43694">
        <ele>1826.108</ele>
        <time>2018-08-11T20:55:15Z</time>
      </trkpt>
      <trkpt lat="46.21788" lon="10.43669">
        <ele>1839.213</ele>
        <time>2018-08-11T20:55:35Z</time>
      </trkpt>
      <trkpt lat="46.21836" lon="10.43606">
        <ele>1849.388</ele>
        <time>2018-08-11T20:55:55Z</time>
      </trkpt>
      <trkpt lat="46.21851" lon="10.43577">
        <ele>1857.764</ele>
        <time>2018-08-11T20:56:15Z</time>
      </trkpt>
      <trkpt lat="46.21851" lon="10.43577">
        <ele>1857.588</ele>
        <time>2018-08-11T20:56:35Z</time>
      </trkpt>
      <trkpt lat="46.21874" lon="10.43575">
        <ele>1851.473</ele>
        <time>2018-08-11T20:56:55Z</time>
      </trkpt>
      <trkpt lat="46.21886" lon="10.43566">
        <ele>1853.614</ele>
        <time>2018-08-11T20:57:15Z</time>
      </trkpt>
      <trkpt lat="46.21899" lon="10.43564">
        <ele>1851.571</ele>
        <time>2018-08-11T20:57:35Z</time>
      </trkpt>
      <trkpt lat="46.21913" lon="10.43549">
        <ele>1857.124</ele>
        <time>2018-08-11T20:57:55Z</time>
      </trkpt>
      <trkpt lat="46.21931" lon="10.43528">
        <ele>1860.798</ele>
        <time>2018-08-11T20:58:15Z</time>
      </trkpt>
      <trkpt lat="46.21934" lon="10.43525">
        <ele>1860.715</ele>
        <time>2018-08-11T20:58:35Z</time>
      </trkpt>
      <trkpt lat="46.21951" lon="10.43526">
        <ele>1852.926</ele>
        <time>2018-08-11T20:58:55Z</time>
      </trkpt>
      <trkpt lat="46.21962" lon="10.43512">
        <ele>1854.408</ele>
        <time>2018-08-11T20:59:15Z</time>
      </trkpt>
      <trkpt lat="46.21979" lon="10.43487">
        <ele>1862.511</ele>
        <time>2018-08-11T20:59:35Z</time>
      </trkpt>
      <trkpt lat="46.21987" lon="10.43469">
        <ele>1871.196</ele>
        <time>2018-08-11T20:59:55Z</time>
      </trkpt>
      <trkpt lat="46.21973" lon="10.43462">
        <ele>1877.662</ele>
        <time>2018-08-11T21:00:15Z</time>
      </trkpt>
      <trkpt lat="46.21973" lon="10.43447">
        <ele>1885.556</ele>
        <time>2018-08-11T21:00:35Z</time>
      </trkpt>
      <trkpt lat="46.21976" lon="10.43439">
        <ele>1889.041</ele>
        <time>2018-08-11T21:00:55Z</time>
      </trkpt>
      <trkpt lat="46.21988" lon="10.43435">
        <ele>1890.022</ele>
        <time>2018-08-11T21:01:15Z</time>
      </trkpt>
      <trkpt lat="46.21995" lon="10.43427">
        <ele>1893.489</ele>
        <time>2018-08-11T21:01:35Z</time>
      </trkpt>
      <trkpt lat="46.22004" lon="10.43411">
        <ele>1899.652</ele>
        <time>2018-08-11T21:01:55Z</time>
      </trkpt>
      <trkpt lat="46.22009" lon="10.43405">
        <ele>1901.288</ele>
        <time>2018-08-11T21:02:15Z</time>
      </trkpt>
      <trkpt lat="46.22004" lon="10.43395">
        <ele>1907.824</ele>
        <time>2018-08-11T21:02:35Z</time>
      </trkpt>
      <trkpt lat="46.22004" lon="10.43392">
        <ele>1909.526</ele>
        <time>2018-08-11T21:02:55Z</time>
      </trkpt>
      <trkpt lat="46.22003" lon="10.43385">
        <ele>1913.108</ele>
        <time>2018-08-11T21:03:15Z</time>
      </trkpt>
      <trkpt lat="46.22002" lon="10.4338">
        <ele>1915.54</ele>
        <time>2018-08-11T21:03:35Z</time>
      </trkpt>
      <trkpt lat="46.22001" lon="10.43378">
        <ele>1917.035</ele>
        <time>2018-08-11T21:03:55Z</time>
      </trkpt>
      <trkpt lat="46.21996" lon="10.43374">
        <ele>1919.131</ele>
        <time>2018-08-11T21:04:15Z</time>
      </trkpt>
      <trkpt lat="46.21998" lon="10.43365">
        <ele>1923.535</ele>
        <time>2018-08-11T21:04:35Z</time>
      </trkpt>
      <trkpt lat="46.21993" lon="10.43355">
        <ele>1929.37</ele>
        <time>2018-08-11T21:04:55Z</time>
      </trkpt>
      <trkpt lat="46.21989" lon="10.43351">
        <ele>1932.511</ele>
        <time>2018-08-11T21:05:15Z</time>
      </trkpt>
      <trkpt lat="46.21988" lon="10.43342">
        <ele>1937.268</ele>
        <time>2018-08-11T21:05:35Z</time>
      </trkpt>
      <trkpt lat="46.21989" lon="10.43338">
        <ele>1939.321</ele>
        <time>2018-08-11T21:05:55Z</time>
      </trkpt>
      <trkpt lat="46.21994" lon="10.4332">
        <ele>1948.294</ele>
        <time>2018-08-11T21:06:15Z</time>
      </trkpt>
      <trkpt lat="46.21993" lon="10.43313">
        <ele>1952.057</ele>
        <time>2018-08-11T21:06:35Z</time>
      </trkpt>
      <trkpt lat="46.22017" lon="10.43293">
        <ele>1959.722</ele>
        <time>2018-08-11T21:06:55Z</time>
      </trkpt>
      <trkpt lat="46.22032" lon="10.43293">
        <ele>1958.008</ele>
        <time>2018-08-11T21:07:15Z</time>
      </trkpt>
      <trkpt lat="46.22018" lon="10.4326">
        <ele>1974.231</ele>
        <time>2018-08-11T21:07:35Z</time>
      </trkpt>
      <trkpt lat="46.22038" lon="10.4324">
        <ele>1979.996</ele>
        <time>2018-08-11T21:07:55Z</time>
      </trkpt>
      <trkpt lat="46.2204" lon="10.43226">
        <ele>1983.912</ele>
        <time>2018-08-11T21:08:15Z</time>
      </trkpt>
      <trkpt lat="46.2203" lon="10.43204">
        <ele>1990.536</ele>
        <time>2018-08-11T21:08:35Z</time>
      </trkpt>
      <trkpt lat="46.22031" lon="10.43188">
        <ele>1994.641</ele>
        <time>2018-08-11T21:08:55Z</time>
      </trkpt>
      <trkpt lat="46.22034" lon="10.43182">
        <ele>1996.022</ele>
        <time>2018-08-11T21:09:15Z</time>
      </trkpt>
      <trkpt lat="46.22039" lon="10.43171">
        <ele>1998.859</ele>
        <time>2018-08-11T21:09:35Z</time>
      </trkpt>
      <trkpt lat="46.2205" lon="10.43162">
        <ele>2001.032</ele>
        <time>2018-08-11T21:09:55Z</time>
      </trkpt>
      <trkpt lat="46.22052" lon="10.43158">
        <ele>2001.675</ele>
        <time>2018-08-11T21:10:15Z</time>
      </trkpt>
      <trkpt lat="46.22054" lon="10.43151">
        <ele>2002.928</ele>
        <time>2018-08-11T21:10:35Z</time>
      </trkpt>
      <trkpt lat="46.22054" lon="10.4315">
        <ele>2003.12</ele>
        <time>2018-08-11T21:10:55Z</time>
      </trkpt>
      <trkpt lat="46.22055" lon="10.43148">
        <ele>2003.508</ele>
        <time>2018-08-11T21:11:15Z</time>
      </trkpt>
      <trkpt lat="46.22055" lon="10.4314">
        <ele>2004.949</ele>
        <time>2018-08-11T21:11:35Z</time>
      </trkpt>
      <trkpt lat="46.22067" lon="10.43107">
        <ele>2009.374</ele>
        <time>2018-08-11T21:11:55Z</time>
      </trkpt>
      <trkpt lat="46.22073" lon="10.43092">
        <ele>2010.54</ele>
        <time>2018-08-11T21:12:15Z</time>
      </trkpt>
      <trkpt lat="46.22075" lon="10.43083">
        <ele>2011.134</ele>
        <time>2018-08-11T21:12:35Z</time>
      </trkpt>
      <trkpt lat="46.22079" lon="10.43073">
        <ele>2011.859</ele>
        <time>2018-08-11T21:12:55Z</time>
      </trkpt>
      <trkpt lat="46.22086" lon="10.43052">
        <ele>2012.13</ele>
        <time>2018-08-11T21:13:15Z</time>
      </trkpt>
      <trkpt lat="46.22088" lon="10.43035">
        <ele>2010.967</ele>
        <time>2018-08-11T21:13:35Z</time>
      </trkpt>
      <trkpt lat="46.22089" lon="10.43016">
        <ele>2008.93</ele>
        <time>2018-08-11T21:13:55Z</time>
      </trkpt>
      <trkpt lat="46.22085" lon="10.42999">
        <ele>2007.327</ele>
        <time>2018-08-11T21:14:15Z</time>
      </trkpt>
      <trkpt lat="46.22075" lon="10.42961">
        <ele>2005.668</ele>
        <time>2018-08-11T21:14:35Z</time>
      </trkpt>
      <trkpt lat="46.22063" lon="10.42926">
        <ele>2006.014</ele>
        <time>2018-08-11T21:14:55Z</time>
      </trkpt>
      <trkpt lat="46.22059" lon="10.42907">
        <ele>2007.008</ele>
        <time>2018-08-11T21:15:15Z</time>
      </trkpt>
      <trkpt lat="46.22054" lon="10.42887">
        <ele>2009.894</ele>
        <time>2018-08-11T21:15:35Z</time>
      </trkpt>
      <trkpt lat="46.22053" lon="10.42863">
        <ele>2011.189</ele>
        <time>2018-08-11T21:15:55Z</time>
      </trkpt>
      <trkpt lat="46.22052" lon="10.42846">
        <ele>2011.985</ele>
        <time>2018-08-11T21:16:15Z</time>
      </trkpt>
      <trkpt lat="46.22044" lon="10.42826">
        <ele>2018.439</ele>
        <time>2018-08-11T21:16:35Z</time>
      </trkpt>
      <trkpt lat="46.2204" lon="10.42801">
        <ele>2025.864</ele>
        <time>2018-08-11T21:16:55Z</time>
      </trkpt>
      <trkpt lat="46.22036" lon="10.42784">
        <ele>2030.625</ele>
        <time>2018-08-11T21:17:15Z</time>
      </trkpt>
      <trkpt lat="46.22038" lon="10.42758">
        <ele>2033.242</ele>
        <time>2018-08-11T21:17:35Z</time>
      </trkpt>
      <trkpt lat="46.22038" lon="10.42741">
        <ele>2035.735</ele>
        <time>2018-08-11T21:17:55Z</time>
      </trkpt>
      <trkpt lat="46.22034" lon="10.42723">
        <ele>2039.993</ele>
        <time>2018-08-11T21:18:15Z</time>
      </trkpt>
      <trkpt lat="46.22029" lon="10.42697">
        <ele>2045.965</ele>
        <time>2018-08-11T21:18:35Z</time>
      </trkpt>
      <trkpt lat="46.22037" lon="10.42655">
        <ele>2046.721</ele>
        <time>2018-08-11T21:18:55Z</time>
      </trkpt>
      <trkpt lat="46.22048" lon="10.4263">
        <ele>2043.708</ele>
        <time>2018-08-11T21:19:15Z</time>
      </trkpt>
      <trkpt lat="46.2205" lon="10.42627">
        <ele>2043.531</ele>
        <time>2018-08-11T21:19:35Z</time>
      </trkpt>
      <trkpt lat="46.22064" lon="10.4259">
        <ele>2039.336</ele>
        <time>2018-08-11T21:19:55Z</time>
      </trkpt>
      <trkpt lat="46.22063" lon="10.42567">
        <ele>2042.562</ele>
        <time>2018-08-11T21:20:15Z</time>
      </trkpt>
      <trkpt lat="46.22061" lon="10.42552">
        <ele>2045.366</ele>
        <time>2018-08-11T21:20:35Z</time>
      </trkpt>
      <trkpt lat="46.22057" lon="10.42539">
        <ele>2048.411</ele>
        <time>2018-08-11T21:20:55Z</time>
      </trkpt>
      <trkpt lat="46.22052" lon="10.42528">
        <ele>2050.482</ele>
        <time>2018-08-11T21:21:15Z</time>
      </trkpt>
      <trkpt lat="46.22048" lon="10.42524">
        <ele>2050.489</ele>
        <time>2018-08-11T21:21:35Z</time>
      </trkpt>
      <trkpt lat="46.22046" lon="10.42521">
        <ele>2050.132</ele>
        <time>2018-08-11T21:21:55Z</time>
      </trkpt>
      <trkpt lat="46.22042" lon="10.42519">
        <ele>2050.457</ele>
        <time>2018-08-11T21:22:15Z</time>
      </trkpt>
      <trkpt lat="46.22038" lon="10.42526">
        <ele>2052.2</ele>
        <time>2018-08-11T21:22:35Z</time>
      </trkpt>
      <trkpt lat="46.22036" lon="10.42538">
        <ele>2053.92</ele>
        <time>2018-08-11T21:22:55Z</time>
      </trkpt>
      <trkpt lat="46.22033" lon="10.42546">
        <ele>2055.708</ele>
        <time>2018-08-11T21:23:15Z</time>
      </trkpt>
      <trkpt lat="46.2203" lon="10.42548">
        <ele>2057.087</ele>
        <time>2018-08-11T21:23:35Z</time>
      </trkpt>
      <trkpt lat="46.22027" lon="10.42548">
        <ele>2058.052</ele>
        <time>2018-08-11T21:23:55Z</time>
      </trkpt>
      <trkpt lat="46.22022" lon="10.42548">
        <ele>2059.848</ele>
        <time>2018-08-11T21:24:15Z</time>
      </trkpt>
      <trkpt lat="46.22018" lon="10.42553">
        <ele>2062.372</ele>
        <time>2018-08-11T21:24:35Z</time>
      </trkpt>
      <trkpt lat="46.22018" lon="10.42553">
        <ele>2062.477</ele>
        <time>2018-08-11T21:24:55Z</time>
      </trkpt>
      <trkpt lat="46.22005" lon="10.42557">
        <ele>2068.558</ele>
        <time>2018-08-11T21:25:15Z</time>
      </trkpt>
      <trkpt lat="46.21994" lon="10.42566">
        <ele>2072.825</ele>
        <time>2018-08-11T21:25:35Z</time>
      </trkpt>
      <trkpt lat="46.21988" lon="10.42571">
        <ele>2074.968</ele>
        <time>2018-08-11T21:25:55Z</time>
      </trkpt>
      <trkpt lat="46.2198" lon="10.42581">
        <ele>2078.113</ele>
        <time>2018-08-11T21:26:15Z</time>
      </trkpt>
      <trkpt lat="46.21974" lon="10.42585">
        <ele>2079.943</ele>
        <time>2018-08-11T21:26:35Z</time>
      </trkpt>
      <trkpt lat="46.21969" lon="10.42594">
        <ele>2082.907</ele>
        <time>2018-08-11T21:26:55Z</time>
      </trkpt>
      <trkpt lat="46.21961" lon="10.42611">
        <ele>2089.508</ele>
        <time>2018-08-11T21:27:15Z</time>
      </trkpt>
      <trkpt lat="46.21956" lon="10.42617">
        <ele>2092.133</ele>
        <time>2018-08-11T21:27:35Z</time>
      </trkpt>
      <trkpt lat="46.2195" lon="10.42622">
        <ele>2095.428</ele>
        <time>2018-08-11T21:27:55Z</time>
      </trkpt>
      <trkpt lat="46.21944" lon="10.4263">
        <ele>2098.794</ele>
        <time>2018-08-11T21:28:15Z</time>
      </trkpt>
      <trkpt lat="46.21936" lon="10.42628">
        <ele>2099.288</ele>
        <time>2018-08-11T21:28:35Z</time>
      </trkpt>
      <trkpt lat="46.21932" lon="10.42629">
        <ele>2099.743</ele>
        <time>2018-08-11T21:28:55Z</time>
      </trkpt>
      <trkpt lat="46.21927" lon="10.42634">
        <ele>2100.714</ele>
        <time>2018-08-11T21:29:15Z</time>
      </trkpt>
      <trkpt lat="46.2192" lon="10.42638">
        <ele>2101.611</ele>
        <time>2018-08-11T21:29:35Z</time>
      </trkpt>
      <trkpt lat="46.21914" lon="10.42644">
        <ele>2102.474</ele>
        <time>2018-08-11T21:29:55Z</time>
      </trkpt>
      <trkpt lat="46.21914" lon="10.42649">
        <ele>2102.984</ele>
        <time>2018-08-11T21:30:15Z</time>
      </trkpt>
      <trkpt lat="46.21919" lon="10.42655">
        <ele>2102.907</ele>
        <time>2018-08-11T21:30:35Z</time>
      </trkpt>
      <trkpt lat="46.21923" lon="10.42663">
        <ele>2102.817</ele>
        <time>2018-08-11T21:30:55Z</time>
      </trkpt>
      <trkpt lat="46.21925" lon="10.42671">
        <ele>2103.008</ele>
        <time>2018-08-11T21:31:15Z</time>
      </trkpt>
      <trkpt lat="46.21924" lon="10.42678">
        <ele>2103.57</ele>
        <time>2018-08-11T21:31:35Z</time>
      </trkpt>
      <trkpt lat="46.21923" lon="10.42689">
        <ele>2104.325</ele>
        <time>2018-08-11T21:31:55Z</time>
      </trkpt>
      <trkpt lat="46.21919" lon="10.42702">
        <ele>2105.821</ele>
        <time>2018-08-11T21:32:15Z</time>
      </trkpt>
      <trkpt lat="46.21918" lon="10.42709">
        <ele>2106.645</ele>
        <time>2018-08-11T21:32:35Z</time>
      </trkpt>
      <trkpt lat="46.21917" lon="10.42719">
        <ele>2107.82</ele>
        <time>2018-08-11T21:32:55Z</time>
      </trkpt>
      <trkpt lat="46.21913" lon="10.4273">
        <ele>2109.851</ele>
        <time>2018-08-11T21:33:15Z</time>
      </trkpt>
      <trkpt lat="46.2191" lon="10.42736">
        <ele>2111.588</ele>
        <time>2018-08-11T21:33:35Z</time>
      </trkpt>
      <trkpt lat="46.21905" lon="10.42746">
        <ele>2114.561</ele>
        <time>2018-08-11T21:33:55Z</time>
      </trkpt>
      <trkpt lat="46.21901" lon="10.42754">
        <ele>2117.029</ele>
        <time>2018-08-11T21:34:15Z</time>
      </trkpt>
      <trkpt lat="46.21897" lon="10.42762">
        <ele>2119.7</ele>
        <time>2018-08-11T21:34:35Z</time>
      </trkpt>
      <trkpt lat="46.21894" lon="10.42771">
        <ele>2122.02</ele>
        <time>2018-08-11T21:34:55Z</time>
      </trkpt>
      <trkpt lat="46.2189" lon="10.42776">
        <ele>2124.008</ele>
        <time>2018-08-11T21:35:15Z</time>
      </trkpt>
      <trkpt lat="46.21883" lon="10.4278">
        <ele>2125.414</ele>
        <time>2018-08-11T21:35:35Z</time>
      </trkpt>
      <trkpt lat="46.21877" lon="10.42784">
        <ele>2126.099</ele>
        <time>2018-08-11T21:35:55Z</time>
      </trkpt>
      <trkpt lat="46.21875" lon="10.42791">
        <ele>2126.575</ele>
        <time>2018-08-11T21:36:15Z</time>
      </trkpt>
      <trkpt lat="46.21867" lon="10.42797">
        <ele>2127.649</ele>
        <time>2018-08-11T21:36:35Z</time>
      </trkpt>
      <trkpt lat="46.21861" lon="10.42807">
        <ele>2129.054</ele>
        <time>2018-08-11T21:36:55Z</time>
      </trkpt>
      <trkpt lat="46.21857" lon="10.42814">
        <ele>2130.335</ele>
        <time>2018-08-11T21:37:15Z</time>
      </trkpt>
      <trkpt lat="46.21848" lon="10.42819">
        <ele>2132.832</ele>
        <time>2018-08-11T21:37:35Z</time>
      </trkpt>
      <trkpt lat="46.21842" lon="10.42819">
        <ele>2134.395</ele>
        <time>2018-08-11T21:37:55Z</time>
      </trkpt>
      <trkpt lat="46.21831" lon="10.42819">
        <ele>2136.793</ele>
        <time>2018-08-11T21:38:15Z</time>
      </trkpt>
      <trkpt lat="46.21818" lon="10.42811">
        <ele>2136.365</ele>
        <time>2018-08-11T21:38:35Z</time>
      </trkpt>
      <trkpt lat="46.21813" lon="10.42802">
        <ele>2134.621</ele>
        <time>2018-08-11T21:38:55Z</time>
      </trkpt>
      <trkpt lat="46.21812" lon="10.42801">
        <ele>2134.408</ele>
        <time>2018-08-11T21:39:15Z</time>
      </trkpt>
      <trkpt lat="46.21802" lon="10.42791">
        <ele>2132.141</ele>
        <time>2018-08-11T21:39:35Z</time>
      </trkpt>
      <trkpt lat="46.2179" lon="10.42782">
        <ele>2129.496</ele>
        <time>2018-08-11T21:39:55Z</time>
      </trkpt>
      <trkpt lat="46.21778" lon="10.42772">
        <ele>2125.842</ele>
        <time>2018-08-11T21:40:15Z</time>
      </trkpt>
      <trkpt lat="46.21789" lon="10.42771">
        <ele>2125.936</ele>
        <time>2018-08-11T21:40:35Z</time>
      </trkpt>
      <trkpt lat="46.2182" lon="10.42767">
        <ele>2126.241</ele>
        <time>2018-08-11T21:40:55Z</time>
      </trkpt>
      <trkpt lat="46.21832" lon="10.4276">
        <ele>2125.152</ele>
        <time>2018-08-11T21:41:15Z</time>
      </trkpt>
      <trkpt lat="46.21845" lon="10.42744">
        <ele>2122.239</ele>
        <time>2018-08-11T21:41:35Z</time>
      </trkpt>
      <trkpt lat="46.21853" lon="10.42723">
        <ele>2116.952</ele>
        <time>2018-08-11T21:41:55Z</time>
      </trkpt>
      <trkpt lat="46.2186" lon="10.42709">
        <ele>2114.434</ele>
        <time>2018-08-11T21:42:15Z</time>
      </trkpt>
      <trkpt lat="46.21876" lon="10.42659">
        <ele>2104.455</ele>
        <time>2018-08-11T21:42:35Z</time>
      </trkpt>
      <trkpt lat="46.21879" lon="10.42649">
        <ele>2102.61</ele>
        <time>2018-08-11T21:42:55Z</time>
      </trkpt>
      <trkpt lat="46.21891" lon="10.42611">
        <ele>2097.908</ele>
        <time>2018-08-11T21:43:15Z</time>
      </trkpt>
      <trkpt lat="46.21895" lon="10.42603">
        <ele>2095.945</ele>
        <time>2018-08-11T21:43:35Z</time>
      </trkpt>
      <trkpt lat="46.21895" lon="10.42603">
        <ele>2095.76</ele>
        <time>2018-08-11T21:43:55Z</time>
      </trkpt>
      <trkpt lat="46.21895" lon="10.42598">
        <ele>2094.116</ele>
        <time>2018-08-11T21:44:15Z</time>
      </trkpt>
      <trkpt lat="46.21889" lon="10.42593">
        <ele>2092.16</ele>
        <time>2018-08-11T21:44:35Z</time>
      </trkpt>
      <trkpt lat="46.2187" lon="10.42602">
        <ele>2089.195</ele>
        <time>2018-08-11T21:44:55Z</time>
      </trkpt>
      <trkpt lat="46.21848" lon="10.42601">
        <ele>2082.436</ele>
        <time>2018-08-11T21:45:15Z</time>
      </trkpt>
      <trkpt lat="46.21826" lon="10.4261">
        <ele>2078.423</ele>
        <time>2018-08-11T21:45:35Z</time>
      </trkpt>
      <trkpt lat="46.21817" lon="10.42615">
        <ele>2077.456</ele>
        <time>2018-08-11T21:45:55Z</time>
      </trkpt>
      <trkpt lat="46.21805" lon="10.42628">
        <ele>2078.376</ele>
        <time>2018-08-11T21:46:15Z</time>
      </trkpt>
      <trkpt lat="46.21796" lon="10.42626">
        <ele>2076.19</ele>
        <time>2018-08-11T21:46:35Z</time>
      </trkpt>
      <trkpt lat="46.21795" lon="10.4261">
        <ele>2070.719</ele>
        <time>2018-08-11T21:46:55Z</time>
      </trkpt>
      <trkpt lat="46.21805" lon="10.42582">
        <ele>2065.508</ele>
        <time>2018-08-11T21:47:15Z</time>
      </trkpt>
      <trkpt lat="46.21811" lon="10.42564">
        <ele>2061.799</ele>
        <time>2018-08-11T21:47:35Z</time>
      </trkpt>
      <trkpt lat="46.21825" lon="10.42533">
        <ele>2056.664</ele>
        <time>2018-08-11T21:47:55Z</time>
      </trkpt>
      <trkpt lat="46.21835" lon="10.42519">
        <ele>2055.07</ele>
        <time>2018-08-11T21:48:15Z</time>
      </trkpt>
      <trkpt lat="46.21839" lon="10.42517">
        <ele>2055.244</ele>
        <time>2018-08-11T21:48:35Z</time>
      </trkpt>
      <trkpt lat="46.21848" lon="10.4251">
        <ele>2054.699</ele>
        <time>2018-08-11T21:48:55Z</time>
      </trkpt>
      <trkpt lat="46.2186" lon="10.42509">
        <ele>2055.82</ele>
        <time>2018-08-11T21:49:15Z</time>
      </trkpt>
      <trkpt lat="46.21868" lon="10.42506">
        <ele>2056.187</ele>
        <time>2018-08-11T21:49:35Z</time>
      </trkpt>
      <trkpt lat="46.21872" lon="10.42503">
        <ele>2055.95</ele>
        <time>2018-08-11T21:49:55Z</time>
      </trkpt>
      <trkpt lat="46.21879" lon="10.425">
        <ele>2055.492</ele>
        <time>2018-08-11T21:50:15Z</time>
      </trkpt>
      <trkpt lat="46.21882" lon="10.42498">
        <ele>2055.273</ele>
        <time>2018-08-11T21:50:35Z</time>
      </trkpt>
      <trkpt lat="46.21903" lon="10.42474">
        <ele>2048.62</ele>
        <time>2018-08-11T21:50:55Z</time>
      </trkpt>
      <trkpt lat="46.21908" lon="10.42468">
        <ele>2047.208</ele>
        <time>2018-08-11T21:51:15Z</time>
      </trkpt>
      <trkpt lat="46.21912" lon="10.42466">
        <ele>2046.791</ele>
        <time>2018-08-11T21:51:35Z</time>
      </trkpt>
      <trkpt lat="46.21916" lon="10.42468">
        <ele>2048.226</ele>
        <time>2018-08-11T21:51:55Z</time>
      </trkpt>
      <trkpt lat="46.21936" lon="10.42488">
        <ele>2052.932</ele>
        <time>2018-08-11T21:52:15Z</time>
      </trkpt>
      <trkpt lat="46.21953" lon="10.42499">
        <ele>2055.516</ele>
        <time>2018-08-11T21:52:35Z</time>
      </trkpt>
      <trkpt lat="46.21955" lon="10.42498">
        <ele>2055.011</ele>
        <time>2018-08-11T21:52:55Z</time>
      </trkpt>
      <trkpt lat="46.21965" lon="10.42496">
        <ele>2052.552</ele>
        <time>2018-08-11T21:53:15Z</time>
      </trkpt>
      <trkpt lat="46.2197" lon="10.42497">
        <ele>2052.759</ele>
        <time>2018-08-11T21:53:35Z</time>
      </trkpt>
      <trkpt lat="46.21986" lon="10.42502">
        <ele>2052.742</ele>
        <time>2018-08-11T21:53:55Z</time>
      </trkpt>
      <trkpt lat="46.22" lon="10.42501">
        <ele>2050.535</ele>
        <time>2018-08-11T21:54:15Z</time>
      </trkpt>
      <trkpt lat="46.22015" lon="10.42498">
        <ele>2049.186</ele>
        <time>2018-08-11T21:54:35Z</time>
      </trkpt>
      <trkpt lat="46.22016" lon="10.42498">
        <ele>2048.814</ele>
        <time>2018-08-11T21:54:55Z</time>
      </trkpt>
      <trkpt lat="46.22026" lon="10.42485">
        <ele>2042.408</ele>
        <time>2018-08-11T21:55:15Z</time>
      </trkpt>
      <trkpt lat="46.22026" lon="10.42487">
        <ele>2043.255</ele>
        <time>2018-08-11T21:55:35Z</time>
      </trkpt>
      <trkpt lat="46.22029" lon="10.42481">
        <ele>2040.32</ele>
        <time>2018-08-11T21:55:55Z</time>
      </trkpt>
      <trkpt lat="46.22037" lon="10.42474">
        <ele>2036.276</ele>
        <time>2018-08-11T21:56:15Z</time>
      </trkpt>
      <trkpt lat="46.22042" lon="10.42473">
        <ele>2035.34</ele>
        <time>2018-08-11T21:56:35Z</time>
      </trkpt>
      <trkpt lat="46.22044" lon="10.42474">
        <ele>2035.415</ele>
        <time>2018-08-11T21:56:55Z</time>
      </trkpt>
      <trkpt lat="46.22055" lon="10.42476">
        <ele>2035.496</ele>
        <time>2018-08-11T21:57:15Z</time>
      </trkpt>
      <trkpt lat="46.22049" lon="10.42465">
        <ele>2031.383</ele>
        <time>2018-08-11T21:57:35Z</time>
      </trkpt>
      <trkpt lat="46.22054" lon="10.42464">
        <ele>2030.626</ele>
        <time>2018-08-11T21:57:55Z</time>
      </trkpt>
      <trkpt lat="46.22065" lon="10.42463">
        <ele>2027.586</ele>
        <time>2018-08-11T21:58:15Z</time>
      </trkpt>
      <trkpt lat="46.22062" lon="10.42442">
        <ele>2020.06</ele>
        <time>2018-08-11T21:58:35Z</time>
      </trkpt>
      <trkpt lat="46.22075" lon="10.42453">
        <ele>2021.626</ele>
        <time>2018-08-11T21:58:55Z</time>
      </trkpt>
      <trkpt lat="46.2209" lon="10.42469">
        <ele>2020.208</ele>
        <time>2018-08-11T21:59:15Z</time>
      </trkpt>
      <trkpt lat="46.22085" lon="10.42451">
        <ele>2018.33</ele>
        <time>2018-08-11T21:59:35Z</time>
      </trkpt>
      <trkpt lat="46.2208" lon="10.42437">
        <ele>2014.555</ele>
        <time>2018-08-11T21:59:55Z</time>
      </trkpt>
      <trkpt lat="46.22087" lon="10.42439">
        <ele>2012.161</ele>
        <time>2018-08-11T22:00:15Z</time>
      </trkpt>
      <trkpt lat="46.22105" lon="10.42458">
        <ele>2006.985</ele>
        <time>2018-08-11T22:00:35Z</time>
      </trkpt>
      <trkpt lat="46.22128" lon="10.42479">
        <ele>1994.37</ele>
        <time>2018-08-11T22:00:55Z</time>
      </trkpt>
      <trkpt lat="46.22129" lon="10.42468">
        <ele>1991.361</ele>
        <time>2018-08-11T22:01:15Z</time>
      </trkpt>
      <trkpt lat="46.22137" lon="10.42479">
        <ele>1988.148</ele>
        <time>2018-08-11T22:01:35Z</time>
      </trkpt>
      <trkpt lat="46.22134" lon="10.42454">
        <ele>1985.011</ele>
        <time>2018-08-11T22:01:55Z</time>
      </trkpt>
      <trkpt lat="46.22142" lon="10.42466">
        <ele>1982.494</ele>
        <time>2018-08-11T22:02:15Z</time>
      </trkpt>
      <trkpt lat="46.2215" lon="10.42472">
        <ele>1980.857</ele>
        <time>2018-08-11T22:02:35Z</time>
      </trkpt>
      <trkpt lat="46.2215" lon="10.42471">
        <ele>1980.622</ele>
        <time>2018-08-11T22:02:55Z</time>
      </trkpt>
      <trkpt lat="46.22151" lon="10.42465">
        <ele>1979.308</ele>
        <time>2018-08-11T22:03:15Z</time>
      </trkpt>
      <trkpt lat="46.2215" lon="10.42454">
        <ele>1977.451</ele>
        <time>2018-08-11T22:03:35Z</time>
      </trkpt>
      <trkpt lat="46.22139" lon="10.4243">
        <ele>1975.126</ele>
        <time>2018-08-11T22:03:55Z</time>
      </trkpt>
      <trkpt lat="46.22155" lon="10.42439">
        <ele>1972.662</ele>
        <time>2018-08-11T22:04:15Z</time>
      </trkpt>
      <trkpt lat="46.22162" lon="10.4244">
        <ele>1970.876</ele>
        <time>2018-08-11T22:04:35Z</time>
      </trkpt>
      <trkpt lat="46.22149" lon="10.42413">
        <ele>1966.811</ele>
        <time>2018-08-11T22:04:55Z</time>
      </trkpt>
      <trkpt lat="46.22145" lon="10.42405">
        <ele>1964.432</ele>
        <time>2018-08-11T22:05:15Z</time>
      </trkpt>
      <trkpt lat="46.22163" lon="10.42411">
        <ele>1960.589</ele>
        <time>2018-08-11T22:05:35Z</time>
      </trkpt>
      <trkpt lat="46.22163" lon="10.42405">
        <ele>1957.932</ele>
        <time>2018-08-11T22:05:55Z</time>
      </trkpt>
      <trkpt lat="46.22163" lon="10.42404">
        <ele>1957.877</ele>
        <time>2018-08-11T22:06:15Z</time>
      </trkpt>
      <trkpt lat="46.22178" lon="10.42399">
        <ele>1952.161</ele>
        <time>2018-08-11T22:06:35Z</time>
      </trkpt>
      <trkpt lat="46.22194" lon="10.42391">
        <ele>1945.727</ele>
        <time>2018-08-11T22:06:55Z</time>
      </trkpt>
      <trkpt lat="46.22203" lon="10.42389">
        <ele>1943.708</ele>
        <time>2018-08-11T22:07:15Z</time>
      </trkpt>
      <trkpt lat="46.22211" lon="10.4238">
        <ele>1939.419</ele>
        <time>2018-08-11T22:07:35Z</time>
      </trkpt>
      <trkpt lat="46.22223" lon="10.42382">
        <ele>1938.564</ele>
        <time>2018-08-11T22:07:55Z</time>
      </trkpt>
      <trkpt lat="46.22232" lon="10.42384">
        <ele>1936.56</ele>
        <time>2018-08-11T22:08:15Z</time>
      </trkpt>
      <trkpt lat="46.22238" lon="10.42377">
        <ele>1932.974</ele>
        <time>2018-08-11T22:08:35Z</time>
      </trkpt>
      <trkpt lat="46.22245" lon="10.42359">
        <ele>1927.359</ele>
        <time>2018-08-11T22:08:55Z</time>
      </trkpt>
      <trkpt lat="46.22251" lon="10.4235">
        <ele>1924.46</ele>
        <time>2018-08-11T22:09:15Z</time>
      </trkpt>
      <trkpt lat="46.22251" lon="10.42342">
        <ele>1922.727</ele>
        <time>2018-08-11T22:09:35Z</time>
      </trkpt>
      <trkpt lat="46.22243" lon="10.42329">
        <ele>1920.22</ele>
        <time>2018-08-11T22:09:55Z</time>
      </trkpt>
      <trkpt lat="46.2224" lon="10.42316">
        <ele>1916.551</ele>
        <time>2018-08-11T22:10:15Z</time>
      </trkpt>
      <trkpt lat="46.2224" lon="10.42305">
        <ele>1913.301</ele>
        <time>2018-08-11T22:10:35Z</time>
      </trkpt>
      <trkpt lat="46.22235" lon="10.42294">
        <ele>1910.511</ele>
        <time>2018-08-11T22:10:55Z</time>
      </trkpt>
      <trkpt lat="46.22229" lon="10.42282">
        <ele>1906.708</ele>
        <time>2018-08-11T22:11:15Z</time>
      </trkpt>
      <trkpt lat="46.22223" lon="10.42269">
        <ele>1902.227</ele>
        <time>2018-08-11T22:11:35Z</time>
      </trkpt>
      <trkpt lat="46.22225" lon="10.4226">
        <ele>1899.892</ele>
        <time>2018-08-11T22:11:55Z</time>
      </trkpt>
      <trkpt lat="46.22235" lon="10.42256">
        <ele>1900.318</ele>
        <time>2018-08-11T22:12:15Z</time>
      </trkpt>
      <trkpt lat="46.22261" lon="10.42242">
        <ele>1901.232</ele>
        <time>2018-08-11T22:12:35Z</time>
      </trkpt>
      <trkpt lat="46.22251" lon="10.42223">
        <ele>1894.317</ele>
        <time>2018-08-11T22:12:55Z</time>
      </trkpt>
      <trkpt lat="46.2225" lon="10.42215">
        <ele>1891.688</ele>
        <time>2018-08-11T22:13:15Z</time>
      </trkpt>
      <trkpt lat="46.22272" lon="10.42224">
        <ele>1899.025</ele>
        <time>2018-08-11T22:13:35Z</time>
      </trkpt>
      <trkpt lat="46.22267" lon="10.42213">
        <ele>1894.928</ele>
        <time>2018-08-11T22:13:55Z</time>
      </trkpt>
      <trkpt lat="46.22255" lon="10.42198">
        <ele>1887.333</ele>
        <time>2018-08-11T22:14:15Z</time>
      </trkpt>
      <trkpt lat="46.22273" lon="10.42195">
        <ele>1891.023</ele>
        <time>2018-08-11T22:14:35Z</time>
      </trkpt>
      <trkpt lat="46.22265" lon="10.42182">
        <ele>1884.515</ele>
        <time>2018-08-11T22:14:55Z</time>
      </trkpt>
      <trkpt lat="46.2226" lon="10.42175">
        <ele>1880.908</ele>
        <time>2018-08-11T22:15:15Z</time>
      </trkpt>
      <trkpt lat="46.22278" lon="10.42151">
        <ele>1876.535</ele>
        <time>2018-08-11T22:15:35Z</time>
      </trkpt>
      <trkpt lat="46.22294" lon="10.42145">
        <ele>1875.98</ele>
        <time>2018-08-11T22:15:55Z</time>
      </trkpt>
      <trkpt lat="46.22314" lon="10.4214">
        <ele>1872.886</ele>
        <time>2018-08-11T22:16:15Z</time>
      </trkpt>
      <trkpt lat="46.22336" lon="10.42146">
        <ele>1867.92</ele>
        <time>2018-08-11T22:16:35Z</time>
      </trkpt>
      <trkpt lat="46.22337" lon="10.42146">
        <ele>1867.845</ele>
        <time>2018-08-11T22:16:55Z</time>
      </trkpt>
      <trkpt lat="46.22349" lon="10.42147">
        <ele>1860.686</ele>
        <time>2018-08-11T22:17:15Z</time>
      </trkpt>
      <trkpt lat="46.22359" lon="10.42147">
        <ele>1855.283</ele>
        <time>2018-08-11T22:17:35Z</time>
      </trkpt>
      <trkpt lat="46.22386" lon="10.42138">
        <ele>1844.386</ele>
        <time>2018-08-11T22:17:55Z</time>
      </trkpt>
      <trkpt lat="46.22405" lon="10.4213">
        <ele>1837.486</ele>
        <time>2018-08-11T22:18:15Z</time>
      </trkpt>
      <trkpt lat="46.22424" lon="10.42121">
        <ele>1830.86</ele>
        <time>2018-08-11T22:18:35Z</time>
      </trkpt>
      <trkpt lat="46.22442" lon="10.42114">
        <ele>1825.626</ele>
        <time>2018-08-11T22:18:55Z</time>
      </trkpt>
      <trkpt lat="46.22457" lon="10.42111">
        <ele>1822.208</ele>
        <time>2018-08-11T22:19:15Z</time>
      </trkpt>
      <trkpt lat="46.22463" lon="10.42109">
        <ele>1820.64</ele>
        <time>2018-08-11T22:19:35Z</time>
      </trkpt>
      <trkpt lat="46.22475" lon="10.42104">
        <ele>1817.455</ele>
        <time>2018-08-11T22:19:55Z</time>
      </trkpt>
      <trkpt lat="46.22482" lon="10.42085">
        <ele>1813.271</ele>
        <time>2018-08-11T22:20:15Z</time>
      </trkpt>
      <trkpt lat="46.22484" lon="10.42055">
        <ele>1809.215</ele>
        <time>2018-08-11T22:20:35Z</time>
      </trkpt>
      <trkpt lat="46.22485" lon="10.42041">
        <ele>1804.84</ele>
        <time>2018-08-11T22:20:55Z</time>
      </trkpt>
      <trkpt lat="46.22482" lon="10.42019">
        <ele>1800.491</ele>
        <time>2018-08-11T22:21:15Z</time>
      </trkpt>
      <trkpt lat="46.22477" lon="10.42004">
        <ele>1799.798</ele>
        <time>2018-08-11T22:21:35Z</time>
      </trkpt>
      <trkpt lat="46.22475" lon="10.41991">
        <ele>1797.751</ele>
        <time>2018-08-11T22:21:55Z</time>
      </trkpt>
      <trkpt lat="46.22477" lon="10.41992">
        <ele>1797.628</ele>
        <time>2018-08-11T22:22:15Z</time>
      </trkpt>
      <trkpt lat="46.2251" lon="10.41976">
        <ele>1787.589</ele>
        <time>2018-08-11T22:22:35Z</time>
      </trkpt>
      <trkpt lat="46.22555" lon="10.41978">
        <ele>1779.017</ele>
        <time>2018-08-11T22:22:55Z</time>
      </trkpt>
      <trkpt lat="46.22572" lon="10.4198">
        <ele>1776.908</ele>
        <time>2018-08-11T22:23:15Z</time>
      </trkpt>
      <trkpt lat="46.22583" lon="10.41984">
        <ele>1775.524</ele>
        <time>2018-08-11T22:23:35Z</time>
      </trkpt>
      <trkpt lat="46.22599" lon="10.41985">
        <ele>1769.239</ele>
        <time>2018-08-11T22:23:55Z</time>
      </trkpt>
      <trkpt lat="46.22603" lon="10.41942">
        <ele>1761.945</ele>
        <time>2018-08-11T22:24:15Z</time>
      </trkpt>
      <trkpt lat="46.22592" lon="10.41927">
        <ele>1761.459</ele>
        <time>2018-08-11T22:24:35Z</time>
      </trkpt>
      <trkpt lat="46.22585" lon="10.41915">
        <ele>1760.324</ele>
        <time>2018-08-11T22:24:55Z</time>
      </trkpt>
      <trkpt lat="46.2258" lon="10.41903">
        <ele>1758.355</ele>
        <time>2018-08-11T22:25:15Z</time>
      </trkpt>
      <trkpt lat="46.22574" lon="10.41884">
        <ele>1754.772</ele>
        <time>2018-08-11T22:25:35Z</time>
      </trkpt>
      <trkpt lat="46.22563" lon="10.4187">
        <ele>1752.475</ele>
        <time>2018-08-11T22:25:55Z</time>
      </trkpt>
      <trkpt lat="46.22547" lon="10.41852">
        <ele>1748.776</ele>
        <time>2018-08-11T22:26:15Z</time>
      </trkpt>
      <trkpt lat="46.22533" lon="10.41845">
        <ele>1747.39</ele>
        <time>2018-08-11T22:26:35Z</time>
      </trkpt>
      <trkpt lat="46.2252" lon="10.41826">
        <ele>1743.219</ele>
        <time>2018-08-11T22:26:55Z</time>
      </trkpt>
      <trkpt lat="46.22513" lon="10.41818">
        <ele>1741.908</ele>
        <time>2018-08-11T22:27:15Z</time>
      </trkpt>
      <trkpt lat="46.22505" lon="10.41809">
        <ele>1740.869</ele>
        <time>2018-08-11T22:27:35Z</time>
      </trkpt>
      <trkpt lat="46.22533" lon="10.41801">
        <ele>1732.374</ele>
        <time>2018-08-11T22:27:55Z</time>
      </trkpt>
      <trkpt lat="46.22554" lon="10.41802">
        <ele>1731.87</ele>
        <time>2018-08-11T22:28:15Z</time>
      </trkpt>
      <trkpt lat="46.22575" lon="10.418">
        <ele>1730.944</ele>
        <time>2018-08-11T22:28:35Z</time>
      </trkpt>
      <trkpt lat="46.22568" lon="10.41778">
        <ele>1725.129</ele>
        <time>2018-08-11T22:28:55Z</time>
      </trkpt>
      <trkpt lat="46.22542" lon="10.41753">
        <ele>1716.35</ele>
        <time>2018-08-11T22:29:15Z</time>
      </trkpt>
      <trkpt lat="46.22511" lon="10.41744">
        <ele>1714.837</ele>
        <time>2018-08-11T22:29:35Z</time>
      </trkpt>
      <trkpt lat="46.22479" lon="10.41739">
        <ele>1717.17</ele>
        <time>2018-08-11T22:29:55Z</time>
      </trkpt>
      <trkpt lat="46.22457" lon="10.41741">
        <ele>1717.357</ele>
        <time>2018-08-11T22:30:15Z</time>
      </trkpt>
      <trkpt lat="46.22441" lon="10.41737">
        <ele>1714.5</ele>
        <time>2018-08-11T22:30:35Z</time>
      </trkpt>
      <trkpt lat="46.22415" lon="10.41728">
        <ele>1710.32</ele>
        <time>2018-08-11T22:30:55Z</time>
      </trkpt>
      <trkpt lat="46.22384" lon="10.41722">
        <ele>1711.008</ele>
        <time>2018-08-11T22:31:15Z</time>
      </trkpt>
      <trkpt lat="46.22352" lon="10.41717">
        <ele>1715.087</ele>
        <time>2018-08-11T22:31:35Z</time>
      </trkpt>
      <trkpt lat="46.22411" lon="10.41688">
        <ele>1696.622</ele>
        <time>2018-08-11T22:31:55Z</time>
      </trkpt>
      <trkpt lat="46.22434" lon="10.41675">
        <ele>1690.918</ele>
        <time>2018-08-11T22:32:15Z</time>
      </trkpt>
      <trkpt lat="46.22462" lon="10.41655">
        <ele>1681.122</ele>
        <time>2018-08-11T22:32:35Z</time>
      </trkpt>
      <trkpt lat="46.22432" lon="10.41642">
        <ele>1677.427</ele>
        <time>2018-08-11T22:32:55Z</time>
      </trkpt>
      <trkpt lat="46.22419" lon="10.41628">
        <ele>1674.588</ele>
        <time>2018-08-11T22:33:15Z</time>
      </trkpt>
      <trkpt lat="46.22416" lon="10.41628">
        <ele>1674.955</ele>
        <time>2018-08-11T22:33:35Z</time>
      </trkpt>
      <trkpt lat="46.22355" lon="10.41626">
        <ele>1678.158</ele>
        <time>2018-08-11T22:33:55Z</time>
      </trkpt>
      <trkpt lat="46.22338" lon="10.41623">
        <ele>1674.261</ele>
        <time>2018-08-11T22:34:15Z</time>
      </trkpt>
      <trkpt lat="46.22314" lon="10.41628">
        <ele>1674.921</ele>
        <time>2018-08-11T22:34:35Z</time>
      </trkpt>
      <trkpt lat="46.22293" lon="10.41639">
        <ele>1679.213</ele>
        <time>2018-08-11T22:34:55Z</time>
      </trkpt>
      <trkpt lat="46.22278" lon="10.41647">
        <ele>1681.908</ele>
        <time>2018-08-11T22:35:15Z</time>
      </trkpt>
      <trkpt lat="46.2226" lon="10.41661">
        <ele>1683.648</ele>
        <time>2018-08-11T22:35:35Z</time>
      </trkpt>
      <trkpt lat="46.22239" lon="10.41689">
        <ele>1687.243</ele>
        <time>2018-08-11T22:35:55Z</time>
      </trkpt>
      <trkpt lat="46.2222" lon="10.4172">
        <ele>1690.619</ele>
        <time>2018-08-11T22:36:15Z</time>
      </trkpt>
      <trkpt lat="46.22212" lon="10.41729">
        <ele>1691.353</ele>
        <time>2018-08-11T22:36:35Z</time>
      </trkpt>
      <trkpt lat="46.22188" lon="10.41739">
        <ele>1686.028</ele>
        <time>2018-08-11T22:36:55Z</time>
      </trkpt>
      <trkpt lat="46.2218" lon="10.41734">
        <ele>1680.559</ele>
        <time>2018-08-11T22:37:15Z</time>
      </trkpt>
      <trkpt lat="46.22166" lon="10.41729">
        <ele>1671.666</ele>
        <time>2018-08-11T22:37:35Z</time>
      </trkpt>
      <trkpt lat="46.22145" lon="10.41741">
        <ele>1665.469</ele>
        <time>2018-08-11T22:37:55Z</time>
      </trkpt>
      <trkpt lat="46.22137" lon="10.41757">
        <ele>1668.165</ele>
        <time>2018-08-11T22:38:15Z</time>
      </trkpt>
      <trkpt lat="46.2213" lon="10.41771">
        <ele>1670.668</ele>
        <time>2018-08-11T22:38:35Z</time>
      </trkpt>
      <trkpt lat="46.22123" lon="10.41773">
        <ele>1669.014</ele>
        <time>2018-08-11T22:38:55Z</time>
      </trkpt>
      <trkpt lat="46.22119" lon="10.41774">
        <ele>1667.708</ele>
        <time>2018-08-11T22:39:15Z</time>
      </trkpt>
      <trkpt lat="46.22111" lon="10.41774">
        <ele>1665.038</ele>
        <time>2018-08-11T22:39:35Z</time>
      </trkpt>
      <trkpt lat="46.221" lon="10.41769">
        <ele>1661.773</ele>
        <time>2018-08-11T22:39:55Z</time>
      </trkpt>
      <trkpt lat="46.22092" lon="10.41757">
        <ele>1656.429</ele>
        <time>2018-08-11T22:40:15Z</time>
      </trkpt>
      <trkpt lat="46.22081" lon="10.41734">
        <ele>1647.263</ele>
        <time>2018-08-11T22:40:35Z</time>
      </trkpt>
      <trkpt lat="46.22074" lon="10.41711">
        <ele>1637.848</ele>
        <time>2018-08-11T22:40:55Z</time>
      </trkpt>
      <trkpt lat="46.22057" lon="10.4168">
        <ele>1620.679</ele>
        <time>2018-08-11T22:41:15Z</time>
      </trkpt>
      <trkpt lat="46.22028" lon="10.41626">
        <ele>1613.036</ele>
        <time>2018-08-11T22:41:35Z</time>
      </trkpt>
      <trkpt lat="46.21988" lon="10.4157">
        <ele>1609.529</ele>
        <time>2018-08-11T22:41:55Z</time>
      </trkpt>
      <trkpt lat="46.21979" lon="10.41553">
        <ele>1606.958</ele>
        <time>2018-08-11T22:42:15Z</time>
      </trkpt>
      <trkpt lat="46.21963" lon="10.41533">
        <ele>1608.852</ele>
        <time>2018-08-11T22:42:35Z</time>
      </trkpt>
      <trkpt lat="46.21951" lon="10.41516">
        <ele>1610.617</ele>
        <time>2018-08-11T22:42:55Z</time>
      </trkpt>
      <trkpt lat="46.21935" lon="10.41499">
        <ele>1611.108</ele>
        <time>2018-08-11T22:43:15Z</time>
      </trkpt>
      <trkpt lat="46.21924" lon="10.41492">
        <ele>1614.057</ele>
        <time>2018-08-11T22:43:35Z</time>
      </trkpt>
      <trkpt lat="46.21908" lon="10.41487">
        <ele>1616.592</ele>
        <time>2018-08-11T22:43:55Z</time>
      </trkpt>
      <trkpt lat="46.21902" lon="10.41482">
        <ele>1614.158</ele>
        <time>2018-08-11T22:44:15Z</time>
      </trkpt>
      <trkpt lat="46.21893" lon="10.41478">
        <ele>1613.382</ele>
        <time>2018-08-11T22:44:35Z</time>
      </trkpt>
      <trkpt lat="46.21873" lon="10.41481">
        <ele>1613.647</ele>
        <time>2018-08-11T22:44:55Z</time>
      </trkpt>
      <trkpt lat="46.21864" lon="10.41477">
        <ele>1611.168</ele>
        <time>2018-08-11T22:45:15Z</time>
      </trkpt>
      <trkpt lat="46.21856" lon="10.41471">
        <ele>1608.545</ele>
        <time>2018-08-11T22:45:35Z</time>
      </trkpt>
      <trkpt lat="46.21828" lon="10.41436">
        <ele>1594.848</ele>
        <time>2018-08-11T22:45:55Z</time>
      </trkpt>
      <trkpt lat="46.21816" lon="10.41428">
        <ele>1590.997</ele>
        <time>2018-08-11T22:46:15Z</time>
      </trkpt>
      <trkpt lat="46.21776" lon="10.41405">
        <ele>1579.223</ele>
        <time>2018-08-11T22:46:35Z</time>
      </trkpt>
      <trkpt lat="46.21759" lon="10.41402">
        <ele>1579.325</ele>
        <time>2018-08-11T22:46:55Z</time>
      </trkpt>
      <trkpt lat="46.21742" lon="10.41406">
        <ele>1582.008</ele>
        <time>2018-08-11T22:47:15Z</time>
      </trkpt>
      <trkpt lat="46.2174" lon="10.41406">
        <ele>1582.111</ele>
        <time>2018-08-11T22:47:35Z</time>
      </trkpt>
      <trkpt lat="46.2174" lon="10.41407">
        <ele>1582.266</ele>
        <time>2018-08-11T22:47:55Z</time>
      </trkpt>
      <trkpt lat="46.21739" lon="10.41408">
        <ele>1582.662</ele>
        <time>2018-08-11T22:48:15Z</time>
      </trkpt>
      <trkpt lat="46.21731" lon="10.41415">
        <ele>1585.356</ele>
        <time>2018-08-11T22:48:35Z</time>
      </trkpt>
      <trkpt lat="46.21714" lon="10.41439">
        <ele>1590.491</ele>
        <time>2018-08-11T22:48:55Z</time>
      </trkpt>
      <trkpt lat="46.21704" lon="10.41457">
        <ele>1595.052</ele>
        <time>2018-08-11T22:49:15Z</time>
      </trkpt>
      <trkpt lat="46.217" lon="10.41457">
        <ele>1593.639</ele>
        <time>2018-08-11T22:49:35Z</time>
      </trkpt>
      <trkpt lat="46.21676" lon="10.4145">
        <ele>1589.092</ele>
        <time>2018-08-11T22:49:55Z</time>
      </trkpt>
      <trkpt lat="46.21672" lon="10.41443">
        <ele>1586.875</ele>
        <time>2018-08-11T22:50:15Z</time>
      </trkpt>
      <trkpt lat="46.21668" lon="10.41428">
        <ele>1583.328</ele>
        <time>2018-08-11T22:50:35Z</time>
      </trkpt>
      <trkpt lat="46.21665" lon="10.41406">
        <ele>1579.52</ele>
        <time>2018-08-11T22:50:55Z</time>
      </trkpt>
      <trkpt lat="46.21664" lon="10.4137">
        <ele>1573.808</ele>
        <time>2018-08-11T22:51:15Z</time>
      </trkpt>
      <trkpt lat="46.21663" lon="10.41363">
        <ele>1573.119</ele>
        <time>2018-08-11T22:51:35Z</time>
      </trkpt>
      <trkpt lat="46.21663" lon="10.41359">
        <ele>1572.474</ele>
        <time>2018-08-11T22:51:55Z</time>
      </trkpt>
      <trkpt lat="46.21665" lon="10.41341">
        <ele>1569.77</ele>
        <time>2018-08-11T22:52:15Z</time>
      </trkpt>
      <trkpt lat="46.21662" lon="10.41329">
        <ele>1568.614</ele>
        <time>2018-08-11T22:52:35Z</time>
      </trkpt>
      <trkpt lat="46.21657" lon="10.41321">
        <ele>1569.349</ele>
        <time>2018-08-11T22:52:55Z</time>
      </trkpt>
      <trkpt lat="46.21649" lon="10.41316">
        <ele>1572.03</ele>
        <time>2018-08-11T22:53:15Z</time>
      </trkpt>
      <trkpt lat="46.21632" lon="10.41326">
        <ele>1580.247</ele>
        <time>2018-08-11T22:53:35Z</time>
      </trkpt>
      <trkpt lat="46.21626" lon="10.41333">
        <ele>1583.15</ele>
        <time>2018-08-11T22:53:55Z</time>
      </trkpt>
      <trkpt lat="46.21612" lon="10.41347">
        <ele>1593.189</ele>
        <time>2018-08-11T22:54:15Z</time>
      </trkpt>
      <trkpt lat="46.21603" lon="10.41347">
        <ele>1592.006</ele>
        <time>2018-08-11T22:54:35Z</time>
      </trkpt>
      <trkpt lat="46.21593" lon="10.41343">
        <ele>1588.626</ele>
        <time>2018-08-11T22:54:55Z</time>
      </trkpt>
      <trkpt lat="46.2159" lon="10.41341">
        <ele>1587.208</ele>
        <time>2018-08-11T22:55:15Z</time>
      </trkpt>
      <trkpt lat="46.21582" lon="10.41337">
        <ele>1584.43</ele>
        <time>2018-08-11T22:55:35Z</time>
      </trkpt>
      <trkpt lat="46.21576" lon="10.41334">
        <ele>1583.065</ele>
        <time>2018-08-11T22:55:55Z</time>
      </trkpt>
      <trkpt lat="46.21564" lon="10.41329">
        <ele>1579.691</ele>
        <time>2018-08-11T22:56:15Z</time>
      </trkpt>
      <trkpt lat="46.21561" lon="10.41327">
        <ele>1578.755</ele>
        <time>2018-08-11T22:56:35Z</time>
      </trkpt>
      <trkpt lat="46.2155" lon="10.41321">
        <ele>1574.73</ele>
        <time>2018-08-11T22:56:55Z</time>
      </trkpt>
      <trkpt lat="46.21543" lon="10.41315">
        <ele>1570.821</ele>
        <time>2018-08-11T22:57:15Z</time>
      </trkpt>
      <trkpt lat="46.21536" lon="10.41315">
        <ele>1570.698</ele>
        <time>2018-08-11T22:57:35Z</time>
      </trkpt>
      <trkpt lat="46.21525" lon="10.41331">
        <ele>1580.681</ele>
        <time>2018-08-11T22:57:55Z</time>
      </trkpt>
      <trkpt lat="46.21522" lon="10.41331">
        <ele>1580.136</ele>
        <time>2018-08-11T22:58:15Z</time>
      </trkpt>
      <trkpt lat="46.21518" lon="10.41333">
        <ele>1580.117</ele>
        <time>2018-08-11T22:58:35Z</time>
      </trkpt>
      <trkpt lat="46.2151" lon="10.41315">
        <ele>1569.318</ele>
        <time>2018-08-11T22:58:55Z</time>
      </trkpt>
      <trkpt lat="46.21499" lon="10.413">
        <ele>1562.208</ele>
        <time>2018-08-11T22:59:15Z</time>
      </trkpt>
      <trkpt lat="46.21489" lon="10.41291">
        <ele>1558.315</ele>
        <time>2018-08-11T22:59:35Z</time>
      </trkpt>
      <trkpt lat="46.21475" lon="10.41291">
        <ele>1558.65</ele>
        <time>2018-08-11T22:59:55Z</time>
      </trkpt>
      <trkpt lat="46.21437" lon="10.41295">
        <ele>1560.616</ele>
        <time>2018-08-11T23:00:15Z</time>
      </trkpt>
      <trkpt lat="46.21379" lon="10.413">
        <ele>1552.55</ele>
        <time>2018-08-11T23:00:35Z</time>
      </trkpt>
      <trkpt lat="46.21366" lon="10.41301">
        <ele>1548.945</ele>
        <time>2018-08-11T23:00:55Z</time>
      </trkpt>
      <trkpt lat="46.21347" lon="10.41304">
        <ele>1546.596</ele>
        <time>2018-08-11T23:01:15Z</time>
      </trkpt>
      <trkpt lat="46.21333" lon="10.41305">
        <ele>1544.853</ele>
        <time>2018-08-11T23:01:35Z</time>
      </trkpt>
      <trkpt lat="46.21293" lon="10.41301">
        <ele>1535.956</ele>
        <time>2018-08-11T23:01:55Z</time>
      </trkpt>
      <trkpt lat="46.2128" lon="10.413">
        <ele>1531.093</ele>
        <time>2018-08-11T23:02:15Z</time>
      </trkpt>
      <trkpt lat="46.2125" lon="10.41302">
        <ele>1521.665</ele>
        <time>2018-08-11T23:02:35Z</time>
      </trkpt>
      <trkpt lat="46.21232" lon="10.4129">
        <ele>1516.321</ele>
        <time>2018-08-11T23:02:55Z</time>
      </trkpt>
      <trkpt lat="46.21208" lon="10.41284">
        <ele>1515.308</ele>
        <time>2018-08-11T23:03:15Z</time>
      </trkpt>
      <trkpt lat="46.21167" lon="10.41276">
        <ele>1512.641</ele>
        <time>2018-08-11T23:03:35Z</time>
      </trkpt>
      <trkpt lat="46.2115" lon="10.41272">
        <ele>1511.166</ele>
        <time>2018-08-11T23:03:55Z</time>
      </trkpt>
      <trkpt lat="46.21149" lon="10.41272">
        <ele>1511.212</ele>
        <time>2018-08-11T23:04:15Z</time>
      </trkpt>
      <trkpt lat="46.2114" lon="10.41273">
        <ele>1511.346</ele>
        <time>2018-08-11T23:04:35Z</time>
      </trkpt>
      <trkpt lat="46.21136" lon="10.41273">
        <ele>1511.171</ele>
        <time>2018-08-11T23:04:55Z</time>
      </trkpt>
      <trkpt lat="46.21127" lon="10.41274">
        <ele>1510.692</ele>
        <time>2018-08-11T23:05:15Z</time>
      </trkpt>
      <trkpt lat="46.21114" lon="10.41268">
        <ele>1506.699</ele>
        <time>2018-08-11T23:05:35Z</time>
      </trkpt>
      <trkpt lat="46.21108" lon="10.41267">
        <ele>1504.932</ele>
        <time>2018-08-11T23:05:55Z</time>
      </trkpt>
      <trkpt lat="46.21096" lon="10.41261">
        <ele>1500.031</ele>
        <time>2018-08-11T23:06:15Z</time>
      </trkpt>
      <trkpt lat="46.21068" lon="10.41247">
        <ele>1493.661</ele>
        <time>2018-08-11T23:06:35Z</time>
      </trkpt>
      <trkpt lat="46.21064" lon="10.41245">
        <ele>1493.107</ele>
        <time>2018-08-11T23:06:55Z</time>
      </trkpt>
      <trkpt lat="46.21061" lon="10.41244">
        <ele>1492.808</ele>
        <time>2018-08-11T23:07:15Z</time>
      </trkpt>
      <trkpt lat="46.21042" lon="10.41244">
        <ele>1493.215</ele>
        <time>2018-08-11T23:07:35Z</time>
      </trkpt>
      <trkpt lat="46.21038" lon="10.41242">
        <ele>1492.77</ele>
        <time>2018-08-11T23:07:55Z</time>
      </trkpt>
      <trkpt lat="46.21037" lon="10.41242">
        <ele>1492.886</ele>
        <time>2018-08-11T23:08:15Z</time>
      </trkpt>
      <trkpt lat="46.21028" lon="10.41241">
        <ele>1492.72</ele>
        <time>2018-08-11T23:08:35Z</time>
      </trkpt>
      <trkpt lat="46.21027" lon="10.41241">
        <ele>1492.865</ele>
        <time>2018-08-11T23:08:55Z</time>
      </trkpt>
      <trkpt lat="46.21019" lon="10.41241">
        <ele>1493.626</ele>
        <time>2018-08-11T23:09:15Z</time>
      </trkpt>
      <trkpt lat="46.21017" lon="10.4124">
        <ele>1493.353</ele>
        <time>2018-08-11T23:09:35Z</time>
      </trkpt>
      <trkpt lat="46.20987" lon="10.41237">
        <ele>1494.816</ele>
        <time>2018-08-11T23:09:55Z</time>
      </trkpt>
      <trkpt lat="46.20944" lon="10.41232">
        <ele>1493.259</ele>
        <time>2018-08-11T23:10:15Z</time>
      </trkpt>
      <trkpt lat="46.20935" lon="10.41231">
        <ele>1492.503</ele>
        <time>2018-08-11T23:10:35Z</time>
      </trkpt>
      <trkpt lat="46.20927" lon="10.4123">
        <ele>1491.623</ele>
        <time>2018-08-11T23:10:55Z</time>
      </trkpt>
      <trkpt lat="46.20908" lon="10.41228">
        <ele>1487.508</ele>
        <time>2018-08-11T23:11:15Z</time>
      </trkpt>
      <trkpt lat="46.209" lon="10.41229">
        <ele>1485.617</ele>
        <time>2018-08-11T23:11:35Z</time>
      </trkpt>
      <trkpt lat="46.20884" lon="10.41227">
        <ele>1479.362</ele>
        <time>2018-08-11T23:11:55Z</time>
      </trkpt>
      <trkpt lat="46.20869" lon="10.41221">
        <ele>1471.328</ele>
        <time>2018-08-11T23:12:15Z</time>
      </trkpt>
      <trkpt lat="46.20866" lon="10.4122">
        <ele>1469.652</ele>
        <time>2018-08-11T23:12:35Z</time>
      </trkpt>
      <trkpt lat="46.20856" lon="10.41212">
        <ele>1465.757</ele>
        <time>2018-08-11T23:12:55Z</time>
      </trkpt>
      <trkpt lat="46.20838" lon="10.41211">
        <ele>1464.818</ele>
        <time>2018-08-11T23:13:15Z</time>
      </trkpt>
      <trkpt lat="46.2082" lon="10.41216">
        <ele>1465.835</ele>
        <time>2018-08-11T23:13:35Z</time>
      </trkpt>
      <trkpt lat="46.20815" lon="10.41218">
        <ele>1466.468</ele>
        <time>2018-08-11T23:13:55Z</time>
      </trkpt>
      <trkpt lat="46.20798" lon="10.41224">
        <ele>1468.369</ele>
        <time>2018-08-11T23:14:15Z</time>
      </trkpt>
      <trkpt lat="46.20784" lon="10.41229">
        <ele>1469.204</ele>
        <time>2018-08-11T23:14:35Z</time>
      </trkpt>
      <trkpt lat="46.20772" lon="10.41226">
        <ele>1469.024</ele>
        <time>2018-08-11T23:14:55Z</time>
      </trkpt>
      <trkpt lat="46.20771" lon="10.41225">
        <ele>1468.808</ele>
        <time>2018-08-11T23:15:15Z</time>
      </trkpt>
      <trkpt lat="46.20771" lon="10.41221">
        <ele>1468.328</ele>
        <time>2018-08-11T23:15:35Z</time>
      </trkpt>
      <trkpt lat="46.2077" lon="10.41221">
        <ele>1468.323</ele>
        <time>2018-08-11T23:15:55Z</time>
      </trkpt>
      <trkpt lat="46.20741" lon="10.41216">
        <ele>1469.469</ele>
        <time>2018-08-11T23:16:15Z</time>
      </trkpt>
      <trkpt lat="46.20732" lon="10.41211">
        <ele>1469.383</ele>
        <time>2018-08-11T23:16:35Z</time>
      </trkpt>
      <trkpt lat="46.20732" lon="10.41211">
        <ele>1469.388</ele>
        <time>2018-08-11T23:16:55Z</time>
      </trkpt>
      <trkpt lat="46.20725" lon="10.4121">
        <ele>1469.479</ele>
        <time>2018-08-11T23:17:15Z</time>
      </trkpt>
      <trkpt lat="46.20713" lon="10.41217">
        <ele>1470.586</ele>
        <time>2018-08-11T23:17:35Z</time>
      </trkpt>
      <trkpt lat="46.20703" lon="10.41218">
        <ele>1471.369</ele>
        <time>2018-08-11T23:17:55Z</time>
      </trkpt>
      <trkpt lat="46.20688" lon="10.41214">
        <ele>1472.495</ele>
        <time>2018-08-11T23:18:15Z</time>
      </trkpt>
      <trkpt lat="46.20663" lon="10.41201">
        <ele>1474.049</ele>
        <time>2018-08-11T23:18:35Z</time>
      </trkpt>
      <trkpt lat="46.20635" lon="10.41193">
        <ele>1474.023</ele>
        <time>2018-08-11T23:18:55Z</time>
      </trkpt>
      <trkpt lat="46.20624" lon="10.41187">
        <ele>1474.008</ele>
        <time>2018-08-11T23:19:15Z</time>
      </trkpt>
      <trkpt lat="46.20591" lon="10.41176">
        <ele>1477.851</ele>
        <time>2018-08-11T23:19:35Z</time>
      </trkpt>
      <trkpt lat="46.20564" lon="10.41173">
        <ele>1484.636</ele>
        <time>2018-08-11T23:19:55Z</time>
      </trkpt>
      <trkpt lat="46.20546" lon="10.41167">
        <ele>1487.542</ele>
        <time>2018-08-11T23:20:15Z</time>
      </trkpt>
      <trkpt lat="46.20534" lon="10.41175">
        <ele>1490.486</ele>
        <time>2018-08-11T23:20:35Z</time>
      </trkpt>
      <trkpt lat="46.20529" lon="10.41179">
        <ele>1491.541</ele>
        <time>2018-08-11T23:20:55Z</time>
      </trkpt>
      <trkpt lat="46.20521" lon="10.41182">
        <ele>1492.992</ele>
        <time>2018-08-11T23:21:15Z</time>
      </trkpt>
      <trkpt lat="46.20513" lon="10.41186">
        <ele>1494.569</ele>
        <time>2018-08-11T23:21:35Z</time>
      </trkpt>
      <trkpt lat="46.20507" lon="10.41186">
        <ele>1495.212</ele>
        <time>2018-08-11T23:21:55Z</time>
      </trkpt>
      <trkpt lat="46.20498" lon="10.41187">
        <ele>1496.322</ele>
        <time>2018-08-11T23:22:15Z</time>
      </trkpt>
      <trkpt lat="46.20486" lon="10.41188">
        <ele>1497.462</ele>
        <time>2018-08-11T23:22:35Z</time>
      </trkpt>
      <trkpt lat="46.20479" lon="10.41187">
        <ele>1497.908</ele>
        <time>2018-08-11T23:22:55Z</time>
      </trkpt>
      <trkpt lat="46.2047" lon="10.41189">
        <ele>1498.708</ele>
        <time>2018-08-11T23:23:15Z</time>
      </trkpt>
      <trkpt lat="46.20461" lon="10.41192">
        <ele>1499.254</ele>
        <time>2018-08-11T23:23:35Z</time>
      </trkpt>
      <trkpt lat="46.20451" lon="10.41201">
        <ele>1501.629</ele>
        <time>2018-08-11T23:23:55Z</time>
      </trkpt>
      <trkpt lat="46.20436" lon="10.41204">
        <ele>1505.485</ele>
        <time>2018-08-11T23:24:15Z</time>
      </trkpt>
      <trkpt lat="46.20416" lon="10.41226">
        <ele>1516.839</ele>
        <time>2018-08-11T23:24:35Z</time>
      </trkpt>
      <trkpt lat="46.20404" lon="10.41232">
        <ele>1519.794</ele>
        <time>2018-08-11T23:24:55Z</time>
      </trkpt>
      <trkpt lat="46.20382" lon="10.41251">
        <ele>1525.265</ele>
        <time>2018-08-11T23:25:15Z</time>
      </trkpt>
      <trkpt lat="46.20367" lon="10.41272">
        <ele>1533.782</ele>
        <time>2018-08-11T23:25:35Z</time>
      </trkpt>
      <trkpt lat="46.20343" lon="10.41274">
        <ele>1536.915</ele>
        <time>2018-08-11T23:25:55Z</time>
      </trkpt>
      <trkpt lat="46.20336" lon="10.41276">
        <ele>1538.129</ele>
        <time>2018-08-11T23:26:15Z</time>
      </trkpt>
      <trkpt lat="46.20316" lon="10.41288">
        <ele>1545.8</ele>
        <time>2018-08-11T23:26:35Z</time>
      </trkpt>
      <trkpt lat="46.20315" lon="10.4129">
        <ele>1546.72</ele>
        <time>2018-08-11T23:26:55Z</time>
      </trkpt>
      <trkpt lat="46.2031" lon="10.41291">
        <ele>1547.608</ele>
        <time>2018-08-11T23:27:15Z</time>
      </trkpt>
      <trkpt lat="46.2031" lon="10.41291">
        <ele>1547.714</ele>
        <time>2018-08-11T23:27:35Z</time>
      </trkpt>
      <trkpt lat="46.20303" lon="10.41301">
        <ele>1550.169</ele>
        <time>2018-08-11T23:27:55Z</time>
      </trkpt>
      <trkpt lat="46.20296" lon="10.41308">
        <ele>1551.415</ele>
        <time>2018-08-11T23:28:15Z</time>
      </trkpt>
      <trkpt lat="46.20291" lon="10.4131">
        <ele>1552.199</ele>
        <time>2018-08-11T23:28:35Z</time>
      </trkpt>
      <trkpt lat="46.20287" lon="10.41315">
        <ele>1553.544</ele>
        <time>2018-08-11T23:28:55Z</time>
      </trkpt>
      <trkpt lat="46.20285" lon="10.41322">
        <ele>1555.765</ele>
        <time>2018-08-11T23:29:15Z</time>
      </trkpt>
      <trkpt lat="46.20285" lon="10.41328">
        <ele>1557.722</ele>
        <time>2018-08-11T23:29:35Z</time>
      </trkpt>
      <trkpt lat="46.20283" lon="10.41343">
        <ele>1562.775</ele>
        <time>2018-08-11T23:29:55Z</time>
      </trkpt>
      <trkpt lat="46.2029" lon="10.41351">
        <ele>1566.284</ele>
        <time>2018-08-11T23:30:15Z</time>
      </trkpt>
      <trkpt lat="46.2029" lon="10.41352">
        <ele>1566.607</ele>
        <time>2018-08-11T23:30:35Z</time>
      </trkpt>
      <trkpt lat="46.2029" lon="10.4136">
        <ele>1569.417</ele>
        <time>2018-08-11T23:30:55Z</time>
      </trkpt>
      <trkpt lat="46.20284" lon="10.41365">
        <ele>1571.408</ele>
        <time>2018-08-11T23:31:15Z</time>
      </trkpt>
      <trkpt lat="46.20279" lon="10.4137">
        <ele>1574.18</ele>
        <time>2018-08-11T23:31:35Z</time>
      </trkpt>
      <trkpt lat="46.20279" lon="10.41375">
        <ele>1577.075</ele>
        <time>2018-08-11T23:31:55Z</time>
      </trkpt>
      <trkpt lat="46.20283" lon="10.41385">
        <ele>1582.061</ele>
        <time>2018-08-11T23:32:15Z</time>
      </trkpt>
      <trkpt lat="46.20284" lon="10.4139">
        <ele>1584.915</ele>
        <time>2018-08-11T23:32:35Z</time>
      </trkpt>
      <trkpt lat="46.2028" lon="10.41397">
        <ele>1589.87</ele>
        <time>2018-08-11T23:32:55Z</time>
      </trkpt>
      <trkpt lat="46.20283" lon="10.41404">
        <ele>1593.951</ele>
        <time>2018-08-11T23:33:15Z</time>
      </trkpt>
      <trkpt lat="46.20285" lon="10.41412">
        <ele>1598.828</ele>
        <time>2018-08-11T23:33:35Z</time>
      </trkpt>
      <trkpt lat="46.20282" lon="10.41422">
        <ele>1604.821</ele>
        <time>2018-08-11T23:33:55Z</time>
      </trkpt>
      <trkpt lat="46.20274" lon="10.41424">
        <ele>1607.867</ele>
        <time>2018-08-11T23:34:15Z</time>
      </trkpt>
      <trkpt lat="46.20268" lon="10.41426">
        <ele>1609.981</ele>
        <time>2018-08-11T23:34:35Z</time>
      </trkpt>
      <trkpt lat="46.20254" lon="10.41426">
        <ele>1612.119</ele>
        <time>2018-08-11T23:34:55Z</time>
      </trkpt>
      <trkpt lat="46.20242" lon="10.41417">
        <ele>1612.508</ele>
        <time>2018-08-11T23:35:15Z</time>
      </trkpt>
      <trkpt lat="46.2024" lon="10.41417">
        <ele>1613.058</ele>
        <time>2018-08-11T23:35:35Z</time>
      </trkpt>
      <trkpt lat="46.2024" lon="10.41419">
        <ele>1613.913</ele>
        <time>2018-08-11T23:35:55Z</time>
      </trkpt>
      <trkpt lat="46.20238" lon="10.41421">
        <ele>1616.779</ele>
        <time>2018-08-11T23:36:15Z</time>
      </trkpt>
      <trkpt lat="46.20225" lon="10.41418">
        <ele>1621.263</ele>
        <time>2018-08-11T23:36:35Z</time>
      </trkpt>
      <trkpt lat="46.20222" lon="10.41417">
        <ele>1622.368</ele>
        <time>2018-08-11T23:36:55Z</time>
      </trkpt>
      <trkpt lat="46.20222" lon="10.41417">
        <ele>1622.799</ele>
        <time>2018-08-11T23:37:15Z</time>
      </trkpt>
      <trkpt lat="46.20211" lon="10.41419">
        <ele>1630.526</ele>
        <time>2018-08-11T23:37:35Z</time>
      </trkpt>
      <trkpt lat="46.20199" lon="10.41419">
        <ele>1638.249</ele>
        <time>2018-08-11T23:37:55Z</time>
      </trkpt>
      <trkpt lat="46.20186" lon="10.41415">
        <ele>1644.651</ele>
        <time>2018-08-11T23:38:15Z</time>
      </trkpt>
      <trkpt lat="46.20178" lon="10.41415">
        <ele>1649.501</ele>
        <time>2018-08-11T23:38:35Z</time>
      </trkpt>
      <trkpt lat="46.20166" lon="10.41415">
        <ele>1656.711</ele>
        <time>2018-08-11T23:38:55Z</time>
      </trkpt>
      <trkpt lat="46.20152" lon="10.41413">
        <ele>1662.908</ele>
        <time>2018-08-11T23:39:15Z</time>
      </trkpt>
      <trkpt lat="46.20145" lon="10.41405">
        <ele>1662.677</ele>
        <time>2018-08-11T23:39:35Z</time>
      </trkpt>
      <trkpt lat="46.20139" lon="10.41397">
        <ele>1660.492</ele>
        <time>2018-08-11T23:39:55Z</time>
      </trkpt>
      <trkpt lat="46.20135" lon="10.4139">
        <ele>1661.058</ele>
        <time>2018-08-11T23:40:15Z</time>
      </trkpt>
      <trkpt lat="46.20129" lon="10.41381">
        <ele>1664.832</ele>
        <time>2018-08-11T23:40:35Z</time>
      </trkpt>
      <trkpt lat="46.20126" lon="10.41379">
        <ele>1667.337</ele>
        <time>2018-08-11T23:40:55Z</time>
      </trkpt>
      <trkpt lat="46.20119" lon="10.41375">
        <ele>1672.758</ele>
        <time>2018-08-11T23:41:15Z</time>
      </trkpt>
      <trkpt lat="46.20113" lon="10.4137">
        <ele>1677.295</ele>
        <time>2018-08-11T23:41:35Z</time>
      </trkpt>
      <trkpt lat="46.20109" lon="10.41367">
        <ele>1680.368</ele>
        <time>2018-08-11T23:41:55Z</time>
      </trkpt>
      <trkpt lat="46.20107" lon="10.41366">
        <ele>1681.974</ele>
        <time>2018-08-11T23:42:15Z</time>
      </trkpt>
      <trkpt lat="46.20105" lon="10.41365">
        <ele>1683.356</ele>
        <time>2018-08-11T23:42:35Z</time>
      </trkpt>
      <trkpt lat="46.20099" lon="10.41359">
        <ele>1688.921</ele>
        <time>2018-08-11T23:42:55Z</time>
      </trkpt>
      <trkpt lat="46.20098" lon="10.41357">
        <ele>1690.208</ele>
        <time>2018-08-11T23:43:15Z</time>
      </trkpt>
      <trkpt lat="46.20093" lon="10.41349">
        <ele>1695.439</ele>
        <time>2018-08-11T23:43:35Z</time>
      </trkpt>
      <trkpt lat="46.2009" lon="10.41344">
        <ele>1699.154</ele>
        <time>2018-08-11T23:43:55Z</time>
      </trkpt>
      <trkpt lat="46.20081" lon="10.41328">
        <ele>1712.25</ele>
        <time>2018-08-11T23:44:15Z</time>
      </trkpt>
      <trkpt lat="46.20079" lon="10.41328">
        <ele>1713.974</ele>
        <time>2018-08-11T23:44:35Z</time>
      </trkpt>
      <trkpt lat="46.20073" lon="10.41321">
        <ele>1719.979</ele>
        <time>2018-08-11T23:44:55Z</time>
      </trkpt>
      <trkpt lat="46.20067" lon="10.41318">
        <ele>1724.87</ele>
        <time>2018-08-11T23:45:15Z</time>
      </trkpt>
      <trkpt lat="46.20067" lon="10.41318">
        <ele>1725.097</ele>
        <time>2018-08-11T23:45:35Z</time>
      </trkpt>
      <trkpt lat="46.20063" lon="10.41317">
        <ele>1727.96</ele>
        <time>2018-08-11T23:45:55Z</time>
      </trkpt>
      <trkpt lat="46.20062" lon="10.41316">
        <ele>1728.867</ele>
        <time>2018-08-11T23:46:15Z</time>
      </trkpt>
      <trkpt lat="46.2006" lon="10.41316">
        <ele>1730.781</ele>
        <time>2018-08-11T23:46:35Z</time>
      </trkpt>
      <trkpt lat="46.20056" lon="10.41314">
        <ele>1733.119</ele>
        <time>2018-08-11T23:46:55Z</time>
      </trkpt>
      <trkpt lat="46.2005" lon="10.41308">
        <ele>1737.008</ele>
        <time>2018-08-11T23:47:15Z</time>
      </trkpt>
      <trkpt lat="46.20047" lon="10.41306">
        <ele>1738.698</ele>
        <time>2018-08-11T23:47:35Z</time>
      </trkpt>
      <trkpt lat="46.20043" lon="10.41298">
        <ele>1741.693</ele>
        <time>2018-08-11T23:47:55Z</time>
      </trkpt>
      <trkpt lat="46.20042" lon="10.41297">
        <ele>1741.969</ele>
        <time>2018-08-11T23:48:15Z</time>
      </trkpt>
      <trkpt lat="46.2004" lon="10.4129">
        <ele>1743.433</ele>
        <time>2018-08-11T23:48:35Z</time>
      </trkpt>
      <trkpt lat="46.2004" lon="10.41284">
        <ele>1743.358</ele>
        <time>2018-08-11T23:48:55Z</time>
      </trkpt>
      <trkpt lat="46.20037" lon="10.4128">
        <ele>1744.949</ele>
        <time>2018-08-11T23:49:15Z</time>
      </trkpt>
      <trkpt lat="46.20035" lon="10.41278">
        <ele>1746.336</ele>
        <time>2018-08-11T23:49:35Z</time>
      </trkpt>
      <trkpt lat="46.20031" lon="10.41266">
        <ele>1748.079</ele>
        <time>2018-08-11T23:49:55Z</time>
      </trkpt>
      <trkpt lat="46.20027" lon="10.41254">
        <ele>1750.227</ele>
        <time>2018-08-11T23:50:15Z</time>
      </trkpt>
      <trkpt lat="46.20024" lon="10.41251">
        <ele>1751.368</ele>
        <time>2018-08-11T23:50:35Z</time>
      </trkpt>
      <trkpt lat="46.20022" lon="10.41249">
        <ele>1752.214</ele>
        <time>2018-08-11T23:50:55Z</time>
      </trkpt>
      <trkpt lat="46.20018" lon="10.41251">
        <ele>1753.808</ele>
        <time>2018-08-11T23:51:15Z</time>
      </trkpt>
      <trkpt lat="46.20015" lon="10.41251">
        <ele>1755.014</ele>
        <time>2018-08-11T23:51:35Z</time>
      </trkpt>
      <trkpt lat="46.20013" lon="10.41252">
        <ele>1756.069</ele>
        <time>2018-08-11T23:51:55Z</time>
      </trkpt>
      <trkpt lat="46.2001" lon="10.41254">
        <ele>1757.425</ele>
        <time>2018-08-11T23:52:15Z</time>
      </trkpt>
      <trkpt lat="46.20008" lon="10.41257">
        <ele>1758.489</ele>
        <time>2018-08-11T23:52:35Z</time>
      </trkpt>
      <trkpt lat="46.20002" lon="10.41263">
        <ele>1762.114</ele>
        <time>2018-08-11T23:52:55Z</time>
      </trkpt>
      <trkpt lat="46.19995" lon="10.41265">
        <ele>1765.345</ele>
        <time>2018-08-11T23:53:15Z</time>
      </trkpt>
      <trkpt lat="46.19991" lon="10.41267">
        <ele>1767.222</ele>
        <time>2018-08-11T23:53:35Z</time>
      </trkpt>
      <trkpt lat="46.19989" lon="10.4126">
        <ele>1766.835</ele>
        <time>2018-08-11T23:53:55Z</time>
      </trkpt>
      <trkpt lat="46.19985" lon="10.41261">
        <ele>1769.051</ele>
        <time>2018-08-11T23:54:15Z</time>
      </trkpt>
      <trkpt lat="46.19986" lon="10.41268">
        <ele>1769.901</ele>
        <time>2018-08-11T23:54:35Z</time>
      </trkpt>
      <trkpt lat="46.19984" lon="10.4127">
        <ele>1771.011</ele>
        <time>2018-08-11T23:54:55Z</time>
      </trkpt>
      <trkpt lat="46.19982" lon="10.41272">
        <ele>1772.408</ele>
        <time>2018-08-11T23:55:15Z</time>
      </trkpt>
      <trkpt lat="46.19982" lon="10.41281">
        <ele>1774.147</ele>
        <time>2018-08-11T23:55:35Z</time>
      </trkpt>
      <trkpt lat="46.19984" lon="10.41287">
        <ele>1774.672</ele>
        <time>2018-08-11T23:55:55Z</time>
      </trkpt>
      <trkpt lat="46.1998" lon="10.41289">
        <ele>1776.618</ele>
        <time>2018-08-11T23:56:15Z</time>
      </trkpt>
      <trkpt lat="46.19979" lon="10.41295">
        <ele>1778.512</ele>
        <time>2018-08-11T23:56:35Z</time>
      </trkpt>
      <trkpt lat="46.1998" lon="10.41299">
        <ele>1778.817</ele>
        <time>2018-08-11T23:56:55Z</time>
      </trkpt>
      <trkpt lat="46.19979" lon="10.41305">
        <ele>1780.638</ele>
        <time>2018-08-11T23:57:15Z</time>
      </trkpt>
      <trkpt lat="46.19977" lon="10.41311">
        <ele>1783.015</ele>
        <time>2018-08-11T23:57:35Z</time>
      </trkpt>
      <trkpt lat="46.19979" lon="10.41318">
        <ele>1784.128</ele>
        <time>2018-08-11T23:57:55Z</time>
      </trkpt>
      <trkpt lat="46.19982" lon="10.4132">
        <ele>1783.235</ele>
        <time>2018-08-11T23:58:15Z</time>
      </trkpt>
      <trkpt lat="46.19988" lon="10.41323">
        <ele>1780.986</ele>
        <time>2018-08-11T23:58:35Z</time>
      </trkpt>
      <trkpt lat="46.19993" lon="10.41322">
        <ele>1778.214</ele>
        <time>2018-08-11T23:58:55Z</time>
      </trkpt>
      <trkpt lat="46.20001" lon="10.41327">
        <ele>1775.408</ele>
        <time>2018-08-11T23:59:15Z</time>
      </trkpt>
      <trkpt lat="46.19998" lon="10.41339">
        <ele>1781.675</ele>
        <time>2018-08-11T23:59:35Z</time>
      </trkpt>
      <trkpt lat="46.19997" lon="10.41343">
        <ele>1783.75</ele>
        <time>2018-08-11T23:59:55Z</time>
      </trkpt>
      <trkpt lat="46.19989" lon="10.41352">
        <ele>1791.076</ele>
        <time>2018-08-12T00:00:15Z</time>
      </trkpt>
      <trkpt lat="46.19986" lon="10.41353">
        <ele>1793.17</ele>
        <time>2018-08-12T00:00:35Z</time>
      </trkpt>
      <trkpt lat="46.19975" lon="10.41358">
        <ele>1798.955</ele>
        <time>2018-08-12T00:00:55Z</time>
      </trkpt>
      <trkpt lat="46.19975" lon="10.41359">
        <ele>1799.276</ele>
        <time>2018-08-12T00:01:15Z</time>
      </trkpt>
      <trkpt lat="46.19973" lon="10.41358">
        <ele>1799.763</ele>
        <time>2018-08-12T00:01:35Z</time>
      </trkpt>
      <trkpt lat="46.19971" lon="10.41358">
        <ele>1800.156</ele>
        <time>2018-08-12T00:01:55Z</time>
      </trkpt>
      <trkpt lat="46.1997" lon="10.41358">
        <ele>1800.281</ele>
        <time>2018-08-12T00:02:15Z</time>
      </trkpt>
      <trkpt lat="46.19967" lon="10.41359">
        <ele>1801.061</ele>
        <time>2018-08-12T00:02:35Z</time>
      </trkpt>
      <trkpt lat="46.19962" lon="10.41357">
        <ele>1801.317</ele>
        <time>2018-08-12T00:02:55Z</time>
      </trkpt>
      <trkpt lat="46.19961" lon="10.41356">
        <ele>1801.308</ele>
        <time>2018-08-12T00:03:15Z</time>
      </trkpt>
      <trkpt lat="46.19949" lon="10.41354">
        <ele>1802.99</ele>
        <time>2018-08-12T00:03:35Z</time>
      </trkpt>
      <trkpt lat="46.19946" lon="10.41354">
        <ele>1803.565</ele>
        <time>2018-08-12T00:03:55Z</time>
      </trkpt>
      <trkpt lat="46.19924" lon="10.4138">
        <ele>1812.431</ele>
        <time>2018-08-12T00:04:15Z</time>
      </trkpt>
      <trkpt lat="46.19912" lon="10.41386">
        <ele>1815.935</ele>
        <time>2018-08-12T00:04:35Z</time>
      </trkpt>
      <trkpt lat="46.199" lon="10.4139">
        <ele>1817.96</ele>
        <time>2018-08-12T00:04:55Z</time>
      </trkpt>
      <trkpt lat="46.19899" lon="10.41398">
        <ele>1819.031</ele>
        <time>2018-08-12T00:05:15Z</time>
      </trkpt>
      <trkpt lat="46.19895" lon="10.41392">
        <ele>1818.678</ele>
        <time>2018-08-12T00:05:35Z</time>
      </trkpt>
      <trkpt lat="46.1989" lon="10.41404">
        <ele>1820.591</ele>
        <time>2018-08-12T00:05:55Z</time>
      </trkpt>
      <trkpt lat="46.19888" lon="10.41402">
        <ele>1820.428</ele>
        <time>2018-08-12T00:06:15Z</time>
      </trkpt>
      <trkpt lat="46.19895" lon="10.41412">
        <ele>1820.989</ele>
        <time>2018-08-12T00:06:35Z</time>
      </trkpt>
      <trkpt lat="46.19904" lon="10.41413">
        <ele>1820.417</ele>
        <time>2018-08-12T00:06:55Z</time>
      </trkpt>
      <trkpt lat="46.19916" lon="10.41418">
        <ele>1820.308</ele>
        <time>2018-08-12T00:07:15Z</time>
      </trkpt>
      <trkpt lat="46.19924" lon="10.41421">
        <ele>1819.834</ele>
        <time>2018-08-12T00:07:35Z</time>
      </trkpt>
      <trkpt lat="46.19936" lon="10.41418">
        <ele>1817.659</ele>
        <time>2018-08-12T00:07:55Z</time>
      </trkpt>
      <trkpt lat="46.19942" lon="10.41427">
        <ele>1818.425</ele>
        <time>2018-08-12T00:08:15Z</time>
      </trkpt>
      <trkpt lat="46.19941" lon="10.41448">
        <ele>1823.239</ele>
        <time>2018-08-12T00:08:35Z</time>
      </trkpt>
      <trkpt lat="46.19932" lon="10.41454">
        <ele>1825.684</ele>
        <time>2018-08-12T00:08:55Z</time>
      </trkpt>
      <trkpt lat="46.19922" lon="10.41464">
        <ele>1828.875</ele>
        <time>2018-08-12T00:09:15Z</time>
      </trkpt>
      <trkpt lat="46.19919" lon="10.41471">
        <ele>1830.632</ele>
        <time>2018-08-12T00:09:35Z</time>
      </trkpt>
      <trkpt lat="46.19917" lon="10.41478">
        <ele>1832.435</ele>
        <time>2018-08-12T00:09:55Z</time>
      </trkpt>
      <trkpt lat="46.1991" lon="10.41496">
        <ele>1836.958</ele>
        <time>2018-08-12T00:10:15Z</time>
      </trkpt>
      <trkpt lat="46.19907" lon="10.41504">
        <ele>1838.952</ele>
        <time>2018-08-12T00:10:35Z</time>
      </trkpt>
      <trkpt lat="46.19903" lon="10.41519">
        <ele>1842.817</ele>
        <time>2018-08-12T00:10:55Z</time>
      </trkpt>
      <trkpt lat="46.19899" lon="10.41541">
        <ele>1848.108</ele>
        <time>2018-08-12T00:11:15Z</time>
      </trkpt>
      <trkpt lat="46.19896" lon="10.41553">
        <ele>1850.747</ele>
        <time>2018-08-12T00:11:35Z</time>
      </trkpt>
      <trkpt lat="46.19894" lon="10.41563">
        <ele>1853.442</ele>
        <time>2018-08-12T00:11:55Z</time>
      </trkpt>
      <trkpt lat="46.19888" lon="10.41575">
        <ele>1856.018</ele>
        <time>2018-08-12T00:12:15Z</time>
      </trkpt>
      <trkpt lat="46.19878" lon="10.41587">
        <ele>1860.592</ele>
        <time>2018-08-12T00:12:35Z</time>
      </trkpt>
      <trkpt lat="46.19872" lon="10.41595">
        <ele>1863.577</ele>
        <time>2018-08-12T00:12:55Z</time>
      </trkpt>
      <trkpt lat="46.19869" lon="10.41597">
        <ele>1864.418</ele>
        <time>2018-08-12T00:13:15Z</time>
      </trkpt>
      <trkpt lat="46.19869" lon="10.4161">
        <ele>1867.975</ele>
        <time>2018-08-12T00:13:35Z</time>
      </trkpt>
      <trkpt lat="46.19867" lon="10.4162">
        <ele>1870.698</ele>
        <time>2018-08-12T00:13:55Z</time>
      </trkpt>
      <trkpt lat="46.1987" lon="10.41625">
        <ele>1871.433</ele>
        <time>2018-08-12T00:14:15Z</time>
      </trkpt>
      <trkpt lat="46.19873" lon="10.41639">
        <ele>1874.723</ele>
        <time>2018-08-12T00:14:35Z</time>
      </trkpt>
      <trkpt lat="46.19874" lon="10.41649">
        <ele>1877.215</ele>
        <time>2018-08-12T00:14:55Z</time>
      </trkpt>
      <trkpt lat="46.19874" lon="10.41655">
        <ele>1878.808</ele>
        <time>2018-08-12T00:15:15Z</time>
      </trkpt>
      <trkpt lat="46.19876" lon="10.41665">
        <ele>1881.575</ele>
        <time>2018-08-12T00:15:35Z</time>
      </trkpt>
      <trkpt lat="46.19877" lon="10.41677">
        <ele>1885.47</ele>
        <time>2018-08-12T00:15:55Z</time>
      </trkpt>
      <trkpt lat="46.19875" lon="10.41682">
        <ele>1887.066</ele>
        <time>2018-08-12T00:16:15Z</time>
      </trkpt>
      <trkpt lat="46.19868" lon="10.4168">
        <ele>1886.43</ele>
        <time>2018-08-12T00:16:35Z</time>
      </trkpt>
      <trkpt lat="46.19864" lon="10.41674">
        <ele>1884.875</ele>
        <time>2018-08-12T00:16:55Z</time>
      </trkpt>
      <trkpt lat="46.1986" lon="10.41657">
        <ele>1881.036</ele>
        <time>2018-08-12T00:17:15Z</time>
      </trkpt>
      <trkpt lat="46.19855" lon="10.41645">
        <ele>1881.233</ele>
        <time>2018-08-12T00:17:35Z</time>
      </trkpt>
      <trkpt lat="46.19846" lon="10.41638">
        <ele>1884.876</ele>
        <time>2018-08-12T00:17:55Z</time>
      </trkpt>
      <trkpt lat="46.19838" lon="10.4163">
        <ele>1886.961</ele>
        <time>2018-08-12T00:18:15Z</time>
      </trkpt>
      <trkpt lat="46.19831" lon="10.41612">
        <ele>1886.821</ele>
        <time>2018-08-12T00:18:35Z</time>
      </trkpt>
      <trkpt lat="46.1982" lon="10.4159">
        <ele>1889.113</ele>
        <time>2018-08-12T00:18:55Z</time>
      </trkpt>
      <trkpt lat="46.1981" lon="10.41572">
        <ele>1895.008</ele>
        <time>2018-08-12T00:19:15Z</time>
      </trkpt>
      <trkpt lat="46.19805" lon="10.41569">
        <ele>1898.738</ele>
        <time>2018-08-12T00:19:35Z</time>
      </trkpt>
      <trkpt lat="46.19798" lon="10.41566">
        <ele>1901.913</ele>
        <time>2018-08-12T00:19:55Z</time>
      </trkpt>
      <trkpt lat="46.19783" lon="10.41554">
        <ele>1908.219</ele>
        <time>2018-08-12T00:20:15Z</time>
      </trkpt>
      <trkpt lat="46.19783" lon="10.41554">
        <ele>1908.243</ele>
        <time>2018-08-12T00:20:35Z</time>
      </trkpt>
      <trkpt lat="46.19781" lon="10.4155">
        <ele>1908.138</ele>
        <time>2018-08-12T00:20:55Z</time>
      </trkpt>
      <trkpt lat="46.19775" lon="10.41528">
        <ele>1908.169</ele>
        <time>2018-08-12T00:21:15Z</time>
      </trkpt>
      <trkpt lat="46.19773" lon="10.41526">
        <ele>1909.276</ele>
        <time>2018-08-12T00:21:35Z</time>
      </trkpt>
      <trkpt lat="46.19763" lon="10.4151">
        <ele>1914.979</ele>
        <time>2018-08-12T00:21:55Z</time>
      </trkpt>
      <trkpt lat="46.19755" lon="10.41497">
        <ele>1919.538</ele>
        <time>2018-08-12T00:22:15Z</time>
      </trkpt>
      <trkpt lat="46.19705" lon="10.41429">
        <ele>1921.37</ele>
        <time>2018-08-12T00:22:35Z</time>
      </trkpt>
      <trkpt lat="46.19698" lon="10.41422">
        <ele>1923.017</ele>
        <time>2018-08-12T00:22:55Z</time>
      </trkpt>
      <trkpt lat="46.19693" lon="10.41417">
        <ele>1925.508</ele>
        <time>2018-08-12T00:23:15Z</time>
      </trkpt>
      <trkpt lat="46.19683" lon="10.41408">
        <ele>1925.245</ele>
        <time>2018-08-12T00:23:35Z</time>
      </trkpt>
      <trkpt lat="46.19675" lon="10.41401">
        <ele>1926.07</ele>
        <time>2018-08-12T00:23:55Z</time>
      </trkpt>
      <trkpt lat="46.19668" lon="10.41403">
        <ele>1929.726</ele>
        <time>2018-08-12T00:24:15Z</time>
      </trkpt>
      <trkpt lat="46.19667" lon="10.41403">
        <ele>1929.94</ele>
        <time>2018-08-12T00:24:35Z</time>
      </trkpt>
      <trkpt lat="46.1966" lon="10.41406">
        <ele>1933.075</ele>
        <time>2018-08-12T00:24:55Z</time>
      </trkpt>
      <trkpt lat="46.19654" lon="10.41401">
        <ele>1933.396</ele>
        <time>2018-08-12T00:25:15Z</time>
      </trkpt>
      <trkpt lat="46.19654" lon="10.41401">
        <ele>1933.243</ele>
        <time>2018-08-12T00:25:35Z</time>
      </trkpt>
      <trkpt lat="46.1965" lon="10.41389">
        <ele>1930.956</ele>
        <time>2018-08-12T00:25:55Z</time>
      </trkpt>
      <trkpt lat="46.19649" lon="10.41388">
        <ele>1930.726</ele>
        <time>2018-08-12T00:26:15Z</time>
      </trkpt>
      <trkpt lat="46.19621" lon="10.41406">
        <ele>1936.647</ele>
        <time>2018-08-12T00:26:35Z</time>
      </trkpt>
      <trkpt lat="46.19617" lon="10.41411">
        <ele>1937.411</ele>
        <time>2018-08-12T00:26:55Z</time>
      </trkpt>
      <trkpt lat="46.19608" lon="10.4142">
        <ele>1937.708</ele>
        <time>2018-08-12T00:27:15Z</time>
      </trkpt>
      <trkpt lat="46.19602" lon="10.41423">
        <ele>1935.724</ele>
        <time>2018-08-12T00:27:35Z</time>
      </trkpt>
      <trkpt lat="46.19595" lon="10.41424">
        <ele>1932.839</ele>
        <time>2018-08-12T00:27:55Z</time>
      </trkpt>
      <trkpt lat="46.19586" lon="10.41433">
        <ele>1932.255</ele>
        <time>2018-08-12T00:28:15Z</time>
      </trkpt>
      <trkpt lat="46.1958" lon="10.41436">
        <ele>1930.699</ele>
        <time>2018-08-12T00:28:35Z</time>
      </trkpt>
      <trkpt lat="46.19572" lon="10.41432">
        <ele>1926.764</ele>
        <time>2018-08-12T00:28:55Z</time>
      </trkpt>
      <trkpt lat="46.19565" lon="10.41437">
        <ele>1925.835</ele>
        <time>2018-08-12T00:29:15Z</time>
      </trkpt>
      <trkpt lat="46.19559" lon="10.41439">
        <ele>1923.642</ele>
        <time>2018-08-12T00:29:35Z</time>
      </trkpt>
      <trkpt lat="46.19551" lon="10.41436">
        <ele>1922.355</ele>
        <time>2018-08-12T00:29:55Z</time>
      </trkpt>
      <trkpt lat="46.19536" lon="10.41437">
        <ele>1923.227</ele>
        <time>2018-08-12T00:30:15Z</time>
      </trkpt>
      <trkpt lat="46.19528" lon="10.41435">
        <ele>1923.368</ele>
        <time>2018-08-12T00:30:35Z</time>
      </trkpt>
      <trkpt lat="46.19523" lon="10.41435">
        <ele>1923.314</ele>
        <time>2018-08-12T00:30:55Z</time>
      </trkpt>
      <trkpt lat="46.19515" lon="10.41437">
        <ele>1923.808</ele>
        <time>2018-08-12T00:31:15Z</time>
      </trkpt>
      <trkpt lat="46.195" lon="10.4144">
        <ele>1924.454</ele>
        <time>2018-08-12T00:31:35Z</time>
      </trkpt>
      <trkpt lat="46.19492" lon="10.41435">
        <ele>1923.669</ele>
        <time>2018-08-12T00:31:55Z</time>
      </trkpt>
      <trkpt lat="46.19483" lon="10.41432">
        <ele>1923.035</ele>
        <time>2018-08-12T00:32:15Z</time>
      </trkpt>
      <trkpt lat="46.19478" lon="10.41436">
        <ele>1923.329</ele>
        <time>2018-08-12T00:32:35Z</time>
      </trkpt>
      <trkpt lat="46.19465" lon="10.41448">
        <ele>1925.214</ele>
        <time>2018-08-12T00:32:55Z</time>
      </trkpt>
      <trkpt lat="46.19458" lon="10.41452">
        <ele>1926.185</ele>
        <time>2018-08-12T00:33:15Z</time>
      </trkpt>
      <trkpt lat="46.19451" lon="10.41451">
        <ele>1925.452</ele>
        <time>2018-08-12T00:33:35Z</time>
      </trkpt>
      <trkpt lat="46.19445" lon="10.41453">
        <ele>1925.485</ele>
        <time>2018-08-12T00:33:55Z</time>
      </trkpt>
      <trkpt lat="46.19436" lon="10.41459">
        <ele>1925.998</ele>
        <time>2018-08-12T00:34:15Z</time>
      </trkpt>
      <trkpt lat="46.19428" lon="10.41464">
        <ele>1926.315</ele>
        <time>2018-08-12T00:34:35Z</time>
      </trkpt>
      <trkpt lat="46.19421" lon="10.41468">
        <ele>1926.526</ele>
        <time>2018-08-12T00:34:55Z</time>
      </trkpt>
      <trkpt lat="46.19408" lon="10.41474">
        <ele>1925.708</ele>
        <time>2018-08-12T00:35:15Z</time>
      </trkpt>
      <trkpt lat="46.19403" lon="10.41477">
        <ele>1925.111</ele>
        <time>2018-08-12T00:35:35Z</time>
      </trkpt>
      <trkpt lat="46.19398" lon="10.41488">
        <ele>1925.526</ele>
        <time>2018-08-12T00:35:55Z</time>
      </trkpt>
      <trkpt lat="46.19391" lon="10.41495">
        <ele>1924.932</ele>
        <time>2018-08-12T00:36:15Z</time>
      </trkpt>
      <trkpt lat="46.19385" lon="10.415">
        <ele>1924.316</ele>
        <time>2018-08-12T00:36:35Z</time>
      </trkpt>
      <trkpt lat="46.1938" lon="10.41509">
        <ele>1924.611</ele>
        <time>2018-08-12T00:36:55Z</time>
      </trkpt>
      <trkpt lat="46.19373" lon="10.41521">
        <ele>1924.542</ele>
        <time>2018-08-12T00:37:15Z</time>
      </trkpt>
      <trkpt lat="46.19371" lon="10.41535">
        <ele>1925.559</ele>
        <time>2018-08-12T00:37:35Z</time>
      </trkpt>
      <trkpt lat="46.1937" lon="10.41545">
        <ele>1926.542</ele>
        <time>2018-08-12T00:37:55Z</time>
      </trkpt>
      <trkpt lat="46.19366" lon="10.4155">
        <ele>1926.456</ele>
        <time>2018-08-12T00:38:15Z</time>
      </trkpt>
      <trkpt lat="46.1937" lon="10.41559">
        <ele>1928.259</ele>
        <time>2018-08-12T00:38:35Z</time>
      </trkpt>
      <trkpt lat="46.19369" lon="10.41578">
        <ele>1930.514</ele>
        <time>2018-08-12T00:38:55Z</time>
      </trkpt>
      <trkpt lat="46.19377" lon="10.41614">
        <ele>1937.208</ele>
        <time>2018-08-12T00:39:15Z</time>
      </trkpt>
      <trkpt lat="46.19375" lon="10.41637">
        <ele>1940.357</ele>
        <time>2018-08-12T00:39:35Z</time>
      </trkpt>
      <trkpt lat="46.19368" lon="10.41653">
        <ele>1939.172</ele>
        <time>2018-08-12T00:39:55Z</time>
      </trkpt>
      <trkpt lat="46.19362" lon="10.41681">
        <ele>1939.438</ele>
        <time>2018-08-12T00:40:15Z</time>
      </trkpt>
      <trkpt lat="46.19343" lon="10.4172">
        <ele>1940.592</ele>
        <time>2018-08-12T00:40:35Z</time>
      </trkpt>
      <trkpt lat="46.19337" lon="10.41742">
        <ele>1941.737</ele>
        <time>2018-08-12T00:40:55Z</time>
      </trkpt>
      <trkpt lat="46.19329" lon="10.41773">
        <ele>1943.978</ele>
        <time>2018-08-12T00:41:15Z</time>
      </trkpt>
      <trkpt lat="46.19309" lon="10.41788">
        <ele>1943.415</ele>
        <time>2018-08-12T00:41:35Z</time>
      </trkpt>
      <trkpt lat="46.19295" lon="10.41797">
        <ele>1943.878</ele>
        <time>2018-08-12T00:41:55Z</time>
      </trkpt>
      <trkpt lat="46.19276" lon="10.41797">
        <ele>1943.428</ele>
        <time>2018-08-12T00:42:15Z</time>
      </trkpt>
      <trkpt lat="46.19271" lon="10.41797">
        <ele>1943.689</ele>
        <time>2018-08-12T00:42:35Z</time>
      </trkpt>
      <trkpt lat="46.19237" lon="10.41802">
        <ele>1945.317</ele>
        <time>2018-08-12T00:42:55Z</time>
      </trkpt>
      <trkpt lat="46.19215" lon="10.41806">
        <ele>1946.508</ele>
        <time>2018-08-12T00:43:15Z</time>
      </trkpt>
      <trkpt lat="46.19194" lon="10.4181">
        <ele>1948.164</ele>
        <time>2018-08-12T00:43:35Z</time>
      </trkpt>
      <trkpt lat="46.19177" lon="10.41816">
        <ele>1948.719</ele>
        <time>2018-08-12T00:43:55Z</time>
      </trkpt>
      <trkpt lat="46.19158" lon="10.41823">
        <ele>1949.025</ele>
        <time>2018-08-12T00:44:15Z</time>
      </trkpt>
      <trkpt lat="46.19134" lon="10.41827">
        <ele>1949.139</ele>
        <time>2018-08-12T00:44:35Z</time>
      </trkpt>
      <trkpt lat="46.19112" lon="10.41822">
        <ele>1949.544</ele>
        <time>2018-08-12T00:44:55Z</time>
      </trkpt>
      <trkpt lat="46.19104" lon="10.41806">
        <ele>1949.065</ele>
        <time>2018-08-12T00:45:15Z</time>
      </trkpt>
      <trkpt lat="46.19107" lon="10.41787">
        <ele>1949.012</ele>
        <time>2018-08-12T00:45:35Z</time>
      </trkpt>
      <trkpt lat="46.19109" lon="10.41759">
        <ele>1949.045</ele>
        <time>2018-08-12T00:45:55Z</time>
      </trkpt>
      <trkpt lat="46.19104" lon="10.41746">
        <ele>1949.063</ele>
        <time>2018-08-12T00:46:15Z</time>
      </trkpt>
      <trkpt lat="46.19091" lon="10.41741">
        <ele>1949.044</ele>
        <time>2018-08-12T00:46:35Z</time>
      </trkpt>
      <trkpt lat="46.19082" lon="10.41748">
        <ele>1949.018</ele>
        <time>2018-08-12T00:46:55Z</time>
      </trkpt>
      <trkpt lat="46.19071" lon="10.41756">
        <ele>1949.008</ele>
        <time>2018-08-12T00:47:15Z</time>
      </trkpt>
      <trkpt lat="46.19042" lon="10.41764">
        <ele>1949.078</ele>
        <time>2018-08-12T00:47:35Z</time>
      </trkpt>
      <trkpt lat="46.19024" lon="10.41775">
        <ele>1949.023</ele>
        <time>2018-08-12T00:47:55Z</time>
      </trkpt>
      <trkpt lat="46.18991" lon="10.41793">
        <ele>1949.529</ele>
        <time>2018-08-12T00:48:15Z</time>
      </trkpt>
      <trkpt lat="46.18977" lon="10.41793">
        <ele>1949.553</ele>
        <time>2018-08-12T00:48:35Z</time>
      </trkpt>
      <trkpt lat="46.18959" lon="10.41809">
        <ele>1950.088</ele>
        <time>2018-08-12T00:48:55Z</time>
      </trkpt>
      <trkpt lat="46.18948" lon="10.41819">
        <ele>1950.069</ele>
        <time>2018-08-12T00:49:15Z</time>
      </trkpt>
      <trkpt lat="46.1892" lon="10.41817">
        <ele>1950.016</ele>
        <time>2018-08-12T00:49:35Z</time>
      </trkpt>
      <trkpt lat="46.18918" lon="10.41791">
        <ele>1949.479</ele>
        <time>2018-08-12T00:49:55Z</time>
      </trkpt>
      <trkpt lat="46.18893" lon="10.41795">
        <ele>1952.048</ele>
        <time>2018-08-12T00:50:15Z</time>
      </trkpt>
      <trkpt lat="46.18883" lon="10.41798">
        <ele>1953.161</ele>
        <time>2018-08-12T00:50:35Z</time>
      </trkpt>
      <trkpt lat="46.18867" lon="10.41799">
        <ele>1955.917</ele>
        <time>2018-08-12T00:50:55Z</time>
      </trkpt>
      <trkpt lat="46.18854" lon="10.41793">
        <ele>1958.408</ele>
        <time>2018-08-12T00:51:15Z</time>
      </trkpt>
      <trkpt lat="46.18819" lon="10.4178">
        <ele>1962.836</ele>
        <time>2018-08-12T00:51:35Z</time>
      </trkpt>
      <trkpt lat="46.18819" lon="10.41779">
        <ele>1962.851</ele>
        <time>2018-08-12T00:51:55Z</time>
      </trkpt>
      <trkpt lat="46.18802" lon="10.41774">
        <ele>1964.657</ele>
        <time>2018-08-12T00:52:15Z</time>
      </trkpt>
      <trkpt lat="46.18797" lon="10.41773">
        <ele>1964.911</ele>
        <time>2018-08-12T00:52:35Z</time>
      </trkpt>
      <trkpt lat="46.18763" lon="10.41766">
        <ele>1967.556</ele>
        <time>2018-08-12T00:52:55Z</time>
      </trkpt>
      <trkpt lat="46.18746" lon="10.41773">
        <ele>1967.717</ele>
        <time>2018-08-12T00:53:15Z</time>
      </trkpt>
      <trkpt lat="46.18728" lon="10.41776">
        <ele>1968.634</ele>
        <time>2018-08-12T00:53:35Z</time>
      </trkpt>
      <trkpt lat="46.187" lon="10.41791">
        <ele>1969.117</ele>
        <time>2018-08-12T00:53:55Z</time>
      </trkpt>
      <trkpt lat="46.1868" lon="10.41788">
        <ele>1970.697</ele>
        <time>2018-08-12T00:54:15Z</time>
      </trkpt>
      <trkpt lat="46.18653" lon="10.41781">
        <ele>1972.823</ele>
        <time>2018-08-12T00:54:35Z</time>
      </trkpt>
      <trkpt lat="46.18637" lon="10.41781">
        <ele>1973.925</ele>
        <time>2018-08-12T00:54:55Z</time>
      </trkpt>
      <trkpt lat="46.1862" lon="10.41796">
        <ele>1974.008</ele>
        <time>2018-08-12T00:55:15Z</time>
      </trkpt>
      <trkpt lat="46.1861" lon="10.41808">
        <ele>1974.091</ele>
        <time>2018-08-12T00:55:35Z</time>
      </trkpt>
      <trkpt lat="46.18597" lon="10.41817">
        <ele>1975.746</ele>
        <time>2018-08-12T00:55:55Z</time>
      </trkpt>
      <trkpt lat="46.18584" lon="10.41825">
        <ele>1979.152</ele>
        <time>2018-08-12T00:56:15Z</time>
      </trkpt>
      <trkpt lat="46.18577" lon="10.41825">
        <ele>1981.356</ele>
        <time>2018-08-12T00:56:35Z</time>
      </trkpt>
      <trkpt lat="46.18571" lon="10.41825">
        <ele>1983.691</ele>
        <time>2018-08-12T00:56:55Z</time>
      </trkpt>
      <trkpt lat="46.18565" lon="10.41825">
        <ele>1986.062</ele>
        <time>2018-08-12T00:57:15Z</time>
      </trkpt>
      <trkpt lat="46.18559" lon="10.41825">
        <ele>1988.189</ele>
        <time>2018-08-12T00:57:35Z</time>
      </trkpt>
      <trkpt lat="46.18549" lon="10.41823">
        <ele>1991.162</ele>
        <time>2018-08-12T00:57:55Z</time>
      </trkpt>
      <trkpt lat="46.18544" lon="10.41825">
        <ele>1992.437</ele>
        <time>2018-08-12T00:58:15Z</time>
      </trkpt>
      <trkpt lat="46.18538" lon="10.41824">
        <ele>1994.049</ele>
        <time>2018-08-12T00:58:35Z</time>
      </trkpt>
      <trkpt lat="46.18531" lon="10.41828">
        <ele>1995.213</ele>
        <time>2018-08-12T00:58:55Z</time>
      </trkpt>
      <trkpt lat="46.18524" lon="10.41832">
        <ele>1995.708</ele>
        <time>2018-08-12T00:59:15Z</time>
      </trkpt>
      <trkpt lat="46.18517" lon="10.41833">
        <ele>1996.665</ele>
        <time>2018-08-12T00:59:35Z</time>
      </trkpt>
      <trkpt lat="46.18504" lon="10.41835">
        <ele>1998.28</ele>
        <time>2018-08-12T00:59:55Z</time>
      </trkpt>
      <trkpt lat="46.18494" lon="10.41837">
        <ele>2000.896</ele>
        <time>2018-08-12T01:00:15Z</time>
      </trkpt>
      <trkpt lat="46.18488" lon="10.41843">
        <ele>2002.35</ele>
        <time>2018-08-12T01:00:35Z</time>
      </trkpt>
      <trkpt lat="46.18476" lon="10.41852">
        <ele>2004.535</ele>
        <time>2018-08-12T01:00:55Z</time>
      </trkpt>
      <trkpt lat="46.18466" lon="10.41854">
        <ele>2007.056</ele>
        <time>2018-08-12T01:01:15Z</time>
      </trkpt>
      <trkpt lat="46.18452" lon="10.41861">
        <ele>2009.993</ele>
        <time>2018-08-12T01:01:35Z</time>
      </trkpt>
      <trkpt lat="46.18432" lon="10.41871">
        <ele>2015.086</ele>
        <time>2018-08-12T01:01:55Z</time>
      </trkpt>
      <trkpt lat="46.18427" lon="10.41869">
        <ele>2016.584</ele>
        <time>2018-08-12T01:02:15Z</time>
      </trkpt>
      <trkpt lat="46.18423" lon="10.4187">
        <ele>2017.407</ele>
        <time>2018-08-12T01:02:35Z</time>
      </trkpt>
      <trkpt lat="46.1842" lon="10.41871">
        <ele>2018.417</ele>
        <time>2018-08-12T01:02:55Z</time>
      </trkpt>
      <trkpt lat="46.18415" lon="10.41872">
        <ele>2019.508</ele>
        <time>2018-08-12T01:03:15Z</time>
      </trkpt>
      <trkpt lat="46.1841" lon="10.41876">
        <ele>2020.08</ele>
        <time>2018-08-12T01:03:35Z</time>
      </trkpt>
      <trkpt lat="46.18401" lon="10.41877">
        <ele>2021.725</ele>
        <time>2018-08-12T01:03:55Z</time>
      </trkpt>
      <trkpt lat="46.18395" lon="10.41878">
        <ele>2022.641</ele>
        <time>2018-08-12T01:04:15Z</time>
      </trkpt>
      <trkpt lat="46.18391" lon="10.4188">
        <ele>2023.365</ele>
        <time>2018-08-12T01:04:35Z</time>
      </trkpt>
      <trkpt lat="46.18377" lon="10.41882">
        <ele>2028.67</ele>
        <time>2018-08-12T01:04:55Z</time>
      </trkpt>
      <trkpt lat="46.18372" lon="10.41881">
        <ele>2031.071</ele>
        <time>2018-08-12T01:05:15Z</time>
      </trkpt>
      <trkpt lat="46.18368" lon="10.41884">
        <ele>2032.068</ele>
        <time>2018-08-12T01:05:35Z</time>
      </trkpt>
      <trkpt lat="46.18366" lon="10.41883">
        <ele>2033.241</ele>
        <time>2018-08-12T01:05:55Z</time>
      </trkpt>
      <trkpt lat="46.18364" lon="10.41877">
        <ele>2035.369</ele>
        <time>2018-08-12T01:06:15Z</time>
      </trkpt>
      <trkpt lat="46.18354" lon="10.4187">
        <ele>2039.704</ele>
        <time>2018-08-12T01:06:35Z</time>
      </trkpt>
      <trkpt lat="46.1835" lon="10.4187">
        <ele>2040.524</ele>
        <time>2018-08-12T01:06:55Z</time>
      </trkpt>
      <trkpt lat="46.18345" lon="10.41868">
        <ele>2042.008</ele>
        <time>2018-08-12T01:07:15Z</time>
      </trkpt>
      <trkpt lat="46.1834" lon="10.41865">
        <ele>2043.578</ele>
        <time>2018-08-12T01:07:35Z</time>
      </trkpt>
      <trkpt lat="46.18332" lon="10.41864">
        <ele>2045.663</ele>
        <time>2018-08-12T01:07:55Z</time>
      </trkpt>
      <trkpt lat="46.18333" lon="10.41855">
        <ele>2047.319</ele>
        <time>2018-08-12T01:08:15Z</time>
      </trkpt>
      <trkpt lat="46.18331" lon="10.41847">
        <ele>2049.663</ele>
        <time>2018-08-12T01:08:35Z</time>
      </trkpt>
      <trkpt lat="46.18327" lon="10.41842">
        <ele>2051.888</ele>
        <time>2018-08-12T01:08:55Z</time>
      </trkpt>
      <trkpt lat="46.18325" lon="10.4184">
        <ele>2052.929</ele>
        <time>2018-08-12T01:09:15Z</time>
      </trkpt>
      <trkpt lat="46.18323" lon="10.41835">
        <ele>2054.476</ele>
        <time>2018-08-12T01:09:35Z</time>
      </trkpt>
      <trkpt lat="46.18318" lon="10.41835">
        <ele>2055.879</ele>
        <time>2018-08-12T01:09:55Z</time>
      </trkpt>
      <trkpt lat="46.18317" lon="10.41834">
        <ele>2056.541</ele>
        <time>2018-08-12T01:10:15Z</time>
      </trkpt>
      <trkpt lat="46.18313" lon="10.41827">
        <ele>2060.181</ele>
        <time>2018-08-12T01:10:35Z</time>
      </trkpt>
      <trkpt lat="46.18309" lon="10.41826">
        <ele>2062.009</ele>
        <time>2018-08-12T01:10:55Z</time>
      </trkpt>
      <trkpt lat="46.18304" lon="10.41826">
        <ele>2063.308</ele>
        <time>2018-08-12T01:11:15Z</time>
      </trkpt>
      <trkpt lat="46.18297" lon="10.41825">
        <ele>2066.066</ele>
        <time>2018-08-12T01:11:35Z</time>
      </trkpt>
      <trkpt lat="46.18307" lon="10.41812">
        <ele>2067.961</ele>
        <time>2018-08-12T01:11:55Z</time>
      </trkpt>
      <trkpt lat="46.1831" lon="10.41807">
        <ele>2068.697</ele>
        <time>2018-08-12T01:12:15Z</time>
      </trkpt>
      <trkpt lat="46.18317" lon="10.41799">
        <ele>2069.331</ele>
        <time>2018-08-12T01:12:35Z</time>
      </trkpt>
      <trkpt lat="46.1832" lon="10.4179">
        <ele>2071.446</ele>
        <time>2018-08-12T01:12:55Z</time>
      </trkpt>
      <trkpt lat="46.18316" lon="10.41788">
        <ele>2073.567</ele>
        <time>2018-08-12T01:13:15Z</time>
      </trkpt>
      <trkpt lat="46.18312" lon="10.41788">
        <ele>2075.074</ele>
        <time>2018-08-12T01:13:35Z</time>
      </trkpt>
      <trkpt lat="46.18313" lon="10.41782">
        <ele>2076.787</ele>
        <time>2018-08-12T01:13:55Z</time>
      </trkpt>
      <trkpt lat="46.18308" lon="10.4178">
        <ele>2078.521</ele>
        <time>2018-08-12T01:14:15Z</time>
      </trkpt>
      <trkpt lat="46.18303" lon="10.4178">
        <ele>2079.841</ele>
        <time>2018-08-12T01:14:35Z</time>
      </trkpt>
      <trkpt lat="46.18308" lon="10.41773">
        <ele>2081.805</ele>
        <time>2018-08-12T01:14:55Z</time>
      </trkpt>
      <trkpt lat="46.18306" lon="10.41769">
        <ele>2084.108</ele>
        <time>2018-08-12T01:15:15Z</time>
      </trkpt>
      <trkpt lat="46.18303" lon="10.41771">
        <ele>2083.844</ele>
        <time>2018-08-12T01:15:35Z</time>
      </trkpt>
      <trkpt lat="46.18299" lon="10.41772">
        <ele>2083.769</ele>
        <time>2018-08-12T01:15:55Z</time>
      </trkpt>
      <trkpt lat="46.18298" lon="10.41766">
        <ele>2086.675</ele>
        <time>2018-08-12T01:16:15Z</time>
      </trkpt>
      <trkpt lat="46.18298" lon="10.41762">
        <ele>2088.379</ele>
        <time>2018-08-12T01:16:35Z</time>
      </trkpt>
      <trkpt lat="46.18291" lon="10.41764">
        <ele>2088.384</ele>
        <time>2018-08-12T01:16:55Z</time>
      </trkpt>
      <trkpt lat="46.18289" lon="10.41754">
        <ele>2092.955</ele>
        <time>2018-08-12T01:17:15Z</time>
      </trkpt>
      <trkpt lat="46.18286" lon="10.41759">
        <ele>2091.462</ele>
        <time>2018-08-12T01:17:35Z</time>
      </trkpt>
      <trkpt lat="46.18282" lon="10.41758">
        <ele>2092.315</ele>
        <time>2018-08-12T01:17:55Z</time>
      </trkpt>
      <trkpt lat="46.18275" lon="10.41761">
        <ele>2092.366</ele>
        <time>2018-08-12T01:18:15Z</time>
      </trkpt>
      <trkpt lat="46.18275" lon="10.41755">
        <ele>2094.329</ele>
        <time>2018-08-12T01:18:35Z</time>
      </trkpt>
      <trkpt lat="46.1827" lon="10.41757">
        <ele>2094.721</ele>
        <time>2018-08-12T01:18:55Z</time>
      </trkpt>
      <trkpt lat="46.18267" lon="10.41757">
        <ele>2095.208</ele>
        <time>2018-08-12T01:19:15Z</time>
      </trkpt>
      <trkpt lat="46.18264" lon="10.41757">
        <ele>2095.778</ele>
        <time>2018-08-12T01:19:35Z</time>
      </trkpt>
      <trkpt lat="46.18259" lon="10.41757">
        <ele>2096.513</ele>
        <time>2018-08-12T01:19:55Z</time>
      </trkpt>
      <trkpt lat="46.18255" lon="10.41757">
        <ele>2097.279</ele>
        <time>2018-08-12T01:20:15Z</time>
      </trkpt>
      <trkpt lat="46.18258" lon="10.41749">
        <ele>2099.543</ele>
        <time>2018-08-12T01:20:35Z</time>
      </trkpt>
      <trkpt lat="46.1826" lon="10.41745">
        <ele>2101.698</ele>
        <time>2018-08-12T01:20:55Z</time>
      </trkpt>
      <trkpt lat="46.18259" lon="10.41741">
        <ele>2104.459</ele>
        <time>2018-08-12T01:21:15Z</time>
      </trkpt>
      <trkpt lat="46.18261" lon="10.41737">
        <ele>2106.656</ele>
        <time>2018-08-12T01:21:35Z</time>
      </trkpt>
      <trkpt lat="46.18257" lon="10.41737">
        <ele>2108.069</ele>
        <time>2018-08-12T01:21:55Z</time>
      </trkpt>
      <trkpt lat="46.18251" lon="10.41737">
        <ele>2108.812</ele>
        <time>2018-08-12T01:22:15Z</time>
      </trkpt>
      <trkpt lat="46.18257" lon="10.41725">
        <ele>2115.732</ele>
        <time>2018-08-12T01:22:35Z</time>
      </trkpt>
      <trkpt lat="46.18258" lon="10.41719">
        <ele>2119.405</ele>
        <time>2018-08-12T01:22:55Z</time>
      </trkpt>
      <trkpt lat="46.18256" lon="10.41717">
        <ele>2121.108</ele>
        <time>2018-08-12T01:23:15Z</time>
      </trkpt>
      <trkpt lat="46.18249" lon="10.41721">
        <ele>2120.963</ele>
        <time>2018-08-12T01:23:35Z</time>
      </trkpt>
      <trkpt lat="46.18245" lon="10.41719">
        <ele>2123.658</ele>
        <time>2018-08-12T01:23:55Z</time>
      </trkpt>
      <trkpt lat="46.18248" lon="10.41716">
        <ele>2124.114</ele>
        <time>2018-08-12T01:24:15Z</time>
      </trkpt>
      <trkpt lat="46.1825" lon="10.41713">
        <ele>2124.888</ele>
        <time>2018-08-12T01:24:35Z</time>
      </trkpt>
      <trkpt lat="46.18249" lon="10.41706">
        <ele>2128.233</ele>
        <time>2018-08-12T01:24:55Z</time>
      </trkpt>
      <trkpt lat="46.18242" lon="10.4171">
        <ele>2129.264</ele>
        <time>2018-08-12T01:25:15Z</time>
      </trkpt>
      <trkpt lat="46.18243" lon="10.41702">
        <ele>2132.461</ele>
        <time>2018-08-12T01:25:35Z</time>
      </trkpt>
      <trkpt lat="46.18238" lon="10.41706">
        <ele>2133.054</ele>
        <time>2018-08-12T01:25:55Z</time>
      </trkpt>
      <trkpt lat="46.18233" lon="10.41705">
        <ele>2135.114</ele>
        <time>2018-08-12T01:26:15Z</time>
      </trkpt>
      <trkpt lat="46.18235" lon="10.41701">
        <ele>2136.354</ele>
        <time>2018-08-12T01:26:35Z</time>
      </trkpt>
      <trkpt lat="46.18237" lon="10.41695">
        <ele>2138.109</ele>
        <time>2018-08-12T01:26:55Z</time>
      </trkpt>
      <trkpt lat="46.18235" lon="10.41693">
        <ele>2139.308</ele>
        <time>2018-08-12T01:27:15Z</time>
      </trkpt>
      <trkpt lat="46.18232" lon="10.41693">
        <ele>2140.353</ele>
        <time>2018-08-12T01:27:35Z</time>
      </trkpt>
      <trkpt lat="46.18229" lon="10.41694">
        <ele>2141.038</ele>
        <time>2018-08-12T01:27:55Z</time>
      </trkpt>
      <trkpt lat="46.18224" lon="10.41692">
        <ele>2143.354</ele>
        <time>2018-08-12T01:28:15Z</time>
      </trkpt>
      <trkpt lat="46.18221" lon="10.41692">
        <ele>2144.578</ele>
        <time>2018-08-12T01:28:35Z</time>
      </trkpt>
      <trkpt lat="46.18219" lon="10.41688">
        <ele>2146.873</ele>
        <time>2018-08-12T01:28:55Z</time>
      </trkpt>
      <trkpt lat="46.18209" lon="10.41633">
        <ele>2179.944</ele>
        <time>2018-08-12T01:29:15Z</time>
      </trkpt>
      <trkpt lat="46.18215" lon="10.41623">
        <ele>2183.851</ele>
        <time>2018-08-12T01:29:35Z</time>
      </trkpt>
      <trkpt lat="46.18211" lon="10.41622">
        <ele>2184.914</ele>
        <time>2018-08-12T01:29:55Z</time>
      </trkpt>
      <trkpt lat="46.18209" lon="10.4162">
        <ele>2186.358</ele>
        <time>2018-08-12T01:30:15Z</time>
      </trkpt>
      <trkpt lat="46.18211" lon="10.41616">
        <ele>2188.052</ele>
        <time>2018-08-12T01:30:35Z</time>
      </trkpt>
      <trkpt lat="46.18213" lon="10.41609">
        <ele>2191.517</ele>
        <time>2018-08-12T01:30:55Z</time>
      </trkpt>
      <trkpt lat="46.1821" lon="10.41609">
        <ele>2191.808</ele>
        <time>2018-08-12T01:31:15Z</time>
      </trkpt>
      <trkpt lat="46.18207" lon="10.41609">
        <ele>2192.067</ele>
        <time>2018-08-12T01:31:35Z</time>
      </trkpt>
      <trkpt lat="46.18209" lon="10.41605">
        <ele>2194.262</ele>
        <time>2018-08-12T01:31:55Z</time>
      </trkpt>
      <trkpt lat="46.18208" lon="10.41601">
        <ele>2196.598</ele>
        <time>2018-08-12T01:32:15Z</time>
      </trkpt>
      <trkpt lat="46.18206" lon="10.41599">
        <ele>2197.522</ele>
        <time>2018-08-12T01:32:35Z</time>
      </trkpt>
      <trkpt lat="46.18204" lon="10.41599">
        <ele>2197.937</ele>
        <time>2018-08-12T01:32:55Z</time>
      </trkpt>
      <trkpt lat="46.18205" lon="10.41596">
        <ele>2199.498</ele>
        <time>2018-08-12T01:33:15Z</time>
      </trkpt>
      <trkpt lat="46.18204" lon="10.41587">
        <ele>2204.165</ele>
        <time>2018-08-12T01:33:35Z</time>
      </trkpt>
      <trkpt lat="46.182" lon="10.41585">
        <ele>2205.388</ele>
        <time>2018-08-12T01:33:55Z</time>
      </trkpt>
      <trkpt lat="46.18197" lon="10.41585">
        <ele>2205.775</ele>
        <time>2018-08-12T01:34:15Z</time>
      </trkpt>
      <trkpt lat="46.18195" lon="10.41586">
        <ele>2205.728</ele>
        <time>2018-08-12T01:34:35Z</time>
      </trkpt>
      <trkpt lat="46.18193" lon="10.41583">
        <ele>2208.22</ele>
        <time>2018-08-12T01:34:55Z</time>
      </trkpt>
      <trkpt lat="46.1819" lon="10.41583">
        <ele>2209.408</ele>
        <time>2018-08-12T01:35:15Z</time>
      </trkpt>
      <trkpt lat="46.18189" lon="10.4158">
        <ele>2212.169</ele>
        <time>2018-08-12T01:35:35Z</time>
      </trkpt>
      <trkpt lat="46.18187" lon="10.4158">
        <ele>2213.284</ele>
        <time>2018-08-12T01:35:55Z</time>
      </trkpt>
      <trkpt lat="46.18182" lon="10.41581">
        <ele>2214.95</ele>
        <time>2018-08-12T01:36:15Z</time>
      </trkpt>
      <trkpt lat="46.1818" lon="10.41578">
        <ele>2217.554</ele>
        <time>2018-08-12T01:36:35Z</time>
      </trkpt>
      <trkpt lat="46.18181" lon="10.41572">
        <ele>2221.129</ele>
        <time>2018-08-12T01:36:55Z</time>
      </trkpt>
      <trkpt lat="46.18182" lon="10.41564">
        <ele>2225.83</ele>
        <time>2018-08-12T01:37:15Z</time>
      </trkpt>
      <trkpt lat="46.18178" lon="10.41556">
        <ele>2231.927</ele>
        <time>2018-08-12T01:37:35Z</time>
      </trkpt>
      <trkpt lat="46.18173" lon="10.41554">
        <ele>2234.14</ele>
        <time>2018-08-12T01:37:55Z</time>
      </trkpt>
      <trkpt lat="46.18174" lon="10.41544">
        <ele>2239.249</ele>
        <time>2018-08-12T01:38:15Z</time>
      </trkpt>
      <trkpt lat="46.18175" lon="10.4154">
        <ele>2240.502</ele>
        <time>2018-08-12T01:38:35Z</time>
      </trkpt>
      <trkpt lat="46.18171" lon="10.41535">
        <ele>2244.122</ele>
        <time>2018-08-12T01:38:55Z</time>
      </trkpt>
      <trkpt lat="46.18167" lon="10.41534">
        <ele>2245.708</ele>
        <time>2018-08-12T01:39:15Z</time>
      </trkpt>
      <trkpt lat="46.18166" lon="10.41533">
        <ele>2246.636</ele>
        <time>2018-08-12T01:39:35Z</time>
      </trkpt>
      <trkpt lat="46.1816" lon="10.41531">
        <ele>2249.191</ele>
        <time>2018-08-12T01:39:55Z</time>
      </trkpt>
      <trkpt lat="46.18155" lon="10.41529">
        <ele>2251.017</ele>
        <time>2018-08-12T01:40:15Z</time>
      </trkpt>
      <trkpt lat="46.1815" lon="10.41527">
        <ele>2253.041</ele>
        <time>2018-08-12T01:40:35Z</time>
      </trkpt>
      <trkpt lat="46.18152" lon="10.41523">
        <ele>2255.886</ele>
        <time>2018-08-12T01:40:55Z</time>
      </trkpt>
      <trkpt lat="46.18156" lon="10.41506">
        <ele>2265.417</ele>
        <time>2018-08-12T01:41:15Z</time>
      </trkpt>
      <trkpt lat="46.18151" lon="10.41507">
        <ele>2266.514</ele>
        <time>2018-08-12T01:41:35Z</time>
      </trkpt>
      <trkpt lat="46.18147" lon="10.41507">
        <ele>2267.737</ele>
        <time>2018-08-12T01:41:55Z</time>
      </trkpt>
      <trkpt lat="46.1814" lon="10.41505">
        <ele>2270.773</ele>
        <time>2018-08-12T01:42:15Z</time>
      </trkpt>
      <trkpt lat="46.18142" lon="10.41501">
        <ele>2273.285</ele>
        <time>2018-08-12T01:42:35Z</time>
      </trkpt>
      <trkpt lat="46.18139" lon="10.41501">
        <ele>2274.113</ele>
        <time>2018-08-12T01:42:55Z</time>
      </trkpt>
      <trkpt lat="46.18136" lon="10.415">
        <ele>2275.808</ele>
        <time>2018-08-12T01:43:15Z</time>
      </trkpt>
      <trkpt lat="46.18134" lon="10.415">
        <ele>2275.749</ele>
        <time>2018-08-12T01:43:35Z</time>
      </trkpt>
      <trkpt lat="46.18131" lon="10.41501">
        <ele>2276.014</ele>
        <time>2018-08-12T01:43:55Z</time>
      </trkpt>
      <trkpt lat="46.18125" lon="10.41497">
        <ele>2279.96</ele>
        <time>2018-08-12T01:44:15Z</time>
      </trkpt>
      <trkpt lat="46.18119" lon="10.41502">
        <ele>2278.024</ele>
        <time>2018-08-12T01:44:35Z</time>
      </trkpt>
      <trkpt lat="46.18116" lon="10.41502">
        <ele>2278.889</ele>
        <time>2018-08-12T01:44:55Z</time>
      </trkpt>
      <trkpt lat="46.18113" lon="10.41503">
        <ele>2278.51</ele>
        <time>2018-08-12T01:45:15Z</time>
      </trkpt>
      <trkpt lat="46.18108" lon="10.41502">
        <ele>2282.027</ele>
        <time>2018-08-12T01:45:35Z</time>
      </trkpt>
      <trkpt lat="46.18103" lon="10.41506">
        <ele>2281.92</ele>
        <time>2018-08-12T01:45:55Z</time>
      </trkpt>
      <trkpt lat="46.18101" lon="10.41507">
        <ele>2282.418</ele>
        <time>2018-08-12T01:46:15Z</time>
      </trkpt>
      <trkpt lat="46.18098" lon="10.41509">
        <ele>2283.098</ele>
        <time>2018-08-12T01:46:35Z</time>
      </trkpt>
      <trkpt lat="46.18093" lon="10.41512">
        <ele>2284.117</ele>
        <time>2018-08-12T01:46:55Z</time>
      </trkpt>
      <trkpt lat="46.18091" lon="10.41509">
        <ele>2287.608</ele>
        <time>2018-08-12T01:47:15Z</time>
      </trkpt>
      <trkpt lat="46.18088" lon="10.41503">
        <ele>2292.653</ele>
        <time>2018-08-12T01:47:35Z</time>
      </trkpt>
      <trkpt lat="46.18085" lon="10.41507">
        <ele>2292.688</ele>
        <time>2018-08-12T01:47:55Z</time>
      </trkpt>
      <trkpt lat="46.18081" lon="10.41509">
        <ele>2294.694</ele>
        <time>2018-08-12T01:48:15Z</time>
      </trkpt>
      <trkpt lat="46.1808" lon="10.41508">
        <ele>2296.558</ele>
        <time>2018-08-12T01:48:35Z</time>
      </trkpt>
      <trkpt lat="46.18078" lon="10.41504">
        <ele>2300.833</ele>
        <time>2018-08-12T01:48:55Z</time>
      </trkpt>
      <trkpt lat="46.18077" lon="10.41503">
        <ele>2302.144</ele>
        <time>2018-08-12T01:49:15Z</time>
      </trkpt>
      <trkpt lat="46.18069" lon="10.41495">
        <ele>2310.651</ele>
        <time>2018-08-12T01:49:35Z</time>
      </trkpt>
      <trkpt lat="46.18069" lon="10.41495">
        <ele>2311.194</ele>
        <time>2018-08-12T01:49:55Z</time>
      </trkpt>
      <trkpt lat="46.18068" lon="10.4149">
        <ele>2312.662</ele>
        <time>2018-08-12T01:50:15Z</time>
      </trkpt>
      <trkpt lat="46.18066" lon="10.4149">
        <ele>2313.883</ele>
        <time>2018-08-12T01:50:35Z</time>
      </trkpt>
      <trkpt lat="46.18064" lon="10.41487">
        <ele>2315.011</ele>
        <time>2018-08-12T01:50:55Z</time>
      </trkpt>
      <trkpt lat="46.18064" lon="10.41482">
        <ele>2315.708</ele>
        <time>2018-08-12T01:51:15Z</time>
      </trkpt>
      <trkpt lat="46.18063" lon="10.41478">
        <ele>2316.498</ele>
        <time>2018-08-12T01:51:35Z</time>
      </trkpt>
      <trkpt lat="46.1806" lon="10.41477">
        <ele>2316.883</ele>
        <time>2018-08-12T01:51:55Z</time>
      </trkpt>
      <trkpt lat="46.18057" lon="10.41476">
        <ele>2317.119</ele>
        <time>2018-08-12T01:52:15Z</time>
      </trkpt>
      <trkpt lat="46.18055" lon="10.41473">
        <ele>2317.143</ele>
        <time>2018-08-12T01:52:35Z</time>
      </trkpt>
      <trkpt lat="46.18053" lon="10.41469">
        <ele>2316.758</ele>
        <time>2018-08-12T01:52:55Z</time>
      </trkpt>
      <trkpt lat="46.18052" lon="10.41464">
        <ele>2316.069</ele>
        <time>2018-08-12T01:53:15Z</time>
      </trkpt>
      <trkpt lat="46.18049" lon="10.41457">
        <ele>2314.656</ele>
        <time>2018-08-12T01:53:35Z</time>
      </trkpt>
      <trkpt lat="46.18047" lon="10.41456">
        <ele>2314.279</ele>
        <time>2018-08-12T01:53:55Z</time>
      </trkpt>
      <trkpt lat="46.18029" lon="10.41465">
        <ele>2314.416</ele>
        <time>2018-08-12T01:54:15Z</time>
      </trkpt>
      <trkpt lat="46.18022" lon="10.41467">
        <ele>2313.476</ele>
        <time>2018-08-12T01:54:35Z</time>
      </trkpt>
      <trkpt lat="46.17997" lon="10.41486">
        <ele>2311.713</ele>
        <time>2018-08-12T01:54:55Z</time>
      </trkpt>
      <trkpt lat="46.17986" lon="10.41491">
        <ele>2311.908</ele>
        <time>2018-08-12T01:55:15Z</time>
      </trkpt>
      <trkpt lat="46.17981" lon="10.41496">
        <ele>2312.913</ele>
        <time>2018-08-12T01:55:35Z</time>
      </trkpt>
      <trkpt lat="46.17962" lon="10.41521">
        <ele>2316.668</ele>
        <time>2018-08-12T01:55:55Z</time>
      </trkpt>
      <trkpt lat="46.18036" lon="10.41386">
        <ele>2288.074</ele>
        <time>2018-08-12T01:56:15Z</time>
      </trkpt>
      <trkpt lat="46.18035" lon="10.41377">
        <ele>2285.228</ele>
        <time>2018-08-12T01:56:35Z</time>
      </trkpt>
      <trkpt lat="46.18037" lon="10.41373">
        <ele>2284.993</ele>
        <time>2018-08-12T01:56:55Z</time>
      </trkpt>
      <trkpt lat="46.18035" lon="10.41364">
        <ele>2280.814</ele>
        <time>2018-08-12T01:57:15Z</time>
      </trkpt>
      <trkpt lat="46.18036" lon="10.41359">
        <ele>2280.851</ele>
        <time>2018-08-12T01:57:35Z</time>
      </trkpt>
      <trkpt lat="46.18035" lon="10.41355">
        <ele>2279.474</ele>
        <time>2018-08-12T01:57:55Z</time>
      </trkpt>
      <trkpt lat="46.18036" lon="10.4135">
        <ele>2279.436</ele>
        <time>2018-08-12T01:58:15Z</time>
      </trkpt>
      <trkpt lat="46.18038" lon="10.41342">
        <ele>2279.917</ele>
        <time>2018-08-12T01:58:35Z</time>
      </trkpt>
      <trkpt lat="46.18033" lon="10.41331">
        <ele>2274.218</ele>
        <time>2018-08-12T01:58:55Z</time>
      </trkpt>
      <trkpt lat="46.18033" lon="10.41328">
        <ele>2272.508</ele>
        <time>2018-08-12T01:59:15Z</time>
      </trkpt>
      <trkpt lat="46.18033" lon="10.41318">
        <ele>2269.425</ele>
        <time>2018-08-12T01:59:35Z</time>
      </trkpt>
      <trkpt lat="46.1803" lon="10.4132">
        <ele>2267.26</ele>
        <time>2018-08-12T01:59:55Z</time>
      </trkpt>
      <trkpt lat="46.18028" lon="10.41323">
        <ele>2265.616</ele>
        <time>2018-08-12T02:00:15Z</time>
      </trkpt>
      <trkpt lat="46.18024" lon="10.41327">
        <ele>2264.45</ele>
        <time>2018-08-12T02:00:35Z</time>
      </trkpt>
      <trkpt lat="46.18011" lon="10.41316">
        <ele>2249.515</ele>
        <time>2018-08-12T02:00:55Z</time>
      </trkpt>
      <trkpt lat="46.1801" lon="10.41311">
        <ele>2247.746</ele>
        <time>2018-08-12T02:01:15Z</time>
      </trkpt>
      <trkpt lat="46.18008" lon="10.41302">
        <ele>2242.783</ele>
        <time>2018-08-12T02:01:35Z</time>
      </trkpt>
      <trkpt lat="46.18005" lon="10.41296">
        <ele>2238.986</ele>
        <time>2018-08-12T02:01:55Z</time>
      </trkpt>
      <trkpt lat="46.18001" lon="10.41289">
        <ele>2234.237</ele>
        <time>2018-08-12T02:02:15Z</time>
      </trkpt>
      <trkpt lat="46.17999" lon="10.41287">
        <ele>2232.749</ele>
        <time>2018-08-12T02:02:35Z</time>
      </trkpt>
      <trkpt lat="46.17987" lon="10.4128">
        <ele>2223.113</ele>
        <time>2018-08-12T02:02:55Z</time>
      </trkpt>
      <trkpt lat="46.17986" lon="10.41279">
        <ele>2221.808</ele>
        <time>2018-08-12T02:03:15Z</time>
      </trkpt>
      <trkpt lat="46.17982" lon="10.41254">
        <ele>2210.285</ele>
        <time>2018-08-12T02:03:35Z</time>
      </trkpt>
      <trkpt lat="46.17971" lon="10.41223">
        <ele>2189.61</ele>
        <time>2018-08-12T02:03:55Z</time>
      </trkpt>
      <trkpt lat="46.17958" lon="10.41207">
        <ele>2173.176</ele>
        <time>2018-08-12T02:04:15Z</time>
      </trkpt>
      <trkpt lat="46.17948" lon="10.41198">
        <ele>2163.13</ele>
        <time>2018-08-12T02:04:35Z</time>
      </trkpt>
      <trkpt lat="46.17943" lon="10.41195">
        <ele>2159.195</ele>
        <time>2018-08-12T02:04:55Z</time>
      </trkpt>
      <trkpt lat="46.17921" lon="10.41159">
        <ele>2133.316</ele>
        <time>2018-08-12T02:05:15Z</time>
      </trkpt>
      <trkpt lat="46.17914" lon="10.41154">
        <ele>2128.233</ele>
        <time>2018-08-12T02:05:35Z</time>
      </trkpt>
      <trkpt lat="46.17909" lon="10.41143">
        <ele>2119.886</ele>
        <time>2018-08-12T02:05:55Z</time>
      </trkpt>
      <trkpt lat="46.17913" lon="10.41136">
        <ele>2116.374</ele>
        <time>2018-08-12T02:06:15Z</time>
      </trkpt>
      <trkpt lat="46.17916" lon="10.41134">
        <ele>2115.656</ele>
        <time>2018-08-12T02:06:35Z</time>
      </trkpt>
      <trkpt lat="46.17916" lon="10.41133">
        <ele>2115.021</ele>
        <time>2018-08-12T02:06:55Z</time>
      </trkpt>
      <trkpt lat="46.17915" lon="10.41128">
        <ele>2111.808</ele>
        <time>2018-08-12T02:07:15Z</time>
      </trkpt>
      <trkpt lat="46.1791" lon="10.41121">
        <ele>2106.549</ele>
        <time>2018-08-12T02:07:35Z</time>
      </trkpt>
      <trkpt lat="46.17912" lon="10.41117">
        <ele>2104.414</ele>
        <time>2018-08-12T02:07:55Z</time>
      </trkpt>
      <trkpt lat="46.17911" lon="10.41114">
        <ele>2102.62</ele>
        <time>2018-08-12T02:08:15Z</time>
      </trkpt>
      <trkpt lat="46.17913" lon="10.41114">
        <ele>2102.844</ele>
        <time>2018-08-12T02:08:35Z</time>
      </trkpt>
      <trkpt lat="46.17915" lon="10.41111">
        <ele>2100.519</ele>
        <time>2018-08-12T02:08:55Z</time>
      </trkpt>
      <trkpt lat="46.1792" lon="10.41112">
        <ele>2101.41</ele>
        <time>2018-08-12T02:09:15Z</time>
      </trkpt>
      <trkpt lat="46.17926" lon="10.41104">
        <ele>2096.497</ele>
        <time>2018-08-12T02:09:35Z</time>
      </trkpt>
      <trkpt lat="46.17936" lon="10.41087">
        <ele>2089.74</ele>
        <time>2018-08-12T02:09:55Z</time>
      </trkpt>
      <trkpt lat="46.17938" lon="10.41084">
        <ele>2088.954</ele>
        <time>2018-08-12T02:10:15Z</time>
      </trkpt>
      <trkpt lat="46.17944" lon="10.41069">
        <ele>2085.756</ele>
        <time>2018-08-12T02:10:35Z</time>
      </trkpt>
      <trkpt lat="46.17942" lon="10.41065">
        <ele>2083.611</ele>
        <time>2018-08-12T02:10:55Z</time>
      </trkpt>
      <trkpt lat="46.17935" lon="10.41056">
        <ele>2078.208</ele>
        <time>2018-08-12T02:11:15Z</time>
      </trkpt>
      <trkpt lat="46.17926" lon="10.41047">
        <ele>2072.177</ele>
        <time>2018-08-12T02:11:35Z</time>
      </trkpt>
      <trkpt lat="46.17915" lon="10.41035">
        <ele>2063.752</ele>
        <time>2018-08-12T02:11:55Z</time>
      </trkpt>
      <trkpt lat="46.17914" lon="10.41035">
        <ele>2063.488</ele>
        <time>2018-08-12T02:12:15Z</time>
      </trkpt>
      <trkpt lat="46.1791" lon="10.41032">
        <ele>2060.942</ele>
        <time>2018-08-12T02:12:35Z</time>
      </trkpt>
      <trkpt lat="46.17904" lon="10.41009">
        <ele>2049.857</ele>
        <time>2018-08-12T02:12:55Z</time>
      </trkpt>
      <trkpt lat="46.17903" lon="10.41007">
        <ele>2048.548</ele>
        <time>2018-08-12T02:13:15Z</time>
      </trkpt>
      <trkpt lat="46.17919" lon="10.40982">
        <ele>2052.295</ele>
        <time>2018-08-12T02:13:35Z</time>
      </trkpt>
      <trkpt lat="46.17922" lon="10.40975">
        <ele>2055.048</ele>
        <time>2018-08-12T02:13:55Z</time>
      </trkpt>
      <trkpt lat="46.17922" lon="10.40974">
        <ele>2054.624</ele>
        <time>2018-08-12T02:14:15Z</time>
      </trkpt>
      <trkpt lat="46.17919" lon="10.4097">
        <ele>2051.204</ele>
        <time>2018-08-12T02:14:35Z</time>
      </trkpt>
      <trkpt lat="46.17911" lon="10.40969">
        <ele>2045.714</ele>
        <time>2018-08-12T02:14:55Z</time>
      </trkpt>
      <trkpt lat="46.17907" lon="10.40966">
        <ele>2042.808</ele>
        <time>2018-08-12T02:15:15Z</time>
      </trkpt>
      <trkpt lat="46.17908" lon="10.40949">
        <ele>2038.334</ele>
        <time>2018-08-12T02:15:35Z</time>
      </trkpt>
      <trkpt lat="46.17907" lon="10.40949">
        <ele>2037.849</ele>
        <time>2018-08-12T02:15:55Z</time>
      </trkpt>
      <trkpt lat="46.17879" lon="10.40943">
        <ele>2017.345</ele>
        <time>2018-08-12T02:16:15Z</time>
      </trkpt>
      <trkpt lat="46.17873" lon="10.40934">
        <ele>2011.239</ele>
        <time>2018-08-12T02:16:35Z</time>
      </trkpt>
      <trkpt lat="46.17855" lon="10.40904">
        <ele>1993.724</ele>
        <time>2018-08-12T02:16:55Z</time>
      </trkpt>
      <trkpt lat="46.17807" lon="10.40848">
        <ele>1948.215</ele>
        <time>2018-08-12T02:17:15Z</time>
      </trkpt>
      <trkpt lat="46.17783" lon="10.40808">
        <ele>1928.892</ele>
        <time>2018-08-12T02:17:35Z</time>
      </trkpt>
      <trkpt lat="46.17764" lon="10.40775">
        <ele>1913.915</ele>
        <time>2018-08-12T02:17:55Z</time>
      </trkpt>
      <trkpt lat="46.17757" lon="10.40739">
        <ele>1904.857</ele>
        <time>2018-08-12T02:18:15Z</time>
      </trkpt>
      <trkpt lat="46.17757" lon="10.40738">
        <ele>1904.5</ele>
        <time>2018-08-12T02:18:35Z</time>
      </trkpt>
      <trkpt lat="46.17748" lon="10.40692">
        <ele>1893.12</ele>
        <time>2018-08-12T02:18:55Z</time>
      </trkpt>
      <trkpt lat="46.17739" lon="10.40654">
        <ele>1880.908</ele>
        <time>2018-08-12T02:19:15Z</time>
      </trkpt>
      <trkpt lat="46.17732" lon="10.40623">
        <ele>1872.997</ele>
        <time>2018-08-12T02:19:35Z</time>
      </trkpt>
      <trkpt lat="46.1773" lon="10.40617">
        <ele>1871.352</ele>
        <time>2018-08-12T02:19:55Z</time>
      </trkpt>
      <trkpt lat="46.1771" lon="10.40552">
        <ele>1854.138</ele>
        <time>2018-08-12T02:20:15Z</time>
      </trkpt>
      <trkpt lat="46.1771" lon="10.40549">
        <ele>1853.832</ele>
        <time>2018-08-12T02:20:35Z</time>
      </trkpt>
      <trkpt lat="46.17699" lon="10.40528">
        <ele>1848.577</ele>
        <time>2018-08-12T02:20:55Z</time>
      </trkpt>
      <trkpt lat="46.17682" lon="10.40501">
        <ele>1835.158</ele>
        <time>2018-08-12T02:21:15Z</time>
      </trkpt>
      <trkpt lat="46.17674" lon="10.40489">
        <ele>1828.795</ele>
        <time>2018-08-12T02:21:35Z</time>
      </trkpt>
      <trkpt lat="46.17658" lon="10.40463">
        <ele>1818.748</ele>
        <time>2018-08-12T02:21:55Z</time>
      </trkpt>
      <trkpt lat="46.17653" lon="10.40458">
        <ele>1816.653</ele>
        <time>2018-08-12T02:22:15Z</time>
      </trkpt>
      <trkpt lat="46.17648" lon="10.40453">
        <ele>1814.204</ele>
        <time>2018-08-12T02:22:35Z</time>
      </trkpt>
      <trkpt lat="46.17645" lon="10.40448">
        <ele>1812.414</ele>
        <time>2018-08-12T02:22:55Z</time>
      </trkpt>
      <trkpt lat="46.1764" lon="10.40436">
        <ele>1808.408</ele>
        <time>2018-08-12T02:23:15Z</time>
      </trkpt>
      <trkpt lat="46.17637" lon="10.40431">
        <ele>1805.417</ele>
        <time>2018-08-12T02:23:35Z</time>
      </trkpt>
      <trkpt lat="46.17634" lon="10.40426">
        <ele>1802.532</ele>
        <time>2018-08-12T02:23:55Z</time>
      </trkpt>
      <trkpt lat="46.17633" lon="10.4042">
        <ele>1800.218</ele>
        <time>2018-08-12T02:24:15Z</time>
      </trkpt>
      <trkpt lat="46.17629" lon="10.40412">
        <ele>1796.322</ele>
        <time>2018-08-12T02:24:35Z</time>
      </trkpt>
      <trkpt lat="46.17624" lon="10.40401">
        <ele>1791.557</ele>
        <time>2018-08-12T02:24:55Z</time>
      </trkpt>
      <trkpt lat="46.17621" lon="10.40398">
        <ele>1788.678</ele>
        <time>2018-08-12T02:25:15Z</time>
      </trkpt>
      <trkpt lat="46.17617" lon="10.4039">
        <ele>1784.725</ele>
        <time>2018-08-12T02:25:35Z</time>
      </trkpt>
      <trkpt lat="46.17614" lon="10.40378">
        <ele>1780.478</ele>
        <time>2018-08-12T02:25:55Z</time>
      </trkpt>
      <trkpt lat="46.17612" lon="10.40363">
        <ele>1776.218</ele>
        <time>2018-08-12T02:26:15Z</time>
      </trkpt>
      <trkpt lat="46.17612" lon="10.40355">
        <ele>1775.598</ele>
        <time>2018-08-12T02:26:35Z</time>
      </trkpt>
      <trkpt lat="46.17613" lon="10.40345">
        <ele>1774.917</ele>
        <time>2018-08-12T02:26:55Z</time>
      </trkpt>
      <trkpt lat="46.17611" lon="10.40327">
        <ele>1772.208</ele>
        <time>2018-08-12T02:27:15Z</time>
      </trkpt>
      <trkpt lat="46.1761" lon="10.40317">
        <ele>1770.223</ele>
        <time>2018-08-12T02:27:35Z</time>
      </trkpt>
      <trkpt lat="46.17611" lon="10.40309">
        <ele>1769.378</ele>
        <time>2018-08-12T02:27:55Z</time>
      </trkpt>
      <trkpt lat="46.17609" lon="10.40301">
        <ele>1767.574</ele>
        <time>2018-08-12T02:28:15Z</time>
      </trkpt>
      <trkpt lat="46.1761" lon="10.40295">
        <ele>1767.868</ele>
        <time>2018-08-12T02:28:35Z</time>
      </trkpt>
      <trkpt lat="46.17612" lon="10.40287">
        <ele>1769.363</ele>
        <time>2018-08-12T02:28:55Z</time>
      </trkpt>
      <trkpt lat="46.17613" lon="10.40274">
        <ele>1771.664</ele>
        <time>2018-08-12T02:29:15Z</time>
      </trkpt>
      <trkpt lat="46.1761" lon="10.40256">
        <ele>1774.331</ele>
        <time>2018-08-12T02:29:35Z</time>
      </trkpt>
      <trkpt lat="46.17608" lon="10.40248">
        <ele>1774.744</ele>
        <time>2018-08-12T02:29:55Z</time>
      </trkpt>
      <trkpt lat="46.17605" lon="10.40241">
        <ele>1772.856</ele>
        <time>2018-08-12T02:30:15Z</time>
      </trkpt>
      <trkpt lat="46.17599" lon="10.40226">
        <ele>1769.059</ele>
        <time>2018-08-12T02:30:35Z</time>
      </trkpt>
      <trkpt lat="46.17596" lon="10.40215">
        <ele>1768.014</ele>
        <time>2018-08-12T02:30:55Z</time>
      </trkpt>
      <trkpt lat="46.17593" lon="10.40205">
        <ele>1765.208</ele>
        <time>2018-08-12T02:31:15Z</time>
      </trkpt>
      <trkpt lat="46.17589" lon="10.40191">
        <ele>1761.937</ele>
        <time>2018-08-12T02:31:35Z</time>
      </trkpt>
      <trkpt lat="46.17585" lon="10.40177">
        <ele>1760.062</ele>
        <time>2018-08-12T02:31:55Z</time>
      </trkpt>
      <trkpt lat="46.17581" lon="10.40169">
        <ele>1756.638</ele>
        <time>2018-08-12T02:32:15Z</time>
      </trkpt>
      <trkpt lat="46.17578" lon="10.40162">
        <ele>1754.382</ele>
        <time>2018-08-12T02:32:35Z</time>
      </trkpt>
      <trkpt lat="46.17575" lon="10.40154">
        <ele>1752.537</ele>
        <time>2018-08-12T02:32:55Z</time>
      </trkpt>
      <trkpt lat="46.1757" lon="10.40136">
        <ele>1750.728</ele>
        <time>2018-08-12T02:33:15Z</time>
      </trkpt>
      <trkpt lat="46.17565" lon="10.40126">
        <ele>1746.745</ele>
        <time>2018-08-12T02:33:35Z</time>
      </trkpt>
      <trkpt lat="46.17563" lon="10.40116">
        <ele>1746.368</ele>
        <time>2018-08-12T02:33:55Z</time>
      </trkpt>
      <trkpt lat="46.17561" lon="10.40105">
        <ele>1746.072</ele>
        <time>2018-08-12T02:34:15Z</time>
      </trkpt>
      <trkpt lat="46.17557" lon="10.40084">
        <ele>1744.913</ele>
        <time>2018-08-12T02:34:35Z</time>
      </trkpt>
      <trkpt lat="46.17553" lon="10.40063">
        <ele>1745.314</ele>
        <time>2018-08-12T02:34:55Z</time>
      </trkpt>
      <trkpt lat="46.17541" lon="10.40037">
        <ele>1745.908</ele>
        <time>2018-08-12T02:35:15Z</time>
      </trkpt>
      <trkpt lat="46.17528" lon="10.40004">
        <ele>1741.449</ele>
        <time>2018-08-12T02:35:35Z</time>
      </trkpt>
      <trkpt lat="46.17535" lon="10.39985">
        <ele>1750.724</ele>
        <time>2018-08-12T02:35:55Z</time>
      </trkpt>
      <trkpt lat="46.17533" lon="10.3995">
        <ele>1754.46</ele>
        <time>2018-08-12T02:36:15Z</time>
      </trkpt>
      <trkpt lat="46.17538" lon="10.39931">
        <ele>1762.844</ele>
        <time>2018-08-12T02:36:35Z</time>
      </trkpt>
      <trkpt lat="46.17537" lon="10.39889">
        <ele>1771.519</ele>
        <time>2018-08-12T02:36:55Z</time>
      </trkpt>
      <trkpt lat="46.17532" lon="10.39867">
        <ele>1771.97</ele>
        <time>2018-08-12T02:37:15Z</time>
      </trkpt>
      <trkpt lat="46.17521" lon="10.39842">
        <ele>1765.977</ele>
        <time>2018-08-12T02:37:35Z</time>
      </trkpt>
      <trkpt lat="46.17513" lon="10.39814">
        <ele>1771.62</ele>
        <time>2018-08-12T02:37:55Z</time>
      </trkpt>
      <trkpt lat="46.17494" lon="10.39744">
        <ele>1781.887</ele>
        <time>2018-08-12T02:38:15Z</time>
      </trkpt>
      <trkpt lat="46.17472" lon="10.39686">
        <ele>1781.042</ele>
        <time>2018-08-12T02:38:35Z</time>
      </trkpt>
      <trkpt lat="46.17458" lon="10.39626">
        <ele>1781.026</ele>
        <time>2018-08-12T02:38:55Z</time>
      </trkpt>
      <trkpt lat="46.17458" lon="10.39607">
        <ele>1783.908</ele>
        <time>2018-08-12T02:39:15Z</time>
      </trkpt>
      <trkpt lat="46.17317" lon="10.3942">
        <ele>1718.29</ele>
        <time>2018-08-12T02:39:35Z</time>
      </trkpt>
      <trkpt lat="46.17301" lon="10.39385">
        <ele>1720.365</ele>
        <time>2018-08-12T02:39:55Z</time>
      </trkpt>
      <trkpt lat="46.17278" lon="10.39346">
        <ele>1720.891</ele>
        <time>2018-08-12T02:40:15Z</time>
      </trkpt>
      <trkpt lat="46.17273" lon="10.39325">
        <ele>1724.815</ele>
        <time>2018-08-12T02:40:35Z</time>
      </trkpt>
      <trkpt lat="46.17262" lon="10.39299">
        <ele>1725.92</ele>
        <time>2018-08-12T02:40:55Z</time>
      </trkpt>
      <trkpt lat="46.17234" lon="10.39249">
        <ele>1708.651</ele>
        <time>2018-08-12T02:41:15Z</time>
      </trkpt>
      <trkpt lat="46.17234" lon="10.39212">
        <ele>1714.148</ele>
        <time>2018-08-12T02:41:35Z</time>
      </trkpt>
      <trkpt lat="46.17232" lon="10.39177">
        <ele>1720.631</ele>
        <time>2018-08-12T02:41:55Z</time>
      </trkpt>
      <trkpt lat="46.17223" lon="10.39159">
        <ele>1719.372</ele>
        <time>2018-08-12T02:42:15Z</time>
      </trkpt>
      <trkpt lat="46.17211" lon="10.39133">
        <ele>1716.913</ele>
        <time>2018-08-12T02:42:35Z</time>
      </trkpt>
      <trkpt lat="46.17207" lon="10.39108">
        <ele>1719.514</ele>
        <time>2018-08-12T02:42:55Z</time>
      </trkpt>
      <trkpt lat="46.17208" lon="10.39073">
        <ele>1723.708</ele>
        <time>2018-08-12T02:43:15Z</time>
      </trkpt>
      <trkpt lat="46.17208" lon="10.39036">
        <ele>1723.489</ele>
        <time>2018-08-12T02:43:35Z</time>
      </trkpt>
      <trkpt lat="46.17219" lon="10.39019">
        <ele>1727.864</ele>
        <time>2018-08-12T02:43:55Z</time>
      </trkpt>
      <trkpt lat="46.17231" lon="10.38992">
        <ele>1736.52</ele>
        <time>2018-08-12T02:44:15Z</time>
      </trkpt>
      <trkpt lat="46.17234" lon="10.3897">
        <ele>1742.114</ele>
        <time>2018-08-12T02:44:35Z</time>
      </trkpt>
      <trkpt lat="46.17237" lon="10.38952">
        <ele>1748.129</ele>
        <time>2018-08-12T02:44:55Z</time>
      </trkpt>
      <trkpt lat="46.17229" lon="10.38931">
        <ele>1751.02</ele>
        <time>2018-08-12T02:45:15Z</time>
      </trkpt>
      <trkpt lat="46.17218" lon="10.38907">
        <ele>1753.647</ele>
        <time>2018-08-12T02:45:35Z</time>
      </trkpt>
      <trkpt lat="46.17208" lon="10.38881">
        <ele>1756.63</ele>
        <time>2018-08-12T02:45:55Z</time>
      </trkpt>
      <trkpt lat="46.17208" lon="10.38864">
        <ele>1761.343</ele>
        <time>2018-08-12T02:46:15Z</time>
      </trkpt>
      <trkpt lat="46.17202" lon="10.38838">
        <ele>1763.064</ele>
        <time>2018-08-12T02:46:35Z</time>
      </trkpt>
      <trkpt lat="46.17202" lon="10.38823">
        <ele>1766.21</ele>
        <time>2018-08-12T02:46:55Z</time>
      </trkpt>
      <trkpt lat="46.17203" lon="10.38809">
        <ele>1770.608</ele>
        <time>2018-08-12T02:47:15Z</time>
      </trkpt>
      <trkpt lat="46.17198" lon="10.38791">
        <ele>1771.036</ele>
        <time>2018-08-12T02:47:35Z</time>
      </trkpt>
      <trkpt lat="46.17194" lon="10.38777">
        <ele>1772.071</ele>
        <time>2018-08-12T02:47:55Z</time>
      </trkpt>
      <trkpt lat="46.17196" lon="10.38751">
        <ele>1775.057</ele>
        <time>2018-08-12T02:48:15Z</time>
      </trkpt>
      <trkpt lat="46.17192" lon="10.38737">
        <ele>1775.671</ele>
        <time>2018-08-12T02:48:35Z</time>
      </trkpt>
      <trkpt lat="46.17184" lon="10.38719">
        <ele>1775.816</ele>
        <time>2018-08-12T02:48:55Z</time>
      </trkpt>
      <trkpt lat="46.17176" lon="10.38703">
        <ele>1776.537</ele>
        <time>2018-08-12T02:49:15Z</time>
      </trkpt>
      <trkpt lat="46.17165" lon="10.38689">
        <ele>1775.214</ele>
        <time>2018-08-12T02:49:35Z</time>
      </trkpt>
      <trkpt lat="46.17159" lon="10.38672">
        <ele>1775.957</ele>
        <time>2018-08-12T02:49:55Z</time>
      </trkpt>
      <trkpt lat="46.17153" lon="10.38655">
        <ele>1777.226</ele>
        <time>2018-08-12T02:50:15Z</time>
      </trkpt>
      <trkpt lat="46.17147" lon="10.38631">
        <ele>1779.947</ele>
        <time>2018-08-12T02:50:35Z</time>
      </trkpt>
      <trkpt lat="46.1714" lon="10.38594">
        <ele>1783.711</ele>
        <time>2018-08-12T02:50:55Z</time>
      </trkpt>
      <trkpt lat="46.17139" lon="10.38572">
        <ele>1787.108</ele>
        <time>2018-08-12T02:51:15Z</time>
      </trkpt>
      <trkpt lat="46.17149" lon="10.38557">
        <ele>1793.954</ele>
        <time>2018-08-12T02:51:35Z</time>
      </trkpt>
      <trkpt lat="46.17147" lon="10.38549">
        <ele>1794.849</ele>
        <time>2018-08-12T02:51:55Z</time>
      </trkpt>
      <trkpt lat="46.17139" lon="10.38537">
        <ele>1792.665</ele>
        <time>2018-08-12T02:52:15Z</time>
      </trkpt>
      <trkpt lat="46.17125" lon="10.38518">
        <ele>1787.099</ele>
        <time>2018-08-12T02:52:35Z</time>
      </trkpt>
      <trkpt lat="46.17114" lon="10.3849">
        <ele>1787.664</ele>
        <time>2018-08-12T02:52:55Z</time>
      </trkpt>
      <trkpt lat="46.17102" lon="10.38451">
        <ele>1789.145</ele>
        <time>2018-08-12T02:53:15Z</time>
      </trkpt>
      <trkpt lat="46.17093" lon="10.38424">
        <ele>1788.132</ele>
        <time>2018-08-12T02:53:35Z</time>
      </trkpt>
      <trkpt lat="46.17095" lon="10.38405">
        <ele>1794.415</ele>
        <time>2018-08-12T02:53:55Z</time>
      </trkpt>
      <trkpt lat="46.17093" lon="10.38389">
        <ele>1798.523</ele>
        <time>2018-08-12T02:54:15Z</time>
      </trkpt>
      <trkpt lat="46.17087" lon="10.38373">
        <ele>1798.083</ele>
        <time>2018-08-12T02:54:35Z</time>
      </trkpt>
      <trkpt lat="46.17085" lon="10.38358">
        <ele>1800.511</ele>
        <time>2018-08-12T02:54:55Z</time>
      </trkpt>
      <trkpt lat="46.17061" lon="10.38325">
        <ele>1791.908</ele>
        <time>2018-08-12T02:55:15Z</time>
      </trkpt>
      <trkpt lat="46.17042" lon="10.38282">
        <ele>1797.364</ele>
        <time>2018-08-12T02:55:35Z</time>
      </trkpt>
      <trkpt lat="46.17025" lon="10.38244">
        <ele>1800.599</ele>
        <time>2018-08-12T02:55:55Z</time>
      </trkpt>
      <trkpt lat="46.17025" lon="10.38242">
        <ele>1800.785</ele>
        <time>2018-08-12T02:56:15Z</time>
      </trkpt>
      <trkpt lat="46.17025" lon="10.38242">
        <ele>1800.899</ele>
        <time>2018-08-12T02:56:35Z</time>
      </trkpt>
      <trkpt lat="46.17024" lon="10.38241">
        <ele>1800.544</ele>
        <time>2018-08-12T02:56:55Z</time>
      </trkpt>
      <trkpt lat="46.17023" lon="10.3824">
        <ele>1800.465</ele>
        <time>2018-08-12T02:57:15Z</time>
      </trkpt>
      <trkpt lat="46.17021" lon="10.38222">
        <ele>1804.092</ele>
        <time>2018-08-12T02:57:35Z</time>
      </trkpt>
      <trkpt lat="46.17018" lon="10.38213">
        <ele>1805.275</ele>
        <time>2018-08-12T02:57:55Z</time>
      </trkpt>
      <trkpt lat="46.17014" lon="10.38185">
        <ele>1809.252</ele>
        <time>2018-08-12T02:58:15Z</time>
      </trkpt>
      <trkpt lat="46.17009" lon="10.38152">
        <ele>1811.353</ele>
        <time>2018-08-12T02:58:35Z</time>
      </trkpt>
      <trkpt lat="46.17003" lon="10.38122">
        <ele>1813.308</ele>
        <time>2018-08-12T02:58:55Z</time>
      </trkpt>
      <trkpt lat="46.16998" lon="10.38091">
        <ele>1816.708</ele>
        <time>2018-08-12T02:59:15Z</time>
      </trkpt>
      <trkpt lat="46.17015" lon="10.38108">
        <ele>1822.487</ele>
        <time>2018-08-12T02:59:35Z</time>
      </trkpt>
      <trkpt lat="46.17022" lon="10.38114">
        <ele>1825.682</ele>
        <time>2018-08-12T02:59:55Z</time>
      </trkpt>
      <trkpt lat="46.17028" lon="10.38119">
        <ele>1827.888</ele>
        <time>2018-08-12T03:00:15Z</time>
      </trkpt>
      <trkpt lat="46.17035" lon="10.38119">
        <ele>1831.092</ele>
        <time>2018-08-12T03:00:35Z</time>
      </trkpt>
      <trkpt lat="46.17039" lon="10.38119">
        <ele>1833.117</ele>
        <time>2018-08-12T03:00:55Z</time>
      </trkpt>
      <trkpt lat="46.17044" lon="10.38119">
        <ele>1835.638</ele>
        <time>2018-08-12T03:01:15Z</time>
      </trkpt>
      <trkpt lat="46.17043" lon="10.38117">
        <ele>1835.045</ele>
        <time>2018-08-12T03:01:35Z</time>
      </trkpt>
      <trkpt lat="46.17036" lon="10.38108">
        <ele>1832.518</ele>
        <time>2018-08-12T03:01:55Z</time>
      </trkpt>
      <trkpt lat="46.17035" lon="10.38106">
        <ele>1832.279</ele>
        <time>2018-08-12T03:02:15Z</time>
      </trkpt>
      <trkpt lat="46.17026" lon="10.38087">
        <ele>1829.805</ele>
        <time>2018-08-12T03:02:35Z</time>
      </trkpt>
      <trkpt lat="46.17019" lon="10.38069">
        <ele>1825.425</ele>
        <time>2018-08-12T03:02:55Z</time>
      </trkpt>
      <trkpt lat="46.17018" lon="10.38062">
        <ele>1824.208</ele>
        <time>2018-08-12T03:03:15Z</time>
      </trkpt>
      <trkpt lat="46.17018" lon="10.38051">
        <ele>1822.279</ele>
        <time>2018-08-12T03:03:35Z</time>
      </trkpt>
      <trkpt lat="46.17019" lon="10.38043">
        <ele>1820.464</ele>
        <time>2018-08-12T03:03:55Z</time>
      </trkpt>
      <trkpt lat="46.17026" lon="10.38032">
        <ele>1818.69</ele>
        <time>2018-08-12T03:04:15Z</time>
      </trkpt>
      <trkpt lat="46.17032" lon="10.38022">
        <ele>1817.394</ele>
        <time>2018-08-12T03:04:35Z</time>
      </trkpt>
      <trkpt lat="46.17048" lon="10.38004">
        <ele>1814.829</ele>
        <time>2018-08-12T03:04:55Z</time>
      </trkpt>
      <trkpt lat="46.17056" lon="10.37994">
        <ele>1812.91</ele>
        <time>2018-08-12T03:05:15Z</time>
      </trkpt>
      <trkpt lat="46.17064" lon="10.3799">
        <ele>1811.127</ele>
        <time>2018-08-12T03:05:35Z</time>
      </trkpt>
      <trkpt lat="46.17075" lon="10.37986">
        <ele>1809.61</ele>
        <time>2018-08-12T03:05:55Z</time>
      </trkpt>
      <trkpt lat="46.17088" lon="10.37974">
        <ele>1804.082</ele>
        <time>2018-08-12T03:06:15Z</time>
      </trkpt>
      <trkpt lat="46.17106" lon="10.37968">
        <ele>1799.043</ele>
        <time>2018-08-12T03:06:35Z</time>
      </trkpt>
      <trkpt lat="46.17116" lon="10.37966">
        <ele>1795.817</ele>
        <time>2018-08-12T03:06:55Z</time>
      </trkpt>
      <trkpt lat="46.17126" lon="10.37965">
        <ele>1792.508</ele>
        <time>2018-08-12T03:07:15Z</time>
      </trkpt>
      <trkpt lat="46.17133" lon="10.3796">
        <ele>1788.84</ele>
        <time>2018-08-12T03:07:35Z</time>
      </trkpt>
      <trkpt lat="46.17142" lon="10.37962">
        <ele>1786.915</ele>
        <time>2018-08-12T03:07:55Z</time>
      </trkpt>
      <trkpt lat="46.17154" lon="10.37969">
        <ele>1787.081</ele>
        <time>2018-08-12T03:08:15Z</time>
      </trkpt>
      <trkpt lat="46.17165" lon="10.37966">
        <ele>1783.385</ele>
        <time>2018-08-12T03:08:35Z</time>
      </trkpt>
      <trkpt lat="46.17178" lon="10.37956">
        <ele>1779.68</ele>
        <time>2018-08-12T03:08:55Z</time>
      </trkpt>
      <trkpt lat="46.17189" lon="10.3795">
        <ele>1777.441</ele>
        <time>2018-08-12T03:09:15Z</time>
      </trkpt>
      <trkpt lat="46.17201" lon="10.37941">
        <ele>1774.068</ele>
        <time>2018-08-12T03:09:35Z</time>
      </trkpt>
      <trkpt lat="46.17209" lon="10.37931">
        <ele>1768.051</ele>
        <time>2018-08-12T03:09:55Z</time>
      </trkpt>
      <trkpt lat="46.17216" lon="10.37911">
        <ele>1753.428</ele>
        <time>2018-08-12T03:10:15Z</time>
      </trkpt>
      <trkpt lat="46.17229" lon="10.37896">
        <ele>1744.389</ele>
        <time>2018-08-12T03:10:35Z</time>
      </trkpt>
      <trkpt lat="46.17243" lon="10.37884">
        <ele>1739.817</ele>
        <time>2018-08-12T03:10:55Z</time>
      </trkpt>
      <trkpt lat="46.1726" lon="10.37867">
        <ele>1736.608</ele>
        <time>2018-08-12T03:11:15Z</time>
      </trkpt>
      <trkpt lat="46.17277" lon="10.37857">
        <ele>1737.584</ele>
        <time>2018-08-12T03:11:35Z</time>
      </trkpt>
      <trkpt lat="46.1729" lon="10.37847">
        <ele>1736.449</ele>
        <time>2018-08-12T03:11:55Z</time>
      </trkpt>
      <trkpt lat="46.17302" lon="10.37839">
        <ele>1734.985</ele>
        <time>2018-08-12T03:12:15Z</time>
      </trkpt>
      <trkpt lat="46.17315" lon="10.37834">
        <ele>1733.089</ele>
        <time>2018-08-12T03:12:35Z</time>
      </trkpt>
      <trkpt lat="46.17328" lon="10.3783">
        <ele>1730.354</ele>
        <time>2018-08-12T03:12:55Z</time>
      </trkpt>
      <trkpt lat="46.17337" lon="10.3782">
        <ele>1723.985</ele>
        <time>2018-08-12T03:13:15Z</time>
      </trkpt>
      <trkpt lat="46.17359" lon="10.37805">
        <ele>1714.422</ele>
        <time>2018-08-12T03:13:35Z</time>
      </trkpt>
      <trkpt lat="46.17399" lon="10.37794">
        <ele>1696.195</ele>
        <time>2018-08-12T03:13:55Z</time>
      </trkpt>
      <trkpt lat="46.17415" lon="10.37796">
        <ele>1693.822</ele>
        <time>2018-08-12T03:14:15Z</time>
      </trkpt>
      <trkpt lat="46.17425" lon="10.37798">
        <ele>1696.762</ele>
        <time>2018-08-12T03:14:35Z</time>
      </trkpt>
      <trkpt lat="46.17438" lon="10.37791">
        <ele>1695.708</ele>
        <time>2018-08-12T03:14:55Z</time>
      </trkpt>
      <trkpt lat="46.17449" lon="10.37772">
        <ele>1688.608</ele>
        <time>2018-08-12T03:15:15Z</time>
      </trkpt>
      <trkpt lat="46.17459" lon="10.37763">
        <ele>1690.724</ele>
        <time>2018-08-12T03:15:35Z</time>
      </trkpt>
      <trkpt lat="46.17468" lon="10.37756">
        <ele>1693.149</ele>
        <time>2018-08-12T03:15:55Z</time>
      </trkpt>
      <trkpt lat="46.17497" lon="10.37728">
        <ele>1686.875</ele>
        <time>2018-08-12T03:16:15Z</time>
      </trkpt>
      <trkpt lat="46.17513" lon="10.37718">
        <ele>1682.859</ele>
        <time>2018-08-12T03:16:35Z</time>
      </trkpt>
      <trkpt lat="46.17527" lon="10.37711">
        <ele>1679.854</ele>
        <time>2018-08-12T03:16:55Z</time>
      </trkpt>
      <trkpt lat="46.17544" lon="10.37712">
        <ele>1680.755</ele>
        <time>2018-08-12T03:17:15Z</time>
      </trkpt>
      <trkpt lat="46.17572" lon="10.37717">
        <ele>1680.772</ele>
        <time>2018-08-12T03:17:35Z</time>
      </trkpt>
      <trkpt lat="46.17593" lon="10.37713">
        <ele>1675.645</ele>
        <time>2018-08-12T03:17:55Z</time>
      </trkpt>
      <trkpt lat="46.1761" lon="10.37715">
        <ele>1677.711</ele>
        <time>2018-08-12T03:18:15Z</time>
      </trkpt>
      <trkpt lat="46.17627" lon="10.37717">
        <ele>1678.821</ele>
        <time>2018-08-12T03:18:35Z</time>
      </trkpt>
      <trkpt lat="46.17643" lon="10.37717">
        <ele>1681.003</ele>
        <time>2018-08-12T03:18:55Z</time>
      </trkpt>
      <trkpt lat="46.17656" lon="10.37711">
        <ele>1684.108</ele>
        <time>2018-08-12T03:19:15Z</time>
      </trkpt>
      <trkpt lat="46.17669" lon="10.37694">
        <ele>1682.563</ele>
        <time>2018-08-12T03:19:35Z</time>
      </trkpt>
      <trkpt lat="46.17674" lon="10.37672">
        <ele>1681.148</ele>
        <time>2018-08-12T03:19:55Z</time>
      </trkpt>
      <trkpt lat="46.17676" lon="10.37661">
        <ele>1679.714</ele>
        <time>2018-08-12T03:20:15Z</time>
      </trkpt>
      <trkpt lat="46.17679" lon="10.3765">
        <ele>1680.028</ele>
        <time>2018-08-12T03:20:35Z</time>
      </trkpt>
      <trkpt lat="46.17681" lon="10.37644">
        <ele>1680.483</ele>
        <time>2018-08-12T03:20:55Z</time>
      </trkpt>
      <trkpt lat="46.17684" lon="10.37635">
        <ele>1680.694</ele>
        <time>2018-08-12T03:21:15Z</time>
      </trkpt>
      <trkpt lat="46.17686" lon="10.37622">
        <ele>1680.031</ele>
        <time>2018-08-12T03:21:35Z</time>
      </trkpt>
      <trkpt lat="46.17689" lon="10.3761">
        <ele>1679.634</ele>
        <time>2018-08-12T03:21:55Z</time>
      </trkpt>
      <trkpt lat="46.17697" lon="10.37591">
        <ele>1681.825</ele>
        <time>2018-08-12T03:22:15Z</time>
      </trkpt>
      <trkpt lat="46.17699" lon="10.37584">
        <ele>1682.226</ele>
        <time>2018-08-12T03:22:35Z</time>
      </trkpt>
      <trkpt lat="46.17702" lon="10.37576">
        <ele>1681.908</ele>
        <time>2018-08-12T03:22:55Z</time>
      </trkpt>
      <trkpt lat="46.17704" lon="10.37564">
        <ele>1680.408</ele>
        <time>2018-08-12T03:23:15Z</time>
      </trkpt>
      <trkpt lat="46.17705" lon="10.37549">
        <ele>1676.534</ele>
        <time>2018-08-12T03:23:35Z</time>
      </trkpt>
      <trkpt lat="46.17706" lon="10.37534">
        <ele>1672.449</ele>
        <time>2018-08-12T03:23:55Z</time>
      </trkpt>
      <trkpt lat="46.17707" lon="10.3752">
        <ele>1668.825</ele>
        <time>2018-08-12T03:24:15Z</time>
      </trkpt>
      <trkpt lat="46.1771" lon="10.37503">
        <ele>1664.959</ele>
        <time>2018-08-12T03:24:35Z</time>
      </trkpt>
      <trkpt lat="46.17713" lon="10.37489">
        <ele>1662.774</ele>
        <time>2018-08-12T03:24:55Z</time>
      </trkpt>
      <trkpt lat="46.17717" lon="10.37479">
        <ele>1661.685</ele>
        <time>2018-08-12T03:25:15Z</time>
      </trkpt>
      <trkpt lat="46.1772" lon="10.3747">
        <ele>1660.872</ele>
        <time>2018-08-12T03:25:35Z</time>
      </trkpt>
      <trkpt lat="46.17724" lon="10.37463">
        <ele>1661.045</ele>
        <time>2018-08-12T03:25:55Z</time>
      </trkpt>
      <trkpt lat="46.1773" lon="10.37456">
        <ele>1661.745</ele>
        <time>2018-08-12T03:26:15Z</time>
      </trkpt>
      <trkpt lat="46.17735" lon="10.37451">
        <ele>1663.047</ele>
        <time>2018-08-12T03:26:35Z</time>
      </trkpt>
      <trkpt lat="46.17738" lon="10.37444">
        <ele>1662.711</ele>
        <time>2018-08-12T03:26:55Z</time>
      </trkpt>
      <trkpt lat="46.1774" lon="10.37436">
        <ele>1662.308</ele>
        <time>2018-08-12T03:27:15Z</time>
      </trkpt>
      <trkpt lat="46.17744" lon="10.37425">
        <ele>1662.146</ele>
        <time>2018-08-12T03:27:35Z</time>
      </trkpt>
      <trkpt lat="46.17749" lon="10.37418">
        <ele>1663.731</ele>
        <time>2018-08-12T03:27:55Z</time>
      </trkpt>
      <trkpt lat="46.17754" lon="10.37413">
        <ele>1665.097</ele>
        <time>2018-08-12T03:28:15Z</time>
      </trkpt>
      <trkpt lat="46.1776" lon="10.37401">
        <ele>1665.641</ele>
        <time>2018-08-12T03:28:35Z</time>
      </trkpt>
      <trkpt lat="46.17762" lon="10.37393">
        <ele>1665.236</ele>
        <time>2018-08-12T03:28:55Z</time>
      </trkpt>
      <trkpt lat="46.17767" lon="10.3738">
        <ele>1664.437</ele>
        <time>2018-08-12T03:29:15Z</time>
      </trkpt>
      <trkpt lat="46.17771" lon="10.37371">
        <ele>1664.664</ele>
        <time>2018-08-12T03:29:35Z</time>
      </trkpt>
      <trkpt lat="46.17774" lon="10.37358">
        <ele>1662.737</ele>
        <time>2018-08-12T03:29:55Z</time>
      </trkpt>
      <trkpt lat="46.17776" lon="10.37343">
        <ele>1659.767</ele>
        <time>2018-08-12T03:30:15Z</time>
      </trkpt>
      <trkpt lat="46.17777" lon="10.37335">
        <ele>1658.781</ele>
        <time>2018-08-12T03:30:35Z</time>
      </trkpt>
      <trkpt lat="46.1778" lon="10.37322">
        <ele>1656.019</ele>
        <time>2018-08-12T03:30:55Z</time>
      </trkpt>
      <trkpt lat="46.17783" lon="10.37309">
        <ele>1653.508</ele>
        <time>2018-08-12T03:31:15Z</time>
      </trkpt>
      <trkpt lat="46.17788" lon="10.37299">
        <ele>1652.248</ele>
        <time>2018-08-12T03:31:35Z</time>
      </trkpt>
      <trkpt lat="46.17792" lon="10.37294">
        <ele>1652.093</ele>
        <time>2018-08-12T03:31:55Z</time>
      </trkpt>
      <trkpt lat="46.17796" lon="10.37282">
        <ele>1650.449</ele>
        <time>2018-08-12T03:32:15Z</time>
      </trkpt>
      <trkpt lat="46.17797" lon="10.37272">
        <ele>1648.093</ele>
        <time>2018-08-12T03:32:35Z</time>
      </trkpt>
      <trkpt lat="46.178" lon="10.37263">
        <ele>1646.928</ele>
        <time>2018-08-12T03:32:55Z</time>
      </trkpt>
      <trkpt lat="46.17804" lon="10.37253">
        <ele>1646.729</ele>
        <time>2018-08-12T03:33:15Z</time>
      </trkpt>
      <trkpt lat="46.17809" lon="10.37244">
        <ele>1646.556</ele>
        <time>2018-08-12T03:33:35Z</time>
      </trkpt>
      <trkpt lat="46.17812" lon="10.37234">
        <ele>1644.469</ele>
        <time>2018-08-12T03:33:55Z</time>
      </trkpt>
      <trkpt lat="46.17815" lon="10.37219">
        <ele>1641.628</ele>
        <time>2018-08-12T03:34:15Z</time>
      </trkpt>
      <trkpt lat="46.17836" lon="10.37118">
        <ele>1637.189</ele>
        <time>2018-08-12T03:34:35Z</time>
      </trkpt>
      <trkpt lat="46.17835" lon="10.37103">
        <ele>1633.517</ele>
        <time>2018-08-12T03:34:55Z</time>
      </trkpt>
      <trkpt lat="46.17833" lon="10.37089">
        <ele>1629.808</ele>
        <time>2018-08-12T03:35:15Z</time>
      </trkpt>
      <trkpt lat="46.17833" lon="10.37076">
        <ele>1626.774</ele>
        <time>2018-08-12T03:35:35Z</time>
      </trkpt>
      <trkpt lat="46.17835" lon="10.37062">
        <ele>1623.699</ele>
        <time>2018-08-12T03:35:55Z</time>
      </trkpt>
      <trkpt lat="46.17837" lon="10.3705">
        <ele>1621.945</ele>
        <time>2018-08-12T03:36:15Z</time>
      </trkpt>
      <trkpt lat="46.17838" lon="10.37037">
        <ele>1619.769</ele>
        <time>2018-08-12T03:36:35Z</time>
      </trkpt>
      <trkpt lat="46.17836" lon="10.37022">
        <ele>1614.914</ele>
        <time>2018-08-12T03:36:55Z</time>
      </trkpt>
      <trkpt lat="46.17835" lon="10.37003">
        <ele>1609.645</ele>
        <time>2018-08-12T03:37:15Z</time>
      </trkpt>
      <trkpt lat="46.17842" lon="10.36979">
        <ele>1606.272</ele>
        <time>2018-08-12T03:37:35Z</time>
      </trkpt>
      <trkpt lat="46.17845" lon="10.36972">
        <ele>1605.055</ele>
        <time>2018-08-12T03:37:55Z</time>
      </trkpt>
      <trkpt lat="46.17849" lon="10.36959">
        <ele>1602.022</ele>
        <time>2018-08-12T03:38:15Z</time>
      </trkpt>
      <trkpt lat="46.17854" lon="10.36945">
        <ele>1599.062</ele>
        <time>2018-08-12T03:38:35Z</time>
      </trkpt>
      <trkpt lat="46.17868" lon="10.36911">
        <ele>1591.308</ele>
        <time>2018-08-12T03:38:55Z</time>
      </trkpt>
      <trkpt lat="46.1788" lon="10.36893">
        <ele>1589.208</ele>
        <time>2018-08-12T03:39:15Z</time>
      </trkpt>
      <trkpt lat="46.1789" lon="10.36879">
        <ele>1588.084</ele>
        <time>2018-08-12T03:39:35Z</time>
      </trkpt>
      <trkpt lat="46.17901" lon="10.36861">
        <ele>1585.119</ele>
        <time>2018-08-12T03:39:55Z</time>
      </trkpt>
      <trkpt lat="46.17909" lon="10.36847">
        <ele>1581.715</ele>
        <time>2018-08-12T03:40:15Z</time>
      </trkpt>
      <trkpt lat="46.17917" lon="10.36838">
        <ele>1580.999</ele>
        <time>2018-08-12T03:40:35Z</time>
      </trkpt>
      <trkpt lat="46.17928" lon="10.36826">
        <ele>1577.154</ele>
        <time>2018-08-12T03:40:55Z</time>
      </trkpt>
      <trkpt lat="46.17935" lon="10.36814">
        <ele>1573.175</ele>
        <time>2018-08-12T03:41:15Z</time>
      </trkpt>
      <trkpt lat="46.17941" lon="10.36807">
        <ele>1571.812</ele>
        <time>2018-08-12T03:41:35Z</time>
      </trkpt>
      <trkpt lat="46.17949" lon="10.36795">
        <ele>1569.315</ele>
        <time>2018-08-12T03:41:55Z</time>
      </trkpt>
      <trkpt lat="46.17962" lon="10.36787">
        <ele>1569.734</ele>
        <time>2018-08-12T03:42:15Z</time>
      </trkpt>
      <trkpt lat="46.17967" lon="10.36784">
        <ele>1569.755</ele>
        <time>2018-08-12T03:42:35Z</time>
      </trkpt>
      <trkpt lat="46.17982" lon="10.36778">
        <ele>1572.91</ele>
        <time>2018-08-12T03:42:55Z</time>
      </trkpt>
      <trkpt lat="46.17985" lon="10.36777">
        <ele>1573.508</ele>
        <time>2018-08-12T03:43:15Z</time>
      </trkpt>
      <trkpt lat="46.17996" lon="10.3677">
        <ele>1575.565</ele>
        <time>2018-08-12T03:43:35Z</time>
      </trkpt>
      <trkpt lat="46.17998" lon="10.36769">
        <ele>1576.07</ele>
        <time>2018-08-12T03:43:55Z</time>
      </trkpt>
      <trkpt lat="46.18007" lon="10.36766">
        <ele>1578.066</ele>
        <time>2018-08-12T03:44:15Z</time>
      </trkpt>
      <trkpt lat="46.18015" lon="10.36756">
        <ele>1576.92</ele>
        <time>2018-08-12T03:44:35Z</time>
      </trkpt>
      <trkpt lat="46.18024" lon="10.36743">
        <ele>1575.455</ele>
        <time>2018-08-12T03:44:55Z</time>
      </trkpt>
      <trkpt lat="46.18024" lon="10.36742">
        <ele>1575.566</ele>
        <time>2018-08-12T03:45:15Z</time>
      </trkpt>
      <trkpt lat="46.18031" lon="10.36738">
        <ele>1576.653</ele>
        <time>2018-08-12T03:45:35Z</time>
      </trkpt>
      <trkpt lat="46.18054" lon="10.36736">
        <ele>1583.936</ele>
        <time>2018-08-12T03:45:55Z</time>
      </trkpt>
      <trkpt lat="46.18067" lon="10.3673">
        <ele>1586.468</ele>
        <time>2018-08-12T03:46:15Z</time>
      </trkpt>
      <trkpt lat="46.18078" lon="10.36727">
        <ele>1589.442</ele>
        <time>2018-08-12T03:46:35Z</time>
      </trkpt>
      <trkpt lat="46.18091" lon="10.36714">
        <ele>1589.526</ele>
        <time>2018-08-12T03:46:55Z</time>
      </trkpt>
      <trkpt lat="46.18098" lon="10.36689">
        <ele>1583.108</ele>
        <time>2018-08-12T03:47:15Z</time>
      </trkpt>
      <trkpt lat="46.18099" lon="10.36687">
        <ele>1582.968</ele>
        <time>2018-08-12T03:47:35Z</time>
      </trkpt>
      <trkpt lat="46.18104" lon="10.36682">
        <ele>1583.133</ele>
        <time>2018-08-12T03:47:55Z</time>
      </trkpt>
      <trkpt lat="46.18112" lon="10.36672">
        <ele>1582.779</ele>
        <time>2018-08-12T03:48:15Z</time>
      </trkpt>
      <trkpt lat="46.18116" lon="10.36667">
        <ele>1582.033</ele>
        <time>2018-08-12T03:48:35Z</time>
      </trkpt>
      <trkpt lat="46.1813" lon="10.36652">
        <ele>1579.838</ele>
        <time>2018-08-12T03:48:55Z</time>
      </trkpt>
      <trkpt lat="46.18167" lon="10.36612">
        <ele>1575.459</ele>
        <time>2018-08-12T03:49:15Z</time>
      </trkpt>
      <trkpt lat="46.18207" lon="10.36569">
        <ele>1566.956</ele>
        <time>2018-08-12T03:49:35Z</time>
      </trkpt>
      <trkpt lat="46.18231" lon="10.36545">
        <ele>1564.239</ele>
        <time>2018-08-12T03:49:55Z</time>
      </trkpt>
      <trkpt lat="46.18258" lon="10.36519">
        <ele>1561.011</ele>
        <time>2018-08-12T03:50:15Z</time>
      </trkpt>
      <trkpt lat="46.18268" lon="10.3651">
        <ele>1558.721</ele>
        <time>2018-08-12T03:50:35Z</time>
      </trkpt>
      <trkpt lat="46.18283" lon="10.36492">
        <ele>1553.703</ele>
        <time>2018-08-12T03:50:55Z</time>
      </trkpt>
      <trkpt lat="46.18299" lon="10.36475">
        <ele>1548.708</ele>
        <time>2018-08-12T03:51:15Z</time>
      </trkpt>
      <trkpt lat="46.18303" lon="10.36471">
        <ele>1547.513</ele>
        <time>2018-08-12T03:51:35Z</time>
      </trkpt>
      <trkpt lat="46.18308" lon="10.3647">
        <ele>1547.298</ele>
        <time>2018-08-12T03:51:55Z</time>
      </trkpt>
      <trkpt lat="46.18312" lon="10.36471">
        <ele>1547.284</ele>
        <time>2018-08-12T03:52:15Z</time>
      </trkpt>
      <trkpt lat="46.18316" lon="10.36472">
        <ele>1547.568</ele>
        <time>2018-08-12T03:52:35Z</time>
      </trkpt>
      <trkpt lat="46.18323" lon="10.36474">
        <ele>1548.053</ele>
        <time>2018-08-12T03:52:55Z</time>
      </trkpt>
      <trkpt lat="46.18329" lon="10.36477">
        <ele>1548.534</ele>
        <time>2018-08-12T03:53:15Z</time>
      </trkpt>
      <trkpt lat="46.18333" lon="10.36478">
        <ele>1548.551</ele>
        <time>2018-08-12T03:53:35Z</time>
      </trkpt>
      <trkpt lat="46.1835" lon="10.36478">
        <ele>1541.244</ele>
        <time>2018-08-12T03:53:55Z</time>
      </trkpt>
      <trkpt lat="46.18358" lon="10.36479">
        <ele>1538.023</ele>
        <time>2018-08-12T03:54:15Z</time>
      </trkpt>
      <trkpt lat="46.18365" lon="10.36483">
        <ele>1537.283</ele>
        <time>2018-08-12T03:54:35Z</time>
      </trkpt>
      <trkpt lat="46.1837" lon="10.36486">
        <ele>1536.411</ele>
        <time>2018-08-12T03:54:55Z</time>
      </trkpt>
      <trkpt lat="46.18376" lon="10.36492">
        <ele>1537.408</ele>
        <time>2018-08-12T03:55:15Z</time>
      </trkpt>
      <trkpt lat="46.1838" lon="10.365">
        <ele>1540.794</ele>
        <time>2018-08-12T03:55:35Z</time>
      </trkpt>
      <trkpt lat="46.18382" lon="10.36509">
        <ele>1543.029</ele>
        <time>2018-08-12T03:55:55Z</time>
      </trkpt>
      <trkpt lat="46.18391" lon="10.3656">
        <ele>1554.995</ele>
        <time>2018-08-12T03:56:15Z</time>
      </trkpt>
      <trkpt lat="46.18396" lon="10.36584">
        <ele>1556.739</ele>
        <time>2018-08-12T03:56:35Z</time>
      </trkpt>
      <trkpt lat="46.18399" lon="10.36592">
        <ele>1557.744</ele>
        <time>2018-08-12T03:56:55Z</time>
      </trkpt>
      <trkpt lat="46.18401" lon="10.36597">
        <ele>1558.295</ele>
        <time>2018-08-12T03:57:15Z</time>
      </trkpt>
      <trkpt lat="46.18404" lon="10.36599">
        <ele>1558.142</ele>
        <time>2018-08-12T03:57:35Z</time>
      </trkpt>
      <trkpt lat="46.18424" lon="10.36606">
        <ele>1553.955</ele>
        <time>2018-08-12T03:57:55Z</time>
      </trkpt>
      <trkpt lat="46.18437" lon="10.36615">
        <ele>1550.185</ele>
        <time>2018-08-12T03:58:15Z</time>
      </trkpt>
      <trkpt lat="46.18454" lon="10.36626">
        <ele>1546.089</ele>
        <time>2018-08-12T03:58:35Z</time>
      </trkpt>
      <trkpt lat="46.18457" lon="10.36628">
        <ele>1545.517</ele>
        <time>2018-08-12T03:58:55Z</time>
      </trkpt>
      <trkpt lat="46.18477" lon="10.36643">
        <ele>1541.608</ele>
        <time>2018-08-12T03:59:15Z</time>
      </trkpt>
      <trkpt lat="46.18496" lon="10.36665">
        <ele>1540.31</ele>
        <time>2018-08-12T03:59:35Z</time>
      </trkpt>
      <trkpt lat="46.18508" lon="10.36688">
        <ele>1540.015</ele>
        <time>2018-08-12T03:59:55Z</time>
      </trkpt>
      <trkpt lat="46.18519" lon="10.36714">
        <ele>1544.371</ele>
        <time>2018-08-12T04:00:15Z</time>
      </trkpt>
      <trkpt lat="46.18531" lon="10.36738">
        <ele>1548.565</ele>
        <time>2018-08-12T04:00:35Z</time>
      </trkpt>
      <trkpt lat="46.18553" lon="10.36764">
        <ele>1547.96</ele>
        <time>2018-08-12T04:00:55Z</time>
      </trkpt>
      <trkpt lat="46.18562" lon="10.3677">
        <ele>1544.951</ele>
        <time>2018-08-12T04:01:15Z</time>
      </trkpt>
      <trkpt lat="46.18576" lon="10.36779">
        <ele>1539.258</ele>
        <time>2018-08-12T04:01:35Z</time>
      </trkpt>
      <trkpt lat="46.18588" lon="10.36786">
        <ele>1536.021</ele>
        <time>2018-08-12T04:01:55Z</time>
      </trkpt>
      <trkpt lat="46.18594" lon="10.36804">
        <ele>1542.227</ele>
        <time>2018-08-12T04:02:15Z</time>
      </trkpt>
      <trkpt lat="46.18595" lon="10.3683">
        <ele>1551.068</ele>
        <time>2018-08-12T04:02:35Z</time>
      </trkpt>
      <trkpt lat="46.18607" lon="10.36866">
        <ele>1568.114</ele>
        <time>2018-08-12T04:02:55Z</time>
      </trkpt>
      <trkpt lat="46.18619" lon="10.36868">
        <ele>1572.608</ele>
        <time>2018-08-12T04:03:15Z</time>
      </trkpt>
      <trkpt lat="46.1862" lon="10.36868">
        <ele>1573.534</ele>
        <time>2018-08-12T04:03:35Z</time>
      </trkpt>
      <trkpt lat="46.18626" lon="10.36864">
        <ele>1574.639</ele>
        <time>2018-08-12T04:03:55Z</time>
      </trkpt>
      <trkpt lat="46.18642" lon="10.36853">
        <ele>1577.465</ele>
        <time>2018-08-12T04:04:15Z</time>
      </trkpt>
      <trkpt lat="46.18658" lon="10.36844">
        <ele>1578.999</ele>
        <time>2018-08-12T04:04:35Z</time>
      </trkpt>
      <trkpt lat="46.18677" lon="10.36834">
        <ele>1583.664</ele>
        <time>2018-08-12T04:04:55Z</time>
      </trkpt>
      <trkpt lat="46.18694" lon="10.36811">
        <ele>1578.125</ele>
        <time>2018-08-12T04:05:15Z</time>
      </trkpt>
      <trkpt lat="46.18703" lon="10.36788">
        <ele>1569.672</ele>
        <time>2018-08-12T04:05:35Z</time>
      </trkpt>
      <trkpt lat="46.18715" lon="10.3677">
        <ele>1564.685</ele>
        <time>2018-08-12T04:05:55Z</time>
      </trkpt>
      <trkpt lat="46.18731" lon="10.36766">
        <ele>1565.144</ele>
        <time>2018-08-12T04:06:15Z</time>
      </trkpt>
      <trkpt lat="46.1876" lon="10.36764">
        <ele>1566.305</ele>
        <time>2018-08-12T04:06:35Z</time>
      </trkpt>
      <trkpt lat="46.1878" lon="10.36765">
        <ele>1567.915</ele>
        <time>2018-08-12T04:06:55Z</time>
      </trkpt>
      <trkpt lat="46.18797" lon="10.36753">
        <ele>1565.308</ele>
        <time>2018-08-12T04:07:15Z</time>
      </trkpt>
      <trkpt lat="46.18823" lon="10.36746">
        <ele>1565.636</ele>
        <time>2018-08-12T04:07:35Z</time>
      </trkpt>
      <trkpt lat="46.18829" lon="10.36745">
        <ele>1565.721</ele>
        <time>2018-08-12T04:07:55Z</time>
      </trkpt>
      <trkpt lat="46.18835" lon="10.36741">
        <ele>1565.357</ele>
        <time>2018-08-12T04:08:15Z</time>
      </trkpt>
      <trkpt lat="46.18848" lon="10.36735">
        <ele>1564.951</ele>
        <time>2018-08-12T04:08:35Z</time>
      </trkpt>
      <trkpt lat="46.1885" lon="10.36728">
        <ele>1563.636</ele>
        <time>2018-08-12T04:08:55Z</time>
      </trkpt>
      <trkpt lat="46.18852" lon="10.36722">
        <ele>1562.247</ele>
        <time>2018-08-12T04:09:15Z</time>
      </trkpt>
      <trkpt lat="46.18856" lon="10.36708">
        <ele>1558.994</ele>
        <time>2018-08-12T04:09:35Z</time>
      </trkpt>
      <trkpt lat="46.18858" lon="10.36701">
        <ele>1557.367</ele>
        <time>2018-08-12T04:09:55Z</time>
      </trkpt>
      <trkpt lat="46.18873" lon="10.36674">
        <ele>1555.344</ele>
        <time>2018-08-12T04:10:15Z</time>
      </trkpt>
      <trkpt lat="46.18881" lon="10.3665">
        <ele>1553.805</ele>
        <time>2018-08-12T04:10:35Z</time>
      </trkpt>
      <trkpt lat="46.1888" lon="10.36622">
        <ele>1548.815</ele>
        <time>2018-08-12T04:10:55Z</time>
      </trkpt>
      <trkpt lat="46.18879" lon="10.36611">
        <ele>1547.108</ele>
        <time>2018-08-12T04:11:15Z</time>
      </trkpt>
      <trkpt lat="46.18879" lon="10.36594">
        <ele>1542.626</ele>
        <time>2018-08-12T04:11:35Z</time>
      </trkpt>
      <trkpt lat="46.18883" lon="10.36572">
        <ele>1538.391</ele>
        <time>2018-08-12T04:11:55Z</time>
      </trkpt>
      <trkpt lat="46.18884" lon="10.36569">
        <ele>1537.767</ele>
        <time>2018-08-12T04:12:15Z</time>
      </trkpt>
      <trkpt lat="46.18886" lon="10.36562">
        <ele>1536.811</ele>
        <time>2018-08-12T04:12:35Z</time>
      </trkpt>
      <trkpt lat="46.18892" lon="10.36542">
        <ele>1531.266</ele>
        <time>2018-08-12T04:12:55Z</time>
      </trkpt>
      <trkpt lat="46.18897" lon="10.36529">
        <ele>1527.427</ele>
        <time>2018-08-12T04:13:15Z</time>
      </trkpt>
      <trkpt lat="46.18898" lon="10.36524">
        <ele>1526.784</ele>
        <time>2018-08-12T04:13:35Z</time>
      </trkpt>
      <trkpt lat="46.18902" lon="10.36512">
        <ele>1525.177</ele>
        <time>2018-08-12T04:13:55Z</time>
      </trkpt>
      <trkpt lat="46.18904" lon="10.36507">
        <ele>1524.776</ele>
        <time>2018-08-12T04:14:15Z</time>
      </trkpt>
      <trkpt lat="46.1891" lon="10.36487">
        <ele>1521.79</ele>
        <time>2018-08-12T04:14:35Z</time>
      </trkpt>
      <trkpt lat="46.18916" lon="10.3646">
        <ele>1514.619</ele>
        <time>2018-08-12T04:14:55Z</time>
      </trkpt>
      <trkpt lat="46.18916" lon="10.36458">
        <ele>1514.308</ele>
        <time>2018-08-12T04:15:15Z</time>
      </trkpt>
      <trkpt lat="46.18923" lon="10.36435">
        <ele>1508.429</ele>
        <time>2018-08-12T04:15:35Z</time>
      </trkpt>
      <trkpt lat="46.18926" lon="10.36425">
        <ele>1505.944</ele>
        <time>2018-08-12T04:15:55Z</time>
      </trkpt>
      <trkpt lat="46.18934" lon="10.36403">
        <ele>1500.26</ele>
        <time>2018-08-12T04:16:15Z</time>
      </trkpt>
      <trkpt lat="46.18941" lon="10.36388">
        <ele>1496.424</ele>
        <time>2018-08-12T04:16:35Z</time>
      </trkpt>
      <trkpt lat="46.18957" lon="10.36377">
        <ele>1493.359</ele>
        <time>2018-08-12T04:16:55Z</time>
      </trkpt>
      <trkpt lat="46.18964" lon="10.36374">
        <ele>1491.98</ele>
        <time>2018-08-12T04:17:15Z</time>
      </trkpt>
      <trkpt lat="46.18972" lon="10.36369">
        <ele>1490.027</ele>
        <time>2018-08-12T04:17:35Z</time>
      </trkpt>
      <trkpt lat="46.18992" lon="10.3635">
        <ele>1483.21</ele>
        <time>2018-08-12T04:17:55Z</time>
      </trkpt>
      <trkpt lat="46.19013" lon="10.36329">
        <ele>1476.692</ele>
        <time>2018-08-12T04:18:15Z</time>
      </trkpt>
      <trkpt lat="46.19035" lon="10.36315">
        <ele>1471.873</ele>
        <time>2018-08-12T04:18:35Z</time>
      </trkpt>
      <trkpt lat="46.19053" lon="10.36294">
        <ele>1464.92</ele>
        <time>2018-08-12T04:18:55Z</time>
      </trkpt>
      <trkpt lat="46.19071" lon="10.36281">
        <ele>1457.808</ele>
        <time>2018-08-12T04:19:15Z</time>
      </trkpt>
      <trkpt lat="46.19111" lon="10.36266">
        <ele>1446.641</ele>
        <time>2018-08-12T04:19:35Z</time>
      </trkpt>
      <trkpt lat="46.1915" lon="10.36258">
        <ele>1440.296</ele>
        <time>2018-08-12T04:19:55Z</time>
      </trkpt>
      <trkpt lat="46.19175" lon="10.36264">
        <ele>1439.662</ele>
        <time>2018-08-12T04:20:15Z</time>
      </trkpt>
      <trkpt lat="46.19214" lon="10.36263">
        <ele>1435.056</ele>
        <time>2018-08-12T04:20:35Z</time>
      </trkpt>
      <trkpt lat="46.19243" lon="10.36253">
        <ele>1426.971</ele>
        <time>2018-08-12T04:20:55Z</time>
      </trkpt>
      <trkpt lat="46.19263" lon="10.36255">
        <ele>1420.432</ele>
        <time>2018-08-12T04:21:15Z</time>
      </trkpt>
      <trkpt lat="46.1928" lon="10.3625">
        <ele>1411.129</ele>
        <time>2018-08-12T04:21:35Z</time>
      </trkpt>
      <trkpt lat="46.19318" lon="10.36248">
        <ele>1400.482</ele>
        <time>2018-08-12T04:21:55Z</time>
      </trkpt>
      <trkpt lat="46.19333" lon="10.36255">
        <ele>1398.431</ele>
        <time>2018-08-12T04:22:15Z</time>
      </trkpt>
      <trkpt lat="46.19363" lon="10.36261">
        <ele>1393.961</ele>
        <time>2018-08-12T04:22:35Z</time>
      </trkpt>
      <trkpt lat="46.19397" lon="10.36269">
        <ele>1390.507</ele>
        <time>2018-08-12T04:22:55Z</time>
      </trkpt>
      <trkpt lat="46.19425" lon="10.36252">
        <ele>1384.708</ele>
        <time>2018-08-12T04:23:15Z</time>
      </trkpt>
      <trkpt lat="46.19454" lon="10.36244">
        <ele>1380.555</ele>
        <time>2018-08-12T04:23:35Z</time>
      </trkpt>
      <trkpt lat="46.19476" lon="10.36258">
        <ele>1379.49</ele>
        <time>2018-08-12T04:23:55Z</time>
      </trkpt>
      <trkpt lat="46.19507" lon="10.36271">
        <ele>1375.326</ele>
        <time>2018-08-12T04:24:15Z</time>
      </trkpt>
      <trkpt lat="46.1952" lon="10.363">
        <ele>1376.72</ele>
        <time>2018-08-12T04:24:35Z</time>
      </trkpt>
      <trkpt lat="46.1953" lon="10.36313">
        <ele>1376.185</ele>
        <time>2018-08-12T04:24:55Z</time>
      </trkpt>
      <trkpt lat="46.19541" lon="10.36317">
        <ele>1372.896</ele>
        <time>2018-08-12T04:25:15Z</time>
      </trkpt>
      <trkpt lat="46.19551" lon="10.36309">
        <ele>1368.183</ele>
        <time>2018-08-12T04:25:35Z</time>
      </trkpt>
      <trkpt lat="46.19556" lon="10.36306">
        <ele>1365.836</ele>
        <time>2018-08-12T04:25:55Z</time>
      </trkpt>
      <trkpt lat="46.19557" lon="10.36306">
        <ele>1365.766</ele>
        <time>2018-08-12T04:26:15Z</time>
      </trkpt>
      <trkpt lat="46.19571" lon="10.36306">
        <ele>1361.629</ele>
        <time>2018-08-12T04:26:35Z</time>
      </trkpt>
      <trkpt lat="46.19582" lon="10.36313">
        <ele>1359.921</ele>
        <time>2018-08-12T04:26:55Z</time>
      </trkpt>
      <trkpt lat="46.1959" lon="10.36327">
        <ele>1357.808</ele>
        <time>2018-08-12T04:27:15Z</time>
      </trkpt>
      <trkpt lat="46.19601" lon="10.36345">
        <ele>1352.618</ele>
        <time>2018-08-12T04:27:35Z</time>
      </trkpt>
      <trkpt lat="46.19611" lon="10.36348">
        <ele>1345.953</ele>
        <time>2018-08-12T04:27:55Z</time>
      </trkpt>
      <trkpt lat="46.19617" lon="10.3634">
        <ele>1343.589</ele>
        <time>2018-08-12T04:28:15Z</time>
      </trkpt>
      <trkpt lat="46.19627" lon="10.36322">
        <ele>1339.133</ele>
        <time>2018-08-12T04:28:35Z</time>
      </trkpt>
      <trkpt lat="46.19634" lon="10.36305">
        <ele>1335.038</ele>
        <time>2018-08-12T04:28:55Z</time>
      </trkpt>
      <trkpt lat="46.19625" lon="10.3626">
        <ele>1331.869</ele>
        <time>2018-08-12T04:29:15Z</time>
      </trkpt>
      <trkpt lat="46.1962" lon="10.36245">
        <ele>1330.696</ele>
        <time>2018-08-12T04:29:35Z</time>
      </trkpt>
      <trkpt lat="46.19605" lon="10.36216">
        <ele>1330.839</ele>
        <time>2018-08-12T04:29:55Z</time>
      </trkpt>
      <trkpt lat="46.19594" lon="10.36203">
        <ele>1332.983</ele>
        <time>2018-08-12T04:30:15Z</time>
      </trkpt>
      <trkpt lat="46.19583" lon="10.36187">
        <ele>1333.025</ele>
        <time>2018-08-12T04:30:35Z</time>
      </trkpt>
      <trkpt lat="46.19571" lon="10.3617">
        <ele>1330.617</ele>
        <time>2018-08-12T04:30:55Z</time>
      </trkpt>
      <trkpt lat="46.19545" lon="10.36129">
        <ele>1324.408</ele>
        <time>2018-08-12T04:31:15Z</time>
      </trkpt>
      <trkpt lat="46.19531" lon="10.36116">
        <ele>1323.39</ele>
        <time>2018-08-12T04:31:35Z</time>
      </trkpt>
      <trkpt lat="46.19504" lon="10.36099">
        <ele>1322.075</ele>
        <time>2018-08-12T04:31:55Z</time>
      </trkpt>
      <trkpt lat="46.1949" lon="10.36089">
        <ele>1320.831</ele>
        <time>2018-08-12T04:32:15Z</time>
      </trkpt>
      <trkpt lat="46.19488" lon="10.36084">
        <ele>1320.115</ele>
        <time>2018-08-12T04:32:35Z</time>
      </trkpt>
      <trkpt lat="46.19484" lon="10.36062">
        <ele>1316.99</ele>
        <time>2018-08-12T04:32:55Z</time>
      </trkpt>
      <trkpt lat="46.19485" lon="10.36037">
        <ele>1313.261</ele>
        <time>2018-08-12T04:33:15Z</time>
      </trkpt>
      <trkpt lat="46.19484" lon="10.36014">
        <ele>1310.088</ele>
        <time>2018-08-12T04:33:35Z</time>
      </trkpt>
      <trkpt lat="46.19479" lon="10.35994">
        <ele>1307.161</ele>
        <time>2018-08-12T04:33:55Z</time>
      </trkpt>
      <trkpt lat="46.19471" lon="10.35977">
        <ele>1304.694</ele>
        <time>2018-08-12T04:34:15Z</time>
      </trkpt>
      <trkpt lat="46.19457" lon="10.35964">
        <ele>1302.857</ele>
        <time>2018-08-12T04:34:35Z</time>
      </trkpt>
      <trkpt lat="46.19444" lon="10.3596">
        <ele>1302.122</ele>
        <time>2018-08-12T04:34:55Z</time>
      </trkpt>
      <trkpt lat="46.19432" lon="10.35959">
        <ele>1302.508</ele>
        <time>2018-08-12T04:35:15Z</time>
      </trkpt>
      <trkpt lat="46.19424" lon="10.35949">
        <ele>1301.351</ele>
        <time>2018-08-12T04:35:35Z</time>
      </trkpt>
      <trkpt lat="46.19423" lon="10.35928">
        <ele>1294.116</ele>
        <time>2018-08-12T04:35:55Z</time>
      </trkpt>
      <trkpt lat="46.19421" lon="10.35909">
        <ele>1285.362</ele>
        <time>2018-08-12T04:36:15Z</time>
      </trkpt>
      <trkpt lat="46.19408" lon="10.35891">
        <ele>1278.936</ele>
        <time>2018-08-12T04:36:35Z</time>
      </trkpt>
      <trkpt lat="46.19383" lon="10.35866">
        <ele>1272.581</ele>
        <time>2018-08-12T04:36:55Z</time>
      </trkpt>
      <trkpt lat="46.1935" lon="10.35847">
        <ele>1268.322</ele>
        <time>2018-08-12T04:37:15Z</time>
      </trkpt>
      <trkpt lat="46.19333" lon="10.3584">
        <ele>1264.939</ele>
        <time>2018-08-12T04:37:35Z</time>
      </trkpt>
      <trkpt lat="46.19315" lon="10.35832">
        <ele>1257.852</ele>
        <time>2018-08-12T04:37:55Z</time>
      </trkpt>
      <trkpt lat="46.19313" lon="10.35831">
        <ele>1256.735</ele>
        <time>2018-08-12T04:38:15Z</time>
      </trkpt>
      <trkpt lat="46.19272" lon="10.35783">
        <ele>1231.186</ele>
        <time>2018-08-12T04:38:35Z</time>
      </trkpt>
      <trkpt lat="46.19263" lon="10.35772">
        <ele>1225.914</ele>
        <time>2018-08-12T04:38:55Z</time>
      </trkpt>
      <trkpt lat="46.19253" lon="10.35763">
        <ele>1222.908</ele>
        <time>2018-08-12T04:39:15Z</time>
      </trkpt>
      <trkpt lat="46.1924" lon="10.35757">
        <ele>1221.015</ele>
        <time>2018-08-12T04:39:35Z</time>
      </trkpt>
      <trkpt lat="46.1923" lon="10.35746">
        <ele>1217.04</ele>
        <time>2018-08-12T04:39:55Z</time>
      </trkpt>
      <trkpt lat="46.1922" lon="10.35736">
        <ele>1214.246</ele>
        <time>2018-08-12T04:40:15Z</time>
      </trkpt>
      <trkpt lat="46.19214" lon="10.35715">
        <ele>1207.81</ele>
        <time>2018-08-12T04:40:35Z</time>
      </trkpt>
      <trkpt lat="46.19199" lon="10.35678">
        <ele>1196.915</ele>
        <time>2018-08-12T04:40:55Z</time>
      </trkpt>
      <trkpt lat="46.19196" lon="10.35672">
        <ele>1195.366</ele>
        <time>2018-08-12T04:41:15Z</time>
      </trkpt>
      <trkpt lat="46.19177" lon="10.35632">
        <ele>1187.923</ele>
        <time>2018-08-12T04:41:35Z</time>
      </trkpt>
      <trkpt lat="46.19169" lon="10.35616">
        <ele>1184.926</ele>
        <time>2018-08-12T04:41:55Z</time>
      </trkpt>
      <trkpt lat="46.19158" lon="10.3559">
        <ele>1178.694</ele>
        <time>2018-08-12T04:42:15Z</time>
      </trkpt>
      <trkpt lat="46.19144" lon="10.35565">
        <ele>1170.857</ele>
        <time>2018-08-12T04:42:35Z</time>
      </trkpt>
      <trkpt lat="46.19128" lon="10.35547">
        <ele>1168.722</ele>
        <time>2018-08-12T04:42:55Z</time>
      </trkpt>
      <trkpt lat="46.19115" lon="10.35531">
        <ele>1167.408</ele>
        <time>2018-08-12T04:43:15Z</time>
      </trkpt>
      <trkpt lat="46.19108" lon="10.35512">
        <ele>1161.331</ele>
        <time>2018-08-12T04:43:35Z</time>
      </trkpt>
      <trkpt lat="46.19093" lon="10.35483">
        <ele>1154.596</ele>
        <time>2018-08-12T04:43:55Z</time>
      </trkpt>
      <trkpt lat="46.19088" lon="10.35474">
        <ele>1153.332</ele>
        <time>2018-08-12T04:44:15Z</time>
      </trkpt>
      <trkpt lat="46.19087" lon="10.35473">
        <ele>1153.326</ele>
        <time>2018-08-12T04:44:35Z</time>
      </trkpt>
      <trkpt lat="46.19084" lon="10.35444">
        <ele>1146.771</ele>
        <time>2018-08-12T04:44:55Z</time>
      </trkpt>
      <trkpt lat="46.19084" lon="10.35421">
        <ele>1141.912</ele>
        <time>2018-08-12T04:45:15Z</time>
      </trkpt>
      <trkpt lat="46.19081" lon="10.354">
        <ele>1137.989</ele>
        <time>2018-08-12T04:45:35Z</time>
      </trkpt>
      <trkpt lat="46.19078" lon="10.35384">
        <ele>1135.242</ele>
        <time>2018-08-12T04:45:55Z</time>
      </trkpt>
      <trkpt lat="46.19076" lon="10.35364">
        <ele>1131.156</ele>
        <time>2018-08-12T04:46:15Z</time>
      </trkpt>
      <trkpt lat="46.19072" lon="10.35348">
        <ele>1127.959</ele>
        <time>2018-08-12T04:46:35Z</time>
      </trkpt>
      <trkpt lat="46.19063" lon="10.35313">
        <ele>1118.414</ele>
        <time>2018-08-12T04:46:55Z</time>
      </trkpt>
      <trkpt lat="46.1906" lon="10.35305">
        <ele>1116.308</ele>
        <time>2018-08-12T04:47:15Z</time>
      </trkpt>
      <trkpt lat="46.19052" lon="10.35295">
        <ele>1114.077</ele>
        <time>2018-08-12T04:47:35Z</time>
      </trkpt>
      <trkpt lat="46.19035" lon="10.35293">
        <ele>1115.212</ele>
        <time>2018-08-12T04:47:55Z</time>
      </trkpt>
      <trkpt lat="46.19026" lon="10.35287">
        <ele>1114.518</ele>
        <time>2018-08-12T04:48:15Z</time>
      </trkpt>
      <trkpt lat="46.19003" lon="10.35274">
        <ele>1111.282</ele>
        <time>2018-08-12T04:48:35Z</time>
      </trkpt>
      <trkpt lat="46.18989" lon="10.35266">
        <ele>1109.277</ele>
        <time>2018-08-12T04:48:55Z</time>
      </trkpt>
      <trkpt lat="46.18979" lon="10.35258">
        <ele>1107.158</ele>
        <time>2018-08-12T04:49:15Z</time>
      </trkpt>
      <trkpt lat="46.18967" lon="10.35243">
        <ele>1102.325</ele>
        <time>2018-08-12T04:49:35Z</time>
      </trkpt>
      <trkpt lat="46.18957" lon="10.35225">
        <ele>1097.098</ele>
        <time>2018-08-12T04:49:55Z</time>
      </trkpt>
      <trkpt lat="46.18948" lon="10.35207">
        <ele>1092.361</ele>
        <time>2018-08-12T04:50:15Z</time>
      </trkpt>
      <trkpt lat="46.18931" lon="10.35194">
        <ele>1089.921</ele>
        <time>2018-08-12T04:50:35Z</time>
      </trkpt>
      <trkpt lat="46.18921" lon="10.35187">
        <ele>1088.413</ele>
        <time>2018-08-12T04:50:55Z</time>
      </trkpt>
      <trkpt lat="46.18918" lon="10.35182">
        <ele>1087.208</ele>
        <time>2018-08-12T04:51:15Z</time>
      </trkpt>
      <trkpt lat="46.18916" lon="10.35179">
        <ele>1086.478</ele>
        <time>2018-08-12T04:51:35Z</time>
      </trkpt>
      <trkpt lat="46.18932" lon="10.35172">
        <ele>1082.923</ele>
        <time>2018-08-12T04:51:55Z</time>
      </trkpt>
      <trkpt lat="46.18957" lon="10.35175">
        <ele>1081.489</ele>
        <time>2018-08-12T04:52:15Z</time>
      </trkpt>
      <trkpt lat="46.18994" lon="10.35181">
        <ele>1078.373</ele>
        <time>2018-08-12T04:52:35Z</time>
      </trkpt>
      <trkpt lat="46.19009" lon="10.3518">
        <ele>1075.278</ele>
        <time>2018-08-12T04:52:55Z</time>
      </trkpt>
      <trkpt lat="46.19027" lon="10.35178">
        <ele>1070.239</ele>
        <time>2018-08-12T04:53:15Z</time>
      </trkpt>
      <trkpt lat="46.19029" lon="10.35178">
        <ele>1069.446</ele>
        <time>2018-08-12T04:53:35Z</time>
      </trkpt>
      <trkpt lat="46.19033" lon="10.35182">
        <ele>1070.449</ele>
        <time>2018-08-12T04:53:55Z</time>
      </trkpt>
      <trkpt lat="46.1905" lon="10.35178">
        <ele>1063.235</ele>
        <time>2018-08-12T04:54:15Z</time>
      </trkpt>
      <trkpt lat="46.19055" lon="10.35179">
        <ele>1062.686</ele>
        <time>2018-08-12T04:54:35Z</time>
      </trkpt>
      <trkpt lat="46.19069" lon="10.35191">
        <ele>1066.414</ele>
        <time>2018-08-12T04:54:55Z</time>
      </trkpt>
      <trkpt lat="46.19093" lon="10.352">
        <ele>1065.308</ele>
        <time>2018-08-12T04:55:15Z</time>
      </trkpt>
      <trkpt lat="46.1911" lon="10.35206">
        <ele>1063.735</ele>
        <time>2018-08-12T04:55:35Z</time>
      </trkpt>
      <trkpt lat="46.19117" lon="10.35204">
        <ele>1061.85</ele>
        <time>2018-08-12T04:55:55Z</time>
      </trkpt>
      <trkpt lat="46.19109" lon="10.35181">
        <ele>1051.626</ele>
        <time>2018-08-12T04:56:15Z</time>
      </trkpt>
      <trkpt lat="46.19094" lon="10.35152">
        <ele>1041.63</ele>
        <time>2018-08-12T04:56:35Z</time>
      </trkpt>
      <trkpt lat="46.19033" lon="10.35034">
        <ele>1016.235</ele>
        <time>2018-08-12T04:56:55Z</time>
      </trkpt>
      <trkpt lat="46.19008" lon="10.34998">
        <ele>1009.156</ele>
        <time>2018-08-12T04:57:15Z</time>
      </trkpt>
      <trkpt lat="46.18969" lon="10.34964">
        <ele>1005.883</ele>
        <time>2018-08-12T04:57:35Z</time>
      </trkpt>
      <trkpt lat="46.18918" lon="10.34929">
        <ele>997.196</ele>
        <time>2018-08-12T04:57:55Z</time>
      </trkpt>
      <trkpt lat="46.1888" lon="10.34897">
        <ele>991.284</ele>
        <time>2018-08-12T04:58:15Z</time>
      </trkpt>
      <trkpt lat="46.18873" lon="10.34871">
        <ele>981.907</ele>
        <time>2018-08-12T04:58:35Z</time>
      </trkpt>
      <trkpt lat="46.18859" lon="10.34861">
        <ele>981.417</ele>
        <time>2018-08-12T04:58:55Z</time>
      </trkpt>
      <trkpt lat="46.18852" lon="10.34858">
        <ele>981.808</ele>
        <time>2018-08-12T04:59:15Z</time>
      </trkpt>
      <trkpt lat="46.18845" lon="10.34846">
        <ele>979.66</ele>
        <time>2018-08-12T04:59:35Z</time>
      </trkpt>
      <trkpt lat="46.18831" lon="10.34829">
        <ele>977.055</ele>
        <time>2018-08-12T04:59:55Z</time>
      </trkpt>
      <trkpt lat="46.18811" lon="10.34811">
        <ele>973.951</ele>
        <time>2018-08-12T05:00:15Z</time>
      </trkpt>
      <trkpt lat="46.188" lon="10.348">
        <ele>972.085</ele>
        <time>2018-08-12T05:00:35Z</time>
      </trkpt>
      <trkpt lat="46.18791" lon="10.34787">
        <ele>970.03</ele>
        <time>2018-08-12T05:00:55Z</time>
      </trkpt>
      <trkpt lat="46.18789" lon="10.3478">
        <ele>968.621</ele>
        <time>2018-08-12T05:01:15Z</time>
      </trkpt>
      <trkpt lat="46.18779" lon="10.34761">
        <ele>963.798</ele>
        <time>2018-08-12T05:01:35Z</time>
      </trkpt>
      <trkpt lat="46.18767" lon="10.34743">
        <ele>959.891</ele>
        <time>2018-08-12T05:01:55Z</time>
      </trkpt>
      <trkpt lat="46.18757" lon="10.34735">
        <ele>959.348</ele>
        <time>2018-08-12T05:02:15Z</time>
      </trkpt>
      <trkpt lat="46.18742" lon="10.34725">
        <ele>957.761</ele>
        <time>2018-08-12T05:02:35Z</time>
      </trkpt>
      <trkpt lat="46.18725" lon="10.34716">
        <ele>955.817</ele>
        <time>2018-08-12T05:02:55Z</time>
      </trkpt>
      <trkpt lat="46.18724" lon="10.34716">
        <ele>955.808</ele>
        <time>2018-08-12T05:03:15Z</time>
      </trkpt>
      <trkpt lat="46.18713" lon="10.34717">
        <ele>955.196</ele>
        <time>2018-08-12T05:03:35Z</time>
      </trkpt>
      <trkpt lat="46.18695" lon="10.34714">
        <ele>952.851</ele>
        <time>2018-08-12T05:03:55Z</time>
      </trkpt>
      <trkpt lat="46.18684" lon="10.34708">
        <ele>950.757</ele>
        <time>2018-08-12T05:04:15Z</time>
      </trkpt>
      <trkpt lat="46.18679" lon="10.34698">
        <ele>948.731</ele>
        <time>2018-08-12T05:04:35Z</time>
      </trkpt>
      <trkpt lat="46.18677" lon="10.34682">
        <ele>944.446</ele>
        <time>2018-08-12T05:04:55Z</time>
      </trkpt>
      <trkpt lat="46.18682" lon="10.34662">
        <ele>938.337</ele>
        <time>2018-08-12T05:05:15Z</time>
      </trkpt>
      <trkpt lat="46.18696" lon="10.34643">
        <ele>930.294</ele>
        <time>2018-08-12T05:05:35Z</time>
      </trkpt>
      <trkpt lat="46.18715" lon="10.34616">
        <ele>914.947</ele>
        <time>2018-08-12T05:05:55Z</time>
      </trkpt>
      <trkpt lat="46.18727" lon="10.34603">
        <ele>906.883</ele>
        <time>2018-08-12T05:06:15Z</time>
      </trkpt>
      <trkpt lat="46.18738" lon="10.34605">
        <ele>905.125</ele>
        <time>2018-08-12T05:06:35Z</time>
      </trkpt>
      <trkpt lat="46.18744" lon="10.34597">
        <ele>900.117</ele>
        <time>2018-08-12T05:06:55Z</time>
      </trkpt>
      <trkpt lat="46.18746" lon="10.34585">
        <ele>894.008</ele>
        <time>2018-08-12T05:07:15Z</time>
      </trkpt>
      <trkpt lat="46.18738" lon="10.34567">
        <ele>886.82</ele>
        <time>2018-08-12T05:07:35Z</time>
      </trkpt>
      <trkpt lat="46.1871" lon="10.34548">
        <ele>882.075</ele>
        <time>2018-08-12T05:07:55Z</time>
      </trkpt>
      <trkpt lat="46.18685" lon="10.3453">
        <ele>876.731</ele>
        <time>2018-08-12T05:08:15Z</time>
      </trkpt>
      <trkpt lat="46.18665" lon="10.3452">
        <ele>874.765</ele>
        <time>2018-08-12T05:08:35Z</time>
      </trkpt>
      <trkpt lat="46.18638" lon="10.3451">
        <ele>875.56</ele>
        <time>2018-08-12T05:08:55Z</time>
      </trkpt>
      <trkpt lat="46.18615" lon="10.34503">
        <ele>873.371</ele>
        <time>2018-08-12T05:09:15Z</time>
      </trkpt>
      <trkpt lat="46.18603" lon="10.34506">
        <ele>873.898</ele>
        <time>2018-08-12T05:09:35Z</time>
      </trkpt>
      <trkpt lat="46.18584" lon="10.34518">
        <ele>876.591</ele>
        <time>2018-08-12T05:09:55Z</time>
      </trkpt>
      <trkpt lat="46.18573" lon="10.34522">
        <ele>875.099</ele>
        <time>2018-08-12T05:10:15Z</time>
      </trkpt>
      <trkpt lat="46.18555" lon="10.34522">
        <ele>869.107</ele>
        <time>2018-08-12T05:10:35Z</time>
      </trkpt>
      <trkpt lat="46.18536" lon="10.34528">
        <ele>867.427</ele>
        <time>2018-08-12T05:10:55Z</time>
      </trkpt>
      <trkpt lat="46.18523" lon="10.34538">
        <ele>867.508</ele>
        <time>2018-08-12T05:11:15Z</time>
      </trkpt>
      <trkpt lat="46.18511" lon="10.34544">
        <ele>866.671</ele>
        <time>2018-08-12T05:11:35Z</time>
      </trkpt>
      <trkpt lat="46.18499" lon="10.34538">
        <ele>863.476</ele>
        <time>2018-08-12T05:11:55Z</time>
      </trkpt>
      <trkpt lat="46.18484" lon="10.34522">
        <ele>859.692</ele>
        <time>2018-08-12T05:12:15Z</time>
      </trkpt>
      <trkpt lat="46.18477" lon="10.34505">
        <ele>856.936</ele>
        <time>2018-08-12T05:12:35Z</time>
      </trkpt>
      <trkpt lat="46.18476" lon="10.34498">
        <ele>855.871</ele>
        <time>2018-08-12T05:12:55Z</time>
      </trkpt>
      <trkpt lat="46.18473" lon="10.34484">
        <ele>853.212</ele>
        <time>2018-08-12T05:13:15Z</time>
      </trkpt>
      <trkpt lat="46.18472" lon="10.3448">
        <ele>852.129</ele>
        <time>2018-08-12T05:13:35Z</time>
      </trkpt>
      <trkpt lat="46.18467" lon="10.3446">
        <ele>848.492</ele>
        <time>2018-08-12T05:13:55Z</time>
      </trkpt>
      <trkpt lat="46.1846" lon="10.34442">
        <ele>844.464</ele>
        <time>2018-08-12T05:14:15Z</time>
      </trkpt>
      <trkpt lat="46.18452" lon="10.34433">
        <ele>841.006</ele>
        <time>2018-08-12T05:14:35Z</time>
      </trkpt>
      <trkpt lat="46.18441" lon="10.34412">
        <ele>836.116</ele>
        <time>2018-08-12T05:14:55Z</time>
      </trkpt>
      <trkpt lat="46.18442" lon="10.34423">
        <ele>837.808</ele>
        <time>2018-08-12T05:15:15Z</time>
      </trkpt>
      <trkpt lat="46.18437" lon="10.34434">
        <ele>839.288</ele>
        <time>2018-08-12T05:15:35Z</time>
      </trkpt>
      <trkpt lat="46.18427" lon="10.34433">
        <ele>838.523</ele>
        <time>2018-08-12T05:15:55Z</time>
      </trkpt>
      <trkpt lat="46.18418" lon="10.34435">
        <ele>838.359</ele>
        <time>2018-08-12T05:16:15Z</time>
      </trkpt>
      <trkpt lat="46.18408" lon="10.34442">
        <ele>838.723</ele>
        <time>2018-08-12T05:16:35Z</time>
      </trkpt>
      <trkpt lat="46.18406" lon="10.34446">
        <ele>839.068</ele>
        <time>2018-08-12T05:16:55Z</time>
      </trkpt>
      <trkpt lat="46.18394" lon="10.34441">
        <ele>837.039</ele>
        <time>2018-08-12T05:17:15Z</time>
      </trkpt>
      <trkpt lat="46.18391" lon="10.3444">
        <ele>836.636</ele>
        <time>2018-08-12T05:17:35Z</time>
      </trkpt>
      <trkpt lat="46.18383" lon="10.34438">
        <ele>835.439</ele>
        <time>2018-08-12T05:17:55Z</time>
      </trkpt>
      <trkpt lat="46.1837" lon="10.34439">
        <ele>834.597</ele>
        <time>2018-08-12T05:18:15Z</time>
      </trkpt>
      <trkpt lat="46.18361" lon="10.34441">
        <ele>834.123</ele>
        <time>2018-08-12T05:18:35Z</time>
      </trkpt>
      <trkpt lat="46.18357" lon="10.34441">
        <ele>833.425</ele>
        <time>2018-08-12T05:18:55Z</time>
      </trkpt>
      <trkpt lat="46.18353" lon="10.34441">
        <ele>832.708</ele>
        <time>2018-08-12T05:19:15Z</time>
      </trkpt>
      <trkpt lat="46.18339" lon="10.34433">
        <ele>828.471</ele>
        <time>2018-08-12T05:19:35Z</time>
      </trkpt>
      <trkpt lat="46.18335" lon="10.34429">
        <ele>826.916</ele>
        <time>2018-08-12T05:19:55Z</time>
      </trkpt>
      <trkpt lat="46.1833" lon="10.3442">
        <ele>824.712</ele>
        <time>2018-08-12T05:20:15Z</time>
      </trkpt>
      <trkpt lat="46.1833" lon="10.34408">
        <ele>823.226</ele>
        <time>2018-08-12T05:20:35Z</time>
      </trkpt>
      <trkpt lat="46.18325" lon="10.34398">
        <ele>822.021</ele>
        <time>2018-08-12T05:20:55Z</time>
      </trkpt>
      <trkpt lat="46.18318" lon="10.34389">
        <ele>820.392</ele>
        <time>2018-08-12T05:21:15Z</time>
      </trkpt>
      <trkpt lat="46.18315" lon="10.34381">
        <ele>818.979</ele>
        <time>2018-08-12T05:21:35Z</time>
      </trkpt>
      <trkpt lat="46.18313" lon="10.34379">
        <ele>818.532</ele>
        <time>2018-08-12T05:21:55Z</time>
      </trkpt>
      <trkpt lat="46.18309" lon="10.34373">
        <ele>817.159</ele>
        <time>2018-08-12T05:22:15Z</time>
      </trkpt>
      <trkpt lat="46.18292" lon="10.34366">
        <ele>814.203</ele>
        <time>2018-08-12T05:22:35Z</time>
      </trkpt>
      <trkpt lat="46.1828" lon="10.34359">
        <ele>811.823</ele>
        <time>2018-08-12T05:22:55Z</time>
      </trkpt>
      <trkpt lat="46.18256" lon="10.34337">
        <ele>805.308</ele>
        <time>2018-08-12T05:23:15Z</time>
      </trkpt>
      <trkpt lat="46.18228" lon="10.34306">
        <ele>798.577</ele>
        <time>2018-08-12T05:23:35Z</time>
      </trkpt>
      <trkpt lat="46.18218" lon="10.34297">
        <ele>796.942</ele>
        <time>2018-08-12T05:23:55Z</time>
      </trkpt>
      <trkpt lat="46.1821" lon="10.3428">
        <ele>794.718</ele>
        <time>2018-08-12T05:24:15Z</time>
      </trkpt>
      <trkpt lat="46.18205" lon="10.34271">
        <ele>793.762</ele>
        <time>2018-08-12T05:24:35Z</time>
      </trkpt>
      <trkpt lat="46.18202" lon="10.34267">
        <ele>793.417</ele>
        <time>2018-08-12T05:24:55Z</time>
      </trkpt>
      <trkpt lat="46.18199" lon="10.34263">
        <ele>793.088</ele>
        <time>2018-08-12T05:25:15Z</time>
      </trkpt>
      <trkpt lat="46.18189" lon="10.34254">
        <ele>792.275</ele>
        <time>2018-08-12T05:25:35Z</time>
      </trkpt>
      <trkpt lat="46.18179" lon="10.3425">
        <ele>792.078</ele>
        <time>2018-08-12T05:25:55Z</time>
      </trkpt>
      <trkpt lat="46.18162" lon="10.34198">
        <ele>789.255</ele>
        <time>2018-08-12T05:26:15Z</time>
      </trkpt>
      <trkpt lat="46.18155" lon="10.34162">
        <ele>787.507</ele>
        <time>2018-08-12T05:26:35Z</time>
      </trkpt>
      <trkpt lat="46.1814" lon="10.3411">
        <ele>787.717</ele>
        <time>2018-08-12T05:26:55Z</time>
      </trkpt>
      <trkpt lat="46.1813" lon="10.34058">
        <ele>782.908</ele>
        <time>2018-08-12T05:27:15Z</time>
      </trkpt>
      <trkpt lat="46.18111" lon="10.34021">
        <ele>780.097</ele>
        <time>2018-08-12T05:27:35Z</time>
      </trkpt>
      <trkpt lat="46.18099" lon="10.33999">
        <ele>775.922</ele>
        <time>2018-08-12T05:27:55Z</time>
      </trkpt>
      <trkpt lat="46.18064" lon="10.33987">
        <ele>772.748</ele>
        <time>2018-08-12T05:28:15Z</time>
      </trkpt>
      <trkpt lat="46.1801" lon="10.33952">
        <ele>767.972</ele>
        <time>2018-08-12T05:28:35Z</time>
      </trkpt>
      <trkpt lat="46.18019" lon="10.33943">
        <ele>766.097</ele>
        <time>2018-08-12T05:28:55Z</time>
      </trkpt>
      <trkpt lat="46.18041" lon="10.33932">
        <ele>763.598</ele>
        <time>2018-08-12T05:29:15Z</time>
      </trkpt>
      <trkpt lat="46.18067" lon="10.33936">
        <ele>764.545</ele>
        <time>2018-08-12T05:29:35Z</time>
      </trkpt>
      <trkpt lat="46.18095" lon="10.33944">
        <ele>766.348</ele>
        <time>2018-08-12T05:29:55Z</time>
      </trkpt>
      <trkpt lat="46.18111" lon="10.33919">
        <ele>761.459</ele>
        <time>2018-08-12T05:30:15Z</time>
      </trkpt>
      <trkpt lat="46.18133" lon="10.33899">
        <ele>755.003</ele>
        <time>2018-08-12T05:30:35Z</time>
      </trkpt>
      <trkpt lat="46.18142" lon="10.33883">
        <ele>750.423</ele>
        <time>2018-08-12T05:30:55Z</time>
      </trkpt>
      <trkpt lat="46.18143" lon="10.33883">
        <ele>750.208</ele>
        <time>2018-08-12T05:31:15Z</time>
      </trkpt>
      <trkpt lat="46.18163" lon="10.33857">
        <ele>744.797</ele>
        <time>2018-08-12T05:31:35Z</time>
      </trkpt>
      <trkpt lat="46.18183" lon="10.33861">
        <ele>743.872</ele>
        <time>2018-08-12T05:31:55Z</time>
      </trkpt>
      <trkpt lat="46.18192" lon="10.33885">
        <ele>744.958</ele>
        <time>2018-08-12T05:32:15Z</time>
      </trkpt>
      <trkpt lat="46.18201" lon="10.33891">
        <ele>745.482</ele>
        <time>2018-08-12T05:32:35Z</time>
      </trkpt>
      <trkpt lat="46.18214" lon="10.33892">
        <ele>745.817</ele>
        <time>2018-08-12T05:32:55Z</time>
      </trkpt>
      <trkpt lat="46.18222" lon="10.33886">
        <ele>745.858</ele>
        <time>2018-08-12T05:33:15Z</time>
      </trkpt>
      <trkpt lat="46.1824" lon="10.33874">
        <ele>747.975</ele>
        <time>2018-08-12T05:33:35Z</time>
      </trkpt>
      <trkpt lat="46.18248" lon="10.33845">
        <ele>746.048</ele>
        <time>2018-08-12T05:33:55Z</time>
      </trkpt>
      <trkpt lat="46.18225" lon="10.33818">
        <ele>742.515</ele>
        <time>2018-08-12T05:34:15Z</time>
      </trkpt>
      <trkpt lat="46.18218" lon="10.33771">
        <ele>738.165</ele>
        <time>2018-08-12T05:34:35Z</time>
      </trkpt>
      <trkpt lat="46.18191" lon="10.33687">
        <ele>729.511</ele>
        <time>2018-08-12T05:34:55Z</time>
      </trkpt>
      <trkpt lat="46.18184" lon="10.33663">
        <ele>727.508</ele>
        <time>2018-08-12T05:35:15Z</time>
      </trkpt>
      <trkpt lat="46.18174" lon="10.33644">
        <ele>724.453</ele>
        <time>2018-08-12T05:35:35Z</time>
      </trkpt>
      <trkpt lat="46.18159" lon="10.33608">
        <ele>712.898</ele>
        <time>2018-08-12T05:35:55Z</time>
      </trkpt>
      <trkpt lat="46.18143" lon="10.33585">
        <ele>705.684</ele>
        <time>2018-08-12T05:36:15Z</time>
      </trkpt>
      <trkpt lat="46.1814" lon="10.3357">
        <ele>702.798</ele>
        <time>2018-08-12T05:36:35Z</time>
      </trkpt>
      <trkpt lat="46.18157" lon="10.33548">
        <ele>700.863</ele>
        <time>2018-08-12T05:36:55Z</time>
      </trkpt>
      <trkpt lat="46.18162" lon="10.33547">
        <ele>701.024</ele>
        <time>2018-08-12T05:37:15Z</time>
      </trkpt>
      <trkpt lat="46.18171" lon="10.33537">
        <ele>701.351</ele>
        <time>2018-08-12T05:37:35Z</time>
      </trkpt>
      <trkpt lat="46.18177" lon="10.33532">
        <ele>701.664</ele>
        <time>2018-08-12T05:37:55Z</time>
      </trkpt>
      <trkpt lat="46.18181" lon="10.33524">
        <ele>701.112</ele>
        <time>2018-08-12T05:38:15Z</time>
      </trkpt>
      <trkpt lat="46.18182" lon="10.33516">
        <ele>700.532</ele>
        <time>2018-08-12T05:38:35Z</time>
      </trkpt>
      <trkpt lat="46.18179" lon="10.3349">
        <ele>698.605</ele>
        <time>2018-08-12T05:38:55Z</time>
      </trkpt>
      <trkpt lat="46.18184" lon="10.33481">
        <ele>698.408</ele>
        <time>2018-08-12T05:39:15Z</time>
      </trkpt>
      <trkpt lat="46.18189" lon="10.33416">
        <ele>699.833</ele>
        <time>2018-08-12T05:39:35Z</time>
      </trkpt>
      <trkpt lat="46.18188" lon="10.33414">
        <ele>699.948</ele>
        <time>2018-08-12T05:39:55Z</time>
      </trkpt>
      <trkpt lat="46.18189" lon="10.33395">
        <ele>701.064</ele>
        <time>2018-08-12T05:40:15Z</time>
      </trkpt>
      <trkpt lat="46.18197" lon="10.33363">
        <ele>708.968</ele>
        <time>2018-08-12T05:40:35Z</time>
      </trkpt>
      <trkpt lat="46.18192" lon="10.33352">
        <ele>709.023</ele>
        <time>2018-08-12T05:40:55Z</time>
      </trkpt>
      <trkpt lat="46.18168" lon="10.33305">
        <ele>706.784</ele>
        <time>2018-08-12T05:41:15Z</time>
      </trkpt>
      <trkpt lat="46.18156" lon="10.3333">
        <ele>702.121</ele>
        <time>2018-08-12T05:41:35Z</time>
      </trkpt>
      <trkpt lat="46.18133" lon="10.33312">
        <ele>701.114</ele>
        <time>2018-08-12T05:41:55Z</time>
      </trkpt>
      <trkpt lat="46.18102" lon="10.3329">
        <ele>700.843</ele>
        <time>2018-08-12T05:42:15Z</time>
      </trkpt>
      <trkpt lat="46.18082" lon="10.33282">
        <ele>700.664</ele>
        <time>2018-08-12T05:42:35Z</time>
      </trkpt>
      <trkpt lat="46.18072" lon="10.33277">
        <ele>700.61</ele>
        <time>2018-08-12T05:42:55Z</time>
      </trkpt>
      <trkpt lat="46.18063" lon="10.33251">
        <ele>701.208</ele>
        <time>2018-08-12T05:43:15Z</time>
      </trkpt>
      <trkpt lat="46.18055" lon="10.33232">
        <ele>701.596</ele>
        <time>2018-08-12T05:43:35Z</time>
      </trkpt>
      <trkpt lat="46.18022" lon="10.33246">
        <ele>696.391</ele>
        <time>2018-08-12T05:43:55Z</time>
      </trkpt>
      <trkpt lat="46.18003" lon="10.3324">
        <ele>693.717</ele>
        <time>2018-08-12T05:44:15Z</time>
      </trkpt>
      <trkpt lat="46.17984" lon="10.3322">
        <ele>691.751</ele>
        <time>2018-08-12T05:44:35Z</time>
      </trkpt>
      <trkpt lat="46.1797" lon="10.33231">
        <ele>689.326</ele>
        <time>2018-08-12T05:44:55Z</time>
      </trkpt>
      <trkpt lat="46.17953" lon="10.33251">
        <ele>686.297</ele>
        <time>2018-08-12T05:45:15Z</time>
      </trkpt>
      <trkpt lat="46.17937" lon="10.33261">
        <ele>683.684</ele>
        <time>2018-08-12T05:45:35Z</time>
      </trkpt>
      <trkpt lat="46.17915" lon="10.33262">
        <ele>680.747</ele>
        <time>2018-08-12T05:45:55Z</time>
      </trkpt>
      <trkpt lat="46.17915" lon="10.33074">
        <ele>682.617</ele>
        <time>2018-08-12T05:46:15Z</time>
      </trkpt>
      <trkpt lat="46.17988" lon="10.33079">
        <ele>695.087</ele>
        <time>2018-08-12T05:46:35Z</time>
      </trkpt>
      <trkpt lat="46.18054" lon="10.33098">
        <ele>705.115</ele>
        <time>2018-08-12T05:46:55Z</time>
      </trkpt>
      <trkpt lat="46.18085" lon="10.33096">
        <ele>709.208</ele>
        <time>2018-08-12T05:47:15Z</time>
      </trkpt>
      <trkpt lat="46.18086" lon="10.33043">
        <ele>711.893</ele>
        <time>2018-08-12T05:47:35Z</time>
      </trkpt>
      <trkpt lat="46.18077" lon="10.32986">
        <ele>710.268</ele>
        <time>2018-08-12T05:47:55Z</time>
      </trkpt>
      <trkpt lat="46.18084" lon="10.32957">
        <ele>711.164</ele>
        <time>2018-08-12T05:48:15Z</time>
      </trkpt>
      <trkpt lat="46.18085" lon="10.32911">
        <ele>710.498</ele>
        <time>2018-08-12T05:48:35Z</time>
      </trkpt>
      <trkpt lat="46.18094" lon="10.32893">
        <ele>713.053</ele>
        <time>2018-08-12T05:48:55Z</time>
      </trkpt>
      <trkpt lat="46.18071" lon="10.32819">
        <ele>704.034</ele>
        <time>2018-08-12T05:49:15Z</time>
      </trkpt>
      <trkpt lat="46.18093" lon="10.32823">
        <ele>711.321</ele>
        <time>2018-08-12T05:49:35Z</time>
      </trkpt>
      <trkpt lat="46.1811" lon="10.32806">
        <ele>717.524</ele>
        <time>2018-08-12T05:49:55Z</time>
      </trkpt>
      <trkpt lat="46.18121" lon="10.32813">
        <ele>720.837</ele>
        <time>2018-08-12T05:50:15Z</time>
      </trkpt>
      <trkpt lat="46.18131" lon="10.32802">
        <ele>724.249</ele>
        <time>2018-08-12T05:50:35Z</time>
      </trkpt>
      <trkpt lat="46.18137" lon="10.32762">
        <ele>724.213</ele>
        <time>2018-08-12T05:50:55Z</time>
      </trkpt>
      <trkpt lat="46.18141" lon="10.32659">
        <ele>727.908</ele>
        <time>2018-08-12T05:51:15Z</time>
      </trkpt>
      <trkpt lat="46.1816" lon="10.3255">
        <ele>751.755</ele>
        <time>2018-08-12T05:51:35Z</time>
      </trkpt>
      <trkpt lat="46.18155" lon="10.32452">
        <ele>757.47</ele>
        <time>2018-08-12T05:51:55Z</time>
      </trkpt>
      <trkpt lat="46.18136" lon="10.32345">
        <ele>759.486</ele>
        <time>2018-08-12T05:52:15Z</time>
      </trkpt>
      <trkpt lat="46.18124" lon="10.32257">
        <ele>772.35</ele>
        <time>2018-08-12T05:52:35Z</time>
      </trkpt>
      <trkpt lat="46.1815" lon="10.3221">
        <ele>795.095</ele>
        <time>2018-08-12T05:52:55Z</time>
      </trkpt>
      <trkpt lat="46.18167" lon="10.32171">
        <ele>811.536</ele>
        <time>2018-08-12T05:53:15Z</time>
      </trkpt>
      <trkpt lat="46.18191" lon="10.32147">
        <ele>824.683</ele>
        <time>2018-08-12T05:53:35Z</time>
      </trkpt>
      <trkpt lat="46.18222" lon="10.32071">
        <ele>837.146</ele>
        <time>2018-08-12T05:53:55Z</time>
      </trkpt>
      <trkpt lat="46.18231" lon="10.3202">
        <ele>853.938</ele>
        <time>2018-08-12T05:54:15Z</time>
      </trkpt>
      <trkpt lat="46.18204" lon="10.31994">
        <ele>839.27</ele>
        <time>2018-08-12T05:54:35Z</time>
      </trkpt>
      <trkpt lat="46.18195" lon="10.31966">
        <ele>842.817</ele>
        <time>2018-08-12T05:54:55Z</time>
      </trkpt>
      <trkpt lat="46.18156" lon="10.31934">
        <ele>836.108</ele>
        <time>2018-08-12T05:55:15Z</time>
      </trkpt>
      <trkpt lat="46.18133" lon="10.31878">
        <ele>850.595</ele>
        <time>2018-08-12T05:55:35Z</time>
      </trkpt>
      <trkpt lat="46.18088" lon="10.31748">
        <ele>872.75</ele>
        <time>2018-08-12T05:55:55Z</time>
      </trkpt>
      <trkpt lat="46.1808" lon="10.31679">
        <ele>882.356</ele>
        <time>2018-08-12T05:56:15Z</time>
      </trkpt>
      <trkpt lat="46.18119" lon="10.31651">
        <ele>908.01</ele>
        <time>2018-08-12T05:56:35Z</time>
      </trkpt>
      <trkpt lat="46.18135" lon="10.316">
        <ele>920.855</ele>
        <time>2018-08-12T05:56:55Z</time>
      </trkpt>
      <trkpt lat="46.18128" lon="10.31544">
        <ele>923.566</ele>
        <time>2018-08-12T05:57:15Z</time>
      </trkpt>
      <trkpt lat="46.18145" lon="10.31493">
        <ele>935.873</ele>
        <time>2018-08-12T05:57:35Z</time>
      </trkpt>
      <trkpt lat="46.1815" lon="10.31477">
        <ele>938.166</ele>
        <time>2018-08-12T05:57:55Z</time>
      </trkpt>
      <trkpt lat="46.18142" lon="10.31437">
        <ele>935.799</ele>
        <time>2018-08-12T05:58:15Z</time>
      </trkpt>
      <trkpt lat="46.18143" lon="10.31365">
        <ele>949.807</ele>
        <time>2018-08-12T05:58:35Z</time>
      </trkpt>
      <trkpt lat="46.18133" lon="10.31294">
        <ele>948.427</ele>
        <time>2018-08-12T05:58:55Z</time>
      </trkpt>
      <trkpt lat="46.18128" lon="10.312">
        <ele>969.508</ele>
        <time>2018-08-12T05:59:15Z</time>
      </trkpt>
      <trkpt lat="46.18181" lon="10.31222">
        <ele>992.011</ele>
        <time>2018-08-12T05:59:35Z</time>
      </trkpt>
      <trkpt lat="46.18241" lon="10.31249">
        <ele>1007.336</ele>
        <time>2018-08-12T05:59:55Z</time>
      </trkpt>
      <trkpt lat="46.18286" lon="10.31273">
        <ele>1025.382</ele>
        <time>2018-08-12T06:00:15Z</time>
      </trkpt>
      <trkpt lat="46.18265" lon="10.31231">
        <ele>1025.456</ele>
        <time>2018-08-12T06:00:35Z</time>
      </trkpt>
      <trkpt lat="46.18256" lon="10.31209">
        <ele>1027.621</ele>
        <time>2018-08-12T06:00:55Z</time>
      </trkpt>
      <trkpt lat="46.18253" lon="10.31193">
        <ele>1032.362</ele>
        <time>2018-08-12T06:01:15Z</time>
      </trkpt>
      <trkpt lat="46.18248" lon="10.31175">
        <ele>1040.689</ele>
        <time>2018-08-12T06:01:35Z</time>
      </trkpt>
      <trkpt lat="46.18244" lon="10.3116">
        <ele>1045.542</ele>
        <time>2018-08-12T06:01:55Z</time>
      </trkpt>
      <trkpt lat="46.18237" lon="10.31141">
        <ele>1048.139</ele>
        <time>2018-08-12T06:02:15Z</time>
      </trkpt>
      <trkpt lat="46.18227" lon="10.31129">
        <ele>1045.801</ele>
        <time>2018-08-12T06:02:35Z</time>
      </trkpt>
      <trkpt lat="46.18221" lon="10.31124">
        <ele>1043.121</ele>
        <time>2018-08-12T06:02:55Z</time>
      </trkpt>
      <trkpt lat="46.18219" lon="10.31122">
        <ele>1042.508</ele>
        <time>2018-08-12T06:03:15Z</time>
      </trkpt>
      <trkpt lat="46.18202" lon="10.31086">
        <ele>1049.275</ele>
        <time>2018-08-12T06:03:35Z</time>
      </trkpt>
      <trkpt lat="46.18199" lon="10.31066">
        <ele>1057.01</ele>
        <time>2018-08-12T06:03:55Z</time>
      </trkpt>
      <trkpt lat="46.18197" lon="10.31052">
        <ele>1061.456</ele>
        <time>2018-08-12T06:04:15Z</time>
      </trkpt>
      <trkpt lat="46.18192" lon="10.31038">
        <ele>1062.64</ele>
        <time>2018-08-12T06:04:35Z</time>
      </trkpt>
      <trkpt lat="46.18191" lon="10.3103">
        <ele>1064.625</ele>
        <time>2018-08-12T06:04:55Z</time>
      </trkpt>
      <trkpt lat="46.18187" lon="10.31017">
        <ele>1065.936</ele>
        <time>2018-08-12T06:05:15Z</time>
      </trkpt>
      <trkpt lat="46.18187" lon="10.31004">
        <ele>1069.883</ele>
        <time>2018-08-12T06:05:35Z</time>
      </trkpt>
      <trkpt lat="46.18187" lon="10.30992">
        <ele>1074.596</ele>
        <time>2018-08-12T06:05:55Z</time>
      </trkpt>
      <trkpt lat="46.18189" lon="10.30971">
        <ele>1085.053</ele>
        <time>2018-08-12T06:06:15Z</time>
      </trkpt>
      <trkpt lat="46.18188" lon="10.30952">
        <ele>1089.104</ele>
        <time>2018-08-12T06:06:35Z</time>
      </trkpt>
      <trkpt lat="46.18188" lon="10.30935">
        <ele>1092.414</ele>
        <time>2018-08-12T06:06:55Z</time>
      </trkpt>
      <trkpt lat="46.18188" lon="10.30915">
        <ele>1096.008</ele>
        <time>2018-08-12T06:07:15Z</time>
      </trkpt>
      <trkpt lat="46.1819" lon="10.30895">
        <ele>1100.427</ele>
        <time>2018-08-12T06:07:35Z</time>
      </trkpt>
      <trkpt lat="46.18195" lon="10.30877">
        <ele>1104.642</ele>
        <time>2018-08-12T06:07:55Z</time>
      </trkpt>
      <trkpt lat="46.18197" lon="10.3086">
        <ele>1106.068</ele>
        <time>2018-08-12T06:08:15Z</time>
      </trkpt>
      <trkpt lat="46.18199" lon="10.30842">
        <ele>1110.942</ele>
        <time>2018-08-12T06:08:35Z</time>
      </trkpt>
      <trkpt lat="46.182" lon="10.30825">
        <ele>1114.087</ele>
        <time>2018-08-12T06:08:55Z</time>
      </trkpt>
      <trkpt lat="46.18201" lon="10.30814">
        <ele>1116.188</ele>
        <time>2018-08-12T06:09:15Z</time>
      </trkpt>
      <trkpt lat="46.18204" lon="10.30791">
        <ele>1121.885</ele>
        <time>2018-08-12T06:09:35Z</time>
      </trkpt>
      <trkpt lat="46.18201" lon="10.30777">
        <ele>1122.128</ele>
        <time>2018-08-12T06:09:55Z</time>
      </trkpt>
      <trkpt lat="46.18197" lon="10.30765">
        <ele>1121.671</ele>
        <time>2018-08-12T06:10:15Z</time>
      </trkpt>
      <trkpt lat="46.18194" lon="10.30754">
        <ele>1121.041</ele>
        <time>2018-08-12T06:10:35Z</time>
      </trkpt>
      <trkpt lat="46.18193" lon="10.30743">
        <ele>1121.615</ele>
        <time>2018-08-12T06:10:55Z</time>
      </trkpt>
      <trkpt lat="46.18196" lon="10.30737">
        <ele>1124.108</ele>
        <time>2018-08-12T06:11:15Z</time>
      </trkpt>
      <trkpt lat="46.182" lon="10.3073">
        <ele>1127.959</ele>
        <time>2018-08-12T06:11:35Z</time>
      </trkpt>
      <trkpt lat="46.18199" lon="10.30715">
        <ele>1128.944</ele>
        <time>2018-08-12T06:11:55Z</time>
      </trkpt>
      <trkpt lat="46.18194" lon="10.30704">
        <ele>1127.69</ele>
        <time>2018-08-12T06:12:15Z</time>
      </trkpt>
      <trkpt lat="46.18192" lon="10.30668">
        <ele>1135.724</ele>
        <time>2018-08-12T06:12:35Z</time>
      </trkpt>
      <trkpt lat="46.1819" lon="10.3065">
        <ele>1139.959</ele>
        <time>2018-08-12T06:12:55Z</time>
      </trkpt>
      <trkpt lat="46.1819" lon="10.30617">
        <ele>1148.58</ele>
        <time>2018-08-12T06:13:15Z</time>
      </trkpt>
      <trkpt lat="46.18193" lon="10.30606">
        <ele>1153.297</ele>
        <time>2018-08-12T06:13:35Z</time>
      </trkpt>
      <trkpt lat="46.18199" lon="10.30589">
        <ele>1159.44</ele>
        <time>2018-08-12T06:13:55Z</time>
      </trkpt>
      <trkpt lat="46.18204" lon="10.30578">
        <ele>1164.822</ele>
        <time>2018-08-12T06:14:15Z</time>
      </trkpt>
      <trkpt lat="46.18209" lon="10.30571">
        <ele>1168.862</ele>
        <time>2018-08-12T06:14:35Z</time>
      </trkpt>
      <trkpt lat="46.18217" lon="10.30578">
        <ele>1171.808</ele>
        <time>2018-08-12T06:14:55Z</time>
      </trkpt>
      <trkpt lat="46.18221" lon="10.30585">
        <ele>1172.808</ele>
        <time>2018-08-12T06:15:15Z</time>
      </trkpt>
      <trkpt lat="46.18225" lon="10.30591">
        <ele>1173.534</ele>
        <time>2018-08-12T06:15:35Z</time>
      </trkpt>
      <trkpt lat="46.18232" lon="10.30595">
        <ele>1175.859</ele>
        <time>2018-08-12T06:15:55Z</time>
      </trkpt>
      <trkpt lat="46.18238" lon="10.30585">
        <ele>1180.345</ele>
        <time>2018-08-12T06:16:15Z</time>
      </trkpt>
      <trkpt lat="46.18241" lon="10.30571">
        <ele>1184.839</ele>
        <time>2018-08-12T06:16:35Z</time>
      </trkpt>
      <trkpt lat="46.18243" lon="10.30549">
        <ele>1191.684</ele>
        <time>2018-08-12T06:16:55Z</time>
      </trkpt>
      <trkpt lat="46.18238" lon="10.30502">
        <ele>1199.525</ele>
        <time>2018-08-12T06:17:15Z</time>
      </trkpt>
      <trkpt lat="46.18241" lon="10.30486">
        <ele>1203.952</ele>
        <time>2018-08-12T06:17:35Z</time>
      </trkpt>
      <trkpt lat="46.18242" lon="10.30472">
        <ele>1206.985</ele>
        <time>2018-08-12T06:17:55Z</time>
      </trkpt>
      <trkpt lat="46.18242" lon="10.30448">
        <ele>1214.242</ele>
        <time>2018-08-12T06:18:15Z</time>
      </trkpt>
      <trkpt lat="46.18242" lon="10.30434">
        <ele>1218.622</ele>
        <time>2018-08-12T06:18:35Z</time>
      </trkpt>
      <trkpt lat="46.18242" lon="10.3042">
        <ele>1222.914</ele>
        <time>2018-08-12T06:18:55Z</time>
      </trkpt>
      <trkpt lat="46.18239" lon="10.30408">
        <ele>1224.008</ele>
        <time>2018-08-12T06:19:15Z</time>
      </trkpt>
      <trkpt lat="46.18238" lon="10.30398">
        <ele>1226.936</ele>
        <time>2018-08-12T06:19:35Z</time>
      </trkpt>
      <trkpt lat="46.18236" lon="10.30387">
        <ele>1228.821</ele>
        <time>2018-08-12T06:19:55Z</time>
      </trkpt>
      <trkpt lat="46.18235" lon="10.30374">
        <ele>1231.097</ele>
        <time>2018-08-12T06:20:15Z</time>
      </trkpt>
      <trkpt lat="46.18236" lon="10.30366">
        <ele>1233.681</ele>
        <time>2018-08-12T06:20:35Z</time>
      </trkpt>
      <trkpt lat="46.18238" lon="10.30359">
        <ele>1236.846</ele>
        <time>2018-08-12T06:20:55Z</time>
      </trkpt>
      <trkpt lat="46.18241" lon="10.3035">
        <ele>1241.287</ele>
        <time>2018-08-12T06:21:15Z</time>
      </trkpt>
      <trkpt lat="46.18246" lon="10.30334">
        <ele>1247.154</ele>
        <time>2018-08-12T06:21:35Z</time>
      </trkpt>
      <trkpt lat="46.18246" lon="10.30323">
        <ele>1250.677</ele>
        <time>2018-08-12T06:21:55Z</time>
      </trkpt>
      <trkpt lat="46.18241" lon="10.30301">
        <ele>1254.128</ele>
        <time>2018-08-12T06:22:15Z</time>
      </trkpt>
      <trkpt lat="46.18241" lon="10.30293">
        <ele>1255.989</ele>
        <time>2018-08-12T06:22:35Z</time>
      </trkpt>
      <trkpt lat="46.18241" lon="10.30292">
        <ele>1256.217</ele>
        <time>2018-08-12T06:22:55Z</time>
      </trkpt>
      <trkpt lat="46.18236" lon="10.30282">
        <ele>1255.608</ele>
        <time>2018-08-12T06:23:15Z</time>
      </trkpt>
      <trkpt lat="46.18231" lon="10.30269">
        <ele>1255.914</ele>
        <time>2018-08-12T06:23:35Z</time>
      </trkpt>
      <trkpt lat="46.18224" lon="10.30262">
        <ele>1253.579</ele>
        <time>2018-08-12T06:23:55Z</time>
      </trkpt>
      <trkpt lat="46.18219" lon="10.30255">
        <ele>1253.215</ele>
        <time>2018-08-12T06:24:15Z</time>
      </trkpt>
      <trkpt lat="46.18217" lon="10.30242">
        <ele>1255.729</ele>
        <time>2018-08-12T06:24:35Z</time>
      </trkpt>
      <trkpt lat="46.18217" lon="10.30233">
        <ele>1257.624</ele>
        <time>2018-08-12T06:24:55Z</time>
      </trkpt>
      <trkpt lat="46.18219" lon="10.30217">
        <ele>1262.085</ele>
        <time>2018-08-12T06:25:15Z</time>
      </trkpt>
      <trkpt lat="46.18219" lon="10.30205">
        <ele>1265.482</ele>
        <time>2018-08-12T06:25:35Z</time>
      </trkpt>
      <trkpt lat="46.18221" lon="10.30192">
        <ele>1270.175</ele>
        <time>2018-08-12T06:25:55Z</time>
      </trkpt>
      <trkpt lat="46.18221" lon="10.30181">
        <ele>1273.986</ele>
        <time>2018-08-12T06:26:15Z</time>
      </trkpt>
      <trkpt lat="46.18217" lon="10.30166">
        <ele>1276.66</ele>
        <time>2018-08-12T06:26:35Z</time>
      </trkpt>
      <trkpt lat="46.18213" lon="10.3015">
        <ele>1278.226</ele>
        <time>2018-08-12T06:26:55Z</time>
      </trkpt>
      <trkpt lat="46.1821" lon="10.30139">
        <ele>1279.208</ele>
        <time>2018-08-12T06:27:15Z</time>
      </trkpt>
      <trkpt lat="46.18207" lon="10.3013">
        <ele>1279.62</ele>
        <time>2018-08-12T06:27:35Z</time>
      </trkpt>
      <trkpt lat="46.18204" lon="10.30123">
        <ele>1279.015</ele>
        <time>2018-08-12T06:27:55Z</time>
      </trkpt>
      <trkpt lat="46.18201" lon="10.30112">
        <ele>1278.971</ele>
        <time>2018-08-12T06:28:15Z</time>
      </trkpt>
      <trkpt lat="46.18197" lon="10.30106">
        <ele>1277.845</ele>
        <time>2018-08-12T06:28:35Z</time>
      </trkpt>
      <trkpt lat="46.18195" lon="10.30097">
        <ele>1278.25</ele>
        <time>2018-08-12T06:28:55Z</time>
      </trkpt>
      <trkpt lat="46.18196" lon="10.30082">
        <ele>1281.151</ele>
        <time>2018-08-12T06:29:15Z</time>
      </trkpt>
      <trkpt lat="46.18198" lon="10.30076">
        <ele>1284.668</ele>
        <time>2018-08-12T06:29:35Z</time>
      </trkpt>
      <trkpt lat="46.18201" lon="10.30066">
        <ele>1289.361</ele>
        <time>2018-08-12T06:29:55Z</time>
      </trkpt>
      <trkpt lat="46.18199" lon="10.30054">
        <ele>1291.829</ele>
        <time>2018-08-12T06:30:15Z</time>
      </trkpt>
      <trkpt lat="46.18196" lon="10.30049">
        <ele>1291.8</ele>
        <time>2018-08-12T06:30:35Z</time>
      </trkpt>
      <trkpt lat="46.18196" lon="10.30041">
        <ele>1293.82</ele>
        <time>2018-08-12T06:30:55Z</time>
      </trkpt>
      <trkpt lat="46.18197" lon="10.30031">
        <ele>1297.208</ele>
        <time>2018-08-12T06:31:15Z</time>
      </trkpt>
      <trkpt lat="46.18199" lon="10.30027">
        <ele>1299.964</ele>
        <time>2018-08-12T06:31:35Z</time>
      </trkpt>
      <trkpt lat="46.18203" lon="10.30023">
        <ele>1304.229</ele>
        <time>2018-08-12T06:31:55Z</time>
      </trkpt>
      <trkpt lat="46.18207" lon="10.30032">
        <ele>1303.345</ele>
        <time>2018-08-12T06:32:15Z</time>
      </trkpt>
      <trkpt lat="46.18212" lon="10.30038">
        <ele>1304.779</ele>
        <time>2018-08-12T06:32:35Z</time>
      </trkpt>
      <trkpt lat="46.18218" lon="10.3004">
        <ele>1307.914</ele>
        <time>2018-08-12T06:32:55Z</time>
      </trkpt>
      <trkpt lat="46.18225" lon="10.30039">
        <ele>1313.095</ele>
        <time>2018-08-12T06:33:15Z</time>
      </trkpt>
      <trkpt lat="46.18229" lon="10.30036">
        <ele>1317.242</ele>
        <time>2018-08-12T06:33:35Z</time>
      </trkpt>
      <trkpt lat="46.18235" lon="10.3004">
        <ele>1321.595</ele>
        <time>2018-08-12T06:33:55Z</time>
      </trkpt>
      <trkpt lat="46.18241" lon="10.30048">
        <ele>1325.759</ele>
        <time>2018-08-12T06:34:15Z</time>
      </trkpt>
      <trkpt lat="46.18245" lon="10.30055">
        <ele>1329.303</ele>
        <time>2018-08-12T06:34:35Z</time>
      </trkpt>
      <trkpt lat="46.18252" lon="10.3006">
        <ele>1334.123</ele>
        <time>2018-08-12T06:34:55Z</time>
      </trkpt>
      <trkpt lat="46.18261" lon="10.30071">
        <ele>1337.808</ele>
        <time>2018-08-12T06:35:15Z</time>
      </trkpt>
      <trkpt lat="46.18265" lon="10.30083">
        <ele>1338.237</ele>
        <time>2018-08-12T06:35:35Z</time>
      </trkpt>
      <trkpt lat="46.18275" lon="10.30092">
        <ele>1344.312</ele>
        <time>2018-08-12T06:35:55Z</time>
      </trkpt>
      <trkpt lat="46.18279" lon="10.30094">
        <ele>1346.198</ele>
        <time>2018-08-12T06:36:15Z</time>
      </trkpt>
      <trkpt lat="46.18286" lon="10.30108">
        <ele>1342.442</ele>
        <time>2018-08-12T06:36:35Z</time>
      </trkpt>
      <trkpt lat="46.18289" lon="10.30116">
        <ele>1340.597</ele>
        <time>2018-08-12T06:36:55Z</time>
      </trkpt>
      <trkpt lat="46.18293" lon="10.3012">
        <ele>1340.568</ele>
        <time>2018-08-12T06:37:15Z</time>
      </trkpt>
      <trkpt lat="46.18299" lon="10.30121">
        <ele>1341.995</ele>
        <time>2018-08-12T06:37:35Z</time>
      </trkpt>
      <trkpt lat="46.18315" lon="10.30112">
        <ele>1352.528</ele>
        <time>2018-08-12T06:37:55Z</time>
      </trkpt>
      <trkpt lat="46.18319" lon="10.30099">
        <ele>1358.158</ele>
        <time>2018-08-12T06:38:15Z</time>
      </trkpt>
      <trkpt lat="46.18319" lon="10.30082">
        <ele>1362.152</ele>
        <time>2018-08-12T06:38:35Z</time>
      </trkpt>
      <trkpt lat="46.18323" lon="10.30067">
        <ele>1367.417</ele>
        <time>2018-08-12T06:38:55Z</time>
      </trkpt>
      <trkpt lat="46.18315" lon="10.30057">
        <ele>1367.008</ele>
        <time>2018-08-12T06:39:15Z</time>
      </trkpt>
      <trkpt lat="46.18322" lon="10.30048">
        <ele>1372.537</ele>
        <time>2018-08-12T06:39:35Z</time>
      </trkpt>
      <trkpt lat="46.18326" lon="10.3004">
        <ele>1376.612</ele>
        <time>2018-08-12T06:39:55Z</time>
      </trkpt>
      <trkpt lat="46.1833" lon="10.30029">
        <ele>1382.858</ele>
        <time>2018-08-12T06:40:15Z</time>
      </trkpt>
      <trkpt lat="46.18338" lon="10.3003">
        <ele>1388.032</ele>
        <time>2018-08-12T06:40:35Z</time>
      </trkpt>
      <trkpt lat="46.18347" lon="10.30028">
        <ele>1397.127</ele>
        <time>2018-08-12T06:40:55Z</time>
      </trkpt>
      <trkpt lat="46.18349" lon="10.30009">
        <ele>1403.478</ele>
        <time>2018-08-12T06:41:15Z</time>
      </trkpt>
      <trkpt lat="46.18347" lon="10.29995">
        <ele>1405.625</ele>
        <time>2018-08-12T06:41:35Z</time>
      </trkpt>
      <trkpt lat="46.18341" lon="10.29979">
        <ele>1406.458</ele>
        <time>2018-08-12T06:41:55Z</time>
      </trkpt>
      <trkpt lat="46.18341" lon="10.29961">
        <ele>1409.811</ele>
        <time>2018-08-12T06:42:15Z</time>
      </trkpt>
      <trkpt lat="46.1834" lon="10.29955">
        <ele>1410.521</ele>
        <time>2018-08-12T06:42:35Z</time>
      </trkpt>
      <trkpt lat="46.1833" lon="10.29954">
        <ele>1405.703</ele>
        <time>2018-08-12T06:42:55Z</time>
      </trkpt>
      <trkpt lat="46.18324" lon="10.29956">
        <ele>1402.708</ele>
        <time>2018-08-12T06:43:15Z</time>
      </trkpt>
      <trkpt lat="46.18319" lon="10.29948">
        <ele>1402.333</ele>
        <time>2018-08-12T06:43:35Z</time>
      </trkpt>
      <trkpt lat="46.1832" lon="10.29938">
        <ele>1405.438</ele>
        <time>2018-08-12T06:43:55Z</time>
      </trkpt>
      <trkpt lat="46.18326" lon="10.29933">
        <ele>1409.044</ele>
        <time>2018-08-12T06:44:15Z</time>
      </trkpt>
      <trkpt lat="46.18324" lon="10.29925">
        <ele>1410.638</ele>
        <time>2018-08-12T06:44:35Z</time>
      </trkpt>
      <trkpt lat="46.18317" lon="10.29916">
        <ele>1411.793</ele>
        <time>2018-08-12T06:44:55Z</time>
      </trkpt>
      <trkpt lat="46.18312" lon="10.29904">
        <ele>1414.024</ele>
        <time>2018-08-12T06:45:15Z</time>
      </trkpt>
      <trkpt lat="46.18313" lon="10.29889">
        <ele>1418.581</ele>
        <time>2018-08-12T06:45:35Z</time>
      </trkpt>
      <trkpt lat="46.1832" lon="10.29881">
        <ele>1421.294</ele>
        <time>2018-08-12T06:45:55Z</time>
      </trkpt>
      <trkpt lat="46.18326" lon="10.2988">
        <ele>1421.541</ele>
        <time>2018-08-12T06:46:15Z</time>
      </trkpt>
      <trkpt lat="46.18331" lon="10.29875">
        <ele>1422.581</ele>
        <time>2018-08-12T06:46:35Z</time>
      </trkpt>
      <trkpt lat="46.18333" lon="10.29863">
        <ele>1424.709</ele>
        <time>2018-08-12T06:46:55Z</time>
      </trkpt>
      <trkpt lat="46.18336" lon="10.29848">
        <ele>1433.708</ele>
        <time>2018-08-12T06:47:15Z</time>
      </trkpt>
      <trkpt lat="46.18342" lon="10.29837">
        <ele>1441.046</ele>
        <time>2018-08-12T06:47:35Z</time>
      </trkpt>
      <trkpt lat="46.18349" lon="10.29834">
        <ele>1443.351</ele>
        <time>2018-08-12T06:47:55Z</time>
      </trkpt>
      <trkpt lat="46.18356" lon="10.29837">
        <ele>1443.077</ele>
        <time>2018-08-12T06:48:15Z</time>
      </trkpt>
      <trkpt lat="46.18356" lon="10.29837">
        <ele>1443.281</ele>
        <time>2018-08-12T06:48:35Z</time>
      </trkpt>
      <trkpt lat="46.18358" lon="10.29788">
        <ele>1459.596</ele>
        <time>2018-08-12T06:48:55Z</time>
      </trkpt>
      <trkpt lat="46.18376" lon="10.29776">
        <ele>1470.517</ele>
        <time>2018-08-12T06:49:15Z</time>
      </trkpt>
      <trkpt lat="46.18379" lon="10.29761">
        <ele>1476.134</ele>
        <time>2018-08-12T06:49:35Z</time>
      </trkpt>
      <trkpt lat="46.18373" lon="10.29741">
        <ele>1477.947</ele>
        <time>2018-08-12T06:49:55Z</time>
      </trkpt>
      <trkpt lat="46.18373" lon="10.29726">
        <ele>1477.778</ele>
        <time>2018-08-12T06:50:15Z</time>
      </trkpt>
      <trkpt lat="46.1838" lon="10.29698">
        <ele>1477.633</ele>
        <time>2018-08-12T06:50:35Z</time>
      </trkpt>
      <trkpt lat="46.1839" lon="10.29692">
        <ele>1479.226</ele>
        <time>2018-08-12T06:50:55Z</time>
      </trkpt>
      <trkpt lat="46.18392" lon="10.297">
        <ele>1480.608</ele>
        <time>2018-08-12T06:51:15Z</time>
      </trkpt>
      <trkpt lat="46.18398" lon="10.2972">
        <ele>1484.669</ele>
        <time>2018-08-12T06:51:35Z</time>
      </trkpt>
      <trkpt lat="46.18403" lon="10.29726">
        <ele>1487.334</ele>
        <time>2018-08-12T06:51:55Z</time>
      </trkpt>
      <trkpt lat="46.18408" lon="10.29733">
        <ele>1490.35</ele>
        <time>2018-08-12T06:52:15Z</time>
      </trkpt>
      <trkpt lat="46.18413" lon="10.29738">
        <ele>1493.534</ele>
        <time>2018-08-12T06:52:35Z</time>
      </trkpt>
      <trkpt lat="46.18418" lon="10.29739">
        <ele>1496.529</ele>
        <time>2018-08-12T06:52:55Z</time>
      </trkpt>
      <trkpt lat="46.18422" lon="10.29735">
        <ele>1499.08</ele>
        <time>2018-08-12T06:53:15Z</time>
      </trkpt>
      <trkpt lat="46.18426" lon="10.29729">
        <ele>1501.057</ele>
        <time>2018-08-12T06:53:35Z</time>
      </trkpt>
      <trkpt lat="46.1843" lon="10.29728">
        <ele>1503.98</ele>
        <time>2018-08-12T06:53:55Z</time>
      </trkpt>
      <trkpt lat="46.18431" lon="10.29728">
        <ele>1504.646</ele>
        <time>2018-08-12T06:54:15Z</time>
      </trkpt>
      <trkpt lat="46.1844" lon="10.29738">
        <ele>1512.688</ele>
        <time>2018-08-12T06:54:35Z</time>
      </trkpt>
      <trkpt lat="46.18443" lon="10.29743">
        <ele>1515.416</ele>
        <time>2018-08-12T06:54:55Z</time>
      </trkpt>
      <trkpt lat="46.18442" lon="10.29755">
        <ele>1517.308</ele>
        <time>2018-08-12T06:55:15Z</time>
      </trkpt>
      <trkpt lat="46.18442" lon="10.29766">
        <ele>1519.596</ele>
        <time>2018-08-12T06:55:35Z</time>
      </trkpt>
      <trkpt lat="46.18446" lon="10.29778">
        <ele>1525.071</ele>
        <time>2018-08-12T06:55:55Z</time>
      </trkpt>
      <trkpt lat="46.18451" lon="10.29793">
        <ele>1524.617</ele>
        <time>2018-08-12T06:56:15Z</time>
      </trkpt>
      <trkpt lat="46.18458" lon="10.29812">
        <ele>1525.551</ele>
        <time>2018-08-12T06:56:35Z</time>
      </trkpt>
      <trkpt lat="46.18468" lon="10.29845">
        <ele>1528.736</ele>
        <time>2018-08-12T06:56:55Z</time>
      </trkpt>
      <trkpt lat="46.18472" lon="10.29864">
        <ele>1531.667</ele>
        <time>2018-08-12T06:57:15Z</time>
      </trkpt>
      <trkpt lat="46.18477" lon="10.29877">
        <ele>1532.784</ele>
        <time>2018-08-12T06:57:35Z</time>
      </trkpt>
      <trkpt lat="46.1848" lon="10.29891">
        <ele>1532.787</ele>
        <time>2018-08-12T06:57:55Z</time>
      </trkpt>
      <trkpt lat="46.18481" lon="10.29901">
        <ele>1532.465</ele>
        <time>2018-08-12T06:58:15Z</time>
      </trkpt>
      <trkpt lat="46.18485" lon="10.29912">
        <ele>1533.168</ele>
        <time>2018-08-12T06:58:35Z</time>
      </trkpt>
      <trkpt lat="46.18494" lon="10.29929">
        <ele>1535.114</ele>
        <time>2018-08-12T06:58:55Z</time>
      </trkpt>
      <trkpt lat="46.18503" lon="10.29944">
        <ele>1536.408</ele>
        <time>2018-08-12T06:59:15Z</time>
      </trkpt>
      <trkpt lat="46.1852" lon="10.29971">
        <ele>1544.588</ele>
        <time>2018-08-12T06:59:35Z</time>
      </trkpt>
      <trkpt lat="46.18526" lon="10.29974">
        <ele>1550.253</ele>
        <time>2018-08-12T06:59:55Z</time>
      </trkpt>
      <trkpt lat="46.18531" lon="10.29983">
        <ele>1551.969</ele>
        <time>2018-08-12T07:00:15Z</time>
      </trkpt>
      <trkpt lat="46.18538" lon="10.29997">
        <ele>1554.673</ele>
        <time>2018-08-12T07:00:35Z</time>
      </trkpt>
      <trkpt lat="46.18543" lon="10.30007">
        <ele>1555.748</ele>
        <time>2018-08-12T07:00:55Z</time>
      </trkpt>
      <trkpt lat="46.18544" lon="10.3002">
        <ele>1554.129</ele>
        <time>2018-08-12T07:01:15Z</time>
      </trkpt>
      <trkpt lat="46.18549" lon="10.30035">
        <ele>1554.976</ele>
        <time>2018-08-12T07:01:35Z</time>
      </trkpt>
      <trkpt lat="46.18552" lon="10.30048">
        <ele>1554.599</ele>
        <time>2018-08-12T07:01:55Z</time>
      </trkpt>
      <trkpt lat="46.18555" lon="10.30062">
        <ele>1554.051</ele>
        <time>2018-08-12T07:02:15Z</time>
      </trkpt>
      <trkpt lat="46.18555" lon="10.30063">
        <ele>1553.901</ele>
        <time>2018-08-12T07:02:35Z</time>
      </trkpt>
      <trkpt lat="46.18562" lon="10.30083">
        <ele>1554.611</ele>
        <time>2018-08-12T07:02:55Z</time>
      </trkpt>
      <trkpt lat="46.18574" lon="10.30118">
        <ele>1555.908</ele>
        <time>2018-08-12T07:03:15Z</time>
      </trkpt>
      <trkpt lat="46.18581" lon="10.30135">
        <ele>1557.857</ele>
        <time>2018-08-12T07:03:35Z</time>
      </trkpt>
      <trkpt lat="46.18586" lon="10.30147">
        <ele>1558.432</ele>
        <time>2018-08-12T07:03:55Z</time>
      </trkpt>
      <trkpt lat="46.18596" lon="10.3016">
        <ele>1560.018</ele>
        <time>2018-08-12T07:04:15Z</time>
      </trkpt>
      <trkpt lat="46.1861" lon="10.3018">
        <ele>1558.162</ele>
        <time>2018-08-12T07:04:35Z</time>
      </trkpt>
      <trkpt lat="46.18622" lon="10.3019">
        <ele>1548.217</ele>
        <time>2018-08-12T07:04:55Z</time>
      </trkpt>
      <trkpt lat="46.18636" lon="10.30198">
        <ele>1540.358</ele>
        <time>2018-08-12T07:05:15Z</time>
      </trkpt>
      <trkpt lat="46.18648" lon="10.30199">
        <ele>1545.085</ele>
        <time>2018-08-12T07:05:35Z</time>
      </trkpt>
      <trkpt lat="46.18653" lon="10.30195">
        <ele>1548.828</ele>
        <time>2018-08-12T07:05:55Z</time>
      </trkpt>
      <trkpt lat="46.18657" lon="10.30185">
        <ele>1552.598</ele>
        <time>2018-08-12T07:06:15Z</time>
      </trkpt>
      <trkpt lat="46.18662" lon="10.30176">
        <ele>1556.115</ele>
        <time>2018-08-12T07:06:35Z</time>
      </trkpt>
      <trkpt lat="46.18667" lon="10.30174">
        <ele>1558.626</ele>
        <time>2018-08-12T07:06:55Z</time>
      </trkpt>
      <trkpt lat="46.18669" lon="10.30175">
        <ele>1559.008</ele>
        <time>2018-08-12T07:07:15Z</time>
      </trkpt>
      <trkpt lat="46.18672" lon="10.30148">
        <ele>1564.111</ele>
        <time>2018-08-12T07:07:35Z</time>
      </trkpt>
      <trkpt lat="46.18675" lon="10.30128">
        <ele>1568.316</ele>
        <time>2018-08-12T07:07:55Z</time>
      </trkpt>
      <trkpt lat="46.18679" lon="10.30115">
        <ele>1571.752</ele>
        <time>2018-08-12T07:08:15Z</time>
      </trkpt>
      <trkpt lat="46.18686" lon="10.301">
        <ele>1573.846</ele>
        <time>2018-08-12T07:08:35Z</time>
      </trkpt>
      <trkpt lat="46.18696" lon="10.3008">
        <ele>1575.441</ele>
        <time>2018-08-12T07:08:55Z</time>
      </trkpt>
      <trkpt lat="46.18702" lon="10.30069">
        <ele>1577.292</ele>
        <time>2018-08-12T07:09:15Z</time>
      </trkpt>
      <trkpt lat="46.18719" lon="10.30045">
        <ele>1581.199</ele>
        <time>2018-08-12T07:09:35Z</time>
      </trkpt>
      <trkpt lat="46.18725" lon="10.30036">
        <ele>1581.862</ele>
        <time>2018-08-12T07:09:55Z</time>
      </trkpt>
      <trkpt lat="46.18728" lon="10.3003">
        <ele>1582.346</ele>
        <time>2018-08-12T07:10:15Z</time>
      </trkpt>
      <trkpt lat="46.18735" lon="10.30011">
        <ele>1582.088</ele>
        <time>2018-08-12T07:10:35Z</time>
      </trkpt>
      <trkpt lat="46.18749" lon="10.29981">
        <ele>1581.316</ele>
        <time>2018-08-12T07:10:55Z</time>
      </trkpt>
      <trkpt lat="46.18767" lon="10.2995">
        <ele>1577.708</ele>
        <time>2018-08-12T07:11:15Z</time>
      </trkpt>
      <trkpt lat="46.18791" lon="10.29913">
        <ele>1571.566</ele>
        <time>2018-08-12T07:11:35Z</time>
      </trkpt>
      <trkpt lat="46.18809" lon="10.29905">
        <ele>1570.871</ele>
        <time>2018-08-12T07:11:55Z</time>
      </trkpt>
      <trkpt lat="46.18832" lon="10.29901">
        <ele>1571.377</ele>
        <time>2018-08-12T07:12:15Z</time>
      </trkpt>
      <trkpt lat="46.18864" lon="10.299">
        <ele>1569.241</ele>
        <time>2018-08-12T07:12:35Z</time>
      </trkpt>
      <trkpt lat="46.18895" lon="10.29904">
        <ele>1571.196</ele>
        <time>2018-08-12T07:12:55Z</time>
      </trkpt>
      <trkpt lat="46.18926" lon="10.299">
        <ele>1569.947</ele>
        <time>2018-08-12T07:13:15Z</time>
      </trkpt>
      <trkpt lat="46.18959" lon="10.299">
        <ele>1567.544</ele>
        <time>2018-08-12T07:13:35Z</time>
      </trkpt>
      <trkpt lat="46.18993" lon="10.29899">
        <ele>1560.617</ele>
        <time>2018-08-12T07:13:55Z</time>
      </trkpt>
      <trkpt lat="46.19019" lon="10.29911">
        <ele>1558.913</ele>
        <time>2018-08-12T07:14:15Z</time>
      </trkpt>
      <trkpt lat="46.19039" lon="10.29923">
        <ele>1560.943</ele>
        <time>2018-08-12T07:14:35Z</time>
      </trkpt>
      <trkpt lat="46.19051" lon="10.29934">
        <ele>1564.507</ele>
        <time>2018-08-12T07:14:55Z</time>
      </trkpt>
      <trkpt lat="46.19067" lon="10.29955">
        <ele>1571.008</ele>
        <time>2018-08-12T07:15:15Z</time>
      </trkpt>
      <trkpt lat="46.19076" lon="10.2998">
        <ele>1578.223</ele>
        <time>2018-08-12T07:15:35Z</time>
      </trkpt>
      <trkpt lat="46.19087" lon="10.29998">
        <ele>1583.298</ele>
        <time>2018-08-12T07:15:55Z</time>
      </trkpt>
      <trkpt lat="46.19114" lon="10.30019">
        <ele>1584.974</ele>
        <time>2018-08-12T07:16:15Z</time>
      </trkpt>
      <trkpt lat="46.19151" lon="10.30037">
        <ele>1592.158</ele>
        <time>2018-08-12T07:16:35Z</time>
      </trkpt>
      <trkpt lat="46.19163" lon="10.3004">
        <ele>1596.453</ele>
        <time>2018-08-12T07:16:55Z</time>
      </trkpt>
      <trkpt lat="46.19172" lon="10.30042">
        <ele>1598.894</ele>
        <time>2018-08-12T07:17:15Z</time>
      </trkpt>
      <trkpt lat="46.19176" lon="10.30044">
        <ele>1599.931</ele>
        <time>2018-08-12T07:17:35Z</time>
      </trkpt>
      <trkpt lat="46.19183" lon="10.30039">
        <ele>1602.074</ele>
        <time>2018-08-12T07:17:55Z</time>
      </trkpt>
      <trkpt lat="46.19185" lon="10.3003">
        <ele>1603.339</ele>
        <time>2018-08-12T07:18:15Z</time>
      </trkpt>
      <trkpt lat="46.19187" lon="10.30019">
        <ele>1604.401</ele>
        <time>2018-08-12T07:18:35Z</time>
      </trkpt>
      <trkpt lat="46.1919" lon="10.30005">
        <ele>1605.821</ele>
        <time>2018-08-12T07:18:55Z</time>
      </trkpt>
      <trkpt lat="46.19195" lon="10.29991">
        <ele>1607.908</ele>
        <time>2018-08-12T07:19:15Z</time>
      </trkpt>
      <trkpt lat="46.19201" lon="10.29974">
        <ele>1610.285</ele>
        <time>2018-08-12T07:19:35Z</time>
      </trkpt>
      <trkpt lat="46.19207" lon="10.29947">
        <ele>1607.93</ele>
        <time>2018-08-12T07:19:55Z</time>
      </trkpt>
      <trkpt lat="46.19215" lon="10.2993">
        <ele>1606.416</ele>
        <time>2018-08-12T07:20:15Z</time>
      </trkpt>
      <trkpt lat="46.19225" lon="10.29923">
        <ele>1608.47</ele>
        <time>2018-08-12T07:20:35Z</time>
      </trkpt>
      <trkpt lat="46.19245" lon="10.29899">
        <ele>1611.695</ele>
        <time>2018-08-12T07:20:55Z</time>
      </trkpt>
      <trkpt lat="46.19258" lon="10.29886">
        <ele>1614.876</ele>
        <time>2018-08-12T07:21:15Z</time>
      </trkpt>
      <trkpt lat="46.1929" lon="10.29852">
        <ele>1619.883</ele>
        <time>2018-08-12T07:21:35Z</time>
      </trkpt>
      <trkpt lat="46.193" lon="10.29839">
        <ele>1620.516</ele>
        <time>2018-08-12T07:21:55Z</time>
      </trkpt>
      <trkpt lat="46.19325" lon="10.29815">
        <ele>1621.868</ele>
        <time>2018-08-12T07:22:15Z</time>
      </trkpt>
      <trkpt lat="46.19328" lon="10.29813">
        <ele>1622.142</ele>
        <time>2018-08-12T07:22:35Z</time>
      </trkpt>
      <trkpt lat="46.19338" lon="10.29806">
        <ele>1624.126</ele>
        <time>2018-08-12T07:22:55Z</time>
      </trkpt>
      <trkpt lat="46.19366" lon="10.29784">
        <ele>1629.908</ele>
        <time>2018-08-12T07:23:15Z</time>
      </trkpt>
      <trkpt lat="46.1938" lon="10.29773">
        <ele>1631.798</ele>
        <time>2018-08-12T07:23:35Z</time>
      </trkpt>
      <trkpt lat="46.19392" lon="10.2976">
        <ele>1632.343</ele>
        <time>2018-08-12T07:23:55Z</time>
      </trkpt>
      <trkpt lat="46.19393" lon="10.29748">
        <ele>1629.869</ele>
        <time>2018-08-12T07:24:15Z</time>
      </trkpt>
      <trkpt lat="46.19396" lon="10.29745">
        <ele>1630.753</ele>
        <time>2018-08-12T07:24:35Z</time>
      </trkpt>
      <trkpt lat="46.19399" lon="10.29743">
        <ele>1632.098</ele>
        <time>2018-08-12T07:24:55Z</time>
      </trkpt>
      <trkpt lat="46.19403" lon="10.29743">
        <ele>1633.969</ele>
        <time>2018-08-12T07:25:15Z</time>
      </trkpt>
      <trkpt lat="46.19408" lon="10.2974">
        <ele>1635.656</ele>
        <time>2018-08-12T07:25:35Z</time>
      </trkpt>
      <trkpt lat="46.19414" lon="10.29737">
        <ele>1637.859</ele>
        <time>2018-08-12T07:25:55Z</time>
      </trkpt>
      <trkpt lat="46.19418" lon="10.29734">
        <ele>1638.828</ele>
        <time>2018-08-12T07:26:15Z</time>
      </trkpt>
      <trkpt lat="46.19424" lon="10.29732">
        <ele>1640.289</ele>
        <time>2018-08-12T07:26:35Z</time>
      </trkpt>
      <trkpt lat="46.19438" lon="10.29727">
        <ele>1643.517</ele>
        <time>2018-08-12T07:26:55Z</time>
      </trkpt>
      <trkpt lat="46.19442" lon="10.29724">
        <ele>1644.508</ele>
        <time>2018-08-12T07:27:15Z</time>
      </trkpt>
      <trkpt lat="46.19446" lon="10.29717">
        <ele>1644.254</ele>
        <time>2018-08-12T07:27:35Z</time>
      </trkpt>
      <trkpt lat="46.19449" lon="10.29714">
        <ele>1644.979</ele>
        <time>2018-08-12T07:27:55Z</time>
      </trkpt>
      <trkpt lat="46.19454" lon="10.29713">
        <ele>1646.675</ele>
        <time>2018-08-12T07:28:15Z</time>
      </trkpt>
      <trkpt lat="46.19458" lon="10.29707">
        <ele>1647.359</ele>
        <time>2018-08-12T07:28:35Z</time>
      </trkpt>
      <trkpt lat="46.19466" lon="10.29696">
        <ele>1649.834</ele>
        <time>2018-08-12T07:28:55Z</time>
      </trkpt>
      <trkpt lat="46.19471" lon="10.29688">
        <ele>1651.665</ele>
        <time>2018-08-12T07:29:15Z</time>
      </trkpt>
      <trkpt lat="46.19477" lon="10.2968">
        <ele>1655.312</ele>
        <time>2018-08-12T07:29:35Z</time>
      </trkpt>
      <trkpt lat="46.19482" lon="10.29675">
        <ele>1657.845</ele>
        <time>2018-08-12T07:29:55Z</time>
      </trkpt>
      <trkpt lat="46.19486" lon="10.29671">
        <ele>1660.382</ele>
        <time>2018-08-12T07:30:15Z</time>
      </trkpt>
      <trkpt lat="46.19478" lon="10.297">
        <ele>1657.543</ele>
        <time>2018-08-12T07:30:35Z</time>
      </trkpt>
      <trkpt lat="46.19475" lon="10.29708">
        <ele>1655.517</ele>
        <time>2018-08-12T07:30:55Z</time>
      </trkpt>
      <trkpt lat="46.19471" lon="10.29723">
        <ele>1653.808</ele>
        <time>2018-08-12T07:31:15Z</time>
      </trkpt>
      <trkpt lat="46.19465" lon="10.29739">
        <ele>1656.52</ele>
        <time>2018-08-12T07:31:35Z</time>
      </trkpt>
      <trkpt lat="46.19445" lon="10.2979">
        <ele>1661.915</ele>
        <time>2018-08-12T07:31:55Z</time>
      </trkpt>
      <trkpt lat="46.19443" lon="10.29808">
        <ele>1666.951</ele>
        <time>2018-08-12T07:32:15Z</time>
      </trkpt>
      <trkpt lat="46.1943" lon="10.29846">
        <ele>1673.145</ele>
        <time>2018-08-12T07:32:35Z</time>
      </trkpt>
      <trkpt lat="46.19422" lon="10.2986">
        <ele>1674.21</ele>
        <time>2018-08-12T07:32:55Z</time>
      </trkpt>
      <trkpt lat="46.19409" lon="10.29877">
        <ele>1672.681</ele>
        <time>2018-08-12T07:33:15Z</time>
      </trkpt>
      <trkpt lat="46.19399" lon="10.29889">
        <ele>1671.368</ele>
        <time>2018-08-12T07:33:35Z</time>
      </trkpt>
      <trkpt lat="46.19392" lon="10.29899">
        <ele>1671.291</ele>
        <time>2018-08-12T07:33:55Z</time>
      </trkpt>
      <trkpt lat="46.19383" lon="10.2992">
        <ele>1672.332</ele>
        <time>2018-08-12T07:34:15Z</time>
      </trkpt>
      <trkpt lat="46.19382" lon="10.2994">
        <ele>1670.492</ele>
        <time>2018-08-12T07:34:35Z</time>
      </trkpt>
      <trkpt lat="46.19386" lon="10.29952">
        <ele>1670.011</ele>
        <time>2018-08-12T07:34:55Z</time>
      </trkpt>
      <trkpt lat="46.19397" lon="10.29957">
        <ele>1672.108</ele>
        <time>2018-08-12T07:35:15Z</time>
      </trkpt>
      <trkpt lat="46.19419" lon="10.29948">
        <ele>1678.095</ele>
        <time>2018-08-12T07:35:35Z</time>
      </trkpt>
      <trkpt lat="46.19449" lon="10.29954">
        <ele>1682.25</ele>
        <time>2018-08-12T07:35:55Z</time>
      </trkpt>
      <trkpt lat="46.19463" lon="10.29956">
        <ele>1683.126</ele>
        <time>2018-08-12T07:36:15Z</time>
      </trkpt>
      <trkpt lat="46.19476" lon="10.29962">
        <ele>1683.62</ele>
        <time>2018-08-12T07:36:35Z</time>
      </trkpt>
      <trkpt lat="46.19491" lon="10.29965">
        <ele>1685.085</ele>
        <time>2018-08-12T07:36:55Z</time>
      </trkpt>
      <trkpt lat="46.19508" lon="10.29963">
        <ele>1686.446</ele>
        <time>2018-08-12T07:37:15Z</time>
      </trkpt>
      <trkpt lat="46.19522" lon="10.29964">
        <ele>1686.533</ele>
        <time>2018-08-12T07:37:35Z</time>
      </trkpt>
      <trkpt lat="46.19527" lon="10.29963">
        <ele>1687.076</ele>
        <time>2018-08-12T07:37:55Z</time>
      </trkpt>
      <trkpt lat="46.1953" lon="10.29953">
        <ele>1688.613</ele>
        <time>2018-08-12T07:38:15Z</time>
      </trkpt>
      <trkpt lat="46.19532" lon="10.2994">
        <ele>1690.943</ele>
        <time>2018-08-12T07:38:35Z</time>
      </trkpt>
      <trkpt lat="46.19535" lon="10.29926">
        <ele>1693.107</ele>
        <time>2018-08-12T07:38:55Z</time>
      </trkpt>
      <trkpt lat="46.19535" lon="10.2991">
        <ele>1696.008</ele>
        <time>2018-08-12T07:39:15Z</time>
      </trkpt>
      <trkpt lat="46.19536" lon="10.29894">
        <ele>1698.513</ele>
        <time>2018-08-12T07:39:35Z</time>
      </trkpt>
      <trkpt lat="46.19536" lon="10.29879">
        <ele>1700.688</ele>
        <time>2018-08-12T07:39:55Z</time>
      </trkpt>
      <trkpt lat="46.19538" lon="10.29867">
        <ele>1702.294</ele>
        <time>2018-08-12T07:40:15Z</time>
      </trkpt>
      <trkpt lat="46.19539" lon="10.2986">
        <ele>1703.128</ele>
        <time>2018-08-12T07:40:35Z</time>
      </trkpt>
      <trkpt lat="46.19569" lon="10.2985">
        <ele>1703.973</ele>
        <time>2018-08-12T07:40:55Z</time>
      </trkpt>
      <trkpt lat="46.19569" lon="10.2985">
        <ele>1703.994</ele>
        <time>2018-08-12T07:41:15Z</time>
      </trkpt>
      <trkpt lat="46.19571" lon="10.29866">
        <ele>1699.841</ele>
        <time>2018-08-12T07:41:35Z</time>
      </trkpt>
      <trkpt lat="46.19573" lon="10.29879">
        <ele>1697.264</ele>
        <time>2018-08-12T07:41:55Z</time>
      </trkpt>
      <trkpt lat="46.19581" lon="10.29878">
        <ele>1696.326</ele>
        <time>2018-08-12T07:42:15Z</time>
      </trkpt>
      <trkpt lat="46.19584" lon="10.29876">
        <ele>1696.447</ele>
        <time>2018-08-12T07:42:35Z</time>
      </trkpt>
      <trkpt lat="46.19596" lon="10.29866">
        <ele>1698.111</ele>
        <time>2018-08-12T07:42:55Z</time>
      </trkpt>
      <trkpt lat="46.19607" lon="10.29865">
        <ele>1698.408</ele>
        <time>2018-08-12T07:43:15Z</time>
      </trkpt>
      <trkpt lat="46.19617" lon="10.2987">
        <ele>1697.734</ele>
        <time>2018-08-12T07:43:35Z</time>
      </trkpt>
      <trkpt lat="46.19656" lon="10.29894">
        <ele>1696.629</ele>
        <time>2018-08-12T07:43:55Z</time>
      </trkpt>
      <trkpt lat="46.19666" lon="10.29901">
        <ele>1696.675</ele>
        <time>2018-08-12T07:44:15Z</time>
      </trkpt>
      <trkpt lat="46.19678" lon="10.29912">
        <ele>1697.519</ele>
        <time>2018-08-12T07:44:35Z</time>
      </trkpt>
      <trkpt lat="46.19682" lon="10.29914">
        <ele>1698.044</ele>
        <time>2018-08-12T07:44:55Z</time>
      </trkpt>
      <trkpt lat="46.19688" lon="10.29916">
        <ele>1698.825</ele>
        <time>2018-08-12T07:45:15Z</time>
      </trkpt>
      <trkpt lat="46.19707" lon="10.2993">
        <ele>1703.022</ele>
        <time>2018-08-12T07:45:35Z</time>
      </trkpt>
      <trkpt lat="46.19712" lon="10.29958">
        <ele>1702.265</ele>
        <time>2018-08-12T07:45:55Z</time>
      </trkpt>
      <trkpt lat="46.19719" lon="10.29983">
        <ele>1701.236</ele>
        <time>2018-08-12T07:46:15Z</time>
      </trkpt>
      <trkpt lat="46.19728" lon="10.30035">
        <ele>1699.117</ele>
        <time>2018-08-12T07:46:35Z</time>
      </trkpt>
      <trkpt lat="46.19737" lon="10.30063">
        <ele>1699.018</ele>
        <time>2018-08-12T07:46:55Z</time>
      </trkpt>
      <trkpt lat="46.19749" lon="10.30075">
        <ele>1699.808</ele>
        <time>2018-08-12T07:47:15Z</time>
      </trkpt>
      <trkpt lat="46.19763" lon="10.30094">
        <ele>1699.065</ele>
        <time>2018-08-12T07:47:35Z</time>
      </trkpt>
      <trkpt lat="46.19757" lon="10.30141">
        <ele>1698.24</ele>
        <time>2018-08-12T07:47:55Z</time>
      </trkpt>
      <trkpt lat="46.19762" lon="10.30172">
        <ele>1699.086</ele>
        <time>2018-08-12T07:48:15Z</time>
      </trkpt>
      <trkpt lat="46.19768" lon="10.30205">
        <ele>1699.65</ele>
        <time>2018-08-12T07:48:35Z</time>
      </trkpt>
      <trkpt lat="46.1976" lon="10.30278">
        <ele>1699.355</ele>
        <time>2018-08-12T07:48:55Z</time>
      </trkpt>
      <trkpt lat="46.1976" lon="10.30324">
        <ele>1699.096</ele>
        <time>2018-08-12T07:49:15Z</time>
      </trkpt>
      <trkpt lat="46.1976" lon="10.30326">
        <ele>1699.053</ele>
        <time>2018-08-12T07:49:35Z</time>
      </trkpt>
      <trkpt lat="46.19766" lon="10.30378">
        <ele>1699.046</ele>
        <time>2018-08-12T07:49:55Z</time>
      </trkpt>
      <trkpt lat="46.19796" lon="10.30386">
        <ele>1699.028</ele>
        <time>2018-08-12T07:50:15Z</time>
      </trkpt>
      <trkpt lat="46.19807" lon="10.30389">
        <ele>1698.689</ele>
        <time>2018-08-12T07:50:35Z</time>
      </trkpt>
      <trkpt lat="46.1981" lon="10.30392">
        <ele>1697.817</ele>
        <time>2018-08-12T07:50:55Z</time>
      </trkpt>
      <trkpt lat="46.19876" lon="10.30433">
        <ele>1680.208</ele>
        <time>2018-08-12T07:51:15Z</time>
      </trkpt>
      <trkpt lat="46.1989" lon="10.30441">
        <ele>1680.094</ele>
        <time>2018-08-12T07:51:35Z</time>
      </trkpt>
      <trkpt lat="46.19893" lon="10.30442">
        <ele>1679.379</ele>
        <time>2018-08-12T07:51:55Z</time>
      </trkpt>
      <trkpt lat="46.19898" lon="10.30445">
        <ele>1678.495</ele>
        <time>2018-08-12T07:52:15Z</time>
      </trkpt>
      <trkpt lat="46.19901" lon="10.30447">
        <ele>1677.989</ele>
        <time>2018-08-12T07:52:35Z</time>
      </trkpt>
      <trkpt lat="46.19901" lon="10.30447">
        <ele>1677.864</ele>
        <time>2018-08-12T07:52:55Z</time>
      </trkpt>
      <trkpt lat="46.19906" lon="10.30447">
        <ele>1676.575</ele>
        <time>2018-08-12T07:53:15Z</time>
      </trkpt>
      <trkpt lat="46.19915" lon="10.30448">
        <ele>1674.452</ele>
        <time>2018-08-12T07:53:35Z</time>
      </trkpt>
      <trkpt lat="46.19917" lon="10.30449">
        <ele>1673.865</ele>
        <time>2018-08-12T07:53:55Z</time>
      </trkpt>
      <trkpt lat="46.19914" lon="10.30436">
        <ele>1670.828</ele>
        <time>2018-08-12T07:54:15Z</time>
      </trkpt>
      <trkpt lat="46.19916" lon="10.30403">
        <ele>1661.789</ele>
        <time>2018-08-12T07:54:35Z</time>
      </trkpt>
      <trkpt lat="46.19918" lon="10.30401">
        <ele>1660.817</ele>
        <time>2018-08-12T07:54:55Z</time>
      </trkpt>
      <trkpt lat="46.19919" lon="10.30394">
        <ele>1659.408</ele>
        <time>2018-08-12T07:55:15Z</time>
      </trkpt>
      <trkpt lat="46.19923" lon="10.30388">
        <ele>1657.634</ele>
        <time>2018-08-12T07:55:35Z</time>
      </trkpt>
      <trkpt lat="46.19928" lon="10.30381">
        <ele>1656.589</ele>
        <time>2018-08-12T07:55:55Z</time>
      </trkpt>
      <trkpt lat="46.19932" lon="10.30376">
        <ele>1655.575</ele>
        <time>2018-08-12T07:56:15Z</time>
      </trkpt>
      <trkpt lat="46.19937" lon="10.3037">
        <ele>1654.359</ele>
        <time>2018-08-12T07:56:35Z</time>
      </trkpt>
      <trkpt lat="46.1994" lon="10.30364">
        <ele>1653.464</ele>
        <time>2018-08-12T07:56:55Z</time>
      </trkpt>
      <trkpt lat="46.19945" lon="10.3036">
        <ele>1652.085</ele>
        <time>2018-08-12T07:57:15Z</time>
      </trkpt>
      <trkpt lat="46.19954" lon="10.3035">
        <ele>1650.972</ele>
        <time>2018-08-12T07:57:35Z</time>
      </trkpt>
      <trkpt lat="46.19954" lon="10.30349">
        <ele>1650.995</ele>
        <time>2018-08-12T07:57:55Z</time>
      </trkpt>
      <trkpt lat="46.19958" lon="10.30343">
        <ele>1650.849</ele>
        <time>2018-08-12T07:58:15Z</time>
      </trkpt>
      <trkpt lat="46.1996" lon="10.30336">
        <ele>1651.202</ele>
        <time>2018-08-12T07:58:35Z</time>
      </trkpt>
      <trkpt lat="46.19963" lon="10.30331">
        <ele>1651.322</ele>
        <time>2018-08-12T07:58:55Z</time>
      </trkpt>
      <trkpt lat="46.19968" lon="10.30328">
        <ele>1650.608</ele>
        <time>2018-08-12T07:59:15Z</time>
      </trkpt>
      <trkpt lat="46.19969" lon="10.30327">
        <ele>1650.576</ele>
        <time>2018-08-12T07:59:35Z</time>
      </trkpt>
      <trkpt lat="46.19975" lon="10.30325">
        <ele>1649.661</ele>
        <time>2018-08-12T07:59:55Z</time>
      </trkpt>
      <trkpt lat="46.19978" lon="10.30322">
        <ele>1649.377</ele>
        <time>2018-08-12T08:00:15Z</time>
      </trkpt>
      <trkpt lat="46.19981" lon="10.30319">
        <ele>1649.151</ele>
        <time>2018-08-12T08:00:35Z</time>
      </trkpt>
      <trkpt lat="46.19985" lon="10.30314">
        <ele>1648.956</ele>
        <time>2018-08-12T08:00:55Z</time>
      </trkpt>
      <trkpt lat="46.19989" lon="10.3031">
        <ele>1648.747</ele>
        <time>2018-08-12T08:01:15Z</time>
      </trkpt>
      <trkpt lat="46.19994" lon="10.30305">
        <ele>1648.464</ele>
        <time>2018-08-12T08:01:35Z</time>
      </trkpt>
      <trkpt lat="46.19998" lon="10.30301">
        <ele>1648.117</ele>
        <time>2018-08-12T08:01:55Z</time>
      </trkpt>
      <trkpt lat="46.20003" lon="10.30296">
        <ele>1647.251</ele>
        <time>2018-08-12T08:02:15Z</time>
      </trkpt>
      <trkpt lat="46.20006" lon="10.30295">
        <ele>1646.101</ele>
        <time>2018-08-12T08:02:35Z</time>
      </trkpt>
      <trkpt lat="46.20016" lon="10.30292">
        <ele>1642.311</ele>
        <time>2018-08-12T08:02:55Z</time>
      </trkpt>
      <trkpt lat="46.20024" lon="10.30287">
        <ele>1639.908</ele>
        <time>2018-08-12T08:03:15Z</time>
      </trkpt>
      <trkpt lat="46.20032" lon="10.30284">
        <ele>1637.257</ele>
        <time>2018-08-12T08:03:35Z</time>
      </trkpt>
      <trkpt lat="46.20064" lon="10.30267">
        <ele>1633.672</ele>
        <time>2018-08-12T08:03:55Z</time>
      </trkpt>
      <trkpt lat="46.20068" lon="10.30265">
        <ele>1634.288</ele>
        <time>2018-08-12T08:04:15Z</time>
      </trkpt>
      <trkpt lat="46.20081" lon="10.30257">
        <ele>1637.792</ele>
        <time>2018-08-12T08:04:35Z</time>
      </trkpt>
      <trkpt lat="46.20094" lon="10.30249">
        <ele>1641.527</ele>
        <time>2018-08-12T08:04:55Z</time>
      </trkpt>
      <trkpt lat="46.20103" lon="10.30237">
        <ele>1645.128</ele>
        <time>2018-08-12T08:05:15Z</time>
      </trkpt>
      <trkpt lat="46.20109" lon="10.30211">
        <ele>1653.645</ele>
        <time>2018-08-12T08:05:35Z</time>
      </trkpt>
      <trkpt lat="46.20127" lon="10.3015">
        <ele>1666.618</ele>
        <time>2018-08-12T08:05:55Z</time>
      </trkpt>
      <trkpt lat="46.20134" lon="10.30118">
        <ele>1673.394</ele>
        <time>2018-08-12T08:06:15Z</time>
      </trkpt>
      <trkpt lat="46.20146" lon="10.30089">
        <ele>1678.257</ele>
        <time>2018-08-12T08:06:35Z</time>
      </trkpt>
      <trkpt lat="46.20157" lon="10.3007">
        <ele>1684.922</ele>
        <time>2018-08-12T08:06:55Z</time>
      </trkpt>
      <trkpt lat="46.20167" lon="10.30056">
        <ele>1689.908</ele>
        <time>2018-08-12T08:07:15Z</time>
      </trkpt>
      <trkpt lat="46.2018" lon="10.30042">
        <ele>1702.451</ele>
        <time>2018-08-12T08:07:35Z</time>
      </trkpt>
      <trkpt lat="46.20193" lon="10.30026">
        <ele>1713.966</ele>
        <time>2018-08-12T08:07:55Z</time>
      </trkpt>
      <trkpt lat="46.20208" lon="10.30011">
        <ele>1725.242</ele>
        <time>2018-08-12T08:08:15Z</time>
      </trkpt>
      <trkpt lat="46.20211" lon="10.30014">
        <ele>1725.736</ele>
        <time>2018-08-12T08:08:35Z</time>
      </trkpt>
      <trkpt lat="46.20213" lon="10.30015">
        <ele>1726.211</ele>
        <time>2018-08-12T08:08:55Z</time>
      </trkpt>
      <trkpt lat="46.2024" lon="10.30038">
        <ele>1730.072</ele>
        <time>2018-08-12T08:09:15Z</time>
      </trkpt>
      <trkpt lat="46.20263" lon="10.30062">
        <ele>1725.779</ele>
        <time>2018-08-12T08:09:35Z</time>
      </trkpt>
      <trkpt lat="46.20266" lon="10.30066">
        <ele>1725.172</ele>
        <time>2018-08-12T08:09:55Z</time>
      </trkpt>
      <trkpt lat="46.20287" lon="10.30077">
        <ele>1724.691</ele>
        <time>2018-08-12T08:10:15Z</time>
      </trkpt>
      <trkpt lat="46.20308" lon="10.30076">
        <ele>1729.181</ele>
        <time>2018-08-12T08:10:35Z</time>
      </trkpt>
      <trkpt lat="46.20329" lon="10.3007">
        <ele>1734.519</ele>
        <time>2018-08-12T08:10:55Z</time>
      </trkpt>
      <trkpt lat="46.2035" lon="10.3006">
        <ele>1743.708</ele>
        <time>2018-08-12T08:11:15Z</time>
      </trkpt>
      <trkpt lat="46.20387" lon="10.30059">
        <ele>1753.351</ele>
        <time>2018-08-12T08:11:35Z</time>
      </trkpt>
      <trkpt lat="46.20418" lon="10.30047">
        <ele>1760.666</ele>
        <time>2018-08-12T08:11:55Z</time>
      </trkpt>
      <trkpt lat="46.20418" lon="10.30046">
        <ele>1760.592</ele>
        <time>2018-08-12T08:12:15Z</time>
      </trkpt>
      <trkpt lat="46.20442" lon="10.30034">
        <ele>1756.446</ele>
        <time>2018-08-12T08:12:35Z</time>
      </trkpt>
      <trkpt lat="46.20463" lon="10.30012">
        <ele>1745.921</ele>
        <time>2018-08-12T08:12:55Z</time>
      </trkpt>
      <trkpt lat="46.20474" lon="10.29993">
        <ele>1741.452</ele>
        <time>2018-08-12T08:13:15Z</time>
      </trkpt>
      <trkpt lat="46.20479" lon="10.29984">
        <ele>1741.879</ele>
        <time>2018-08-12T08:13:35Z</time>
      </trkpt>
      <trkpt lat="46.20479" lon="10.29983">
        <ele>1741.712</ele>
        <time>2018-08-12T08:13:55Z</time>
      </trkpt>
      <trkpt lat="46.20495" lon="10.29962">
        <ele>1737.049</ele>
        <time>2018-08-12T08:14:15Z</time>
      </trkpt>
      <trkpt lat="46.2058" lon="10.29926">
        <ele>1743.402</ele>
        <time>2018-08-12T08:14:35Z</time>
      </trkpt>
      <trkpt lat="46.20602" lon="10.29915">
        <ele>1740.622</ele>
        <time>2018-08-12T08:14:55Z</time>
      </trkpt>
      <trkpt lat="46.20616" lon="10.29899">
        <ele>1741.608</ele>
        <time>2018-08-12T08:15:15Z</time>
      </trkpt>
      <trkpt lat="46.20636" lon="10.29872">
        <ele>1743.166</ele>
        <time>2018-08-12T08:15:35Z</time>
      </trkpt>
      <trkpt lat="46.20649" lon="10.29854">
        <ele>1746.961</ele>
        <time>2018-08-12T08:15:55Z</time>
      </trkpt>
      <trkpt lat="46.20661" lon="10.29836">
        <ele>1753.117</ele>
        <time>2018-08-12T08:16:15Z</time>
      </trkpt>
      <trkpt lat="46.20669" lon="10.2983">
        <ele>1756.061</ele>
        <time>2018-08-12T08:16:35Z</time>
      </trkpt>
      <trkpt lat="46.2067" lon="10.29831">
        <ele>1755.616</ele>
        <time>2018-08-12T08:16:55Z</time>
      </trkpt>
      <trkpt lat="46.20684" lon="10.29837">
        <ele>1752.677</ele>
        <time>2018-08-12T08:17:15Z</time>
      </trkpt>
      <trkpt lat="46.20699" lon="10.2984">
        <ele>1750.254</ele>
        <time>2018-08-12T08:17:35Z</time>
      </trkpt>
      <trkpt lat="46.20719" lon="10.29838">
        <ele>1747.047</ele>
        <time>2018-08-12T08:17:55Z</time>
      </trkpt>
      <trkpt lat="46.20739" lon="10.29841">
        <ele>1742.354</ele>
        <time>2018-08-12T08:18:15Z</time>
      </trkpt>
      <trkpt lat="46.20762" lon="10.2985">
        <ele>1734.756</ele>
        <time>2018-08-12T08:18:35Z</time>
      </trkpt>
      <trkpt lat="46.20784" lon="10.29847">
        <ele>1735.411</ele>
        <time>2018-08-12T08:18:55Z</time>
      </trkpt>
      <trkpt lat="46.20811" lon="10.2983">
        <ele>1745.708</ele>
        <time>2018-08-12T08:19:15Z</time>
      </trkpt>
      <trkpt lat="46.20838" lon="10.29828">
        <ele>1753.377</ele>
        <time>2018-08-12T08:19:35Z</time>
      </trkpt>
      <trkpt lat="46.20846" lon="10.29828">
        <ele>1756.022</ele>
        <time>2018-08-12T08:19:55Z</time>
      </trkpt>
      <trkpt lat="46.20859" lon="10.29828">
        <ele>1760.718</ele>
        <time>2018-08-12T08:20:15Z</time>
      </trkpt>
      <trkpt lat="46.20868" lon="10.29829">
        <ele>1762.912</ele>
        <time>2018-08-12T08:20:35Z</time>
      </trkpt>
      <trkpt lat="46.2089" lon="10.29828">
        <ele>1767.437</ele>
        <time>2018-08-12T08:20:55Z</time>
      </trkpt>
      <trkpt lat="46.20901" lon="10.29832">
        <ele>1767.728</ele>
        <time>2018-08-12T08:21:15Z</time>
      </trkpt>
      <trkpt lat="46.20906" lon="10.29833">
        <ele>1767.945</ele>
        <time>2018-08-12T08:21:35Z</time>
      </trkpt>
      <trkpt lat="46.20914" lon="10.29831">
        <ele>1769.548</ele>
        <time>2018-08-12T08:21:55Z</time>
      </trkpt>
      <trkpt lat="46.2092" lon="10.29822">
        <ele>1772.766</ele>
        <time>2018-08-12T08:22:15Z</time>
      </trkpt>
      <trkpt lat="46.20923" lon="10.29816">
        <ele>1774.729</ele>
        <time>2018-08-12T08:22:35Z</time>
      </trkpt>
      <trkpt lat="46.2092" lon="10.29807">
        <ele>1777.721</ele>
        <time>2018-08-12T08:22:55Z</time>
      </trkpt>
      <trkpt lat="46.20921" lon="10.2979">
        <ele>1781.008</ele>
        <time>2018-08-12T08:23:15Z</time>
      </trkpt>
      <trkpt lat="46.20924" lon="10.29783">
        <ele>1782.628</ele>
        <time>2018-08-12T08:23:35Z</time>
      </trkpt>
      <trkpt lat="46.20936" lon="10.29766">
        <ele>1787.113</ele>
        <time>2018-08-12T08:23:55Z</time>
      </trkpt>
      <trkpt lat="46.20945" lon="10.29751">
        <ele>1790.919</ele>
        <time>2018-08-12T08:24:15Z</time>
      </trkpt>
      <trkpt lat="46.20953" lon="10.29731">
        <ele>1795.783</ele>
        <time>2018-08-12T08:24:35Z</time>
      </trkpt>
      <trkpt lat="46.20963" lon="10.29721">
        <ele>1799.528</ele>
        <time>2018-08-12T08:24:55Z</time>
      </trkpt>
      <trkpt lat="46.20969" lon="10.29711">
        <ele>1802.399</ele>
        <time>2018-08-12T08:25:15Z</time>
      </trkpt>
      <trkpt lat="46.20969" lon="10.29696">
        <ele>1805.096</ele>
        <time>2018-08-12T08:25:35Z</time>
      </trkpt>
      <trkpt lat="46.20975" lon="10.29672">
        <ele>1809.969</ele>
        <time>2018-08-12T08:25:55Z</time>
      </trkpt>
      <trkpt lat="46.20993" lon="10.29667">
        <ele>1810.165</ele>
        <time>2018-08-12T08:26:15Z</time>
      </trkpt>
      <trkpt lat="46.21011" lon="10.29661">
        <ele>1811.068</ele>
        <time>2018-08-12T08:26:35Z</time>
      </trkpt>
      <trkpt lat="46.21032" lon="10.29642">
        <ele>1814.114</ele>
        <time>2018-08-12T08:26:55Z</time>
      </trkpt>
      <trkpt lat="46.21047" lon="10.29631">
        <ele>1815.008</ele>
        <time>2018-08-12T08:27:15Z</time>
      </trkpt>
      <trkpt lat="46.21062" lon="10.29614">
        <ele>1817.998</ele>
        <time>2018-08-12T08:27:35Z</time>
      </trkpt>
      <trkpt lat="46.21068" lon="10.29609">
        <ele>1819.343</ele>
        <time>2018-08-12T08:27:55Z</time>
      </trkpt>
      <trkpt lat="46.21078" lon="10.29605">
        <ele>1821.079</ele>
        <time>2018-08-12T08:28:15Z</time>
      </trkpt>
      <trkpt lat="46.21089" lon="10.29591">
        <ele>1825.093</ele>
        <time>2018-08-12T08:28:35Z</time>
      </trkpt>
      <trkpt lat="46.21098" lon="10.2958">
        <ele>1828.358</ele>
        <time>2018-08-12T08:28:55Z</time>
      </trkpt>
      <trkpt lat="46.21115" lon="10.29575">
        <ele>1831.559</ele>
        <time>2018-08-12T08:29:15Z</time>
      </trkpt>
      <trkpt lat="46.21118" lon="10.29564">
        <ele>1834.436</ele>
        <time>2018-08-12T08:29:35Z</time>
      </trkpt>
      <trkpt lat="46.21117" lon="10.29555">
        <ele>1836.219</ele>
        <time>2018-08-12T08:29:55Z</time>
      </trkpt>
      <trkpt lat="46.21128" lon="10.29554">
        <ele>1838.237</ele>
        <time>2018-08-12T08:30:15Z</time>
      </trkpt>
      <trkpt lat="46.21133" lon="10.29544">
        <ele>1841.149</ele>
        <time>2018-08-12T08:30:35Z</time>
      </trkpt>
      <trkpt lat="46.2114" lon="10.2954">
        <ele>1843.413</ele>
        <time>2018-08-12T08:30:55Z</time>
      </trkpt>
      <trkpt lat="46.21145" lon="10.29531">
        <ele>1846.308</ele>
        <time>2018-08-12T08:31:15Z</time>
      </trkpt>
      <trkpt lat="46.21141" lon="10.29518">
        <ele>1848.525</ele>
        <time>2018-08-12T08:31:35Z</time>
      </trkpt>
      <trkpt lat="46.21144" lon="10.29509">
        <ele>1851.07</ele>
        <time>2018-08-12T08:31:55Z</time>
      </trkpt>
      <trkpt lat="46.21149" lon="10.29499">
        <ele>1854.276</ele>
        <time>2018-08-12T08:32:15Z</time>
      </trkpt>
      <trkpt lat="46.21146" lon="10.29485">
        <ele>1856.63</ele>
        <time>2018-08-12T08:32:35Z</time>
      </trkpt>
      <trkpt lat="46.21153" lon="10.29484">
        <ele>1858.355</ele>
        <time>2018-08-12T08:32:55Z</time>
      </trkpt>
      <trkpt lat="46.2115" lon="10.29469">
        <ele>1860.826</ele>
        <time>2018-08-12T08:33:15Z</time>
      </trkpt>
      <trkpt lat="46.21153" lon="10.29459">
        <ele>1864.083</ele>
        <time>2018-08-12T08:33:35Z</time>
      </trkpt>
      <trkpt lat="46.21171" lon="10.29432">
        <ele>1873.886</ele>
        <time>2018-08-12T08:33:55Z</time>
      </trkpt>
      <trkpt lat="46.21187" lon="10.29453">
        <ele>1872.411</ele>
        <time>2018-08-12T08:34:15Z</time>
      </trkpt>
      <trkpt lat="46.21199" lon="10.2945">
        <ele>1876.121</ele>
        <time>2018-08-12T08:34:35Z</time>
      </trkpt>
      <trkpt lat="46.21202" lon="10.29439">
        <ele>1878.803</ele>
        <time>2018-08-12T08:34:55Z</time>
      </trkpt>
      <trkpt lat="46.21197" lon="10.29425">
        <ele>1879.508</ele>
        <time>2018-08-12T08:35:15Z</time>
      </trkpt>
      <trkpt lat="46.21197" lon="10.29415">
        <ele>1881.513</ele>
        <time>2018-08-12T08:35:35Z</time>
      </trkpt>
      <trkpt lat="46.212" lon="10.29405">
        <ele>1885.178</ele>
        <time>2018-08-12T08:35:55Z</time>
      </trkpt>
      <trkpt lat="46.21206" lon="10.29392">
        <ele>1890.034</ele>
        <time>2018-08-12T08:36:15Z</time>
      </trkpt>
      <trkpt lat="46.21215" lon="10.29386">
        <ele>1893.878</ele>
        <time>2018-08-12T08:36:35Z</time>
      </trkpt>
      <trkpt lat="46.21228" lon="10.29373">
        <ele>1899.583</ele>
        <time>2018-08-12T08:36:55Z</time>
      </trkpt>
      <trkpt lat="46.21245" lon="10.29364">
        <ele>1906.544</ele>
        <time>2018-08-12T08:37:15Z</time>
      </trkpt>
      <trkpt lat="46.2126" lon="10.29354">
        <ele>1914.461</ele>
        <time>2018-08-12T08:37:35Z</time>
      </trkpt>
      <trkpt lat="46.21272" lon="10.29339">
        <ele>1921.464</ele>
        <time>2018-08-12T08:37:55Z</time>
      </trkpt>
      <trkpt lat="46.2128" lon="10.2933">
        <ele>1924.826</ele>
        <time>2018-08-12T08:38:15Z</time>
      </trkpt>
      <trkpt lat="46.21287" lon="10.29316">
        <ele>1928.247</ele>
        <time>2018-08-12T08:38:35Z</time>
      </trkpt>
      <trkpt lat="46.21298" lon="10.29294">
        <ele>1933.211</ele>
        <time>2018-08-12T08:38:55Z</time>
      </trkpt>
      <trkpt lat="46.21298" lon="10.29286">
        <ele>1934.608</ele>
        <time>2018-08-12T08:39:15Z</time>
      </trkpt>
      <trkpt lat="46.21298" lon="10.29286">
        <ele>1934.534</ele>
        <time>2018-08-12T08:39:35Z</time>
      </trkpt>
      <trkpt lat="46.21296" lon="10.29286">
        <ele>1934.589</ele>
        <time>2018-08-12T08:39:55Z</time>
      </trkpt>
      <trkpt lat="46.21285" lon="10.29286">
        <ele>1934.245</ele>
        <time>2018-08-12T08:40:15Z</time>
      </trkpt>
      <trkpt lat="46.21276" lon="10.29285">
        <ele>1934.039</ele>
        <time>2018-08-12T08:40:35Z</time>
      </trkpt>
      <trkpt lat="46.21276" lon="10.29272">
        <ele>1937.394</ele>
        <time>2018-08-12T08:40:55Z</time>
      </trkpt>
      <trkpt lat="46.21283" lon="10.29267">
        <ele>1938.275</ele>
        <time>2018-08-12T08:41:15Z</time>
      </trkpt>
      <trkpt lat="46.21289" lon="10.29255">
        <ele>1940.112</ele>
        <time>2018-08-12T08:41:35Z</time>
      </trkpt>
      <trkpt lat="46.21284" lon="10.29248">
        <ele>1942.175</ele>
        <time>2018-08-12T08:41:55Z</time>
      </trkpt>
      <trkpt lat="46.21284" lon="10.29242">
        <ele>1943.269</ele>
        <time>2018-08-12T08:42:15Z</time>
      </trkpt>
      <trkpt lat="46.21298" lon="10.29232">
        <ele>1944.004</ele>
        <time>2018-08-12T08:42:35Z</time>
      </trkpt>
      <trkpt lat="46.21321" lon="10.29218">
        <ele>1945.224</ele>
        <time>2018-08-12T08:42:55Z</time>
      </trkpt>
      <trkpt lat="46.21335" lon="10.29195">
        <ele>1948.808</ele>
        <time>2018-08-12T08:43:15Z</time>
      </trkpt>
      <trkpt lat="46.21352" lon="10.2918">
        <ele>1952.368</ele>
        <time>2018-08-12T08:43:35Z</time>
      </trkpt>
      <trkpt lat="46.21366" lon="10.29172">
        <ele>1955.073</ele>
        <time>2018-08-12T08:43:55Z</time>
      </trkpt>
      <trkpt lat="46.21399" lon="10.29155">
        <ele>1960.339</ele>
        <time>2018-08-12T08:44:15Z</time>
      </trkpt>
      <trkpt lat="46.21399" lon="10.29154">
        <ele>1960.343</ele>
        <time>2018-08-12T08:44:35Z</time>
      </trkpt>
      <trkpt lat="46.21423" lon="10.2914">
        <ele>1961.578</ele>
        <time>2018-08-12T08:44:55Z</time>
      </trkpt>
      <trkpt lat="46.21437" lon="10.29127">
        <ele>1964.869</ele>
        <time>2018-08-12T08:45:15Z</time>
      </trkpt>
      <trkpt lat="46.21453" lon="10.2911">
        <ele>1970.536</ele>
        <time>2018-08-12T08:45:35Z</time>
      </trkpt>
      <trkpt lat="46.21468" lon="10.2911">
        <ele>1970.929</ele>
        <time>2018-08-12T08:45:55Z</time>
      </trkpt>
      <trkpt lat="46.21487" lon="10.29114">
        <ele>1974.594</ele>
        <time>2018-08-12T08:46:15Z</time>
      </trkpt>
      <trkpt lat="46.21484" lon="10.29201">
        <ele>1975.557</ele>
        <time>2018-08-12T08:46:35Z</time>
      </trkpt>
      <trkpt lat="46.21477" lon="10.29314">
        <ele>1987.822</ele>
        <time>2018-08-12T08:46:55Z</time>
      </trkpt>
      <trkpt lat="46.21439" lon="10.29442">
        <ele>1986.108</ele>
        <time>2018-08-12T08:47:15Z</time>
      </trkpt>
      <trkpt lat="46.21424" lon="10.29557">
        <ele>1991.571</ele>
        <time>2018-08-12T08:47:35Z</time>
      </trkpt>
      <trkpt lat="46.21378" lon="10.2972">
        <ele>2007.116</ele>
        <time>2018-08-12T08:47:55Z</time>
      </trkpt>
      <trkpt lat="46.2137" lon="10.29787">
        <ele>2003.072</ele>
        <time>2018-08-12T08:48:15Z</time>
      </trkpt>
      <trkpt lat="46.21374" lon="10.30001">
        <ele>2009.166</ele>
        <time>2018-08-12T08:48:35Z</time>
      </trkpt>
      <trkpt lat="46.21385" lon="10.30026">
        <ele>2009.161</ele>
        <time>2018-08-12T08:48:55Z</time>
      </trkpt>
      <trkpt lat="46.21405" lon="10.3007">
        <ele>2010.262</ele>
        <time>2018-08-12T08:49:15Z</time>
      </trkpt>
      <trkpt lat="46.21416" lon="10.30093">
        <ele>2012.419</ele>
        <time>2018-08-12T08:49:35Z</time>
      </trkpt>
      <trkpt lat="46.21434" lon="10.3012">
        <ele>2014.512</ele>
        <time>2018-08-12T08:49:55Z</time>
      </trkpt>
      <trkpt lat="46.21437" lon="10.30125">
        <ele>2015.358</ele>
        <time>2018-08-12T08:50:15Z</time>
      </trkpt>
      <trkpt lat="46.21479" lon="10.30189">
        <ele>2009.352</ele>
        <time>2018-08-12T08:50:35Z</time>
      </trkpt>
      <trkpt lat="46.215" lon="10.30211">
        <ele>2004.417</ele>
        <time>2018-08-12T08:50:55Z</time>
      </trkpt>
      <trkpt lat="46.21586" lon="10.30239">
        <ele>2001.708</ele>
        <time>2018-08-12T08:51:15Z</time>
      </trkpt>
      <trkpt lat="46.21593" lon="10.30244">
        <ele>2001.297</ele>
        <time>2018-08-12T08:51:35Z</time>
      </trkpt>
      <trkpt lat="46.21622" lon="10.30262">
        <ele>2001.392</ele>
        <time>2018-08-12T08:51:55Z</time>
      </trkpt>
      <trkpt lat="46.21635" lon="10.30271">
        <ele>2002.948</ele>
        <time>2018-08-12T08:52:15Z</time>
      </trkpt>
      <trkpt lat="46.2168" lon="10.30296">
        <ele>2012.612</ele>
        <time>2018-08-12T08:52:35Z</time>
      </trkpt>
      <trkpt lat="46.21685" lon="10.30299">
        <ele>2013.197</ele>
        <time>2018-08-12T08:52:55Z</time>
      </trkpt>
      <trkpt lat="46.21711" lon="10.3031">
        <ele>2015.998</ele>
        <time>2018-08-12T08:53:15Z</time>
      </trkpt>
      <trkpt lat="46.21767" lon="10.30341">
        <ele>2015.935</ele>
        <time>2018-08-12T08:53:35Z</time>
      </trkpt>
      <trkpt lat="46.21769" lon="10.30342">
        <ele>2015.768</ele>
        <time>2018-08-12T08:53:55Z</time>
      </trkpt>
      <trkpt lat="46.21775" lon="10.30344">
        <ele>2015.417</ele>
        <time>2018-08-12T08:54:15Z</time>
      </trkpt>
      <trkpt lat="46.21792" lon="10.30345">
        <ele>2015.587</ele>
        <time>2018-08-12T08:54:35Z</time>
      </trkpt>
      <trkpt lat="46.21812" lon="10.30344">
        <ele>2016.515</ele>
        <time>2018-08-12T08:54:55Z</time>
      </trkpt>
      <trkpt lat="46.21848" lon="10.30349">
        <ele>2016.808</ele>
        <time>2018-08-12T08:55:15Z</time>
      </trkpt>
      <trkpt lat="46.21855" lon="10.30351">
        <ele>2016.623</ele>
        <time>2018-08-12T08:55:35Z</time>
      </trkpt>
      <trkpt lat="46.21885" lon="10.3037">
        <ele>2013.958</ele>
        <time>2018-08-12T08:55:55Z</time>
      </trkpt>
      <trkpt lat="46.21933" lon="10.3039">
        <ele>2007.844</ele>
        <time>2018-08-12T08:56:15Z</time>
      </trkpt>
      <trkpt lat="46.21957" lon="10.3039">
        <ele>2001.628</ele>
        <time>2018-08-12T08:56:35Z</time>
      </trkpt>
      <trkpt lat="46.21988" lon="10.30367">
        <ele>1989.763</ele>
        <time>2018-08-12T08:56:55Z</time>
      </trkpt>
      <trkpt lat="46.21996" lon="10.30362">
        <ele>1984.194</ele>
        <time>2018-08-12T08:57:15Z</time>
      </trkpt>
      <trkpt lat="46.22084" lon="10.30372">
        <ele>1964.121</ele>
        <time>2018-08-12T08:57:35Z</time>
      </trkpt>
      <trkpt lat="46.22089" lon="10.30376">
        <ele>1965.394</ele>
        <time>2018-08-12T08:57:55Z</time>
      </trkpt>
      <trkpt lat="46.22099" lon="10.30396">
        <ele>1963.683</ele>
        <time>2018-08-12T08:58:15Z</time>
      </trkpt>
      <trkpt lat="46.22134" lon="10.30407">
        <ele>1971.325</ele>
        <time>2018-08-12T08:58:35Z</time>
      </trkpt>
      <trkpt lat="46.22156" lon="10.3042">
        <ele>1975.717</ele>
        <time>2018-08-12T08:58:55Z</time>
      </trkpt>
      <trkpt lat="46.2218" lon="10.30434">
        <ele>1980.108</ele>
        <time>2018-08-12T08:59:15Z</time>
      </trkpt>
      <trkpt lat="46.22235" lon="10.30473">
        <ele>1991.51</ele>
        <time>2018-08-12T08:59:35Z</time>
      </trkpt>
      <trkpt lat="46.22265" lon="10.305">
        <ele>1984.835</ele>
        <time>2018-08-12T08:59:55Z</time>
      </trkpt>
      <trkpt lat="46.22278" lon="10.30507">
        <ele>1985.271</ele>
        <time>2018-08-12T09:00:15Z</time>
      </trkpt>
      <trkpt lat="46.22297" lon="10.30524">
        <ele>1978.885</ele>
        <time>2018-08-12T09:00:35Z</time>
      </trkpt>
      <trkpt lat="46.22307" lon="10.30541">
        <ele>1971.53</ele>
        <time>2018-08-12T09:00:55Z</time>
      </trkpt>
      <trkpt lat="46.2233" lon="10.30562">
        <ele>1962.021</ele>
        <time>2018-08-12T09:01:15Z</time>
      </trkpt>
      <trkpt lat="46.22346" lon="10.30575">
        <ele>1954.348</ele>
        <time>2018-08-12T09:01:35Z</time>
      </trkpt>
      <trkpt lat="46.22367" lon="10.30583">
        <ele>1945.981</ele>
        <time>2018-08-12T09:01:55Z</time>
      </trkpt>
      <trkpt lat="46.22392" lon="10.30582">
        <ele>1939.593</ele>
        <time>2018-08-12T09:02:15Z</time>
      </trkpt>
      <trkpt lat="46.22412" lon="10.30591">
        <ele>1929.865</ele>
        <time>2018-08-12T09:02:35Z</time>
      </trkpt>
      <trkpt lat="46.22428" lon="10.30599">
        <ele>1921.121</ele>
        <time>2018-08-12T09:02:55Z</time>
      </trkpt>
      <trkpt lat="46.2245" lon="10.3059">
        <ele>1916.608</ele>
        <time>2018-08-12T09:03:15Z</time>
      </trkpt>
      <trkpt lat="46.22478" lon="10.30565">
        <ele>1914.311</ele>
        <time>2018-08-12T09:03:35Z</time>
      </trkpt>
      <trkpt lat="46.22495" lon="10.30543">
        <ele>1914.116</ele>
        <time>2018-08-12T09:03:55Z</time>
      </trkpt>
      <trkpt lat="46.22501" lon="10.30532">
        <ele>1914.422</ele>
        <time>2018-08-12T09:04:15Z</time>
      </trkpt>
      <trkpt lat="46.2251" lon="10.30516">
        <ele>1915.316</ele>
        <time>2018-08-12T09:04:35Z</time>
      </trkpt>
      <trkpt lat="46.22514" lon="10.3051">
        <ele>1915.571</ele>
        <time>2018-08-12T09:04:55Z</time>
      </trkpt>
      <trkpt lat="46.22519" lon="10.30502">
        <ele>1915.542</ele>
        <time>2018-08-12T09:05:15Z</time>
      </trkpt>
      <trkpt lat="46.22539" lon="10.30471">
        <ele>1916.669</ele>
        <time>2018-08-12T09:05:35Z</time>
      </trkpt>
      <trkpt lat="46.2254" lon="10.3047">
        <ele>1917.242</ele>
        <time>2018-08-12T09:05:55Z</time>
      </trkpt>
      <trkpt lat="46.22544" lon="10.30467">
        <ele>1918.521</ele>
        <time>2018-08-12T09:06:15Z</time>
      </trkpt>
      <trkpt lat="46.2255" lon="10.30462">
        <ele>1919.941</ele>
        <time>2018-08-12T09:06:35Z</time>
      </trkpt>
      <trkpt lat="46.22559" lon="10.30452">
        <ele>1922.305</ele>
        <time>2018-08-12T09:06:55Z</time>
      </trkpt>
      <trkpt lat="46.22569" lon="10.30446">
        <ele>1922.708</ele>
        <time>2018-08-12T09:07:15Z</time>
      </trkpt>
      <trkpt lat="46.22572" lon="10.30448">
        <ele>1921.354</ele>
        <time>2018-08-12T09:07:35Z</time>
      </trkpt>
      <trkpt lat="46.22574" lon="10.30449">
        <ele>1920.039</ele>
        <time>2018-08-12T09:07:55Z</time>
      </trkpt>
      <trkpt lat="46.22585" lon="10.30455">
        <ele>1915.045</ele>
        <time>2018-08-12T09:08:15Z</time>
      </trkpt>
      <trkpt lat="46.22598" lon="10.30464">
        <ele>1910.919</ele>
        <time>2018-08-12T09:08:35Z</time>
      </trkpt>
      <trkpt lat="46.22606" lon="10.3047">
        <ele>1908.024</ele>
        <time>2018-08-12T09:08:55Z</time>
      </trkpt>
      <trkpt lat="46.22625" lon="10.30475">
        <ele>1908.935</ele>
        <time>2018-08-12T09:09:15Z</time>
      </trkpt>
      <trkpt lat="46.22644" lon="10.30486">
        <ele>1907.912</ele>
        <time>2018-08-12T09:09:35Z</time>
      </trkpt>
      <trkpt lat="46.22658" lon="10.30493">
        <ele>1907.715</ele>
        <time>2018-08-12T09:09:55Z</time>
      </trkpt>
      <trkpt lat="46.2266" lon="10.30495">
        <ele>1907.285</ele>
        <time>2018-08-12T09:10:15Z</time>
      </trkpt>
      <trkpt lat="46.22672" lon="10.30503">
        <ele>1907.689</ele>
        <time>2018-08-12T09:10:35Z</time>
      </trkpt>
      <trkpt lat="46.22674" lon="10.30505">
        <ele>1907.617</ele>
        <time>2018-08-12T09:10:55Z</time>
      </trkpt>
      <trkpt lat="46.22687" lon="10.30518">
        <ele>1907.908</ele>
        <time>2018-08-12T09:11:15Z</time>
      </trkpt>
      <trkpt lat="46.22694" lon="10.30526">
        <ele>1907.36</ele>
        <time>2018-08-12T09:11:35Z</time>
      </trkpt>
      <trkpt lat="46.22705" lon="10.3054">
        <ele>1905.645</ele>
        <time>2018-08-12T09:11:55Z</time>
      </trkpt>
      <trkpt lat="46.22721" lon="10.30552">
        <ele>1905.631</ele>
        <time>2018-08-12T09:12:15Z</time>
      </trkpt>
      <trkpt lat="46.22729" lon="10.30556">
        <ele>1906.675</ele>
        <time>2018-08-12T09:12:35Z</time>
      </trkpt>
      <trkpt lat="46.22755" lon="10.30574">
        <ele>1906.33</ele>
        <time>2018-08-12T09:12:55Z</time>
      </trkpt>
      <trkpt lat="46.22757" lon="10.30577">
        <ele>1905.761</ele>
        <time>2018-08-12T09:13:15Z</time>
      </trkpt>
      <trkpt lat="46.22758" lon="10.30578">
        <ele>1905.468</ele>
        <time>2018-08-12T09:13:35Z</time>
      </trkpt>
      <trkpt lat="46.22759" lon="10.30579">
        <ele>1905.161</ele>
        <time>2018-08-12T09:13:55Z</time>
      </trkpt>
      <trkpt lat="46.2276" lon="10.3058">
        <ele>1904.779</ele>
        <time>2018-08-12T09:14:15Z</time>
      </trkpt>
      <trkpt lat="46.22771" lon="10.30605">
        <ele>1898.705</ele>
        <time>2018-08-12T09:14:35Z</time>
      </trkpt>
      <trkpt lat="46.22776" lon="10.30614">
        <ele>1896.825</ele>
        <time>2018-08-12T09:14:55Z</time>
      </trkpt>
      <trkpt lat="46.22778" lon="10.30616">
        <ele>1896.608</ele>
        <time>2018-08-12T09:15:15Z</time>
      </trkpt>
      <trkpt lat="46.22782" lon="10.3062">
        <ele>1896.119</ele>
        <time>2018-08-12T09:15:35Z</time>
      </trkpt>
      <trkpt lat="46.22788" lon="10.30623">
        <ele>1896.224</ele>
        <time>2018-08-12T09:15:55Z</time>
      </trkpt>
      <trkpt lat="46.22791" lon="10.30624">
        <ele>1896.35</ele>
        <time>2018-08-12T09:16:15Z</time>
      </trkpt>
      <trkpt lat="46.22794" lon="10.30627">
        <ele>1895.954</ele>
        <time>2018-08-12T09:16:35Z</time>
      </trkpt>
      <trkpt lat="46.22808" lon="10.30638">
        <ele>1895.579</ele>
        <time>2018-08-12T09:16:55Z</time>
      </trkpt>
      <trkpt lat="46.2282" lon="10.30653">
        <ele>1893.53</ele>
        <time>2018-08-12T09:17:15Z</time>
      </trkpt>
      <trkpt lat="46.22828" lon="10.30661">
        <ele>1892.667</ele>
        <time>2018-08-12T09:17:35Z</time>
      </trkpt>
      <trkpt lat="46.22835" lon="10.30667">
        <ele>1892.38</ele>
        <time>2018-08-12T09:17:55Z</time>
      </trkpt>
      <trkpt lat="46.22842" lon="10.30668">
        <ele>1893.921</ele>
        <time>2018-08-12T09:18:15Z</time>
      </trkpt>
      <trkpt lat="46.22858" lon="10.3068">
        <ele>1894.641</ele>
        <time>2018-08-12T09:18:35Z</time>
      </trkpt>
      <trkpt lat="46.22862" lon="10.3069">
        <ele>1892.505</ele>
        <time>2018-08-12T09:18:55Z</time>
      </trkpt>
      <trkpt lat="46.22866" lon="10.30697">
        <ele>1891.708</ele>
        <time>2018-08-12T09:19:15Z</time>
      </trkpt>
      <trkpt lat="46.22874" lon="10.30702">
        <ele>1892.994</ele>
        <time>2018-08-12T09:19:35Z</time>
      </trkpt>
      <trkpt lat="46.22877" lon="10.30703">
        <ele>1893.329</ele>
        <time>2018-08-12T09:19:55Z</time>
      </trkpt>
      <trkpt lat="46.22878" lon="10.30703">
        <ele>1893.455</ele>
        <time>2018-08-12T09:20:15Z</time>
      </trkpt>
      <trkpt lat="46.22888" lon="10.30703">
        <ele>1897.219</ele>
        <time>2018-08-12T09:20:35Z</time>
      </trkpt>
      <trkpt lat="46.22889" lon="10.30703">
        <ele>1897.324</ele>
        <time>2018-08-12T09:20:55Z</time>
      </trkpt>
      <trkpt lat="46.22893" lon="10.30702">
        <ele>1897.695</ele>
        <time>2018-08-12T09:21:15Z</time>
      </trkpt>
      <trkpt lat="46.22895" lon="10.307">
        <ele>1898.542</ele>
        <time>2018-08-12T09:21:35Z</time>
      </trkpt>
      <trkpt lat="46.229" lon="10.30697">
        <ele>1899.455</ele>
        <time>2018-08-12T09:21:55Z</time>
      </trkpt>
      <trkpt lat="46.22904" lon="10.30695">
        <ele>1900.256</ele>
        <time>2018-08-12T09:22:15Z</time>
      </trkpt>
      <trkpt lat="46.22907" lon="10.30694">
        <ele>1900.459</ele>
        <time>2018-08-12T09:22:35Z</time>
      </trkpt>
      <trkpt lat="46.22911" lon="10.30696">
        <ele>1899.714</ele>
        <time>2018-08-12T09:22:55Z</time>
      </trkpt>
      <trkpt lat="46.22912" lon="10.30696">
        <ele>1899.508</ele>
        <time>2018-08-12T09:23:15Z</time>
      </trkpt>
      <trkpt lat="46.22926" lon="10.30692">
        <ele>1899.787</ele>
        <time>2018-08-12T09:23:35Z</time>
      </trkpt>
      <trkpt lat="46.22933" lon="10.30689">
        <ele>1900.012</ele>
        <time>2018-08-12T09:23:55Z</time>
      </trkpt>
      <trkpt lat="46.22953" lon="10.30695">
        <ele>1896.728</ele>
        <time>2018-08-12T09:24:15Z</time>
      </trkpt>
      <trkpt lat="46.22969" lon="10.30699">
        <ele>1892.842</ele>
        <time>2018-08-12T09:24:35Z</time>
      </trkpt>
      <trkpt lat="46.2298" lon="10.30698">
        <ele>1893.017</ele>
        <time>2018-08-12T09:24:55Z</time>
      </trkpt>
      <trkpt lat="46.22985" lon="10.30702">
        <ele>1891.218</ele>
        <time>2018-08-12T09:25:15Z</time>
      </trkpt>
      <trkpt lat="46.23004" lon="10.30712">
        <ele>1887.295</ele>
        <time>2018-08-12T09:25:35Z</time>
      </trkpt>
      <trkpt lat="46.23009" lon="10.30714">
        <ele>1885.518</ele>
        <time>2018-08-12T09:25:55Z</time>
      </trkpt>
      <trkpt lat="46.23061" lon="10.30741">
        <ele>1871.912</ele>
        <time>2018-08-12T09:26:15Z</time>
      </trkpt>
      <trkpt lat="46.23062" lon="10.30741">
        <ele>1871.832</ele>
        <time>2018-08-12T09:26:35Z</time>
      </trkpt>
      <trkpt lat="46.23064" lon="10.30742">
        <ele>1871.905</ele>
        <time>2018-08-12T09:26:55Z</time>
      </trkpt>
      <trkpt lat="46.23066" lon="10.30742">
        <ele>1872.108</ele>
        <time>2018-08-12T09:27:15Z</time>
      </trkpt>
      <trkpt lat="46.23071" lon="10.30745">
        <ele>1871.063</ele>
        <time>2018-08-12T09:27:35Z</time>
      </trkpt>
      <trkpt lat="46.23082" lon="10.30759">
        <ele>1864.658</ele>
        <time>2018-08-12T09:27:55Z</time>
      </trkpt>
      <trkpt lat="46.23086" lon="10.3076">
        <ele>1864.484</ele>
        <time>2018-08-12T09:28:15Z</time>
      </trkpt>
      <trkpt lat="46.23089" lon="10.30763">
        <ele>1862.768</ele>
        <time>2018-08-12T09:28:35Z</time>
      </trkpt>
      <trkpt lat="46.23099" lon="10.30769">
        <ele>1859.373</ele>
        <time>2018-08-12T09:28:55Z</time>
      </trkpt>
      <trkpt lat="46.23105" lon="10.30777">
        <ele>1854.484</ele>
        <time>2018-08-12T09:29:15Z</time>
      </trkpt>
      <trkpt lat="46.23112" lon="10.30783">
        <ele>1850.791</ele>
        <time>2018-08-12T09:29:35Z</time>
      </trkpt>
      <trkpt lat="46.23116" lon="10.30784">
        <ele>1850.664</ele>
        <time>2018-08-12T09:29:55Z</time>
      </trkpt>
      <trkpt lat="46.23125" lon="10.30778">
        <ele>1854.594</ele>
        <time>2018-08-12T09:30:15Z</time>
      </trkpt>
      <trkpt lat="46.23129" lon="10.30772">
        <ele>1857.857</ele>
        <time>2018-08-12T09:30:35Z</time>
      </trkpt>
      <trkpt lat="46.23139" lon="10.30776">
        <ele>1856.122</ele>
        <time>2018-08-12T09:30:55Z</time>
      </trkpt>
      <trkpt lat="46.23139" lon="10.30775">
        <ele>1856.208</ele>
        <time>2018-08-12T09:31:15Z</time>
      </trkpt>
      <trkpt lat="46.23144" lon="10.30774">
        <ele>1856.321</ele>
        <time>2018-08-12T09:31:35Z</time>
      </trkpt>
      <trkpt lat="46.23146" lon="10.30772">
        <ele>1857.146</ele>
        <time>2018-08-12T09:31:55Z</time>
      </trkpt>
      <trkpt lat="46.23149" lon="10.30771">
        <ele>1856.962</ele>
        <time>2018-08-12T09:32:15Z</time>
      </trkpt>
      <trkpt lat="46.23157" lon="10.30768">
        <ele>1857.466</ele>
        <time>2018-08-12T09:32:35Z</time>
      </trkpt>
      <trkpt lat="46.2316" lon="10.3077">
        <ele>1855.851</ele>
        <time>2018-08-12T09:32:55Z</time>
      </trkpt>
      <trkpt lat="46.23163" lon="10.30767">
        <ele>1856.872</ele>
        <time>2018-08-12T09:33:15Z</time>
      </trkpt>
      <trkpt lat="46.23166" lon="10.30769">
        <ele>1855.499</ele>
        <time>2018-08-12T09:33:35Z</time>
      </trkpt>
      <trkpt lat="46.23167" lon="10.30769">
        <ele>1855.212</ele>
        <time>2018-08-12T09:33:55Z</time>
      </trkpt>
      <trkpt lat="46.23169" lon="10.30768">
        <ele>1855.315</ele>
        <time>2018-08-12T09:34:15Z</time>
      </trkpt>
      <trkpt lat="46.23179" lon="10.30763">
        <ele>1854.665</ele>
        <time>2018-08-12T09:34:35Z</time>
      </trkpt>
      <trkpt lat="46.23179" lon="10.30763">
        <ele>1854.311</ele>
        <time>2018-08-12T09:34:55Z</time>
      </trkpt>
      <trkpt lat="46.23189" lon="10.30762">
        <ele>1852.108</ele>
        <time>2018-08-12T09:35:15Z</time>
      </trkpt>
      <trkpt lat="46.23194" lon="10.30761">
        <ele>1850.643</ele>
        <time>2018-08-12T09:35:35Z</time>
      </trkpt>
      <trkpt lat="46.23201" lon="10.30761">
        <ele>1848.648</ele>
        <time>2018-08-12T09:35:55Z</time>
      </trkpt>
      <trkpt lat="46.23201" lon="10.30761">
        <ele>1848.584</ele>
        <time>2018-08-12T09:36:15Z</time>
      </trkpt>
      <trkpt lat="46.23202" lon="10.30761">
        <ele>1848.778</ele>
        <time>2018-08-12T09:36:35Z</time>
      </trkpt>
      <trkpt lat="46.23206" lon="10.30759">
        <ele>1848.453</ele>
        <time>2018-08-12T09:36:55Z</time>
      </trkpt>
      <trkpt lat="46.23216" lon="10.30755">
        <ele>1847.654</ele>
        <time>2018-08-12T09:37:15Z</time>
      </trkpt>
      <trkpt lat="46.23226" lon="10.30748">
        <ele>1847.031</ele>
        <time>2018-08-12T09:37:35Z</time>
      </trkpt>
      <trkpt lat="46.23231" lon="10.30747">
        <ele>1845.484</ele>
        <time>2018-08-12T09:37:55Z</time>
      </trkpt>
      <trkpt lat="46.23237" lon="10.30742">
        <ele>1845.176</ele>
        <time>2018-08-12T09:38:15Z</time>
      </trkpt>
      <trkpt lat="46.2324" lon="10.30738">
        <ele>1845.59</ele>
        <time>2018-08-12T09:38:35Z</time>
      </trkpt>
      <trkpt lat="46.23249" lon="10.30733">
        <ele>1843.319</ele>
        <time>2018-08-12T09:38:55Z</time>
      </trkpt>
      <trkpt lat="46.23252" lon="10.30728">
        <ele>1844.308</ele>
        <time>2018-08-12T09:39:15Z</time>
      </trkpt>
      <trkpt lat="46.23253" lon="10.30727">
        <ele>1844.269</ele>
        <time>2018-08-12T09:39:35Z</time>
      </trkpt>
      <trkpt lat="46.23256" lon="10.30724">
        <ele>1844.064</ele>
        <time>2018-08-12T09:39:55Z</time>
      </trkpt>
      <trkpt lat="46.2326" lon="10.30718">
        <ele>1844.83</ele>
        <time>2018-08-12T09:40:15Z</time>
      </trkpt>
      <trkpt lat="46.23275" lon="10.30708">
        <ele>1840.774</ele>
        <time>2018-08-12T09:40:35Z</time>
      </trkpt>
      <trkpt lat="46.23278" lon="10.30706">
        <ele>1839.829</ele>
        <time>2018-08-12T09:40:55Z</time>
      </trkpt>
      <trkpt lat="46.23294" lon="10.30693">
        <ele>1835.66</ele>
        <time>2018-08-12T09:41:15Z</time>
      </trkpt>
      <trkpt lat="46.23306" lon="10.30687">
        <ele>1831.827</ele>
        <time>2018-08-12T09:41:35Z</time>
      </trkpt>
      <trkpt lat="46.23311" lon="10.30681">
        <ele>1832.28</ele>
        <time>2018-08-12T09:41:55Z</time>
      </trkpt>
      <trkpt lat="46.23312" lon="10.30677">
        <ele>1833.146</ele>
        <time>2018-08-12T09:42:15Z</time>
      </trkpt>
      <trkpt lat="46.23323" lon="10.30671">
        <ele>1831.388</ele>
        <time>2018-08-12T09:42:35Z</time>
      </trkpt>
      <trkpt lat="46.23326" lon="10.3067">
        <ele>1830.316</ele>
        <time>2018-08-12T09:42:55Z</time>
      </trkpt>
      <trkpt lat="46.23345" lon="10.30658">
        <ele>1828.108</ele>
        <time>2018-08-12T09:43:15Z</time>
      </trkpt>
      <trkpt lat="46.2336" lon="10.30648">
        <ele>1826.826</ele>
        <time>2018-08-12T09:43:35Z</time>
      </trkpt>
      <trkpt lat="46.23365" lon="10.30642">
        <ele>1828.711</ele>
        <time>2018-08-12T09:43:55Z</time>
      </trkpt>
      <trkpt lat="46.23382" lon="10.30639">
        <ele>1826.357</ele>
        <time>2018-08-12T09:44:15Z</time>
      </trkpt>
      <trkpt lat="46.23398" lon="10.30641">
        <ele>1823.141</ele>
        <time>2018-08-12T09:44:35Z</time>
      </trkpt>
      <trkpt lat="46.234" lon="10.30642">
        <ele>1822.886</ele>
        <time>2018-08-12T09:44:55Z</time>
      </trkpt>
      <trkpt lat="46.23405" lon="10.30644">
        <ele>1821.627</ele>
        <time>2018-08-12T09:45:15Z</time>
      </trkpt>
      <trkpt lat="46.2341" lon="10.30646">
        <ele>1820.594</ele>
        <time>2018-08-12T09:45:35Z</time>
      </trkpt>
      <trkpt lat="46.23414" lon="10.30646">
        <ele>1820.237</ele>
        <time>2018-08-12T09:45:55Z</time>
      </trkpt>
      <trkpt lat="46.23419" lon="10.3065">
        <ele>1818.699</ele>
        <time>2018-08-12T09:46:15Z</time>
      </trkpt>
      <trkpt lat="46.23422" lon="10.30649">
        <ele>1818.607</ele>
        <time>2018-08-12T09:46:35Z</time>
      </trkpt>
      <trkpt lat="46.23432" lon="10.30642">
        <ele>1819.527</ele>
        <time>2018-08-12T09:46:55Z</time>
      </trkpt>
      <trkpt lat="46.23439" lon="10.30637">
        <ele>1820.308</ele>
        <time>2018-08-12T09:47:15Z</time>
      </trkpt>
      <trkpt lat="46.23447" lon="10.30631">
        <ele>1821.931</ele>
        <time>2018-08-12T09:47:35Z</time>
      </trkpt>
      <trkpt lat="46.23463" lon="10.3062">
        <ele>1823.496</ele>
        <time>2018-08-12T09:47:55Z</time>
      </trkpt>
      <trkpt lat="46.23466" lon="10.30619">
        <ele>1823.542</ele>
        <time>2018-08-12T09:48:15Z</time>
      </trkpt>
      <trkpt lat="46.23473" lon="10.3062">
        <ele>1821.826</ele>
        <time>2018-08-12T09:48:35Z</time>
      </trkpt>
      <trkpt lat="46.23519" lon="10.30617">
        <ele>1810.621</ele>
        <time>2018-08-12T09:48:55Z</time>
      </trkpt>
      <trkpt lat="46.23522" lon="10.30617">
        <ele>1809.682</ele>
        <time>2018-08-12T09:49:15Z</time>
      </trkpt>
      <trkpt lat="46.23529" lon="10.30623">
        <ele>1805.889</ele>
        <time>2018-08-12T09:49:35Z</time>
      </trkpt>
      <trkpt lat="46.23543" lon="10.30622">
        <ele>1804.092</ele>
        <time>2018-08-12T09:49:55Z</time>
      </trkpt>
      <trkpt lat="46.23553" lon="10.30617">
        <ele>1803.454</ele>
        <time>2018-08-12T09:50:15Z</time>
      </trkpt>
      <trkpt lat="46.23564" lon="10.30604">
        <ele>1804.356</ele>
        <time>2018-08-12T09:50:35Z</time>
      </trkpt>
      <trkpt lat="46.23577" lon="10.30583">
        <ele>1808.611</ele>
        <time>2018-08-12T09:50:55Z</time>
      </trkpt>
      <trkpt lat="46.23579" lon="10.30581">
        <ele>1808.708</ele>
        <time>2018-08-12T09:51:15Z</time>
      </trkpt>
      <trkpt lat="46.23591" lon="10.30576">
        <ele>1808.277</ele>
        <time>2018-08-12T09:51:35Z</time>
      </trkpt>
      <trkpt lat="46.23602" lon="10.30576">
        <ele>1807.052</ele>
        <time>2018-08-12T09:51:55Z</time>
      </trkpt>
      <trkpt lat="46.23613" lon="10.30584">
        <ele>1804.048</ele>
        <time>2018-08-12T09:52:15Z</time>
      </trkpt>
      <trkpt lat="46.2362" lon="10.30591">
        <ele>1802.852</ele>
        <time>2018-08-12T09:52:35Z</time>
      </trkpt>
      <trkpt lat="46.2363" lon="10.30596">
        <ele>1802.457</ele>
        <time>2018-08-12T09:52:55Z</time>
      </trkpt>
      <trkpt lat="46.23644" lon="10.30597">
        <ele>1802.478</ele>
        <time>2018-08-12T09:53:15Z</time>
      </trkpt>
      <trkpt lat="46.23654" lon="10.30597">
        <ele>1802.175</ele>
        <time>2018-08-12T09:53:35Z</time>
      </trkpt>
      <trkpt lat="46.23664" lon="10.30601">
        <ele>1801.468</ele>
        <time>2018-08-12T09:53:55Z</time>
      </trkpt>
      <trkpt lat="46.23675" lon="10.306">
        <ele>1801.572</ele>
        <time>2018-08-12T09:54:15Z</time>
      </trkpt>
      <trkpt lat="46.23692" lon="10.30592">
        <ele>1802.113</ele>
        <time>2018-08-12T09:54:35Z</time>
      </trkpt>
      <trkpt lat="46.237" lon="10.30575">
        <ele>1803.614</ele>
        <time>2018-08-12T09:54:55Z</time>
      </trkpt>
      <trkpt lat="46.23713" lon="10.30564">
        <ele>1803.008</ele>
        <time>2018-08-12T09:55:15Z</time>
      </trkpt>
      <trkpt lat="46.23725" lon="10.30559">
        <ele>1801.629</ele>
        <time>2018-08-12T09:55:35Z</time>
      </trkpt>
      <trkpt lat="46.23761" lon="10.30537">
        <ele>1797.894</ele>
        <time>2018-08-12T09:55:55Z</time>
      </trkpt>
      <trkpt lat="46.23778" lon="10.30527">
        <ele>1796.09</ele>
        <time>2018-08-12T09:56:15Z</time>
      </trkpt>
      <trkpt lat="46.23793" lon="10.30512">
        <ele>1795.724</ele>
        <time>2018-08-12T09:56:35Z</time>
      </trkpt>
      <trkpt lat="46.23806" lon="10.30504">
        <ele>1794.839</ele>
        <time>2018-08-12T09:56:55Z</time>
      </trkpt>
      <trkpt lat="46.23817" lon="10.30496">
        <ele>1793.92</ele>
        <time>2018-08-12T09:57:15Z</time>
      </trkpt>
      <trkpt lat="46.23827" lon="10.30478">
        <ele>1793.487</ele>
        <time>2018-08-12T09:57:35Z</time>
      </trkpt>
      <trkpt lat="46.23838" lon="10.30461">
        <ele>1793.03</ele>
        <time>2018-08-12T09:57:55Z</time>
      </trkpt>
      <trkpt lat="46.2385" lon="10.30449">
        <ele>1791.786</ele>
        <time>2018-08-12T09:58:15Z</time>
      </trkpt>
      <trkpt lat="46.23862" lon="10.30438">
        <ele>1789.66</ele>
        <time>2018-08-12T09:58:35Z</time>
      </trkpt>
      <trkpt lat="46.2387" lon="10.30428">
        <ele>1787.826</ele>
        <time>2018-08-12T09:58:55Z</time>
      </trkpt>
      <trkpt lat="46.23879" lon="10.30421">
        <ele>1785.408</ele>
        <time>2018-08-12T09:59:15Z</time>
      </trkpt>
      <trkpt lat="46.23888" lon="10.30419">
        <ele>1783.15</ele>
        <time>2018-08-12T09:59:35Z</time>
      </trkpt>
      <trkpt lat="46.23904" lon="10.30419">
        <ele>1780.955</ele>
        <time>2018-08-12T09:59:55Z</time>
      </trkpt>
      <trkpt lat="46.23912" lon="10.30421">
        <ele>1779.861</ele>
        <time>2018-08-12T10:00:15Z</time>
      </trkpt>
      <trkpt lat="46.23922" lon="10.30425">
        <ele>1779.255</ele>
        <time>2018-08-12T10:00:35Z</time>
      </trkpt>
      <trkpt lat="46.23932" lon="10.30433">
        <ele>1779.27</ele>
        <time>2018-08-12T10:00:55Z</time>
      </trkpt>
      <trkpt lat="46.23939" lon="10.30437">
        <ele>1779.191</ele>
        <time>2018-08-12T10:01:15Z</time>
      </trkpt>
      <trkpt lat="46.2394" lon="10.30438">
        <ele>1779.178</ele>
        <time>2018-08-12T10:01:35Z</time>
      </trkpt>
      <trkpt lat="46.23953" lon="10.30441">
        <ele>1779.061</ele>
        <time>2018-08-12T10:01:55Z</time>
      </trkpt>
      <trkpt lat="46.23984" lon="10.30447">
        <ele>1778.999</ele>
        <time>2018-08-12T10:02:15Z</time>
      </trkpt>
      <trkpt lat="46.24" lon="10.30448">
        <ele>1778.807</ele>
        <time>2018-08-12T10:02:35Z</time>
      </trkpt>
      <trkpt lat="46.24028" lon="10.30447">
        <ele>1778.927</ele>
        <time>2018-08-12T10:02:55Z</time>
      </trkpt>
      <trkpt lat="46.24043" lon="10.30447">
        <ele>1779.008</ele>
        <time>2018-08-12T10:03:15Z</time>
      </trkpt>
      <trkpt lat="46.24048" lon="10.30469">
        <ele>1779.381</ele>
        <time>2018-08-12T10:03:35Z</time>
      </trkpt>
      <trkpt lat="46.24047" lon="10.30469">
        <ele>1779.386</ele>
        <time>2018-08-12T10:03:55Z</time>
      </trkpt>
      <trkpt lat="46.24029" lon="10.30464">
        <ele>1778.342</ele>
        <time>2018-08-12T10:04:15Z</time>
      </trkpt>
      <trkpt lat="46.2401" lon="10.30458">
        <ele>1778.546</ele>
        <time>2018-08-12T10:04:35Z</time>
      </trkpt>
      <trkpt lat="46.23988" lon="10.3046">
        <ele>1778.641</ele>
        <time>2018-08-12T10:04:55Z</time>
      </trkpt>
      <trkpt lat="46.23979" lon="10.30476">
        <ele>1778.352</ele>
        <time>2018-08-12T10:05:15Z</time>
      </trkpt>
      <trkpt lat="46.23973" lon="10.30489">
        <ele>1777.239</ele>
        <time>2018-08-12T10:05:35Z</time>
      </trkpt>
      <trkpt lat="46.23972" lon="10.30501">
        <ele>1775.932</ele>
        <time>2018-08-12T10:05:55Z</time>
      </trkpt>
      <trkpt lat="46.23973" lon="10.30514">
        <ele>1774.982</ele>
        <time>2018-08-12T10:06:15Z</time>
      </trkpt>
      <trkpt lat="46.2397" lon="10.30529">
        <ele>1774.043</ele>
        <time>2018-08-12T10:06:35Z</time>
      </trkpt>
      <trkpt lat="46.2397" lon="10.3054">
        <ele>1773.217</ele>
        <time>2018-08-12T10:06:55Z</time>
      </trkpt>
      <trkpt lat="46.23972" lon="10.30557">
        <ele>1771.908</ele>
        <time>2018-08-12T10:07:15Z</time>
      </trkpt>
      <trkpt lat="46.23971" lon="10.30567">
        <ele>1771.27</ele>
        <time>2018-08-12T10:07:35Z</time>
      </trkpt>
      <trkpt lat="46.23968" lon="10.30582">
        <ele>1770.455</ele>
        <time>2018-08-12T10:07:55Z</time>
      </trkpt>
      <trkpt lat="46.23967" lon="10.30588">
        <ele>1769.921</ele>
        <time>2018-08-12T10:08:15Z</time>
      </trkpt>
      <trkpt lat="46.23959" lon="10.30611">
        <ele>1768.455</ele>
        <time>2018-08-12T10:08:35Z</time>
      </trkpt>
      <trkpt lat="46.23954" lon="10.30623">
        <ele>1768.17</ele>
        <time>2018-08-12T10:08:55Z</time>
      </trkpt>
      <trkpt lat="46.23952" lon="10.30634">
        <ele>1767.591</ele>
        <time>2018-08-12T10:09:15Z</time>
      </trkpt>
      <trkpt lat="46.23947" lon="10.30652">
        <ele>1767.168</ele>
        <time>2018-08-12T10:09:35Z</time>
      </trkpt>
      <trkpt lat="46.23946" lon="10.30667">
        <ele>1766.721</ele>
        <time>2018-08-12T10:09:55Z</time>
      </trkpt>
      <trkpt lat="46.2395" lon="10.30677">
        <ele>1765.134</ele>
        <time>2018-08-12T10:10:15Z</time>
      </trkpt>
      <trkpt lat="46.23951" lon="10.30688">
        <ele>1763.755</ele>
        <time>2018-08-12T10:10:35Z</time>
      </trkpt>
      <trkpt lat="46.23958" lon="10.30712">
        <ele>1760.71</ele>
        <time>2018-08-12T10:10:55Z</time>
      </trkpt>
      <trkpt lat="46.23964" lon="10.30729">
        <ele>1758.608</ele>
        <time>2018-08-12T10:11:15Z</time>
      </trkpt>
      <trkpt lat="46.2397" lon="10.30746">
        <ele>1755.945</ele>
        <time>2018-08-12T10:11:35Z</time>
      </trkpt>
      <trkpt lat="46.23973" lon="10.30759">
        <ele>1753.98</ele>
        <time>2018-08-12T10:11:55Z</time>
      </trkpt>
      <trkpt lat="46.23975" lon="10.30775">
        <ele>1751.976</ele>
        <time>2018-08-12T10:12:15Z</time>
      </trkpt>
      <trkpt lat="46.23977" lon="10.30792">
        <ele>1749.11</ele>
        <time>2018-08-12T10:12:35Z</time>
      </trkpt>
      <trkpt lat="46.2398" lon="10.30811">
        <ele>1745.875</ele>
        <time>2018-08-12T10:12:55Z</time>
      </trkpt>
      <trkpt lat="46.2398" lon="10.30833">
        <ele>1743.416</ele>
        <time>2018-08-12T10:13:15Z</time>
      </trkpt>
      <trkpt lat="46.23975" lon="10.30849">
        <ele>1742.693</ele>
        <time>2018-08-12T10:13:35Z</time>
      </trkpt>
      <trkpt lat="46.23961" lon="10.30868">
        <ele>1742.726</ele>
        <time>2018-08-12T10:13:55Z</time>
      </trkpt>
      <trkpt lat="46.23946" lon="10.30898">
        <ele>1741.151</ele>
        <time>2018-08-12T10:14:15Z</time>
      </trkpt>
      <trkpt lat="46.23935" lon="10.30908">
        <ele>1740.501</ele>
        <time>2018-08-12T10:14:35Z</time>
      </trkpt>
      <trkpt lat="46.23923" lon="10.30919">
        <ele>1739.511</ele>
        <time>2018-08-12T10:14:55Z</time>
      </trkpt>
      <trkpt lat="46.239" lon="10.30927">
        <ele>1738.908</ele>
        <time>2018-08-12T10:15:15Z</time>
      </trkpt>
      <trkpt lat="46.23889" lon="10.3093">
        <ele>1739.037</ele>
        <time>2018-08-12T10:15:35Z</time>
      </trkpt>
      <trkpt lat="46.23877" lon="10.30942">
        <ele>1737.262</ele>
        <time>2018-08-12T10:15:55Z</time>
      </trkpt>
      <trkpt lat="46.23871" lon="10.30948">
        <ele>1736.198</ele>
        <time>2018-08-12T10:16:15Z</time>
      </trkpt>
      <trkpt lat="46.23862" lon="10.30955">
        <ele>1734.942</ele>
        <time>2018-08-12T10:16:35Z</time>
      </trkpt>
      <trkpt lat="46.23855" lon="10.30971">
        <ele>1730.977</ele>
        <time>2018-08-12T10:16:55Z</time>
      </trkpt>
      <trkpt lat="46.23846" lon="10.30979">
        <ele>1728.518</ele>
        <time>2018-08-12T10:17:15Z</time>
      </trkpt>
      <trkpt lat="46.23835" lon="10.30975">
        <ele>1730.515</ele>
        <time>2018-08-12T10:17:35Z</time>
      </trkpt>
      <trkpt lat="46.23828" lon="10.30976">
        <ele>1730.368</ele>
        <time>2018-08-12T10:17:55Z</time>
      </trkpt>
      <trkpt lat="46.23824" lon="10.30991">
        <ele>1724.516</ele>
        <time>2018-08-12T10:18:15Z</time>
      </trkpt>
      <trkpt lat="46.23826" lon="10.31">
        <ele>1720.476</ele>
        <time>2018-08-12T10:18:35Z</time>
      </trkpt>
      <trkpt lat="46.23832" lon="10.3101">
        <ele>1718.313</ele>
        <time>2018-08-12T10:18:55Z</time>
      </trkpt>
      <trkpt lat="46.23837" lon="10.31026">
        <ele>1715.208</ele>
        <time>2018-08-12T10:19:15Z</time>
      </trkpt>
      <trkpt lat="46.23842" lon="10.31035">
        <ele>1713.653</ele>
        <time>2018-08-12T10:19:35Z</time>
      </trkpt>
      <trkpt lat="46.23841" lon="10.31045">
        <ele>1711.768</ele>
        <time>2018-08-12T10:19:55Z</time>
      </trkpt>
      <trkpt lat="46.23841" lon="10.31054">
        <ele>1710.044</ele>
        <time>2018-08-12T10:20:15Z</time>
      </trkpt>
      <trkpt lat="46.23846" lon="10.31062">
        <ele>1708.368</ele>
        <time>2018-08-12T10:20:35Z</time>
      </trkpt>
      <trkpt lat="46.23851" lon="10.31058">
        <ele>1708.813</ele>
        <time>2018-08-12T10:20:55Z</time>
      </trkpt>
      <trkpt lat="46.2386" lon="10.31063">
        <ele>1707.334</ele>
        <time>2018-08-12T10:21:15Z</time>
      </trkpt>
      <trkpt lat="46.23874" lon="10.31064">
        <ele>1705.171</ele>
        <time>2018-08-12T10:21:35Z</time>
      </trkpt>
      <trkpt lat="46.23887" lon="10.31063">
        <ele>1703.124</ele>
        <time>2018-08-12T10:21:55Z</time>
      </trkpt>
      <trkpt lat="46.23907" lon="10.31057">
        <ele>1700.667</ele>
        <time>2018-08-12T10:22:15Z</time>
      </trkpt>
      <trkpt lat="46.23923" lon="10.31046">
        <ele>1699.681</ele>
        <time>2018-08-12T10:22:35Z</time>
      </trkpt>
      <trkpt lat="46.23943" lon="10.31038">
        <ele>1696.119</ele>
        <time>2018-08-12T10:22:55Z</time>
      </trkpt>
      <trkpt lat="46.23961" lon="10.31026">
        <ele>1696.308</ele>
        <time>2018-08-12T10:23:15Z</time>
      </trkpt>
      <trkpt lat="46.23971" lon="10.31043">
        <ele>1685.928</ele>
        <time>2018-08-12T10:23:35Z</time>
      </trkpt>
      <trkpt lat="46.23978" lon="10.31047">
        <ele>1686.143</ele>
        <time>2018-08-12T10:23:55Z</time>
      </trkpt>
      <trkpt lat="46.23989" lon="10.31052">
        <ele>1688.379</ele>
        <time>2018-08-12T10:24:15Z</time>
      </trkpt>
      <trkpt lat="46.24005" lon="10.31059">
        <ele>1692.573</ele>
        <time>2018-08-12T10:24:35Z</time>
      </trkpt>
      <trkpt lat="46.24024" lon="10.31065">
        <ele>1697.618</ele>
        <time>2018-08-12T10:24:55Z</time>
      </trkpt>
      <trkpt lat="46.24037" lon="10.3107">
        <ele>1699.289</ele>
        <time>2018-08-12T10:25:15Z</time>
      </trkpt>
      <trkpt lat="46.24047" lon="10.31077">
        <ele>1698.996</ele>
        <time>2018-08-12T10:25:35Z</time>
      </trkpt>
      <trkpt lat="46.24059" lon="10.31077">
        <ele>1700.429</ele>
        <time>2018-08-12T10:25:55Z</time>
      </trkpt>
      <trkpt lat="46.24084" lon="10.31068">
        <ele>1704.654</ele>
        <time>2018-08-12T10:26:15Z</time>
      </trkpt>
      <trkpt lat="46.24099" lon="10.31069">
        <ele>1706.456</ele>
        <time>2018-08-12T10:26:35Z</time>
      </trkpt>
      <trkpt lat="46.24113" lon="10.3108">
        <ele>1705.311</ele>
        <time>2018-08-12T10:26:55Z</time>
      </trkpt>
      <trkpt lat="46.24136" lon="10.31084">
        <ele>1709.208</ele>
        <time>2018-08-12T10:27:15Z</time>
      </trkpt>
      <trkpt lat="46.24154" lon="10.31076">
        <ele>1711.237</ele>
        <time>2018-08-12T10:27:35Z</time>
      </trkpt>
      <trkpt lat="46.24181" lon="10.31061">
        <ele>1713.432</ele>
        <time>2018-08-12T10:27:55Z</time>
      </trkpt>
      <trkpt lat="46.24194" lon="10.31071">
        <ele>1712.848</ele>
        <time>2018-08-12T10:28:15Z</time>
      </trkpt>
      <trkpt lat="46.24198" lon="10.31095">
        <ele>1711.782</ele>
        <time>2018-08-12T10:28:35Z</time>
      </trkpt>
      <trkpt lat="46.242" lon="10.31122">
        <ele>1709.157</ele>
        <time>2018-08-12T10:28:55Z</time>
      </trkpt>
      <trkpt lat="46.24204" lon="10.31157">
        <ele>1708.028</ele>
        <time>2018-08-12T10:29:15Z</time>
      </trkpt>
      <trkpt lat="46.2421" lon="10.31181">
        <ele>1709.915</ele>
        <time>2018-08-12T10:29:35Z</time>
      </trkpt>
      <trkpt lat="46.24217" lon="10.312">
        <ele>1711.558</ele>
        <time>2018-08-12T10:29:55Z</time>
      </trkpt>
      <trkpt lat="46.24229" lon="10.3121">
        <ele>1713.811</ele>
        <time>2018-08-12T10:30:15Z</time>
      </trkpt>
      <trkpt lat="46.24241" lon="10.31223">
        <ele>1716.621</ele>
        <time>2018-08-12T10:30:35Z</time>
      </trkpt>
      <trkpt lat="46.2426" lon="10.31238">
        <ele>1715.703</ele>
        <time>2018-08-12T10:30:55Z</time>
      </trkpt>
      <trkpt lat="46.24271" lon="10.31245">
        <ele>1715.008</ele>
        <time>2018-08-12T10:31:15Z</time>
      </trkpt>
      <trkpt lat="46.24284" lon="10.31253">
        <ele>1715.983</ele>
        <time>2018-08-12T10:31:35Z</time>
      </trkpt>
      <trkpt lat="46.24292" lon="10.31278">
        <ele>1712.168</ele>
        <time>2018-08-12T10:31:55Z</time>
      </trkpt>
      <trkpt lat="46.24303" lon="10.31293">
        <ele>1712.084</ele>
        <time>2018-08-12T10:32:15Z</time>
      </trkpt>
      <trkpt lat="46.24322" lon="10.31315">
        <ele>1712.788</ele>
        <time>2018-08-12T10:32:35Z</time>
      </trkpt>
      <trkpt lat="46.24341" lon="10.31346">
        <ele>1710.063</ele>
        <time>2018-08-12T10:32:55Z</time>
      </trkpt>
      <trkpt lat="46.24369" lon="10.31377">
        <ele>1708.134</ele>
        <time>2018-08-12T10:33:15Z</time>
      </trkpt>
      <trkpt lat="46.24392" lon="10.31399">
        <ele>1707.451</ele>
        <time>2018-08-12T10:33:35Z</time>
      </trkpt>
      <trkpt lat="46.24404" lon="10.31418">
        <ele>1705.314</ele>
        <time>2018-08-12T10:33:55Z</time>
      </trkpt>
      <trkpt lat="46.24413" lon="10.31426">
        <ele>1704.951</ele>
        <time>2018-08-12T10:34:15Z</time>
      </trkpt>
      <trkpt lat="46.2443" lon="10.31429">
        <ele>1705.201</ele>
        <time>2018-08-12T10:34:35Z</time>
      </trkpt>
      <trkpt lat="46.24454" lon="10.31438">
        <ele>1704.411</ele>
        <time>2018-08-12T10:34:55Z</time>
      </trkpt>
      <trkpt lat="46.24469" lon="10.31437">
        <ele>1706.008</ele>
        <time>2018-08-12T10:35:15Z</time>
      </trkpt>
      <trkpt lat="46.24504" lon="10.31436">
        <ele>1704.787</ele>
        <time>2018-08-12T10:35:35Z</time>
      </trkpt>
      <trkpt lat="46.24524" lon="10.31448">
        <ele>1699.552</ele>
        <time>2018-08-12T10:35:55Z</time>
      </trkpt>
      <trkpt lat="46.24549" lon="10.3146">
        <ele>1696.398</ele>
        <time>2018-08-12T10:36:15Z</time>
      </trkpt>
      <trkpt lat="46.24584" lon="10.31473">
        <ele>1698.942</ele>
        <time>2018-08-12T10:36:35Z</time>
      </trkpt>
      <trkpt lat="46.24609" lon="10.31496">
        <ele>1698.247</ele>
        <time>2018-08-12T10:36:55Z</time>
      </trkpt>
      <trkpt lat="46.24612" lon="10.31509">
        <ele>1696.988</ele>
        <time>2018-08-12T10:37:15Z</time>
      </trkpt>
      <trkpt lat="46.24614" lon="10.31527">
        <ele>1694.765</ele>
        <time>2018-08-12T10:37:35Z</time>
      </trkpt>
      <trkpt lat="46.24613" lon="10.31543">
        <ele>1692.948</ele>
        <time>2018-08-12T10:37:55Z</time>
      </trkpt>
      <trkpt lat="46.24611" lon="10.31563">
        <ele>1690.352</ele>
        <time>2018-08-12T10:38:15Z</time>
      </trkpt>
      <trkpt lat="46.24611" lon="10.31587">
        <ele>1689.053</ele>
        <time>2018-08-12T10:38:35Z</time>
      </trkpt>
      <trkpt lat="46.24608" lon="10.3161">
        <ele>1689.608</ele>
        <time>2018-08-12T10:38:55Z</time>
      </trkpt>
      <trkpt lat="46.24609" lon="10.31614">
        <ele>1690.008</ele>
        <time>2018-08-12T10:39:15Z</time>
      </trkpt>
      <trkpt lat="46.24624" lon="10.31642">
        <ele>1694.257</ele>
        <time>2018-08-12T10:39:35Z</time>
      </trkpt>
      <trkpt lat="46.24633" lon="10.31652">
        <ele>1695.982</ele>
        <time>2018-08-12T10:39:55Z</time>
      </trkpt>
      <trkpt lat="46.24649" lon="10.31669">
        <ele>1698.768</ele>
        <time>2018-08-12T10:40:15Z</time>
      </trkpt>
      <trkpt lat="46.24639" lon="10.31682">
        <ele>1695.812</ele>
        <time>2018-08-12T10:40:35Z</time>
      </trkpt>
      <trkpt lat="46.24631" lon="10.31702">
        <ele>1693.497</ele>
        <time>2018-08-12T10:40:55Z</time>
      </trkpt>
      <trkpt lat="46.24629" lon="10.31716">
        <ele>1692.668</ele>
        <time>2018-08-12T10:41:15Z</time>
      </trkpt>
      <trkpt lat="46.24625" lon="10.3173">
        <ele>1692.085</ele>
        <time>2018-08-12T10:41:35Z</time>
      </trkpt>
      <trkpt lat="46.24616" lon="10.31755">
        <ele>1690.368</ele>
        <time>2018-08-12T10:41:55Z</time>
      </trkpt>
      <trkpt lat="46.24601" lon="10.31769">
        <ele>1687.142</ele>
        <time>2018-08-12T10:42:15Z</time>
      </trkpt>
      <trkpt lat="46.24599" lon="10.31771">
        <ele>1686.622</ele>
        <time>2018-08-12T10:42:35Z</time>
      </trkpt>
      <trkpt lat="46.24583" lon="10.31785">
        <ele>1683.614</ele>
        <time>2018-08-12T10:42:55Z</time>
      </trkpt>
      <trkpt lat="46.24567" lon="10.318">
        <ele>1682.008</ele>
        <time>2018-08-12T10:43:15Z</time>
      </trkpt>
      <trkpt lat="46.24559" lon="10.31808">
        <ele>1681.296</ele>
        <time>2018-08-12T10:43:35Z</time>
      </trkpt>
      <trkpt lat="46.2455" lon="10.31808">
        <ele>1679.421</ele>
        <time>2018-08-12T10:43:55Z</time>
      </trkpt>
      <trkpt lat="46.24538" lon="10.31795">
        <ele>1677.397</ele>
        <time>2018-08-12T10:44:15Z</time>
      </trkpt>
      <trkpt lat="46.24528" lon="10.31774">
        <ele>1677.341</ele>
        <time>2018-08-12T10:44:35Z</time>
      </trkpt>
      <trkpt lat="46.2452" lon="10.31757">
        <ele>1676.226</ele>
        <time>2018-08-12T10:44:55Z</time>
      </trkpt>
      <trkpt lat="46.24514" lon="10.31745">
        <ele>1675.077</ele>
        <time>2018-08-12T10:45:15Z</time>
      </trkpt>
      <trkpt lat="46.24506" lon="10.31748">
        <ele>1672.754</ele>
        <time>2018-08-12T10:45:35Z</time>
      </trkpt>
      <trkpt lat="46.24502" lon="10.31759">
        <ele>1670.857</ele>
        <time>2018-08-12T10:45:55Z</time>
      </trkpt>
      <trkpt lat="46.24496" lon="10.31768">
        <ele>1668.951</ele>
        <time>2018-08-12T10:46:15Z</time>
      </trkpt>
      <trkpt lat="46.24495" lon="10.31772">
        <ele>1668.401</ele>
        <time>2018-08-12T10:46:35Z</time>
      </trkpt>
      <trkpt lat="46.2448" lon="10.31756">
        <ele>1667.011</ele>
        <time>2018-08-12T10:46:55Z</time>
      </trkpt>
      <trkpt lat="46.2447" lon="10.31742">
        <ele>1666.108</ele>
        <time>2018-08-12T10:47:15Z</time>
      </trkpt>
      <trkpt lat="46.24458" lon="10.31735">
        <ele>1663.727</ele>
        <time>2018-08-12T10:47:35Z</time>
      </trkpt>
      <trkpt lat="46.24446" lon="10.31747">
        <ele>1660.392</ele>
        <time>2018-08-12T10:47:55Z</time>
      </trkpt>
      <trkpt lat="46.2444" lon="10.31767">
        <ele>1656.738</ele>
        <time>2018-08-12T10:48:15Z</time>
      </trkpt>
      <trkpt lat="46.24433" lon="10.31784">
        <ele>1653.132</ele>
        <time>2018-08-12T10:48:35Z</time>
      </trkpt>
      <trkpt lat="46.24428" lon="10.31797">
        <ele>1650.137</ele>
        <time>2018-08-12T10:48:55Z</time>
      </trkpt>
      <trkpt lat="46.24422" lon="10.31801">
        <ele>1648.198</ele>
        <time>2018-08-12T10:49:15Z</time>
      </trkpt>
      <trkpt lat="46.24414" lon="10.31796">
        <ele>1646.725</ele>
        <time>2018-08-12T10:49:35Z</time>
      </trkpt>
      <trkpt lat="46.244" lon="10.31779">
        <ele>1645.928</ele>
        <time>2018-08-12T10:49:55Z</time>
      </trkpt>
      <trkpt lat="46.24385" lon="10.31765">
        <ele>1644.883</ele>
        <time>2018-08-12T10:50:15Z</time>
      </trkpt>
      <trkpt lat="46.24373" lon="10.31756">
        <ele>1644.025</ele>
        <time>2018-08-12T10:50:35Z</time>
      </trkpt>
      <trkpt lat="46.24365" lon="10.31758">
        <ele>1642.717</ele>
        <time>2018-08-12T10:50:55Z</time>
      </trkpt>
      <trkpt lat="46.24361" lon="10.31776">
        <ele>1640.108</ele>
        <time>2018-08-12T10:51:15Z</time>
      </trkpt>
      <trkpt lat="46.24359" lon="10.31802">
        <ele>1637.77</ele>
        <time>2018-08-12T10:51:35Z</time>
      </trkpt>
      <trkpt lat="46.24355" lon="10.31834">
        <ele>1634.485</ele>
        <time>2018-08-12T10:51:55Z</time>
      </trkpt>
      <trkpt lat="46.24354" lon="10.31853">
        <ele>1632.311</ele>
        <time>2018-08-12T10:52:15Z</time>
      </trkpt>
      <trkpt lat="46.24354" lon="10.31854">
        <ele>1632.175</ele>
        <time>2018-08-12T10:52:35Z</time>
      </trkpt>
      <trkpt lat="46.24353" lon="10.31867">
        <ele>1631.88</ele>
        <time>2018-08-12T10:52:55Z</time>
      </trkpt>
      <trkpt lat="46.24353" lon="10.31867">
        <ele>1631.861</ele>
        <time>2018-08-12T10:53:15Z</time>
      </trkpt>
      <trkpt lat="46.24352" lon="10.3187">
        <ele>1631.878</ele>
        <time>2018-08-12T10:53:35Z</time>
      </trkpt>
      <trkpt lat="46.24349" lon="10.31876">
        <ele>1631.951</ele>
        <time>2018-08-12T10:53:55Z</time>
      </trkpt>
      <trkpt lat="46.24345" lon="10.31892">
        <ele>1632.993</ele>
        <time>2018-08-12T10:54:15Z</time>
      </trkpt>
      <trkpt lat="46.24345" lon="10.31894">
        <ele>1633.065</ele>
        <time>2018-08-12T10:54:35Z</time>
      </trkpt>
      <trkpt lat="46.24334" lon="10.31898">
        <ele>1632.021</ele>
        <time>2018-08-12T10:54:55Z</time>
      </trkpt>
      <trkpt lat="46.24323" lon="10.31902">
        <ele>1631.608</ele>
        <time>2018-08-12T10:55:15Z</time>
      </trkpt>
      <trkpt lat="46.24317" lon="10.31903">
        <ele>1631.411</ele>
        <time>2018-08-12T10:55:35Z</time>
      </trkpt>
      <trkpt lat="46.24342" lon="10.31909">
        <ele>1634.266</ele>
        <time>2018-08-12T10:55:55Z</time>
      </trkpt>
      <trkpt lat="46.24356" lon="10.31916">
        <ele>1636.432</ele>
        <time>2018-08-12T10:56:15Z</time>
      </trkpt>
      <trkpt lat="46.24366" lon="10.31923">
        <ele>1637.846</ele>
        <time>2018-08-12T10:56:35Z</time>
      </trkpt>
      <trkpt lat="46.24374" lon="10.31929">
        <ele>1638.841</ele>
        <time>2018-08-12T10:56:55Z</time>
      </trkpt>
      <trkpt lat="46.24381" lon="10.3193">
        <ele>1639.452</ele>
        <time>2018-08-12T10:57:15Z</time>
      </trkpt>
      <trkpt lat="46.24389" lon="10.31933">
        <ele>1640.019</ele>
        <time>2018-08-12T10:57:35Z</time>
      </trkpt>
      <trkpt lat="46.24395" lon="10.3194">
        <ele>1640.032</ele>
        <time>2018-08-12T10:57:55Z</time>
      </trkpt>
      <trkpt lat="46.24406" lon="10.31954">
        <ele>1641.388</ele>
        <time>2018-08-12T10:58:15Z</time>
      </trkpt>
      <trkpt lat="46.24418" lon="10.31962">
        <ele>1642.424</ele>
        <time>2018-08-12T10:58:35Z</time>
      </trkpt>
      <trkpt lat="46.2442" lon="10.31961">
        <ele>1642.526</ele>
        <time>2018-08-12T10:58:55Z</time>
      </trkpt>
      <trkpt lat="46.24439" lon="10.31967">
        <ele>1644.008</ele>
        <time>2018-08-12T10:59:15Z</time>
      </trkpt>
      <trkpt lat="46.24457" lon="10.31977">
        <ele>1647.59</ele>
        <time>2018-08-12T10:59:35Z</time>
      </trkpt>
      <trkpt lat="46.2447" lon="10.31978">
        <ele>1649.725</ele>
        <time>2018-08-12T10:59:55Z</time>
      </trkpt>
      <trkpt lat="46.24478" lon="10.3198">
        <ele>1651.351</ele>
        <time>2018-08-12T11:00:15Z</time>
      </trkpt>
      <trkpt lat="46.24484" lon="10.31982">
        <ele>1653.085</ele>
        <time>2018-08-12T11:00:35Z</time>
      </trkpt>
      <trkpt lat="46.24494" lon="10.31984">
        <ele>1655.12</ele>
        <time>2018-08-12T11:00:55Z</time>
      </trkpt>
      <trkpt lat="46.24498" lon="10.31987">
        <ele>1656.271</ele>
        <time>2018-08-12T11:01:15Z</time>
      </trkpt>
      <trkpt lat="46.24502" lon="10.3199">
        <ele>1657.158</ele>
        <time>2018-08-12T11:01:35Z</time>
      </trkpt>
      <trkpt lat="46.24513" lon="10.31991">
        <ele>1658.811</ele>
        <time>2018-08-12T11:01:55Z</time>
      </trkpt>
      <trkpt lat="46.24525" lon="10.31995">
        <ele>1660.451</ele>
        <time>2018-08-12T11:02:15Z</time>
      </trkpt>
      <trkpt lat="46.24534" lon="10.32001">
        <ele>1662.601</ele>
        <time>2018-08-12T11:02:35Z</time>
      </trkpt>
      <trkpt lat="46.24542" lon="10.32009">
        <ele>1665.211</ele>
        <time>2018-08-12T11:02:55Z</time>
      </trkpt>
      <trkpt lat="46.24549" lon="10.32014">
        <ele>1667.208</ele>
        <time>2018-08-12T11:03:15Z</time>
      </trkpt>
      <trkpt lat="46.24549" lon="10.32014">
        <ele>1667.357</ele>
        <time>2018-08-12T11:03:35Z</time>
      </trkpt>
      <trkpt lat="46.24551" lon="10.32017">
        <ele>1668.022</ele>
        <time>2018-08-12T11:03:55Z</time>
      </trkpt>
      <trkpt lat="46.24559" lon="10.32027">
        <ele>1670.428</ele>
        <time>2018-08-12T11:04:15Z</time>
      </trkpt>
      <trkpt lat="46.24561" lon="10.32039">
        <ele>1672.792</ele>
        <time>2018-08-12T11:04:35Z</time>
      </trkpt>
      <trkpt lat="46.24565" lon="10.32047">
        <ele>1674.837</ele>
        <time>2018-08-12T11:04:55Z</time>
      </trkpt>
      <trkpt lat="46.24566" lon="10.32048">
        <ele>1675.148</ele>
        <time>2018-08-12T11:05:15Z</time>
      </trkpt>
      <trkpt lat="46.2457" lon="10.32054">
        <ele>1676.865</ele>
        <time>2018-08-12T11:05:35Z</time>
      </trkpt>
      <trkpt lat="46.24575" lon="10.32062">
        <ele>1678.658</ele>
        <time>2018-08-12T11:05:55Z</time>
      </trkpt>
      <trkpt lat="46.24579" lon="10.32064">
        <ele>1679.649</ele>
        <time>2018-08-12T11:06:15Z</time>
      </trkpt>
      <trkpt lat="46.24588" lon="10.32078">
        <ele>1682.902</ele>
        <time>2018-08-12T11:06:35Z</time>
      </trkpt>
      <trkpt lat="46.24594" lon="10.32091">
        <ele>1685.322</ele>
        <time>2018-08-12T11:06:55Z</time>
      </trkpt>
      <trkpt lat="46.246" lon="10.32103">
        <ele>1688.008</ele>
        <time>2018-08-12T11:07:15Z</time>
      </trkpt>
      <trkpt lat="46.24602" lon="10.32109">
        <ele>1689.426</ele>
        <time>2018-08-12T11:07:35Z</time>
      </trkpt>
      <trkpt lat="46.24606" lon="10.32115">
        <ele>1690.841</ele>
        <time>2018-08-12T11:07:55Z</time>
      </trkpt>
      <trkpt lat="46.24613" lon="10.32121">
        <ele>1692.357</ele>
        <time>2018-08-12T11:08:15Z</time>
      </trkpt>
      <trkpt lat="46.2463" lon="10.32135">
        <ele>1696.761</ele>
        <time>2018-08-12T11:08:35Z</time>
      </trkpt>
      <trkpt lat="46.24642" lon="10.32149">
        <ele>1699.836</ele>
        <time>2018-08-12T11:08:55Z</time>
      </trkpt>
      <trkpt lat="46.24655" lon="10.3217">
        <ele>1703.517</ele>
        <time>2018-08-12T11:09:15Z</time>
      </trkpt>
      <trkpt lat="46.24661" lon="10.3218">
        <ele>1704.984</ele>
        <time>2018-08-12T11:09:35Z</time>
      </trkpt>
      <trkpt lat="46.24668" lon="10.32199">
        <ele>1707.827</ele>
        <time>2018-08-12T11:09:55Z</time>
      </trkpt>
      <trkpt lat="46.24673" lon="10.32208">
        <ele>1709.691</ele>
        <time>2018-08-12T11:10:15Z</time>
      </trkpt>
      <trkpt lat="46.24679" lon="10.32219">
        <ele>1711.581</ele>
        <time>2018-08-12T11:10:35Z</time>
      </trkpt>
      <trkpt lat="46.24681" lon="10.32226">
        <ele>1712.519</ele>
        <time>2018-08-12T11:10:55Z</time>
      </trkpt>
      <trkpt lat="46.24685" lon="10.32239">
        <ele>1714.408</ele>
        <time>2018-08-12T11:11:15Z</time>
      </trkpt>
      <trkpt lat="46.24688" lon="10.3225">
        <ele>1716.021</ele>
        <time>2018-08-12T11:11:35Z</time>
      </trkpt>
      <trkpt lat="46.24689" lon="10.32258">
        <ele>1717.236</ele>
        <time>2018-08-12T11:11:55Z</time>
      </trkpt>
      <trkpt lat="46.24687" lon="10.32271">
        <ele>1719.372</ele>
        <time>2018-08-12T11:12:15Z</time>
      </trkpt>
      <trkpt lat="46.24682" lon="10.32286">
        <ele>1722.756</ele>
        <time>2018-08-12T11:12:35Z</time>
      </trkpt>
      <trkpt lat="46.24677" lon="10.32298">
        <ele>1725.911</ele>
        <time>2018-08-12T11:12:55Z</time>
      </trkpt>
      <trkpt lat="46.24674" lon="10.32303">
        <ele>1727.272</ele>
        <time>2018-08-12T11:13:15Z</time>
      </trkpt>
      <trkpt lat="46.24673" lon="10.3231">
        <ele>1729.059</ele>
        <time>2018-08-12T11:13:35Z</time>
      </trkpt>
      <trkpt lat="46.24673" lon="10.32312">
        <ele>1729.372</ele>
        <time>2018-08-12T11:13:55Z</time>
      </trkpt>
      <trkpt lat="46.24671" lon="10.32324">
        <ele>1732.014</ele>
        <time>2018-08-12T11:14:15Z</time>
      </trkpt>
      <trkpt lat="46.24668" lon="10.3233">
        <ele>1733.254</ele>
        <time>2018-08-12T11:14:35Z</time>
      </trkpt>
      <trkpt lat="46.24667" lon="10.32334">
        <ele>1734.209</ele>
        <time>2018-08-12T11:14:55Z</time>
      </trkpt>
      <trkpt lat="46.24667" lon="10.32337">
        <ele>1734.908</ele>
        <time>2018-08-12T11:15:15Z</time>
      </trkpt>
      <trkpt lat="46.24671" lon="10.32347">
        <ele>1737.413</ele>
        <time>2018-08-12T11:15:35Z</time>
      </trkpt>
      <trkpt lat="46.24671" lon="10.32352">
        <ele>1738.648</ele>
        <time>2018-08-12T11:15:55Z</time>
      </trkpt>
      <trkpt lat="46.24662" lon="10.32362">
        <ele>1741.214</ele>
        <time>2018-08-12T11:16:15Z</time>
      </trkpt>
      <trkpt lat="46.2466" lon="10.32366">
        <ele>1742.558</ele>
        <time>2018-08-12T11:16:35Z</time>
      </trkpt>
      <trkpt lat="46.24658" lon="10.32373">
        <ele>1744.673</ele>
        <time>2018-08-12T11:16:55Z</time>
      </trkpt>
      <trkpt lat="46.24654" lon="10.32381">
        <ele>1747.164</ele>
        <time>2018-08-12T11:17:15Z</time>
      </trkpt>
      <trkpt lat="46.24642" lon="10.32387">
        <ele>1749.441</ele>
        <time>2018-08-12T11:17:35Z</time>
      </trkpt>
      <trkpt lat="46.24637" lon="10.32394">
        <ele>1751.224</ele>
        <time>2018-08-12T11:17:55Z</time>
      </trkpt>
      <trkpt lat="46.24634" lon="10.32402">
        <ele>1753.337</ele>
        <time>2018-08-12T11:18:15Z</time>
      </trkpt>
      <trkpt lat="46.24634" lon="10.32412">
        <ele>1756.349</ele>
        <time>2018-08-12T11:18:35Z</time>
      </trkpt>
      <trkpt lat="46.24635" lon="10.32416">
        <ele>1757.413</ele>
        <time>2018-08-12T11:18:55Z</time>
      </trkpt>
      <trkpt lat="46.24647" lon="10.32433">
        <ele>1761.008</ele>
        <time>2018-08-12T11:19:15Z</time>
      </trkpt>
      <trkpt lat="46.24654" lon="10.3244">
        <ele>1762.395</ele>
        <time>2018-08-12T11:19:35Z</time>
      </trkpt>
      <trkpt lat="46.24663" lon="10.32445">
        <ele>1763.36</ele>
        <time>2018-08-12T11:19:55Z</time>
      </trkpt>
      <trkpt lat="46.24671" lon="10.32451">
        <ele>1764.246</ele>
        <time>2018-08-12T11:20:15Z</time>
      </trkpt>
      <trkpt lat="46.24683" lon="10.32477">
        <ele>1768.86</ele>
        <time>2018-08-12T11:20:35Z</time>
      </trkpt>
      <trkpt lat="46.24684" lon="10.32478">
        <ele>1769.115</ele>
        <time>2018-08-12T11:20:55Z</time>
      </trkpt>
      <trkpt lat="46.24679" lon="10.32488">
        <ele>1770.836</ele>
        <time>2018-08-12T11:21:15Z</time>
      </trkpt>
      <trkpt lat="46.24678" lon="10.3249">
        <ele>1771.213</ele>
        <time>2018-08-12T11:21:35Z</time>
      </trkpt>
      <trkpt lat="46.24677" lon="10.32494">
        <ele>1771.836</ele>
        <time>2018-08-12T11:21:55Z</time>
      </trkpt>
      <trkpt lat="46.24676" lon="10.32496">
        <ele>1772.256</ele>
        <time>2018-08-12T11:22:15Z</time>
      </trkpt>
      <trkpt lat="46.24672" lon="10.325">
        <ele>1772.959</ele>
        <time>2018-08-12T11:22:35Z</time>
      </trkpt>
      <trkpt lat="46.24579" lon="10.32513">
        <ele>1785.514</ele>
        <time>2018-08-12T11:22:55Z</time>
      </trkpt>
      <trkpt lat="46.24568" lon="10.32514">
        <ele>1787.508</ele>
        <time>2018-08-12T11:23:15Z</time>
      </trkpt>
      <trkpt lat="46.24549" lon="10.32517">
        <ele>1790.547</ele>
        <time>2018-08-12T11:23:35Z</time>
      </trkpt>
      <trkpt lat="46.24508" lon="10.32516">
        <ele>1795.212</ele>
        <time>2018-08-12T11:23:55Z</time>
      </trkpt>
      <trkpt lat="46.24508" lon="10.32511">
        <ele>1793.768</ele>
        <time>2018-08-12T11:24:15Z</time>
      </trkpt>
      <trkpt lat="46.24504" lon="10.3251">
        <ele>1794.622</ele>
        <time>2018-08-12T11:24:35Z</time>
      </trkpt>
      <trkpt lat="46.24485" lon="10.32504">
        <ele>1796.747</ele>
        <time>2018-08-12T11:24:55Z</time>
      </trkpt>
      <trkpt lat="46.24461" lon="10.32496">
        <ele>1798.718</ele>
        <time>2018-08-12T11:25:15Z</time>
      </trkpt>
      <trkpt lat="46.24458" lon="10.32495">
        <ele>1798.865</ele>
        <time>2018-08-12T11:25:35Z</time>
      </trkpt>
      <trkpt lat="46.24447" lon="10.32495">
        <ele>1800.888</ele>
        <time>2018-08-12T11:25:55Z</time>
      </trkpt>
      <trkpt lat="46.24432" lon="10.32495">
        <ele>1802.237</ele>
        <time>2018-08-12T11:26:15Z</time>
      </trkpt>
      <trkpt lat="46.24404" lon="10.32506">
        <ele>1807.549</ele>
        <time>2018-08-12T11:26:35Z</time>
      </trkpt>
      <trkpt lat="46.24372" lon="10.32536">
        <ele>1814.013</ele>
        <time>2018-08-12T11:26:55Z</time>
      </trkpt>
      <trkpt lat="46.2437" lon="10.3254">
        <ele>1814.608</ele>
        <time>2018-08-12T11:27:15Z</time>
      </trkpt>
      <trkpt lat="46.24362" lon="10.3255">
        <ele>1815.895</ele>
        <time>2018-08-12T11:27:35Z</time>
      </trkpt>
      <trkpt lat="46.2436" lon="10.32551">
        <ele>1816.08</ele>
        <time>2018-08-12T11:27:55Z</time>
      </trkpt>
      <trkpt lat="46.24357" lon="10.32553">
        <ele>1816.136</ele>
        <time>2018-08-12T11:28:15Z</time>
      </trkpt>
      <trkpt lat="46.24352" lon="10.32554">
        <ele>1816.39</ele>
        <time>2018-08-12T11:28:35Z</time>
      </trkpt>
      <trkpt lat="46.24334" lon="10.32554">
        <ele>1815.775</ele>
        <time>2018-08-12T11:28:55Z</time>
      </trkpt>
      <trkpt lat="46.24306" lon="10.32563">
        <ele>1818.466</ele>
        <time>2018-08-12T11:29:15Z</time>
      </trkpt>
      <trkpt lat="46.24304" lon="10.32563">
        <ele>1818.713</ele>
        <time>2018-08-12T11:29:35Z</time>
      </trkpt>
      <trkpt lat="46.2429" lon="10.32568">
        <ele>1820.626</ele>
        <time>2018-08-12T11:29:55Z</time>
      </trkpt>
      <trkpt lat="46.24278" lon="10.32573">
        <ele>1822.248</ele>
        <time>2018-08-12T11:30:15Z</time>
      </trkpt>
      <trkpt lat="46.2426" lon="10.32571">
        <ele>1821.561</ele>
        <time>2018-08-12T11:30:35Z</time>
      </trkpt>
      <trkpt lat="46.24224" lon="10.32574">
        <ele>1819.817</ele>
        <time>2018-08-12T11:30:55Z</time>
      </trkpt>
      <trkpt lat="46.24168" lon="10.3258">
        <ele>1823.108</ele>
        <time>2018-08-12T11:31:15Z</time>
      </trkpt>
      <trkpt lat="46.24142" lon="10.32576">
        <ele>1824.776</ele>
        <time>2018-08-12T11:31:35Z</time>
      </trkpt>
      <trkpt lat="46.24113" lon="10.32571">
        <ele>1826.241</ele>
        <time>2018-08-12T11:31:55Z</time>
      </trkpt>
      <trkpt lat="46.24083" lon="10.32575">
        <ele>1829.177</ele>
        <time>2018-08-12T11:32:15Z</time>
      </trkpt>
      <trkpt lat="46.24061" lon="10.32581">
        <ele>1830.381</ele>
        <time>2018-08-12T11:32:35Z</time>
      </trkpt>
      <trkpt lat="46.2403" lon="10.32587">
        <ele>1833.836</ele>
        <time>2018-08-12T11:32:55Z</time>
      </trkpt>
      <trkpt lat="46.23999" lon="10.32583">
        <ele>1840.077</ele>
        <time>2018-08-12T11:33:15Z</time>
      </trkpt>
      <trkpt lat="46.23986" lon="10.32577">
        <ele>1840.844</ele>
        <time>2018-08-12T11:33:35Z</time>
      </trkpt>
      <trkpt lat="46.23979" lon="10.32569">
        <ele>1840.567</ele>
        <time>2018-08-12T11:33:55Z</time>
      </trkpt>
      <trkpt lat="46.23964" lon="10.3255">
        <ele>1840.197</ele>
        <time>2018-08-12T11:34:15Z</time>
      </trkpt>
      <trkpt lat="46.23943" lon="10.3254">
        <ele>1841.723</ele>
        <time>2018-08-12T11:34:35Z</time>
      </trkpt>
      <trkpt lat="46.23934" lon="10.32537">
        <ele>1841.425</ele>
        <time>2018-08-12T11:34:55Z</time>
      </trkpt>
      <trkpt lat="46.23918" lon="10.32527">
        <ele>1839.708</ele>
        <time>2018-08-12T11:35:15Z</time>
      </trkpt>
      <trkpt lat="46.23915" lon="10.32527">
        <ele>1839.621</ele>
        <time>2018-08-12T11:35:35Z</time>
      </trkpt>
      <trkpt lat="46.23897" lon="10.32536">
        <ele>1842.346</ele>
        <time>2018-08-12T11:35:55Z</time>
      </trkpt>
      <trkpt lat="46.23894" lon="10.32538">
        <ele>1842.862</ele>
        <time>2018-08-12T11:36:15Z</time>
      </trkpt>
      <trkpt lat="46.2389" lon="10.32539">
        <ele>1843.326</ele>
        <time>2018-08-12T11:36:35Z</time>
      </trkpt>
      <trkpt lat="46.23883" lon="10.32541">
        <ele>1843.181</ele>
        <time>2018-08-12T11:36:55Z</time>
      </trkpt>
      <trkpt lat="46.23877" lon="10.32545">
        <ele>1843.592</ele>
        <time>2018-08-12T11:37:15Z</time>
      </trkpt>
      <trkpt lat="46.23874" lon="10.32552">
        <ele>1844.969</ele>
        <time>2018-08-12T11:37:35Z</time>
      </trkpt>
      <trkpt lat="46.23868" lon="10.32564">
        <ele>1847.592</ele>
        <time>2018-08-12T11:37:55Z</time>
      </trkpt>
      <trkpt lat="46.23861" lon="10.32573">
        <ele>1849.312</ele>
        <time>2018-08-12T11:38:15Z</time>
      </trkpt>
      <trkpt lat="46.23854" lon="10.3258">
        <ele>1850.332</ele>
        <time>2018-08-12T11:38:35Z</time>
      </trkpt>
      <trkpt lat="46.2383" lon="10.32611">
        <ele>1855.605</ele>
        <time>2018-08-12T11:38:55Z</time>
      </trkpt>
      <trkpt lat="46.23806" lon="10.32635">
        <ele>1860.708</ele>
        <time>2018-08-12T11:39:15Z</time>
      </trkpt>
      <trkpt lat="46.23806" lon="10.32635">
        <ele>1860.833</ele>
        <time>2018-08-12T11:39:35Z</time>
      </trkpt>
      <trkpt lat="46.2379" lon="10.32645">
        <ele>1862.568</ele>
        <time>2018-08-12T11:39:55Z</time>
      </trkpt>
      <trkpt lat="46.23776" lon="10.32649">
        <ele>1862.634</ele>
        <time>2018-08-12T11:40:15Z</time>
      </trkpt>
      <trkpt lat="46.2374" lon="10.32667">
        <ele>1859.598</ele>
        <time>2018-08-12T11:40:35Z</time>
      </trkpt>
      <trkpt lat="46.23738" lon="10.32668">
        <ele>1859.293</ele>
        <time>2018-08-12T11:40:55Z</time>
      </trkpt>
      <trkpt lat="46.23722" lon="10.32674">
        <ele>1856.694</ele>
        <time>2018-08-12T11:41:15Z</time>
      </trkpt>
      <trkpt lat="46.23719" lon="10.32676">
        <ele>1856.151</ele>
        <time>2018-08-12T11:41:35Z</time>
      </trkpt>
      <trkpt lat="46.23705" lon="10.32684">
        <ele>1855.124</ele>
        <time>2018-08-12T11:41:55Z</time>
      </trkpt>
      <trkpt lat="46.23702" lon="10.32688">
        <ele>1855.754</ele>
        <time>2018-08-12T11:42:15Z</time>
      </trkpt>
      <trkpt lat="46.23698" lon="10.32698">
        <ele>1858.456</ele>
        <time>2018-08-12T11:42:35Z</time>
      </trkpt>
      <trkpt lat="46.23691" lon="10.32712">
        <ele>1860.311</ele>
        <time>2018-08-12T11:42:55Z</time>
      </trkpt>
      <trkpt lat="46.2369" lon="10.32716">
        <ele>1860.708</ele>
        <time>2018-08-12T11:43:15Z</time>
      </trkpt>
      <trkpt lat="46.23688" lon="10.32719">
        <ele>1861.167</ele>
        <time>2018-08-12T11:43:35Z</time>
      </trkpt>
      <trkpt lat="46.23682" lon="10.32728">
        <ele>1861.522</ele>
        <time>2018-08-12T11:43:55Z</time>
      </trkpt>
      <trkpt lat="46.23675" lon="10.32735">
        <ele>1861.598</ele>
        <time>2018-08-12T11:44:15Z</time>
      </trkpt>
      <trkpt lat="46.23663" lon="10.32744">
        <ele>1861.172</ele>
        <time>2018-08-12T11:44:35Z</time>
      </trkpt>
      <trkpt lat="46.23655" lon="10.32752">
        <ele>1861.337</ele>
        <time>2018-08-12T11:44:55Z</time>
      </trkpt>
      <trkpt lat="46.23646" lon="10.32766">
        <ele>1862.448</ele>
        <time>2018-08-12T11:45:15Z</time>
      </trkpt>
      <trkpt lat="46.23642" lon="10.32769">
        <ele>1862.435</ele>
        <time>2018-08-12T11:45:35Z</time>
      </trkpt>
      <trkpt lat="46.2363" lon="10.32772">
        <ele>1863.598</ele>
        <time>2018-08-12T11:45:55Z</time>
      </trkpt>
      <trkpt lat="46.23616" lon="10.3277">
        <ele>1864.332</ele>
        <time>2018-08-12T11:46:15Z</time>
      </trkpt>
      <trkpt lat="46.23608" lon="10.32771">
        <ele>1865.292</ele>
        <time>2018-08-12T11:46:35Z</time>
      </trkpt>
      <trkpt lat="46.23607" lon="10.32771">
        <ele>1865.311</ele>
        <time>2018-08-12T11:46:55Z</time>
      </trkpt>
      <trkpt lat="46.23606" lon="10.32771">
        <ele>1865.408</ele>
        <time>2018-08-12T11:47:15Z</time>
      </trkpt>
      <trkpt lat="46.236" lon="10.32765">
        <ele>1863.315</ele>
        <time>2018-08-12T11:47:35Z</time>
      </trkpt>
      <trkpt lat="46.23599" lon="10.32765">
        <ele>1863.34</ele>
        <time>2018-08-12T11:47:55Z</time>
      </trkpt>
      <trkpt lat="46.23599" lon="10.3276">
        <ele>1861.856</ele>
        <time>2018-08-12T11:48:15Z</time>
      </trkpt>
      <trkpt lat="46.23593" lon="10.32759">
        <ele>1862.19</ele>
        <time>2018-08-12T11:48:35Z</time>
      </trkpt>
      <trkpt lat="46.23578" lon="10.32767">
        <ele>1865.075</ele>
        <time>2018-08-12T11:48:55Z</time>
      </trkpt>
      <trkpt lat="46.23567" lon="10.32775">
        <ele>1866.266</ele>
        <time>2018-08-12T11:49:15Z</time>
      </trkpt>
      <trkpt lat="46.23543" lon="10.32788">
        <ele>1867.263</ele>
        <time>2018-08-12T11:49:35Z</time>
      </trkpt>
      <trkpt lat="46.23536" lon="10.32792">
        <ele>1867.996</ele>
        <time>2018-08-12T11:49:55Z</time>
      </trkpt>
      <trkpt lat="46.23408" lon="10.32868">
        <ele>1887.443</ele>
        <time>2018-08-12T11:50:15Z</time>
      </trkpt>
      <trkpt lat="46.23402" lon="10.32871">
        <ele>1888.164</ele>
        <time>2018-08-12T11:50:35Z</time>
      </trkpt>
      <trkpt lat="46.2338" lon="10.32883">
        <ele>1890.11</ele>
        <time>2018-08-12T11:50:55Z</time>
      </trkpt>
      <trkpt lat="46.23355" lon="10.32897">
        <ele>1892.108</ele>
        <time>2018-08-12T11:51:15Z</time>
      </trkpt>
      <trkpt lat="46.2331" lon="10.32924">
        <ele>1901.716</ele>
        <time>2018-08-12T11:51:35Z</time>
      </trkpt>
      <trkpt lat="46.23284" lon="10.32938">
        <ele>1907.361</ele>
        <time>2018-08-12T11:51:55Z</time>
      </trkpt>
      <trkpt lat="46.23264" lon="10.32947">
        <ele>1909.017</ele>
        <time>2018-08-12T11:52:15Z</time>
      </trkpt>
      <trkpt lat="46.23252" lon="10.32957">
        <ele>1911.421</ele>
        <time>2018-08-12T11:52:35Z</time>
      </trkpt>
      <trkpt lat="46.23243" lon="10.32967">
        <ele>1915.336</ele>
        <time>2018-08-12T11:52:55Z</time>
      </trkpt>
      <trkpt lat="46.23256" lon="10.32975">
        <ele>1916.477</ele>
        <time>2018-08-12T11:53:15Z</time>
      </trkpt>
      <trkpt lat="46.23273" lon="10.32984">
        <ele>1917.964</ele>
        <time>2018-08-12T11:53:35Z</time>
      </trkpt>
      <trkpt lat="46.23291" lon="10.32989">
        <ele>1920.637</ele>
        <time>2018-08-12T11:53:55Z</time>
      </trkpt>
      <trkpt lat="46.23307" lon="10.32998">
        <ele>1925.374</ele>
        <time>2018-08-12T11:54:15Z</time>
      </trkpt>
      <trkpt lat="46.23326" lon="10.33001">
        <ele>1926.256</ele>
        <time>2018-08-12T11:54:35Z</time>
      </trkpt>
      <trkpt lat="46.23339" lon="10.33007">
        <ele>1927.621</ele>
        <time>2018-08-12T11:54:55Z</time>
      </trkpt>
      <trkpt lat="46.23349" lon="10.33013">
        <ele>1929.008</ele>
        <time>2018-08-12T11:55:15Z</time>
      </trkpt>
      <trkpt lat="46.23351" lon="10.33014">
        <ele>1929.119</ele>
        <time>2018-08-12T11:55:35Z</time>
      </trkpt>
      <trkpt lat="46.23388" lon="10.33022">
        <ele>1932.534</ele>
        <time>2018-08-12T11:55:55Z</time>
      </trkpt>
      <trkpt lat="46.23408" lon="10.33028">
        <ele>1938.43</ele>
        <time>2018-08-12T11:56:15Z</time>
      </trkpt>
      <trkpt lat="46.23439" lon="10.33033">
        <ele>1940.694</ele>
        <time>2018-08-12T11:56:35Z</time>
      </trkpt>
      <trkpt lat="46.23447" lon="10.33037">
        <ele>1941.379</ele>
        <time>2018-08-12T11:56:55Z</time>
      </trkpt>
      <trkpt lat="46.23467" lon="10.33038">
        <ele>1937.97</ele>
        <time>2018-08-12T11:57:15Z</time>
      </trkpt>
      <trkpt lat="46.23484" lon="10.33038">
        <ele>1938.177</ele>
        <time>2018-08-12T11:57:35Z</time>
      </trkpt>
      <trkpt lat="46.23514" lon="10.33045">
        <ele>1943.34</ele>
        <time>2018-08-12T11:57:55Z</time>
      </trkpt>
      <trkpt lat="46.23543" lon="10.33048">
        <ele>1945.936</ele>
        <time>2018-08-12T11:58:15Z</time>
      </trkpt>
      <trkpt lat="46.23559" lon="10.3306">
        <ele>1950.117</ele>
        <time>2018-08-12T11:58:35Z</time>
      </trkpt>
      <trkpt lat="46.23559" lon="10.33073">
        <ele>1953.318</ele>
        <time>2018-08-12T11:58:55Z</time>
      </trkpt>
      <trkpt lat="46.23548" lon="10.33088">
        <ele>1956.508</ele>
        <time>2018-08-12T11:59:15Z</time>
      </trkpt>
      <trkpt lat="46.23531" lon="10.33099">
        <ele>1958.235</ele>
        <time>2018-08-12T11:59:35Z</time>
      </trkpt>
      <trkpt lat="46.23524" lon="10.33113">
        <ele>1961.41</ele>
        <time>2018-08-12T11:59:55Z</time>
      </trkpt>
      <trkpt lat="46.2353" lon="10.33161">
        <ele>1970.276</ele>
        <time>2018-08-12T12:00:15Z</time>
      </trkpt>
      <trkpt lat="46.23536" lon="10.33163">
        <ele>1970.96</ele>
        <time>2018-08-12T12:00:35Z</time>
      </trkpt>
      <trkpt lat="46.23543" lon="10.3317">
        <ele>1972.625</ele>
        <time>2018-08-12T12:00:55Z</time>
      </trkpt>
      <trkpt lat="46.23532" lon="10.33193">
        <ele>1976.196</ele>
        <time>2018-08-12T12:01:15Z</time>
      </trkpt>
      <trkpt lat="46.23525" lon="10.33213">
        <ele>1978.793</ele>
        <time>2018-08-12T12:01:35Z</time>
      </trkpt>
      <trkpt lat="46.23527" lon="10.33221">
        <ele>1979.856</ele>
        <time>2018-08-12T12:01:55Z</time>
      </trkpt>
      <trkpt lat="46.23529" lon="10.33229">
        <ele>1980.876</ele>
        <time>2018-08-12T12:02:15Z</time>
      </trkpt>
      <trkpt lat="46.23541" lon="10.33233">
        <ele>1982.29</ele>
        <time>2018-08-12T12:02:35Z</time>
      </trkpt>
      <trkpt lat="46.2355" lon="10.33232">
        <ele>1982.919</ele>
        <time>2018-08-12T12:02:55Z</time>
      </trkpt>
      <trkpt lat="46.23555" lon="10.33226">
        <ele>1982.508</ele>
        <time>2018-08-12T12:03:15Z</time>
      </trkpt>
      <trkpt lat="46.23561" lon="10.33227">
        <ele>1983.639</ele>
        <time>2018-08-12T12:03:35Z</time>
      </trkpt>
      <trkpt lat="46.23562" lon="10.33245">
        <ele>1986.524</ele>
        <time>2018-08-12T12:03:55Z</time>
      </trkpt>
      <trkpt lat="46.23553" lon="10.33259">
        <ele>1986.78</ele>
        <time>2018-08-12T12:04:15Z</time>
      </trkpt>
      <trkpt lat="46.23551" lon="10.33263">
        <ele>1986.954</ele>
        <time>2018-08-12T12:04:35Z</time>
      </trkpt>
      <trkpt lat="46.23541" lon="10.3328">
        <ele>1988.289</ele>
        <time>2018-08-12T12:04:55Z</time>
      </trkpt>
      <trkpt lat="46.23545" lon="10.33302">
        <ele>1991.42</ele>
        <time>2018-08-12T12:05:15Z</time>
      </trkpt>
      <trkpt lat="46.23546" lon="10.33307">
        <ele>1992.147</ele>
        <time>2018-08-12T12:05:35Z</time>
      </trkpt>
      <trkpt lat="46.23553" lon="10.33331">
        <ele>1995.45</ele>
        <time>2018-08-12T12:05:55Z</time>
      </trkpt>
      <trkpt lat="46.2355" lon="10.33345">
        <ele>1997.677</ele>
        <time>2018-08-12T12:06:15Z</time>
      </trkpt>
      <trkpt lat="46.23547" lon="10.33369">
        <ele>2000.861</ele>
        <time>2018-08-12T12:06:35Z</time>
      </trkpt>
      <trkpt lat="46.23546" lon="10.33386">
        <ele>2001.927</ele>
        <time>2018-08-12T12:06:55Z</time>
      </trkpt>
      <trkpt lat="46.23545" lon="10.33399">
        <ele>2004.108</ele>
        <time>2018-08-12T12:07:15Z</time>
      </trkpt>
      <trkpt lat="46.23548" lon="10.33411">
        <ele>2007.179</ele>
        <time>2018-08-12T12:07:35Z</time>
      </trkpt>
      <trkpt lat="46.23553" lon="10.33426">
        <ele>2011.614</ele>
        <time>2018-08-12T12:07:55Z</time>
      </trkpt>
      <trkpt lat="46.23553" lon="10.3348">
        <ele>2022.48</ele>
        <time>2018-08-12T12:08:15Z</time>
      </trkpt>
      <trkpt lat="46.23553" lon="10.33482">
        <ele>2022.664</ele>
        <time>2018-08-12T12:08:35Z</time>
      </trkpt>
      <trkpt lat="46.23557" lon="10.33504">
        <ele>2023.959</ele>
        <time>2018-08-12T12:08:55Z</time>
      </trkpt>
      <trkpt lat="46.23563" lon="10.33519">
        <ele>2020.49</ele>
        <time>2018-08-12T12:09:15Z</time>
      </trkpt>
      <trkpt lat="46.2358" lon="10.33519">
        <ele>2021.937</ele>
        <time>2018-08-12T12:09:35Z</time>
      </trkpt>
      <trkpt lat="46.23593" lon="10.33519">
        <ele>2022.48</ele>
        <time>2018-08-12T12:09:55Z</time>
      </trkpt>
      <trkpt lat="46.23603" lon="10.33541">
        <ele>2020.124</ele>
        <time>2018-08-12T12:10:15Z</time>
      </trkpt>
      <trkpt lat="46.23604" lon="10.33542">
        <ele>2020.004</ele>
        <time>2018-08-12T12:10:35Z</time>
      </trkpt>
      <trkpt lat="46.23634" lon="10.33613">
        <ele>2016.814</ele>
        <time>2018-08-12T12:10:55Z</time>
      </trkpt>
      <trkpt lat="46.23638" lon="10.33628">
        <ele>2016.008</ele>
        <time>2018-08-12T12:11:15Z</time>
      </trkpt>
      <trkpt lat="46.23648" lon="10.3365">
        <ele>2018.954</ele>
        <time>2018-08-12T12:11:35Z</time>
      </trkpt>
      <trkpt lat="46.23657" lon="10.33674">
        <ele>2020.819</ele>
        <time>2018-08-12T12:11:55Z</time>
      </trkpt>
      <trkpt lat="46.23684" lon="10.33682">
        <ele>2028.525</ele>
        <time>2018-08-12T12:12:15Z</time>
      </trkpt>
      <trkpt lat="46.23708" lon="10.33695">
        <ele>2037.499</ele>
        <time>2018-08-12T12:12:35Z</time>
      </trkpt>
      <trkpt lat="46.23731" lon="10.33714">
        <ele>2045.344</ele>
        <time>2018-08-12T12:12:55Z</time>
      </trkpt>
      <trkpt lat="46.23745" lon="10.33727">
        <ele>2047.975</ele>
        <time>2018-08-12T12:13:15Z</time>
      </trkpt>
      <trkpt lat="46.23755" lon="10.33754">
        <ele>2045.092</ele>
        <time>2018-08-12T12:13:35Z</time>
      </trkpt>
      <trkpt lat="46.23764" lon="10.33786">
        <ele>2041.015</ele>
        <time>2018-08-12T12:13:55Z</time>
      </trkpt>
      <trkpt lat="46.23775" lon="10.33814">
        <ele>2039.181</ele>
        <time>2018-08-12T12:14:15Z</time>
      </trkpt>
      <trkpt lat="46.23794" lon="10.33816">
        <ele>2047.761</ele>
        <time>2018-08-12T12:14:35Z</time>
      </trkpt>
      <trkpt lat="46.23809" lon="10.33824">
        <ele>2053.717</ele>
        <time>2018-08-12T12:14:55Z</time>
      </trkpt>
      <trkpt lat="46.23836" lon="10.3383">
        <ele>2068.208</ele>
        <time>2018-08-12T12:15:15Z</time>
      </trkpt>
      <trkpt lat="46.23861" lon="10.33861">
        <ele>2074.84</ele>
        <time>2018-08-12T12:15:35Z</time>
      </trkpt>
      <trkpt lat="46.23873" lon="10.3389">
        <ele>2074.125</ele>
        <time>2018-08-12T12:15:55Z</time>
      </trkpt>
      <trkpt lat="46.23884" lon="10.3393">
        <ele>2068.241</ele>
        <time>2018-08-12T12:16:15Z</time>
      </trkpt>
      <trkpt lat="46.23885" lon="10.33955">
        <ele>2064.795</ele>
        <time>2018-08-12T12:16:35Z</time>
      </trkpt>
      <trkpt lat="46.23889" lon="10.33982">
        <ele>2062.34</ele>
        <time>2018-08-12T12:16:55Z</time>
      </trkpt>
      <trkpt lat="46.23899" lon="10.34013">
        <ele>2061.711</ele>
        <time>2018-08-12T12:17:15Z</time>
      </trkpt>
      <trkpt lat="46.23921" lon="10.3405">
        <ele>2067.578</ele>
        <time>2018-08-12T12:17:35Z</time>
      </trkpt>
      <trkpt lat="46.23936" lon="10.34075">
        <ele>2072.381</ele>
        <time>2018-08-12T12:17:55Z</time>
      </trkpt>
      <trkpt lat="46.23949" lon="10.34101">
        <ele>2076.338</ele>
        <time>2018-08-12T12:18:15Z</time>
      </trkpt>
      <trkpt lat="46.23963" lon="10.34119">
        <ele>2079.07</ele>
        <time>2018-08-12T12:18:35Z</time>
      </trkpt>
      <trkpt lat="46.23966" lon="10.34148">
        <ele>2076.417</ele>
        <time>2018-08-12T12:18:55Z</time>
      </trkpt>
      <trkpt lat="46.23963" lon="10.3419">
        <ele>2069.508</ele>
        <time>2018-08-12T12:19:15Z</time>
      </trkpt>
      <trkpt lat="46.23974" lon="10.34242">
        <ele>2075.865</ele>
        <time>2018-08-12T12:19:35Z</time>
      </trkpt>
      <trkpt lat="46.23991" lon="10.34282">
        <ele>2082.12</ele>
        <time>2018-08-12T12:19:55Z</time>
      </trkpt>
      <trkpt lat="46.24007" lon="10.34308">
        <ele>2089.136</ele>
        <time>2018-08-12T12:20:15Z</time>
      </trkpt>
      <trkpt lat="46.24017" lon="10.34341">
        <ele>2092.92</ele>
        <time>2018-08-12T12:20:35Z</time>
      </trkpt>
      <trkpt lat="46.24021" lon="10.34395">
        <ele>2094.585</ele>
        <time>2018-08-12T12:20:55Z</time>
      </trkpt>
      <trkpt lat="46.24017" lon="10.3442">
        <ele>2094.236</ele>
        <time>2018-08-12T12:21:15Z</time>
      </trkpt>
      <trkpt lat="46.24003" lon="10.34459">
        <ele>2092.373</ele>
        <time>2018-08-12T12:21:35Z</time>
      </trkpt>
      <trkpt lat="46.23988" lon="10.34513">
        <ele>2091.456</ele>
        <time>2018-08-12T12:21:55Z</time>
      </trkpt>
      <trkpt lat="46.23979" lon="10.34554">
        <ele>2092.755</ele>
        <time>2018-08-12T12:22:15Z</time>
      </trkpt>
      <trkpt lat="46.23967" lon="10.34642">
        <ele>2100.807</ele>
        <time>2018-08-12T12:22:35Z</time>
      </trkpt>
      <trkpt lat="46.23955" lon="10.34707">
        <ele>2105.017</ele>
        <time>2018-08-12T12:22:55Z</time>
      </trkpt>
      <trkpt lat="46.2395" lon="10.34761">
        <ele>2110.208</ele>
        <time>2018-08-12T12:23:15Z</time>
      </trkpt>
      <trkpt lat="46.23976" lon="10.34794">
        <ele>2118.817</ele>
        <time>2018-08-12T12:23:35Z</time>
      </trkpt>
      <trkpt lat="46.24021" lon="10.34798">
        <ele>2122.552</ele>
        <time>2018-08-12T12:23:55Z</time>
      </trkpt>
      <trkpt lat="46.24049" lon="10.34792">
        <ele>2123.068</ele>
        <time>2018-08-12T12:24:15Z</time>
      </trkpt>
      <trkpt lat="46.24115" lon="10.34766">
        <ele>2121.932</ele>
        <time>2018-08-12T12:24:35Z</time>
      </trkpt>
      <trkpt lat="46.24154" lon="10.34751">
        <ele>2128.377</ele>
        <time>2018-08-12T12:24:55Z</time>
      </trkpt>
      <trkpt lat="46.24191" lon="10.34734">
        <ele>2135.628</ele>
        <time>2018-08-12T12:25:15Z</time>
      </trkpt>
      <trkpt lat="46.24222" lon="10.34738">
        <ele>2127.645</ele>
        <time>2018-08-12T12:25:35Z</time>
      </trkpt>
      <trkpt lat="46.24273" lon="10.3472">
        <ele>2125.778</ele>
        <time>2018-08-12T12:25:55Z</time>
      </trkpt>
      <trkpt lat="46.24294" lon="10.34699">
        <ele>2131.516</ele>
        <time>2018-08-12T12:26:15Z</time>
      </trkpt>
      <trkpt lat="46.2432" lon="10.3469">
        <ele>2134.376</ele>
        <time>2018-08-12T12:26:35Z</time>
      </trkpt>
      <trkpt lat="46.2436" lon="10.34684">
        <ele>2140.013</ele>
        <time>2018-08-12T12:26:55Z</time>
      </trkpt>
      <trkpt lat="46.24414" lon="10.34709">
        <ele>2133.208</ele>
        <time>2018-08-12T12:27:15Z</time>
      </trkpt>
      <trkpt lat="46.24438" lon="10.34719">
        <ele>2136.173</ele>
        <time>2018-08-12T12:27:35Z</time>
      </trkpt>
      <trkpt lat="46.24477" lon="10.34738">
        <ele>2134.878</ele>
        <time>2018-08-12T12:27:55Z</time>
      </trkpt>
      <trkpt lat="46.24528" lon="10.34764">
        <ele>2134.594</ele>
        <time>2018-08-12T12:28:15Z</time>
      </trkpt>
      <trkpt lat="46.24571" lon="10.34769">
        <ele>2137.298</ele>
        <time>2018-08-12T12:28:35Z</time>
      </trkpt>
      <trkpt lat="46.24606" lon="10.3476">
        <ele>2143.573</ele>
        <time>2018-08-12T12:28:55Z</time>
      </trkpt>
      <trkpt lat="46.24629" lon="10.34759">
        <ele>2149.974</ele>
        <time>2018-08-12T12:29:15Z</time>
      </trkpt>
      <trkpt lat="46.24633" lon="10.34762">
        <ele>2150.231</ele>
        <time>2018-08-12T12:29:35Z</time>
      </trkpt>
      <trkpt lat="46.24663" lon="10.34785">
        <ele>2152.714</ele>
        <time>2018-08-12T12:29:55Z</time>
      </trkpt>
      <trkpt lat="46.2468" lon="10.34798">
        <ele>2152.526</ele>
        <time>2018-08-12T12:30:15Z</time>
      </trkpt>
      <trkpt lat="46.24711" lon="10.34815">
        <ele>2153.347</ele>
        <time>2018-08-12T12:30:35Z</time>
      </trkpt>
      <trkpt lat="46.24744" lon="10.34834">
        <ele>2155.911</ele>
        <time>2018-08-12T12:30:55Z</time>
      </trkpt>
      <trkpt lat="46.24786" lon="10.34871">
        <ele>2162.108</ele>
        <time>2018-08-12T12:31:15Z</time>
      </trkpt>
      <trkpt lat="46.24811" lon="10.34904">
        <ele>2169.414</ele>
        <time>2018-08-12T12:31:35Z</time>
      </trkpt>
      <trkpt lat="46.24833" lon="10.34952">
        <ele>2166.979</ele>
        <time>2018-08-12T12:31:55Z</time>
      </trkpt>
      <trkpt lat="46.24863" lon="10.34987">
        <ele>2175.645</ele>
        <time>2018-08-12T12:32:15Z</time>
      </trkpt>
      <trkpt lat="46.2489" lon="10.35056">
        <ele>2173.319</ele>
        <time>2018-08-12T12:32:35Z</time>
      </trkpt>
      <trkpt lat="46.24903" lon="10.35091">
        <ele>2172.494</ele>
        <time>2018-08-12T12:32:55Z</time>
      </trkpt>
      <trkpt lat="46.24929" lon="10.35148">
        <ele>2173.575</ele>
        <time>2018-08-12T12:33:15Z</time>
      </trkpt>
      <trkpt lat="46.24957" lon="10.35191">
        <ele>2179.622</ele>
        <time>2018-08-12T12:33:35Z</time>
      </trkpt>
      <trkpt lat="46.25002" lon="10.3526">
        <ele>2179.295</ele>
        <time>2018-08-12T12:33:55Z</time>
      </trkpt>
      <trkpt lat="46.25033" lon="10.35293">
        <ele>2177.421</ele>
        <time>2018-08-12T12:34:15Z</time>
      </trkpt>
      <trkpt lat="46.25067" lon="10.35333">
        <ele>2173.141</ele>
        <time>2018-08-12T12:34:35Z</time>
      </trkpt>
      <trkpt lat="46.25097" lon="10.35373">
        <ele>2170.705</ele>
        <time>2018-08-12T12:34:55Z</time>
      </trkpt>
      <trkpt lat="46.25125" lon="10.35431">
        <ele>2167.008</ele>
        <time>2018-08-12T12:35:15Z</time>
      </trkpt>
      <trkpt lat="46.25149" lon="10.35482">
        <ele>2166.994</ele>
        <time>2018-08-12T12:35:35Z</time>
      </trkpt>
      <trkpt lat="46.25167" lon="10.35511">
        <ele>2168.469</ele>
        <time>2018-08-12T12:35:55Z</time>
      </trkpt>
      <trkpt lat="46.2519" lon="10.35537">
        <ele>2174.435</ele>
        <time>2018-08-12T12:36:15Z</time>
      </trkpt>
      <trkpt lat="46.25216" lon="10.35565">
        <ele>2176.559</ele>
        <time>2018-08-12T12:36:35Z</time>
      </trkpt>
      <trkpt lat="46.25249" lon="10.35586">
        <ele>2174.344</ele>
        <time>2018-08-12T12:36:55Z</time>
      </trkpt>
      <trkpt lat="46.2527" lon="10.35593">
        <ele>2172.625</ele>
        <time>2018-08-12T12:37:15Z</time>
      </trkpt>
      <trkpt lat="46.25289" lon="10.35621">
        <ele>2165.332</ele>
        <time>2018-08-12T12:37:35Z</time>
      </trkpt>
      <trkpt lat="46.25325" lon="10.35694">
        <ele>2154.265</ele>
        <time>2018-08-12T12:37:55Z</time>
      </trkpt>
      <trkpt lat="46.25339" lon="10.35732">
        <ele>2151.889</ele>
        <time>2018-08-12T12:38:15Z</time>
      </trkpt>
      <trkpt lat="46.25365" lon="10.35821">
        <ele>2153.206</ele>
        <time>2018-08-12T12:38:35Z</time>
      </trkpt>
      <trkpt lat="46.25367" lon="10.35864">
        <ele>2154.626</ele>
        <time>2018-08-12T12:38:55Z</time>
      </trkpt>
      <trkpt lat="46.25371" lon="10.35878">
        <ele>2154.908</ele>
        <time>2018-08-12T12:39:15Z</time>
      </trkpt>
      <trkpt lat="46.25371" lon="10.35895">
        <ele>2155.55</ele>
        <time>2018-08-12T12:39:35Z</time>
      </trkpt>
      <trkpt lat="46.25372" lon="10.35913">
        <ele>2156.045</ele>
        <time>2018-08-12T12:39:55Z</time>
      </trkpt>
      <trkpt lat="46.25371" lon="10.3592">
        <ele>2156.391</ele>
        <time>2018-08-12T12:40:15Z</time>
      </trkpt>
      <trkpt lat="46.25371" lon="10.35937">
        <ele>2156.945</ele>
        <time>2018-08-12T12:40:35Z</time>
      </trkpt>
      <trkpt lat="46.25374" lon="10.35948">
        <ele>2157.13</ele>
        <time>2018-08-12T12:40:55Z</time>
      </trkpt>
      <trkpt lat="46.25376" lon="10.35961">
        <ele>2157.551</ele>
        <time>2018-08-12T12:41:15Z</time>
      </trkpt>
      <trkpt lat="46.25378" lon="10.35976">
        <ele>2157.898</ele>
        <time>2018-08-12T12:41:35Z</time>
      </trkpt>
      <trkpt lat="46.25378" lon="10.35992">
        <ele>2158.241</ele>
        <time>2018-08-12T12:41:55Z</time>
      </trkpt>
      <trkpt lat="46.25377" lon="10.36007">
        <ele>2158.637</ele>
        <time>2018-08-12T12:42:15Z</time>
      </trkpt>
      <trkpt lat="46.25378" lon="10.36024">
        <ele>2159.249</ele>
        <time>2018-08-12T12:42:35Z</time>
      </trkpt>
      <trkpt lat="46.25383" lon="10.36037">
        <ele>2159.513</ele>
        <time>2018-08-12T12:42:55Z</time>
      </trkpt>
      <trkpt lat="46.25384" lon="10.36058">
        <ele>2160.108</ele>
        <time>2018-08-12T12:43:15Z</time>
      </trkpt>
      <trkpt lat="46.2539" lon="10.36087">
        <ele>2159.665</ele>
        <time>2018-08-12T12:43:35Z</time>
      </trkpt>
      <trkpt lat="46.25393" lon="10.36094">
        <ele>2158.88</ele>
        <time>2018-08-12T12:43:55Z</time>
      </trkpt>
      <trkpt lat="46.254" lon="10.36096">
        <ele>2156.686</ele>
        <time>2018-08-12T12:44:15Z</time>
      </trkpt>
      <trkpt lat="46.25407" lon="10.3609">
        <ele>2153.74</ele>
        <time>2018-08-12T12:44:35Z</time>
      </trkpt>
      <trkpt lat="46.25413" lon="10.36084">
        <ele>2151.365</ele>
        <time>2018-08-12T12:44:55Z</time>
      </trkpt>
      <trkpt lat="46.25417" lon="10.36082">
        <ele>2149.936</ele>
        <time>2018-08-12T12:45:15Z</time>
      </trkpt>
      <trkpt lat="46.25422" lon="10.36078">
        <ele>2148.753</ele>
        <time>2018-08-12T12:45:35Z</time>
      </trkpt>
      <trkpt lat="46.25426" lon="10.36069">
        <ele>2147.736</ele>
        <time>2018-08-12T12:45:55Z</time>
      </trkpt>
      <trkpt lat="46.25429" lon="10.36059">
        <ele>2146.543</ele>
        <time>2018-08-12T12:46:15Z</time>
      </trkpt>
      <trkpt lat="46.2543" lon="10.3605">
        <ele>2146.064</ele>
        <time>2018-08-12T12:46:35Z</time>
      </trkpt>
      <trkpt lat="46.25431" lon="10.36045">
        <ele>2145.71</ele>
        <time>2018-08-12T12:46:55Z</time>
      </trkpt>
      <trkpt lat="46.25432" lon="10.36032">
        <ele>2145.008</ele>
        <time>2018-08-12T12:47:15Z</time>
      </trkpt>
      <trkpt lat="46.25433" lon="10.36021">
        <ele>2144.586</ele>
        <time>2018-08-12T12:47:35Z</time>
      </trkpt>
      <trkpt lat="46.25434" lon="10.3601">
        <ele>2143.911</ele>
        <time>2018-08-12T12:47:55Z</time>
      </trkpt>
      <trkpt lat="46.2544" lon="10.36004">
        <ele>2141.867</ele>
        <time>2018-08-12T12:48:15Z</time>
      </trkpt>
      <trkpt lat="46.25442" lon="10.36014">
        <ele>2141.451</ele>
        <time>2018-08-12T12:48:35Z</time>
      </trkpt>
      <trkpt lat="46.25442" lon="10.36023">
        <ele>2141.766</ele>
        <time>2018-08-12T12:48:55Z</time>
      </trkpt>
      <trkpt lat="46.25454" lon="10.36052">
        <ele>2138.857</ele>
        <time>2018-08-12T12:49:15Z</time>
      </trkpt>
      <trkpt lat="46.25459" lon="10.36061">
        <ele>2137.564</ele>
        <time>2018-08-12T12:49:35Z</time>
      </trkpt>
      <trkpt lat="46.25467" lon="10.36073">
        <ele>2136.027</ele>
        <time>2018-08-12T12:49:55Z</time>
      </trkpt>
      <trkpt lat="46.25478" lon="10.3609">
        <ele>2133.675</ele>
        <time>2018-08-12T12:50:15Z</time>
      </trkpt>
      <trkpt lat="46.25485" lon="10.36097">
        <ele>2131.528</ele>
        <time>2018-08-12T12:50:35Z</time>
      </trkpt>
      <trkpt lat="46.2549" lon="10.36104">
        <ele>2130.42</ele>
        <time>2018-08-12T12:50:55Z</time>
      </trkpt>
      <trkpt lat="46.25496" lon="10.36108">
        <ele>2128.908</ele>
        <time>2018-08-12T12:51:15Z</time>
      </trkpt>
      <trkpt lat="46.25504" lon="10.36115">
        <ele>2126.759</ele>
        <time>2018-08-12T12:51:35Z</time>
      </trkpt>
      <trkpt lat="46.2551" lon="10.36125">
        <ele>2124.874</ele>
        <time>2018-08-12T12:51:55Z</time>
      </trkpt>
      <trkpt lat="46.25514" lon="10.36135">
        <ele>2123.63</ele>
        <time>2018-08-12T12:52:15Z</time>
      </trkpt>
      <trkpt lat="46.25522" lon="10.3616">
        <ele>2120.814</ele>
        <time>2018-08-12T12:52:35Z</time>
      </trkpt>
      <trkpt lat="46.25524" lon="10.36174">
        <ele>2120.329</ele>
        <time>2018-08-12T12:52:55Z</time>
      </trkpt>
      <trkpt lat="46.25531" lon="10.36187">
        <ele>2118.81</ele>
        <time>2018-08-12T12:53:15Z</time>
      </trkpt>
      <trkpt lat="46.25538" lon="10.36193">
        <ele>2118.067</ele>
        <time>2018-08-12T12:53:35Z</time>
      </trkpt>
      <trkpt lat="46.25542" lon="10.36195">
        <ele>2117.49</ele>
        <time>2018-08-12T12:53:55Z</time>
      </trkpt>
      <trkpt lat="46.25556" lon="10.36225">
        <ele>2117.199</ele>
        <time>2018-08-12T12:54:15Z</time>
      </trkpt>
      <trkpt lat="46.25563" lon="10.36238">
        <ele>2116.307</ele>
        <time>2018-08-12T12:54:35Z</time>
      </trkpt>
      <trkpt lat="46.25569" lon="10.36251">
        <ele>2115.627</ele>
        <time>2018-08-12T12:54:55Z</time>
      </trkpt>
      <trkpt lat="46.25587" lon="10.36243">
        <ele>2110.708</ele>
        <time>2018-08-12T12:55:15Z</time>
      </trkpt>
      <trkpt lat="46.25595" lon="10.36237">
        <ele>2107.921</ele>
        <time>2018-08-12T12:55:35Z</time>
      </trkpt>
      <trkpt lat="46.25608" lon="10.36216">
        <ele>2102.886</ele>
        <time>2018-08-12T12:55:55Z</time>
      </trkpt>
      <trkpt lat="46.2563" lon="10.36192">
        <ele>2100.342</ele>
        <time>2018-08-12T12:56:15Z</time>
      </trkpt>
      <trkpt lat="46.2564" lon="10.36184">
        <ele>2100.026</ele>
        <time>2018-08-12T12:56:35Z</time>
      </trkpt>
      <trkpt lat="46.25672" lon="10.36158">
        <ele>2099.641</ele>
        <time>2018-08-12T12:56:55Z</time>
      </trkpt>
      <trkpt lat="46.2569" lon="10.36135">
        <ele>2098.382</ele>
        <time>2018-08-12T12:57:15Z</time>
      </trkpt>
      <trkpt lat="46.25707" lon="10.36119">
        <ele>2095.259</ele>
        <time>2018-08-12T12:57:35Z</time>
      </trkpt>
      <trkpt lat="46.25719" lon="10.36109">
        <ele>2092.712</ele>
        <time>2018-08-12T12:57:55Z</time>
      </trkpt>
      <trkpt lat="46.25732" lon="10.36099">
        <ele>2090.237</ele>
        <time>2018-08-12T12:58:15Z</time>
      </trkpt>
      <trkpt lat="46.25747" lon="10.36075">
        <ele>2087.949</ele>
        <time>2018-08-12T12:58:35Z</time>
      </trkpt>
      <trkpt lat="46.25748" lon="10.36074">
        <ele>2087.713</ele>
        <time>2018-08-12T12:58:55Z</time>
      </trkpt>
      <trkpt lat="46.2575" lon="10.36072">
        <ele>2087.508</ele>
        <time>2018-08-12T12:59:15Z</time>
      </trkpt>
      <trkpt lat="46.25751" lon="10.36069">
        <ele>2087.465</ele>
        <time>2018-08-12T12:59:35Z</time>
      </trkpt>
      <trkpt lat="46.25752" lon="10.36067">
        <ele>2087.52</ele>
        <time>2018-08-12T12:59:55Z</time>
      </trkpt>
      <trkpt lat="46.25754" lon="10.36065">
        <ele>2087.696</ele>
        <time>2018-08-12T13:00:15Z</time>
      </trkpt>
      <trkpt lat="46.25755" lon="10.36063">
        <ele>2087.66</ele>
        <time>2018-08-12T13:00:35Z</time>
      </trkpt>
      <trkpt lat="46.25757" lon="10.36061">
        <ele>2087.775</ele>
        <time>2018-08-12T13:00:55Z</time>
      </trkpt>
      <trkpt lat="46.25758" lon="10.36059">
        <ele>2087.866</ele>
        <time>2018-08-12T13:01:15Z</time>
      </trkpt>
      <trkpt lat="46.2576" lon="10.36057">
        <ele>2087.993</ele>
        <time>2018-08-12T13:01:35Z</time>
      </trkpt>
      <trkpt lat="46.25761" lon="10.36054">
        <ele>2088.066</ele>
        <time>2018-08-12T13:01:55Z</time>
      </trkpt>
      <trkpt lat="46.25762" lon="10.36052">
        <ele>2088.187</ele>
        <time>2018-08-12T13:02:15Z</time>
      </trkpt>
      <trkpt lat="46.25764" lon="10.3605">
        <ele>2088.142</ele>
        <time>2018-08-12T13:02:35Z</time>
      </trkpt>
      <trkpt lat="46.25765" lon="10.36048">
        <ele>2088.226</ele>
        <time>2018-08-12T13:02:55Z</time>
      </trkpt>
      <trkpt lat="46.25767" lon="10.36046">
        <ele>2088.308</ele>
        <time>2018-08-12T13:03:15Z</time>
      </trkpt>
      <trkpt lat="46.25768" lon="10.36044">
        <ele>2088.47</ele>
        <time>2018-08-12T13:03:35Z</time>
      </trkpt>
      <trkpt lat="46.25769" lon="10.36042">
        <ele>2088.545</ele>
        <time>2018-08-12T13:03:55Z</time>
      </trkpt>
      <trkpt lat="46.25771" lon="10.36039">
        <ele>2088.591</ele>
        <time>2018-08-12T13:04:15Z</time>
      </trkpt>
      <trkpt lat="46.25772" lon="10.36037">
        <ele>2088.695</ele>
        <time>2018-08-12T13:04:35Z</time>
      </trkpt>
      <trkpt lat="46.25773" lon="10.36035">
        <ele>2088.73</ele>
        <time>2018-08-12T13:04:55Z</time>
      </trkpt>
      <trkpt lat="46.25774" lon="10.36033">
        <ele>2088.891</ele>
        <time>2018-08-12T13:05:15Z</time>
      </trkpt>
      <trkpt lat="46.25776" lon="10.36031">
        <ele>2088.888</ele>
        <time>2018-08-12T13:05:35Z</time>
      </trkpt>
      <trkpt lat="46.25777" lon="10.36029">
        <ele>2088.931</ele>
        <time>2018-08-12T13:05:55Z</time>
      </trkpt>
      <trkpt lat="46.25779" lon="10.36027">
        <ele>2089.072</ele>
        <time>2018-08-12T13:06:15Z</time>
      </trkpt>
      <trkpt lat="46.2578" lon="10.36024">
        <ele>2089.213</ele>
        <time>2018-08-12T13:06:35Z</time>
      </trkpt>
      <trkpt lat="46.25782" lon="10.36022">
        <ele>2089.414</ele>
        <time>2018-08-12T13:06:55Z</time>
      </trkpt>
      <trkpt lat="46.25784" lon="10.36019">
        <ele>2089.608</ele>
        <time>2018-08-12T13:07:15Z</time>
      </trkpt>
      <trkpt lat="46.25788" lon="10.36016">
        <ele>2089.819</ele>
        <time>2018-08-12T13:07:35Z</time>
      </trkpt>
      <trkpt lat="46.25789" lon="10.36015">
        <ele>2089.974</ele>
        <time>2018-08-12T13:07:55Z</time>
      </trkpt>
      <trkpt lat="46.25791" lon="10.36014">
        <ele>2089.97</ele>
        <time>2018-08-12T13:08:15Z</time>
      </trkpt>
      <trkpt lat="46.25793" lon="10.36013">
        <ele>2090.014</ele>
        <time>2018-08-12T13:08:35Z</time>
      </trkpt>
      <trkpt lat="46.25795" lon="10.36012">
        <ele>2090.159</ele>
        <time>2018-08-12T13:08:55Z</time>
      </trkpt>
      <trkpt lat="46.25797" lon="10.36011">
        <ele>2090.19</ele>
        <time>2018-08-12T13:09:15Z</time>
      </trkpt>
      <trkpt lat="46.25799" lon="10.3601">
        <ele>2090.237</ele>
        <time>2018-08-12T13:09:35Z</time>
      </trkpt>
      <trkpt lat="46.25824" lon="10.35996">
        <ele>2090.62</ele>
        <time>2018-08-12T13:09:55Z</time>
      </trkpt>
      <trkpt lat="46.25844" lon="10.3599">
        <ele>2092.888</ele>
        <time>2018-08-12T13:10:15Z</time>
      </trkpt>
      <trkpt lat="46.25847" lon="10.35988">
        <ele>2093.724</ele>
        <time>2018-08-12T13:10:35Z</time>
      </trkpt>
      <trkpt lat="46.25849" lon="10.35989">
        <ele>2093.926</ele>
        <time>2018-08-12T13:10:55Z</time>
      </trkpt>
      <trkpt lat="46.25851" lon="10.35989">
        <ele>2094.208</ele>
        <time>2018-08-12T13:11:15Z</time>
      </trkpt>
      <trkpt lat="46.25853" lon="10.35989">
        <ele>2094.56</ele>
        <time>2018-08-12T13:11:35Z</time>
      </trkpt>
      <trkpt lat="46.25855" lon="10.3599">
        <ele>2094.715</ele>
        <time>2018-08-12T13:11:55Z</time>
      </trkpt>
      <trkpt lat="46.25857" lon="10.3599">
        <ele>2095.031</ele>
        <time>2018-08-12T13:12:15Z</time>
      </trkpt>
      <trkpt lat="46.25859" lon="10.3599">
        <ele>2095.355</ele>
        <time>2018-08-12T13:12:35Z</time>
      </trkpt>
      <trkpt lat="46.2586" lon="10.35991">
        <ele>2095.59</ele>
        <time>2018-08-12T13:12:55Z</time>
      </trkpt>
      <trkpt lat="46.25862" lon="10.35991">
        <ele>2095.761</ele>
        <time>2018-08-12T13:13:15Z</time>
      </trkpt>
      <trkpt lat="46.25867" lon="10.35989">
        <ele>2096.328</ele>
        <time>2018-08-12T13:13:35Z</time>
      </trkpt>
      <trkpt lat="46.2587" lon="10.35991">
        <ele>2096.481</ele>
        <time>2018-08-12T13:13:55Z</time>
      </trkpt>
      <trkpt lat="46.25874" lon="10.35992">
        <ele>2096.573</ele>
        <time>2018-08-12T13:14:15Z</time>
      </trkpt>
      <trkpt lat="46.25877" lon="10.35993">
        <ele>2096.785</ele>
        <time>2018-08-12T13:14:35Z</time>
      </trkpt>
      <trkpt lat="46.25879" lon="10.35993">
        <ele>2096.813</ele>
        <time>2018-08-12T13:14:55Z</time>
      </trkpt>
      <trkpt lat="46.25881" lon="10.35993">
        <ele>2097.008</ele>
        <time>2018-08-12T13:15:15Z</time>
      </trkpt>
      <trkpt lat="46.25883" lon="10.35993">
        <ele>2097.299</ele>
        <time>2018-08-12T13:15:35Z</time>
      </trkpt>
      <trkpt lat="46.25885" lon="10.35993">
        <ele>2097.454</ele>
        <time>2018-08-12T13:15:55Z</time>
      </trkpt>
      <trkpt lat="46.25888" lon="10.35993">
        <ele>2097.62</ele>
        <time>2018-08-12T13:16:15Z</time>
      </trkpt>
      <trkpt lat="46.2589" lon="10.35993">
        <ele>2097.794</ele>
        <time>2018-08-12T13:16:35Z</time>
      </trkpt>
      <trkpt lat="46.25892" lon="10.35993">
        <ele>2097.839</ele>
        <time>2018-08-12T13:16:55Z</time>
      </trkpt>
      <trkpt lat="46.25895" lon="10.35993">
        <ele>2097.84</ele>
        <time>2018-08-12T13:17:15Z</time>
      </trkpt>
      <trkpt lat="46.25897" lon="10.35993">
        <ele>2097.947</ele>
        <time>2018-08-12T13:17:35Z</time>
      </trkpt>
      <trkpt lat="46.259" lon="10.3599">
        <ele>2098.31</ele>
        <time>2018-08-12T13:17:55Z</time>
      </trkpt>
      <trkpt lat="46.25905" lon="10.35992">
        <ele>2098.131</ele>
        <time>2018-08-12T13:18:15Z</time>
      </trkpt>
      <trkpt lat="46.25944" lon="10.36009">
        <ele>2096.961</ele>
        <time>2018-08-12T13:18:35Z</time>
      </trkpt>
      <trkpt lat="46.26015" lon="10.36045">
        <ele>2097.207</ele>
        <time>2018-08-12T13:18:55Z</time>
      </trkpt>
      <trkpt lat="46.26059" lon="10.36067">
        <ele>2090.608</ele>
        <time>2018-08-12T13:19:15Z</time>
      </trkpt>
      <trkpt lat="46.26076" lon="10.36074">
        <ele>2086.675</ele>
        <time>2018-08-12T13:19:35Z</time>
      </trkpt>
      <trkpt lat="46.26096" lon="10.36074">
        <ele>2086.91</ele>
        <time>2018-08-12T13:19:55Z</time>
      </trkpt>
      <trkpt lat="46.26124" lon="10.36063">
        <ele>2090.766</ele>
        <time>2018-08-12T13:20:15Z</time>
      </trkpt>
      <trkpt lat="46.26147" lon="10.36065">
        <ele>2090.22</ele>
        <time>2018-08-12T13:20:35Z</time>
      </trkpt>
      <trkpt lat="46.26189" lon="10.36073">
        <ele>2094.655</ele>
        <time>2018-08-12T13:20:55Z</time>
      </trkpt>
      <trkpt lat="46.2621" lon="10.36085">
        <ele>2098.216</ele>
        <time>2018-08-12T13:21:15Z</time>
      </trkpt>
      <trkpt lat="46.26229" lon="10.3613">
        <ele>2095.443</ele>
        <time>2018-08-12T13:21:35Z</time>
      </trkpt>
      <trkpt lat="46.26233" lon="10.36139">
        <ele>2094.656</ele>
        <time>2018-08-12T13:21:55Z</time>
      </trkpt>
      <trkpt lat="46.26245" lon="10.36175">
        <ele>2091.368</ele>
        <time>2018-08-12T13:22:15Z</time>
      </trkpt>
      <trkpt lat="46.26247" lon="10.36183">
        <ele>2090.042</ele>
        <time>2018-08-12T13:22:35Z</time>
      </trkpt>
      <trkpt lat="46.26253" lon="10.36235">
        <ele>2078.626</ele>
        <time>2018-08-12T13:22:55Z</time>
      </trkpt>
      <trkpt lat="46.26263" lon="10.36256">
        <ele>2073.408</ele>
        <time>2018-08-12T13:23:15Z</time>
      </trkpt>
      <trkpt lat="46.2627" lon="10.36275">
        <ele>2069.188</ele>
        <time>2018-08-12T13:23:35Z</time>
      </trkpt>
      <trkpt lat="46.26276" lon="10.36286">
        <ele>2066.383</ele>
        <time>2018-08-12T13:23:55Z</time>
      </trkpt>
      <trkpt lat="46.26284" lon="10.36287">
        <ele>2065.759</ele>
        <time>2018-08-12T13:24:15Z</time>
      </trkpt>
      <trkpt lat="46.26289" lon="10.36293">
        <ele>2064.063</ele>
        <time>2018-08-12T13:24:35Z</time>
      </trkpt>
      <trkpt lat="46.26286" lon="10.36301">
        <ele>2062.438</ele>
        <time>2018-08-12T13:24:55Z</time>
      </trkpt>
      <trkpt lat="46.26279" lon="10.36302">
        <ele>2062.869</ele>
        <time>2018-08-12T13:25:15Z</time>
      </trkpt>
      <trkpt lat="46.26269" lon="10.363">
        <ele>2063.826</ele>
        <time>2018-08-12T13:25:35Z</time>
      </trkpt>
      <trkpt lat="46.26263" lon="10.36297">
        <ele>2064.869</ele>
        <time>2018-08-12T13:25:55Z</time>
      </trkpt>
      <trkpt lat="46.26253" lon="10.36295">
        <ele>2066.145</ele>
        <time>2018-08-12T13:26:15Z</time>
      </trkpt>
      <trkpt lat="46.26239" lon="10.36298">
        <ele>2064.147</ele>
        <time>2018-08-12T13:26:35Z</time>
      </trkpt>
      <trkpt lat="46.26232" lon="10.36302">
        <ele>2062.111</ele>
        <time>2018-08-12T13:26:55Z</time>
      </trkpt>
      <trkpt lat="46.26226" lon="10.36313">
        <ele>2058.808</ele>
        <time>2018-08-12T13:27:15Z</time>
      </trkpt>
      <trkpt lat="46.26222" lon="10.36324">
        <ele>2055.296</ele>
        <time>2018-08-12T13:27:35Z</time>
      </trkpt>
      <trkpt lat="46.2622" lon="10.36336">
        <ele>2051.791</ele>
        <time>2018-08-12T13:27:55Z</time>
      </trkpt>
      <trkpt lat="46.2622" lon="10.36348">
        <ele>2048.717</ele>
        <time>2018-08-12T13:28:15Z</time>
      </trkpt>
      <trkpt lat="46.26232" lon="10.36358">
        <ele>2048.971</ele>
        <time>2018-08-12T13:28:35Z</time>
      </trkpt>
      <trkpt lat="46.2624" lon="10.36355">
        <ele>2051.226</ele>
        <time>2018-08-12T13:28:55Z</time>
      </trkpt>
      <trkpt lat="46.26252" lon="10.36351">
        <ele>2054.127</ele>
        <time>2018-08-12T13:29:15Z</time>
      </trkpt>
      <trkpt lat="46.26263" lon="10.36351">
        <ele>2053.384</ele>
        <time>2018-08-12T13:29:35Z</time>
      </trkpt>
      <trkpt lat="46.26275" lon="10.36357">
        <ele>2051.067</ele>
        <time>2018-08-12T13:29:55Z</time>
      </trkpt>
      <trkpt lat="46.26284" lon="10.3636">
        <ele>2049.479</ele>
        <time>2018-08-12T13:30:15Z</time>
      </trkpt>
      <trkpt lat="46.26293" lon="10.36367">
        <ele>2046.405</ele>
        <time>2018-08-12T13:30:35Z</time>
      </trkpt>
      <trkpt lat="46.26297" lon="10.36376">
        <ele>2043.525</ele>
        <time>2018-08-12T13:30:55Z</time>
      </trkpt>
      <trkpt lat="46.26289" lon="10.36385">
        <ele>2042.908</ele>
        <time>2018-08-12T13:31:15Z</time>
      </trkpt>
      <trkpt lat="46.26279" lon="10.36388">
        <ele>2044.779</ele>
        <time>2018-08-12T13:31:35Z</time>
      </trkpt>
      <trkpt lat="46.2627" lon="10.36382">
        <ele>2046.354</ele>
        <time>2018-08-12T13:31:55Z</time>
      </trkpt>
      <trkpt lat="46.26261" lon="10.36379">
        <ele>2047.15</ele>
        <time>2018-08-12T13:32:15Z</time>
      </trkpt>
      <trkpt lat="46.26254" lon="10.36383">
        <ele>2046.474</ele>
        <time>2018-08-12T13:32:35Z</time>
      </trkpt>
      <trkpt lat="46.26246" lon="10.36391">
        <ele>2043.519</ele>
        <time>2018-08-12T13:32:55Z</time>
      </trkpt>
      <trkpt lat="46.2624" lon="10.36403">
        <ele>2038.71</ele>
        <time>2018-08-12T13:33:15Z</time>
      </trkpt>
      <trkpt lat="46.26236" lon="10.36405">
        <ele>2037.267</ele>
        <time>2018-08-12T13:33:35Z</time>
      </trkpt>
      <trkpt lat="46.26233" lon="10.36418">
        <ele>2033.39</ele>
        <time>2018-08-12T13:33:55Z</time>
      </trkpt>
      <trkpt lat="46.26241" lon="10.36419">
        <ele>2034.185</ele>
        <time>2018-08-12T13:34:15Z</time>
      </trkpt>
      <trkpt lat="46.2625" lon="10.36413">
        <ele>2037.089</ele>
        <time>2018-08-12T13:34:35Z</time>
      </trkpt>
      <trkpt lat="46.26261" lon="10.36417">
        <ele>2037.117</ele>
        <time>2018-08-12T13:34:55Z</time>
      </trkpt>
      <trkpt lat="46.26267" lon="10.36424">
        <ele>2036.108</ele>
        <time>2018-08-12T13:35:15Z</time>
      </trkpt>
      <trkpt lat="46.26276" lon="10.36427">
        <ele>2036.53</ele>
        <time>2018-08-12T13:35:35Z</time>
      </trkpt>
      <trkpt lat="46.26302" lon="10.36422">
        <ele>2029.735</ele>
        <time>2018-08-12T13:35:55Z</time>
      </trkpt>
      <trkpt lat="46.26319" lon="10.36419">
        <ele>2024.261</ele>
        <time>2018-08-12T13:36:15Z</time>
      </trkpt>
      <trkpt lat="46.26337" lon="10.36402">
        <ele>2020.955</ele>
        <time>2018-08-12T13:36:35Z</time>
      </trkpt>
      <trkpt lat="46.26346" lon="10.36385">
        <ele>2020.97</ele>
        <time>2018-08-12T13:36:55Z</time>
      </trkpt>
      <trkpt lat="46.26352" lon="10.36371">
        <ele>2023.141</ele>
        <time>2018-08-12T13:37:15Z</time>
      </trkpt>
      <trkpt lat="46.26365" lon="10.36348">
        <ele>2027.048</ele>
        <time>2018-08-12T13:37:35Z</time>
      </trkpt>
      <trkpt lat="46.26392" lon="10.36318">
        <ele>2028.061</ele>
        <time>2018-08-12T13:37:55Z</time>
      </trkpt>
      <trkpt lat="46.26412" lon="10.36306">
        <ele>2020.755</ele>
        <time>2018-08-12T13:38:15Z</time>
      </trkpt>
      <trkpt lat="46.2644" lon="10.36291">
        <ele>2015.107</ele>
        <time>2018-08-12T13:38:35Z</time>
      </trkpt>
      <trkpt lat="46.26459" lon="10.36281">
        <ele>2011.717</ele>
        <time>2018-08-12T13:38:55Z</time>
      </trkpt>
      <trkpt lat="46.26484" lon="10.36262">
        <ele>2009.908</ele>
        <time>2018-08-12T13:39:15Z</time>
      </trkpt>
      <trkpt lat="46.26495" lon="10.36252">
        <ele>2010.357</ele>
        <time>2018-08-12T13:39:35Z</time>
      </trkpt>
      <trkpt lat="46.26514" lon="10.36231">
        <ele>2012.682</ele>
        <time>2018-08-12T13:39:55Z</time>
      </trkpt>
      <trkpt lat="46.26527" lon="10.36225">
        <ele>2013.148</ele>
        <time>2018-08-12T13:40:15Z</time>
      </trkpt>
      <trkpt lat="46.26541" lon="10.36225">
        <ele>2008.372</ele>
        <time>2018-08-12T13:40:35Z</time>
      </trkpt>
      <trkpt lat="46.26553" lon="10.36229">
        <ele>2003.317</ele>
        <time>2018-08-12T13:40:55Z</time>
      </trkpt>
      <trkpt lat="46.26561" lon="10.36243">
        <ele>1999.278</ele>
        <time>2018-08-12T13:41:15Z</time>
      </trkpt>
      <trkpt lat="46.26563" lon="10.36257">
        <ele>1997.395</ele>
        <time>2018-08-12T13:41:35Z</time>
      </trkpt>
      <trkpt lat="46.26556" lon="10.36284">
        <ele>1994.638</ele>
        <time>2018-08-12T13:41:55Z</time>
      </trkpt>
      <trkpt lat="46.26544" lon="10.36303">
        <ele>1994.066</ele>
        <time>2018-08-12T13:42:15Z</time>
      </trkpt>
      <trkpt lat="46.26531" lon="10.3632">
        <ele>1992.229</ele>
        <time>2018-08-12T13:42:35Z</time>
      </trkpt>
      <trkpt lat="46.26522" lon="10.36331">
        <ele>1991.321</ele>
        <time>2018-08-12T13:42:55Z</time>
      </trkpt>
      <trkpt lat="46.265" lon="10.36351">
        <ele>1990.808</ele>
        <time>2018-08-12T13:43:15Z</time>
      </trkpt>
      <trkpt lat="46.26494" lon="10.36363">
        <ele>1989.038</ele>
        <time>2018-08-12T13:43:35Z</time>
      </trkpt>
      <trkpt lat="46.2648" lon="10.36379">
        <ele>1987.493</ele>
        <time>2018-08-12T13:43:55Z</time>
      </trkpt>
      <trkpt lat="46.26474" lon="10.36389">
        <ele>1985.939</ele>
        <time>2018-08-12T13:44:15Z</time>
      </trkpt>
      <trkpt lat="46.26464" lon="10.36408">
        <ele>1981.833</ele>
        <time>2018-08-12T13:44:35Z</time>
      </trkpt>
      <trkpt lat="46.26455" lon="10.36426">
        <ele>1977.038</ele>
        <time>2018-08-12T13:44:55Z</time>
      </trkpt>
      <trkpt lat="46.26449" lon="10.36444">
        <ele>1972.019</ele>
        <time>2018-08-12T13:45:15Z</time>
      </trkpt>
      <trkpt lat="46.2645" lon="10.36456">
        <ele>1968.836</ele>
        <time>2018-08-12T13:45:35Z</time>
      </trkpt>
      <trkpt lat="46.26449" lon="10.36476">
        <ele>1963.079</ele>
        <time>2018-08-12T13:45:55Z</time>
      </trkpt>
      <trkpt lat="46.26446" lon="10.36495">
        <ele>1957.622</ele>
        <time>2018-08-12T13:46:15Z</time>
      </trkpt>
      <trkpt lat="46.26439" lon="10.36529">
        <ele>1948.262</ele>
        <time>2018-08-12T13:46:35Z</time>
      </trkpt>
      <trkpt lat="46.26443" lon="10.36536">
        <ele>1946.908</ele>
        <time>2018-08-12T13:46:55Z</time>
      </trkpt>
      <trkpt lat="46.26448" lon="10.36538">
        <ele>1947.008</ele>
        <time>2018-08-12T13:47:15Z</time>
      </trkpt>
      <trkpt lat="46.2645" lon="10.36546">
        <ele>1945.434</ele>
        <time>2018-08-12T13:47:35Z</time>
      </trkpt>
      <trkpt lat="46.26453" lon="10.36549">
        <ele>1945.289</ele>
        <time>2018-08-12T13:47:55Z</time>
      </trkpt>
      <trkpt lat="46.26455" lon="10.36551">
        <ele>1945.115</ele>
        <time>2018-08-12T13:48:15Z</time>
      </trkpt>
      <trkpt lat="46.26457" lon="10.36553">
        <ele>1944.999</ele>
        <time>2018-08-12T13:48:35Z</time>
      </trkpt>
      <trkpt lat="46.26471" lon="10.36564">
        <ele>1943.674</ele>
        <time>2018-08-12T13:48:55Z</time>
      </trkpt>
      <trkpt lat="46.26472" lon="10.36566">
        <ele>1943.415</ele>
        <time>2018-08-12T13:49:15Z</time>
      </trkpt>
      <trkpt lat="46.26494" lon="10.36585">
        <ele>1939.722</ele>
        <time>2018-08-12T13:49:35Z</time>
      </trkpt>
      <trkpt lat="46.26507" lon="10.36602">
        <ele>1936.255</ele>
        <time>2018-08-12T13:49:55Z</time>
      </trkpt>
      <trkpt lat="46.26512" lon="10.36609">
        <ele>1934.321</ele>
        <time>2018-08-12T13:50:15Z</time>
      </trkpt>
      <trkpt lat="46.26523" lon="10.36632">
        <ele>1927.241</ele>
        <time>2018-08-12T13:50:35Z</time>
      </trkpt>
      <trkpt lat="46.26528" lon="10.36664">
        <ele>1916.005</ele>
        <time>2018-08-12T13:50:55Z</time>
      </trkpt>
      <trkpt lat="46.26532" lon="10.36665">
        <ele>1916.108</ele>
        <time>2018-08-12T13:51:15Z</time>
      </trkpt>
      <trkpt lat="46.26535" lon="10.3666">
        <ele>1918.944</ele>
        <time>2018-08-12T13:51:35Z</time>
      </trkpt>
      <trkpt lat="46.26536" lon="10.36666">
        <ele>1916.289</ele>
        <time>2018-08-12T13:51:55Z</time>
      </trkpt>
      <trkpt lat="46.26537" lon="10.36667">
        <ele>1916.265</ele>
        <time>2018-08-12T13:52:15Z</time>
      </trkpt>
      <trkpt lat="46.26539" lon="10.36663">
        <ele>1918.439</ele>
        <time>2018-08-12T13:52:35Z</time>
      </trkpt>
      <trkpt lat="46.26546" lon="10.36658">
        <ele>1921.834</ele>
        <time>2018-08-12T13:52:55Z</time>
      </trkpt>
      <trkpt lat="46.26551" lon="10.36653">
        <ele>1925.535</ele>
        <time>2018-08-12T13:53:15Z</time>
      </trkpt>
      <trkpt lat="46.26552" lon="10.36654">
        <ele>1925.792</ele>
        <time>2018-08-12T13:53:35Z</time>
      </trkpt>
      <trkpt lat="46.26561" lon="10.36656">
        <ele>1925.595</ele>
        <time>2018-08-12T13:53:55Z</time>
      </trkpt>
      <trkpt lat="46.26566" lon="10.36658">
        <ele>1925.476</ele>
        <time>2018-08-12T13:54:15Z</time>
      </trkpt>
      <trkpt lat="46.26584" lon="10.36666">
        <ele>1925.09</ele>
        <time>2018-08-12T13:54:35Z</time>
      </trkpt>
      <trkpt lat="46.26611" lon="10.36685">
        <ele>1913.819</ele>
        <time>2018-08-12T13:54:55Z</time>
      </trkpt>
      <trkpt lat="46.26623" lon="10.36694">
        <ele>1911.108</ele>
        <time>2018-08-12T13:55:15Z</time>
      </trkpt>
      <trkpt lat="46.2663" lon="10.36702">
        <ele>1908.899</ele>
        <time>2018-08-12T13:55:35Z</time>
      </trkpt>
      <trkpt lat="46.2665" lon="10.36714">
        <ele>1910.274</ele>
        <time>2018-08-12T13:55:55Z</time>
      </trkpt>
      <trkpt lat="46.26653" lon="10.36714">
        <ele>1911.27</ele>
        <time>2018-08-12T13:56:15Z</time>
      </trkpt>
      <trkpt lat="46.26657" lon="10.36714">
        <ele>1912.644</ele>
        <time>2018-08-12T13:56:35Z</time>
      </trkpt>
      <trkpt lat="46.26657" lon="10.36714">
        <ele>1912.939</ele>
        <time>2018-08-12T13:56:55Z</time>
      </trkpt>
      <trkpt lat="46.2667" lon="10.36722">
        <ele>1914.88</ele>
        <time>2018-08-12T13:57:15Z</time>
      </trkpt>
      <trkpt lat="46.26697" lon="10.36737">
        <ele>1922.447</ele>
        <time>2018-08-12T13:57:35Z</time>
      </trkpt>
      <trkpt lat="46.2671" lon="10.36744">
        <ele>1929.72</ele>
        <time>2018-08-12T13:57:55Z</time>
      </trkpt>
      <trkpt lat="46.2672" lon="10.36754">
        <ele>1933.724</ele>
        <time>2018-08-12T13:58:15Z</time>
      </trkpt>
      <trkpt lat="46.26737" lon="10.36767">
        <ele>1940.004</ele>
        <time>2018-08-12T13:58:35Z</time>
      </trkpt>
      <trkpt lat="46.26736" lon="10.36774">
        <ele>1936.814</ele>
        <time>2018-08-12T13:58:55Z</time>
      </trkpt>
      <trkpt lat="46.26711" lon="10.36773">
        <ele>1917.508</ele>
        <time>2018-08-12T13:59:15Z</time>
      </trkpt>
      <trkpt lat="46.2669" lon="10.3677">
        <ele>1902.514</ele>
        <time>2018-08-12T13:59:35Z</time>
      </trkpt>
      <trkpt lat="46.26678" lon="10.36765">
        <ele>1899.189</ele>
        <time>2018-08-12T13:59:55Z</time>
      </trkpt>
      <trkpt lat="46.26664" lon="10.36757">
        <ele>1896.515</ele>
        <time>2018-08-12T14:00:15Z</time>
      </trkpt>
      <trkpt lat="46.26657" lon="10.36762">
        <ele>1892.759</ele>
        <time>2018-08-12T14:00:35Z</time>
      </trkpt>
      <trkpt lat="46.26662" lon="10.36767">
        <ele>1892.394</ele>
        <time>2018-08-12T14:00:55Z</time>
      </trkpt>
      <trkpt lat="46.26677" lon="10.36773">
        <ele>1895.775</ele>
        <time>2018-08-12T14:01:15Z</time>
      </trkpt>
      <trkpt lat="46.26691" lon="10.36788">
        <ele>1896.632</ele>
        <time>2018-08-12T14:01:35Z</time>
      </trkpt>
      <trkpt lat="46.2669" lon="10.36795">
        <ele>1894.715</ele>
        <time>2018-08-12T14:01:55Z</time>
      </trkpt>
      <trkpt lat="46.26686" lon="10.36799">
        <ele>1891.771</ele>
        <time>2018-08-12T14:02:15Z</time>
      </trkpt>
      <trkpt lat="46.26686" lon="10.36808">
        <ele>1889.641</ele>
        <time>2018-08-12T14:02:35Z</time>
      </trkpt>
      <trkpt lat="46.26684" lon="10.36814">
        <ele>1887.115</ele>
        <time>2018-08-12T14:02:55Z</time>
      </trkpt>
      <trkpt lat="46.26679" lon="10.36816">
        <ele>1883.308</ele>
        <time>2018-08-12T14:03:15Z</time>
      </trkpt>
      <trkpt lat="46.26668" lon="10.36815">
        <ele>1877.569</ele>
        <time>2018-08-12T14:03:35Z</time>
      </trkpt>
      <trkpt lat="46.26665" lon="10.36829">
        <ele>1872.024</ele>
        <time>2018-08-12T14:03:55Z</time>
      </trkpt>
      <trkpt lat="46.26646" lon="10.36823">
        <ele>1867.19</ele>
        <time>2018-08-12T14:04:15Z</time>
      </trkpt>
      <trkpt lat="46.26642" lon="10.36825">
        <ele>1864.964</ele>
        <time>2018-08-12T14:04:35Z</time>
      </trkpt>
      <trkpt lat="46.26633" lon="10.36829">
        <ele>1860.929</ele>
        <time>2018-08-12T14:04:55Z</time>
      </trkpt>
      <trkpt lat="46.26659" lon="10.36848">
        <ele>1862.81</ele>
        <time>2018-08-12T14:05:15Z</time>
      </trkpt>
      <trkpt lat="46.26667" lon="10.3687">
        <ele>1857.877</ele>
        <time>2018-08-12T14:05:35Z</time>
      </trkpt>
      <trkpt lat="46.2666" lon="10.36873">
        <ele>1852.62</ele>
        <time>2018-08-12T14:05:55Z</time>
      </trkpt>
      <trkpt lat="46.26645" lon="10.36878">
        <ele>1841.115</ele>
        <time>2018-08-12T14:06:15Z</time>
      </trkpt>
      <trkpt lat="46.26645" lon="10.36881">
        <ele>1839.065</ele>
        <time>2018-08-12T14:06:35Z</time>
      </trkpt>
      <trkpt lat="46.26648" lon="10.36884">
        <ele>1840.011</ele>
        <time>2018-08-12T14:06:55Z</time>
      </trkpt>
      <trkpt lat="46.26636" lon="10.36889">
        <ele>1829.408</ele>
        <time>2018-08-12T14:07:15Z</time>
      </trkpt>
      <trkpt lat="46.26652" lon="10.36896">
        <ele>1834.993</ele>
        <time>2018-08-12T14:07:35Z</time>
      </trkpt>
      <trkpt lat="46.26674" lon="10.36922">
        <ele>1831.588</ele>
        <time>2018-08-12T14:07:55Z</time>
      </trkpt>
      <trkpt lat="46.26672" lon="10.36943">
        <ele>1825.234</ele>
        <time>2018-08-12T14:08:15Z</time>
      </trkpt>
      <trkpt lat="46.26679" lon="10.3697">
        <ele>1822.468</ele>
        <time>2018-08-12T14:08:35Z</time>
      </trkpt>
      <trkpt lat="46.26678" lon="10.36999">
        <ele>1814.153</ele>
        <time>2018-08-12T14:08:55Z</time>
      </trkpt>
      <trkpt lat="46.26685" lon="10.37054">
        <ele>1799.754</ele>
        <time>2018-08-12T14:09:15Z</time>
      </trkpt>
      <trkpt lat="46.26685" lon="10.37054">
        <ele>1799.431</ele>
        <time>2018-08-12T14:09:35Z</time>
      </trkpt>
      <trkpt lat="46.26677" lon="10.37066">
        <ele>1792.074</ele>
        <time>2018-08-12T14:09:55Z</time>
      </trkpt>
      <trkpt lat="46.26675" lon="10.37074">
        <ele>1788.893</ele>
        <time>2018-08-12T14:10:15Z</time>
      </trkpt>
      <trkpt lat="46.2668" lon="10.37084">
        <ele>1788.765</ele>
        <time>2018-08-12T14:10:35Z</time>
      </trkpt>
      <trkpt lat="46.26685" lon="10.37088">
        <ele>1791.521</ele>
        <time>2018-08-12T14:10:55Z</time>
      </trkpt>
      <trkpt lat="46.26686" lon="10.37097">
        <ele>1789.508</ele>
        <time>2018-08-12T14:11:15Z</time>
      </trkpt>
      <trkpt lat="46.26689" lon="10.37124">
        <ele>1785.181</ele>
        <time>2018-08-12T14:11:35Z</time>
      </trkpt>
      <trkpt lat="46.26695" lon="10.3717">
        <ele>1777.676</ele>
        <time>2018-08-12T14:11:55Z</time>
      </trkpt>
      <trkpt lat="46.267" lon="10.37192">
        <ele>1777.392</ele>
        <time>2018-08-12T14:12:15Z</time>
      </trkpt>
      <trkpt lat="46.26701" lon="10.37256">
        <ele>1767.796</ele>
        <time>2018-08-12T14:12:35Z</time>
      </trkpt>
      <trkpt lat="46.26701" lon="10.37299">
        <ele>1760.751</ele>
        <time>2018-08-12T14:12:55Z</time>
      </trkpt>
      <trkpt lat="46.26708" lon="10.37344">
        <ele>1760.392</ele>
        <time>2018-08-12T14:13:15Z</time>
      </trkpt>
      <trkpt lat="46.26709" lon="10.37379">
        <ele>1756.779</ele>
        <time>2018-08-12T14:13:35Z</time>
      </trkpt>
      <trkpt lat="46.26709" lon="10.37436">
        <ele>1748.012</ele>
        <time>2018-08-12T14:13:55Z</time>
      </trkpt>
      <trkpt lat="46.26703" lon="10.37477">
        <ele>1738.361</ele>
        <time>2018-08-12T14:14:15Z</time>
      </trkpt>
      <trkpt lat="46.26701" lon="10.37525">
        <ele>1730.721</ele>
        <time>2018-08-12T14:14:35Z</time>
      </trkpt>
      <trkpt lat="46.26687" lon="10.37581">
        <ele>1713.713</ele>
        <time>2018-08-12T14:14:55Z</time>
      </trkpt>
      <trkpt lat="46.26677" lon="10.37626">
        <ele>1699.008</ele>
        <time>2018-08-12T14:15:15Z</time>
      </trkpt>
      <trkpt lat="46.26676" lon="10.37673">
        <ele>1690.268</ele>
        <time>2018-08-12T14:15:35Z</time>
      </trkpt>
      <trkpt lat="46.26684" lon="10.37707">
        <ele>1690.193</ele>
        <time>2018-08-12T14:15:55Z</time>
      </trkpt>
      <trkpt lat="46.26692" lon="10.37742">
        <ele>1691.059</ele>
        <time>2018-08-12T14:16:15Z</time>
      </trkpt>
      <trkpt lat="46.26692" lon="10.37771">
        <ele>1687.153</ele>
        <time>2018-08-12T14:16:35Z</time>
      </trkpt>
      <trkpt lat="46.26689" lon="10.37808">
        <ele>1681.778</ele>
        <time>2018-08-12T14:16:55Z</time>
      </trkpt>
      <trkpt lat="46.26672" lon="10.37866">
        <ele>1664.559</ele>
        <time>2018-08-12T14:17:15Z</time>
      </trkpt>
      <trkpt lat="46.26672" lon="10.37867">
        <ele>1664.386</ele>
        <time>2018-08-12T14:17:35Z</time>
      </trkpt>
      <trkpt lat="46.2667" lon="10.37893">
        <ele>1659.479</ele>
        <time>2018-08-12T14:17:55Z</time>
      </trkpt>
      <trkpt lat="46.26667" lon="10.37904">
        <ele>1656.749</ele>
        <time>2018-08-12T14:18:15Z</time>
      </trkpt>
      <trkpt lat="46.26666" lon="10.37904">
        <ele>1655.902</ele>
        <time>2018-08-12T14:18:35Z</time>
      </trkpt>
      <trkpt lat="46.26661" lon="10.37919">
        <ele>1650.822</ele>
        <time>2018-08-12T14:18:55Z</time>
      </trkpt>
      <trkpt lat="46.26654" lon="10.37936">
        <ele>1643.208</ele>
        <time>2018-08-12T14:19:15Z</time>
      </trkpt>
      <trkpt lat="46.26649" lon="10.37958">
        <ele>1638.176</ele>
        <time>2018-08-12T14:19:35Z</time>
      </trkpt>
      <trkpt lat="46.26645" lon="10.37975">
        <ele>1634.451</ele>
        <time>2018-08-12T14:19:55Z</time>
      </trkpt>
      <trkpt lat="46.26643" lon="10.37998">
        <ele>1628.927</ele>
        <time>2018-08-12T14:20:15Z</time>
      </trkpt>
      <trkpt lat="46.26641" lon="10.38011">
        <ele>1628.941</ele>
        <time>2018-08-12T14:20:35Z</time>
      </trkpt>
      <trkpt lat="46.26638" lon="10.38032">
        <ele>1631.096</ele>
        <time>2018-08-12T14:20:55Z</time>
      </trkpt>
      <trkpt lat="46.26637" lon="10.3808">
        <ele>1624.437</ele>
        <time>2018-08-12T14:21:15Z</time>
      </trkpt>
      <trkpt lat="46.26635" lon="10.38109">
        <ele>1621.714</ele>
        <time>2018-08-12T14:21:35Z</time>
      </trkpt>
      <trkpt lat="46.26622" lon="10.38178">
        <ele>1617.517</ele>
        <time>2018-08-12T14:21:55Z</time>
      </trkpt>
      <trkpt lat="46.26595" lon="10.38102">
        <ele>1595.395</ele>
        <time>2018-08-12T14:22:15Z</time>
      </trkpt>
      <trkpt lat="46.26586" lon="10.38077">
        <ele>1590.649</ele>
        <time>2018-08-12T14:22:35Z</time>
      </trkpt>
      <trkpt lat="46.26585" lon="10.38075">
        <ele>1590.223</ele>
        <time>2018-08-12T14:22:55Z</time>
      </trkpt>
      <trkpt lat="46.26579" lon="10.38056">
        <ele>1587.308</ele>
        <time>2018-08-12T14:23:15Z</time>
      </trkpt>
      <trkpt lat="46.26579" lon="10.38052">
        <ele>1588.171</ele>
        <time>2018-08-12T14:23:35Z</time>
      </trkpt>
      <trkpt lat="46.26555" lon="10.37993">
        <ele>1577.916</ele>
        <time>2018-08-12T14:23:55Z</time>
      </trkpt>
      <trkpt lat="46.26551" lon="10.37981">
        <ele>1576.242</ele>
        <time>2018-08-12T14:24:15Z</time>
      </trkpt>
      <trkpt lat="46.26524" lon="10.37957">
        <ele>1564.646</ele>
        <time>2018-08-12T14:24:35Z</time>
      </trkpt>
      <trkpt lat="46.26522" lon="10.3798">
        <ele>1561.471</ele>
        <time>2018-08-12T14:24:55Z</time>
      </trkpt>
      <trkpt lat="46.26525" lon="10.37999">
        <ele>1560.812</ele>
        <time>2018-08-12T14:25:15Z</time>
      </trkpt>
      <trkpt lat="46.26521" lon="10.3803">
        <ele>1557.159</ele>
        <time>2018-08-12T14:25:35Z</time>
      </trkpt>
      <trkpt lat="46.26514" lon="10.3805">
        <ele>1553.152</ele>
        <time>2018-08-12T14:25:55Z</time>
      </trkpt>
      <trkpt lat="46.26516" lon="10.3807">
        <ele>1552.483</ele>
        <time>2018-08-12T14:26:15Z</time>
      </trkpt>
      <trkpt lat="46.26512" lon="10.38082">
        <ele>1549.825</ele>
        <time>2018-08-12T14:26:35Z</time>
      </trkpt>
      <trkpt lat="46.26504" lon="10.3807">
        <ele>1547.617</ele>
        <time>2018-08-12T14:26:55Z</time>
      </trkpt>
      <trkpt lat="46.26488" lon="10.38046">
        <ele>1541.208</ele>
        <time>2018-08-12T14:27:15Z</time>
      </trkpt>
      <trkpt lat="46.26469" lon="10.38028">
        <ele>1533.86</ele>
        <time>2018-08-12T14:27:35Z</time>
      </trkpt>
      <trkpt lat="46.26448" lon="10.38004">
        <ele>1529.055</ele>
        <time>2018-08-12T14:27:55Z</time>
      </trkpt>
      <trkpt lat="46.26423" lon="10.37993">
        <ele>1520.891</ele>
        <time>2018-08-12T14:28:15Z</time>
      </trkpt>
      <trkpt lat="46.26405" lon="10.37979">
        <ele>1518.045</ele>
        <time>2018-08-12T14:28:35Z</time>
      </trkpt>
      <trkpt lat="46.26363" lon="10.37961">
        <ele>1511.95</ele>
        <time>2018-08-12T14:28:55Z</time>
      </trkpt>
      <trkpt lat="46.26343" lon="10.37947">
        <ele>1512.311</ele>
        <time>2018-08-12T14:29:15Z</time>
      </trkpt>
      <trkpt lat="46.26331" lon="10.37953">
        <ele>1510.658</ele>
        <time>2018-08-12T14:29:35Z</time>
      </trkpt>
      <trkpt lat="46.26332" lon="10.37954">
        <ele>1510.511</ele>
        <time>2018-08-12T14:29:55Z</time>
      </trkpt>
      <trkpt lat="46.26331" lon="10.3796">
        <ele>1509.694</ele>
        <time>2018-08-12T14:30:15Z</time>
      </trkpt>
      <trkpt lat="46.26316" lon="10.37992">
        <ele>1502.857</ele>
        <time>2018-08-12T14:30:35Z</time>
      </trkpt>
      <trkpt lat="46.26314" lon="10.37994">
        <ele>1502.122</ele>
        <time>2018-08-12T14:30:55Z</time>
      </trkpt>
      <trkpt lat="46.26309" lon="10.38">
        <ele>1500.408</ele>
        <time>2018-08-12T14:31:15Z</time>
      </trkpt>
      <trkpt lat="46.26309" lon="10.38">
        <ele>1500.281</ele>
        <time>2018-08-12T14:31:35Z</time>
      </trkpt>
      <trkpt lat="46.26303" lon="10.38012">
        <ele>1498.896</ele>
        <time>2018-08-12T14:31:55Z</time>
      </trkpt>
      <trkpt lat="46.26299" lon="10.38028">
        <ele>1496.692</ele>
        <time>2018-08-12T14:32:15Z</time>
      </trkpt>
      <trkpt lat="46.26294" lon="10.38044">
        <ele>1494.086</ele>
        <time>2018-08-12T14:32:35Z</time>
      </trkpt>
      <trkpt lat="46.26291" lon="10.38052">
        <ele>1492.591</ele>
        <time>2018-08-12T14:32:55Z</time>
      </trkpt>
      <trkpt lat="46.26287" lon="10.38059">
        <ele>1491.262</ele>
        <time>2018-08-12T14:33:15Z</time>
      </trkpt>
      <trkpt lat="46.26285" lon="10.38061">
        <ele>1490.759</ele>
        <time>2018-08-12T14:33:35Z</time>
      </trkpt>
      <trkpt lat="46.26283" lon="10.38065">
        <ele>1490.042</ele>
        <time>2018-08-12T14:33:55Z</time>
      </trkpt>
      <trkpt lat="46.26272" lon="10.38084">
        <ele>1486.959</ele>
        <time>2018-08-12T14:34:15Z</time>
      </trkpt>
      <trkpt lat="46.26261" lon="10.38089">
        <ele>1485.803</ele>
        <time>2018-08-12T14:34:35Z</time>
      </trkpt>
      <trkpt lat="46.26257" lon="10.38093">
        <ele>1485.023</ele>
        <time>2018-08-12T14:34:55Z</time>
      </trkpt>
      <trkpt lat="46.26249" lon="10.381">
        <ele>1483.408</ele>
        <time>2018-08-12T14:35:15Z</time>
      </trkpt>
      <trkpt lat="46.26241" lon="10.3811">
        <ele>1482.227</ele>
        <time>2018-08-12T14:35:35Z</time>
      </trkpt>
      <trkpt lat="46.26235" lon="10.38119">
        <ele>1480.952</ele>
        <time>2018-08-12T14:35:55Z</time>
      </trkpt>
      <trkpt lat="46.26231" lon="10.38125">
        <ele>1479.728</ele>
        <time>2018-08-12T14:36:15Z</time>
      </trkpt>
      <trkpt lat="46.26227" lon="10.3813">
        <ele>1478.852</ele>
        <time>2018-08-12T14:36:35Z</time>
      </trkpt>
      <trkpt lat="46.26225" lon="10.38132">
        <ele>1478.477</ele>
        <time>2018-08-12T14:36:55Z</time>
      </trkpt>
      <trkpt lat="46.26222" lon="10.38137">
        <ele>1477.598</ele>
        <time>2018-08-12T14:37:15Z</time>
      </trkpt>
      <trkpt lat="46.26213" lon="10.38156">
        <ele>1473.885</ele>
        <time>2018-08-12T14:37:35Z</time>
      </trkpt>
      <trkpt lat="46.26211" lon="10.38161">
        <ele>1473.078</ele>
        <time>2018-08-12T14:37:55Z</time>
      </trkpt>
      <trkpt lat="46.26196" lon="10.38198">
        <ele>1466.496</ele>
        <time>2018-08-12T14:38:15Z</time>
      </trkpt>
      <trkpt lat="46.26193" lon="10.38202">
        <ele>1465.631</ele>
        <time>2018-08-12T14:38:35Z</time>
      </trkpt>
      <trkpt lat="46.26188" lon="10.38209">
        <ele>1464.724</ele>
        <time>2018-08-12T14:38:55Z</time>
      </trkpt>
      <trkpt lat="46.26179" lon="10.3822">
        <ele>1463.008</ele>
        <time>2018-08-12T14:39:15Z</time>
      </trkpt>
      <trkpt lat="46.26169" lon="10.38229">
        <ele>1461.591</ele>
        <time>2018-08-12T14:39:35Z</time>
      </trkpt>
      <trkpt lat="46.26156" lon="10.38236">
        <ele>1461.016</ele>
        <time>2018-08-12T14:39:55Z</time>
      </trkpt>
      <trkpt lat="46.26152" lon="10.38244">
        <ele>1459.412</ele>
        <time>2018-08-12T14:40:15Z</time>
      </trkpt>
      <trkpt lat="46.26144" lon="10.38256">
        <ele>1457.056</ele>
        <time>2018-08-12T14:40:35Z</time>
      </trkpt>
      <trkpt lat="46.26127" lon="10.38272">
        <ele>1455.091</ele>
        <time>2018-08-12T14:40:55Z</time>
      </trkpt>
      <trkpt lat="46.2612" lon="10.3828">
        <ele>1453.912</ele>
        <time>2018-08-12T14:41:15Z</time>
      </trkpt>
      <trkpt lat="46.26116" lon="10.38285">
        <ele>1453.149</ele>
        <time>2018-08-12T14:41:35Z</time>
      </trkpt>
      <trkpt lat="46.26109" lon="10.38293">
        <ele>1451.432</ele>
        <time>2018-08-12T14:41:55Z</time>
      </trkpt>
      <trkpt lat="46.26106" lon="10.38296">
        <ele>1451.066</ele>
        <time>2018-08-12T14:42:15Z</time>
      </trkpt>
      <trkpt lat="46.26098" lon="10.38302">
        <ele>1450.829</ele>
        <time>2018-08-12T14:42:35Z</time>
      </trkpt>
      <trkpt lat="46.26078" lon="10.38302">
        <ele>1454.021</ele>
        <time>2018-08-12T14:42:55Z</time>
      </trkpt>
      <trkpt lat="46.26065" lon="10.38313">
        <ele>1451.608</ele>
        <time>2018-08-12T14:43:15Z</time>
      </trkpt>
      <trkpt lat="46.26058" lon="10.38317">
        <ele>1450.738</ele>
        <time>2018-08-12T14:43:35Z</time>
      </trkpt>
      <trkpt lat="46.26052" lon="10.38323">
        <ele>1449.293</ele>
        <time>2018-08-12T14:43:55Z</time>
      </trkpt>
      <trkpt lat="46.26043" lon="10.38338">
        <ele>1444.879</ele>
        <time>2018-08-12T14:44:15Z</time>
      </trkpt>
      <trkpt lat="46.26029" lon="10.3836">
        <ele>1439.343</ele>
        <time>2018-08-12T14:44:35Z</time>
      </trkpt>
      <trkpt lat="46.26023" lon="10.38372">
        <ele>1435.628</ele>
        <time>2018-08-12T14:44:55Z</time>
      </trkpt>
      <trkpt lat="46.26017" lon="10.38382">
        <ele>1432.349</ele>
        <time>2018-08-12T14:45:15Z</time>
      </trkpt>
      <trkpt lat="46.26012" lon="10.38389">
        <ele>1430.086</ele>
        <time>2018-08-12T14:45:35Z</time>
      </trkpt>
      <trkpt lat="46.26003" lon="10.3841">
        <ele>1425.389</ele>
        <time>2018-08-12T14:45:55Z</time>
      </trkpt>
      <trkpt lat="46.26001" lon="10.38413">
        <ele>1424.732</ele>
        <time>2018-08-12T14:46:15Z</time>
      </trkpt>
      <trkpt lat="46.26024" lon="10.38434">
        <ele>1420.692</ele>
        <time>2018-08-12T14:46:35Z</time>
      </trkpt>
      <trkpt lat="46.2603" lon="10.38438">
        <ele>1420.011</ele>
        <time>2018-08-12T14:46:55Z</time>
      </trkpt>
      <trkpt lat="46.26041" lon="10.38445">
        <ele>1419.808</ele>
        <time>2018-08-12T14:47:15Z</time>
      </trkpt>
      <trkpt lat="46.2605" lon="10.3845">
        <ele>1419.865</ele>
        <time>2018-08-12T14:47:35Z</time>
      </trkpt>
      <trkpt lat="46.26053" lon="10.38457">
        <ele>1419.13</ele>
        <time>2018-08-12T14:47:55Z</time>
      </trkpt>
      <trkpt lat="46.26055" lon="10.3846">
        <ele>1418.776</ele>
        <time>2018-08-12T14:48:15Z</time>
      </trkpt>
      <trkpt lat="46.26055" lon="10.38463">
        <ele>1418.34</ele>
        <time>2018-08-12T14:48:35Z</time>
      </trkpt>
      <trkpt lat="46.26053" lon="10.38511">
        <ele>1411.355</ele>
        <time>2018-08-12T14:48:55Z</time>
      </trkpt>
      <trkpt lat="46.26053" lon="10.38512">
        <ele>1411.156</ele>
        <time>2018-08-12T14:49:15Z</time>
      </trkpt>
      <trkpt lat="46.26055" lon="10.38519">
        <ele>1410.213</ele>
        <time>2018-08-12T14:49:35Z</time>
      </trkpt>
      <trkpt lat="46.26059" lon="10.38522">
        <ele>1409.956</ele>
        <time>2018-08-12T14:49:55Z</time>
      </trkpt>
      <trkpt lat="46.26065" lon="10.38524">
        <ele>1409.884</ele>
        <time>2018-08-12T14:50:15Z</time>
      </trkpt>
      <trkpt lat="46.26066" lon="10.38537">
        <ele>1407.807</ele>
        <time>2018-08-12T14:50:35Z</time>
      </trkpt>
      <trkpt lat="46.26062" lon="10.38544">
        <ele>1406.417</ele>
        <time>2018-08-12T14:50:55Z</time>
      </trkpt>
      <trkpt lat="46.26059" lon="10.38554">
        <ele>1404.508</ele>
        <time>2018-08-12T14:51:15Z</time>
      </trkpt>
      <trkpt lat="46.26078" lon="10.3856">
        <ele>1405.04</ele>
        <time>2018-08-12T14:51:35Z</time>
      </trkpt>
      <trkpt lat="46.26092" lon="10.38564">
        <ele>1405.765</ele>
        <time>2018-08-12T14:51:55Z</time>
      </trkpt>
      <trkpt lat="46.26113" lon="10.38563">
        <ele>1408.421</ele>
        <time>2018-08-12T14:52:15Z</time>
      </trkpt>
      <trkpt lat="46.26127" lon="10.38565">
        <ele>1411.095</ele>
        <time>2018-08-12T14:52:35Z</time>
      </trkpt>
      <trkpt lat="46.26134" lon="10.38577">
        <ele>1411.59</ele>
        <time>2018-08-12T14:52:55Z</time>
      </trkpt>
      <trkpt lat="46.26133" lon="10.3858">
        <ele>1411.091</ele>
        <time>2018-08-12T14:53:15Z</time>
      </trkpt>
      <trkpt lat="46.26126" lon="10.38613">
        <ele>1406.118</ele>
        <time>2018-08-12T14:53:35Z</time>
      </trkpt>
      <trkpt lat="46.26126" lon="10.38614">
        <ele>1406.031</ele>
        <time>2018-08-12T14:53:55Z</time>
      </trkpt>
      <trkpt lat="46.26124" lon="10.3862">
        <ele>1405.323</ele>
        <time>2018-08-12T14:54:15Z</time>
      </trkpt>
      <trkpt lat="46.2612" lon="10.38633">
        <ele>1403.683</ele>
        <time>2018-08-12T14:54:35Z</time>
      </trkpt>
      <trkpt lat="46.26118" lon="10.38638">
        <ele>1402.811</ele>
        <time>2018-08-12T14:54:55Z</time>
      </trkpt>
      <trkpt lat="46.26117" lon="10.38646">
        <ele>1402.308</ele>
        <time>2018-08-12T14:55:15Z</time>
      </trkpt>
      <trkpt lat="46.26115" lon="10.38652">
        <ele>1401.894</ele>
        <time>2018-08-12T14:55:35Z</time>
      </trkpt>
      <trkpt lat="46.26114" lon="10.38656">
        <ele>1401.549</ele>
        <time>2018-08-12T14:55:55Z</time>
      </trkpt>
      <trkpt lat="46.26112" lon="10.38659">
        <ele>1401.055</ele>
        <time>2018-08-12T14:56:15Z</time>
      </trkpt>
      <trkpt lat="46.26109" lon="10.38663">
        <ele>1400.959</ele>
        <time>2018-08-12T14:56:35Z</time>
      </trkpt>
      <trkpt lat="46.26102" lon="10.38668">
        <ele>1400.624</ele>
        <time>2018-08-12T14:56:55Z</time>
      </trkpt>
      <trkpt lat="46.26091" lon="10.38675">
        <ele>1400.535</ele>
        <time>2018-08-12T14:57:15Z</time>
      </trkpt>
      <trkpt lat="46.26089" lon="10.38678">
        <ele>1400.582</ele>
        <time>2018-08-12T14:57:35Z</time>
      </trkpt>
      <trkpt lat="46.26079" lon="10.38686">
        <ele>1400.345</ele>
        <time>2018-08-12T14:57:55Z</time>
      </trkpt>
      <trkpt lat="46.26075" lon="10.38689">
        <ele>1400.271</ele>
        <time>2018-08-12T14:58:15Z</time>
      </trkpt>
      <trkpt lat="46.26069" lon="10.38693">
        <ele>1400.341</ele>
        <time>2018-08-12T14:58:35Z</time>
      </trkpt>
      <trkpt lat="46.26062" lon="10.38694">
        <ele>1400.115</ele>
        <time>2018-08-12T14:58:55Z</time>
      </trkpt>
      <trkpt lat="46.26058" lon="10.38696">
        <ele>1400.108</ele>
        <time>2018-08-12T14:59:15Z</time>
      </trkpt>
      <trkpt lat="46.26054" lon="10.387">
        <ele>1399.979</ele>
        <time>2018-08-12T14:59:35Z</time>
      </trkpt>
      <trkpt lat="46.26038" lon="10.38704">
        <ele>1397.114</ele>
        <time>2018-08-12T14:59:55Z</time>
      </trkpt>
      <trkpt lat="46.2603" lon="10.38703">
        <ele>1395.56</ele>
        <time>2018-08-12T15:00:15Z</time>
      </trkpt>
      <trkpt lat="46.26022" lon="10.38701">
        <ele>1392.994</ele>
        <time>2018-08-12T15:00:35Z</time>
      </trkpt>
      <trkpt lat="46.26013" lon="10.38703">
        <ele>1389.949</ele>
        <time>2018-08-12T15:00:55Z</time>
      </trkpt>
      <trkpt lat="46.26005" lon="10.38702">
        <ele>1386.97</ele>
        <time>2018-08-12T15:01:15Z</time>
      </trkpt>
      <trkpt lat="46.25995" lon="10.38708">
        <ele>1383.837</ele>
        <time>2018-08-12T15:01:35Z</time>
      </trkpt>
      <trkpt lat="46.25992" lon="10.38707">
        <ele>1382.85</ele>
        <time>2018-08-12T15:01:55Z</time>
      </trkpt>
      <trkpt lat="46.25989" lon="10.38705">
        <ele>1381.754</ele>
        <time>2018-08-12T15:02:15Z</time>
      </trkpt>
      <trkpt lat="46.25986" lon="10.38706">
        <ele>1380.756</ele>
        <time>2018-08-12T15:02:35Z</time>
      </trkpt>
      <trkpt lat="46.25985" lon="10.38708">
        <ele>1380.511</ele>
        <time>2018-08-12T15:02:55Z</time>
      </trkpt>
      <trkpt lat="46.25983" lon="10.38708">
        <ele>1379.908</ele>
        <time>2018-08-12T15:03:15Z</time>
      </trkpt>
      <trkpt lat="46.25977" lon="10.38708">
        <ele>1378.137</ele>
        <time>2018-08-12T15:03:35Z</time>
      </trkpt>
      <trkpt lat="46.2597" lon="10.38708">
        <ele>1376.382</ele>
        <time>2018-08-12T15:03:55Z</time>
      </trkpt>
      <trkpt lat="46.25966" lon="10.38708">
        <ele>1376.118</ele>
        <time>2018-08-12T15:04:15Z</time>
      </trkpt>
      <trkpt lat="46.25965" lon="10.38707">
        <ele>1375.962</ele>
        <time>2018-08-12T15:04:35Z</time>
      </trkpt>
      <trkpt lat="46.25961" lon="10.38707">
        <ele>1375.767</ele>
        <time>2018-08-12T15:04:55Z</time>
      </trkpt>
      <trkpt lat="46.25956" lon="10.3871">
        <ele>1375.768</ele>
        <time>2018-08-12T15:05:15Z</time>
      </trkpt>
      <trkpt lat="46.25953" lon="10.38715">
        <ele>1376.035</ele>
        <time>2018-08-12T15:05:35Z</time>
      </trkpt>
      <trkpt lat="46.25953" lon="10.38716">
        <ele>1376.018</ele>
        <time>2018-08-12T15:05:55Z</time>
      </trkpt>
      <trkpt lat="46.25953" lon="10.38716">
        <ele>1376.014</ele>
        <time>2018-08-12T15:06:15Z</time>
      </trkpt>
      <trkpt lat="46.25948" lon="10.38716">
        <ele>1375.854</ele>
        <time>2018-08-12T15:06:35Z</time>
      </trkpt>
      <trkpt lat="46.25945" lon="10.38716">
        <ele>1375.509</ele>
        <time>2018-08-12T15:06:55Z</time>
      </trkpt>
      <trkpt lat="46.25938" lon="10.3872">
        <ele>1374.508</ele>
        <time>2018-08-12T15:07:15Z</time>
      </trkpt>
      <trkpt lat="46.25938" lon="10.38725">
        <ele>1374.513</ele>
        <time>2018-08-12T15:07:35Z</time>
      </trkpt>
      <trkpt lat="46.25941" lon="10.3873">
        <ele>1374.868</ele>
        <time>2018-08-12T15:07:55Z</time>
      </trkpt>
      <trkpt lat="46.25945" lon="10.38732">
        <ele>1375.754</ele>
        <time>2018-08-12T15:08:15Z</time>
      </trkpt>
      <trkpt lat="46.25948" lon="10.38734">
        <ele>1375.828</ele>
        <time>2018-08-12T15:08:35Z</time>
      </trkpt>
      <trkpt lat="46.25953" lon="10.38735">
        <ele>1376.153</ele>
        <time>2018-08-12T15:08:55Z</time>
      </trkpt>
      <trkpt lat="46.2596" lon="10.38738">
        <ele>1376.564</ele>
        <time>2018-08-12T15:09:15Z</time>
      </trkpt>
      <trkpt lat="46.25968" lon="10.38737">
        <ele>1377.161</ele>
        <time>2018-08-12T15:09:35Z</time>
      </trkpt>
      <trkpt lat="46.25972" lon="10.38739">
        <ele>1377.314</ele>
        <time>2018-08-12T15:09:55Z</time>
      </trkpt>
      <trkpt lat="46.25973" lon="10.38741">
        <ele>1377.556</ele>
        <time>2018-08-12T15:10:15Z</time>
      </trkpt>
      <trkpt lat="46.25973" lon="10.38743">
        <ele>1377.459</ele>
        <time>2018-08-12T15:10:35Z</time>
      </trkpt>
      <trkpt lat="46.25973" lon="10.38744">
        <ele>1377.314</ele>
        <time>2018-08-12T15:10:55Z</time>
      </trkpt>
      <trkpt lat="46.25971" lon="10.38748">
        <ele>1376.908</ele>
        <time>2018-08-12T15:11:15Z</time>
      </trkpt>
      <trkpt lat="46.2597" lon="10.38749">
        <ele>1376.857</ele>
        <time>2018-08-12T15:11:35Z</time>
      </trkpt>
      <trkpt lat="46.25963" lon="10.38753">
        <ele>1376.092</ele>
        <time>2018-08-12T15:11:55Z</time>
      </trkpt>
      <trkpt lat="46.25953" lon="10.38755">
        <ele>1375.088</ele>
        <time>2018-08-12T15:12:15Z</time>
      </trkpt>
      <trkpt lat="46.25952" lon="10.38755">
        <ele>1374.972</ele>
        <time>2018-08-12T15:12:35Z</time>
      </trkpt>
      <trkpt lat="46.25941" lon="10.3876">
        <ele>1372.667</ele>
        <time>2018-08-12T15:12:55Z</time>
      </trkpt>
      <trkpt lat="46.25941" lon="10.3876">
        <ele>1372.418</ele>
        <time>2018-08-12T15:13:15Z</time>
      </trkpt>
      <trkpt lat="46.25936" lon="10.38762">
        <ele>1370.915</ele>
        <time>2018-08-12T15:13:35Z</time>
      </trkpt>
      <trkpt lat="46.25931" lon="10.38762">
        <ele>1369.368</ele>
        <time>2018-08-12T15:13:55Z</time>
      </trkpt>
      <trkpt lat="46.25925" lon="10.38758">
        <ele>1368.294</ele>
        <time>2018-08-12T15:14:15Z</time>
      </trkpt>
      <trkpt lat="46.25917" lon="10.38747">
        <ele>1367.457</ele>
        <time>2018-08-12T15:14:35Z</time>
      </trkpt>
      <trkpt lat="46.25912" lon="10.38738">
        <ele>1367.322</ele>
        <time>2018-08-12T15:14:55Z</time>
      </trkpt>
      <trkpt lat="46.25908" lon="10.38732">
        <ele>1367.008</ele>
        <time>2018-08-12T15:15:15Z</time>
      </trkpt>
      <trkpt lat="46.25901" lon="10.3872">
        <ele>1367.321</ele>
        <time>2018-08-12T15:15:35Z</time>
      </trkpt>
      <trkpt lat="46.25899" lon="10.38718">
        <ele>1367.396</ele>
        <time>2018-08-12T15:15:55Z</time>
      </trkpt>
      <trkpt lat="46.25898" lon="10.38716">
        <ele>1367.212</ele>
        <time>2018-08-12T15:16:15Z</time>
      </trkpt>
      <trkpt lat="46.25898" lon="10.38715">
        <ele>1367.286</ele>
        <time>2018-08-12T15:16:35Z</time>
      </trkpt>
      <trkpt lat="46.25895" lon="10.38712">
        <ele>1367.131</ele>
        <time>2018-08-12T15:16:55Z</time>
      </trkpt>
      <trkpt lat="46.25893" lon="10.38709">
        <ele>1367.072</ele>
        <time>2018-08-12T15:17:15Z</time>
      </trkpt>
      <trkpt lat="46.25889" lon="10.38706">
        <ele>1366.799</ele>
        <time>2018-08-12T15:17:35Z</time>
      </trkpt>
      <trkpt lat="46.2588" lon="10.38706">
        <ele>1365.022</ele>
        <time>2018-08-12T15:17:55Z</time>
      </trkpt>
      <trkpt lat="46.25873" lon="10.38714">
        <ele>1362.431</ele>
        <time>2018-08-12T15:18:15Z</time>
      </trkpt>
      <trkpt lat="46.25861" lon="10.38726">
        <ele>1357.461</ele>
        <time>2018-08-12T15:18:35Z</time>
      </trkpt>
      <trkpt lat="46.25858" lon="10.38729">
        <ele>1356.507</ele>
        <time>2018-08-12T15:18:55Z</time>
      </trkpt>
      <trkpt lat="46.25854" lon="10.38731">
        <ele>1355.508</ele>
        <time>2018-08-12T15:19:15Z</time>
      </trkpt>
      <trkpt lat="46.25849" lon="10.38734">
        <ele>1354.295</ele>
        <time>2018-08-12T15:19:35Z</time>
      </trkpt>
      <trkpt lat="46.25848" lon="10.38735">
        <ele>1354.08</ele>
        <time>2018-08-12T15:19:55Z</time>
      </trkpt>
      <trkpt lat="46.25841" lon="10.38742">
        <ele>1352.036</ele>
        <time>2018-08-12T15:20:15Z</time>
      </trkpt>
      <trkpt lat="46.25836" lon="10.38749">
        <ele>1350.49</ele>
        <time>2018-08-12T15:20:35Z</time>
      </trkpt>
      <trkpt lat="46.25834" lon="10.38756">
        <ele>1350.085</ele>
        <time>2018-08-12T15:20:55Z</time>
      </trkpt>
      <trkpt lat="46.2583" lon="10.3876">
        <ele>1350.096</ele>
        <time>2018-08-12T15:21:15Z</time>
      </trkpt>
      <trkpt lat="46.25827" lon="10.38766">
        <ele>1350.073</ele>
        <time>2018-08-12T15:21:35Z</time>
      </trkpt>
      <trkpt lat="46.25799" lon="10.3879">
        <ele>1349.846</ele>
        <time>2018-08-12T15:21:55Z</time>
      </trkpt>
      <trkpt lat="46.25793" lon="10.38792">
        <ele>1349.726</ele>
        <time>2018-08-12T15:22:15Z</time>
      </trkpt>
      <trkpt lat="46.25776" lon="10.38804">
        <ele>1348.947</ele>
        <time>2018-08-12T15:22:35Z</time>
      </trkpt>
      <trkpt lat="46.25749" lon="10.38823">
        <ele>1345.411</ele>
        <time>2018-08-12T15:22:55Z</time>
      </trkpt>
      <trkpt lat="46.25735" lon="10.38832">
        <ele>1341.808</ele>
        <time>2018-08-12T15:23:15Z</time>
      </trkpt>
      <trkpt lat="46.25733" lon="10.38832">
        <ele>1341.474</ele>
        <time>2018-08-12T15:23:35Z</time>
      </trkpt>
      <trkpt lat="46.25731" lon="10.38833">
        <ele>1341.019</ele>
        <time>2018-08-12T15:23:55Z</time>
      </trkpt>
      <trkpt lat="46.25718" lon="10.38833">
        <ele>1338.825</ele>
        <time>2018-08-12T15:24:15Z</time>
      </trkpt>
      <trkpt lat="46.25707" lon="10.38833">
        <ele>1338.429</ele>
        <time>2018-08-12T15:24:35Z</time>
      </trkpt>
      <trkpt lat="46.25678" lon="10.38842">
        <ele>1333.464</ele>
        <time>2018-08-12T15:24:55Z</time>
      </trkpt>
      <trkpt lat="46.2567" lon="10.38844">
        <ele>1331.465</ele>
        <time>2018-08-12T15:25:15Z</time>
      </trkpt>
      <trkpt lat="46.2566" lon="10.38846">
        <ele>1328.982</ele>
        <time>2018-08-12T15:25:35Z</time>
      </trkpt>
      <trkpt lat="46.25652" lon="10.38845">
        <ele>1327.535</ele>
        <time>2018-08-12T15:25:55Z</time>
      </trkpt>
      <trkpt lat="46.25646" lon="10.38844">
        <ele>1326.157</ele>
        <time>2018-08-12T15:26:15Z</time>
      </trkpt>
      <trkpt lat="46.25629" lon="10.38852">
        <ele>1321.9</ele>
        <time>2018-08-12T15:26:35Z</time>
      </trkpt>
      <trkpt lat="46.25627" lon="10.38853">
        <ele>1321.42</ele>
        <time>2018-08-12T15:26:55Z</time>
      </trkpt>
      <trkpt lat="46.25609" lon="10.38858">
        <ele>1318.908</ele>
        <time>2018-08-12T15:27:15Z</time>
      </trkpt>
      <trkpt lat="46.25604" lon="10.38861">
        <ele>1317.977</ele>
        <time>2018-08-12T15:27:35Z</time>
      </trkpt>
      <trkpt lat="46.25603" lon="10.38862">
        <ele>1317.712</ele>
        <time>2018-08-12T15:27:55Z</time>
      </trkpt>
      <trkpt lat="46.25602" lon="10.38864">
        <ele>1317.338</ele>
        <time>2018-08-12T15:28:15Z</time>
      </trkpt>
      <trkpt lat="46.25598" lon="10.3887">
        <ele>1315.732</ele>
        <time>2018-08-12T15:28:35Z</time>
      </trkpt>
      <trkpt lat="46.25592" lon="10.38872">
        <ele>1314.837</ele>
        <time>2018-08-12T15:28:55Z</time>
      </trkpt>
      <trkpt lat="46.25574" lon="10.38873">
        <ele>1315.078</ele>
        <time>2018-08-12T15:29:15Z</time>
      </trkpt>
      <trkpt lat="46.25564" lon="10.38876">
        <ele>1314.435</ele>
        <time>2018-08-12T15:29:35Z</time>
      </trkpt>
      <trkpt lat="46.25563" lon="10.38876">
        <ele>1314.418</ele>
        <time>2018-08-12T15:29:55Z</time>
      </trkpt>
      <trkpt lat="46.25562" lon="10.38876">
        <ele>1314.388</ele>
        <time>2018-08-12T15:30:15Z</time>
      </trkpt>
      <trkpt lat="46.25559" lon="10.38877">
        <ele>1314.324</ele>
        <time>2018-08-12T15:30:35Z</time>
      </trkpt>
      <trkpt lat="46.25554" lon="10.38878">
        <ele>1314.226</ele>
        <time>2018-08-12T15:30:55Z</time>
      </trkpt>
      <trkpt lat="46.25553" lon="10.38879">
        <ele>1314.208</ele>
        <time>2018-08-12T15:31:15Z</time>
      </trkpt>
      <trkpt lat="46.25537" lon="10.38885">
        <ele>1313.76</ele>
        <time>2018-08-12T15:31:35Z</time>
      </trkpt>
      <trkpt lat="46.25523" lon="10.38896">
        <ele>1311.275</ele>
        <time>2018-08-12T15:31:55Z</time>
      </trkpt>
      <trkpt lat="46.25506" lon="10.38904">
        <ele>1310.571</ele>
        <time>2018-08-12T15:32:15Z</time>
      </trkpt>
      <trkpt lat="46.25501" lon="10.38906">
        <ele>1310.175</ele>
        <time>2018-08-12T15:32:35Z</time>
      </trkpt>
      <trkpt lat="46.25489" lon="10.38911">
        <ele>1309.33</ele>
        <time>2018-08-12T15:32:55Z</time>
      </trkpt>
      <trkpt lat="46.25466" lon="10.38922">
        <ele>1307.681</ele>
        <time>2018-08-12T15:33:15Z</time>
      </trkpt>
      <trkpt lat="46.2545" lon="10.38928">
        <ele>1305.738</ele>
        <time>2018-08-12T15:33:35Z</time>
      </trkpt>
      <trkpt lat="46.2541" lon="10.38955">
        <ele>1301.741</ele>
        <time>2018-08-12T15:33:55Z</time>
      </trkpt>
      <trkpt lat="46.25374" lon="10.38981">
        <ele>1300.099</ele>
        <time>2018-08-12T15:34:15Z</time>
      </trkpt>
      <trkpt lat="46.2534" lon="10.39003">
        <ele>1299.107</ele>
        <time>2018-08-12T15:34:35Z</time>
      </trkpt>
      <trkpt lat="46.25321" lon="10.39017">
        <ele>1297.027</ele>
        <time>2018-08-12T15:34:55Z</time>
      </trkpt>
      <trkpt lat="46.25313" lon="10.39021">
        <ele>1295.908</ele>
        <time>2018-08-12T15:35:15Z</time>
      </trkpt>
      <trkpt lat="46.25302" lon="10.39026">
        <ele>1293.531</ele>
        <time>2018-08-12T15:35:35Z</time>
      </trkpt>
      <trkpt lat="46.25282" lon="10.39027">
        <ele>1289.016</ele>
        <time>2018-08-12T15:35:55Z</time>
      </trkpt>
      <trkpt lat="46.2527" lon="10.39026">
        <ele>1285.532</ele>
        <time>2018-08-12T15:36:15Z</time>
      </trkpt>
      <trkpt lat="46.25244" lon="10.39025">
        <ele>1278.396</ele>
        <time>2018-08-12T15:36:35Z</time>
      </trkpt>
      <trkpt lat="46.25227" lon="10.39019">
        <ele>1278.381</ele>
        <time>2018-08-12T15:36:55Z</time>
      </trkpt>
      <trkpt lat="46.25224" lon="10.39018">
        <ele>1278.342</ele>
        <time>2018-08-12T15:37:15Z</time>
      </trkpt>
      <trkpt lat="46.252" lon="10.39018">
        <ele>1274.059</ele>
        <time>2018-08-12T15:37:35Z</time>
      </trkpt>
      <trkpt lat="46.25195" lon="10.39017">
        <ele>1273.672</ele>
        <time>2018-08-12T15:37:55Z</time>
      </trkpt>
      <trkpt lat="46.25171" lon="10.39012">
        <ele>1273.795</ele>
        <time>2018-08-12T15:38:15Z</time>
      </trkpt>
      <trkpt lat="46.25153" lon="10.39019">
        <ele>1270.149</ele>
        <time>2018-08-12T15:38:35Z</time>
      </trkpt>
      <trkpt lat="46.25131" lon="10.39036">
        <ele>1263.523</ele>
        <time>2018-08-12T15:38:55Z</time>
      </trkpt>
      <trkpt lat="46.25127" lon="10.39038">
        <ele>1262.908</ele>
        <time>2018-08-12T15:39:15Z</time>
      </trkpt>
      <trkpt lat="46.25107" lon="10.39051">
        <ele>1259.111</ele>
        <time>2018-08-12T15:39:35Z</time>
      </trkpt>
      <trkpt lat="46.25087" lon="10.39059">
        <ele>1253.836</ele>
        <time>2018-08-12T15:39:55Z</time>
      </trkpt>
      <trkpt lat="46.25072" lon="10.39064">
        <ele>1252.432</ele>
        <time>2018-08-12T15:40:15Z</time>
      </trkpt>
      <trkpt lat="46.25061" lon="10.39066">
        <ele>1252.096</ele>
        <time>2018-08-12T15:40:35Z</time>
      </trkpt>
      <trkpt lat="46.25041" lon="10.39074">
        <ele>1251.741</ele>
        <time>2018-08-12T15:40:55Z</time>
      </trkpt>
      <trkpt lat="46.25004" lon="10.39101">
        <ele>1246.972</ele>
        <time>2018-08-12T15:41:15Z</time>
      </trkpt>
      <trkpt lat="46.24985" lon="10.39118">
        <ele>1243.039</ele>
        <time>2018-08-12T15:41:35Z</time>
      </trkpt>
      <trkpt lat="46.24968" lon="10.39144">
        <ele>1234.132</ele>
        <time>2018-08-12T15:41:55Z</time>
      </trkpt>
      <trkpt lat="46.24927" lon="10.39168">
        <ele>1226.724</ele>
        <time>2018-08-12T15:42:15Z</time>
      </trkpt>
      <trkpt lat="46.24878" lon="10.392">
        <ele>1224.704</ele>
        <time>2018-08-12T15:42:35Z</time>
      </trkpt>
      <trkpt lat="46.24842" lon="10.39217">
        <ele>1220.414</ele>
        <time>2018-08-12T15:42:55Z</time>
      </trkpt>
      <trkpt lat="46.24827" lon="10.39221">
        <ele>1218.508</ele>
        <time>2018-08-12T15:43:15Z</time>
      </trkpt>
      <trkpt lat="46.24823" lon="10.39223">
        <ele>1217.874</ele>
        <time>2018-08-12T15:43:35Z</time>
      </trkpt>
      <trkpt lat="46.24809" lon="10.39231">
        <ele>1215.259</ele>
        <time>2018-08-12T15:43:55Z</time>
      </trkpt>
      <trkpt lat="46.24802" lon="10.39234">
        <ele>1214.365</ele>
        <time>2018-08-12T15:44:15Z</time>
      </trkpt>
      <trkpt lat="46.24801" lon="10.39235">
        <ele>1214.289</ele>
        <time>2018-08-12T15:44:35Z</time>
      </trkpt>
      <trkpt lat="46.24798" lon="10.39237">
        <ele>1213.524</ele>
        <time>2018-08-12T15:44:55Z</time>
      </trkpt>
      <trkpt lat="46.2478" lon="10.39253">
        <ele>1208.895</ele>
        <time>2018-08-12T15:45:15Z</time>
      </trkpt>
      <trkpt lat="46.24777" lon="10.39256">
        <ele>1208.182</ele>
        <time>2018-08-12T15:45:35Z</time>
      </trkpt>
      <trkpt lat="46.24745" lon="10.39281">
        <ele>1202.765</ele>
        <time>2018-08-12T15:45:55Z</time>
      </trkpt>
      <trkpt lat="46.24741" lon="10.39285">
        <ele>1202.242</ele>
        <time>2018-08-12T15:46:15Z</time>
      </trkpt>
      <trkpt lat="46.24732" lon="10.39293">
        <ele>1200.822</ele>
        <time>2018-08-12T15:46:35Z</time>
      </trkpt>
      <trkpt lat="46.24723" lon="10.393">
        <ele>1198.614</ele>
        <time>2018-08-12T15:46:55Z</time>
      </trkpt>
      <trkpt lat="46.24705" lon="10.39303">
        <ele>1199.908</ele>
        <time>2018-08-12T15:47:15Z</time>
      </trkpt>
      <trkpt lat="46.24674" lon="10.39324">
        <ele>1198.016</ele>
        <time>2018-08-12T15:47:35Z</time>
      </trkpt>
      <trkpt lat="46.24665" lon="10.3933">
        <ele>1196.451</ele>
        <time>2018-08-12T15:47:55Z</time>
      </trkpt>
      <trkpt lat="46.2466" lon="10.39334">
        <ele>1194.517</ele>
        <time>2018-08-12T15:48:15Z</time>
      </trkpt>
      <trkpt lat="46.24643" lon="10.39349">
        <ele>1188.431</ele>
        <time>2018-08-12T15:48:35Z</time>
      </trkpt>
      <trkpt lat="46.24635" lon="10.39355">
        <ele>1185.826</ele>
        <time>2018-08-12T15:48:55Z</time>
      </trkpt>
      <trkpt lat="46.24628" lon="10.39361">
        <ele>1183.727</ele>
        <time>2018-08-12T15:49:15Z</time>
      </trkpt>
      <trkpt lat="46.24604" lon="10.3938">
        <ele>1178.354</ele>
        <time>2018-08-12T15:49:35Z</time>
      </trkpt>
      <trkpt lat="46.24582" lon="10.39388">
        <ele>1175.137</ele>
        <time>2018-08-12T15:49:55Z</time>
      </trkpt>
      <trkpt lat="46.24549" lon="10.39414">
        <ele>1167.781</ele>
        <time>2018-08-12T15:50:15Z</time>
      </trkpt>
      <trkpt lat="46.2454" lon="10.39428">
        <ele>1162.161</ele>
        <time>2018-08-12T15:50:35Z</time>
      </trkpt>
      <trkpt lat="46.2454" lon="10.39428">
        <ele>1161.817</ele>
        <time>2018-08-12T15:50:55Z</time>
      </trkpt>
      <trkpt lat="46.24534" lon="10.39428">
        <ele>1160.708</ele>
        <time>2018-08-12T15:51:15Z</time>
      </trkpt>
      <trkpt lat="46.24526" lon="10.39436">
        <ele>1156.36</ele>
        <time>2018-08-12T15:51:35Z</time>
      </trkpt>
      <trkpt lat="46.2452" lon="10.39441">
        <ele>1154.525</ele>
        <time>2018-08-12T15:51:55Z</time>
      </trkpt>
      <trkpt lat="46.24515" lon="10.39447">
        <ele>1152.631</ele>
        <time>2018-08-12T15:52:15Z</time>
      </trkpt>
      <trkpt lat="46.24511" lon="10.39449">
        <ele>1152.315</ele>
        <time>2018-08-12T15:52:35Z</time>
      </trkpt>
      <trkpt lat="46.2451" lon="10.39449">
        <ele>1152.24</ele>
        <time>2018-08-12T15:52:55Z</time>
      </trkpt>
      <trkpt lat="46.24509" lon="10.3945">
        <ele>1152.191</ele>
        <time>2018-08-12T15:53:15Z</time>
      </trkpt>
      <trkpt lat="46.24508" lon="10.3945">
        <ele>1152.058</ele>
        <time>2018-08-12T15:53:35Z</time>
      </trkpt>
      <trkpt lat="46.24493" lon="10.39453">
        <ele>1151.951</ele>
        <time>2018-08-12T15:53:55Z</time>
      </trkpt>
      <trkpt lat="46.24482" lon="10.39454">
        <ele>1152.067</ele>
        <time>2018-08-12T15:54:15Z</time>
      </trkpt>
      <trkpt lat="46.24424" lon="10.3947">
        <ele>1144.081</ele>
        <time>2018-08-12T15:54:35Z</time>
      </trkpt>
      <trkpt lat="46.24417" lon="10.39474">
        <ele>1141.119</ele>
        <time>2018-08-12T15:54:55Z</time>
      </trkpt>
      <trkpt lat="46.24409" lon="10.39479">
        <ele>1139.008</ele>
        <time>2018-08-12T15:55:15Z</time>
      </trkpt>
      <trkpt lat="46.24403" lon="10.39482">
        <ele>1137.768</ele>
        <time>2018-08-12T15:55:35Z</time>
      </trkpt>
      <trkpt lat="46.24399" lon="10.39486">
        <ele>1135.853</ele>
        <time>2018-08-12T15:55:55Z</time>
      </trkpt>
      <trkpt lat="46.24396" lon="10.3949">
        <ele>1134.339</ele>
        <time>2018-08-12T15:56:15Z</time>
      </trkpt>
      <trkpt lat="46.24393" lon="10.39491">
        <ele>1134.043</ele>
        <time>2018-08-12T15:56:35Z</time>
      </trkpt>
      <trkpt lat="46.24377" lon="10.39515">
        <ele>1129.248</ele>
        <time>2018-08-12T15:56:55Z</time>
      </trkpt>
      <trkpt lat="46.24376" lon="10.39515">
        <ele>1129.019</ele>
        <time>2018-08-12T15:57:15Z</time>
      </trkpt>
      <trkpt lat="46.24376" lon="10.39517">
        <ele>1128.666</ele>
        <time>2018-08-12T15:57:35Z</time>
      </trkpt>
      <trkpt lat="46.24354" lon="10.39534">
        <ele>1126.149</ele>
        <time>2018-08-12T15:57:55Z</time>
      </trkpt>
      <trkpt lat="46.24352" lon="10.39536">
        <ele>1126.339</ele>
        <time>2018-08-12T15:58:15Z</time>
      </trkpt>
      <trkpt lat="46.24345" lon="10.39542">
        <ele>1126.401</ele>
        <time>2018-08-12T15:58:35Z</time>
      </trkpt>
      <trkpt lat="46.24335" lon="10.3955">
        <ele>1125.421</ele>
        <time>2018-08-12T15:58:55Z</time>
      </trkpt>
      <trkpt lat="46.24323" lon="10.39571">
        <ele>1123.408</ele>
        <time>2018-08-12T15:59:15Z</time>
      </trkpt>
      <trkpt lat="46.24302" lon="10.39585">
        <ele>1121.675</ele>
        <time>2018-08-12T15:59:35Z</time>
      </trkpt>
      <trkpt lat="46.24256" lon="10.39614">
        <ele>1113.38</ele>
        <time>2018-08-12T15:59:55Z</time>
      </trkpt>
      <trkpt lat="46.24233" lon="10.39631">
        <ele>1105.426</ele>
        <time>2018-08-12T16:00:15Z</time>
      </trkpt>
      <trkpt lat="46.24225" lon="10.39636">
        <ele>1102.48</ele>
        <time>2018-08-12T16:00:35Z</time>
      </trkpt>
      <trkpt lat="46.24224" lon="10.39637">
        <ele>1101.865</ele>
        <time>2018-08-12T16:00:55Z</time>
      </trkpt>
      <trkpt lat="46.24206" lon="10.39656">
        <ele>1102.196</ele>
        <time>2018-08-12T16:01:15Z</time>
      </trkpt>
      <trkpt lat="46.24188" lon="10.39665">
        <ele>1101.063</ele>
        <time>2018-08-12T16:01:35Z</time>
      </trkpt>
      <trkpt lat="46.2418" lon="10.39662">
        <ele>1102.646</ele>
        <time>2018-08-12T16:01:55Z</time>
      </trkpt>
      <trkpt lat="46.24158" lon="10.39658">
        <ele>1105.342</ele>
        <time>2018-08-12T16:02:15Z</time>
      </trkpt>
      <trkpt lat="46.2415" lon="10.39661">
        <ele>1105.122</ele>
        <time>2018-08-12T16:02:35Z</time>
      </trkpt>
      <trkpt lat="46.24144" lon="10.39664">
        <ele>1104.514</ele>
        <time>2018-08-12T16:02:55Z</time>
      </trkpt>
      <trkpt lat="46.24138" lon="10.39667">
        <ele>1103.908</ele>
        <time>2018-08-12T16:03:15Z</time>
      </trkpt>
      <trkpt lat="46.2412" lon="10.39679">
        <ele>1101.486</ele>
        <time>2018-08-12T16:03:35Z</time>
      </trkpt>
      <trkpt lat="46.2411" lon="10.39687">
        <ele>1099.561</ele>
        <time>2018-08-12T16:03:55Z</time>
      </trkpt>
      <trkpt lat="46.24105" lon="10.3969">
        <ele>1098.477</ele>
        <time>2018-08-12T16:04:15Z</time>
      </trkpt>
      <trkpt lat="46.24102" lon="10.39693">
        <ele>1097.741</ele>
        <time>2018-08-12T16:04:35Z</time>
      </trkpt>
      <trkpt lat="46.24099" lon="10.39695">
        <ele>1097.056</ele>
        <time>2018-08-12T16:04:55Z</time>
      </trkpt>
      <trkpt lat="46.24092" lon="10.39695">
        <ele>1096.557</ele>
        <time>2018-08-12T16:05:15Z</time>
      </trkpt>
      <trkpt lat="46.24086" lon="10.39693">
        <ele>1096.354</ele>
        <time>2018-08-12T16:05:35Z</time>
      </trkpt>
      <trkpt lat="46.24075" lon="10.39697">
        <ele>1095.397</ele>
        <time>2018-08-12T16:05:55Z</time>
      </trkpt>
      <trkpt lat="46.24071" lon="10.39698">
        <ele>1094.812</ele>
        <time>2018-08-12T16:06:15Z</time>
      </trkpt>
      <trkpt lat="46.24063" lon="10.39706">
        <ele>1093.132</ele>
        <time>2018-08-12T16:06:35Z</time>
      </trkpt>
      <trkpt lat="46.24058" lon="10.39706">
        <ele>1092.905</ele>
        <time>2018-08-12T16:06:55Z</time>
      </trkpt>
      <trkpt lat="46.24039" lon="10.39704">
        <ele>1089.908</ele>
        <time>2018-08-12T16:07:15Z</time>
      </trkpt>
      <trkpt lat="46.24029" lon="10.39709">
        <ele>1086.573</ele>
        <time>2018-08-12T16:07:35Z</time>
      </trkpt>
      <trkpt lat="46.24035" lon="10.39738">
        <ele>1080.398</ele>
        <time>2018-08-12T16:07:55Z</time>
      </trkpt>
    </trkseg>
  </trk>
</gpx>